<?xml version="1.0" encoding="UTF-8" standalone="no" ?>
<gpx xmlns="http://www.topografix.com/GPX/1/1" creator="MapSource 6.16.3" version="1.1" xmlns:xsi="http://www.w3.org/2001/XMLSchema-instance" xsi:schemaLocation="http://www.topografix.com/GPX/1/1 http://www.topografix.com/GPX/1/1/gpx.xsd">

  <metadata>
    <link href="http://www.garmin.com">
      <text>Garmin International</text>
    </link>
    <time>2015-01-17T14:33:20Z</time>
    <bounds maxlat="46.621053954586387" maxlon="7.052160920575261" minlat="43.946740943938494" minlon="5.314995981752873"/>
  </metadata>

  <trk>
    <name>Saint Saturnin 1ère Bulle-Eloise</name>
    <trkseg>
      <trkpt lat="46.615280918776989" lon="7.052160920575261">
        <ele>783.79998779296875</ele>
        <time>2011-06-18T06:26:03Z</time>
      </trkpt>
      <trkpt lat="46.615056954324245" lon="7.051042942330241">
        <ele>785.20001220703125</ele>
        <time>2011-06-18T06:26:22Z</time>
      </trkpt>
      <trkpt lat="46.614815974608064" lon="7.049846928566694">
        <ele>787.5999755859375</ele>
        <time>2011-06-18T06:26:40Z</time>
      </trkpt>
      <trkpt lat="46.614587986841798" lon="7.048763986676931">
        <ele>790.4000244140625</ele>
        <time>2011-06-18T06:26:57Z</time>
      </trkpt>
      <trkpt lat="46.614452954381704" lon="7.048125956207514">
        <ele>792</ele>
        <time>2011-06-18T06:27:07Z</time>
      </trkpt>
      <trkpt lat="46.614267965778708" lon="7.047205958515406">
        <ele>794</ele>
        <time>2011-06-18T06:27:22Z</time>
      </trkpt>
      <trkpt lat="46.614063950255513" lon="7.046225946396589">
        <ele>796.79998779296875</ele>
        <time>2011-06-18T06:27:38Z</time>
      </trkpt>
      <trkpt lat="46.613919949159026" lon="7.045485991984606">
        <ele>798.4000244140625</ele>
        <time>2011-06-18T06:27:49Z</time>
      </trkpt>
      <trkpt lat="46.613740995526314" lon="7.044630954042077">
        <ele>800.79998779296875</ele>
        <time>2011-06-18T06:28:02Z</time>
      </trkpt>
      <trkpt lat="46.613493980839849" lon="7.043361933901906">
        <ele>804.20001220703125</ele>
        <time>2011-06-18T06:28:22Z</time>
      </trkpt>
      <trkpt lat="46.613421980291605" lon="7.042697919532657">
        <ele>805.79998779296875</ele>
        <time>2011-06-18T06:28:32Z</time>
      </trkpt>
      <trkpt lat="46.613371940329671" lon="7.041416997089982">
        <ele>808.5999755859375</ele>
        <time>2011-06-18T06:28:52Z</time>
      </trkpt>
      <trkpt lat="46.61332692950964" lon="7.0403609611094">
        <ele>811.20001220703125</ele>
        <time>2011-06-18T06:29:09Z</time>
      </trkpt>
      <trkpt lat="46.613404965028167" lon="7.038983982056379">
        <ele>814.4000244140625</ele>
        <time>2011-06-18T06:29:30Z</time>
      </trkpt>
      <trkpt lat="46.613510996103287" lon="7.038196921348572">
        <ele>815.79998779296875</ele>
        <time>2011-06-18T06:29:42Z</time>
      </trkpt>
      <trkpt lat="46.613651979714632" lon="7.037264937534928">
        <ele>817.4000244140625</ele>
        <time>2011-06-18T06:29:57Z</time>
      </trkpt>
      <trkpt lat="46.613838979974389" lon="7.035888964310288">
        <ele>819.79998779296875</ele>
        <time>2011-06-18T06:30:16Z</time>
      </trkpt>
      <trkpt lat="46.613935958594084" lon="7.035166947171092">
        <ele>821.20001220703125</ele>
        <time>2011-06-18T06:30:26Z</time>
      </trkpt>
      <trkpt lat="46.614038972184062" lon="7.03438994474709">
        <ele>823.20001220703125</ele>
        <time>2011-06-18T06:30:37Z</time>
      </trkpt>
      <trkpt lat="46.614197976887226" lon="7.033685948699713">
        <ele>824.4000244140625</ele>
        <time>2011-06-18T06:30:47Z</time>
      </trkpt>
      <trkpt lat="46.614653952419758" lon="7.032629996538162">
        <ele>824.20001220703125</ele>
        <time>2011-06-18T06:31:02Z</time>
      </trkpt>
      <trkpt lat="46.614990988746285" lon="7.03208995051682">
        <ele>822.5999755859375</ele>
        <time>2011-06-18T06:31:09Z</time>
      </trkpt>
      <trkpt lat="46.615490969270468" lon="7.031177999451757">
        <ele>819.4000244140625</ele>
        <time>2011-06-18T06:31:19Z</time>
      </trkpt>
      <trkpt lat="46.615978963673115" lon="7.030130932107568">
        <ele>817</ele>
        <time>2011-06-18T06:31:30Z</time>
      </trkpt>
      <trkpt lat="46.616280963644385" lon="7.029393995180726">
        <ele>816.20001220703125</ele>
        <time>2011-06-18T06:31:38Z</time>
      </trkpt>
      <trkpt lat="46.616703998297453" lon="7.028329996392131">
        <ele>816.20001220703125</ele>
        <time>2011-06-18T06:31:50Z</time>
      </trkpt>
      <trkpt lat="46.617084955796599" lon="7.0277289301157">
        <ele>815.20001220703125</ele>
        <time>2011-06-18T06:31:58Z</time>
      </trkpt>
      <trkpt lat="46.617468930780888" lon="7.027360964566469">
        <ele>813.4000244140625</ele>
        <time>2011-06-18T06:32:04Z</time>
      </trkpt>
      <trkpt lat="46.617870926856995" lon="7.027056952938438">
        <ele>812.5999755859375</ele>
        <time>2011-06-18T06:32:10Z</time>
      </trkpt>
      <trkpt lat="46.618047952651978" lon="7.026040982455015">
        <ele>815</ele>
        <time>2011-06-18T06:32:23Z</time>
      </trkpt>
      <trkpt lat="46.618037978187203" lon="7.025209916755557">
        <ele>818.20001220703125</ele>
        <time>2011-06-18T06:32:35Z</time>
      </trkpt>
      <trkpt lat="46.617799932137132" lon="7.02398699708283">
        <ele>821.20001220703125</ele>
        <time>2011-06-18T06:32:54Z</time>
      </trkpt>
      <trkpt lat="46.617690967395902" lon="7.023298926651478">
        <ele>820.5999755859375</ele>
        <time>2011-06-18T06:33:03Z</time>
      </trkpt>
      <trkpt lat="46.617600945755839" lon="7.0224429666996">
        <ele>819.5999755859375</ele>
        <time>2011-06-18T06:33:12Z</time>
      </trkpt>
      <trkpt lat="46.617586947977543" lon="7.021745927631855">
        <ele>819</ele>
        <time>2011-06-18T06:33:19Z</time>
      </trkpt>
      <trkpt lat="46.617726925760508" lon="7.020947970449925">
        <ele>818</ele>
        <time>2011-06-18T06:33:26Z</time>
      </trkpt>
      <trkpt lat="46.617681998759508" lon="7.020269958302379">
        <ele>817.4000244140625</ele>
        <time>2011-06-18T06:33:33Z</time>
      </trkpt>
      <trkpt lat="46.617270950227976" lon="7.019217945635319">
        <ele>816.79998779296875</ele>
        <time>2011-06-18T06:33:47Z</time>
      </trkpt>
      <trkpt lat="46.617356948554516" lon="7.018689969554544">
        <ele>816</ele>
        <time>2011-06-18T06:33:54Z</time>
      </trkpt>
      <trkpt lat="46.6178809851408" lon="7.018275987356901">
        <ele>814.79998779296875</ele>
        <time>2011-06-18T06:34:03Z</time>
      </trkpt>
      <trkpt lat="46.618315922096372" lon="7.017911961302161">
        <ele>814.20001220703125</ele>
        <time>2011-06-18T06:34:10Z</time>
      </trkpt>
      <trkpt lat="46.61876292899251" lon="7.017421955242753">
        <ele>814</ele>
        <time>2011-06-18T06:34:18Z</time>
      </trkpt>
      <trkpt lat="46.618944983929396" lon="7.016621986404061">
        <ele>813.5999755859375</ele>
        <time>2011-06-18T06:34:27Z</time>
      </trkpt>
      <trkpt lat="46.618880946189165" lon="7.015527980402112">
        <ele>813</ele>
        <time>2011-06-18T06:34:38Z</time>
      </trkpt>
      <trkpt lat="46.618822943419218" lon="7.014544950798154">
        <ele>813</ele>
        <time>2011-06-18T06:34:48Z</time>
      </trkpt>
      <trkpt lat="46.618618927896023" lon="7.013165960088372">
        <ele>814</ele>
        <time>2011-06-18T06:35:04Z</time>
      </trkpt>
      <trkpt lat="46.618532929569483" lon="7.01243095099926">
        <ele>814</ele>
        <time>2011-06-18T06:35:13Z</time>
      </trkpt>
      <trkpt lat="46.618514992296696" lon="7.011775989085436">
        <ele>813.79998779296875</ele>
        <time>2011-06-18T06:35:21Z</time>
      </trkpt>
      <trkpt lat="46.618315922096372" lon="7.010492971166968">
        <ele>810</ele>
        <time>2011-06-18T06:35:34Z</time>
      </trkpt>
      <trkpt lat="46.618326986208558" lon="7.009650925174356">
        <ele>805.79998779296875</ele>
        <time>2011-06-18T06:35:41Z</time>
      </trkpt>
      <trkpt lat="46.618656981736422" lon="7.009153962135315">
        <ele>803.20001220703125</ele>
        <time>2011-06-18T06:35:46Z</time>
      </trkpt>
      <trkpt lat="46.619006926193833" lon="7.00858592055738">
        <ele>802.4000244140625</ele>
        <time>2011-06-18T06:35:52Z</time>
      </trkpt>
      <trkpt lat="46.619395930320024" lon="7.007325952872634">
        <ele>803</ele>
        <time>2011-06-18T06:36:05Z</time>
      </trkpt>
      <trkpt lat="46.619434989988804" lon="7.006204957142472">
        <ele>803.20001220703125</ele>
        <time>2011-06-18T06:36:16Z</time>
      </trkpt>
      <trkpt lat="46.619339939206839" lon="7.005388978868723">
        <ele>803.20001220703125</ele>
        <time>2011-06-18T06:36:24Z</time>
      </trkpt>
      <trkpt lat="46.619241954758763" lon="7.004681965336204">
        <ele>803.5999755859375</ele>
        <time>2011-06-18T06:36:31Z</time>
      </trkpt>
      <trkpt lat="46.619340945035219" lon="7.003400959074497">
        <ele>804.20001220703125</ele>
        <time>2011-06-18T06:36:45Z</time>
      </trkpt>
      <trkpt lat="46.619303980842233" lon="7.00229094363749">
        <ele>805.79998779296875</ele>
        <time>2011-06-18T06:36:58Z</time>
      </trkpt>
      <trkpt lat="46.619172971695662" lon="7.001643944531679">
        <ele>806.5999755859375</ele>
        <time>2011-06-18T06:37:06Z</time>
      </trkpt>
      <trkpt lat="46.619093930348754" lon="7.000965932384133">
        <ele>806.5999755859375</ele>
        <time>2011-06-18T06:37:14Z</time>
      </trkpt>
      <trkpt lat="46.619243966415524" lon="6.999739995226264">
        <ele>807</ele>
        <time>2011-06-18T06:37:29Z</time>
      </trkpt>
      <trkpt lat="46.619379920884967" lon="6.998841958120465">
        <ele>808.20001220703125</ele>
        <time>2011-06-18T06:37:39Z</time>
      </trkpt>
      <trkpt lat="46.619563987478614" lon="6.998036960139871">
        <ele>810</ele>
        <time>2011-06-18T06:37:52Z</time>
      </trkpt>
      <trkpt lat="46.620077965781093" lon="6.997172953560948">
        <ele>814.4000244140625</ele>
        <time>2011-06-18T06:38:10Z</time>
      </trkpt>
      <trkpt lat="46.620491947978735" lon="6.99644397944212">
        <ele>818.79998779296875</ele>
        <time>2011-06-18T06:38:26Z</time>
      </trkpt>
      <trkpt lat="46.620655981823802" lon="6.995536973699927">
        <ele>823.4000244140625</ele>
        <time>2011-06-18T06:38:43Z</time>
      </trkpt>
      <trkpt lat="46.620610971003771" lon="6.994545981287956">
        <ele>826.5999755859375</ele>
        <time>2011-06-18T06:39:01Z</time>
      </trkpt>
      <trkpt lat="46.620573922991753" lon="6.993873920291662">
        <ele>828</ele>
        <time>2011-06-18T06:39:13Z</time>
      </trkpt>
      <trkpt lat="46.620670985430479" lon="6.992940930649638">
        <ele>828.5999755859375</ele>
        <time>2011-06-18T06:39:27Z</time>
      </trkpt>
      <trkpt lat="46.620981954038143" lon="6.992206927388907">
        <ele>828.79998779296875</ele>
        <time>2011-06-18T06:39:38Z</time>
      </trkpt>
      <trkpt lat="46.621053954586387" lon="6.99143897742033">
        <ele>829</ele>
        <time>2011-06-18T06:39:48Z</time>
      </trkpt>
      <trkpt lat="46.621022941544652" lon="6.990715954452753">
        <ele>828.4000244140625</ele>
        <time>2011-06-18T06:39:57Z</time>
      </trkpt>
      <trkpt lat="46.620893944054842" lon="6.990057975053787">
        <ele>827.5999755859375</ele>
        <time>2011-06-18T06:40:05Z</time>
      </trkpt>
      <trkpt lat="46.620534947142005" lon="6.98940091766417">
        <ele>828.20001220703125</ele>
        <time>2011-06-18T06:40:15Z</time>
      </trkpt>
      <trkpt lat="46.620257925242186" lon="6.988781997933984">
        <ele>829.4000244140625</ele>
        <time>2011-06-18T06:40:24Z</time>
      </trkpt>
      <trkpt lat="46.619947962462902" lon="6.98761498555541">
        <ele>831.79998779296875</ele>
        <time>2011-06-18T06:40:42Z</time>
      </trkpt>
      <trkpt lat="46.619819970801473" lon="6.986909983679652">
        <ele>832.4000244140625</ele>
        <time>2011-06-18T06:40:52Z</time>
      </trkpt>
      <trkpt lat="46.619692984968424" lon="6.986249992623925">
        <ele>832.79998779296875</ele>
        <time>2011-06-18T06:41:01Z</time>
      </trkpt>
      <trkpt lat="46.619523921981454" lon="6.985343992710114">
        <ele>833</ele>
        <time>2011-06-18T06:41:13Z</time>
      </trkpt>
      <trkpt lat="46.619395930320024" lon="6.984664974734187">
        <ele>833.5999755859375</ele>
        <time>2011-06-18T06:41:22Z</time>
      </trkpt>
      <trkpt lat="46.619269950315356" lon="6.984016969799995">
        <ele>834.20001220703125</ele>
        <time>2011-06-18T06:41:31Z</time>
      </trkpt>
      <trkpt lat="46.61895495839417" lon="6.983539955690503">
        <ele>835</ele>
        <time>2011-06-18T06:41:43Z</time>
      </trkpt>
      <trkpt lat="46.618304941803217" lon="6.983551941812038">
        <ele>840.4000244140625</ele>
        <time>2011-06-18T06:42:02Z</time>
      </trkpt>
      <trkpt lat="46.617840919643641" lon="6.983560994267464">
        <ele>843.79998779296875</ele>
        <time>2011-06-18T06:42:17Z</time>
      </trkpt>
      <trkpt lat="46.61728092469275" lon="6.983569962903857">
        <ele>847.5999755859375</ele>
        <time>2011-06-18T06:42:34Z</time>
      </trkpt>
      <trkpt lat="46.616628980264068" lon="6.983549930155277">
        <ele>850.20001220703125</ele>
        <time>2011-06-18T06:42:52Z</time>
      </trkpt>
      <trkpt lat="46.615914925932884" lon="6.983532998710871">
        <ele>850.79998779296875</ele>
        <time>2011-06-18T06:43:08Z</time>
      </trkpt>
      <trkpt lat="46.615495998412371" lon="6.98316796682775">
        <ele>851.79998779296875</ele>
        <time>2011-06-18T06:43:18Z</time>
      </trkpt>
      <trkpt lat="46.615292988717556" lon="6.982491966336966">
        <ele>852.4000244140625</ele>
        <time>2011-06-18T06:43:30Z</time>
      </trkpt>
      <trkpt lat="46.615171954035759" lon="6.981388991698623">
        <ele>854</ele>
        <time>2011-06-18T06:43:49Z</time>
      </trkpt>
      <trkpt lat="46.615096936002374" lon="6.980699999257922">
        <ele>855</ele>
        <time>2011-06-18T06:44:00Z</time>
      </trkpt>
      <trkpt lat="46.614998951554298" lon="6.979805985465646">
        <ele>855.79998779296875</ele>
        <time>2011-06-18T06:44:15Z</time>
      </trkpt>
      <trkpt lat="46.614867942407727" lon="6.979006938636303">
        <ele>857.20001220703125</ele>
        <time>2011-06-18T06:44:29Z</time>
      </trkpt>
      <trkpt lat="46.614351952448487" lon="6.978606954216957">
        <ele>857.4000244140625</ele>
        <time>2011-06-18T06:44:43Z</time>
      </trkpt>
      <trkpt lat="46.613731943070889" lon="6.978122983127832">
        <ele>858.4000244140625</ele>
        <time>2011-06-18T06:44:59Z</time>
      </trkpt>
      <trkpt lat="46.613357942551374" lon="6.977330977097154">
        <ele>859.5999755859375</ele>
        <time>2011-06-18T06:45:14Z</time>
      </trkpt>
      <trkpt lat="46.613058960065246" lon="6.976340990513563">
        <ele>861.5999755859375</ele>
        <time>2011-06-18T06:45:33Z</time>
      </trkpt>
      <trkpt lat="46.612512962892652" lon="6.975707989186049">
        <ele>864.5999755859375</ele>
        <time>2011-06-18T06:45:51Z</time>
      </trkpt>
      <trkpt lat="46.611940981820226" lon="6.975070964545012">
        <ele>868.5999755859375</ele>
        <time>2011-06-18T06:46:13Z</time>
      </trkpt>
      <trkpt lat="46.611459944397211" lon="6.974411979317665">
        <ele>871.4000244140625</ele>
        <time>2011-06-18T06:46:31Z</time>
      </trkpt>
      <trkpt lat="46.611255928874016" lon="6.973754921928048">
        <ele>870.5999755859375</ele>
        <time>2011-06-18T06:46:45Z</time>
      </trkpt>
      <trkpt lat="46.610943954437971" lon="6.973273968324065">
        <ele>871.5999755859375</ele>
        <time>2011-06-18T06:46:56Z</time>
      </trkpt>
      <trkpt lat="46.610579928383231" lon="6.972726965323091">
        <ele>872</ele>
        <time>2011-06-18T06:47:07Z</time>
      </trkpt>
      <trkpt lat="46.610181955620646" lon="6.972142998129129">
        <ele>872.5999755859375</ele>
        <time>2011-06-18T06:47:18Z</time>
      </trkpt>
      <trkpt lat="46.609793957322836" lon="6.971598928794265">
        <ele>872.79998779296875</ele>
        <time>2011-06-18T06:47:28Z</time>
      </trkpt>
      <trkpt lat="46.609480977058411" lon="6.971116969361901">
        <ele>873.20001220703125</ele>
        <time>2011-06-18T06:47:36Z</time>
      </trkpt>
      <trkpt lat="46.608941936865449" lon="6.969990944489837">
        <ele>874.20001220703125</ele>
        <time>2011-06-18T06:47:53Z</time>
      </trkpt>
      <trkpt lat="46.60859995521605" lon="6.969342939555645">
        <ele>875</ele>
        <time>2011-06-18T06:48:04Z</time>
      </trkpt>
      <trkpt lat="46.608229978010058" lon="6.968663921579719">
        <ele>874.79998779296875</ele>
        <time>2011-06-18T06:48:15Z</time>
      </trkpt>
      <trkpt lat="46.607872992753983" lon="6.967983981594443">
        <ele>874.20001220703125</ele>
        <time>2011-06-18T06:48:25Z</time>
      </trkpt>
      <trkpt lat="46.607580967247486" lon="6.967436978593469">
        <ele>873.20001220703125</ele>
        <time>2011-06-18T06:48:33Z</time>
      </trkpt>
      <trkpt lat="46.607172936201096" lon="6.966671962291002">
        <ele>872</ele>
        <time>2011-06-18T06:48:44Z</time>
      </trkpt>
      <trkpt lat="46.606782926246524" lon="6.965939970687032">
        <ele>871.4000244140625</ele>
        <time>2011-06-18T06:48:55Z</time>
      </trkpt>
      <trkpt lat="46.606463994830847" lon="6.965342927724123">
        <ele>871</ele>
        <time>2011-06-18T06:49:04Z</time>
      </trkpt>
      <trkpt lat="46.606180937960744" lon="6.964811934158206">
        <ele>871</ele>
        <time>2011-06-18T06:49:12Z</time>
      </trkpt>
      <trkpt lat="46.605818923562765" lon="6.96413098834455">
        <ele>870.20001220703125</ele>
        <time>2011-06-18T06:49:22Z</time>
      </trkpt>
      <trkpt lat="46.605503931641579" lon="6.963544925674796">
        <ele>870.5999755859375</ele>
        <time>2011-06-18T06:49:31Z</time>
      </trkpt>
      <trkpt lat="46.605202937498689" lon="6.962946960702539">
        <ele>871.5999755859375</ele>
        <time>2011-06-18T06:49:41Z</time>
      </trkpt>
      <trkpt lat="46.604843940585852" lon="6.962271966040134">
        <ele>872.20001220703125</ele>
        <time>2011-06-18T06:49:53Z</time>
      </trkpt>
      <trkpt lat="46.604558955878019" lon="6.961717922240496">
        <ele>872</ele>
        <time>2011-06-18T06:50:02Z</time>
      </trkpt>
      <trkpt lat="46.604241952300072" lon="6.961099924519658">
        <ele>870.5999755859375</ele>
        <time>2011-06-18T06:50:11Z</time>
      </trkpt>
      <trkpt lat="46.603886978700757" lon="6.960339937359095">
        <ele>869.20001220703125</ele>
        <time>2011-06-18T06:50:21Z</time>
      </trkpt>
      <trkpt lat="46.603562934324145" lon="6.959647927433252">
        <ele>868</ele>
        <time>2011-06-18T06:50:30Z</time>
      </trkpt>
      <trkpt lat="46.603327989578247" lon="6.959075946360827">
        <ele>866.79998779296875</ele>
        <time>2011-06-18T06:50:37Z</time>
      </trkpt>
      <trkpt lat="46.603040993213654" lon="6.958320988342166">
        <ele>865.5999755859375</ele>
        <time>2011-06-18T06:50:46Z</time>
      </trkpt>
      <trkpt lat="46.602832954376936" lon="6.957679940387607">
        <ele>866</ele>
        <time>2011-06-18T06:50:54Z</time>
      </trkpt>
      <trkpt lat="46.602544952183962" lon="6.956345960497856">
        <ele>865.20001220703125</ele>
        <time>2011-06-18T06:51:11Z</time>
      </trkpt>
      <trkpt lat="46.602427940815687" lon="6.955533921718597">
        <ele>865</ele>
        <time>2011-06-18T06:51:21Z</time>
      </trkpt>
      <trkpt lat="46.602354934439063" lon="6.954742921516299">
        <ele>866</ele>
        <time>2011-06-18T06:51:31Z</time>
      </trkpt>
      <trkpt lat="46.602222919464111" lon="6.954052923247218">
        <ele>866.4000244140625</ele>
        <time>2011-06-18T06:51:40Z</time>
      </trkpt>
      <trkpt lat="46.601866940036416" lon="6.953039970248938">
        <ele>867.79998779296875</ele>
        <time>2011-06-18T06:51:55Z</time>
      </trkpt>
      <trkpt lat="46.601533927023411" lon="6.952463965862989">
        <ele>867.79998779296875</ele>
        <time>2011-06-18T06:52:05Z</time>
      </trkpt>
      <trkpt lat="46.601117933169007" lon="6.951825935393572">
        <ele>867.4000244140625</ele>
        <time>2011-06-18T06:52:16Z</time>
      </trkpt>
      <trkpt lat="46.600569924339652" lon="6.951074916869402">
        <ele>866.20001220703125</ele>
        <time>2011-06-18T06:52:29Z</time>
      </trkpt>
      <trkpt lat="46.600159965455532" lon="6.950482986867428">
        <ele>865.5999755859375</ele>
        <time>2011-06-18T06:52:39Z</time>
      </trkpt>
      <trkpt lat="46.599752940237522" lon="6.949918968603015">
        <ele>864.79998779296875</ele>
        <time>2011-06-18T06:52:49Z</time>
      </trkpt>
      <trkpt lat="46.599393943324685" lon="6.949435919523239">
        <ele>864.4000244140625</ele>
        <time>2011-06-18T06:52:58Z</time>
      </trkpt>
      <trkpt lat="46.598968980833888" lon="6.948870979249477">
        <ele>864</ele>
        <time>2011-06-18T06:53:09Z</time>
      </trkpt>
      <trkpt lat="46.598569918423891" lon="6.948333950713277">
        <ele>864.5999755859375</ele>
        <time>2011-06-18T06:53:20Z</time>
      </trkpt>
      <trkpt lat="46.597999949008226" lon="6.947599947452545">
        <ele>867.20001220703125</ele>
        <time>2011-06-18T06:53:37Z</time>
      </trkpt>
      <trkpt lat="46.597341969609261" lon="6.947117988020182">
        <ele>867.79998779296875</ele>
        <time>2011-06-18T06:53:53Z</time>
      </trkpt>
      <trkpt lat="46.596908960491419" lon="6.946792937815189">
        <ele>867.20001220703125</ele>
        <time>2011-06-18T06:54:02Z</time>
      </trkpt>
      <trkpt lat="46.596497995778918" lon="6.946431929245591">
        <ele>866.5999755859375</ele>
        <time>2011-06-18T06:54:10Z</time>
      </trkpt>
      <trkpt lat="46.596140926703811" lon="6.94601995870471">
        <ele>866.79998779296875</ele>
        <time>2011-06-18T06:54:18Z</time>
      </trkpt>
      <trkpt lat="46.595784947276115" lon="6.945506986230612">
        <ele>867.20001220703125</ele>
        <time>2011-06-18T06:54:27Z</time>
      </trkpt>
      <trkpt lat="46.595479929819703" lon="6.944969957694411">
        <ele>867.5999755859375</ele>
        <time>2011-06-18T06:54:36Z</time>
      </trkpt>
      <trkpt lat="46.595068965107203" lon="6.944228997454047">
        <ele>868</ele>
        <time>2011-06-18T06:54:49Z</time>
      </trkpt>
      <trkpt lat="46.594708962365985" lon="6.943578980863094">
        <ele>867.79998779296875</ele>
        <time>2011-06-18T06:55:00Z</time>
      </trkpt>
      <trkpt lat="46.594392964616418" lon="6.943004988133907">
        <ele>867.5999755859375</ele>
        <time>2011-06-18T06:55:09Z</time>
      </trkpt>
      <trkpt lat="46.594021981582046" lon="6.94238799624145">
        <ele>866.20001220703125</ele>
        <time>2011-06-18T06:55:18Z</time>
      </trkpt>
      <trkpt lat="46.593230981379747" lon="6.94124897941947">
        <ele>865</ele>
        <time>2011-06-18T06:55:36Z</time>
      </trkpt>
      <trkpt lat="46.592368986457586" lon="6.940123960375786">
        <ele>862.20001220703125</ele>
        <time>2011-06-18T06:55:53Z</time>
      </trkpt>
      <trkpt lat="46.591770937666297" lon="6.939353998750448">
        <ele>860</ele>
        <time>2011-06-18T06:56:04Z</time>
      </trkpt>
      <trkpt lat="46.591187976300716" lon="6.938662994652987">
        <ele>858.5999755859375</ele>
        <time>2011-06-18T06:56:14Z</time>
      </trkpt>
      <trkpt lat="46.590699981898069" lon="6.938080955296755">
        <ele>858</ele>
        <time>2011-06-18T06:56:23Z</time>
      </trkpt>
      <trkpt lat="46.590180974453688" lon="6.937452983111143">
        <ele>857.79998779296875</ele>
        <time>2011-06-18T06:56:33Z</time>
      </trkpt>
      <trkpt lat="46.589526934549212" lon="6.936655947938561">
        <ele>856.4000244140625</ele>
        <time>2011-06-18T06:56:45Z</time>
      </trkpt>
      <trkpt lat="46.588990995660424" lon="6.936086984351277">
        <ele>855.79998779296875</ele>
        <time>2011-06-18T06:56:55Z</time>
      </trkpt>
      <trkpt lat="46.588620934635401" lon="6.935698986053467">
        <ele>855</ele>
        <time>2011-06-18T06:57:02Z</time>
      </trkpt>
      <trkpt lat="46.58808097243309" lon="6.935066990554333">
        <ele>854</ele>
        <time>2011-06-18T06:57:12Z</time>
      </trkpt>
      <trkpt lat="46.587508991360664" lon="6.934359977021813">
        <ele>852.79998779296875</ele>
        <time>2011-06-18T06:57:23Z</time>
      </trkpt>
      <trkpt lat="46.586908930912614" lon="6.933501921594143">
        <ele>851.5999755859375</ele>
        <time>2011-06-18T06:57:35Z</time>
      </trkpt>
      <trkpt lat="46.586364945396781" lon="6.932737994939089">
        <ele>851</ele>
        <time>2011-06-18T06:57:46Z</time>
      </trkpt>
      <trkpt lat="46.585893966257572" lon="6.931971972808242">
        <ele>851</ele>
        <time>2011-06-18T06:57:57Z</time>
      </trkpt>
      <trkpt lat="46.585540920495987" lon="6.931423963978887">
        <ele>852.20001220703125</ele>
        <time>2011-06-18T06:58:06Z</time>
      </trkpt>
      <trkpt lat="46.585122998803854" lon="6.930797919631004">
        <ele>853.79998779296875</ele>
        <time>2011-06-18T06:58:20Z</time>
      </trkpt>
      <trkpt lat="46.585337994620204" lon="6.929733920842409">
        <ele>852.4000244140625</ele>
        <time>2011-06-18T06:58:39Z</time>
      </trkpt>
      <trkpt lat="46.585999997332692" lon="6.928546959534288">
        <ele>849.4000244140625</ele>
        <time>2011-06-18T06:58:55Z</time>
      </trkpt>
      <trkpt lat="46.58627794124186" lon="6.928021917119622">
        <ele>848.4000244140625</ele>
        <time>2011-06-18T06:59:01Z</time>
      </trkpt>
      <trkpt lat="46.586849922314286" lon="6.926936963573098">
        <ele>846.20001220703125</ele>
        <time>2011-06-18T06:59:13Z</time>
      </trkpt>
      <trkpt lat="46.587160974740982" lon="6.92634092643857">
        <ele>846.20001220703125</ele>
        <time>2011-06-18T06:59:21Z</time>
      </trkpt>
      <trkpt lat="46.587496921420097" lon="6.925508938729763">
        <ele>843.5999755859375</ele>
        <time>2011-06-18T06:59:31Z</time>
      </trkpt>
      <trkpt lat="46.58767394721508" lon="6.924770995974541">
        <ele>840.5999755859375</ele>
        <time>2011-06-18T06:59:43Z</time>
      </trkpt>
      <trkpt lat="46.587118981406093" lon="6.92461995407939">
        <ele>841.20001220703125</ele>
        <time>2011-06-18T06:59:56Z</time>
      </trkpt>
      <trkpt lat="46.586543982848525" lon="6.924476958811283">
        <ele>842</ele>
        <time>2011-06-18T07:00:08Z</time>
      </trkpt>
      <trkpt lat="46.586066968739033" lon="6.924689942970872">
        <ele>843.20001220703125</ele>
        <time>2011-06-18T07:00:20Z</time>
      </trkpt>
      <trkpt lat="46.585492976009846" lon="6.924594976007938">
        <ele>844.79998779296875</ele>
        <time>2011-06-18T07:00:34Z</time>
      </trkpt>
      <trkpt lat="46.58472896553576" lon="6.924050990492106">
        <ele>845.4000244140625</ele>
        <time>2011-06-18T07:00:51Z</time>
      </trkpt>
      <trkpt lat="46.584292938932776" lon="6.923728957772255">
        <ele>845.79998779296875</ele>
        <time>2011-06-18T07:01:00Z</time>
      </trkpt>
      <trkpt lat="46.583612998947501" lon="6.923275999724865">
        <ele>845.79998779296875</ele>
        <time>2011-06-18T07:01:14Z</time>
      </trkpt>
      <trkpt lat="46.583165992051363" lon="6.9230099581182">
        <ele>846</ele>
        <time>2011-06-18T07:01:23Z</time>
      </trkpt>
      <trkpt lat="46.582645978778601" lon="6.922725979238749">
        <ele>846.20001220703125</ele>
        <time>2011-06-18T07:01:33Z</time>
      </trkpt>
      <trkpt lat="46.582112973555923" lon="6.922416938468814">
        <ele>845.79998779296875</ele>
        <time>2011-06-18T07:01:43Z</time>
      </trkpt>
      <trkpt lat="46.58161299303174" lon="6.922093983739615">
        <ele>845.5999755859375</ele>
        <time>2011-06-18T07:01:52Z</time>
      </trkpt>
      <trkpt lat="46.581149976700544" lon="6.921787960454822">
        <ele>844.4000244140625</ele>
        <time>2011-06-18T07:02:00Z</time>
      </trkpt>
      <trkpt lat="46.580650918185711" lon="6.921333996579051">
        <ele>843.5999755859375</ele>
        <time>2011-06-18T07:02:09Z</time>
      </trkpt>
      <trkpt lat="46.58017298206687" lon="6.920844996348023">
        <ele>842.79998779296875</ele>
        <time>2011-06-18T07:02:18Z</time>
      </trkpt>
      <trkpt lat="46.579698985442519" lon="6.920361947268248">
        <ele>842</ele>
        <time>2011-06-18T07:02:27Z</time>
      </trkpt>
      <trkpt lat="46.579188946634531" lon="6.919861966744065">
        <ele>841.5999755859375</ele>
        <time>2011-06-18T07:02:37Z</time>
      </trkpt>
      <trkpt lat="46.578692989423871" lon="6.91939995624125">
        <ele>841.4000244140625</ele>
        <time>2011-06-18T07:02:47Z</time>
      </trkpt>
      <trkpt lat="46.578176999464631" lon="6.918885977938771">
        <ele>841.4000244140625</ele>
        <time>2011-06-18T07:02:58Z</time>
      </trkpt>
      <trkpt lat="46.577716916799545" lon="6.918437965214253">
        <ele>841.4000244140625</ele>
        <time>2011-06-18T07:03:08Z</time>
      </trkpt>
      <trkpt lat="46.577154994010925" lon="6.917889956384897">
        <ele>841.20001220703125</ele>
        <time>2011-06-18T07:03:26Z</time>
      </trkpt>
      <trkpt lat="46.576102981343865" lon="6.9169089384377">
        <ele>840.4000244140625</ele>
        <time>2011-06-18T07:03:46Z</time>
      </trkpt>
      <trkpt lat="46.575896954163909" lon="6.917709996923804">
        <ele>837.20001220703125</ele>
        <time>2011-06-18T07:03:56Z</time>
      </trkpt>
      <trkpt lat="46.575612975284457" lon="6.918881954625249">
        <ele>836.20001220703125</ele>
        <time>2011-06-18T07:04:07Z</time>
      </trkpt>
      <trkpt lat="46.575185917317867" lon="6.918899975717068">
        <ele>832</ele>
        <time>2011-06-18T07:04:17Z</time>
      </trkpt>
      <trkpt lat="46.574723990634084" lon="6.918671987950802">
        <ele>831.5999755859375</ele>
        <time>2011-06-18T07:04:25Z</time>
      </trkpt>
      <trkpt lat="46.573972972109914" lon="6.918301926925778">
        <ele>832</ele>
        <time>2011-06-18T07:04:39Z</time>
      </trkpt>
      <trkpt lat="46.573507944121957" lon="6.918071927502751">
        <ele>831.5999755859375</ele>
        <time>2011-06-18T07:04:48Z</time>
      </trkpt>
      <trkpt lat="46.573026990517974" lon="6.917834971100092">
        <ele>831.4000244140625</ele>
        <time>2011-06-18T07:04:57Z</time>
      </trkpt>
      <trkpt lat="46.572421984747052" lon="6.917536994442344">
        <ele>830.79998779296875</ele>
        <time>2011-06-18T07:05:08Z</time>
      </trkpt>
      <trkpt lat="46.571985958144069" lon="6.917318981140852">
        <ele>830.5999755859375</ele>
        <time>2011-06-18T07:05:16Z</time>
      </trkpt>
      <trkpt lat="46.571427974849939" lon="6.917038941755891">
        <ele>830.20001220703125</ele>
        <time>2011-06-18T07:05:26Z</time>
      </trkpt>
      <trkpt lat="46.570727918297052" lon="6.916706934571266">
        <ele>829.4000244140625</ele>
        <time>2011-06-18T07:05:38Z</time>
      </trkpt>
      <trkpt lat="46.570198936387897" lon="6.916456986218691">
        <ele>828.5999755859375</ele>
        <time>2011-06-18T07:05:47Z</time>
      </trkpt>
      <trkpt lat="46.569242980331182" lon="6.916003944352269">
        <ele>827.4000244140625</ele>
        <time>2011-06-18T07:06:03Z</time>
      </trkpt>
      <trkpt lat="46.568704945966601" lon="6.915743937715888">
        <ele>826.79998779296875</ele>
        <time>2011-06-18T07:06:12Z</time>
      </trkpt>
      <trkpt lat="46.56824997626245" lon="6.915524918586016">
        <ele>826.4000244140625</ele>
        <time>2011-06-18T07:06:20Z</time>
      </trkpt>
      <trkpt lat="46.567492922767997" lon="6.915236916393042">
        <ele>826</ele>
        <time>2011-06-18T07:06:34Z</time>
      </trkpt>
      <trkpt lat="46.567105930298567" lon="6.914038974791765">
        <ele>823.20001220703125</ele>
        <time>2011-06-18T07:06:49Z</time>
      </trkpt>
      <trkpt lat="46.566804936155677" lon="6.913105985149741">
        <ele>821.5999755859375</ele>
        <time>2011-06-18T07:06:59Z</time>
      </trkpt>
      <trkpt lat="46.56653294339776" lon="6.912262933328748">
        <ele>820</ele>
        <time>2011-06-18T07:07:08Z</time>
      </trkpt>
      <trkpt lat="46.566175958141685" lon="6.911143949255347">
        <ele>818.4000244140625</ele>
        <time>2011-06-18T07:07:20Z</time>
      </trkpt>
      <trkpt lat="46.565865995362401" lon="6.910164942964912">
        <ele>815.79998779296875</ele>
        <time>2011-06-18T07:07:30Z</time>
      </trkpt>
      <trkpt lat="46.565685952082276" lon="6.909361956641078">
        <ele>814.20001220703125</ele>
        <time>2011-06-18T07:07:38Z</time>
      </trkpt>
      <trkpt lat="46.565554942935705" lon="6.908587971702218">
        <ele>812.5999755859375</ele>
        <time>2011-06-18T07:07:46Z</time>
      </trkpt>
      <trkpt lat="46.565453941002488" lon="6.907579964026809">
        <ele>811.4000244140625</ele>
        <time>2011-06-18T07:07:56Z</time>
      </trkpt>
      <trkpt lat="46.565352939069271" lon="6.906662983819842">
        <ele>810.4000244140625</ele>
        <time>2011-06-18T07:08:05Z</time>
      </trkpt>
      <trkpt lat="46.565207932144403" lon="6.906001986935735">
        <ele>809.79998779296875</ele>
        <time>2011-06-18T07:08:11Z</time>
      </trkpt>
      <trkpt lat="46.564785987138748" lon="6.904610926285386">
        <ele>809.5999755859375</ele>
        <time>2011-06-18T07:08:28Z</time>
      </trkpt>
      <trkpt lat="46.564538972452283" lon="6.90382294356823">
        <ele>809.20001220703125</ele>
        <time>2011-06-18T07:08:38Z</time>
      </trkpt>
      <trkpt lat="46.564354989677668" lon="6.902945945039392">
        <ele>809</ele>
        <time>2011-06-18T07:08:49Z</time>
      </trkpt>
      <trkpt lat="46.564358929172158" lon="6.901472993195057">
        <ele>809</ele>
        <time>2011-06-18T07:09:07Z</time>
      </trkpt>
      <trkpt lat="46.564302938058972" lon="6.900459956377745">
        <ele>809.20001220703125</ele>
        <time>2011-06-18T07:09:21Z</time>
      </trkpt>
      <trkpt lat="46.564120966941118" lon="6.899769958108664">
        <ele>810</ele>
        <time>2011-06-18T07:09:31Z</time>
      </trkpt>
      <trkpt lat="46.563428957015276" lon="6.89963492564857">
        <ele>808.5999755859375</ele>
        <time>2011-06-18T07:09:45Z</time>
      </trkpt>
      <trkpt lat="46.562824957072735" lon="6.899748919531703">
        <ele>808.5999755859375</ele>
        <time>2011-06-18T07:09:54Z</time>
      </trkpt>
      <trkpt lat="46.562143927440047" lon="6.899877917021513">
        <ele>806.4000244140625</ele>
        <time>2011-06-18T07:10:04Z</time>
      </trkpt>
      <trkpt lat="46.561395926401019" lon="6.900019990280271">
        <ele>805.5999755859375</ele>
        <time>2011-06-18T07:10:15Z</time>
      </trkpt>
      <trkpt lat="46.560687990859151" lon="6.900153933092952">
        <ele>805.5999755859375</ele>
        <time>2011-06-18T07:10:26Z</time>
      </trkpt>
      <trkpt lat="46.560070998966694" lon="6.900262981653214">
        <ele>805.4000244140625</ele>
        <time>2011-06-18T07:10:36Z</time>
      </trkpt>
      <trkpt lat="46.559108924120665" lon="6.900680987164378">
        <ele>805.79998779296875</ele>
        <time>2011-06-18T07:10:52Z</time>
      </trkpt>
      <trkpt lat="46.558689996600151" lon="6.900997990742326">
        <ele>806.79998779296875</ele>
        <time>2011-06-18T07:11:00Z</time>
      </trkpt>
      <trkpt lat="46.558103933930397" lon="6.901520937681198">
        <ele>808.79998779296875</ele>
        <time>2011-06-18T07:11:13Z</time>
      </trkpt>
      <trkpt lat="46.557405972853303" lon="6.901838947087526">
        <ele>811.20001220703125</ele>
        <time>2011-06-18T07:11:28Z</time>
      </trkpt>
      <trkpt lat="46.556642968207598" lon="6.901962999254465">
        <ele>814</ele>
        <time>2011-06-18T07:11:46Z</time>
      </trkpt>
      <trkpt lat="46.555932937189937" lon="6.902071963995695">
        <ele>817.20001220703125</ele>
        <time>2011-06-18T07:12:04Z</time>
      </trkpt>
      <trkpt lat="46.555306976661086" lon="6.90216894261539">
        <ele>820.20001220703125</ele>
        <time>2011-06-18T07:12:21Z</time>
      </trkpt>
      <trkpt lat="46.554699959233403" lon="6.902263993397355">
        <ele>823.20001220703125</ele>
        <time>2011-06-18T07:12:38Z</time>
      </trkpt>
      <trkpt lat="46.55409294180572" lon="6.902362983673811">
        <ele>825.20001220703125</ele>
        <time>2011-06-18T07:12:56Z</time>
      </trkpt>
      <trkpt lat="46.553389951586723" lon="6.902477983385325">
        <ele>828.5999755859375</ele>
        <time>2011-06-18T07:13:16Z</time>
      </trkpt>
      <trkpt lat="46.552757956087589" lon="6.902483934536576">
        <ele>831.79998779296875</ele>
        <time>2011-06-18T07:13:34Z</time>
      </trkpt>
      <trkpt lat="46.552236936986446" lon="6.902305986732245">
        <ele>835.20001220703125</ele>
        <time>2011-06-18T07:13:50Z</time>
      </trkpt>
      <trkpt lat="46.551652969792485" lon="6.902072969824076">
        <ele>838</ele>
        <time>2011-06-18T07:14:08Z</time>
      </trkpt>
      <trkpt lat="46.551049975678325" lon="6.901818998157978">
        <ele>838.5999755859375</ele>
        <time>2011-06-18T07:14:25Z</time>
      </trkpt>
      <trkpt lat="46.550552928820252" lon="6.901619927957654">
        <ele>836.20001220703125</ele>
        <time>2011-06-18T07:14:34Z</time>
      </trkpt>
      <trkpt lat="46.54992395080626" lon="6.901601990684867">
        <ele>833.5999755859375</ele>
        <time>2011-06-18T07:14:43Z</time>
      </trkpt>
      <trkpt lat="46.549528995528817" lon="6.901237964630127">
        <ele>830.4000244140625</ele>
        <time>2011-06-18T07:14:58Z</time>
      </trkpt>
      <trkpt lat="46.549113923683763" lon="6.900343950837851">
        <ele>827.4000244140625</ele>
        <time>2011-06-18T07:15:09Z</time>
      </trkpt>
      <trkpt lat="46.54820297844708" lon="6.899663927033544">
        <ele>825.20001220703125</ele>
        <time>2011-06-18T07:15:23Z</time>
      </trkpt>
      <trkpt lat="46.547635942697525" lon="6.899279952049255">
        <ele>824.79998779296875</ele>
        <time>2011-06-18T07:15:32Z</time>
      </trkpt>
      <trkpt lat="46.547054992988706" lon="6.898886924609542">
        <ele>823.5999755859375</ele>
        <time>2011-06-18T07:15:42Z</time>
      </trkpt>
      <trkpt lat="46.546560963615775" lon="6.898545948788524">
        <ele>822.79998779296875</ele>
        <time>2011-06-18T07:15:51Z</time>
      </trkpt>
      <trkpt lat="46.54611999168992" lon="6.89823598600924">
        <ele>822.5999755859375</ele>
        <time>2011-06-18T07:15:59Z</time>
      </trkpt>
      <trkpt lat="46.545169986784458" lon="6.897924933582544">
        <ele>822.79998779296875</ele>
        <time>2011-06-18T07:16:17Z</time>
      </trkpt>
      <trkpt lat="46.544682998210192" lon="6.89778596162796">
        <ele>822.79998779296875</ele>
        <time>2011-06-18T07:16:26Z</time>
      </trkpt>
      <trkpt lat="46.544155944138765" lon="6.89763592556119">
        <ele>822.5999755859375</ele>
        <time>2011-06-18T07:16:37Z</time>
      </trkpt>
      <trkpt lat="46.543430993333459" lon="6.897596949711442">
        <ele>823.5999755859375</ele>
        <time>2011-06-18T07:16:52Z</time>
      </trkpt>
      <trkpt lat="46.542673939839005" lon="6.897758971899748">
        <ele>823.5999755859375</ele>
        <time>2011-06-18T07:17:07Z</time>
      </trkpt>
      <trkpt lat="46.541871959343553" lon="6.897923927754164">
        <ele>824.20001220703125</ele>
        <time>2011-06-18T07:17:22Z</time>
      </trkpt>
      <trkpt lat="46.541417995467782" lon="6.898016966879368">
        <ele>823.4000244140625</ele>
        <time>2011-06-18T07:17:31Z</time>
      </trkpt>
      <trkpt lat="46.54059992171824" lon="6.897985953837633">
        <ele>822.20001220703125</ele>
        <time>2011-06-18T07:17:45Z</time>
      </trkpt>
      <trkpt lat="46.540129948407412" lon="6.897969944402576">
        <ele>822</ele>
        <time>2011-06-18T07:17:53Z</time>
      </trkpt>
      <trkpt lat="46.539213974028826" lon="6.897856956347823">
        <ele>822.4000244140625</ele>
        <time>2011-06-18T07:18:09Z</time>
      </trkpt>
      <trkpt lat="46.538670994341373" lon="6.897647995501757">
        <ele>823.79998779296875</ele>
        <time>2011-06-18T07:18:22Z</time>
      </trkpt>
      <trkpt lat="46.53810597024858" lon="6.897433921694756">
        <ele>825</ele>
        <time>2011-06-18T07:18:35Z</time>
      </trkpt>
      <trkpt lat="46.537555949762464" lon="6.897265948355198">
        <ele>825.4000244140625</ele>
        <time>2011-06-18T07:18:46Z</time>
      </trkpt>
      <trkpt lat="46.537088993936777" lon="6.897112978622317">
        <ele>825.4000244140625</ele>
        <time>2011-06-18T07:18:55Z</time>
      </trkpt>
      <trkpt lat="46.536610973998904" lon="6.896997978910804">
        <ele>826.4000244140625</ele>
        <time>2011-06-18T07:19:05Z</time>
      </trkpt>
      <trkpt lat="46.535717966035008" lon="6.896908963099122">
        <ele>825.4000244140625</ele>
        <time>2011-06-18T07:19:22Z</time>
      </trkpt>
      <trkpt lat="46.535101979970932" lon="6.896830927580595">
        <ele>823.79998779296875</ele>
        <time>2011-06-18T07:19:32Z</time>
      </trkpt>
      <trkpt lat="46.534587917849422" lon="6.896744929254055">
        <ele>822.79998779296875</ele>
        <time>2011-06-18T07:19:40Z</time>
      </trkpt>
      <trkpt lat="46.534124985337257" lon="6.896651973947883">
        <ele>823.4000244140625</ele>
        <time>2011-06-18T07:19:48Z</time>
      </trkpt>
      <trkpt lat="46.53344395570457" lon="6.896417951211333">
        <ele>825</ele>
        <time>2011-06-18T07:20:03Z</time>
      </trkpt>
      <trkpt lat="46.53262697160244" lon="6.89608795568347">
        <ele>824.20001220703125</ele>
        <time>2011-06-18T07:20:20Z</time>
      </trkpt>
      <trkpt lat="46.531957928091288" lon="6.896000951528549">
        <ele>822</ele>
        <time>2011-06-18T07:20:31Z</time>
      </trkpt>
      <trkpt lat="46.531022926792502" lon="6.89600195735693">
        <ele>818</ele>
        <time>2011-06-18T07:20:42Z</time>
      </trkpt>
      <trkpt lat="46.530297975987196" lon="6.896464973688126">
        <ele>816.4000244140625</ele>
        <time>2011-06-18T07:20:53Z</time>
      </trkpt>
      <trkpt lat="46.529658939689398" lon="6.896853977814317">
        <ele>814.79998779296875</ele>
        <time>2011-06-18T07:21:05Z</time>
      </trkpt>
      <trkpt lat="46.529122916981578" lon="6.897158995270729">
        <ele>813.4000244140625</ele>
        <time>2011-06-18T07:21:14Z</time>
      </trkpt>
      <trkpt lat="46.528326971456409" lon="6.897488990798593">
        <ele>810.79998779296875</ele>
        <time>2011-06-18T07:21:26Z</time>
      </trkpt>
      <trkpt lat="46.527868984267116" lon="6.897625951096416">
        <ele>808</ele>
        <time>2011-06-18T07:22:02Z</time>
      </trkpt>
      <trkpt lat="46.527582993730903" lon="6.898413933813572">
        <ele>808.4000244140625</ele>
        <time>2011-06-18T07:22:15Z</time>
      </trkpt>
      <trkpt lat="46.527484925463796" lon="6.899514980614185">
        <ele>808.4000244140625</ele>
        <time>2011-06-18T07:22:33Z</time>
      </trkpt>
      <trkpt lat="46.527092987671494" lon="6.900285948067904">
        <ele>807.4000244140625</ele>
        <time>2011-06-18T07:22:46Z</time>
      </trkpt>
      <trkpt lat="46.526653943583369" lon="6.900788946077228">
        <ele>806.4000244140625</ele>
        <time>2011-06-18T07:22:59Z</time>
      </trkpt>
      <trkpt lat="46.526137953624129" lon="6.900316961109638">
        <ele>806.79998779296875</ele>
        <time>2011-06-18T07:23:11Z</time>
      </trkpt>
      <trkpt lat="46.525521967560053" lon="6.900238925591111">
        <ele>807.20001220703125</ele>
        <time>2011-06-18T07:23:23Z</time>
      </trkpt>
      <trkpt lat="46.525079989805818" lon="6.900080926716328">
        <ele>807</ele>
        <time>2011-06-18T07:23:37Z</time>
      </trkpt>
      <trkpt lat="46.524568945169449" lon="6.899888981133699">
        <ele>807.79998779296875</ele>
        <time>2011-06-18T07:24:44Z</time>
      </trkpt>
      <trkpt lat="46.524075921624899" lon="6.899655964225531">
        <ele>808.20001220703125</ele>
        <time>2011-06-18T07:24:56Z</time>
      </trkpt>
      <trkpt lat="46.523297997191548" lon="6.899252962321043">
        <ele>806.4000244140625</ele>
        <time>2011-06-18T07:25:11Z</time>
      </trkpt>
      <trkpt lat="46.522884937003255" lon="6.898892959579825">
        <ele>805.20001220703125</ele>
        <time>2011-06-18T07:25:19Z</time>
      </trkpt>
      <trkpt lat="46.522223940119147" lon="6.897885957732797">
        <ele>805.20001220703125</ele>
        <time>2011-06-18T07:25:34Z</time>
      </trkpt>
      <trkpt lat="46.521699987351894" lon="6.897231917828322">
        <ele>806</ele>
        <time>2011-06-18T07:25:45Z</time>
      </trkpt>
      <trkpt lat="46.521209981292486" lon="6.896766973659396">
        <ele>806.20001220703125</ele>
        <time>2011-06-18T07:25:54Z</time>
      </trkpt>
      <trkpt lat="46.520739924162626" lon="6.89636891707778">
        <ele>806</ele>
        <time>2011-06-18T07:26:02Z</time>
      </trkpt>
      <trkpt lat="46.52014397084713" lon="6.895888969302177">
        <ele>806.5999755859375</ele>
        <time>2011-06-18T07:26:12Z</time>
      </trkpt>
      <trkpt lat="46.51971791870892" lon="6.895579928532243">
        <ele>808.20001220703125</ele>
        <time>2011-06-18T07:26:20Z</time>
      </trkpt>
      <trkpt lat="46.519232941791415" lon="6.895288992673159">
        <ele>809.79998779296875</ele>
        <time>2011-06-18T07:26:30Z</time>
      </trkpt>
      <trkpt lat="46.518442947417498" lon="6.894978946074843">
        <ele>812</ele>
        <time>2011-06-18T07:26:47Z</time>
      </trkpt>
      <trkpt lat="46.517547927796841" lon="6.894810972735286">
        <ele>812.4000244140625</ele>
        <time>2011-06-18T07:27:04Z</time>
      </trkpt>
      <trkpt lat="46.516951974481344" lon="6.894702930003405">
        <ele>812.5999755859375</ele>
        <time>2011-06-18T07:27:14Z</time>
      </trkpt>
      <trkpt lat="46.51627597399056" lon="6.894581979140639">
        <ele>813.20001220703125</ele>
        <time>2011-06-18T07:27:25Z</time>
      </trkpt>
      <trkpt lat="46.51576291769743" lon="6.894488940015435">
        <ele>813</ele>
        <time>2011-06-18T07:27:33Z</time>
      </trkpt>
      <trkpt lat="46.514743929728866" lon="6.893998933956027">
        <ele>812.20001220703125</ele>
        <time>2011-06-18T07:27:49Z</time>
      </trkpt>
      <trkpt lat="46.514271944761276" lon="6.893599955365062">
        <ele>812.20001220703125</ele>
        <time>2011-06-18T07:27:57Z</time>
      </trkpt>
      <trkpt lat="46.513776993378997" lon="6.893090922385454">
        <ele>811.5999755859375</ele>
        <time>2011-06-18T07:28:06Z</time>
      </trkpt>
      <trkpt lat="46.512977946549654" lon="6.892513995990157">
        <ele>810.20001220703125</ele>
        <time>2011-06-18T07:28:19Z</time>
      </trkpt>
      <trkpt lat="46.512543931603432" lon="6.892195986583829">
        <ele>809.20001220703125</ele>
        <time>2011-06-18T07:28:26Z</time>
      </trkpt>
      <trkpt lat="46.512160962447524" lon="6.891647977754474">
        <ele>808.4000244140625</ele>
        <time>2011-06-18T07:28:34Z</time>
      </trkpt>
      <trkpt lat="46.511776987463236" lon="6.891029980033636">
        <ele>808</ele>
        <time>2011-06-18T07:28:43Z</time>
      </trkpt>
      <trkpt lat="46.511264936998487" lon="6.890658996999264">
        <ele>807.79998779296875</ele>
        <time>2011-06-18T07:28:52Z</time>
      </trkpt>
      <trkpt lat="46.510823965072632" lon="6.890498986467719">
        <ele>807.4000244140625</ele>
        <time>2011-06-18T07:28:59Z</time>
      </trkpt>
      <trkpt lat="46.510125920176506" lon="6.890388932079077">
        <ele>806.4000244140625</ele>
        <time>2011-06-18T07:29:09Z</time>
      </trkpt>
      <trkpt lat="46.509533990174532" lon="6.890391949564219">
        <ele>805.4000244140625</ele>
        <time>2011-06-18T07:29:18Z</time>
      </trkpt>
      <trkpt lat="46.509077930822968" lon="6.890465961769223">
        <ele>804.5999755859375</ele>
        <time>2011-06-18T07:29:25Z</time>
      </trkpt>
      <trkpt lat="46.508632935583591" lon="6.890206960961223">
        <ele>803.4000244140625</ele>
        <time>2011-06-18T07:29:32Z</time>
      </trkpt>
      <trkpt lat="46.508246948942542" lon="6.889641936868429">
        <ele>801.79998779296875</ele>
        <time>2011-06-18T07:29:40Z</time>
      </trkpt>
      <trkpt lat="46.50783397257328" lon="6.888989992439747">
        <ele>799.79998779296875</ele>
        <time>2011-06-18T07:29:48Z</time>
      </trkpt>
      <trkpt lat="46.507482938468456" lon="6.888028923422098">
        <ele>797.20001220703125</ele>
        <time>2011-06-18T07:29:57Z</time>
      </trkpt>
      <trkpt lat="46.506959991529584" lon="6.886736936867237">
        <ele>791.20001220703125</ele>
        <time>2011-06-18T07:30:09Z</time>
      </trkpt>
      <trkpt lat="46.506156921386719" lon="6.885772934183478">
        <ele>786</ele>
        <time>2011-06-18T07:30:21Z</time>
      </trkpt>
      <trkpt lat="46.505406992509961" lon="6.885178992524743">
        <ele>780.5999755859375</ele>
        <time>2011-06-18T07:30:32Z</time>
      </trkpt>
      <trkpt lat="46.504890918731689" lon="6.884616985917091">
        <ele>777.4000244140625</ele>
        <time>2011-06-18T07:30:40Z</time>
      </trkpt>
      <trkpt lat="46.50450199842453" lon="6.883482998237014">
        <ele>773</ele>
        <time>2011-06-18T07:30:50Z</time>
      </trkpt>
      <trkpt lat="46.504218941554427" lon="6.882822923362255">
        <ele>770.4000244140625</ele>
        <time>2011-06-18T07:30:56Z</time>
      </trkpt>
      <trkpt lat="46.503938985988498" lon="6.882217917591333">
        <ele>768.4000244140625</ele>
        <time>2011-06-18T07:31:02Z</time>
      </trkpt>
      <trkpt lat="46.503589963540435" lon="6.881469916552305">
        <ele>767</ele>
        <time>2011-06-18T07:31:11Z</time>
      </trkpt>
      <trkpt lat="46.503278994932771" lon="6.880755946040154">
        <ele>766.4000244140625</ele>
        <time>2011-06-18T07:31:20Z</time>
      </trkpt>
      <trkpt lat="46.502910945564508" lon="6.879948936402798">
        <ele>765.4000244140625</ele>
        <time>2011-06-18T07:31:30Z</time>
      </trkpt>
      <trkpt lat="46.502653956413269" lon="6.879408974200487">
        <ele>765.20001220703125</ele>
        <time>2011-06-18T07:31:37Z</time>
      </trkpt>
      <trkpt lat="46.501968987286091" lon="6.878566928207874">
        <ele>765.20001220703125</ele>
        <time>2011-06-18T07:31:51Z</time>
      </trkpt>
      <trkpt lat="46.501270942389965" lon="6.878022942692041">
        <ele>764.79998779296875</ele>
        <time>2011-06-18T07:32:03Z</time>
      </trkpt>
      <trkpt lat="46.50065797381103" lon="6.877552969381213">
        <ele>764.4000244140625</ele>
        <time>2011-06-18T07:32:13Z</time>
      </trkpt>
      <trkpt lat="46.500179953873158" lon="6.877220962196589">
        <ele>764.20001220703125</ele>
        <time>2011-06-18T07:32:21Z</time>
      </trkpt>
      <trkpt lat="46.499609984457493" lon="6.877043936401606">
        <ele>763.20001220703125</ele>
        <time>2011-06-18T07:32:30Z</time>
      </trkpt>
      <trkpt lat="46.499156942591071" lon="6.876735985279083">
        <ele>762.4000244140625</ele>
        <time>2011-06-18T07:32:38Z</time>
      </trkpt>
      <trkpt lat="46.498880926519632" lon="6.876056967303157">
        <ele>762.20001220703125</ele>
        <time>2011-06-18T07:32:46Z</time>
      </trkpt>
      <trkpt lat="46.498596947640181" lon="6.875394964590669">
        <ele>762.20001220703125</ele>
        <time>2011-06-18T07:32:54Z</time>
      </trkpt>
      <trkpt lat="46.497885994613171" lon="6.875070920214057">
        <ele>762</ele>
        <time>2011-06-18T07:33:05Z</time>
      </trkpt>
      <trkpt lat="46.497310996055603" lon="6.874362984672189">
        <ele>761.5999755859375</ele>
        <time>2011-06-18T07:33:17Z</time>
      </trkpt>
      <trkpt lat="46.497008996084332" lon="6.873838948085904">
        <ele>761.5999755859375</ele>
        <time>2011-06-18T07:33:25Z</time>
      </trkpt>
      <trkpt lat="46.49668394587934" lon="6.873386995866895">
        <ele>761.5999755859375</ele>
        <time>2011-06-18T07:33:32Z</time>
      </trkpt>
      <trkpt lat="46.496352944523096" lon="6.872926997020841">
        <ele>761.4000244140625</ele>
        <time>2011-06-18T07:33:39Z</time>
      </trkpt>
      <trkpt lat="46.49597299285233" lon="6.872390974313021">
        <ele>761.20001220703125</ele>
        <time>2011-06-18T07:33:47Z</time>
      </trkpt>
      <trkpt lat="46.495592957362533" lon="6.871843971312046">
        <ele>760.79998779296875</ele>
        <time>2011-06-18T07:33:55Z</time>
      </trkpt>
      <trkpt lat="46.495172940194607" lon="6.871354971081018">
        <ele>760.20001220703125</ele>
        <time>2011-06-18T07:34:03Z</time>
      </trkpt>
      <trkpt lat="46.49445092305541" lon="6.870995974168181">
        <ele>759.20001220703125</ele>
        <time>2011-06-18T07:34:14Z</time>
      </trkpt>
      <trkpt lat="46.493666963651776" lon="6.87088692560792">
        <ele>758.79998779296875</ele>
        <time>2011-06-18T07:34:25Z</time>
      </trkpt>
      <trkpt lat="46.492768926545978" lon="6.870312932878733">
        <ele>756.4000244140625</ele>
        <time>2011-06-18T07:34:38Z</time>
      </trkpt>
      <trkpt lat="46.492333989590406" lon="6.869965922087431">
        <ele>754.79998779296875</ele>
        <time>2011-06-18T07:34:44Z</time>
      </trkpt>
      <trkpt lat="46.491817999631166" lon="6.869460996240377">
        <ele>752.79998779296875</ele>
        <time>2011-06-18T07:34:52Z</time>
      </trkpt>
      <trkpt lat="46.491577941924334" lon="6.868444941937923">
        <ele>750.20001220703125</ele>
        <time>2011-06-18T07:35:01Z</time>
      </trkpt>
      <trkpt lat="46.490955920889974" lon="6.86731799505651">
        <ele>746</ele>
        <time>2011-06-18T07:35:12Z</time>
      </trkpt>
      <trkpt lat="46.490534981712699" lon="6.866611987352371">
        <ele>743.20001220703125</ele>
        <time>2011-06-18T07:35:19Z</time>
      </trkpt>
      <trkpt lat="46.490077916532755" lon="6.865855939686298">
        <ele>739.4000244140625</ele>
        <time>2011-06-18T07:35:27Z</time>
      </trkpt>
      <trkpt lat="46.489705927670002" lon="6.865345984697342">
        <ele>737.4000244140625</ele>
        <time>2011-06-18T07:35:33Z</time>
      </trkpt>
      <trkpt lat="46.488975947722793" lon="6.864514918997884">
        <ele>731.79998779296875</ele>
        <time>2011-06-18T07:35:43Z</time>
      </trkpt>
      <trkpt lat="46.488467920571566" lon="6.863647978752852">
        <ele>727</ele>
        <time>2011-06-18T07:35:51Z</time>
      </trkpt>
      <trkpt lat="46.488048993051052" lon="6.862885979935527">
        <ele>722.79998779296875</ele>
        <time>2011-06-18T07:35:58Z</time>
      </trkpt>
      <trkpt lat="46.487540965899825" lon="6.861819969490171">
        <ele>718.79998779296875</ele>
        <time>2011-06-18T07:36:07Z</time>
      </trkpt>
      <trkpt lat="46.487246928736567" lon="6.860851943492889">
        <ele>715</ele>
        <time>2011-06-18T07:36:14Z</time>
      </trkpt>
      <trkpt lat="46.4867789670825" lon="6.859319983050227">
        <ele>710.20001220703125</ele>
        <time>2011-06-18T07:36:25Z</time>
      </trkpt>
      <trkpt lat="46.486494988203049" lon="6.858652951195836">
        <ele>707.4000244140625</ele>
        <time>2011-06-18T07:36:30Z</time>
      </trkpt>
      <trkpt lat="46.486054938286543" lon="6.857900926843286">
        <ele>703.5999755859375</ele>
        <time>2011-06-18T07:36:36Z</time>
      </trkpt>
      <trkpt lat="46.485398970544338" lon="6.856981934979558">
        <ele>698.79998779296875</ele>
        <time>2011-06-18T07:36:44Z</time>
      </trkpt>
      <trkpt lat="46.485065957531333" lon="6.856515984982252">
        <ele>696.5999755859375</ele>
        <time>2011-06-18T07:36:48Z</time>
      </trkpt>
      <trkpt lat="46.484735962003469" lon="6.856055986136198">
        <ele>694.5999755859375</ele>
        <time>2011-06-18T07:36:52Z</time>
      </trkpt>
      <trkpt lat="46.484273951500654" lon="6.855408987030387">
        <ele>691.20001220703125</ele>
        <time>2011-06-18T07:36:58Z</time>
      </trkpt>
      <trkpt lat="46.483658971264958" lon="6.854558978229761">
        <ele>687.4000244140625</ele>
        <time>2011-06-18T07:37:07Z</time>
      </trkpt>
      <trkpt lat="46.483433917164803" lon="6.853723973035812">
        <ele>685.20001220703125</ele>
        <time>2011-06-18T07:37:13Z</time>
      </trkpt>
      <trkpt lat="46.483457973226905" lon="6.851842990145087">
        <ele>678.5999755859375</ele>
        <time>2011-06-18T07:37:25Z</time>
      </trkpt>
      <trkpt lat="46.483476916328073" lon="6.850998932495713">
        <ele>676</ele>
        <time>2011-06-18T07:37:30Z</time>
      </trkpt>
      <trkpt lat="46.48344598710537" lon="6.850323937833309">
        <ele>674</ele>
        <time>2011-06-18T07:37:34Z</time>
      </trkpt>
      <trkpt lat="46.483196960762143" lon="6.849368987604976">
        <ele>670.20001220703125</ele>
        <time>2011-06-18T07:37:40Z</time>
      </trkpt>
      <trkpt lat="46.482856990769506" lon="6.847985973581672">
        <ele>666</ele>
        <time>2011-06-18T07:37:49Z</time>
      </trkpt>
      <trkpt lat="46.48258994333446" lon="6.846928931772709">
        <ele>662.5999755859375</ele>
        <time>2011-06-18T07:37:56Z</time>
      </trkpt>
      <trkpt lat="46.482285931706429" lon="6.846339935436845">
        <ele>659.5999755859375</ele>
        <time>2011-06-18T07:38:02Z</time>
      </trkpt>
      <trkpt lat="46.48166298866272" lon="6.845821933820844">
        <ele>655.5999755859375</ele>
        <time>2011-06-18T07:38:10Z</time>
      </trkpt>
      <trkpt lat="46.4816639944911" lon="6.845155991613865">
        <ele>653.20001220703125</ele>
        <time>2011-06-18T07:38:15Z</time>
      </trkpt>
      <trkpt lat="46.482197921723127" lon="6.844056956470013">
        <ele>647.5999755859375</ele>
        <time>2011-06-18T07:38:24Z</time>
      </trkpt>
      <trkpt lat="46.482243938371539" lon="6.843459997326136">
        <ele>644.5999755859375</ele>
        <time>2011-06-18T07:38:30Z</time>
      </trkpt>
      <trkpt lat="46.481474982574582" lon="6.843559993430972">
        <ele>640.79998779296875</ele>
        <time>2011-06-18T07:38:40Z</time>
      </trkpt>
      <trkpt lat="46.480958992615342" lon="6.843378944322467">
        <ele>638.20001220703125</ele>
        <time>2011-06-18T07:38:45Z</time>
      </trkpt>
      <trkpt lat="46.480475943535566" lon="6.843093959614635">
        <ele>636.4000244140625</ele>
        <time>2011-06-18T07:38:50Z</time>
      </trkpt>
      <trkpt lat="46.480010999366641" lon="6.842809980735183">
        <ele>633.5999755859375</ele>
        <time>2011-06-18T07:38:55Z</time>
      </trkpt>
      <trkpt lat="46.479645967483521" lon="6.842409996315837">
        <ele>630.79998779296875</ele>
        <time>2011-06-18T07:39:00Z</time>
      </trkpt>
      <trkpt lat="46.479314966127276" lon="6.841548923403025">
        <ele>626.5999755859375</ele>
        <time>2011-06-18T07:39:08Z</time>
      </trkpt>
      <trkpt lat="46.478766957297921" lon="6.84065499342978">
        <ele>623</ele>
        <time>2011-06-18T07:39:17Z</time>
      </trkpt>
      <trkpt lat="46.478286925703287" lon="6.839866926893592">
        <ele>619.20001220703125</ele>
        <time>2011-06-18T07:39:24Z</time>
      </trkpt>
      <trkpt lat="46.477790968492627" lon="6.839017923921347">
        <ele>615</ele>
        <time>2011-06-18T07:39:31Z</time>
      </trkpt>
      <trkpt lat="46.477504977956414" lon="6.838374948129058">
        <ele>611.5999755859375</ele>
        <time>2011-06-18T07:39:36Z</time>
      </trkpt>
      <trkpt lat="46.477274978533387" lon="6.837714957073331">
        <ele>609</ele>
        <time>2011-06-18T07:39:41Z</time>
      </trkpt>
      <trkpt lat="46.47710993885994" lon="6.836998974904418">
        <ele>605.5999755859375</ele>
        <time>2011-06-18T07:39:46Z</time>
      </trkpt>
      <trkpt lat="46.477063922211528" lon="6.835755938664079">
        <ele>601</ele>
        <time>2011-06-18T07:39:54Z</time>
      </trkpt>
      <trkpt lat="46.477074986323714" lon="6.835081949830055">
        <ele>597.79998779296875</ele>
        <time>2011-06-18T07:39:59Z</time>
      </trkpt>
      <trkpt lat="46.476946994662285" lon="6.834286926314235">
        <ele>594</ele>
        <time>2011-06-18T07:40:06Z</time>
      </trkpt>
      <trkpt lat="46.47687298245728" lon="6.833120919764042">
        <ele>593.20001220703125</ele>
        <time>2011-06-18T07:40:18Z</time>
      </trkpt>
      <trkpt lat="46.476863930001855" lon="6.832954958081245">
        <ele>592.79998779296875</ele>
        <time>2011-06-18T07:40:42Z</time>
      </trkpt>
      <trkpt lat="46.476823948323727" lon="6.832245932891965">
        <ele>596.5999755859375</ele>
        <time>2011-06-18T07:43:33Z</time>
      </trkpt>
      <trkpt lat="46.47674691863358" lon="6.831036927178502">
        <ele>597.4000244140625</ele>
        <time>2011-06-18T07:43:51Z</time>
      </trkpt>
      <trkpt lat="46.476599983870983" lon="6.829949961975217">
        <ele>594.5999755859375</ele>
        <time>2011-06-18T07:44:04Z</time>
      </trkpt>
      <trkpt lat="46.476244926452637" lon="6.828457983210683">
        <ele>587.79998779296875</ele>
        <time>2011-06-18T07:44:16Z</time>
      </trkpt>
      <trkpt lat="46.476044934242964" lon="6.827831938862801">
        <ele>585.4000244140625</ele>
        <time>2011-06-18T07:44:21Z</time>
      </trkpt>
      <trkpt lat="46.476062955334783" lon="6.82638899423182">
        <ele>580.4000244140625</ele>
        <time>2011-06-18T07:44:32Z</time>
      </trkpt>
      <trkpt lat="46.475923983380198" lon="6.825314937159419">
        <ele>577.79998779296875</ele>
        <time>2011-06-18T07:44:41Z</time>
      </trkpt>
      <trkpt lat="46.476043928414583" lon="6.824394939467311">
        <ele>577.79998779296875</ele>
        <time>2011-06-18T07:44:51Z</time>
      </trkpt>
      <trkpt lat="46.476088939234614" lon="6.823565969243646">
        <ele>579.4000244140625</ele>
        <time>2011-06-18T07:45:01Z</time>
      </trkpt>
      <trkpt lat="46.475966982543468" lon="6.822790978476405">
        <ele>582.79998779296875</ele>
        <time>2011-06-18T07:45:14Z</time>
      </trkpt>
      <trkpt lat="46.47610193118453" lon="6.821827981621027">
        <ele>584.4000244140625</ele>
        <time>2011-06-18T07:45:31Z</time>
      </trkpt>
      <trkpt lat="46.476195976138115" lon="6.821025917306542">
        <ele>583.5999755859375</ele>
        <time>2011-06-18T07:45:43Z</time>
      </trkpt>
      <trkpt lat="46.476228917017579" lon="6.819705935195088">
        <ele>582.20001220703125</ele>
        <time>2011-06-18T07:45:59Z</time>
      </trkpt>
      <trkpt lat="46.476245932281017" lon="6.818904960528016">
        <ele>581.4000244140625</ele>
        <time>2011-06-18T07:46:08Z</time>
      </trkpt>
      <trkpt lat="46.476261941716075" lon="6.818180931732059">
        <ele>580.20001220703125</ele>
        <time>2011-06-18T07:46:16Z</time>
      </trkpt>
      <trkpt lat="46.476282980293036" lon="6.81726093403995">
        <ele>579.4000244140625</ele>
        <time>2011-06-18T07:46:27Z</time>
      </trkpt>
      <trkpt lat="46.47629295475781" lon="6.816242951899767">
        <ele>578.20001220703125</ele>
        <time>2011-06-18T07:46:38Z</time>
      </trkpt>
      <trkpt lat="46.476296978071332" lon="6.815371988341212">
        <ele>577.20001220703125</ele>
        <time>2011-06-18T07:46:47Z</time>
      </trkpt>
      <trkpt lat="46.476232940331101" lon="6.814563972875476">
        <ele>576.20001220703125</ele>
        <time>2011-06-18T07:46:55Z</time>
      </trkpt>
      <trkpt lat="46.476135961711407" lon="6.81364699266851">
        <ele>575</ele>
        <time>2011-06-18T07:47:04Z</time>
      </trkpt>
      <trkpt lat="46.476022973656654" lon="6.81261794641614">
        <ele>574</ele>
        <time>2011-06-18T07:47:14Z</time>
      </trkpt>
      <trkpt lat="46.475932952016592" lon="6.811803979799151">
        <ele>573.5999755859375</ele>
        <time>2011-06-18T07:47:22Z</time>
      </trkpt>
      <trkpt lat="46.475851982831955" lon="6.810949947685003">
        <ele>574</ele>
        <time>2011-06-18T07:47:31Z</time>
      </trkpt>
      <trkpt lat="46.475790962576866" lon="6.810143943876028">
        <ele>574.4000244140625</ele>
        <time>2011-06-18T07:47:40Z</time>
      </trkpt>
      <trkpt lat="46.475664982572198" lon="6.808673925697804">
        <ele>575.4000244140625</ele>
        <time>2011-06-18T07:47:57Z</time>
      </trkpt>
      <trkpt lat="46.475596921518445" lon="6.807935982942581">
        <ele>576.20001220703125</ele>
        <time>2011-06-18T07:48:06Z</time>
      </trkpt>
      <trkpt lat="46.475534979254007" lon="6.8072459846735">
        <ele>576.79998779296875</ele>
        <time>2011-06-18T07:48:15Z</time>
      </trkpt>
      <trkpt lat="46.475528944283724" lon="6.80658096447587">
        <ele>577.20001220703125</ele>
        <time>2011-06-18T07:48:24Z</time>
      </trkpt>
      <trkpt lat="46.475701946765184" lon="6.80537598207593">
        <ele>578.20001220703125</ele>
        <time>2011-06-18T07:48:40Z</time>
      </trkpt>
      <trkpt lat="46.475892970338464" lon="6.804665951058269">
        <ele>578.5999755859375</ele>
        <time>2011-06-18T07:48:50Z</time>
      </trkpt>
      <trkpt lat="46.476068990305066" lon="6.804008977487683">
        <ele>578.79998779296875</ele>
        <time>2011-06-18T07:48:59Z</time>
      </trkpt>
      <trkpt lat="46.476235957816243" lon="6.80335795506835">
        <ele>579.79998779296875</ele>
        <time>2011-06-18T07:49:08Z</time>
      </trkpt>
      <trkpt lat="46.476374929770827" lon="6.802650941535831">
        <ele>580.5999755859375</ele>
        <time>2011-06-18T07:49:18Z</time>
      </trkpt>
      <trkpt lat="46.47648791782558" lon="6.801988938823342">
        <ele>581.79998779296875</ele>
        <time>2011-06-18T07:49:27Z</time>
      </trkpt>
      <trkpt lat="46.476616999134421" lon="6.801201961934567">
        <ele>581.4000244140625</ele>
        <time>2011-06-18T07:49:37Z</time>
      </trkpt>
      <trkpt lat="46.476744990795851" lon="6.800467958673835">
        <ele>579.5999755859375</ele>
        <time>2011-06-18T07:49:45Z</time>
      </trkpt>
      <trkpt lat="46.476751947775483" lon="6.799664972350001">
        <ele>578.20001220703125</ele>
        <time>2011-06-18T07:49:53Z</time>
      </trkpt>
      <trkpt lat="46.476701991632581" lon="6.798980925232172">
        <ele>579</ele>
        <time>2011-06-18T07:50:01Z</time>
      </trkpt>
      <trkpt lat="46.476813973858953" lon="6.797912986949086">
        <ele>581.20001220703125</ele>
        <time>2011-06-18T07:50:17Z</time>
      </trkpt>
      <trkpt lat="46.477081943303347" lon="6.797070940956473">
        <ele>583.20001220703125</ele>
        <time>2011-06-18T07:50:31Z</time>
      </trkpt>
      <trkpt lat="46.477622995153069" lon="6.796222943812609">
        <ele>585.5999755859375</ele>
        <time>2011-06-18T07:50:48Z</time>
      </trkpt>
      <trkpt lat="46.478125993162394" lon="6.795094991102815">
        <ele>587.5999755859375</ele>
        <time>2011-06-18T07:51:09Z</time>
      </trkpt>
      <trkpt lat="46.478448947891593" lon="6.794529967010021">
        <ele>587.5999755859375</ele>
        <time>2011-06-18T07:51:20Z</time>
      </trkpt>
      <trkpt lat="46.478739967569709" lon="6.79398899897933">
        <ele>587.79998779296875</ele>
        <time>2011-06-18T07:51:30Z</time>
      </trkpt>
      <trkpt lat="46.478969966992736" lon="6.793213924393058">
        <ele>589.4000244140625</ele>
        <time>2011-06-18T07:51:43Z</time>
      </trkpt>
      <trkpt lat="46.479147998616099" lon="6.792181944474578">
        <ele>591.79998779296875</ele>
        <time>2011-06-18T07:52:00Z</time>
      </trkpt>
      <trkpt lat="46.479438934475183" lon="6.791430925950408">
        <ele>591</ele>
        <time>2011-06-18T07:52:13Z</time>
      </trkpt>
      <trkpt lat="46.479848977178335" lon="6.790706980973482">
        <ele>589</ele>
        <time>2011-06-18T07:52:25Z</time>
      </trkpt>
      <trkpt lat="46.480363961309195" lon="6.789765944704413">
        <ele>586.20001220703125</ele>
        <time>2011-06-18T07:52:38Z</time>
      </trkpt>
      <trkpt lat="46.480638971552253" lon="6.789034958928824">
        <ele>584.5999755859375</ele>
        <time>2011-06-18T07:52:46Z</time>
      </trkpt>
      <trkpt lat="46.480778949335217" lon="6.788311935961247">
        <ele>582.79998779296875</ele>
        <time>2011-06-18T07:52:53Z</time>
      </trkpt>
      <trkpt lat="46.480768974870443" lon="6.786909978836775">
        <ele>580.20001220703125</ele>
        <time>2011-06-18T07:53:06Z</time>
      </trkpt>
      <trkpt lat="46.480709966272116" lon="6.786160971969366">
        <ele>579.4000244140625</ele>
        <time>2011-06-18T07:53:13Z</time>
      </trkpt>
      <trkpt lat="46.480658920481801" lon="6.785450940951705">
        <ele>578.5999755859375</ele>
        <time>2011-06-18T07:53:20Z</time>
      </trkpt>
      <trkpt lat="46.480608964338899" lon="6.784766977652907">
        <ele>577.20001220703125</ele>
        <time>2011-06-18T07:53:27Z</time>
      </trkpt>
      <trkpt lat="46.480707954615355" lon="6.78393691778183">
        <ele>577.4000244140625</ele>
        <time>2011-06-18T07:53:36Z</time>
      </trkpt>
      <trkpt lat="46.480982964858413" lon="6.783380946144462">
        <ele>578.20001220703125</ele>
        <time>2011-06-18T07:53:44Z</time>
      </trkpt>
      <trkpt lat="46.481312960386276" lon="6.782719949260354">
        <ele>580</ele>
        <time>2011-06-18T07:53:55Z</time>
      </trkpt>
      <trkpt lat="46.481459978967905" lon="6.781913945451379">
        <ele>582.20001220703125</ele>
        <time>2011-06-18T07:54:09Z</time>
      </trkpt>
      <trkpt lat="46.48162292316556" lon="6.780852964147925">
        <ele>583.5999755859375</ele>
        <time>2011-06-18T07:54:26Z</time>
      </trkpt>
      <trkpt lat="46.481933975592256" lon="6.780188949778676">
        <ele>581.5999755859375</ele>
        <time>2011-06-18T07:54:36Z</time>
      </trkpt>
      <trkpt lat="46.48213597945869" lon="6.779147917404771">
        <ele>578.79998779296875</ele>
        <time>2011-06-18T07:54:46Z</time>
      </trkpt>
      <trkpt lat="46.481915954500437" lon="6.778491949662566">
        <ele>574.4000244140625</ele>
        <time>2011-06-18T07:54:53Z</time>
      </trkpt>
      <trkpt lat="46.481583947315812" lon="6.778016947209835">
        <ele>573.5999755859375</ele>
        <time>2011-06-18T07:55:04Z</time>
      </trkpt>
      <trkpt lat="46.481558969244361" lon="6.777071971446276">
        <ele>576.5999755859375</ele>
        <time>2011-06-18T07:55:18Z</time>
      </trkpt>
      <trkpt lat="46.481913942843676" lon="6.776441987603903">
        <ele>581.20001220703125</ele>
        <time>2011-06-18T07:55:32Z</time>
      </trkpt>
      <trkpt lat="46.482429932802916" lon="6.775997998192906">
        <ele>583.20001220703125</ele>
        <time>2011-06-18T07:55:49Z</time>
      </trkpt>
      <trkpt lat="46.482048975303769" lon="6.775177996605635">
        <ele>579.4000244140625</ele>
        <time>2011-06-18T07:56:04Z</time>
      </trkpt>
      <trkpt lat="46.481712944805622" lon="6.774611966684461">
        <ele>578</ele>
        <time>2011-06-18T07:56:11Z</time>
      </trkpt>
      <trkpt lat="46.481287982314825" lon="6.773985922336578">
        <ele>575.79998779296875</ele>
        <time>2011-06-18T07:56:19Z</time>
      </trkpt>
      <trkpt lat="46.480914987623692" lon="6.773564983159304">
        <ele>575.5999755859375</ele>
        <time>2011-06-18T07:56:26Z</time>
      </trkpt>
      <trkpt lat="46.480445936322212" lon="6.773830940946937">
        <ele>574.5999755859375</ele>
        <time>2011-06-18T07:56:33Z</time>
      </trkpt>
      <trkpt lat="46.480065984651446" lon="6.773046981543303">
        <ele>573.5999755859375</ele>
        <time>2011-06-18T07:56:44Z</time>
      </trkpt>
      <trkpt lat="46.48018391802907" lon="6.772192949429154">
        <ele>570.79998779296875</ele>
        <time>2011-06-18T07:56:52Z</time>
      </trkpt>
      <trkpt lat="46.480296989902854" lon="6.771008921787143">
        <ele>566.79998779296875</ele>
        <time>2011-06-18T07:57:02Z</time>
      </trkpt>
      <trkpt lat="46.480450965464115" lon="6.769887926056981">
        <ele>562.5999755859375</ele>
        <time>2011-06-18T07:57:11Z</time>
      </trkpt>
      <trkpt lat="46.480450965464115" lon="6.7691979277879">
        <ele>560.5999755859375</ele>
        <time>2011-06-18T07:57:16Z</time>
      </trkpt>
      <trkpt lat="46.48056898266077" lon="6.768517987802625">
        <ele>558.4000244140625</ele>
        <time>2011-06-18T07:57:21Z</time>
      </trkpt>
      <trkpt lat="46.4802669826895" lon="6.767445942386985">
        <ele>555</ele>
        <time>2011-06-18T07:57:29Z</time>
      </trkpt>
      <trkpt lat="46.480554984882474" lon="6.766270967200398">
        <ele>550.4000244140625</ele>
        <time>2011-06-18T07:57:38Z</time>
      </trkpt>
      <trkpt lat="46.48093493655324" lon="6.765511985868216">
        <ele>545.4000244140625</ele>
        <time>2011-06-18T07:57:45Z</time>
      </trkpt>
      <trkpt lat="46.48142896592617" lon="6.76399796269834">
        <ele>539.20001220703125</ele>
        <time>2011-06-18T07:57:57Z</time>
      </trkpt>
      <trkpt lat="46.482015950605273" lon="6.76290194503963">
        <ele>533.20001220703125</ele>
        <time>2011-06-18T07:58:07Z</time>
      </trkpt>
      <trkpt lat="46.482355920597911" lon="6.762210940942168">
        <ele>531</ele>
        <time>2011-06-18T07:58:13Z</time>
      </trkpt>
      <trkpt lat="46.482767974957824" lon="6.761583974584937">
        <ele>526</ele>
        <time>2011-06-18T07:58:20Z</time>
      </trkpt>
      <trkpt lat="46.483224956318736" lon="6.760762967169285">
        <ele>522.5999755859375</ele>
        <time>2011-06-18T07:58:28Z</time>
      </trkpt>
      <trkpt lat="46.483584959059954" lon="6.760341944172978">
        <ele>519.79998779296875</ele>
        <time>2011-06-18T07:58:33Z</time>
      </trkpt>
      <trkpt lat="46.483923923224211" lon="6.759858978912234">
        <ele>516.79998779296875</ele>
        <time>2011-06-18T07:58:38Z</time>
      </trkpt>
      <trkpt lat="46.484323991462588" lon="6.759328991174698">
        <ele>514</ele>
        <time>2011-06-18T07:58:44Z</time>
      </trkpt>
      <trkpt lat="46.484701931476593" lon="6.758895982056856">
        <ele>511.60000610351562</ele>
        <time>2011-06-18T07:58:49Z</time>
      </trkpt>
      <trkpt lat="46.485177939757705" lon="6.758122919127345">
        <ele>507.79998779296875</ele>
        <time>2011-06-18T07:58:56Z</time>
      </trkpt>
      <trkpt lat="46.48566291667521" lon="6.757309958338738">
        <ele>503</ele>
        <time>2011-06-18T07:59:03Z</time>
      </trkpt>
      <trkpt lat="46.486179996281862" lon="6.756367916241288">
        <ele>497.60000610351562</ele>
        <time>2011-06-18T07:59:11Z</time>
      </trkpt>
      <trkpt lat="46.486599929630756" lon="6.755681941285729">
        <ele>494.20001220703125</ele>
        <time>2011-06-18T07:59:17Z</time>
      </trkpt>
      <trkpt lat="46.486967978999019" lon="6.755151953548193">
        <ele>491.79998779296875</ele>
        <time>2011-06-18T07:59:22Z</time>
      </trkpt>
      <trkpt lat="46.487684966996312" lon="6.754248971119523">
        <ele>488.39999389648437</ele>
        <time>2011-06-18T07:59:32Z</time>
      </trkpt>
      <trkpt lat="46.488372953608632" lon="6.752956984564662">
        <ele>484.39999389648437</ele>
        <time>2011-06-18T07:59:46Z</time>
      </trkpt>
      <trkpt lat="46.488674953579903" lon="6.752455998212099">
        <ele>482.60000610351562</ele>
        <time>2011-06-18T07:59:52Z</time>
      </trkpt>
      <trkpt lat="46.489073932170868" lon="6.752123991027474">
        <ele>480.60000610351562</ele>
        <time>2011-06-18T07:59:58Z</time>
      </trkpt>
      <trkpt lat="46.489407951012254" lon="6.751373978331685">
        <ele>478.20001220703125</ele>
        <time>2011-06-18T08:00:06Z</time>
      </trkpt>
      <trkpt lat="46.4894849807024" lon="6.750674927607179">
        <ele>477.39999389648437</ele>
        <time>2011-06-18T08:00:12Z</time>
      </trkpt>
      <trkpt lat="46.489934921264648" lon="6.750018959864974">
        <ele>474.39999389648437</ele>
        <time>2011-06-18T08:00:20Z</time>
      </trkpt>
      <trkpt lat="46.490207919850945" lon="6.749308928847313">
        <ele>470.79998779296875</ele>
        <time>2011-06-18T08:00:28Z</time>
      </trkpt>
      <trkpt lat="46.490439930930734" lon="6.748671988025308">
        <ele>469.79998779296875</ele>
        <time>2011-06-18T08:00:38Z</time>
      </trkpt>
      <trkpt lat="46.490895990282297" lon="6.748507954180241">
        <ele>467.39999389648437</ele>
        <time>2011-06-18T08:00:51Z</time>
      </trkpt>
      <trkpt lat="46.491295974701643" lon="6.74796698614955">
        <ele>465</ele>
        <time>2011-06-18T08:01:03Z</time>
      </trkpt>
      <trkpt lat="46.491675926372409" lon="6.747207920998335">
        <ele>463.60000610351562</ele>
        <time>2011-06-18T08:01:18Z</time>
      </trkpt>
      <trkpt lat="46.491867955774069" lon="6.746219946071506">
        <ele>464.79998779296875</ele>
        <time>2011-06-18T08:01:33Z</time>
      </trkpt>
      <trkpt lat="46.492078928276896" lon="6.74554193392396">
        <ele>466.60000610351562</ele>
        <time>2011-06-18T08:01:47Z</time>
      </trkpt>
      <trkpt lat="46.492520989850163" lon="6.744890995323658">
        <ele>467.20001220703125</ele>
        <time>2011-06-18T08:02:05Z</time>
      </trkpt>
      <trkpt lat="46.49232292547822" lon="6.744071999564767">
        <ele>467.79998779296875</ele>
        <time>2011-06-18T08:02:18Z</time>
      </trkpt>
      <trkpt lat="46.491919923573732" lon="6.743439920246601">
        <ele>468.20001220703125</ele>
        <time>2011-06-18T08:02:29Z</time>
      </trkpt>
      <trkpt lat="46.491848928853869" lon="6.742545990273356">
        <ele>465.20001220703125</ele>
        <time>2011-06-18T08:02:45Z</time>
      </trkpt>
      <trkpt lat="46.492544962093234" lon="6.74169396981597">
        <ele>464</ele>
        <time>2011-06-18T08:02:51Z</time>
      </trkpt>
      <trkpt lat="46.492725927382708" lon="6.740872962400317">
        <ele>462.20001220703125</ele>
        <time>2011-06-18T08:02:59Z</time>
      </trkpt>
      <trkpt lat="46.492804968729615" lon="6.740097971633077">
        <ele>458.60000610351562</ele>
        <time>2011-06-18T08:03:08Z</time>
      </trkpt>
      <trkpt lat="46.492724921554327" lon="6.739175962284207">
        <ele>456</ele>
        <time>2011-06-18T08:05:18Z</time>
      </trkpt>
      <trkpt lat="46.492931954562664" lon="6.738197961822152">
        <ele>453.79998779296875</ele>
        <time>2011-06-18T08:05:29Z</time>
      </trkpt>
      <trkpt lat="46.493271924555302" lon="6.737224990502">
        <ele>452.20001220703125</ele>
        <time>2011-06-18T08:05:45Z</time>
      </trkpt>
      <trkpt lat="46.493345936760306" lon="6.736245984211564">
        <ele>451.79998779296875</ele>
        <time>2011-06-18T08:06:00Z</time>
      </trkpt>
      <trkpt lat="46.49333294481039" lon="6.735299918800592">
        <ele>451.20001220703125</ele>
        <time>2011-06-18T08:06:15Z</time>
      </trkpt>
      <trkpt lat="46.493489937856793" lon="6.734663983806968">
        <ele>448</ele>
        <time>2011-06-18T08:06:24Z</time>
      </trkpt>
      <trkpt lat="46.493583982810378" lon="6.734019918367267">
        <ele>445.39999389648437</ele>
        <time>2011-06-18T08:06:38Z</time>
      </trkpt>
      <trkpt lat="46.493029939010739" lon="6.733604930341244">
        <ele>442</ele>
        <time>2011-06-18T08:06:48Z</time>
      </trkpt>
      <trkpt lat="46.492612939327955" lon="6.73335799947381">
        <ele>439.79998779296875</ele>
        <time>2011-06-18T08:06:53Z</time>
      </trkpt>
      <trkpt lat="46.492096949368715" lon="6.732395924627781">
        <ele>435.79998779296875</ele>
        <time>2011-06-18T08:07:02Z</time>
      </trkpt>
      <trkpt lat="46.491544917225838" lon="6.731692934408784">
        <ele>430.60000610351562</ele>
        <time>2011-06-18T08:07:10Z</time>
      </trkpt>
      <trkpt lat="46.491389935836196" lon="6.73080294393003">
        <ele>427.60000610351562</ele>
        <time>2011-06-18T08:07:17Z</time>
      </trkpt>
      <trkpt lat="46.491048960015178" lon="6.730267927050591">
        <ele>424.60000610351562</ele>
        <time>2011-06-18T08:07:23Z</time>
      </trkpt>
      <trkpt lat="46.49028092622757" lon="6.729585975408554">
        <ele>418.79998779296875</ele>
        <time>2011-06-18T08:07:33Z</time>
      </trkpt>
      <trkpt lat="46.489705927670002" lon="6.728987926617265">
        <ele>414.79998779296875</ele>
        <time>2011-06-18T08:07:41Z</time>
      </trkpt>
      <trkpt lat="46.489480957388878" lon="6.727909930050373">
        <ele>410.20001220703125</ele>
        <time>2011-06-18T08:07:49Z</time>
      </trkpt>
      <trkpt lat="46.489390935748816" lon="6.727154972031713">
        <ele>407</ele>
        <time>2011-06-18T08:07:55Z</time>
      </trkpt>
      <trkpt lat="46.489025987684727" lon="6.726812990382314">
        <ele>402.20001220703125</ele>
        <time>2011-06-18T08:08:05Z</time>
      </trkpt>
      <trkpt lat="46.488568922504783" lon="6.726471930742264">
        <ele>402.20001220703125</ele>
        <time>2011-06-18T08:08:22Z</time>
      </trkpt>
      <trkpt lat="46.488616950809956" lon="6.725818980485201">
        <ele>403.20001220703125</ele>
        <time>2011-06-18T08:08:42Z</time>
      </trkpt>
      <trkpt lat="46.488395920023322" lon="6.725135939195752">
        <ele>403.20001220703125</ele>
        <time>2011-06-18T08:08:56Z</time>
      </trkpt>
      <trkpt lat="46.488381922245026" lon="6.724417945370078">
        <ele>403.39999389648437</ele>
        <time>2011-06-18T08:09:10Z</time>
      </trkpt>
      <trkpt lat="46.488294918090105" lon="6.723730964586139">
        <ele>406</ele>
        <time>2011-06-18T08:09:26Z</time>
      </trkpt>
      <trkpt lat="46.488213948905468" lon="6.723043983802199">
        <ele>409.79998779296875</ele>
        <time>2011-06-18T08:09:40Z</time>
      </trkpt>
      <trkpt lat="46.488194921985269" lon="6.722108982503414">
        <ele>413.39999389648437</ele>
        <time>2011-06-18T08:10:00Z</time>
      </trkpt>
      <trkpt lat="46.488185953348875" lon="6.72143398784101">
        <ele>415.60000610351562</ele>
        <time>2011-06-18T08:10:18Z</time>
      </trkpt>
      <trkpt lat="46.488334983587265" lon="6.720594959333539">
        <ele>413.60000610351562</ele>
        <time>2011-06-18T08:10:29Z</time>
      </trkpt>
      <trkpt lat="46.488577974960208" lon="6.720044938847423">
        <ele>413</ele>
        <time>2011-06-18T08:10:37Z</time>
      </trkpt>
      <trkpt lat="46.488956920802593" lon="6.719399951398373">
        <ele>412.60000610351562</ele>
        <time>2011-06-18T08:10:49Z</time>
      </trkpt>
      <trkpt lat="46.489285994321108" lon="6.718862922862172">
        <ele>409</ele>
        <time>2011-06-18T08:10:56Z</time>
      </trkpt>
      <trkpt lat="46.489736940711737" lon="6.718139983713627">
        <ele>408.79998779296875</ele>
        <time>2011-06-18T08:11:06Z</time>
      </trkpt>
      <trkpt lat="46.490287967026234" lon="6.717514945194125">
        <ele>412.39999389648437</ele>
        <time>2011-06-18T08:11:22Z</time>
      </trkpt>
      <trkpt lat="46.490704966709018" lon="6.717069949954748">
        <ele>416.79998779296875</ele>
        <time>2011-06-18T08:11:37Z</time>
      </trkpt>
      <trkpt lat="46.491042925044894" lon="6.716507943347096">
        <ele>419.79998779296875</ele>
        <time>2011-06-18T08:11:53Z</time>
      </trkpt>
      <trkpt lat="46.491399994120002" lon="6.716004945337772">
        <ele>418.79998779296875</ele>
        <time>2011-06-18T08:12:08Z</time>
      </trkpt>
      <trkpt lat="46.491663940250874" lon="6.715475963428617">
        <ele>415.39999389648437</ele>
        <time>2011-06-18T08:12:17Z</time>
      </trkpt>
      <trkpt lat="46.491976920515299" lon="6.714332923293114">
        <ele>411.20001220703125</ele>
        <time>2011-06-18T08:12:37Z</time>
      </trkpt>
      <trkpt lat="46.492014974355698" lon="6.713455924764276">
        <ele>412.20001220703125</ele>
        <time>2011-06-18T08:12:53Z</time>
      </trkpt>
      <trkpt lat="46.492201974615455" lon="6.712834993377328">
        <ele>411.20001220703125</ele>
        <time>2011-06-18T08:13:02Z</time>
      </trkpt>
      <trkpt lat="46.492862971499562" lon="6.712031923234463">
        <ele>406</ele>
        <time>2011-06-18T08:13:15Z</time>
      </trkpt>
      <trkpt lat="46.49337594397366" lon="6.711240923032165">
        <ele>397.39999389648437</ele>
        <time>2011-06-18T08:13:28Z</time>
      </trkpt>
      <trkpt lat="46.493928981944919" lon="6.710673971101642">
        <ele>397.79998779296875</ele>
        <time>2011-06-18T08:13:43Z</time>
      </trkpt>
      <trkpt lat="46.494510937482119" lon="6.710214978083968">
        <ele>398.39999389648437</ele>
        <time>2011-06-18T08:14:03Z</time>
      </trkpt>
      <trkpt lat="46.49492098018527" lon="6.709386929869652">
        <ele>394.60000610351562</ele>
        <time>2011-06-18T08:14:17Z</time>
      </trkpt>
      <trkpt lat="46.495342925190926" lon="6.708710929378867">
        <ele>391.39999389648437</ele>
        <time>2011-06-18T08:14:34Z</time>
      </trkpt>
      <trkpt lat="46.495546940714121" lon="6.708054961636663">
        <ele>390.60000610351562</ele>
        <time>2011-06-18T08:14:45Z</time>
      </trkpt>
      <trkpt lat="46.495662946254015" lon="6.707337973639369">
        <ele>389.60000610351562</ele>
        <time>2011-06-18T08:14:55Z</time>
      </trkpt>
      <trkpt lat="46.49597492069006" lon="6.706837993115187">
        <ele>387.20001220703125</ele>
        <time>2011-06-18T08:15:03Z</time>
      </trkpt>
      <trkpt lat="46.49586595594883" lon="6.706227958202362">
        <ele>385.20001220703125</ele>
        <time>2011-06-18T08:15:13Z</time>
      </trkpt>
      <trkpt lat="46.496183965355158" lon="6.705534942448139">
        <ele>386.20001220703125</ele>
        <time>2011-06-18T08:15:29Z</time>
      </trkpt>
      <trkpt lat="46.496434919536114" lon="6.704788953065872">
        <ele>386.79998779296875</ele>
        <time>2011-06-18T08:15:44Z</time>
      </trkpt>
      <trkpt lat="46.496806992217898" lon="6.704119993373752">
        <ele>386.79998779296875</ele>
        <time>2011-06-18T08:15:55Z</time>
      </trkpt>
      <trkpt lat="46.497103963047266" lon="6.703542983159423">
        <ele>386.20001220703125</ele>
        <time>2011-06-18T08:16:04Z</time>
      </trkpt>
      <trkpt lat="46.49734896607697" lon="6.702891960740089">
        <ele>385.39999389648437</ele>
        <time>2011-06-18T08:16:12Z</time>
      </trkpt>
      <trkpt lat="46.497613918036222" lon="6.70218494720757">
        <ele>384.60000610351562</ele>
        <time>2011-06-18T08:16:20Z</time>
      </trkpt>
      <trkpt lat="46.497955983504653" lon="6.701636938378215">
        <ele>383.79998779296875</ele>
        <time>2011-06-18T08:16:27Z</time>
      </trkpt>
      <trkpt lat="46.498322943225503" lon="6.701081972569227">
        <ele>383.60000610351562</ele>
        <time>2011-06-18T08:16:35Z</time>
      </trkpt>
      <trkpt lat="46.498591918498278" lon="6.70052994042635">
        <ele>383.20001220703125</ele>
        <time>2011-06-18T08:16:42Z</time>
      </trkpt>
      <trkpt lat="46.498756958171725" lon="6.699837930500507">
        <ele>382.20001220703125</ele>
        <time>2011-06-18T08:16:49Z</time>
      </trkpt>
      <trkpt lat="46.498980922624469" lon="6.698952969163656">
        <ele>381.60000610351562</ele>
        <time>2011-06-18T08:16:58Z</time>
      </trkpt>
      <trkpt lat="46.499467995017767" lon="6.697600968182087">
        <ele>379.60000610351562</ele>
        <time>2011-06-18T08:17:12Z</time>
      </trkpt>
      <trkpt lat="46.499764965847135" lon="6.696819942444563">
        <ele>379.20001220703125</ele>
        <time>2011-06-18T08:17:20Z</time>
      </trkpt>
      <trkpt lat="46.500050956383348" lon="6.696049980819225">
        <ele>379.79998779296875</ele>
        <time>2011-06-18T08:17:29Z</time>
      </trkpt>
      <trkpt lat="46.500402996316552" lon="6.694384999573231">
        <ele>379.79998779296875</ele>
        <time>2011-06-18T08:17:48Z</time>
      </trkpt>
      <trkpt lat="46.500518918037415" lon="6.693571954965591">
        <ele>379.39999389648437</ele>
        <time>2011-06-18T08:17:57Z</time>
      </trkpt>
      <trkpt lat="46.500554960221052" lon="6.692670984193683">
        <ele>379.39999389648437</ele>
        <time>2011-06-18T08:18:07Z</time>
      </trkpt>
      <trkpt lat="46.500642970204353" lon="6.691863974556327">
        <ele>379.20001220703125</ele>
        <time>2011-06-18T08:18:16Z</time>
      </trkpt>
      <trkpt lat="46.500816978514194" lon="6.691134916618466">
        <ele>379</ele>
        <time>2011-06-18T08:18:24Z</time>
      </trkpt>
      <trkpt lat="46.501164995133877" lon="6.690204944461584">
        <ele>379.60000610351562</ele>
        <time>2011-06-18T08:18:35Z</time>
      </trkpt>
      <trkpt lat="46.501530949026346" lon="6.689801942557097">
        <ele>380</ele>
        <time>2011-06-18T08:18:44Z</time>
      </trkpt>
      <trkpt lat="46.501866979524493" lon="6.688978923484683">
        <ele>380.79998779296875</ele>
        <time>2011-06-18T08:18:56Z</time>
      </trkpt>
      <trkpt lat="46.502165962010622" lon="6.688291942700744">
        <ele>381.79998779296875</ele>
        <time>2011-06-18T08:19:10Z</time>
      </trkpt>
      <trkpt lat="46.50321495719254" lon="6.687255939468741">
        <ele>383.39999389648437</ele>
        <time>2011-06-18T08:19:29Z</time>
      </trkpt>
      <trkpt lat="46.503530954942107" lon="6.686791917309165">
        <ele>384.60000610351562</ele>
        <time>2011-06-18T08:19:54Z</time>
      </trkpt>
      <trkpt lat="46.503781992942095" lon="6.68613494373858">
        <ele>385.20001220703125</ele>
        <time>2011-06-18T08:20:11Z</time>
      </trkpt>
      <trkpt lat="46.503519974648952" lon="6.685653990134597">
        <ele>383.79998779296875</ele>
        <time>2011-06-18T08:20:42Z</time>
      </trkpt>
      <trkpt lat="46.502981940284371" lon="6.685459949076176">
        <ele>381.60000610351562</ele>
        <time>2011-06-18T08:20:59Z</time>
      </trkpt>
      <trkpt lat="46.503208922222257" lon="6.684792917221785">
        <ele>381</ele>
        <time>2011-06-18T08:21:09Z</time>
      </trkpt>
      <trkpt lat="46.503281928598881" lon="6.684131920337677">
        <ele>380</ele>
        <time>2011-06-18T08:21:19Z</time>
      </trkpt>
      <trkpt lat="46.50295595638454" lon="6.683697989210486">
        <ele>378.79998779296875</ele>
        <time>2011-06-18T08:21:30Z</time>
      </trkpt>
      <trkpt lat="46.503217974677682" lon="6.682859966531396">
        <ele>379.60000610351562</ele>
        <time>2011-06-18T08:21:49Z</time>
      </trkpt>
      <trkpt lat="46.503540929406881" lon="6.682101991027594">
        <ele>379.60000610351562</ele>
        <time>2011-06-18T08:22:04Z</time>
      </trkpt>
      <trkpt lat="46.50387997739017" lon="6.681216945871711">
        <ele>379.39999389648437</ele>
        <time>2011-06-18T08:22:18Z</time>
      </trkpt>
      <trkpt lat="46.504110982641578" lon="6.680430974811316">
        <ele>378.79998779296875</ele>
        <time>2011-06-18T08:22:32Z</time>
      </trkpt>
      <trkpt lat="46.504097990691662" lon="6.679395977407694">
        <ele>378.39999389648437</ele>
        <time>2011-06-18T08:22:46Z</time>
      </trkpt>
      <trkpt lat="46.504097990691662" lon="6.678682928904891">
        <ele>377.60000610351562</ele>
        <time>2011-06-18T08:22:55Z</time>
      </trkpt>
      <trkpt lat="46.504134954884648" lon="6.677982956171036">
        <ele>377.39999389648437</ele>
        <time>2011-06-18T08:23:04Z</time>
      </trkpt>
      <trkpt lat="46.504312986508012" lon="6.677043931558728">
        <ele>378.20001220703125</ele>
        <time>2011-06-18T08:23:15Z</time>
      </trkpt>
      <trkpt lat="46.504467967897654" lon="6.676267934963107">
        <ele>379.20001220703125</ele>
        <time>2011-06-18T08:23:24Z</time>
      </trkpt>
      <trkpt lat="46.504647927358747" lon="6.675505936145783">
        <ele>380.79998779296875</ele>
        <time>2011-06-18T08:23:34Z</time>
      </trkpt>
      <trkpt lat="46.504842974245548" lon="6.6744689270854">
        <ele>383.20001220703125</ele>
        <time>2011-06-18T08:23:50Z</time>
      </trkpt>
      <trkpt lat="46.505011953413486" lon="6.673165960237384">
        <ele>383.20001220703125</ele>
        <time>2011-06-18T08:24:07Z</time>
      </trkpt>
      <trkpt lat="46.505133993923664" lon="6.672350987792015">
        <ele>383.79998779296875</ele>
        <time>2011-06-18T08:24:17Z</time>
      </trkpt>
      <trkpt lat="46.505494918674231" lon="6.671465942636132">
        <ele>384.39999389648437</ele>
        <time>2011-06-18T08:24:31Z</time>
      </trkpt>
      <trkpt lat="46.505780993029475" lon="6.670870995149016">
        <ele>385.79998779296875</ele>
        <time>2011-06-18T08:24:48Z</time>
      </trkpt>
      <trkpt lat="46.506121968850493" lon="6.670022998005152">
        <ele>385.60000610351562</ele>
        <time>2011-06-18T08:25:04Z</time>
      </trkpt>
      <trkpt lat="46.506266975775361" lon="6.669283965602517">
        <ele>384.39999389648437</ele>
        <time>2011-06-18T08:25:16Z</time>
      </trkpt>
      <trkpt lat="46.506379963830113" lon="6.668618945404887">
        <ele>385.39999389648437</ele>
        <time>2011-06-18T08:25:28Z</time>
      </trkpt>
      <trkpt lat="46.506667966023088" lon="6.667498955503106">
        <ele>385.79998779296875</ele>
        <time>2011-06-18T08:25:44Z</time>
      </trkpt>
      <trkpt lat="46.50688698515296" lon="6.666842987760902">
        <ele>385.20001220703125</ele>
        <time>2011-06-18T08:25:53Z</time>
      </trkpt>
      <trkpt lat="46.507120924070477" lon="6.666073948144913">
        <ele>383.39999389648437</ele>
        <time>2011-06-18T08:26:02Z</time>
      </trkpt>
      <trkpt lat="46.507219998165965" lon="6.664860919117928">
        <ele>383.60000610351562</ele>
        <time>2011-06-18T08:26:16Z</time>
      </trkpt>
      <trkpt lat="46.506988992914557" lon="6.663229968398809">
        <ele>382.39999389648437</ele>
        <time>2011-06-18T08:26:34Z</time>
      </trkpt>
      <trkpt lat="46.506858989596367" lon="6.662462940439582">
        <ele>382.39999389648437</ele>
        <time>2011-06-18T08:26:43Z</time>
      </trkpt>
      <trkpt lat="46.506711971014738" lon="6.661633970215917">
        <ele>382.20001220703125</ele>
        <time>2011-06-18T08:26:53Z</time>
      </trkpt>
      <trkpt lat="46.506773997098207" lon="6.660215919837356">
        <ele>381.60000610351562</ele>
        <time>2011-06-18T08:27:09Z</time>
      </trkpt>
      <trkpt lat="46.50684398598969" lon="6.659443946555257">
        <ele>381.20001220703125</ele>
        <time>2011-06-18T08:27:18Z</time>
      </trkpt>
      <trkpt lat="46.506772991269827" lon="6.658250950276852">
        <ele>380.60000610351562</ele>
        <time>2011-06-18T08:27:31Z</time>
      </trkpt>
      <trkpt lat="46.506721945479512" lon="6.657458944246173">
        <ele>381.20001220703125</ele>
        <time>2011-06-18T08:27:40Z</time>
      </trkpt>
      <trkpt lat="46.506617926061153" lon="6.656406931579113">
        <ele>382.60000610351562</ele>
        <time>2011-06-18T08:27:53Z</time>
      </trkpt>
      <trkpt lat="46.50658699683845" lon="6.655716933310032">
        <ele>383.20001220703125</ele>
        <time>2011-06-18T08:28:02Z</time>
      </trkpt>
      <trkpt lat="46.50647995993495" lon="6.654662992805243">
        <ele>384</ele>
        <time>2011-06-18T08:28:15Z</time>
      </trkpt>
      <trkpt lat="46.506435954943299" lon="6.653964947909117">
        <ele>384</ele>
        <time>2011-06-18T08:28:23Z</time>
      </trkpt>
      <trkpt lat="46.506440984085202" lon="6.653227927163243">
        <ele>383.79998779296875</ele>
        <time>2011-06-18T08:28:31Z</time>
      </trkpt>
      <trkpt lat="46.506450958549976" lon="6.652320921421051">
        <ele>383</ele>
        <time>2011-06-18T08:28:40Z</time>
      </trkpt>
      <trkpt lat="46.50645799934864" lon="6.651333952322602">
        <ele>381.79998779296875</ele>
        <time>2011-06-18T08:28:49Z</time>
      </trkpt>
      <trkpt lat="46.506478954106569" lon="6.650228966027498">
        <ele>381</ele>
        <time>2011-06-18T08:28:59Z</time>
      </trkpt>
      <trkpt lat="46.506489934399724" lon="6.649356996640563">
        <ele>381</ele>
        <time>2011-06-18T08:29:07Z</time>
      </trkpt>
      <trkpt lat="46.50650099851191" lon="6.648621987551451">
        <ele>380.79998779296875</ele>
        <time>2011-06-18T08:29:14Z</time>
      </trkpt>
      <trkpt lat="46.506518935784698" lon="6.647612974047661">
        <ele>381.39999389648437</ele>
        <time>2011-06-18T08:29:24Z</time>
      </trkpt>
      <trkpt lat="46.50654399767518" lon="6.646230965852737">
        <ele>381.39999389648437</ele>
        <time>2011-06-18T08:29:39Z</time>
      </trkpt>
      <trkpt lat="46.506556989625096" lon="6.64544097147882">
        <ele>381.60000610351562</ele>
        <time>2011-06-18T08:29:48Z</time>
      </trkpt>
      <trkpt lat="46.50658699683845" lon="6.644377978518605">
        <ele>382.20001220703125</ele>
        <time>2011-06-18T08:30:00Z</time>
      </trkpt>
      <trkpt lat="46.506599988788366" lon="6.643360918387771">
        <ele>382.79998779296875</ele>
        <time>2011-06-18T08:30:10Z</time>
      </trkpt>
      <trkpt lat="46.506600994616747" lon="6.642699921503663">
        <ele>382</ele>
        <time>2011-06-18T08:30:43Z</time>
      </trkpt>
      <trkpt lat="46.506062960252166" lon="6.642298931255937">
        <ele>380.39999389648437</ele>
        <time>2011-06-18T08:30:55Z</time>
      </trkpt>
      <trkpt lat="46.505407998338342" lon="6.641872962936759">
        <ele>376.79998779296875</ele>
        <time>2011-06-18T08:31:05Z</time>
      </trkpt>
      <trkpt lat="46.505277995020151" lon="6.640997976064682">
        <ele>375</ele>
        <time>2011-06-18T08:31:13Z</time>
      </trkpt>
      <trkpt lat="46.505561973899603" lon="6.639939928427339">
        <ele>374.20001220703125</ele>
        <time>2011-06-18T08:31:23Z</time>
      </trkpt>
      <trkpt lat="46.505800941959023" lon="6.639047926291823">
        <ele>373.79998779296875</ele>
        <time>2011-06-18T08:31:32Z</time>
      </trkpt>
      <trkpt lat="46.506044939160347" lon="6.638137986883521">
        <ele>374</ele>
        <time>2011-06-18T08:31:41Z</time>
      </trkpt>
      <trkpt lat="46.506259934976697" lon="6.637339945882559">
        <ele>373.79998779296875</ele>
        <time>2011-06-18T08:31:49Z</time>
      </trkpt>
      <trkpt lat="46.506468979641795" lon="6.636510975658894">
        <ele>374</ele>
        <time>2011-06-18T08:31:57Z</time>
      </trkpt>
      <trkpt lat="46.506668971851468" lon="6.635769931599498">
        <ele>373.79998779296875</ele>
        <time>2011-06-18T08:32:04Z</time>
      </trkpt>
      <trkpt lat="46.506838956847787" lon="6.635141959413886">
        <ele>373.79998779296875</ele>
        <time>2011-06-18T08:32:10Z</time>
      </trkpt>
      <trkpt lat="46.507088989019394" lon="6.634213998913765">
        <ele>373.79998779296875</ele>
        <time>2011-06-18T08:32:19Z</time>
      </trkpt>
      <trkpt lat="46.507293926551938" lon="6.633428949862719">
        <ele>373.39999389648438</ele>
        <time>2011-06-18T08:32:27Z</time>
      </trkpt>
      <trkpt lat="46.507378919050097" lon="6.632736939936876">
        <ele>373.20001220703125</ele>
        <time>2011-06-18T08:32:34Z</time>
      </trkpt>
      <trkpt lat="46.507354946807027" lon="6.631902940571308">
        <ele>373</ele>
        <time>2011-06-18T08:32:42Z</time>
      </trkpt>
      <trkpt lat="46.507166940718889" lon="6.631052931770682">
        <ele>372.60000610351562</ele>
        <time>2011-06-18T08:32:51Z</time>
      </trkpt>
      <trkpt lat="46.506987987086177" lon="6.630328986793757">
        <ele>372.60000610351562</ele>
        <time>2011-06-18T08:32:59Z</time>
      </trkpt>
      <trkpt lat="46.506898971274495" lon="6.629275968298316">
        <ele>372.60000610351562</ele>
        <time>2011-06-18T08:33:10Z</time>
      </trkpt>
      <trkpt lat="46.506999973207712" lon="6.628470970317721">
        <ele>373</ele>
        <time>2011-06-18T08:33:19Z</time>
      </trkpt>
      <trkpt lat="46.507033919915557" lon="6.627593971788883">
        <ele>373.60000610351562</ele>
        <time>2011-06-18T08:33:32Z</time>
      </trkpt>
      <trkpt lat="46.5069729834795" lon="6.62666592746973">
        <ele>373.60000610351562</ele>
        <time>2011-06-18T08:33:47Z</time>
      </trkpt>
      <trkpt lat="46.507268948480487" lon="6.625943994149566">
        <ele>374.20001220703125</ele>
        <time>2011-06-18T08:33:57Z</time>
      </trkpt>
      <trkpt lat="46.507528955116868" lon="6.625363966450095">
        <ele>374.20001220703125</ele>
        <time>2011-06-18T08:34:09Z</time>
      </trkpt>
      <trkpt lat="46.507782926782966" lon="6.624805983155966">
        <ele>375</ele>
        <time>2011-06-18T08:34:37Z</time>
      </trkpt>
      <trkpt lat="46.508158938959241" lon="6.623989921063185">
        <ele>375</ele>
        <time>2011-06-18T08:34:47Z</time>
      </trkpt>
      <trkpt lat="46.50858792476356" lon="6.622662981972098">
        <ele>374.79998779296875</ele>
        <time>2011-06-18T08:35:01Z</time>
      </trkpt>
      <trkpt lat="46.509012971073389" lon="6.62148398347199">
        <ele>374.79998779296875</ele>
        <time>2011-06-18T08:35:13Z</time>
      </trkpt>
      <trkpt lat="46.509312959387898" lon="6.620969921350479">
        <ele>374.60000610351562</ele>
        <time>2011-06-18T08:35:19Z</time>
      </trkpt>
      <trkpt lat="46.509763989597559" lon="6.620250921696425">
        <ele>374.60000610351562</ele>
        <time>2011-06-18T08:35:28Z</time>
      </trkpt>
      <trkpt lat="46.510104965418577" lon="6.619684975594282">
        <ele>374.60000610351562</ele>
        <time>2011-06-18T08:35:35Z</time>
      </trkpt>
      <trkpt lat="46.510488940402865" lon="6.619027918204665">
        <ele>374.79998779296875</ele>
        <time>2011-06-18T08:35:43Z</time>
      </trkpt>
      <trkpt lat="46.511077936738729" lon="6.618064921349287">
        <ele>374.39999389648437</ele>
        <time>2011-06-18T08:35:54Z</time>
      </trkpt>
      <trkpt lat="46.511478926986456" lon="6.617416916415095">
        <ele>374.60000610351562</ele>
        <time>2011-06-18T08:36:02Z</time>
      </trkpt>
      <trkpt lat="46.511926939710975" lon="6.616691965609789">
        <ele>375</ele>
        <time>2011-06-18T08:36:11Z</time>
      </trkpt>
      <trkpt lat="46.512232962995768" lon="6.616063993424177">
        <ele>374.79998779296875</ele>
        <time>2011-06-18T08:36:18Z</time>
      </trkpt>
      <trkpt lat="46.512456927448511" lon="6.61549192853272">
        <ele>374.79998779296875</ele>
        <time>2011-06-18T08:36:24Z</time>
      </trkpt>
      <trkpt lat="46.51268994435668" lon="6.614818945527077">
        <ele>374.60000610351562</ele>
        <time>2011-06-18T08:36:31Z</time>
      </trkpt>
      <trkpt lat="46.51286194100976" lon="6.614141939207912">
        <ele>374.39999389648437</ele>
        <time>2011-06-18T08:36:38Z</time>
      </trkpt>
      <trkpt lat="46.513079954311252" lon="6.613420927897096">
        <ele>374.79998779296875</ele>
        <time>2011-06-18T08:36:47Z</time>
      </trkpt>
      <trkpt lat="46.513530984520912" lon="6.612492967396975">
        <ele>375.39999389648437</ele>
        <time>2011-06-18T08:36:59Z</time>
      </trkpt>
      <trkpt lat="46.514016967266798" lon="6.611856948584318">
        <ele>376.20001220703125</ele>
        <time>2011-06-18T08:37:09Z</time>
      </trkpt>
      <trkpt lat="46.514680981636047" lon="6.610884983092547">
        <ele>377</ele>
        <time>2011-06-18T08:37:23Z</time>
      </trkpt>
      <trkpt lat="46.514962948858738" lon="6.61024795845151">
        <ele>377</ele>
        <time>2011-06-18T08:37:31Z</time>
      </trkpt>
      <trkpt lat="46.51529093272984" lon="6.609041970223188">
        <ele>376.79998779296875</ele>
        <time>2011-06-18T08:37:45Z</time>
      </trkpt>
      <trkpt lat="46.51548195630312" lon="6.608342919498682">
        <ele>376.60000610351562</ele>
        <time>2011-06-18T08:37:54Z</time>
      </trkpt>
      <trkpt lat="46.514984993264079" lon="6.607639929279685">
        <ele>375.60000610351562</ele>
        <time>2011-06-18T08:38:16Z</time>
      </trkpt>
      <trkpt lat="46.51453698053956" lon="6.6069829557091">
        <ele>375.60000610351562</ele>
        <time>2011-06-18T08:38:28Z</time>
      </trkpt>
      <trkpt lat="46.514444947242737" lon="6.606297986581922">
        <ele>375.79998779296875</ele>
        <time>2011-06-18T08:38:36Z</time>
      </trkpt>
      <trkpt lat="46.514551984146237" lon="6.60560698248446">
        <ele>376</ele>
        <time>2011-06-18T08:38:44Z</time>
      </trkpt>
      <trkpt lat="46.5147749427706" lon="6.60496199503541">
        <ele>376.39999389648438</ele>
        <time>2011-06-18T08:38:53Z</time>
      </trkpt>
      <trkpt lat="46.515184985473752" lon="6.604249952360988">
        <ele>376.79998779296875</ele>
        <time>2011-06-18T08:39:04Z</time>
      </trkpt>
      <trkpt lat="46.515426971018314" lon="6.603553919121623">
        <ele>377.20001220703125</ele>
        <time>2011-06-18T08:39:14Z</time>
      </trkpt>
      <trkpt lat="46.51539595797658" lon="6.602651942521334">
        <ele>376.79998779296875</ele>
        <time>2011-06-18T08:39:26Z</time>
      </trkpt>
      <trkpt lat="46.515851933509111" lon="6.602352960035205">
        <ele>377.39999389648437</ele>
        <time>2011-06-18T08:39:39Z</time>
      </trkpt>
      <trkpt lat="46.516297934576869" lon="6.602500984445214">
        <ele>378.20001220703125</ele>
        <time>2011-06-18T08:39:47Z</time>
      </trkpt>
      <trkpt lat="46.516735972836614" lon="6.602310966700316">
        <ele>379.39999389648437</ele>
        <time>2011-06-18T08:39:56Z</time>
      </trkpt>
      <trkpt lat="46.517056999728084" lon="6.601520972326398">
        <ele>380.79998779296875</ele>
        <time>2011-06-18T08:40:09Z</time>
      </trkpt>
      <trkpt lat="46.517310971394181" lon="6.600321941077709">
        <ele>381.79998779296875</ele>
        <time>2011-06-18T08:40:26Z</time>
      </trkpt>
      <trkpt lat="46.517449943348765" lon="6.599626997485757">
        <ele>380.79998779296875</ele>
        <time>2011-06-18T08:40:34Z</time>
      </trkpt>
      <trkpt lat="46.517683966085315" lon="6.598653942346573">
        <ele>378.79998779296875</ele>
        <time>2011-06-18T08:40:44Z</time>
      </trkpt>
      <trkpt lat="46.518056960776448" lon="6.597676947712898">
        <ele>377.60000610351562</ele>
        <time>2011-06-18T08:40:55Z</time>
      </trkpt>
      <trkpt lat="46.518401959910989" lon="6.597083928063512">
        <ele>377.20001220703125</ele>
        <time>2011-06-18T08:41:03Z</time>
      </trkpt>
      <trkpt lat="46.518686944618821" lon="6.596547989174724">
        <ele>377.60000610351562</ele>
        <time>2011-06-18T08:41:10Z</time>
      </trkpt>
      <trkpt lat="46.518932953476906" lon="6.595988916233182">
        <ele>377.39999389648437</ele>
        <time>2011-06-18T08:41:17Z</time>
      </trkpt>
      <trkpt lat="46.519123977050185" lon="6.59531693905592">
        <ele>376.79998779296875</ele>
        <time>2011-06-18T08:41:25Z</time>
      </trkpt>
      <trkpt lat="46.518807979300618" lon="6.59482198767364">
        <ele>376.20001220703125</ele>
        <time>2011-06-18T08:41:32Z</time>
      </trkpt>
      <trkpt lat="46.518682921305299" lon="6.594203989952803">
        <ele>376</ele>
        <time>2011-06-18T08:41:39Z</time>
      </trkpt>
      <trkpt lat="46.519052982330322" lon="6.593300923705101">
        <ele>375.60000610351562</ele>
        <time>2011-06-18T08:41:49Z</time>
      </trkpt>
      <trkpt lat="46.519335955381393" lon="6.592620983719826">
        <ele>375.39999389648437</ele>
        <time>2011-06-18T08:41:57Z</time>
      </trkpt>
      <trkpt lat="46.519527984783053" lon="6.592019917443395">
        <ele>375.39999389648437</ele>
        <time>2011-06-18T08:42:04Z</time>
      </trkpt>
      <trkpt lat="46.51971397921443" lon="6.591390939429402">
        <ele>375.39999389648437</ele>
        <time>2011-06-18T08:42:11Z</time>
      </trkpt>
      <trkpt lat="46.519906930625439" lon="6.590636987239122">
        <ele>375.60000610351562</ele>
        <time>2011-06-18T08:42:19Z</time>
      </trkpt>
      <trkpt lat="46.520169954746962" lon="6.589614981785417">
        <ele>375.79998779296875</ele>
        <time>2011-06-18T08:42:30Z</time>
      </trkpt>
      <trkpt lat="46.520438930019736" lon="6.58861393108964">
        <ele>376.39999389648438</ele>
        <time>2011-06-18T08:42:41Z</time>
      </trkpt>
      <trkpt lat="46.52070396579802" lon="6.587437950074673">
        <ele>376.79998779296875</ele>
        <time>2011-06-18T08:42:54Z</time>
      </trkpt>
      <trkpt lat="46.520890966057777" lon="6.586599927395582">
        <ele>376.79998779296875</ele>
        <time>2011-06-18T08:43:04Z</time>
      </trkpt>
      <trkpt lat="46.521033961325884" lon="6.585960974916816">
        <ele>376.60000610351562</ele>
        <time>2011-06-18T08:43:12Z</time>
      </trkpt>
      <trkpt lat="46.52110998518765" lon="6.585284974426031">
        <ele>377.20001220703125</ele>
        <time>2011-06-18T08:43:20Z</time>
      </trkpt>
      <trkpt lat="46.520908987149596" lon="6.584330946207047">
        <ele>377.20001220703125</ele>
        <time>2011-06-18T08:43:33Z</time>
      </trkpt>
      <trkpt lat="46.520662978291512" lon="6.583590991795063">
        <ele>376.79998779296875</ele>
        <time>2011-06-18T08:43:45Z</time>
      </trkpt>
      <trkpt lat="46.520470948889852" lon="6.58234192058444">
        <ele>378</ele>
        <time>2011-06-18T08:44:00Z</time>
      </trkpt>
      <trkpt lat="46.520247990265489" lon="6.58118094317615">
        <ele>379.39999389648437</ele>
        <time>2011-06-18T08:44:14Z</time>
      </trkpt>
      <trkpt lat="46.520126955583692" lon="6.580510977655649">
        <ele>380.39999389648437</ele>
        <time>2011-06-18T08:44:22Z</time>
      </trkpt>
      <trkpt lat="46.519959988072515" lon="6.579580921679735">
        <ele>381.79998779296875</ele>
        <time>2011-06-18T08:44:35Z</time>
      </trkpt>
      <trkpt lat="46.519771981984377" lon="6.578545924276114">
        <ele>384.60000610351562</ele>
        <time>2011-06-18T08:44:52Z</time>
      </trkpt>
      <trkpt lat="46.519590932875872" lon="6.577697927132249">
        <ele>387.39999389648438</ele>
        <time>2011-06-18T08:45:07Z</time>
      </trkpt>
      <trkpt lat="46.519443998113275" lon="6.577048916369677">
        <ele>389.60000610351562</ele>
        <time>2011-06-18T08:45:20Z</time>
      </trkpt>
      <trkpt lat="46.519168987870216" lon="6.575980978086591">
        <ele>391.60000610351562</ele>
        <time>2011-06-18T08:45:49Z</time>
      </trkpt>
      <trkpt lat="46.518963966518641" lon="6.57527094706893">
        <ele>392.60000610351562</ele>
        <time>2011-06-18T08:45:59Z</time>
      </trkpt>
      <trkpt lat="46.518703959882259" lon="6.574338963255286">
        <ele>393.20001220703125</ele>
        <time>2011-06-18T08:46:12Z</time>
      </trkpt>
      <trkpt lat="46.518500950187445" lon="6.573643935844302">
        <ele>393.60000610351562</ele>
        <time>2011-06-18T08:46:22Z</time>
      </trkpt>
      <trkpt lat="46.518245972692966" lon="6.572786970064044">
        <ele>394.39999389648437</ele>
        <time>2011-06-18T08:46:34Z</time>
      </trkpt>
      <trkpt lat="46.518115969374776" lon="6.57196294516325">
        <ele>394.79998779296875</ele>
        <time>2011-06-18T08:46:44Z</time>
      </trkpt>
      <trkpt lat="46.51793098077178" lon="6.571351988241077">
        <ele>395.60000610351562</ele>
        <time>2011-06-18T08:46:53Z</time>
      </trkpt>
      <trkpt lat="46.517708944156766" lon="6.570540955290198">
        <ele>396.39999389648437</ele>
        <time>2011-06-18T08:47:04Z</time>
      </trkpt>
      <trkpt lat="46.517443992197514" lon="6.569780968129635">
        <ele>397.60000610351562</ele>
        <time>2011-06-18T08:47:16Z</time>
      </trkpt>
      <trkpt lat="46.517322957515717" lon="6.568745970726013">
        <ele>398</ele>
        <time>2011-06-18T08:47:30Z</time>
      </trkpt>
      <trkpt lat="46.517243999987841" lon="6.567918928340077">
        <ele>397.60000610351562</ele>
        <time>2011-06-18T08:47:40Z</time>
      </trkpt>
      <trkpt lat="46.517161941155791" lon="6.567026926204562">
        <ele>397.20001220703125</ele>
        <time>2011-06-18T08:47:50Z</time>
      </trkpt>
      <trkpt lat="46.517095975577831" lon="6.566302981227636">
        <ele>396.79998779296875</ele>
        <time>2011-06-18T08:47:58Z</time>
      </trkpt>
      <trkpt lat="46.516990950331092" lon="6.565434951335192">
        <ele>396.20001220703125</ele>
        <time>2011-06-18T08:48:08Z</time>
      </trkpt>
      <trkpt lat="46.516751982271671" lon="6.56435594893992">
        <ele>396</ele>
        <time>2011-06-18T08:48:20Z</time>
      </trkpt>
      <trkpt lat="46.516434978693724" lon="6.563413990661502">
        <ele>395.39999389648437</ele>
        <time>2011-06-18T08:48:31Z</time>
      </trkpt>
      <trkpt lat="46.516072964295745" lon="6.562589965760708">
        <ele>395.60000610351562</ele>
        <time>2011-06-18T08:48:42Z</time>
      </trkpt>
      <trkpt lat="46.515713967382908" lon="6.561801983043551">
        <ele>395.60000610351562</ele>
        <time>2011-06-18T08:48:52Z</time>
      </trkpt>
      <trkpt lat="46.515375925228" lon="6.561038978397846">
        <ele>396</ele>
        <time>2011-06-18T08:49:02Z</time>
      </trkpt>
      <trkpt lat="46.515115918591619" lon="6.560442941263318">
        <ele>396.39999389648437</ele>
        <time>2011-06-18T08:49:12Z</time>
      </trkpt>
      <trkpt lat="46.514868987724185" lon="6.55984497629106">
        <ele>397.60000610351562</ele>
        <time>2011-06-18T08:50:34Z</time>
      </trkpt>
      <trkpt lat="46.514573944732547" lon="6.559138968586922">
        <ele>399</ele>
        <time>2011-06-18T08:50:43Z</time>
      </trkpt>
      <trkpt lat="46.514310920611024" lon="6.558390967547894">
        <ele>400.60000610351562</ele>
        <time>2011-06-18T08:50:52Z</time>
      </trkpt>
      <trkpt lat="46.514116963371634" lon="6.557789985090494">
        <ele>402</ele>
        <time>2011-06-18T08:51:00Z</time>
      </trkpt>
      <trkpt lat="46.513815969228745" lon="6.556579973548651">
        <ele>405.60000610351562</ele>
        <time>2011-06-18T08:51:18Z</time>
      </trkpt>
      <trkpt lat="46.513809934258461" lon="6.555454954504967">
        <ele>406</ele>
        <time>2011-06-18T08:51:33Z</time>
      </trkpt>
      <trkpt lat="46.513838935643435" lon="6.553902961313725">
        <ele>403.79998779296875</ele>
        <time>2011-06-18T08:51:48Z</time>
      </trkpt>
      <trkpt lat="46.513838935643435" lon="6.553197959437966">
        <ele>403</ele>
        <time>2011-06-18T08:51:54Z</time>
      </trkpt>
      <trkpt lat="46.513838935643435" lon="6.552026923745871">
        <ele>402.39999389648437</ele>
        <time>2011-06-18T08:52:04Z</time>
      </trkpt>
      <trkpt lat="46.513838935643435" lon="6.550817918032408">
        <ele>402.20001220703125</ele>
        <time>2011-06-18T08:52:15Z</time>
      </trkpt>
      <trkpt lat="46.513826949521899" lon="6.549901943653822">
        <ele>401.60000610351562</ele>
        <time>2011-06-18T08:52:24Z</time>
      </trkpt>
      <trkpt lat="46.513757966458797" lon="6.549174981191754">
        <ele>400.79998779296875</ele>
        <time>2011-06-18T08:52:31Z</time>
      </trkpt>
      <trkpt lat="46.513664927333593" lon="6.548425974324346">
        <ele>399.60000610351562</ele>
        <time>2011-06-18T08:52:38Z</time>
      </trkpt>
      <trkpt lat="46.513529978692532" lon="6.547224931418896">
        <ele>398</ele>
        <time>2011-06-18T08:52:50Z</time>
      </trkpt>
      <trkpt lat="46.513432916253805" lon="6.546325972303748">
        <ele>396.39999389648437</ele>
        <time>2011-06-18T08:53:00Z</time>
      </trkpt>
      <trkpt lat="46.513330992311239" lon="6.545140938833356">
        <ele>393.60000610351562</ele>
        <time>2011-06-18T08:53:22Z</time>
      </trkpt>
      <trkpt lat="46.513282964006066" lon="6.544331917539239">
        <ele>391.39999389648437</ele>
        <time>2011-06-18T08:53:29Z</time>
      </trkpt>
      <trkpt lat="46.513319928199053" lon="6.543577965348959">
        <ele>389.79998779296875</ele>
        <time>2011-06-18T08:53:35Z</time>
      </trkpt>
      <trkpt lat="46.513461917638779" lon="6.542630977928639">
        <ele>387</ele>
        <time>2011-06-18T08:53:42Z</time>
      </trkpt>
      <trkpt lat="46.513772970065475" lon="6.541611989960074">
        <ele>385</ele>
        <time>2011-06-18T08:53:50Z</time>
      </trkpt>
      <trkpt lat="46.51397799141705" lon="6.540901958942413">
        <ele>386.60000610351562</ele>
        <time>2011-06-18T08:53:56Z</time>
      </trkpt>
      <trkpt lat="46.514332965016365" lon="6.539783980697393">
        <ele>389.60000610351562</ele>
        <time>2011-06-18T08:54:09Z</time>
      </trkpt>
      <trkpt lat="46.514562964439392" lon="6.538860965520144">
        <ele>392.20001220703125</ele>
        <time>2011-06-18T08:54:23Z</time>
      </trkpt>
      <trkpt lat="46.514795981347561" lon="6.537973992526531">
        <ele>393.60000610351562</ele>
        <time>2011-06-18T08:54:36Z</time>
      </trkpt>
      <trkpt lat="46.515113990753889" lon="6.536810919642448">
        <ele>395.79998779296875</ele>
        <time>2011-06-18T08:54:54Z</time>
      </trkpt>
      <trkpt lat="46.515368968248367" lon="6.535906931385398">
        <ele>398.79998779296875</ele>
        <time>2011-06-18T08:55:09Z</time>
      </trkpt>
      <trkpt lat="46.515523949638009" lon="6.535297986119986">
        <ele>401</ele>
        <time>2011-06-18T08:55:20Z</time>
      </trkpt>
      <trkpt lat="46.515786973759532" lon="6.534228958189488">
        <ele>403</ele>
        <time>2011-06-18T08:55:37Z</time>
      </trkpt>
      <trkpt lat="46.51593592017889" lon="6.533566955476999">
        <ele>403.60000610351562</ele>
        <time>2011-06-18T08:55:47Z</time>
      </trkpt>
      <trkpt lat="46.516080927103758" lon="6.532847955822945">
        <ele>403.79998779296875</ele>
        <time>2011-06-18T08:55:57Z</time>
      </trkpt>
      <trkpt lat="46.516228951513767" lon="6.532221995294094">
        <ele>403.79998779296875</ele>
        <time>2011-06-18T08:56:05Z</time>
      </trkpt>
      <trkpt lat="46.516420980915427" lon="6.531300991773605">
        <ele>403.79998779296875</ele>
        <time>2011-06-18T08:56:16Z</time>
      </trkpt>
      <trkpt lat="46.516560958698392" lon="6.530612921342254">
        <ele>403.79998779296875</ele>
        <time>2011-06-18T08:56:24Z</time>
      </trkpt>
      <trkpt lat="46.516723986715078" lon="6.529752938076854">
        <ele>403.20001220703125</ele>
        <time>2011-06-18T08:56:34Z</time>
      </trkpt>
      <trkpt lat="46.516884919255972" lon="6.528911981731653">
        <ele>403.20001220703125</ele>
        <time>2011-06-18T08:56:44Z</time>
      </trkpt>
      <trkpt lat="46.517057921737432" lon="6.52797999791801">
        <ele>403.60000610351562</ele>
        <time>2011-06-18T08:56:55Z</time>
      </trkpt>
      <trkpt lat="46.517228996381164" lon="6.527041979134083">
        <ele>404</ele>
        <time>2011-06-18T08:57:06Z</time>
      </trkpt>
      <trkpt lat="46.517463941127062" lon="6.525848982855678">
        <ele>404.79998779296875</ele>
        <time>2011-06-18T08:57:21Z</time>
      </trkpt>
      <trkpt lat="46.517616994678974" lon="6.52473796159029">
        <ele>405.39999389648437</ele>
        <time>2011-06-18T08:57:36Z</time>
      </trkpt>
      <trkpt lat="46.517685977742076" lon="6.523483945056796">
        <ele>402</ele>
        <time>2011-06-18T08:57:48Z</time>
      </trkpt>
      <trkpt lat="46.517724953591824" lon="6.522583980113268">
        <ele>399.20001220703125</ele>
        <time>2011-06-18T08:57:55Z</time>
      </trkpt>
      <trkpt lat="46.517760995775461" lon="6.521752998232842">
        <ele>396.39999389648437</ele>
        <time>2011-06-18T08:58:01Z</time>
      </trkpt>
      <trkpt lat="46.517850933596492" lon="6.519987937062979">
        <ele>391.79998779296875</ele>
        <time>2011-06-18T08:58:14Z</time>
      </trkpt>
      <trkpt lat="46.517900973558426" lon="6.519212946295738">
        <ele>389.60000610351562</ele>
        <time>2011-06-18T08:58:22Z</time>
      </trkpt>
      <trkpt lat="46.517908936366439" lon="6.518264953047037">
        <ele>387.79998779296875</ele>
        <time>2011-06-18T08:58:46Z</time>
      </trkpt>
      <trkpt lat="46.517831990495324" lon="6.51758492924273">
        <ele>386.20001220703125</ele>
        <time>2011-06-18T08:58:53Z</time>
      </trkpt>
      <trkpt lat="46.51771891862154" lon="6.516709942370653">
        <ele>383.79998779296875</ele>
        <time>2011-06-18T08:59:01Z</time>
      </trkpt>
      <trkpt lat="46.517614983022213" lon="6.515783993527293">
        <ele>381.60000610351562</ele>
        <time>2011-06-18T08:59:09Z</time>
      </trkpt>
      <trkpt lat="46.517487997189164" lon="6.51462092064321">
        <ele>379</ele>
        <time>2011-06-18T08:59:19Z</time>
      </trkpt>
      <trkpt lat="46.517395963892341" lon="6.513785999268293">
        <ele>377.79998779296875</ele>
        <time>2011-06-18T08:59:26Z</time>
      </trkpt>
      <trkpt lat="46.51726495474577" lon="6.512706996873021">
        <ele>377.60000610351562</ele>
        <time>2011-06-18T08:59:35Z</time>
      </trkpt>
      <trkpt lat="46.517064962536097" lon="6.511143939569593">
        <ele>377</ele>
        <time>2011-06-18T08:59:50Z</time>
      </trkpt>
      <trkpt lat="46.516962954774499" lon="6.510225953534246">
        <ele>376.20001220703125</ele>
        <time>2011-06-18T08:59:59Z</time>
      </trkpt>
      <trkpt lat="46.516876956447959" lon="6.509425984695554">
        <ele>376</ele>
        <time>2011-06-18T09:00:07Z</time>
      </trkpt>
      <trkpt lat="46.516746953129768" lon="6.508355950936675">
        <ele>375.60000610351562</ele>
        <time>2011-06-18T09:00:19Z</time>
      </trkpt>
      <trkpt lat="46.516672940924764" lon="6.50767995044589">
        <ele>375.79998779296875</ele>
        <time>2011-06-18T09:00:27Z</time>
      </trkpt>
      <trkpt lat="46.516502955928445" lon="6.506996992975473">
        <ele>375.79998779296875</ele>
        <time>2011-06-18T09:00:36Z</time>
      </trkpt>
      <trkpt lat="46.516148988157511" lon="6.506034918129444">
        <ele>376</ele>
        <time>2011-06-18T09:00:56Z</time>
      </trkpt>
      <trkpt lat="46.515712961554527" lon="6.504846950992942">
        <ele>376</ele>
        <time>2011-06-18T09:01:14Z</time>
      </trkpt>
      <trkpt lat="46.515427976846695" lon="6.504165921360254">
        <ele>376</ele>
        <time>2011-06-18T09:01:23Z</time>
      </trkpt>
      <trkpt lat="46.514767985790968" lon="6.503289928659797">
        <ele>375.60000610351562</ele>
        <time>2011-06-18T09:01:37Z</time>
      </trkpt>
      <trkpt lat="46.514412928372622" lon="6.502877958118916">
        <ele>375.39999389648437</ele>
        <time>2011-06-18T09:01:44Z</time>
      </trkpt>
      <trkpt lat="46.514018978923559" lon="6.502419970929623">
        <ele>375.20001220703125</ele>
        <time>2011-06-18T09:01:52Z</time>
      </trkpt>
      <trkpt lat="46.51359292678535" lon="6.501930970698595">
        <ele>375</ele>
        <time>2011-06-18T09:02:01Z</time>
      </trkpt>
      <trkpt lat="46.513116918504238" lon="6.501384973526001">
        <ele>375</ele>
        <time>2011-06-18T09:02:11Z</time>
      </trkpt>
      <trkpt lat="46.512723974883556" lon="6.500903936102986">
        <ele>374.79998779296875</ele>
        <time>2011-06-18T09:02:19Z</time>
      </trkpt>
      <trkpt lat="46.512337988242507" lon="6.500456929206848">
        <ele>374.79998779296875</ele>
        <time>2011-06-18T09:02:27Z</time>
      </trkpt>
      <trkpt lat="46.511609936133027" lon="6.499957954511046">
        <ele>375.20001220703125</ele>
        <time>2011-06-18T09:02:41Z</time>
      </trkpt>
      <trkpt lat="46.51109897531569" lon="6.4998809248209">
        <ele>375</ele>
        <time>2011-06-18T09:02:51Z</time>
      </trkpt>
      <trkpt lat="46.511220932006836" lon="6.498541999608278">
        <ele>375.20001220703125</ele>
        <time>2011-06-18T09:03:04Z</time>
      </trkpt>
      <trkpt lat="46.510856989771128" lon="6.497702971100807">
        <ele>376.79998779296875</ele>
        <time>2011-06-18T09:03:34Z</time>
      </trkpt>
      <trkpt lat="46.51032398454845" lon="6.497048931196332">
        <ele>377</ele>
        <time>2011-06-18T09:03:50Z</time>
      </trkpt>
      <trkpt lat="46.50957296602428" lon="6.496524978429079">
        <ele>376.39999389648438</ele>
        <time>2011-06-18T09:04:05Z</time>
      </trkpt>
      <trkpt lat="46.50901791639626" lon="6.496164975687861">
        <ele>375.79998779296875</ele>
        <time>2011-06-18T09:04:17Z</time>
      </trkpt>
      <trkpt lat="46.50852095335722" lon="6.496130945160985">
        <ele>375.79998779296875</ele>
        <time>2011-06-18T09:04:52Z</time>
      </trkpt>
      <trkpt lat="46.508010998368263" lon="6.496202945709229">
        <ele>375.79998779296875</ele>
        <time>2011-06-18T09:05:01Z</time>
      </trkpt>
      <trkpt lat="46.507638925686479" lon="6.495719980448484">
        <ele>376.20001220703125</ele>
        <time>2011-06-18T09:05:12Z</time>
      </trkpt>
      <trkpt lat="46.507510934025049" lon="6.494927974417806">
        <ele>376.39999389648438</ele>
        <time>2011-06-18T09:05:28Z</time>
      </trkpt>
      <trkpt lat="46.50738294236362" lon="6.494055921211839">
        <ele>377</ele>
        <time>2011-06-18T09:05:41Z</time>
      </trkpt>
      <trkpt lat="46.507264925166965" lon="6.493289982900024">
        <ele>377.60000610351562</ele>
        <time>2011-06-18T09:05:50Z</time>
      </trkpt>
      <trkpt lat="46.507044984027743" lon="6.492349952459335">
        <ele>377.60000610351562</ele>
        <time>2011-06-18T09:06:01Z</time>
      </trkpt>
      <trkpt lat="46.506827976554632" lon="6.491475971415639">
        <ele>377.20001220703125</ele>
        <time>2011-06-18T09:06:11Z</time>
      </trkpt>
      <trkpt lat="46.506590936332941" lon="6.490780944004655">
        <ele>376.60000610351562</ele>
        <time>2011-06-18T09:06:19Z</time>
      </trkpt>
      <trkpt lat="46.506251972168684" lon="6.49001793935895">
        <ele>376.20001220703125</ele>
        <time>2011-06-18T09:06:28Z</time>
      </trkpt>
      <trkpt lat="46.505794990807772" lon="6.489492980763316">
        <ele>376.60000610351562</ele>
        <time>2011-06-18T09:06:37Z</time>
      </trkpt>
      <trkpt lat="46.505166934803128" lon="6.488784961402416">
        <ele>376.39999389648438</ele>
        <time>2011-06-18T09:06:49Z</time>
      </trkpt>
      <trkpt lat="46.504428992047906" lon="6.488081971183419">
        <ele>376.39999389648438</ele>
        <time>2011-06-18T09:07:02Z</time>
      </trkpt>
      <trkpt lat="46.504036970436573" lon="6.487707970663905">
        <ele>376.79998779296875</ele>
        <time>2011-06-18T09:07:09Z</time>
      </trkpt>
      <trkpt lat="46.503638997673988" lon="6.487338999286294">
        <ele>377</ele>
        <time>2011-06-18T09:07:16Z</time>
      </trkpt>
      <trkpt lat="46.503258962184191" lon="6.486986959353089">
        <ele>377.39999389648437</ele>
        <time>2011-06-18T09:07:23Z</time>
      </trkpt>
      <trkpt lat="46.50265496224165" lon="6.48640894331038">
        <ele>378.20001220703125</ele>
        <time>2011-06-18T09:07:34Z</time>
      </trkpt>
      <trkpt lat="46.502116927877069" lon="6.485888930037618">
        <ele>379.39999389648437</ele>
        <time>2011-06-18T09:07:44Z</time>
      </trkpt>
      <trkpt lat="46.50170998647809" lon="6.485498920083046">
        <ele>380.60000610351562</ele>
        <time>2011-06-18T09:07:52Z</time>
      </trkpt>
      <trkpt lat="46.50117396377027" lon="6.484990976750851">
        <ele>381.60000610351562</ele>
        <time>2011-06-18T09:08:03Z</time>
      </trkpt>
      <trkpt lat="46.500735925510526" lon="6.484577916562557">
        <ele>382.39999389648437</ele>
        <time>2011-06-18T09:08:12Z</time>
      </trkpt>
      <trkpt lat="46.500291936099529" lon="6.484156977385283">
        <ele>382.60000610351562</ele>
        <time>2011-06-18T09:08:21Z</time>
      </trkpt>
      <trkpt lat="46.499741999432445" lon="6.483633946627379">
        <ele>382.79998779296875</ele>
        <time>2011-06-18T09:08:32Z</time>
      </trkpt>
      <trkpt lat="46.499109920114279" lon="6.48303497582674">
        <ele>383.39999389648437</ele>
        <time>2011-06-18T09:08:44Z</time>
      </trkpt>
      <trkpt lat="46.498608933761716" lon="6.482559973374009">
        <ele>383.60000610351562</ele>
        <time>2011-06-18T09:08:54Z</time>
      </trkpt>
      <trkpt lat="46.498111970722675" lon="6.482094945386052">
        <ele>384.20001220703125</ele>
        <time>2011-06-18T09:09:04Z</time>
      </trkpt>
      <trkpt lat="46.497694971039891" lon="6.4818109665066">
        <ele>385</ele>
        <time>2011-06-18T09:09:12Z</time>
      </trkpt>
      <trkpt lat="46.496875975281" lon="6.481627989560366">
        <ele>384.20001220703125</ele>
        <time>2011-06-18T09:09:26Z</time>
      </trkpt>
      <trkpt lat="46.496198968961835" lon="6.481217946857214">
        <ele>382.60000610351562</ele>
        <time>2011-06-18T09:09:36Z</time>
      </trkpt>
      <trkpt lat="46.495554987341166" lon="6.48013299331069">
        <ele>382.39999389648437</ele>
        <time>2011-06-18T09:09:50Z</time>
      </trkpt>
      <trkpt lat="46.495238989591599" lon="6.479280972853303">
        <ele>383</ele>
        <time>2011-06-18T09:10:00Z</time>
      </trkpt>
      <trkpt lat="46.494957944378257" lon="6.47848092019558">
        <ele>381.60000610351562</ele>
        <time>2011-06-18T09:10:08Z</time>
      </trkpt>
      <trkpt lat="46.494510937482119" lon="6.477232938632369">
        <ele>380.20001220703125</ele>
        <time>2011-06-18T09:10:20Z</time>
      </trkpt>
      <trkpt lat="46.494100978597999" lon="6.476057963445783">
        <ele>378.39999389648437</ele>
        <time>2011-06-18T09:10:31Z</time>
      </trkpt>
      <trkpt lat="46.493724966421723" lon="6.474975943565369">
        <ele>378.39999389648437</ele>
        <time>2011-06-18T09:10:41Z</time>
      </trkpt>
      <trkpt lat="46.493381978943944" lon="6.473962990567088">
        <ele>378.20001220703125</ele>
        <time>2011-06-18T09:10:51Z</time>
      </trkpt>
      <trkpt lat="46.492996998131275" lon="6.47287392988801">
        <ele>378.20001220703125</ele>
        <time>2011-06-18T09:11:02Z</time>
      </trkpt>
      <trkpt lat="46.492753922939301" lon="6.472193989902735">
        <ele>378.39999389648437</ele>
        <time>2011-06-18T09:11:09Z</time>
      </trkpt>
      <trkpt lat="46.492383945733309" lon="6.471150945872068">
        <ele>380.20001220703125</ele>
        <time>2011-06-18T09:11:21Z</time>
      </trkpt>
      <trkpt lat="46.492005921900272" lon="6.470075966790319">
        <ele>382.39999389648437</ele>
        <time>2011-06-18T09:11:36Z</time>
      </trkpt>
      <trkpt lat="46.491760918870568" lon="6.46938999183476">
        <ele>383.60000610351562</ele>
        <time>2011-06-18T09:11:46Z</time>
      </trkpt>
      <trkpt lat="46.491523962467909" lon="6.468808958306909">
        <ele>384.39999389648437</ele>
        <time>2011-06-18T09:11:55Z</time>
      </trkpt>
      <trkpt lat="46.491128923371434" lon="6.46801695227623">
        <ele>385</ele>
        <time>2011-06-18T09:12:08Z</time>
      </trkpt>
      <trkpt lat="46.490660961717367" lon="6.467250930145383">
        <ele>384</ele>
        <time>2011-06-18T09:12:20Z</time>
      </trkpt>
      <trkpt lat="46.490286961197853" lon="6.466703927144408">
        <ele>383.60000610351562</ele>
        <time>2011-06-18T09:12:28Z</time>
      </trkpt>
      <trkpt lat="46.489700982347131" lon="6.465844949707389">
        <ele>383.39999389648437</ele>
        <time>2011-06-18T09:12:40Z</time>
      </trkpt>
      <trkpt lat="46.488972930237651" lon="6.464778939262033">
        <ele>383.20001220703125</ele>
        <time>2011-06-18T09:12:56Z</time>
      </trkpt>
      <trkpt lat="46.488589961081743" lon="6.464190948754549">
        <ele>382.60000610351562</ele>
        <time>2011-06-18T09:13:04Z</time>
      </trkpt>
      <trkpt lat="46.488219983875751" lon="6.463662972673774">
        <ele>382.20001220703125</ele>
        <time>2011-06-18T09:13:11Z</time>
      </trkpt>
      <trkpt lat="46.487815976142883" lon="6.463057966902852">
        <ele>381.79998779296875</ele>
        <time>2011-06-18T09:13:19Z</time>
      </trkpt>
      <trkpt lat="46.487236954271793" lon="6.462203934788704">
        <ele>381.39999389648437</ele>
        <time>2011-06-18T09:13:31Z</time>
      </trkpt>
      <trkpt lat="46.486870916560292" lon="6.461669923737645">
        <ele>381.79998779296875</ele>
        <time>2011-06-18T09:13:39Z</time>
      </trkpt>
      <trkpt lat="46.486506974324584" lon="6.461273962631822">
        <ele>382.60000610351562</ele>
        <time>2011-06-18T09:13:46Z</time>
      </trkpt>
      <trkpt lat="46.485827956348658" lon="6.460639955475926">
        <ele>383</ele>
        <time>2011-06-18T09:14:00Z</time>
      </trkpt>
      <trkpt lat="46.485337950289249" lon="6.460246928036213">
        <ele>383.39999389648437</ele>
        <time>2011-06-18T09:14:09Z</time>
      </trkpt>
      <trkpt lat="46.484780972823501" lon="6.459799921140075">
        <ele>383.60000610351562</ele>
        <time>2011-06-18T09:14:19Z</time>
      </trkpt>
      <trkpt lat="46.484272945672274" lon="6.459391973912716">
        <ele>383.79998779296875</ele>
        <time>2011-06-18T09:14:28Z</time>
      </trkpt>
      <trkpt lat="46.483676992356777" lon="6.458901967853308">
        <ele>384.60000610351562</ele>
        <time>2011-06-18T09:14:39Z</time>
      </trkpt>
      <trkpt lat="46.483115991577506" lon="6.458341972902417">
        <ele>385.79998779296875</ele>
        <time>2011-06-18T09:14:51Z</time>
      </trkpt>
      <trkpt lat="46.482400931417942" lon="6.457862947136164">
        <ele>387.60000610351562</ele>
        <time>2011-06-18T09:15:06Z</time>
      </trkpt>
      <trkpt lat="46.481933975592256" lon="6.457506967708468">
        <ele>390.39999389648438</ele>
        <time>2011-06-18T09:15:18Z</time>
      </trkpt>
      <trkpt lat="46.481437934562564" lon="6.457106983289123">
        <ele>392.39999389648437</ele>
        <time>2011-06-18T09:15:32Z</time>
      </trkpt>
      <trkpt lat="46.480842987075448" lon="6.456274995580316">
        <ele>393.60000610351562</ele>
        <time>2011-06-18T09:15:50Z</time>
      </trkpt>
      <trkpt lat="46.480455994606018" lon="6.455063978210092">
        <ele>395</ele>
        <time>2011-06-18T09:16:08Z</time>
      </trkpt>
      <trkpt lat="46.480229934677482" lon="6.454307930544019">
        <ele>395.60000610351562</ele>
        <time>2011-06-18T09:16:19Z</time>
      </trkpt>
      <trkpt lat="46.48001192137599" lon="6.453612986952066">
        <ele>396.39999389648437</ele>
        <time>2011-06-18T09:16:29Z</time>
      </trkpt>
      <trkpt lat="46.47968796081841" lon="6.452481932938099">
        <ele>397.60000610351562</ele>
        <time>2011-06-18T09:16:45Z</time>
      </trkpt>
      <trkpt lat="46.479443963617086" lon="6.451692944392562">
        <ele>398.20001220703125</ele>
        <time>2011-06-18T09:16:56Z</time>
      </trkpt>
      <trkpt lat="46.479221927002072" lon="6.450940920040011">
        <ele>398.79998779296875</ele>
        <time>2011-06-18T09:17:06Z</time>
      </trkpt>
      <trkpt lat="46.478989999741316" lon="6.450144974514842">
        <ele>399</ele>
        <time>2011-06-18T09:17:16Z</time>
      </trkpt>
      <trkpt lat="46.478724963963032" lon="6.449232939630747">
        <ele>399.60000610351562</ele>
        <time>2011-06-18T09:17:27Z</time>
      </trkpt>
      <trkpt lat="46.478497982025146" lon="6.448448980227113">
        <ele>400.79998779296875</ele>
        <time>2011-06-18T09:17:37Z</time>
      </trkpt>
      <trkpt lat="46.478297989815474" lon="6.447762921452522">
        <ele>401.79998779296875</ele>
        <time>2011-06-18T09:17:46Z</time>
      </trkpt>
      <trkpt lat="46.478057932108641" lon="6.446945937350392">
        <ele>402.60000610351562</ele>
        <time>2011-06-18T09:17:57Z</time>
      </trkpt>
      <trkpt lat="46.477792980149388" lon="6.446086959913373">
        <ele>402.79998779296875</ele>
        <time>2011-06-18T09:18:09Z</time>
      </trkpt>
      <trkpt lat="46.477593993768096" lon="6.44541297107935">
        <ele>402.79998779296875</ele>
        <time>2011-06-18T09:18:19Z</time>
      </trkpt>
      <trkpt lat="46.477352930232882" lon="6.444597998633981">
        <ele>402.79998779296875</ele>
        <time>2011-06-18T09:18:30Z</time>
      </trkpt>
      <trkpt lat="46.477101976051927" lon="6.443779924884439">
        <ele>403.20001220703125</ele>
        <time>2011-06-18T09:18:41Z</time>
      </trkpt>
      <trkpt lat="46.476860996335745" lon="6.44296495243907">
        <ele>403.39999389648437</ele>
        <time>2011-06-18T09:18:52Z</time>
      </trkpt>
      <trkpt lat="46.476633930578828" lon="6.442196918651462">
        <ele>404.39999389648438</ele>
        <time>2011-06-18T09:19:02Z</time>
      </trkpt>
      <trkpt lat="46.476416923105717" lon="6.441460987553001">
        <ele>405</ele>
        <time>2011-06-18T09:19:12Z</time>
      </trkpt>
      <trkpt lat="46.476215925067663" lon="6.440781969577074">
        <ele>405.39999389648437</ele>
        <time>2011-06-18T09:19:21Z</time>
      </trkpt>
      <trkpt lat="46.4759929664433" lon="6.44002097658813">
        <ele>406</ele>
        <time>2011-06-18T09:19:31Z</time>
      </trkpt>
      <trkpt lat="46.47571393288672" lon="6.439050938934088">
        <ele>407</ele>
        <time>2011-06-18T09:19:44Z</time>
      </trkpt>
      <trkpt lat="46.475500948727131" lon="6.438331939280033">
        <ele>408.20001220703125</ele>
        <time>2011-06-18T09:19:54Z</time>
      </trkpt>
      <trkpt lat="46.475150920450687" lon="6.437149923294783">
        <ele>409.79998779296875</ele>
        <time>2011-06-18T09:20:12Z</time>
      </trkpt>
      <trkpt lat="46.474958974868059" lon="6.436501918360591">
        <ele>409.60000610351562</ele>
        <time>2011-06-18T09:20:21Z</time>
      </trkpt>
      <trkpt lat="46.474757976830006" lon="6.435818960890174">
        <ele>408.39999389648437</ele>
        <time>2011-06-18T09:20:29Z</time>
      </trkpt>
      <trkpt lat="46.474562929943204" lon="6.434557987377048">
        <ele>406.60000610351562</ele>
        <time>2011-06-18T09:20:41Z</time>
      </trkpt>
      <trkpt lat="46.474528983235359" lon="6.433094926178455">
        <ele>404.79998779296875</ele>
        <time>2011-06-18T09:20:55Z</time>
      </trkpt>
      <trkpt lat="46.474512973800302" lon="6.432203929871321">
        <ele>405</ele>
        <time>2011-06-18T09:21:04Z</time>
      </trkpt>
      <trkpt lat="46.47448992356658" lon="6.431423993781209">
        <ele>406.39999389648437</ele>
        <time>2011-06-18T09:21:13Z</time>
      </trkpt>
      <trkpt lat="46.474450947716832" lon="6.429810980334878">
        <ele>407.60000610351562</ele>
        <time>2011-06-18T09:21:33Z</time>
      </trkpt>
      <trkpt lat="46.474432926625013" lon="6.428897939622402">
        <ele>407.20001220703125</ele>
        <time>2011-06-18T09:21:44Z</time>
      </trkpt>
      <trkpt lat="46.47440493106842" lon="6.427996968850493">
        <ele>406.60000610351562</ele>
        <time>2011-06-18T09:21:54Z</time>
      </trkpt>
      <trkpt lat="46.474374923855066" lon="6.427160957828164">
        <ele>406.20001220703125</ele>
        <time>2011-06-18T09:22:03Z</time>
      </trkpt>
      <trkpt lat="46.474310969933867" lon="6.425387933850288">
        <ele>406.79998779296875</ele>
        <time>2011-06-18T09:22:23Z</time>
      </trkpt>
      <trkpt lat="46.474279956892133" lon="6.424184963107109">
        <ele>407.20001220703125</ele>
        <time>2011-06-18T09:22:37Z</time>
      </trkpt>
      <trkpt lat="46.474253972992301" lon="6.423169998452067">
        <ele>407.79998779296875</ele>
        <time>2011-06-18T09:22:49Z</time>
      </trkpt>
      <trkpt lat="46.474233940243721" lon="6.422373969107866">
        <ele>408</ele>
        <time>2011-06-18T09:22:59Z</time>
      </trkpt>
      <trkpt lat="46.474203933030367" lon="6.421077959239483">
        <ele>408.39999389648437</ele>
        <time>2011-06-18T09:23:15Z</time>
      </trkpt>
      <trkpt lat="46.474183984100819" lon="6.420230967923999">
        <ele>408.60000610351562</ele>
        <time>2011-06-18T09:23:26Z</time>
      </trkpt>
      <trkpt lat="46.474163951352239" lon="6.419360926374793">
        <ele>409</ele>
        <time>2011-06-18T09:23:42Z</time>
      </trkpt>
      <trkpt lat="46.47414299659431" lon="6.418378986418247">
        <ele>409.79998779296875</ele>
        <time>2011-06-18T09:23:58Z</time>
      </trkpt>
      <trkpt lat="46.47414299659431" lon="6.417594943195581">
        <ele>410.20001220703125</ele>
        <time>2011-06-18T09:24:08Z</time>
      </trkpt>
      <trkpt lat="46.474106954410672" lon="6.416414938867092">
        <ele>410.79998779296875</ele>
        <time>2011-06-18T09:24:23Z</time>
      </trkpt>
      <trkpt lat="46.474077953025699" lon="6.414935952052474">
        <ele>411.39999389648437</ele>
        <time>2011-06-18T09:24:42Z</time>
      </trkpt>
      <trkpt lat="46.474048951640725" lon="6.414162972941995">
        <ele>411.79998779296875</ele>
        <time>2011-06-18T09:24:52Z</time>
      </trkpt>
      <trkpt lat="46.474022967740893" lon="6.413449924439192">
        <ele>412.39999389648437</ele>
        <time>2011-06-18T09:25:02Z</time>
      </trkpt>
      <trkpt lat="46.473983991891146" lon="6.41223999671638">
        <ele>412.79998779296875</ele>
        <time>2011-06-18T09:25:22Z</time>
      </trkpt>
      <trkpt lat="46.473972927778959" lon="6.411418989300728">
        <ele>413.20001220703125</ele>
        <time>2011-06-18T09:25:33Z</time>
      </trkpt>
      <trkpt lat="46.473946943879128" lon="6.410128930583596">
        <ele>412.39999389648437</ele>
        <time>2011-06-18T09:25:49Z</time>
      </trkpt>
      <trkpt lat="46.47393194027245" lon="6.40944798476994">
        <ele>410.60000610351562</ele>
        <time>2011-06-18T09:25:56Z</time>
      </trkpt>
      <trkpt lat="46.473904950544238" lon="6.408162955194712">
        <ele>407</ele>
        <time>2011-06-18T09:26:07Z</time>
      </trkpt>
      <trkpt lat="46.473582917824388" lon="6.407168945297599">
        <ele>403</ele>
        <time>2011-06-18T09:26:15Z</time>
      </trkpt>
      <trkpt lat="46.473279995843768" lon="6.406476935371757">
        <ele>399.39999389648437</ele>
        <time>2011-06-18T09:26:23Z</time>
      </trkpt>
      <trkpt lat="46.472816979512572" lon="6.405468927696347">
        <ele>398.79998779296875</ele>
        <time>2011-06-18T09:26:46Z</time>
      </trkpt>
      <trkpt lat="46.472492935135961" lon="6.404945980757475">
        <ele>398.60000610351562</ele>
        <time>2011-06-18T09:26:52Z</time>
      </trkpt>
      <trkpt lat="46.472144918516278" lon="6.404425967484713">
        <ele>398.20001220703125</ele>
        <time>2011-06-18T09:26:58Z</time>
      </trkpt>
      <trkpt lat="46.471784999594092" lon="6.403937973082066">
        <ele>397.60000610351562</ele>
        <time>2011-06-18T09:27:04Z</time>
      </trkpt>
      <trkpt lat="46.471394989639521" lon="6.403505969792604">
        <ele>396.79998779296875</ele>
        <time>2011-06-18T09:27:10Z</time>
      </trkpt>
      <trkpt lat="46.470721922814846" lon="6.402862994000316">
        <ele>395.79998779296875</ele>
        <time>2011-06-18T09:27:20Z</time>
      </trkpt>
      <trkpt lat="46.470166957005858" lon="6.402331916615367">
        <ele>396</ele>
        <time>2011-06-18T09:27:29Z</time>
      </trkpt>
      <trkpt lat="46.469492968171835" lon="6.401530941948295">
        <ele>397.79998779296875</ele>
        <time>2011-06-18T09:27:44Z</time>
      </trkpt>
      <trkpt lat="46.469169929623604" lon="6.4010039716959">
        <ele>399.39999389648437</ele>
        <time>2011-06-18T09:27:53Z</time>
      </trkpt>
      <trkpt lat="46.469049984589219" lon="6.39990895986557">
        <ele>403</ele>
        <time>2011-06-18T09:28:10Z</time>
      </trkpt>
      <trkpt lat="46.469337986782193" lon="6.399104967713356">
        <ele>405.20001220703125</ele>
        <time>2011-06-18T09:28:27Z</time>
      </trkpt>
      <trkpt lat="46.46963395178318" lon="6.398214977234602">
        <ele>405.60000610351562</ele>
        <time>2011-06-18T09:28:45Z</time>
      </trkpt>
      <trkpt lat="46.469790944829583" lon="6.397242927923799">
        <ele>404</ele>
        <time>2011-06-18T09:29:00Z</time>
      </trkpt>
      <trkpt lat="46.469672927632928" lon="6.396289989352226">
        <ele>402.20001220703125</ele>
        <time>2011-06-18T09:29:11Z</time>
      </trkpt>
      <trkpt lat="46.469471929594874" lon="6.395376948639751">
        <ele>400.39999389648437</ele>
        <time>2011-06-18T09:29:20Z</time>
      </trkpt>
      <trkpt lat="46.469258945435286" lon="6.394292917102575">
        <ele>397.79998779296875</ele>
        <time>2011-06-18T09:29:30Z</time>
      </trkpt>
      <trkpt lat="46.468960968777537" lon="6.392803955823183">
        <ele>393.39999389648438</ele>
        <time>2011-06-18T09:29:43Z</time>
      </trkpt>
      <trkpt lat="46.468794923275709" lon="6.391986971721053">
        <ele>391.79998779296875</ele>
        <time>2011-06-18T09:29:50Z</time>
      </trkpt>
      <trkpt lat="46.468565929681063" lon="6.390856923535466">
        <ele>390.39999389648438</ele>
        <time>2011-06-18T09:30:00Z</time>
      </trkpt>
      <trkpt lat="46.468378929421306" lon="6.389884958043695">
        <ele>389.39999389648437</ele>
        <time>2011-06-18T09:30:09Z</time>
      </trkpt>
      <trkpt lat="46.46821397356689" lon="6.389061938971281">
        <ele>388.20001220703125</ele>
        <time>2011-06-18T09:30:17Z</time>
      </trkpt>
      <trkpt lat="46.467975927516818" lon="6.387890987098217">
        <ele>386.60000610351562</ele>
        <time>2011-06-18T09:30:28Z</time>
      </trkpt>
      <trkpt lat="46.467746933922172" lon="6.386758927255869">
        <ele>385.60000610351562</ele>
        <time>2011-06-18T09:30:39Z</time>
      </trkpt>
      <trkpt lat="46.467553982511163" lon="6.385788973420858">
        <ele>385.39999389648437</ele>
        <time>2011-06-18T09:30:49Z</time>
      </trkpt>
      <trkpt lat="46.467274948954582" lon="6.38435197994113">
        <ele>385.60000610351562</ele>
        <time>2011-06-18T09:31:04Z</time>
      </trkpt>
      <trkpt lat="46.467047967016697" lon="6.383148925378919">
        <ele>385.39999389648437</ele>
        <time>2011-06-18T09:31:17Z</time>
      </trkpt>
      <trkpt lat="46.46686197258532" lon="6.382226999849081">
        <ele>385</ele>
        <time>2011-06-18T09:31:27Z</time>
      </trkpt>
      <trkpt lat="46.466671954840422" lon="6.381264925003052">
        <ele>384.60000610351562</ele>
        <time>2011-06-18T09:31:37Z</time>
      </trkpt>
      <trkpt lat="46.466485960409045" lon="6.380330929532647">
        <ele>384.39999389648437</ele>
        <time>2011-06-18T09:31:47Z</time>
      </trkpt>
      <trkpt lat="46.466384958475828" lon="6.379453931003809">
        <ele>384</ele>
        <time>2011-06-18T09:31:56Z</time>
      </trkpt>
      <trkpt lat="46.466274987906218" lon="6.378478948026896">
        <ele>383.60000610351562</ele>
        <time>2011-06-18T09:32:06Z</time>
      </trkpt>
      <trkpt lat="46.466205921024084" lon="6.377818956971169">
        <ele>383.60000610351562</ele>
        <time>2011-06-18T09:32:13Z</time>
      </trkpt>
      <trkpt lat="46.466130986809731" lon="6.377072967588902">
        <ele>384.39999389648437</ele>
        <time>2011-06-18T09:32:21Z</time>
      </trkpt>
      <trkpt lat="46.466060997918248" lon="6.376349944621325">
        <ele>385</ele>
        <time>2011-06-18T09:32:29Z</time>
      </trkpt>
      <trkpt lat="46.46598095074296" lon="6.375547964125872">
        <ele>385</ele>
        <time>2011-06-18T09:32:38Z</time>
      </trkpt>
      <trkpt lat="46.465864945203066" lon="6.374446917325258">
        <ele>384.39999389648437</ele>
        <time>2011-06-18T09:32:50Z</time>
      </trkpt>
      <trkpt lat="46.46574592217803" lon="6.373319970443845">
        <ele>383.39999389648437</ele>
        <time>2011-06-18T09:33:02Z</time>
      </trkpt>
      <trkpt lat="46.465635951608419" lon="6.372390920296311">
        <ele>383.39999389648437</ele>
        <time>2011-06-18T09:33:12Z</time>
      </trkpt>
      <trkpt lat="46.4654849935323" lon="6.371561950072646">
        <ele>383.20001220703125</ele>
        <time>2011-06-18T09:33:21Z</time>
      </trkpt>
      <trkpt lat="46.465293969959021" lon="6.370563916862011">
        <ele>384.60000610351562</ele>
        <time>2011-06-18T09:33:32Z</time>
      </trkpt>
      <trkpt lat="46.465119961649179" lon="6.369649954140186">
        <ele>385.39999389648437</ele>
        <time>2011-06-18T09:33:43Z</time>
      </trkpt>
      <trkpt lat="46.464986940845847" lon="6.368954926729202">
        <ele>385.39999389648437</ele>
        <time>2011-06-18T09:33:52Z</time>
      </trkpt>
      <trkpt lat="46.464720983058214" lon="6.367564955726266">
        <ele>385</ele>
        <time>2011-06-18T09:34:09Z</time>
      </trkpt>
      <trkpt lat="46.46456197835505" lon="6.366722993552685">
        <ele>385</ele>
        <time>2011-06-18T09:34:19Z</time>
      </trkpt>
      <trkpt lat="46.464405991137028" lon="6.365856975317001">
        <ele>384.39999389648437</ele>
        <time>2011-06-18T09:34:29Z</time>
      </trkpt>
      <trkpt lat="46.464252937585115" lon="6.365014929324389">
        <ele>384.20001220703125</ele>
        <time>2011-06-18T09:34:39Z</time>
      </trkpt>
      <trkpt lat="46.46411195397377" lon="6.364236921072006">
        <ele>384.20001220703125</ele>
        <time>2011-06-18T09:34:48Z</time>
      </trkpt>
      <trkpt lat="46.463994942605495" lon="6.363434940576553">
        <ele>384.20001220703125</ele>
        <time>2011-06-18T09:34:57Z</time>
      </trkpt>
      <trkpt lat="46.463911961764097" lon="6.36247999034822">
        <ele>384.60000610351562</ele>
        <time>2011-06-18T09:35:08Z</time>
      </trkpt>
      <trkpt lat="46.463828980922699" lon="6.361441975459456">
        <ele>385.39999389648437</ele>
        <time>2011-06-18T09:35:20Z</time>
      </trkpt>
      <trkpt lat="46.463758992031217" lon="6.360553996637464">
        <ele>385</ele>
        <time>2011-06-18T09:35:30Z</time>
      </trkpt>
      <trkpt lat="46.463674921542406" lon="6.359479939565063">
        <ele>385</ele>
        <time>2011-06-18T09:35:42Z</time>
      </trkpt>
      <trkpt lat="46.463608955964446" lon="6.358368918299675">
        <ele>384.79998779296875</ele>
        <time>2011-06-18T09:35:54Z</time>
      </trkpt>
      <trkpt lat="46.463530920445919" lon="6.357486974447966">
        <ele>383.79998779296875</ele>
        <time>2011-06-18T09:36:03Z</time>
      </trkpt>
      <trkpt lat="46.463459925726056" lon="6.356676947325468">
        <ele>382.60000610351562</ele>
        <time>2011-06-18T09:36:11Z</time>
      </trkpt>
      <trkpt lat="46.463398989289999" lon="6.355567937716842">
        <ele>381.39999389648437</ele>
        <time>2011-06-18T09:36:22Z</time>
      </trkpt>
      <trkpt lat="46.463335957378149" lon="6.354769980534911">
        <ele>381.39999389648437</ele>
        <time>2011-06-18T09:36:30Z</time>
      </trkpt>
      <trkpt lat="46.463268985971808" lon="6.353964982554317">
        <ele>382.39999389648437</ele>
        <time>2011-06-18T09:36:39Z</time>
      </trkpt>
      <trkpt lat="46.463167984038591" lon="6.352668972685933">
        <ele>384.20001220703125</ele>
        <time>2011-06-18T09:36:57Z</time>
      </trkpt>
      <trkpt lat="46.46312196739018" lon="6.351863974705339">
        <ele>385.20001220703125</ele>
        <time>2011-06-18T09:37:11Z</time>
      </trkpt>
      <trkpt lat="46.46305994130671" lon="6.350920926779509">
        <ele>384.79998779296875</ele>
        <time>2011-06-18T09:37:25Z</time>
      </trkpt>
      <trkpt lat="46.462988946586847" lon="6.350033953785896">
        <ele>384.20001220703125</ele>
        <time>2011-06-18T09:37:36Z</time>
      </trkpt>
      <trkpt lat="46.462909989058971" lon="6.349050924181938">
        <ele>383.79998779296875</ele>
        <time>2011-06-18T09:37:47Z</time>
      </trkpt>
      <trkpt lat="46.462795995175838" lon="6.347559951245785">
        <ele>382.79998779296875</ele>
        <time>2011-06-18T09:38:03Z</time>
      </trkpt>
      <trkpt lat="46.462710918858647" lon="6.346724946051836">
        <ele>382.20001220703125</ele>
        <time>2011-06-18T09:38:11Z</time>
      </trkpt>
      <trkpt lat="46.462623998522758" lon="6.345403958112001">
        <ele>381.60000610351562</ele>
        <time>2011-06-18T09:38:27Z</time>
      </trkpt>
      <trkpt lat="46.462550992146134" lon="6.344610946252942">
        <ele>381.20001220703125</ele>
        <time>2011-06-18T09:38:39Z</time>
      </trkpt>
      <trkpt lat="46.462613940238953" lon="6.34529298171401">
        <ele>380.79998779296875</ele>
        <time>2011-06-18T09:39:17Z</time>
      </trkpt>
      <trkpt lat="46.462653921917081" lon="6.345801930874586">
        <ele>382.20001220703125</ele>
        <time>2011-06-18T09:44:07Z</time>
      </trkpt>
      <trkpt lat="46.462556943297386" lon="6.344679929316044">
        <ele>382.79998779296875</ele>
        <time>2011-06-18T09:44:29Z</time>
      </trkpt>
      <trkpt lat="46.462402967736125" lon="6.343706957995892">
        <ele>382.79998779296875</ele>
        <time>2011-06-18T09:44:43Z</time>
      </trkpt>
      <trkpt lat="46.462065931409597" lon="6.343128941953182">
        <ele>383</ele>
        <time>2011-06-18T09:44:55Z</time>
      </trkpt>
      <trkpt lat="46.461646920070052" lon="6.342639941722155">
        <ele>384</ele>
        <time>2011-06-18T09:45:28Z</time>
      </trkpt>
      <trkpt lat="46.461159931495786" lon="6.342079946771264">
        <ele>385.60000610351562</ele>
        <time>2011-06-18T09:45:42Z</time>
      </trkpt>
      <trkpt lat="46.460536988452077" lon="6.341377962380648">
        <ele>385.79998779296875</ele>
        <time>2011-06-18T09:46:00Z</time>
      </trkpt>
      <trkpt lat="46.460087969899178" lon="6.340883933007717">
        <ele>384.79998779296875</ele>
        <time>2011-06-18T09:46:12Z</time>
      </trkpt>
      <trkpt lat="46.459443988278508" lon="6.340145990252495">
        <ele>383.60000610351562</ele>
        <time>2011-06-18T09:46:27Z</time>
      </trkpt>
      <trkpt lat="46.458960939198732" lon="6.339588928967714">
        <ele>383</ele>
        <time>2011-06-18T09:46:38Z</time>
      </trkpt>
      <trkpt lat="46.458541927859187" lon="6.339098922908306">
        <ele>382.39999389648437</ele>
        <time>2011-06-18T09:46:49Z</time>
      </trkpt>
      <trkpt lat="46.457964917644858" lon="6.338457958772779">
        <ele>382</ele>
        <time>2011-06-18T09:47:04Z</time>
      </trkpt>
      <trkpt lat="46.45729897543788" lon="6.33768699131906">
        <ele>381.20001220703125</ele>
        <time>2011-06-18T09:47:19Z</time>
      </trkpt>
      <trkpt lat="46.456916928291321" lon="6.337257921695709">
        <ele>381.39999389648437</ele>
        <time>2011-06-18T09:47:28Z</time>
      </trkpt>
      <trkpt lat="46.456488948315382" lon="6.336772944778204">
        <ele>382.39999389648437</ele>
        <time>2011-06-18T09:47:39Z</time>
      </trkpt>
      <trkpt lat="46.455809930339456" lon="6.336109936237335">
        <ele>383.79998779296875</ele>
        <time>2011-06-18T09:47:55Z</time>
      </trkpt>
      <trkpt lat="46.455139964818954" lon="6.335645997896791">
        <ele>384.79998779296875</ele>
        <time>2011-06-18T09:48:09Z</time>
      </trkpt>
      <trkpt lat="46.454705949872732" lon="6.335345925763249">
        <ele>385.20001220703125</ele>
        <time>2011-06-18T09:48:18Z</time>
      </trkpt>
      <trkpt lat="46.453869938850403" lon="6.334794983267784">
        <ele>385.60000610351562</ele>
        <time>2011-06-18T09:48:34Z</time>
      </trkpt>
      <trkpt lat="46.453183963894844" lon="6.334340935572982">
        <ele>385.60000610351562</ele>
        <time>2011-06-18T09:48:47Z</time>
      </trkpt>
      <trkpt lat="46.452589938417077" lon="6.333662923425436">
        <ele>387</ele>
        <time>2011-06-18T09:49:01Z</time>
      </trkpt>
      <trkpt lat="46.452228929847479" lon="6.333100916817784">
        <ele>388.20001220703125</ele>
        <time>2011-06-18T09:49:11Z</time>
      </trkpt>
      <trkpt lat="46.451901951804757" lon="6.332592973485589">
        <ele>389</ele>
        <time>2011-06-18T09:49:20Z</time>
      </trkpt>
      <trkpt lat="46.451282948255539" lon="6.331560993567109">
        <ele>388.60000610351562</ele>
        <time>2011-06-18T09:49:38Z</time>
      </trkpt>
      <trkpt lat="46.450906936079264" lon="6.330928998067975">
        <ele>388</ele>
        <time>2011-06-18T09:49:49Z</time>
      </trkpt>
      <trkpt lat="46.450254991650581" lon="6.329846978187561">
        <ele>387.39999389648438</ele>
        <time>2011-06-18T09:50:05Z</time>
      </trkpt>
      <trkpt lat="46.449926923960447" lon="6.329288994893432">
        <ele>387.39999389648438</ele>
        <time>2011-06-18T09:50:13Z</time>
      </trkpt>
      <trkpt lat="46.449618972837925" lon="6.328764958307147">
        <ele>387.60000610351562</ele>
        <time>2011-06-18T09:50:21Z</time>
      </trkpt>
      <trkpt lat="46.449272967875004" lon="6.328188953921199">
        <ele>387.79998779296875</ele>
        <time>2011-06-18T09:50:30Z</time>
      </trkpt>
      <trkpt lat="46.448790924623609" lon="6.327362917363644">
        <ele>388.39999389648437</ele>
        <time>2011-06-18T09:50:43Z</time>
      </trkpt>
      <trkpt lat="46.448467969894409" lon="6.326805939897895">
        <ele>388.79998779296875</ele>
        <time>2011-06-18T09:50:52Z</time>
      </trkpt>
      <trkpt lat="46.448087934404612" lon="6.326164975762367">
        <ele>388.60000610351562</ele>
        <time>2011-06-18T09:51:02Z</time>
      </trkpt>
      <trkpt lat="46.447785934433341" lon="6.325654936954379">
        <ele>387.60000610351562</ele>
        <time>2011-06-18T09:51:09Z</time>
      </trkpt>
      <trkpt lat="46.447212947532535" lon="6.324676936492324">
        <ele>385.79998779296875</ele>
        <time>2011-06-18T09:51:21Z</time>
      </trkpt>
      <trkpt lat="46.446591932326555" lon="6.32361494936049">
        <ele>384.39999389648437</ele>
        <time>2011-06-18T09:51:35Z</time>
      </trkpt>
      <trkpt lat="46.446225978434086" lon="6.32298999466002">
        <ele>384.60000610351562</ele>
        <time>2011-06-18T09:51:44Z</time>
      </trkpt>
      <trkpt lat="46.445725997909904" lon="6.322153983637691">
        <ele>385.39999389648437</ele>
        <time>2011-06-18T09:51:57Z</time>
      </trkpt>
      <trkpt lat="46.445382926613092" lon="6.321557946503162">
        <ele>385</ele>
        <time>2011-06-18T09:52:06Z</time>
      </trkpt>
      <trkpt lat="46.444979924708605" lon="6.320866942405701">
        <ele>384.60000610351562</ele>
        <time>2011-06-18T09:52:16Z</time>
      </trkpt>
      <trkpt lat="46.444616988301277" lon="6.320247938856483">
        <ele>384.60000610351562</ele>
        <time>2011-06-18T09:52:25Z</time>
      </trkpt>
      <trkpt lat="46.444196971133351" lon="6.319556934759021">
        <ele>385.20001220703125</ele>
        <time>2011-06-18T09:52:35Z</time>
      </trkpt>
      <trkpt lat="46.443879967555404" lon="6.318998951464891">
        <ele>385.39999389648437</ele>
        <time>2011-06-18T09:52:43Z</time>
      </trkpt>
      <trkpt lat="46.443475959822536" lon="6.318380953744054">
        <ele>385.79998779296875</ele>
        <time>2011-06-18T09:52:53Z</time>
      </trkpt>
      <trkpt lat="46.443034987896681" lon="6.3177689909935">
        <ele>386</ele>
        <time>2011-06-18T09:53:06Z</time>
      </trkpt>
      <trkpt lat="46.442422941327095" lon="6.31697597913444">
        <ele>387.39999389648438</ele>
        <time>2011-06-18T09:53:24Z</time>
      </trkpt>
      <trkpt lat="46.441876944154501" lon="6.316262930631638">
        <ele>389.39999389648437</ele>
        <time>2011-06-18T09:53:39Z</time>
      </trkpt>
      <trkpt lat="46.441329941153526" lon="6.315575949847698">
        <ele>390.39999389648438</ele>
        <time>2011-06-18T09:53:55Z</time>
      </trkpt>
      <trkpt lat="46.440870948135853" lon="6.314975973218679">
        <ele>391.79998779296875</ele>
        <time>2011-06-18T09:54:10Z</time>
      </trkpt>
      <trkpt lat="46.440356969833374" lon="6.314302990213037">
        <ele>393.20001220703125</ele>
        <time>2011-06-18T09:54:26Z</time>
      </trkpt>
      <trkpt lat="46.439815917983651" lon="6.313604945316911">
        <ele>395</ele>
        <time>2011-06-18T09:54:43Z</time>
      </trkpt>
      <trkpt lat="46.439098929986358" lon="6.312684947624803">
        <ele>396.60000610351562</ele>
        <time>2011-06-18T09:55:05Z</time>
      </trkpt>
      <trkpt lat="46.438637925311923" lon="6.312066949903965">
        <ele>397.39999389648437</ele>
        <time>2011-06-18T09:55:18Z</time>
      </trkpt>
      <trkpt lat="46.438303990289569" lon="6.311627989634872">
        <ele>397.79998779296875</ele>
        <time>2011-06-18T09:55:27Z</time>
      </trkpt>
      <trkpt lat="46.43785497173667" lon="6.311040921136737">
        <ele>398.60000610351562</ele>
        <time>2011-06-18T09:55:39Z</time>
      </trkpt>
      <trkpt lat="46.437446940690279" lon="6.310526942834258">
        <ele>399</ele>
        <time>2011-06-18T09:55:50Z</time>
      </trkpt>
      <trkpt lat="46.437067994847894" lon="6.310048922896385">
        <ele>399.60000610351562</ele>
        <time>2011-06-18T09:56:00Z</time>
      </trkpt>
      <trkpt lat="46.43643893301487" lon="6.309204949066043">
        <ele>400.39999389648437</ele>
        <time>2011-06-18T09:56:17Z</time>
      </trkpt>
      <trkpt lat="46.435846919193864" lon="6.308450996875763">
        <ele>400.60000610351562</ele>
        <time>2011-06-18T09:56:32Z</time>
      </trkpt>
      <trkpt lat="46.435167985036969" lon="6.307593947276473">
        <ele>400</ele>
        <time>2011-06-18T09:56:49Z</time>
      </trkpt>
      <trkpt lat="46.434262990951538" lon="6.306416960433126">
        <ele>399.60000610351562</ele>
        <time>2011-06-18T09:57:11Z</time>
      </trkpt>
      <trkpt lat="46.433805925771594" lon="6.305817989632487">
        <ele>399.79998779296875</ele>
        <time>2011-06-18T09:57:22Z</time>
      </trkpt>
      <trkpt lat="46.433053985238075" lon="6.304846946150065">
        <ele>400</ele>
        <time>2011-06-18T09:57:40Z</time>
      </trkpt>
      <trkpt lat="46.432640925049782" lon="6.304298937320709">
        <ele>399.79998779296875</ele>
        <time>2011-06-18T09:57:49Z</time>
      </trkpt>
      <trkpt lat="46.431938940659165" lon="6.303403917700052">
        <ele>399.60000610351562</ele>
        <time>2011-06-18T09:58:04Z</time>
      </trkpt>
      <trkpt lat="46.431557983160019" lon="6.302911983802915">
        <ele>400</ele>
        <time>2011-06-18T09:58:13Z</time>
      </trkpt>
      <trkpt lat="46.431155987083912" lon="6.302385935559869">
        <ele>400.60000610351562</ele>
        <time>2011-06-18T09:58:23Z</time>
      </trkpt>
      <trkpt lat="46.429811948910356" lon="6.30064794793725">
        <ele>402.79998779296875</ele>
        <time>2011-06-18T09:58:57Z</time>
      </trkpt>
      <trkpt lat="46.429378939792514" lon="6.300099939107895">
        <ele>403.39999389648437</ele>
        <time>2011-06-18T09:59:07Z</time>
      </trkpt>
      <trkpt lat="46.428892957046628" lon="6.299474984407425">
        <ele>403.60000610351562</ele>
        <time>2011-06-18T09:59:18Z</time>
      </trkpt>
      <trkpt lat="46.42846992239356" lon="6.298934938386083">
        <ele>403.60000610351562</ele>
        <time>2011-06-18T09:59:27Z</time>
      </trkpt>
      <trkpt lat="46.428000954911113" lon="6.298214932903647">
        <ele>403</ele>
        <time>2011-06-18T09:59:37Z</time>
      </trkpt>
      <trkpt lat="46.427645981311798" lon="6.297484952956438">
        <ele>401.39999389648437</ele>
        <time>2011-06-18T09:59:46Z</time>
      </trkpt>
      <trkpt lat="46.427255971357226" lon="6.296578953042626">
        <ele>398.60000610351562</ele>
        <time>2011-06-18T09:59:56Z</time>
      </trkpt>
      <trkpt lat="46.426961934193969" lon="6.295857941731811">
        <ele>396.39999389648437</ele>
        <time>2011-06-18T10:00:03Z</time>
      </trkpt>
      <trkpt lat="46.426598997786641" lon="6.295009944587946">
        <ele>394</ele>
        <time>2011-06-18T10:00:11Z</time>
      </trkpt>
      <trkpt lat="46.426345948129892" lon="6.29441499710083">
        <ele>394.20001220703125</ele>
        <time>2011-06-18T10:00:18Z</time>
      </trkpt>
      <trkpt lat="46.425887960940599" lon="6.293358961120248">
        <ele>395.20001220703125</ele>
        <time>2011-06-18T10:00:34Z</time>
      </trkpt>
      <trkpt lat="46.42545897513628" lon="6.292400993406773">
        <ele>395.79998779296875</ele>
        <time>2011-06-18T10:00:50Z</time>
      </trkpt>
      <trkpt lat="46.425176924094558" lon="6.291867988184094">
        <ele>395.79998779296875</ele>
        <time>2011-06-18T10:00:59Z</time>
      </trkpt>
      <trkpt lat="46.424827985465527" lon="6.291290977969766">
        <ele>396.20001220703125</ele>
        <time>2011-06-18T10:02:22Z</time>
      </trkpt>
      <trkpt lat="46.424220968037844" lon="6.290347930043936">
        <ele>396.60000610351562</ele>
        <time>2011-06-18T10:02:38Z</time>
      </trkpt>
      <trkpt lat="46.423808997496963" lon="6.289706965908408">
        <ele>396.79998779296875</ele>
        <time>2011-06-18T10:02:48Z</time>
      </trkpt>
      <trkpt lat="46.42335494980216" lon="6.288982937112451">
        <ele>396.39999389648437</ele>
        <time>2011-06-18T10:02:59Z</time>
      </trkpt>
      <trkpt lat="46.422978937625885" lon="6.288405926898122">
        <ele>396.20001220703125</ele>
        <time>2011-06-18T10:03:08Z</time>
      </trkpt>
      <trkpt lat="46.422564955428243" lon="6.28775498829782">
        <ele>396</ele>
        <time>2011-06-18T10:03:18Z</time>
      </trkpt>
      <trkpt lat="46.422187937423587" lon="6.28719599917531">
        <ele>396.20001220703125</ele>
        <time>2011-06-18T10:03:27Z</time>
      </trkpt>
      <trkpt lat="46.421735985204577" lon="6.286660982295871">
        <ele>397</ele>
        <time>2011-06-18T10:03:37Z</time>
      </trkpt>
      <trkpt lat="46.421389980241656" lon="6.286230990663171">
        <ele>397.79998779296875</ele>
        <time>2011-06-18T10:03:45Z</time>
      </trkpt>
      <trkpt lat="46.420660922303796" lon="6.285377964377403">
        <ele>398.79998779296875</ele>
        <time>2011-06-18T10:04:02Z</time>
      </trkpt>
      <trkpt lat="46.420244928449392" lon="6.284906985238195">
        <ele>399.39999389648437</ele>
        <time>2011-06-18T10:04:12Z</time>
      </trkpt>
      <trkpt lat="46.419952986761928" lon="6.284389989450574">
        <ele>400.20001220703125</ele>
        <time>2011-06-18T10:04:20Z</time>
      </trkpt>
      <trkpt lat="46.419494999572635" lon="6.284010959789157">
        <ele>401</ele>
        <time>2011-06-18T10:04:29Z</time>
      </trkpt>
      <trkpt lat="46.418802989646792" lon="6.283210990950465">
        <ele>402</ele>
        <time>2011-06-18T10:04:45Z</time>
      </trkpt>
      <trkpt lat="46.41839093528688" lon="6.282736994326115">
        <ele>403</ele>
        <time>2011-06-18T10:04:55Z</time>
      </trkpt>
      <trkpt lat="46.417949963361025" lon="6.282221926376224">
        <ele>403.79998779296875</ele>
        <time>2011-06-18T10:05:06Z</time>
      </trkpt>
      <trkpt lat="46.417579986155033" lon="6.281801993027329">
        <ele>404.39999389648438</ele>
        <time>2011-06-18T10:05:15Z</time>
      </trkpt>
      <trkpt lat="46.417148988693953" lon="6.281280973926187">
        <ele>405.20001220703125</ele>
        <time>2011-06-18T10:05:26Z</time>
      </trkpt>
      <trkpt lat="46.416745986789465" lon="6.280802953988314">
        <ele>405.79998779296875</ele>
        <time>2011-06-18T10:05:36Z</time>
      </trkpt>
      <trkpt lat="46.416382966563106" lon="6.280368939042091">
        <ele>406.39999389648437</ele>
        <time>2011-06-18T10:05:45Z</time>
      </trkpt>
      <trkpt lat="46.416021957993507" lon="6.279946994036436">
        <ele>406.79998779296875</ele>
        <time>2011-06-18T10:05:54Z</time>
      </trkpt>
      <trkpt lat="46.415651980787516" lon="6.279509961605072">
        <ele>407.20001220703125</ele>
        <time>2011-06-18T10:06:04Z</time>
      </trkpt>
      <trkpt lat="46.414907919242978" lon="6.278670933097601">
        <ele>408.39999389648437</ele>
        <time>2011-06-18T10:06:23Z</time>
      </trkpt>
      <trkpt lat="46.41418095678091" lon="6.277835927903652">
        <ele>409.39999389648437</ele>
        <time>2011-06-18T10:06:41Z</time>
      </trkpt>
      <trkpt lat="46.413751970976591" lon="6.277333935722709">
        <ele>409.60000610351562</ele>
        <time>2011-06-18T10:06:54Z</time>
      </trkpt>
      <trkpt lat="46.413374952971935" lon="6.276888940483332">
        <ele>409.79998779296875</ele>
        <time>2011-06-18T10:09:56Z</time>
      </trkpt>
      <trkpt lat="46.412699958309531" lon="6.276116967201233">
        <ele>410.79998779296875</ele>
        <time>2011-06-18T10:10:16Z</time>
      </trkpt>
      <trkpt lat="46.412150943651795" lon="6.275488995015621">
        <ele>411.39999389648437</ele>
        <time>2011-06-18T10:10:29Z</time>
      </trkpt>
      <trkpt lat="46.411691950634122" lon="6.27497292123735">
        <ele>411.79998779296875</ele>
        <time>2011-06-18T10:10:39Z</time>
      </trkpt>
      <trkpt lat="46.410949984565377" lon="6.274108998477459">
        <ele>413</ele>
        <time>2011-06-18T10:10:55Z</time>
      </trkpt>
      <trkpt lat="46.410573972389102" lon="6.273673977702856">
        <ele>413.39999389648437</ele>
        <time>2011-06-18T10:11:03Z</time>
      </trkpt>
      <trkpt lat="46.410038955509663" lon="6.273054974153638">
        <ele>414</ele>
        <time>2011-06-18T10:11:14Z</time>
      </trkpt>
      <trkpt lat="46.409498993307352" lon="6.272453991696239">
        <ele>414.39999389648437</ele>
        <time>2011-06-18T10:11:25Z</time>
      </trkpt>
      <trkpt lat="46.408965988084674" lon="6.271829959005117">
        <ele>414.60000610351562</ele>
        <time>2011-06-18T10:11:36Z</time>
      </trkpt>
      <trkpt lat="46.408482939004898" lon="6.271262923255563">
        <ele>414.79998779296875</ele>
        <time>2011-06-18T10:11:46Z</time>
      </trkpt>
      <trkpt lat="46.408080942928791" lon="6.270793955773115">
        <ele>414.60000610351562</ele>
        <time>2011-06-18T10:11:54Z</time>
      </trkpt>
      <trkpt lat="46.407624967396259" lon="6.270261956378818">
        <ele>412.79998779296875</ele>
        <time>2011-06-18T10:12:02Z</time>
      </trkpt>
      <trkpt lat="46.407222971320152" lon="6.26979298889637">
        <ele>410.60000610351562</ele>
        <time>2011-06-18T10:12:08Z</time>
      </trkpt>
      <trkpt lat="46.40670295804739" lon="6.269203992560506">
        <ele>407.79998779296875</ele>
        <time>2011-06-18T10:12:15Z</time>
      </trkpt>
      <trkpt lat="46.406275983899832" lon="6.26886997371912">
        <ele>406.60000610351562</ele>
        <time>2011-06-18T10:12:20Z</time>
      </trkpt>
      <trkpt lat="46.405836939811707" lon="6.268678950145841">
        <ele>406.79998779296875</ele>
        <time>2011-06-18T10:12:25Z</time>
      </trkpt>
      <trkpt lat="46.405105954036117" lon="6.268381979316473">
        <ele>409.79998779296875</ele>
        <time>2011-06-18T10:12:37Z</time>
      </trkpt>
      <trkpt lat="46.404423918575048" lon="6.268080985173583">
        <ele>413</ele>
        <time>2011-06-18T10:12:53Z</time>
      </trkpt>
      <trkpt lat="46.403851937502623" lon="6.267682928591967">
        <ele>414.60000610351562</ele>
        <time>2011-06-18T10:13:08Z</time>
      </trkpt>
      <trkpt lat="46.403123969212174" lon="6.266959989443421">
        <ele>414.39999389648437</ele>
        <time>2011-06-18T10:13:25Z</time>
      </trkpt>
      <trkpt lat="46.402696995064616" lon="6.266435952857137">
        <ele>414.20001220703125</ele>
        <time>2011-06-18T10:13:35Z</time>
      </trkpt>
      <trkpt lat="46.40189291909337" lon="6.265434985980392">
        <ele>413.79998779296875</ele>
        <time>2011-06-18T10:13:53Z</time>
      </trkpt>
      <trkpt lat="46.401455970481038" lon="6.264882953837514">
        <ele>414</ele>
        <time>2011-06-18T10:14:02Z</time>
      </trkpt>
      <trkpt lat="46.400743927806616" lon="6.263995980843902">
        <ele>413.39999389648437</ele>
        <time>2011-06-18T10:14:16Z</time>
      </trkpt>
      <trkpt lat="46.400308990851045" lon="6.263440931215882">
        <ele>413</ele>
        <time>2011-06-18T10:14:25Z</time>
      </trkpt>
      <trkpt lat="46.399842957034707" lon="6.262840954586864">
        <ele>412.60000610351562</ele>
        <time>2011-06-18T10:14:35Z</time>
      </trkpt>
      <trkpt lat="46.399396955966949" lon="6.262259921059012">
        <ele>411.60000610351562</ele>
        <time>2011-06-18T10:14:45Z</time>
      </trkpt>
      <trkpt lat="46.39896797016263" lon="6.261727921664715">
        <ele>411</ele>
        <time>2011-06-18T10:14:54Z</time>
      </trkpt>
      <trkpt lat="46.39849397353828" lon="6.261131968349218">
        <ele>409.79998779296875</ele>
        <time>2011-06-18T10:15:04Z</time>
      </trkpt>
      <trkpt lat="46.397772962227464" lon="6.260231919586659">
        <ele>408.39999389648437</ele>
        <time>2011-06-18T10:15:19Z</time>
      </trkpt>
      <trkpt lat="46.397148929536343" lon="6.259451983496547">
        <ele>404.79998779296875</ele>
        <time>2011-06-18T10:15:31Z</time>
      </trkpt>
      <trkpt lat="46.396781969815493" lon="6.258984943851829">
        <ele>401.79998779296875</ele>
        <time>2011-06-18T10:15:37Z</time>
      </trkpt>
      <trkpt lat="46.396353989839554" lon="6.258440958335996">
        <ele>397.79998779296875</ele>
        <time>2011-06-18T10:15:43Z</time>
      </trkpt>
      <trkpt lat="46.39563993550837" lon="6.257533952593803">
        <ele>394.60000610351562</ele>
        <time>2011-06-18T10:15:53Z</time>
      </trkpt>
      <trkpt lat="46.395219918340445" lon="6.257006982341409">
        <ele>393.60000610351562</ele>
        <time>2011-06-18T10:16:00Z</time>
      </trkpt>
      <trkpt lat="46.394862933084369" lon="6.256559975445271">
        <ele>393.20001220703125</ele>
        <time>2011-06-18T10:16:07Z</time>
      </trkpt>
      <trkpt lat="46.394525980576873" lon="6.256127972155809">
        <ele>392.79998779296875</ele>
        <time>2011-06-18T10:16:32Z</time>
      </trkpt>
      <trkpt lat="46.394058940932155" lon="6.255546938627958">
        <ele>393</ele>
        <time>2011-06-18T10:16:47Z</time>
      </trkpt>
      <trkpt lat="46.393492994830012" lon="6.254830956459045">
        <ele>392.60000610351562</ele>
        <time>2011-06-18T10:17:01Z</time>
      </trkpt>
      <trkpt lat="46.393097955733538" lon="6.254332987591624">
        <ele>392.20001220703125</ele>
        <time>2011-06-18T10:17:10Z</time>
      </trkpt>
      <trkpt lat="46.392741976305842" lon="6.253882963210344">
        <ele>391.39999389648437</ele>
        <time>2011-06-18T10:17:18Z</time>
      </trkpt>
      <trkpt lat="46.392083996906877" lon="6.253061955794692">
        <ele>391.79998779296875</ele>
        <time>2011-06-18T10:17:34Z</time>
      </trkpt>
      <trkpt lat="46.391531964763999" lon="6.252372963353992">
        <ele>392</ele>
        <time>2011-06-18T10:17:47Z</time>
      </trkpt>
      <trkpt lat="46.391179924830794" lon="6.251921933144331">
        <ele>392</ele>
        <time>2011-06-18T10:17:55Z</time>
      </trkpt>
      <trkpt lat="46.390486992895603" lon="6.251042922958732">
        <ele>391</ele>
        <time>2011-06-18T10:18:09Z</time>
      </trkpt>
      <trkpt lat="46.389887938275933" lon="6.250308919698">
        <ele>390.20001220703125</ele>
        <time>2011-06-18T10:18:20Z</time>
      </trkpt>
      <trkpt lat="46.389294918626547" lon="6.249567959457636">
        <ele>389.39999389648437</ele>
        <time>2011-06-18T10:18:31Z</time>
      </trkpt>
      <trkpt lat="46.388863921165466" lon="6.249008970335126">
        <ele>389</ele>
        <time>2011-06-18T10:18:39Z</time>
      </trkpt>
      <trkpt lat="46.388413980603218" lon="6.248457944020629">
        <ele>388.20001220703125</ele>
        <time>2011-06-18T10:18:47Z</time>
      </trkpt>
      <trkpt lat="46.388016929849982" lon="6.247956957668066">
        <ele>387.39999389648438</ele>
        <time>2011-06-18T10:18:54Z</time>
      </trkpt>
      <trkpt lat="46.387502951547503" lon="6.24732194468379">
        <ele>386.79998779296875</ele>
        <time>2011-06-18T10:19:03Z</time>
      </trkpt>
      <trkpt lat="46.387107996270061" lon="6.246892958879471">
        <ele>386</ele>
        <time>2011-06-18T10:19:10Z</time>
      </trkpt>
      <trkpt lat="46.386274918913841" lon="6.246496997773647">
        <ele>384.20001220703125</ele>
        <time>2011-06-18T10:19:22Z</time>
      </trkpt>
      <trkpt lat="46.385772926732898" lon="6.246282923966646">
        <ele>384</ele>
        <time>2011-06-18T10:19:29Z</time>
      </trkpt>
      <trkpt lat="46.385086951777339" lon="6.246009925380349">
        <ele>384</ele>
        <time>2011-06-18T10:19:40Z</time>
      </trkpt>
      <trkpt lat="46.384646985679865" lon="6.245777998119593">
        <ele>384</ele>
        <time>2011-06-18T10:19:47Z</time>
      </trkpt>
      <trkpt lat="46.384199978783727" lon="6.245203921571374">
        <ele>384.20001220703125</ele>
        <time>2011-06-18T10:19:57Z</time>
      </trkpt>
      <trkpt lat="46.383909964933991" lon="6.244675945490599">
        <ele>384</ele>
        <time>2011-06-18T10:20:07Z</time>
      </trkpt>
      <trkpt lat="46.383676948025823" lon="6.243881927803159">
        <ele>384.39999389648437</ele>
        <time>2011-06-18T10:20:23Z</time>
      </trkpt>
      <trkpt lat="46.383020980283618" lon="6.243629967793822">
        <ele>384.20001220703125</ele>
        <time>2011-06-18T10:20:36Z</time>
      </trkpt>
      <trkpt lat="46.382594928145409" lon="6.243380941450596">
        <ele>383</ele>
        <time>2011-06-18T10:20:54Z</time>
      </trkpt>
      <trkpt lat="46.382141970098019" lon="6.243232917040587">
        <ele>385.39999389648437</ele>
        <time>2011-06-18T10:36:00Z</time>
      </trkpt>
      <trkpt lat="46.381481979042292" lon="6.24265993013978">
        <ele>385.60000610351562</ele>
        <time>2011-06-18T10:36:26Z</time>
      </trkpt>
      <trkpt lat="46.381088951602578" lon="6.242306968197227">
        <ele>386</ele>
        <time>2011-06-18T10:36:36Z</time>
      </trkpt>
      <trkpt lat="46.380537925288081" lon="6.24175694771111">
        <ele>385.79998779296875</ele>
        <time>2011-06-18T10:36:49Z</time>
      </trkpt>
      <trkpt lat="46.380118997767568" lon="6.24082999303937">
        <ele>386.79998779296875</ele>
        <time>2011-06-18T10:37:04Z</time>
      </trkpt>
      <trkpt lat="46.379744997248054" lon="6.240240996703506">
        <ele>387.20001220703125</ele>
        <time>2011-06-18T10:37:15Z</time>
      </trkpt>
      <trkpt lat="46.379160946235061" lon="6.239448990672827">
        <ele>387.79998779296875</ele>
        <time>2011-06-18T10:37:30Z</time>
      </trkpt>
      <trkpt lat="46.378532974049449" lon="6.238593952730298">
        <ele>389.39999389648437</ele>
        <time>2011-06-18T10:37:47Z</time>
      </trkpt>
      <trkpt lat="46.377858985215425" lon="6.237429957836866">
        <ele>391.20001220703125</ele>
        <time>2011-06-18T10:38:09Z</time>
      </trkpt>
      <trkpt lat="46.37733394280076" lon="6.236367970705032">
        <ele>392.60000610351562</ele>
        <time>2011-06-18T10:38:25Z</time>
      </trkpt>
      <trkpt lat="46.377041917294264" lon="6.235763970762491">
        <ele>393.39999389648438</ele>
        <time>2011-06-18T10:38:34Z</time>
      </trkpt>
      <trkpt lat="46.37662491761148" lon="6.235100962221623">
        <ele>394.60000610351562</ele>
        <time>2011-06-18T10:38:45Z</time>
      </trkpt>
      <trkpt lat="46.376199955120683" lon="6.234717993065715">
        <ele>395</ele>
        <time>2011-06-18T10:38:54Z</time>
      </trkpt>
      <trkpt lat="46.375676924362779" lon="6.234325971454382">
        <ele>395.39999389648437</ele>
        <time>2011-06-18T10:39:04Z</time>
      </trkpt>
      <trkpt lat="46.375156994909048" lon="6.233926992863417">
        <ele>396</ele>
        <time>2011-06-18T10:39:14Z</time>
      </trkpt>
      <trkpt lat="46.374372951686382" lon="6.233314946293831">
        <ele>396.60000610351562</ele>
        <time>2011-06-18T10:39:29Z</time>
      </trkpt>
      <trkpt lat="46.373670967295766" lon="6.232727961614728">
        <ele>397</ele>
        <time>2011-06-18T10:39:43Z</time>
      </trkpt>
      <trkpt lat="46.373302917927504" lon="6.232327977195382">
        <ele>398.79998779296875</ele>
        <time>2011-06-18T10:39:52Z</time>
      </trkpt>
      <trkpt lat="46.372719956561923" lon="6.231713918969035">
        <ele>402</ele>
        <time>2011-06-18T10:40:09Z</time>
      </trkpt>
      <trkpt lat="46.372161973267794" lon="6.231072954833508">
        <ele>404.79998779296875</ele>
        <time>2011-06-18T10:40:27Z</time>
      </trkpt>
      <trkpt lat="46.371634919196367" lon="6.230469960719347">
        <ele>405.79998779296875</ele>
        <time>2011-06-18T10:40:44Z</time>
      </trkpt>
      <trkpt lat="46.37105799280107" lon="6.229705950245261">
        <ele>406</ele>
        <time>2011-06-18T10:41:02Z</time>
      </trkpt>
      <trkpt lat="46.370657924562693" lon="6.229032967239618">
        <ele>405</ele>
        <time>2011-06-18T10:41:14Z</time>
      </trkpt>
      <trkpt lat="46.370330946519971" lon="6.228398960083723">
        <ele>404.20001220703125</ele>
        <time>2011-06-18T10:41:23Z</time>
      </trkpt>
      <trkpt lat="46.369976978749037" lon="6.227701921015978">
        <ele>402.79998779296875</ele>
        <time>2011-06-18T10:41:33Z</time>
      </trkpt>
      <trkpt lat="46.36946995742619" lon="6.226655943319202">
        <ele>401.39999389648437</ele>
        <time>2011-06-18T10:41:49Z</time>
      </trkpt>
      <trkpt lat="46.36910199187696" lon="6.225934932008386">
        <ele>400.60000610351562</ele>
        <time>2011-06-18T10:41:59Z</time>
      </trkpt>
      <trkpt lat="46.368673928081989" lon="6.225118953734636">
        <ele>399.20001220703125</ele>
        <time>2011-06-18T10:42:10Z</time>
      </trkpt>
      <trkpt lat="46.36817897669971" lon="6.224349997937679">
        <ele>398.60000610351562</ele>
        <time>2011-06-18T10:42:21Z</time>
      </trkpt>
      <trkpt lat="46.367775974795222" lon="6.223783968016505">
        <ele>398.20001220703125</ele>
        <time>2011-06-18T10:42:30Z</time>
      </trkpt>
      <trkpt lat="46.367368949577212" lon="6.223272923380137">
        <ele>398.20001220703125</ele>
        <time>2011-06-18T10:42:39Z</time>
      </trkpt>
      <trkpt lat="46.366996960714459" lon="6.222889954224229">
        <ele>398</ele>
        <time>2011-06-18T10:42:47Z</time>
      </trkpt>
      <trkpt lat="46.366575937718153" lon="6.222501955926418">
        <ele>398</ele>
        <time>2011-06-18T10:42:56Z</time>
      </trkpt>
      <trkpt lat="46.36588292196393" lon="6.221969956532121">
        <ele>397.79998779296875</ele>
        <time>2011-06-18T10:43:10Z</time>
      </trkpt>
      <trkpt lat="46.365470951423049" lon="6.221673991531134">
        <ele>397.60000610351562</ele>
        <time>2011-06-18T10:43:18Z</time>
      </trkpt>
      <trkpt lat="46.364941969513893" lon="6.221295967698097">
        <ele>397</ele>
        <time>2011-06-18T10:43:28Z</time>
      </trkpt>
      <trkpt lat="46.364450957626104" lon="6.220948956906796">
        <ele>396.20001220703125</ele>
        <time>2011-06-18T10:43:37Z</time>
      </trkpt>
      <trkpt lat="46.363939996808767" lon="6.220588954165578">
        <ele>395.60000610351562</ele>
        <time>2011-06-18T10:43:46Z</time>
      </trkpt>
      <trkpt lat="46.363480919972062" lon="6.220262981951237">
        <ele>395</ele>
        <time>2011-06-18T10:43:54Z</time>
      </trkpt>
      <trkpt lat="46.362899970263243" lon="6.219842964783311">
        <ele>394.39999389648437</ele>
        <time>2011-06-18T10:44:04Z</time>
      </trkpt>
      <trkpt lat="46.362271998077631" lon="6.219356982037425">
        <ele>394</ele>
        <time>2011-06-18T10:44:15Z</time>
      </trkpt>
      <trkpt lat="46.361680990085006" lon="6.218859935179353">
        <ele>392.79998779296875</ele>
        <time>2011-06-18T10:44:26Z</time>
      </trkpt>
      <trkpt lat="46.361085958778858" lon="6.218320978805423">
        <ele>392.20001220703125</ele>
        <time>2011-06-18T10:44:37Z</time>
      </trkpt>
      <trkpt lat="46.360541973263025" lon="6.217777999117971">
        <ele>391.39999389648437</ele>
        <time>2011-06-18T10:44:47Z</time>
      </trkpt>
      <trkpt lat="46.360072921961546" lon="6.217272989451885">
        <ele>391</ele>
        <time>2011-06-18T10:44:56Z</time>
      </trkpt>
      <trkpt lat="46.359386947005987" lon="6.216518953442574">
        <ele>391</ele>
        <time>2011-06-18T10:45:11Z</time>
      </trkpt>
      <trkpt lat="46.358861988410354" lon="6.215968932956457">
        <ele>391.60000610351562</ele>
        <time>2011-06-18T10:45:24Z</time>
      </trkpt>
      <trkpt lat="46.358327977359295" lon="6.215374991297722">
        <ele>392</ele>
        <time>2011-06-18T10:45:36Z</time>
      </trkpt>
      <trkpt lat="46.357612917199731" lon="6.21459991671145">
        <ele>393</ele>
        <time>2011-06-18T10:45:53Z</time>
      </trkpt>
      <trkpt lat="46.356861982494593" lon="6.213895920664072">
        <ele>392.60000610351562</ele>
        <time>2011-06-18T10:46:09Z</time>
      </trkpt>
      <trkpt lat="46.356400977820158" lon="6.213465929031372">
        <ele>392.20001220703125</ele>
        <time>2011-06-18T10:46:18Z</time>
      </trkpt>
      <trkpt lat="46.355917928740382" lon="6.213012970983982">
        <ele>392.20001220703125</ele>
        <time>2011-06-18T10:46:27Z</time>
      </trkpt>
      <trkpt lat="46.355436975136399" lon="6.212562946602702">
        <ele>392</ele>
        <time>2011-06-18T10:46:36Z</time>
      </trkpt>
      <trkpt lat="46.355014946311712" lon="6.21216899715364">
        <ele>391.60000610351562</ele>
        <time>2011-06-18T10:46:44Z</time>
      </trkpt>
      <trkpt lat="46.354591995477676" lon="6.211786950007081">
        <ele>391.39999389648437</ele>
        <time>2011-06-18T10:46:52Z</time>
      </trkpt>
      <trkpt lat="46.353716924786568" lon="6.210960997268558">
        <ele>391.79998779296875</ele>
        <time>2011-06-18T10:47:09Z</time>
      </trkpt>
      <trkpt lat="46.353248963132501" lon="6.210534945130348">
        <ele>391.60000610351562</ele>
        <time>2011-06-18T10:47:18Z</time>
      </trkpt>
      <trkpt lat="46.352597940713167" lon="6.209896998479962">
        <ele>391.60000610351562</ele>
        <time>2011-06-18T10:47:31Z</time>
      </trkpt>
      <trkpt lat="46.352138947695494" lon="6.209471952170134">
        <ele>391.60000610351562</ele>
        <time>2011-06-18T10:47:40Z</time>
      </trkpt>
      <trkpt lat="46.351692946627736" lon="6.209062999114394">
        <ele>391.60000610351562</ele>
        <time>2011-06-18T10:47:49Z</time>
      </trkpt>
      <trkpt lat="46.350761968642473" lon="6.208234950900078">
        <ele>392</ele>
        <time>2011-06-18T10:48:09Z</time>
      </trkpt>
      <trkpt lat="46.349849933758378" lon="6.207515951246023">
        <ele>391.79998779296875</ele>
        <time>2011-06-18T10:48:28Z</time>
      </trkpt>
      <trkpt lat="46.349378954619169" lon="6.20724898763001">
        <ele>391.39999389648437</ele>
        <time>2011-06-18T10:48:37Z</time>
      </trkpt>
      <trkpt lat="46.348894983530045" lon="6.206989986822009">
        <ele>391</ele>
        <time>2011-06-18T10:48:46Z</time>
      </trkpt>
      <trkpt lat="46.348353931680322" lon="6.206813966855407">
        <ele>391</ele>
        <time>2011-06-18T10:48:56Z</time>
      </trkpt>
      <trkpt lat="46.347622945904732" lon="6.20662696659565">
        <ele>390.39999389648438</ele>
        <time>2011-06-18T10:49:09Z</time>
      </trkpt>
      <trkpt lat="46.347032943740487" lon="6.206487994641066">
        <ele>389.79998779296875</ele>
        <time>2011-06-18T10:49:19Z</time>
      </trkpt>
      <trkpt lat="46.346499938517809" lon="6.206361930817366">
        <ele>389.60000610351562</ele>
        <time>2011-06-18T10:49:28Z</time>
      </trkpt>
      <trkpt lat="46.345966933295131" lon="6.206235950812697">
        <ele>389.60000610351562</ele>
        <time>2011-06-18T10:49:37Z</time>
      </trkpt>
      <trkpt lat="46.34535999968648" lon="6.206088932231069">
        <ele>389.79998779296875</ele>
        <time>2011-06-18T10:49:47Z</time>
      </trkpt>
      <trkpt lat="46.344562964513898" lon="6.205906961113215">
        <ele>389.60000610351562</ele>
        <time>2011-06-18T10:50:01Z</time>
      </trkpt>
      <trkpt lat="46.343989977613091" lon="6.205765977501869">
        <ele>390.20001220703125</ele>
        <time>2011-06-18T10:50:11Z</time>
      </trkpt>
      <trkpt lat="46.343515980988741" lon="6.205651983618736">
        <ele>390.60000610351562</ele>
        <time>2011-06-18T10:50:19Z</time>
      </trkpt>
      <trkpt lat="46.342453993856907" lon="6.20540295727551">
        <ele>391</ele>
        <time>2011-06-18T10:50:37Z</time>
      </trkpt>
      <trkpt lat="46.342010926455259" lon="6.205291980877519">
        <ele>391.20001220703125</ele>
        <time>2011-06-18T10:50:45Z</time>
      </trkpt>
      <trkpt lat="46.341503988951445" lon="6.205171952024102">
        <ele>391.60000610351562</ele>
        <time>2011-06-18T10:50:54Z</time>
      </trkpt>
      <trkpt lat="46.340972995385528" lon="6.204941952601075">
        <ele>392</ele>
        <time>2011-06-18T10:51:03Z</time>
      </trkpt>
      <trkpt lat="46.340407971292734" lon="6.204657973721623">
        <ele>392.39999389648437</ele>
        <time>2011-06-18T10:51:13Z</time>
      </trkpt>
      <trkpt lat="46.339617976918817" lon="6.204186994582415">
        <ele>393.39999389648438</ele>
        <time>2011-06-18T10:51:28Z</time>
      </trkpt>
      <trkpt lat="46.33915395475924" lon="6.203871918842197">
        <ele>394</ele>
        <time>2011-06-18T10:51:38Z</time>
      </trkpt>
      <trkpt lat="46.338734943419695" lon="6.203604955226183">
        <ele>393.79998779296875</ele>
        <time>2011-06-18T10:51:47Z</time>
      </trkpt>
      <trkpt lat="46.338056931272149" lon="6.203240929171443">
        <ele>392.79998779296875</ele>
        <time>2011-06-18T10:52:01Z</time>
      </trkpt>
      <trkpt lat="46.337559968233109" lon="6.202992992475629">
        <ele>392.20001220703125</ele>
        <time>2011-06-18T10:52:11Z</time>
      </trkpt>
      <trkpt lat="46.337053952738643" lon="6.202779924497008">
        <ele>391.20001220703125</ele>
        <time>2011-06-18T10:52:20Z</time>
      </trkpt>
      <trkpt lat="46.336138984188437" lon="6.202527964487672">
        <ele>390</ele>
        <time>2011-06-18T10:52:35Z</time>
      </trkpt>
      <trkpt lat="46.335643948987126" lon="6.202455963939428">
        <ele>390.20001220703125</ele>
        <time>2011-06-18T10:52:43Z</time>
      </trkpt>
      <trkpt lat="46.335186967626214" lon="6.202419921755791">
        <ele>390.39999389648438</ele>
        <time>2011-06-18T10:52:51Z</time>
      </trkpt>
      <trkpt lat="46.334392949938774" lon="6.202424950897694">
        <ele>390.79998779296875</ele>
        <time>2011-06-18T10:53:06Z</time>
      </trkpt>
      <trkpt lat="46.333721978589892" lon="6.202417993918061">
        <ele>390.60000610351562</ele>
        <time>2011-06-18T10:53:18Z</time>
      </trkpt>
      <trkpt lat="46.333186961710453" lon="6.202441966161132">
        <ele>390.60000610351562</ele>
        <time>2011-06-18T10:53:27Z</time>
      </trkpt>
      <trkpt lat="46.332524958997965" lon="6.202398966997862">
        <ele>390.60000610351562</ele>
        <time>2011-06-18T10:53:38Z</time>
      </trkpt>
      <trkpt lat="46.331864967942238" lon="6.202314980328083">
        <ele>391.39999389648437</ele>
        <time>2011-06-18T10:53:49Z</time>
      </trkpt>
      <trkpt lat="46.33126893080771" lon="6.202132925391197">
        <ele>391.79998779296875</ele>
        <time>2011-06-18T10:53:59Z</time>
      </trkpt>
      <trkpt lat="46.33043291978538" lon="6.201767977327108">
        <ele>392.60000610351562</ele>
        <time>2011-06-18T10:54:14Z</time>
      </trkpt>
      <trkpt lat="46.329981973394752" lon="6.201505959033966">
        <ele>392.79998779296875</ele>
        <time>2011-06-18T10:54:23Z</time>
      </trkpt>
      <trkpt lat="46.329285940155387" lon="6.20106196962297">
        <ele>393.39999389648438</ele>
        <time>2011-06-18T10:54:38Z</time>
      </trkpt>
      <trkpt lat="46.32864698767662" lon="6.200539944693446">
        <ele>394</ele>
        <time>2011-06-18T10:54:53Z</time>
      </trkpt>
      <trkpt lat="46.328158993273973" lon="6.20011699385941">
        <ele>395</ele>
        <time>2011-06-18T10:55:04Z</time>
      </trkpt>
      <trkpt lat="46.327388947829604" lon="6.199503941461444">
        <ele>395.39999389648437</ele>
        <time>2011-06-18T10:55:21Z</time>
      </trkpt>
      <trkpt lat="46.326884943991899" lon="6.199164977297187">
        <ele>394.79998779296875</ele>
        <time>2011-06-18T10:55:30Z</time>
      </trkpt>
      <trkpt lat="46.326315980404615" lon="6.198862977325916">
        <ele>394.79998779296875</ele>
        <time>2011-06-18T10:55:39Z</time>
      </trkpt>
      <trkpt lat="46.32563897408545" lon="6.198592996224761">
        <ele>393.20001220703125</ele>
        <time>2011-06-18T10:55:49Z</time>
      </trkpt>
      <trkpt lat="46.325115943327546" lon="6.198406917974353">
        <ele>393.60000610351562</ele>
        <time>2011-06-18T10:55:57Z</time>
      </trkpt>
      <trkpt lat="46.324247997254133" lon="6.198070971295238">
        <ele>394.60000610351562</ele>
        <time>2011-06-18T10:56:12Z</time>
      </trkpt>
      <trkpt lat="46.32353394292295" lon="6.197692947462201">
        <ele>395.39999389648437</ele>
        <time>2011-06-18T10:56:27Z</time>
      </trkpt>
      <trkpt lat="46.323114931583405" lon="6.197456996887922">
        <ele>395.79998779296875</ele>
        <time>2011-06-18T10:56:36Z</time>
      </trkpt>
      <trkpt lat="46.322647975757718" lon="6.19719497859478">
        <ele>395.79998779296875</ele>
        <time>2011-06-18T10:56:46Z</time>
      </trkpt>
      <trkpt lat="46.321885976940393" lon="6.196766998618841">
        <ele>395.79998779296875</ele>
        <time>2011-06-18T10:57:02Z</time>
      </trkpt>
      <trkpt lat="46.32138398475945" lon="6.196484947577119">
        <ele>395.60000610351562</ele>
        <time>2011-06-18T10:57:13Z</time>
      </trkpt>
      <trkpt lat="46.320887943729758" lon="6.196201974526048">
        <ele>395.79998779296875</ele>
        <time>2011-06-18T10:57:23Z</time>
      </trkpt>
      <trkpt lat="46.320437919348478" lon="6.19594993069768">
        <ele>395.39999389648437</ele>
        <time>2011-06-18T10:57:32Z</time>
      </trkpt>
      <trkpt lat="46.319990996271372" lon="6.195697970688343">
        <ele>395.20001220703125</ele>
        <time>2011-06-18T10:57:41Z</time>
      </trkpt>
      <trkpt lat="46.319353971630335" lon="6.195338973775506">
        <ele>394.79998779296875</ele>
        <time>2011-06-18T10:57:56Z</time>
      </trkpt>
      <trkpt lat="46.318853991106153" lon="6.195056922733784">
        <ele>394.60000610351562</ele>
        <time>2011-06-18T10:58:09Z</time>
      </trkpt>
      <trkpt lat="46.318310927599669" lon="6.194749977439642">
        <ele>394</ele>
        <time>2011-06-18T10:58:22Z</time>
      </trkpt>
      <trkpt lat="46.317480951547623" lon="6.194277992472053">
        <ele>392.39999389648437</ele>
        <time>2011-06-18T10:58:41Z</time>
      </trkpt>
      <trkpt lat="46.317033944651484" lon="6.193896951153874">
        <ele>390.60000610351562</ele>
        <time>2011-06-18T10:58:50Z</time>
      </trkpt>
      <trkpt lat="46.316282926127315" lon="6.193236960098147">
        <ele>390</ele>
        <time>2011-06-18T10:59:04Z</time>
      </trkpt>
      <trkpt lat="46.315789986401796" lon="6.19266196154058">
        <ele>390.60000610351562</ele>
        <time>2011-06-18T10:59:16Z</time>
      </trkpt>
      <trkpt lat="46.315280953422189" lon="6.1917819455266">
        <ele>391.39999389648437</ele>
        <time>2011-06-18T10:59:30Z</time>
      </trkpt>
      <trkpt lat="46.314833946526051" lon="6.191002931445837">
        <ele>392.60000610351562</ele>
        <time>2011-06-18T10:59:43Z</time>
      </trkpt>
      <trkpt lat="46.314394986256957" lon="6.190243950113654">
        <ele>394</ele>
        <time>2011-06-18T10:59:57Z</time>
      </trkpt>
      <trkpt lat="46.313837924972177" lon="6.18924499489367">
        <ele>396.20001220703125</ele>
        <time>2011-06-18T11:00:17Z</time>
      </trkpt>
      <trkpt lat="46.313487980514765" lon="6.188616938889027">
        <ele>397.20001220703125</ele>
        <time>2011-06-18T11:00:30Z</time>
      </trkpt>
      <trkpt lat="46.313063940033317" lon="6.188021991401911">
        <ele>397.79998779296875</ele>
        <time>2011-06-18T11:00:43Z</time>
      </trkpt>
      <trkpt lat="46.312673930078745" lon="6.187584958970547">
        <ele>397.79998779296875</ele>
        <time>2011-06-18T11:00:54Z</time>
      </trkpt>
      <trkpt lat="46.31221292540431" lon="6.187158990651369">
        <ele>397.79998779296875</ele>
        <time>2011-06-18T11:01:05Z</time>
      </trkpt>
      <trkpt lat="46.311800954863429" lon="6.186773926019669">
        <ele>397.20001220703125</ele>
        <time>2011-06-18T11:01:14Z</time>
      </trkpt>
      <trkpt lat="46.31141597405076" lon="6.186415934935212">
        <ele>397.20001220703125</ele>
        <time>2011-06-18T11:01:22Z</time>
      </trkpt>
      <trkpt lat="46.310612987726927" lon="6.185666928067803">
        <ele>397.39999389648437</ele>
        <time>2011-06-18T11:01:39Z</time>
      </trkpt>
      <trkpt lat="46.31019095890224" lon="6.185272978618741">
        <ele>397.79998779296875</ele>
        <time>2011-06-18T11:01:48Z</time>
      </trkpt>
      <trkpt lat="46.309747975319624" lon="6.184858996421099">
        <ele>398.39999389648437</ele>
        <time>2011-06-18T11:01:58Z</time>
      </trkpt>
      <trkpt lat="46.309363916516304" lon="6.184500921517611">
        <ele>399.20001220703125</ele>
        <time>2011-06-18T11:02:07Z</time>
      </trkpt>
      <trkpt lat="46.308983964845538" lon="6.184146953746676">
        <ele>399.60000610351562</ele>
        <time>2011-06-18T11:02:16Z</time>
      </trkpt>
      <trkpt lat="46.3085369579494" lon="6.183728948235512">
        <ele>399.39999389648437</ele>
        <time>2011-06-18T11:02:26Z</time>
      </trkpt>
      <trkpt lat="46.308058938011527" lon="6.183276996016502">
        <ele>398.60000610351562</ele>
        <time>2011-06-18T11:02:36Z</time>
      </trkpt>
      <trkpt lat="46.307464996352792" lon="6.18271691724658">
        <ele>396.39999389648437</ele>
        <time>2011-06-18T11:02:47Z</time>
      </trkpt>
      <trkpt lat="46.30696794949472" lon="6.18224392645061">
        <ele>394.39999389648437</ele>
        <time>2011-06-18T11:02:55Z</time>
      </trkpt>
      <trkpt lat="46.306250961497426" lon="6.181567925959826">
        <ele>391.79998779296875</ele>
        <time>2011-06-18T11:03:06Z</time>
      </trkpt>
      <trkpt lat="46.305771935731173" lon="6.181112956255674">
        <ele>391.79998779296875</ele>
        <time>2011-06-18T11:03:14Z</time>
      </trkpt>
      <trkpt lat="46.305382931604981" lon="6.180744990706444">
        <ele>391.20001220703125</ele>
        <time>2011-06-18T11:03:21Z</time>
      </trkpt>
      <trkpt lat="46.304901978000998" lon="6.180302929133177">
        <ele>391.20001220703125</ele>
        <time>2011-06-18T11:03:30Z</time>
      </trkpt>
      <trkpt lat="46.304310970008373" lon="6.179693983867765">
        <ele>392</ele>
        <time>2011-06-18T11:03:42Z</time>
      </trkpt>
      <trkpt lat="46.303792968392372" lon="6.179067939519882">
        <ele>393.39999389648438</ele>
        <time>2011-06-18T11:03:54Z</time>
      </trkpt>
      <trkpt lat="46.303434977307916" lon="6.178619926795363">
        <ele>394.79998779296875</ele>
        <time>2011-06-18T11:04:03Z</time>
      </trkpt>
      <trkpt lat="46.302859978750348" lon="6.177878966554999">
        <ele>396.60000610351562</ele>
        <time>2011-06-18T11:04:18Z</time>
      </trkpt>
      <trkpt lat="46.302503999322653" lon="6.177408993244171">
        <ele>397.20001220703125</ele>
        <time>2011-06-18T11:04:27Z</time>
      </trkpt>
      <trkpt lat="46.302140979096293" lon="6.176842963322997">
        <ele>397.79998779296875</ele>
        <time>2011-06-18T11:04:37Z</time>
      </trkpt>
      <trkpt lat="46.301788939163089" lon="6.1762919370085">
        <ele>398.20001220703125</ele>
        <time>2011-06-18T11:04:47Z</time>
      </trkpt>
      <trkpt lat="46.301282923668623" lon="6.175453998148441">
        <ele>398.20001220703125</ele>
        <time>2011-06-18T11:05:01Z</time>
      </trkpt>
      <trkpt lat="46.300919987261295" lon="6.174825942143798">
        <ele>398.39999389648437</ele>
        <time>2011-06-18T11:05:11Z</time>
      </trkpt>
      <trkpt lat="46.30054397508502" lon="6.174130998551846">
        <ele>398.60000610351562</ele>
        <time>2011-06-18T11:05:22Z</time>
      </trkpt>
      <trkpt lat="46.300237951800227" lon="6.173497997224331">
        <ele>398.79998779296875</ele>
        <time>2011-06-18T11:05:32Z</time>
      </trkpt>
      <trkpt lat="46.29970595240593" lon="6.172415977343917">
        <ele>399</ele>
        <time>2011-06-18T11:05:49Z</time>
      </trkpt>
      <trkpt lat="46.29936195909977" lon="6.171711981296539">
        <ele>399.20001220703125</ele>
        <time>2011-06-18T11:06:00Z</time>
      </trkpt>
      <trkpt lat="46.298920987173915" lon="6.170896925032139">
        <ele>399.39999389648437</ele>
        <time>2011-06-18T11:06:13Z</time>
      </trkpt>
      <trkpt lat="46.298441961407661" lon="6.170126963406801">
        <ele>399.60000610351562</ele>
        <time>2011-06-18T11:06:26Z</time>
      </trkpt>
      <trkpt lat="46.298062931746244" lon="6.169554982334375">
        <ele>399.79998779296875</ele>
        <time>2011-06-18T11:06:36Z</time>
      </trkpt>
      <trkpt lat="46.297658924013376" lon="6.169172935187817">
        <ele>400.20001220703125</ele>
        <time>2011-06-18T11:06:46Z</time>
      </trkpt>
      <trkpt lat="46.297001950442791" lon="6.168428957462311">
        <ele>400.20001220703125</ele>
        <time>2011-06-18T11:07:01Z</time>
      </trkpt>
      <trkpt lat="46.29631195217371" lon="6.167878936976194">
        <ele>399.60000610351562</ele>
        <time>2011-06-18T11:07:14Z</time>
      </trkpt>
      <trkpt lat="46.29570996388793" lon="6.167370993643999">
        <ele>399.20001220703125</ele>
        <time>2011-06-18T11:07:25Z</time>
      </trkpt>
      <trkpt lat="46.295131947845221" lon="6.167034963145852">
        <ele>399</ele>
        <time>2011-06-18T11:07:35Z</time>
      </trkpt>
      <trkpt lat="46.294315969571471" lon="6.166560966521502">
        <ele>399.60000610351562</ele>
        <time>2011-06-18T11:07:50Z</time>
      </trkpt>
      <trkpt lat="46.293574925512075" lon="6.166140949353576">
        <ele>400.60000610351562</ele>
        <time>2011-06-18T11:08:04Z</time>
      </trkpt>
      <trkpt lat="46.293068993836641" lon="6.165874991565943">
        <ele>402.20001220703125</ele>
        <time>2011-06-18T11:08:15Z</time>
      </trkpt>
      <trkpt lat="46.292446972802281" lon="6.165681956335902">
        <ele>403.79998779296875</ele>
        <time>2011-06-18T11:08:29Z</time>
      </trkpt>
      <trkpt lat="46.291977921500802" lon="6.165629988536239">
        <ele>404</ele>
        <time>2011-06-18T11:08:47Z</time>
      </trkpt>
      <trkpt lat="46.291419938206673" lon="6.16565597243607">
        <ele>404</ele>
        <time>2011-06-18T11:09:00Z</time>
      </trkpt>
      <trkpt lat="46.290527936071157" lon="6.165685979649425">
        <ele>403.39999389648437</ele>
        <time>2011-06-18T11:09:16Z</time>
      </trkpt>
      <trkpt lat="46.289595952257514" lon="6.165714981034398">
        <ele>402.20001220703125</ele>
        <time>2011-06-18T11:09:31Z</time>
      </trkpt>
      <trkpt lat="46.289044925943017" lon="6.165730990469456">
        <ele>401.39999389648437</ele>
        <time>2011-06-18T11:09:39Z</time>
      </trkpt>
      <trkpt lat="46.287936922162771" lon="6.165745994076133">
        <ele>399.39999389648437</ele>
        <time>2011-06-18T11:09:55Z</time>
      </trkpt>
      <trkpt lat="46.287244996055961" lon="6.16576393134892">
        <ele>399</ele>
        <time>2011-06-18T11:10:05Z</time>
      </trkpt>
      <trkpt lat="46.286355927586555" lon="6.165795950219035">
        <ele>399.60000610351562</ele>
        <time>2011-06-18T11:10:18Z</time>
      </trkpt>
      <trkpt lat="46.285841949284077" lon="6.165815982967615">
        <ele>400</ele>
        <time>2011-06-18T11:10:26Z</time>
      </trkpt>
      <trkpt lat="46.284985989332199" lon="6.165843978524208">
        <ele>399.39999389648437</ele>
        <time>2011-06-18T11:10:40Z</time>
      </trkpt>
      <trkpt lat="46.28419691696763" lon="6.165861999616027">
        <ele>398.20001220703125</ele>
        <time>2011-06-18T11:10:51Z</time>
      </trkpt>
      <trkpt lat="46.283125961199403" lon="6.165883960202336">
        <ele>398.20001220703125</ele>
        <time>2011-06-18T11:11:06Z</time>
      </trkpt>
      <trkpt lat="46.282655987888575" lon="6.165883960202336">
        <ele>398.20001220703125</ele>
        <time>2011-06-18T11:11:13Z</time>
      </trkpt>
      <trkpt lat="46.282077971845865" lon="6.165995942428708">
        <ele>397.79998779296875</ele>
        <time>2011-06-18T11:11:22Z</time>
      </trkpt>
      <trkpt lat="46.281391996890306" lon="6.166423922404647">
        <ele>396</ele>
        <time>2011-06-18T11:11:32Z</time>
      </trkpt>
      <trkpt lat="46.280612982809544" lon="6.166938990354538">
        <ele>393.79998779296875</ele>
        <time>2011-06-18T11:11:42Z</time>
      </trkpt>
      <trkpt lat="46.280119959264994" lon="6.167248953133822">
        <ele>392.39999389648437</ele>
        <time>2011-06-18T11:11:48Z</time>
      </trkpt>
      <trkpt lat="46.279095942154527" lon="6.167897963896394">
        <ele>389.79998779296875</ele>
        <time>2011-06-18T11:12:01Z</time>
      </trkpt>
      <trkpt lat="46.278606941923499" lon="6.168221924453974">
        <ele>389</ele>
        <time>2011-06-18T11:12:08Z</time>
      </trkpt>
      <trkpt lat="46.277840919792652" lon="6.168718971312046">
        <ele>389</ele>
        <time>2011-06-18T11:12:19Z</time>
      </trkpt>
      <trkpt lat="46.277170954272151" lon="6.169140916317701">
        <ele>388</ele>
        <time>2011-06-18T11:12:30Z</time>
      </trkpt>
      <trkpt lat="46.276535941287875" lon="6.169543918222189">
        <ele>387.79998779296875</ele>
        <time>2011-06-18T11:12:41Z</time>
      </trkpt>
      <trkpt lat="46.276086922734976" lon="6.169535955414176">
        <ele>387.60000610351562</ele>
        <time>2011-06-18T11:12:48Z</time>
      </trkpt>
      <trkpt lat="46.275379993021488" lon="6.168973948806524">
        <ele>389.60000610351562</ele>
        <time>2011-06-18T11:13:02Z</time>
      </trkpt>
      <trkpt lat="46.274841958656907" lon="6.168520990759134">
        <ele>391.20001220703125</ele>
        <time>2011-06-18T11:13:15Z</time>
      </trkpt>
      <trkpt lat="46.274509951472282" lon="6.168004916980863">
        <ele>392.79998779296875</ele>
        <time>2011-06-18T11:13:25Z</time>
      </trkpt>
      <trkpt lat="46.274070991203189" lon="6.167449951171875">
        <ele>395.79998779296875</ele>
        <time>2011-06-18T11:13:37Z</time>
      </trkpt>
      <trkpt lat="46.273486940190196" lon="6.167278960347176">
        <ele>396.79998779296875</ele>
        <time>2011-06-18T11:13:54Z</time>
      </trkpt>
      <trkpt lat="46.272909929975867" lon="6.167006967589259">
        <ele>396.79998779296875</ele>
        <time>2011-06-18T11:14:07Z</time>
      </trkpt>
      <trkpt lat="46.272396957501769" lon="6.166760958731175">
        <ele>396.39999389648437</ele>
        <time>2011-06-18T11:14:17Z</time>
      </trkpt>
      <trkpt lat="46.271524988114834" lon="6.166286962106824">
        <ele>396.39999389648437</ele>
        <time>2011-06-18T11:14:33Z</time>
      </trkpt>
      <trkpt lat="46.271074963733554" lon="6.166036929935217">
        <ele>396.39999389648437</ele>
        <time>2011-06-18T11:14:41Z</time>
      </trkpt>
      <trkpt lat="46.27050893381238" lon="6.16572093218565">
        <ele>396.79998779296875</ele>
        <time>2011-06-18T11:14:51Z</time>
      </trkpt>
      <trkpt lat="46.270005935803056" lon="6.165437959134579">
        <ele>396.79998779296875</ele>
        <time>2011-06-18T11:15:00Z</time>
      </trkpt>
      <trkpt lat="46.26945692114532" lon="6.165125984698534">
        <ele>397.20001220703125</ele>
        <time>2011-06-18T11:15:10Z</time>
      </trkpt>
      <trkpt lat="46.268765917047858" lon="6.164712924510241">
        <ele>398.20001220703125</ele>
        <time>2011-06-18T11:15:23Z</time>
      </trkpt>
      <trkpt lat="46.268267948180437" lon="6.164402961730957">
        <ele>398.39999389648437</ele>
        <time>2011-06-18T11:15:33Z</time>
      </trkpt>
      <trkpt lat="46.267252983525395" lon="6.163737941533327">
        <ele>399.20001220703125</ele>
        <time>2011-06-18T11:15:53Z</time>
      </trkpt>
      <trkpt lat="46.26668494194746" lon="6.163362935185432">
        <ele>399.39999389648437</ele>
        <time>2011-06-18T11:16:04Z</time>
      </trkpt>
      <trkpt lat="46.26621195115149" lon="6.163065964356065">
        <ele>399.79998779296875</ele>
        <time>2011-06-18T11:16:13Z</time>
      </trkpt>
      <trkpt lat="46.265678945928812" lon="6.162717947736383">
        <ele>400</ele>
        <time>2011-06-18T11:16:23Z</time>
      </trkpt>
      <trkpt lat="46.265183994546533" lon="6.162400944158435">
        <ele>400</ele>
        <time>2011-06-18T11:16:32Z</time>
      </trkpt>
      <trkpt lat="46.264626933261752" lon="6.162038929760456">
        <ele>400</ele>
        <time>2011-06-18T11:16:42Z</time>
      </trkpt>
      <trkpt lat="46.264053946360946" lon="6.161654954776168">
        <ele>399.39999389648437</ele>
        <time>2011-06-18T11:16:52Z</time>
      </trkpt>
      <trkpt lat="46.263293959200382" lon="6.161153968423605">
        <ele>399</ele>
        <time>2011-06-18T11:17:05Z</time>
      </trkpt>
      <trkpt lat="46.262751985341311" lon="6.160739986225963">
        <ele>398.79998779296875</ele>
        <time>2011-06-18T11:17:15Z</time>
      </trkpt>
      <trkpt lat="46.261972971260548" lon="6.160067925229669">
        <ele>398.39999389648437</ele>
        <time>2011-06-18T11:17:30Z</time>
      </trkpt>
      <trkpt lat="46.261400990188122" lon="6.159572973847389">
        <ele>397.79998779296875</ele>
        <time>2011-06-18T11:17:41Z</time>
      </trkpt>
      <trkpt lat="46.260676961392164" lon="6.158956987783313">
        <ele>396.39999389648437</ele>
        <time>2011-06-18T11:17:55Z</time>
      </trkpt>
      <trkpt lat="46.260227942839265" lon="6.158575946465135">
        <ele>396</ele>
        <time>2011-06-18T11:18:04Z</time>
      </trkpt>
      <trkpt lat="46.259493939578533" lon="6.157953925430775">
        <ele>394.79998779296875</ele>
        <time>2011-06-18T11:18:18Z</time>
      </trkpt>
      <trkpt lat="46.258962946012616" lon="6.157502979040146">
        <ele>393.79998779296875</ele>
        <time>2011-06-18T11:18:28Z</time>
      </trkpt>
      <trkpt lat="46.258335979655385" lon="6.156978942453861">
        <ele>392.79998779296875</ele>
        <time>2011-06-18T11:18:41Z</time>
      </trkpt>
      <trkpt lat="46.257891990244389" lon="6.156478961929679">
        <ele>392</ele>
        <time>2011-06-18T11:18:54Z</time>
      </trkpt>
      <trkpt lat="46.257183970883489" lon="6.156349964439869">
        <ele>391.60000610351562</ele>
        <time>2011-06-18T11:19:12Z</time>
      </trkpt>
      <trkpt lat="46.256331950426102" lon="6.156164975836873">
        <ele>390.39999389648438</ele>
        <time>2011-06-18T11:19:27Z</time>
      </trkpt>
      <trkpt lat="46.255810931324959" lon="6.155948974192143">
        <ele>389.79998779296875</ele>
        <time>2011-06-18T11:19:37Z</time>
      </trkpt>
      <trkpt lat="46.255404995754361" lon="6.155595928430557">
        <ele>389.79998779296875</ele>
        <time>2011-06-18T11:19:46Z</time>
      </trkpt>
      <trkpt lat="46.254639979451895" lon="6.154670985415578">
        <ele>389.39999389648437</ele>
        <time>2011-06-18T11:20:04Z</time>
      </trkpt>
      <trkpt lat="46.2541579362005" lon="6.154076959937811">
        <ele>389.39999389648437</ele>
        <time>2011-06-18T11:20:16Z</time>
      </trkpt>
      <trkpt lat="46.253516972064972" lon="6.153243966400623">
        <ele>389.39999389648437</ele>
        <time>2011-06-18T11:20:33Z</time>
      </trkpt>
      <trkpt lat="46.252784980461001" lon="6.15233494900167">
        <ele>389.39999389648437</ele>
        <time>2011-06-18T11:20:50Z</time>
      </trkpt>
      <trkpt lat="46.252435958012938" lon="6.151903951540589">
        <ele>389.60000610351562</ele>
        <time>2011-06-18T11:20:58Z</time>
      </trkpt>
      <trkpt lat="46.251697931438684" lon="6.151264999061823">
        <ele>390.60000610351562</ele>
        <time>2011-06-18T11:21:14Z</time>
      </trkpt>
      <trkpt lat="46.251013968139887" lon="6.151030976325274">
        <ele>391.39999389648437</ele>
        <time>2011-06-18T11:21:27Z</time>
      </trkpt>
      <trkpt lat="46.250547934323549" lon="6.150967944413424">
        <ele>392</ele>
        <time>2011-06-18T11:21:36Z</time>
      </trkpt>
      <trkpt lat="46.250036973506212" lon="6.150899967178702">
        <ele>392.39999389648437</ele>
        <time>2011-06-18T11:21:47Z</time>
      </trkpt>
      <trkpt lat="46.249388968572021" lon="6.150807933881879">
        <ele>393.60000610351562</ele>
        <time>2011-06-18T11:21:58Z</time>
      </trkpt>
      <trkpt lat="46.248775999993086" lon="6.150718918070197">
        <ele>394.20001220703125</ele>
        <time>2011-06-18T11:22:07Z</time>
      </trkpt>
      <trkpt lat="46.247958932071924" lon="6.15087297745049">
        <ele>393.60000610351562</ele>
        <time>2011-06-18T11:22:21Z</time>
      </trkpt>
      <trkpt lat="46.247484935447574" lon="6.151020918041468">
        <ele>392.39999389648437</ele>
        <time>2011-06-18T11:22:29Z</time>
      </trkpt>
      <trkpt lat="46.246834918856621" lon="6.151168942451477">
        <ele>390.79998779296875</ele>
        <time>2011-06-18T11:22:39Z</time>
      </trkpt>
      <trkpt lat="46.246309960260987" lon="6.151249995455146">
        <ele>389.79998779296875</ele>
        <time>2011-06-18T11:22:47Z</time>
      </trkpt>
      <trkpt lat="46.245789946988225" lon="6.151256952434778">
        <ele>387.60000610351562</ele>
        <time>2011-06-18T11:22:55Z</time>
      </trkpt>
      <trkpt lat="46.245191982015967" lon="6.151057966053486">
        <ele>386</ele>
        <time>2011-06-18T11:23:02Z</time>
      </trkpt>
      <trkpt lat="46.244643973186612" lon="6.151231974363327">
        <ele>387.60000610351562</ele>
        <time>2011-06-18T11:23:11Z</time>
      </trkpt>
      <trkpt lat="46.24418799765408" lon="6.151306992396712">
        <ele>389</ele>
        <time>2011-06-18T11:23:21Z</time>
      </trkpt>
      <trkpt lat="46.243738979101181" lon="6.151279918849468">
        <ele>390.20001220703125</ele>
        <time>2011-06-18T11:23:30Z</time>
      </trkpt>
      <trkpt lat="46.243072953075171" lon="6.151172965764999">
        <ele>392</ele>
        <time>2011-06-18T11:23:44Z</time>
      </trkpt>
      <trkpt lat="46.24227792955935" lon="6.150912959128618">
        <ele>392.60000610351562</ele>
        <time>2011-06-18T11:24:02Z</time>
      </trkpt>
      <trkpt lat="46.241568988189101" lon="6.150545999407768">
        <ele>392</ele>
        <time>2011-06-18T11:24:16Z</time>
      </trkpt>
      <trkpt lat="46.2407729588449" lon="6.150190941989422">
        <ele>394</ele>
        <time>2011-06-18T11:24:34Z</time>
      </trkpt>
      <trkpt lat="46.240028981119394" lon="6.149946944788098">
        <ele>395</ele>
        <time>2011-06-18T11:24:50Z</time>
      </trkpt>
      <trkpt lat="46.239434955641627" lon="6.149606974795461">
        <ele>395</ele>
        <time>2011-06-18T11:25:03Z</time>
      </trkpt>
      <trkpt lat="46.238732971251011" lon="6.14928393624723">
        <ele>394.60000610351562</ele>
        <time>2011-06-18T11:25:17Z</time>
      </trkpt>
      <trkpt lat="46.238271966576576" lon="6.149139935150743">
        <ele>394.39999389648437</ele>
        <time>2011-06-18T11:25:26Z</time>
      </trkpt>
      <trkpt lat="46.237740973010659" lon="6.149016972631216">
        <ele>394.39999389648437</ele>
        <time>2011-06-18T11:25:36Z</time>
      </trkpt>
      <trkpt lat="46.237129932269454" lon="6.148974979296327">
        <ele>394</ele>
        <time>2011-06-18T11:25:49Z</time>
      </trkpt>
      <trkpt lat="46.2366699334234" lon="6.148998951539397">
        <ele>393.79998779296875</ele>
        <time>2011-06-18T11:25:58Z</time>
      </trkpt>
      <trkpt lat="46.235913969576359" lon="6.149098947644234">
        <ele>393.39999389648438</ele>
        <time>2011-06-18T11:26:11Z</time>
      </trkpt>
      <trkpt lat="46.23544592410326" lon="6.149149993434548">
        <ele>393</ele>
        <time>2011-06-18T11:26:19Z</time>
      </trkpt>
      <trkpt lat="46.234741928055882" lon="6.149225933477283">
        <ele>392.60000610351562</ele>
        <time>2011-06-18T11:26:32Z</time>
      </trkpt>
      <trkpt lat="46.234222920611501" lon="6.149282930418849">
        <ele>392.39999389648437</ele>
        <time>2011-06-18T11:26:41Z</time>
      </trkpt>
      <trkpt lat="46.233643982559443" lon="6.14934797398746">
        <ele>392.20001220703125</ele>
        <time>2011-06-18T11:26:51Z</time>
      </trkpt>
      <trkpt lat="46.232875948771834" lon="6.149419974535704">
        <ele>392.20001220703125</ele>
        <time>2011-06-18T11:27:04Z</time>
      </trkpt>
      <trkpt lat="46.232422990724444" lon="6.149451993405819">
        <ele>391.79998779296875</ele>
        <time>2011-06-18T11:27:12Z</time>
      </trkpt>
      <trkpt lat="46.231933990493417" lon="6.149467919021845">
        <ele>391.39999389648437</ele>
        <time>2011-06-18T11:27:21Z</time>
      </trkpt>
      <trkpt lat="46.231377935037017" lon="6.149459956213832">
        <ele>390.79998779296875</ele>
        <time>2011-06-18T11:27:30Z</time>
      </trkpt>
      <trkpt lat="46.230924976989627" lon="6.149429949000478">
        <ele>390.39999389648438</ele>
        <time>2011-06-18T11:27:37Z</time>
      </trkpt>
      <trkpt lat="46.230408987030387" lon="6.14937094040215">
        <ele>389.60000610351562</ele>
        <time>2011-06-18T11:27:45Z</time>
      </trkpt>
      <trkpt lat="46.229638941586018" lon="6.149267926812172">
        <ele>389.39999389648437</ele>
        <time>2011-06-18T11:27:57Z</time>
      </trkpt>
      <trkpt lat="46.229065954685211" lon="6.149150999262929">
        <ele>389.60000610351562</ele>
        <time>2011-06-18T11:28:06Z</time>
      </trkpt>
      <trkpt lat="46.228379979729652" lon="6.148976990953088">
        <ele>390</ele>
        <time>2011-06-18T11:28:18Z</time>
      </trkpt>
      <trkpt lat="46.227701967582107" lon="6.148772975429893">
        <ele>390.20001220703125</ele>
        <time>2011-06-18T11:28:31Z</time>
      </trkpt>
      <trkpt lat="46.226839972659945" lon="6.148411966860294">
        <ele>390.60000610351562</ele>
        <time>2011-06-18T11:28:47Z</time>
      </trkpt>
      <trkpt lat="46.226395983248949" lon="6.148253967985511">
        <ele>390.79998779296875</ele>
        <time>2011-06-18T11:28:55Z</time>
      </trkpt>
      <trkpt lat="46.225783936679363" lon="6.147999996319413">
        <ele>391</ele>
        <time>2011-06-18T11:29:07Z</time>
      </trkpt>
      <trkpt lat="46.225161999464035" lon="6.147901928052306">
        <ele>391.20001220703125</ele>
        <time>2011-06-18T11:29:22Z</time>
      </trkpt>
      <trkpt lat="46.22463796287775" lon="6.148073924705386">
        <ele>392</ele>
        <time>2011-06-18T11:29:32Z</time>
      </trkpt>
      <trkpt lat="46.224150974303484" lon="6.148292943835259">
        <ele>392.79998779296875</ele>
        <time>2011-06-18T11:30:43Z</time>
      </trkpt>
      <trkpt lat="46.223516967147589" lon="6.148605924099684">
        <ele>393.79998779296875</ele>
        <time>2011-06-18T11:30:56Z</time>
      </trkpt>
      <trkpt lat="46.22293995693326" lon="6.148889986798167">
        <ele>394.60000610351562</ele>
        <time>2011-06-18T11:31:09Z</time>
      </trkpt>
      <trkpt lat="46.222484987229109" lon="6.149115962907672">
        <ele>395.79998779296875</ele>
        <time>2011-06-18T11:31:20Z</time>
      </trkpt>
      <trkpt lat="46.221966985613108" lon="6.149373957887292">
        <ele>397.20001220703125</ele>
        <time>2011-06-18T11:31:36Z</time>
      </trkpt>
      <trkpt lat="46.22126491740346" lon="6.149717951193452">
        <ele>398.60000610351562</ele>
        <time>2011-06-18T11:31:50Z</time>
      </trkpt>
      <trkpt lat="46.220440976321697" lon="6.149833956733346">
        <ele>398.20001220703125</ele>
        <time>2011-06-18T11:32:03Z</time>
      </trkpt>
      <trkpt lat="46.219813926145434" lon="6.149422992020845">
        <ele>397.60000610351562</ele>
        <time>2011-06-18T11:32:15Z</time>
      </trkpt>
      <trkpt lat="46.219311933964491" lon="6.149138929322362">
        <ele>396</ele>
        <time>2011-06-18T11:32:34Z</time>
      </trkpt>
      <trkpt lat="46.21872897259891" lon="6.148746991530061">
        <ele>396.60000610351562</ele>
        <time>2011-06-18T11:32:51Z</time>
      </trkpt>
      <trkpt lat="46.218165960162878" lon="6.148391934111714">
        <ele>396</ele>
        <time>2011-06-18T11:33:01Z</time>
      </trkpt>
      <trkpt lat="46.217606971040368" lon="6.14814592525363">
        <ele>395.79998779296875</ele>
        <time>2011-06-18T11:33:14Z</time>
      </trkpt>
      <trkpt lat="46.217063991352916" lon="6.147942999377847">
        <ele>395.20001220703125</ele>
        <time>2011-06-18T11:33:27Z</time>
      </trkpt>
      <trkpt lat="46.216496955603361" lon="6.147699924185872">
        <ele>394.60000610351562</ele>
        <time>2011-06-18T11:33:39Z</time>
      </trkpt>
      <trkpt lat="46.215960932895541" lon="6.147353919222951">
        <ele>394</ele>
        <time>2011-06-18T11:34:14Z</time>
      </trkpt>
      <trkpt lat="46.215271940454841" lon="6.146880928426981">
        <ele>394.79998779296875</ele>
        <time>2011-06-18T11:34:43Z</time>
      </trkpt>
      <trkpt lat="46.214850917458534" lon="6.146582951769233">
        <ele>394.79998779296875</ele>
        <time>2011-06-18T11:34:50Z</time>
      </trkpt>
      <trkpt lat="46.214241972193122" lon="6.146151954308152">
        <ele>395</ele>
        <time>2011-06-18T11:35:16Z</time>
      </trkpt>
      <trkpt lat="46.21367895975709" lon="6.145765967667103">
        <ele>395.60000610351562</ele>
        <time>2011-06-18T11:35:29Z</time>
      </trkpt>
      <trkpt lat="46.213074959814548" lon="6.145343938842416">
        <ele>395.79998779296875</ele>
        <time>2011-06-18T11:35:42Z</time>
      </trkpt>
      <trkpt lat="46.21264697983861" lon="6.145102959126234">
        <ele>395.60000610351562</ele>
        <time>2011-06-18T11:35:51Z</time>
      </trkpt>
      <trkpt lat="46.212152950465679" lon="6.144839935004711">
        <ele>395.39999389648437</ele>
        <time>2011-06-18T11:36:03Z</time>
      </trkpt>
      <trkpt lat="46.211589938029647" lon="6.144515974447131">
        <ele>395.20001220703125</ele>
        <time>2011-06-18T11:36:17Z</time>
      </trkpt>
      <trkpt lat="46.211171932518482" lon="6.144271977245808">
        <ele>395.20001220703125</ele>
        <time>2011-06-18T11:36:26Z</time>
      </trkpt>
      <trkpt lat="46.210673963651061" lon="6.143777947872877">
        <ele>396</ele>
        <time>2011-06-18T11:36:52Z</time>
      </trkpt>
      <trkpt lat="46.210245983675122" lon="6.143146958202124">
        <ele>397.39999389648437</ele>
        <time>2011-06-18T11:37:07Z</time>
      </trkpt>
      <trkpt lat="46.209888998419046" lon="6.142735993489623">
        <ele>397.39999389648437</ele>
        <time>2011-06-18T11:37:20Z</time>
      </trkpt>
      <trkpt lat="46.209506951272488" lon="6.142294937744737">
        <ele>397.60000610351562</ele>
        <time>2011-06-18T11:37:39Z</time>
      </trkpt>
      <trkpt lat="46.209021974354982" lon="6.141703929752111">
        <ele>398.20001220703125</ele>
        <time>2011-06-18T11:38:15Z</time>
      </trkpt>
      <trkpt lat="46.208654930815101" lon="6.141300927847624">
        <ele>397.79998779296875</ele>
        <time>2011-06-18T11:38:26Z</time>
      </trkpt>
      <trkpt lat="46.208212953060865" lon="6.140820980072022">
        <ele>398.20001220703125</ele>
        <time>2011-06-18T11:39:08Z</time>
      </trkpt>
      <trkpt lat="46.207509962841868" lon="6.140010952949524">
        <ele>398</ele>
        <time>2011-06-18T11:39:25Z</time>
      </trkpt>
      <trkpt lat="46.206994978711009" lon="6.139473924413323">
        <ele>398</ele>
        <time>2011-06-18T11:39:36Z</time>
      </trkpt>
      <trkpt lat="46.206476977095008" lon="6.139475936070085">
        <ele>396.39999389648437</ele>
        <time>2011-06-18T11:39:45Z</time>
      </trkpt>
      <trkpt lat="46.206437917426229" lon="6.138601955026388">
        <ele>396.79998779296875</ele>
        <time>2011-06-18T11:40:24Z</time>
      </trkpt>
      <trkpt lat="46.206092918291688" lon="6.138599943369627">
        <ele>392.60000610351562</ele>
        <time>2011-06-18T11:40:40Z</time>
      </trkpt>
      <trkpt lat="46.205721935257316" lon="6.137985968962312">
        <ele>389</ele>
        <time>2011-06-18T11:40:47Z</time>
      </trkpt>
      <trkpt lat="46.205504927784204" lon="6.137288929894567">
        <ele>387.79998779296875</ele>
        <time>2011-06-18T11:41:02Z</time>
      </trkpt>
      <trkpt lat="46.20547098107636" lon="6.136228954419494">
        <ele>387.60000610351562</ele>
        <time>2011-06-18T11:41:16Z</time>
      </trkpt>
      <trkpt lat="46.20506395585835" lon="6.135377939790487">
        <ele>387.79998779296875</ele>
        <time>2011-06-18T11:41:29Z</time>
      </trkpt>
      <trkpt lat="46.204715939238667" lon="6.134798917919397">
        <ele>387.60000610351562</ele>
        <time>2011-06-18T11:41:42Z</time>
      </trkpt>
      <trkpt lat="46.204243954271078" lon="6.134167928248644">
        <ele>387.60000610351562</ele>
        <time>2011-06-18T11:41:56Z</time>
      </trkpt>
      <trkpt lat="46.203849921002984" lon="6.133446916937828">
        <ele>387.60000610351562</ele>
        <time>2011-06-18T11:42:09Z</time>
      </trkpt>
      <trkpt lat="46.20364498347044" lon="6.132639991119504">
        <ele>390</ele>
        <time>2011-06-18T11:42:19Z</time>
      </trkpt>
      <trkpt lat="46.203436944633722" lon="6.131949992850423">
        <ele>391.60000610351562</ele>
        <time>2011-06-18T11:42:30Z</time>
      </trkpt>
      <trkpt lat="46.202577967196703" lon="6.131531987339258">
        <ele>387.20001220703125</ele>
        <time>2011-06-18T11:42:43Z</time>
      </trkpt>
      <trkpt lat="46.202005986124277" lon="6.130917929112911">
        <ele>387</ele>
        <time>2011-06-18T11:42:56Z</time>
      </trkpt>
      <trkpt lat="46.201420929282904" lon="6.13033295609057">
        <ele>387.20001220703125</ele>
        <time>2011-06-18T11:43:09Z</time>
      </trkpt>
      <trkpt lat="46.200867975130677" lon="6.129780923947692">
        <ele>387.60000610351562</ele>
        <time>2011-06-18T11:43:22Z</time>
      </trkpt>
      <trkpt lat="46.200200943276286" lon="6.129112970083952">
        <ele>388</ele>
        <time>2011-06-18T11:43:36Z</time>
      </trkpt>
      <trkpt lat="46.199524942785501" lon="6.128447949886322">
        <ele>390</ele>
        <time>2011-06-18T11:44:18Z</time>
      </trkpt>
      <trkpt lat="46.198954973369837" lon="6.127922991290689">
        <ele>391.60000610351562</ele>
        <time>2011-06-18T11:44:32Z</time>
      </trkpt>
      <trkpt lat="46.198262963443995" lon="6.127610933035612">
        <ele>394.20001220703125</ele>
        <time>2011-06-18T11:44:46Z</time>
      </trkpt>
      <trkpt lat="46.197729958221316" lon="6.127446983009577">
        <ele>396.60000610351562</ele>
        <time>2011-06-18T11:44:57Z</time>
      </trkpt>
      <trkpt lat="46.197018921375275" lon="6.127244979143143">
        <ele>400</ele>
        <time>2011-06-18T11:45:14Z</time>
      </trkpt>
      <trkpt lat="46.196327917277813" lon="6.127036940306425">
        <ele>402.79998779296875</ele>
        <time>2011-06-18T11:45:31Z</time>
      </trkpt>
      <trkpt lat="46.195607995614409" lon="6.126820938661695">
        <ele>406.39999389648437</ele>
        <time>2011-06-18T11:45:50Z</time>
      </trkpt>
      <trkpt lat="46.195077924057841" lon="6.126615917310119">
        <ele>409.20001220703125</ele>
        <time>2011-06-18T11:46:05Z</time>
      </trkpt>
      <trkpt lat="46.194682968780398" lon="6.126215932890773">
        <ele>411.20001220703125</ele>
        <time>2011-06-18T11:46:18Z</time>
      </trkpt>
      <trkpt lat="46.194397984072566" lon="6.125389980152249">
        <ele>413.60000610351562</ele>
        <time>2011-06-18T11:46:35Z</time>
      </trkpt>
      <trkpt lat="46.194190951064229" lon="6.124756978824735">
        <ele>416</ele>
        <time>2011-06-18T11:46:50Z</time>
      </trkpt>
      <trkpt lat="46.193897919729352" lon="6.124182986095548">
        <ele>418.39999389648437</ele>
        <time>2011-06-18T11:47:10Z</time>
      </trkpt>
      <trkpt lat="46.193488966673613" lon="6.123618967831135">
        <ele>421.20001220703125</ele>
        <time>2011-06-18T11:47:26Z</time>
      </trkpt>
      <trkpt lat="46.193133993074298" lon="6.12313692457974">
        <ele>423.20001220703125</ele>
        <time>2011-06-18T11:47:39Z</time>
      </trkpt>
      <trkpt lat="46.192651949822903" lon="6.122475927695632">
        <ele>427</ele>
        <time>2011-06-18T11:47:58Z</time>
      </trkpt>
      <trkpt lat="46.192316925153136" lon="6.122013917192817">
        <ele>429</ele>
        <time>2011-06-18T11:48:11Z</time>
      </trkpt>
      <trkpt lat="46.191880982369184" lon="6.12139793112874">
        <ele>431.60000610351562</ele>
        <time>2011-06-18T11:48:27Z</time>
      </trkpt>
      <trkpt lat="46.191546963527799" lon="6.12094396725297">
        <ele>433.20001220703125</ele>
        <time>2011-06-18T11:48:39Z</time>
      </trkpt>
      <trkpt lat="46.191063998267055" lon="6.120288921520114">
        <ele>433.79998779296875</ele>
        <time>2011-06-18T11:48:55Z</time>
      </trkpt>
      <trkpt lat="46.190521940588951" lon="6.11952499486506">
        <ele>435</ele>
        <time>2011-06-18T11:49:11Z</time>
      </trkpt>
      <trkpt lat="46.190103935077786" lon="6.118963994085789">
        <ele>435.60000610351562</ele>
        <time>2011-06-18T11:49:24Z</time>
      </trkpt>
      <trkpt lat="46.189774945378304" lon="6.118133934214711">
        <ele>436.39999389648437</ele>
        <time>2011-06-18T11:49:38Z</time>
      </trkpt>
      <trkpt lat="46.189409997314215" lon="6.1170759703964">
        <ele>435.79998779296875</ele>
        <time>2011-06-18T11:49:55Z</time>
      </trkpt>
      <trkpt lat="46.189214950427413" lon="6.116480939090252">
        <ele>435.60000610351562</ele>
        <time>2011-06-18T11:50:04Z</time>
      </trkpt>
      <trkpt lat="46.189008923247457" lon="6.115854978561401">
        <ele>435</ele>
        <time>2011-06-18T11:50:18Z</time>
      </trkpt>
      <trkpt lat="46.188700972124934" lon="6.11492995172739">
        <ele>434.60000610351562</ele>
        <time>2011-06-18T11:50:32Z</time>
      </trkpt>
      <trkpt lat="46.188449934124947" lon="6.1141989659518">
        <ele>433.79998779296875</ele>
        <time>2011-06-18T11:50:43Z</time>
      </trkpt>
      <trkpt lat="46.188185987994075" lon="6.113362954929471">
        <ele>434</ele>
        <time>2011-06-18T11:50:54Z</time>
      </trkpt>
      <trkpt lat="46.187951965257525" lon="6.112665999680758">
        <ele>433.79998779296875</ele>
        <time>2011-06-18T11:51:03Z</time>
      </trkpt>
      <trkpt lat="46.187728922814131" lon="6.111987987533212">
        <ele>433</ele>
        <time>2011-06-18T11:51:12Z</time>
      </trkpt>
      <trkpt lat="46.187389958649874" lon="6.110910996794701">
        <ele>433</ele>
        <time>2011-06-18T11:51:26Z</time>
      </trkpt>
      <trkpt lat="46.187196923419833" lon="6.110301967710257">
        <ele>433</ele>
        <time>2011-06-18T11:51:34Z</time>
      </trkpt>
      <trkpt lat="46.186859970912337" lon="6.109238974750042">
        <ele>432.79998779296875</ele>
        <time>2011-06-18T11:51:49Z</time>
      </trkpt>
      <trkpt lat="46.18660599924624" lon="6.108471946790814">
        <ele>433.20001220703125</ele>
        <time>2011-06-18T11:52:00Z</time>
      </trkpt>
      <trkpt lat="46.186407934874296" lon="6.107878927141428">
        <ele>433.39999389648437</ele>
        <time>2011-06-18T11:52:13Z</time>
      </trkpt>
      <trkpt lat="46.186105934903026" lon="6.106971921399236">
        <ele>434.39999389648437</ele>
        <time>2011-06-18T11:52:47Z</time>
      </trkpt>
      <trkpt lat="46.185864955186844" lon="6.106248982250691">
        <ele>435.20001220703125</ele>
        <time>2011-06-18T11:52:56Z</time>
      </trkpt>
      <trkpt lat="46.185565972700715" lon="6.105351950973272">
        <ele>435.60000610351562</ele>
        <time>2011-06-18T11:53:06Z</time>
      </trkpt>
      <trkpt lat="46.18534192442894" lon="6.104668993502855">
        <ele>436</ele>
        <time>2011-06-18T11:53:16Z</time>
      </trkpt>
      <trkpt lat="46.185035984963179" lon="6.103728963062167">
        <ele>437</ele>
        <time>2011-06-18T11:53:51Z</time>
      </trkpt>
      <trkpt lat="46.184615967795253" lon="6.102695977315307">
        <ele>437.60000610351562</ele>
        <time>2011-06-18T11:54:07Z</time>
      </trkpt>
      <trkpt lat="46.184206930920482" lon="6.10175896435976">
        <ele>438.79998779296875</ele>
        <time>2011-06-18T11:54:22Z</time>
      </trkpt>
      <trkpt lat="46.183883976191282" lon="6.101111965253949">
        <ele>439</ele>
        <time>2011-06-18T11:54:35Z</time>
      </trkpt>
      <trkpt lat="46.183550963178277" lon="6.10053394921124">
        <ele>439.20001220703125</ele>
        <time>2011-06-18T11:54:53Z</time>
      </trkpt>
      <trkpt lat="46.183203952386975" lon="6.099947970360518">
        <ele>439.20001220703125</ele>
        <time>2011-06-18T11:55:09Z</time>
      </trkpt>
      <trkpt lat="46.182709923014045" lon="6.099080946296454">
        <ele>439.39999389648437</ele>
        <time>2011-06-18T11:55:24Z</time>
      </trkpt>
      <trkpt lat="46.182423932477832" lon="6.098523968830705">
        <ele>438.60000610351562</ele>
        <time>2011-06-18T11:55:37Z</time>
      </trkpt>
      <trkpt lat="46.182072982192039" lon="6.097802957519889">
        <ele>439.79998779296875</ele>
        <time>2011-06-18T11:55:50Z</time>
      </trkpt>
      <trkpt lat="46.181747931987047" lon="6.097039952874184">
        <ele>441.20001220703125</ele>
        <time>2011-06-18T11:56:01Z</time>
      </trkpt>
      <trkpt lat="46.181310983374715" lon="6.096012918278575">
        <ele>442.60000610351562</ele>
        <time>2011-06-18T11:56:17Z</time>
      </trkpt>
      <trkpt lat="46.180994985625148" lon="6.095263995230198">
        <ele>443</ele>
        <time>2011-06-18T11:56:29Z</time>
      </trkpt>
      <trkpt lat="46.18074394762516" lon="6.09466795809567">
        <ele>443</ele>
        <time>2011-06-18T11:56:38Z</time>
      </trkpt>
      <trkpt lat="46.180491987615824" lon="6.09406697563827">
        <ele>443</ele>
        <time>2011-06-18T11:56:46Z</time>
      </trkpt>
      <trkpt lat="46.180147994309664" lon="6.09324898570776">
        <ele>442.39999389648437</ele>
        <time>2011-06-18T11:56:56Z</time>
      </trkpt>
      <trkpt lat="46.179760918021202" lon="6.092342985793948">
        <ele>441.60000610351562</ele>
        <time>2011-06-18T11:57:08Z</time>
      </trkpt>
      <trkpt lat="46.179313994944096" lon="6.091291978955269">
        <ele>440.79998779296875</ele>
        <time>2011-06-18T11:57:22Z</time>
      </trkpt>
      <trkpt lat="46.179017946124077" lon="6.090535931289196">
        <ele>441</ele>
        <time>2011-06-18T11:57:31Z</time>
      </trkpt>
      <trkpt lat="46.178696919232607" lon="6.08946992084384">
        <ele>441.60000610351562</ele>
        <time>2011-06-18T11:57:44Z</time>
      </trkpt>
      <trkpt lat="46.17848795838654" lon="6.088440958410502">
        <ele>442.39999389648437</ele>
        <time>2011-06-18T11:58:27Z</time>
      </trkpt>
      <trkpt lat="46.178512936457992" lon="6.087204962968826">
        <ele>442.60000610351562</ele>
        <time>2011-06-18T11:58:42Z</time>
      </trkpt>
      <trkpt lat="46.178643945604563" lon="6.086005931720138">
        <ele>442.60000610351562</ele>
        <time>2011-06-18T11:59:00Z</time>
      </trkpt>
      <trkpt lat="46.178795993328094" lon="6.085018962621689">
        <ele>440.79998779296875</ele>
        <time>2011-06-18T11:59:13Z</time>
      </trkpt>
      <trkpt lat="46.179031943902373" lon="6.084469947963953">
        <ele>439.20001220703125</ele>
        <time>2011-06-18T11:59:19Z</time>
      </trkpt>
      <trkpt lat="46.178993973881006" lon="6.083824960514903">
        <ele>438.60000610351562</ele>
        <time>2011-06-18T11:59:30Z</time>
      </trkpt>
      <trkpt lat="46.179144931957126" lon="6.082922983914614">
        <ele>441.39999389648438</ele>
        <time>2011-06-18T11:59:44Z</time>
      </trkpt>
      <trkpt lat="46.179259931668639" lon="6.082240948453546">
        <ele>443.20001220703125</ele>
        <time>2011-06-18T11:59:57Z</time>
      </trkpt>
      <trkpt lat="46.17941097356379" lon="6.081323968246579">
        <ele>443.39999389648437</ele>
        <time>2011-06-18T12:00:12Z</time>
      </trkpt>
      <trkpt lat="46.179499989375472" lon="6.080609997734428">
        <ele>443.60000610351562</ele>
        <time>2011-06-18T12:00:23Z</time>
      </trkpt>
      <trkpt lat="46.179589927196503" lon="6.07939294539392">
        <ele>443.79998779296875</ele>
        <time>2011-06-18T12:00:41Z</time>
      </trkpt>
      <trkpt lat="46.179592944681644" lon="6.078542936593294">
        <ele>443.60000610351562</ele>
        <time>2011-06-18T12:01:00Z</time>
      </trkpt>
      <trkpt lat="46.179547933861613" lon="6.0778449755162">
        <ele>444.20001220703125</ele>
        <time>2011-06-18T12:01:12Z</time>
      </trkpt>
      <trkpt lat="46.179365962743759" lon="6.076535973697901">
        <ele>444.60000610351562</ele>
        <time>2011-06-18T12:01:30Z</time>
      </trkpt>
      <trkpt lat="46.179201928898692" lon="6.075864918529987">
        <ele>444.60000610351562</ele>
        <time>2011-06-18T12:01:39Z</time>
      </trkpt>
      <trkpt lat="46.179008977487683" lon="6.075187996029854">
        <ele>444.79998779296875</ele>
        <time>2011-06-18T12:01:48Z</time>
      </trkpt>
      <trkpt lat="46.178752994164824" lon="6.074474947527051">
        <ele>444.20001220703125</ele>
        <time>2011-06-18T12:01:58Z</time>
      </trkpt>
      <trkpt lat="46.178511930629611" lon="6.073830965906382">
        <ele>443.39999389648437</ele>
        <time>2011-06-18T12:02:07Z</time>
      </trkpt>
      <trkpt lat="46.178255947306752" lon="6.073095956817269">
        <ele>443.20001220703125</ele>
        <time>2011-06-18T12:02:18Z</time>
      </trkpt>
      <trkpt lat="46.178153939545155" lon="6.072485921904445">
        <ele>442.39999389648437</ele>
        <time>2011-06-18T12:02:29Z</time>
      </trkpt>
      <trkpt lat="46.177802989259362" lon="6.071788966655731">
        <ele>442.39999389648437</ele>
        <time>2011-06-18T12:02:49Z</time>
      </trkpt>
      <trkpt lat="46.177413985133171" lon="6.07073494233191">
        <ele>442.60000610351562</ele>
        <time>2011-06-18T12:03:05Z</time>
      </trkpt>
      <trkpt lat="46.177155990153551" lon="6.07002591714263">
        <ele>442.79998779296875</ele>
        <time>2011-06-18T12:03:15Z</time>
      </trkpt>
      <trkpt lat="46.176862958818674" lon="6.069176997989416">
        <ele>443.60000610351562</ele>
        <time>2011-06-18T12:03:27Z</time>
      </trkpt>
      <trkpt lat="46.176528939977288" lon="6.068136971443892">
        <ele>445.20001220703125</ele>
        <time>2011-06-18T12:03:45Z</time>
      </trkpt>
      <trkpt lat="46.176314949989319" lon="6.067424928769469">
        <ele>445.60000610351562</ele>
        <time>2011-06-18T12:03:57Z</time>
      </trkpt>
      <trkpt lat="46.175943966954947" lon="6.066163955256343">
        <ele>444.79998779296875</ele>
        <time>2011-06-18T12:04:16Z</time>
      </trkpt>
      <trkpt lat="46.175756966695189" lon="6.065438920632005">
        <ele>444.39999389648438</ele>
        <time>2011-06-18T12:04:25Z</time>
      </trkpt>
      <trkpt lat="46.175606930628419" lon="6.0647829528898">
        <ele>444</ele>
        <time>2011-06-18T12:04:33Z</time>
      </trkpt>
      <trkpt lat="46.175442980602384" lon="6.063975943252444">
        <ele>444.39999389648438</ele>
        <time>2011-06-18T12:04:44Z</time>
      </trkpt>
      <trkpt lat="46.175336949527264" lon="6.063324920833111">
        <ele>444.60000610351562</ele>
        <time>2011-06-18T12:04:53Z</time>
      </trkpt>
      <trkpt lat="46.175233935937285" lon="6.062586978077889">
        <ele>444.39999389648438</ele>
        <time>2011-06-18T12:05:03Z</time>
      </trkpt>
      <trkpt lat="46.175143998116255" lon="6.061874935403466">
        <ele>443.79998779296875</ele>
        <time>2011-06-18T12:05:12Z</time>
      </trkpt>
      <trkpt lat="46.175043918192387" lon="6.061071949079633">
        <ele>443.39999389648437</ele>
        <time>2011-06-18T12:05:22Z</time>
      </trkpt>
      <trkpt lat="46.174961943179369" lon="6.060387985780835">
        <ele>443.20001220703125</ele>
        <time>2011-06-18T12:05:31Z</time>
      </trkpt>
      <trkpt lat="46.174780977889895" lon="6.059030955657363">
        <ele>443.39999389648437</ele>
        <time>2011-06-18T12:05:51Z</time>
      </trkpt>
      <trkpt lat="46.174690956249833" lon="6.058315979316831">
        <ele>442.39999389648437</ele>
        <time>2011-06-18T12:06:02Z</time>
      </trkpt>
      <trkpt lat="46.174606969580054" lon="6.057650959119201">
        <ele>440.79998779296875</ele>
        <time>2011-06-18T12:06:12Z</time>
      </trkpt>
      <trkpt lat="46.174601940438151" lon="6.0569809935987">
        <ele>439</ele>
        <time>2011-06-18T12:06:48Z</time>
      </trkpt>
      <trkpt lat="46.17438199929893" lon="6.055751955136657">
        <ele>436.79998779296875</ele>
        <time>2011-06-18T12:07:04Z</time>
      </trkpt>
      <trkpt lat="46.174216959625483" lon="6.054719975218177">
        <ele>436.20001220703125</ele>
        <time>2011-06-18T12:07:15Z</time>
      </trkpt>
      <trkpt lat="46.174054937437177" lon="6.053825961425901">
        <ele>436.20001220703125</ele>
        <time>2011-06-18T12:07:25Z</time>
      </trkpt>
      <trkpt lat="46.173875983804464" lon="6.052975952625275">
        <ele>435.60000610351562</ele>
        <time>2011-06-18T12:07:35Z</time>
      </trkpt>
      <trkpt lat="46.173683954402804" lon="6.052062995731831">
        <ele>435.39999389648437</ele>
        <time>2011-06-18T12:07:46Z</time>
      </trkpt>
      <trkpt lat="46.173511957749724" lon="6.05124399997294">
        <ele>435.39999389648437</ele>
        <time>2011-06-18T12:07:56Z</time>
      </trkpt>
      <trkpt lat="46.17328992113471" lon="6.050220988690853">
        <ele>435</ele>
        <time>2011-06-18T12:08:09Z</time>
      </trkpt>
      <trkpt lat="46.172969983890653" lon="6.048874938860536">
        <ele>435.20001220703125</ele>
        <time>2011-06-18T12:08:25Z</time>
      </trkpt>
      <trkpt lat="46.172779966145754" lon="6.048020990565419">
        <ele>435.60000610351562</ele>
        <time>2011-06-18T12:08:35Z</time>
      </trkpt>
      <trkpt lat="46.172682987526059" lon="6.047383965924382">
        <ele>436.79998779296875</ele>
        <time>2011-06-18T12:08:43Z</time>
      </trkpt>
      <trkpt lat="46.172603946179152" lon="6.046534962952137">
        <ele>437.39999389648437</ele>
        <time>2011-06-18T12:08:54Z</time>
      </trkpt>
      <trkpt lat="46.172559941187501" lon="6.045880923047662">
        <ele>438.39999389648437</ele>
        <time>2011-06-18T12:09:03Z</time>
      </trkpt>
      <trkpt lat="46.172502944245934" lon="6.044644927605987">
        <ele>440.20001220703125</ele>
        <time>2011-06-18T12:09:21Z</time>
      </trkpt>
      <trkpt lat="46.172451982274652" lon="6.043616971001029">
        <ele>441.20001220703125</ele>
        <time>2011-06-18T12:09:37Z</time>
      </trkpt>
      <trkpt lat="46.172260958701372" lon="6.042447946965694">
        <ele>443.60000610351562</ele>
        <time>2011-06-18T12:09:56Z</time>
      </trkpt>
      <trkpt lat="46.171988965943456" lon="6.04138595983386">
        <ele>444.39999389648438</ele>
        <time>2011-06-18T12:10:13Z</time>
      </trkpt>
      <trkpt lat="46.1717189848423" lon="6.040650950744748">
        <ele>445.20001220703125</ele>
        <time>2011-06-18T12:10:25Z</time>
      </trkpt>
      <trkpt lat="46.171418996527791" lon="6.039928933605552">
        <ele>445.39999389648437</ele>
        <time>2011-06-18T12:11:25Z</time>
      </trkpt>
      <trkpt lat="46.171085983514786" lon="6.039176993072033">
        <ele>445.39999389648437</ele>
        <time>2011-06-18T12:11:41Z</time>
      </trkpt>
      <trkpt lat="46.170808961614966" lon="6.038622949272394">
        <ele>445.20001220703125</ele>
        <time>2011-06-18T12:11:54Z</time>
      </trkpt>
      <trkpt lat="46.170549960806966" lon="6.038070917129517">
        <ele>445.39999389648437</ele>
        <time>2011-06-18T12:12:08Z</time>
      </trkpt>
      <trkpt lat="46.170268999412656" lon="6.037481920793653">
        <ele>445.60000610351562</ele>
        <time>2011-06-18T12:12:19Z</time>
      </trkpt>
      <trkpt lat="46.169979991391301" lon="6.036861995235086">
        <ele>445.39999389648437</ele>
        <time>2011-06-18T12:12:30Z</time>
      </trkpt>
      <trkpt lat="46.169657958671451" lon="6.036090943962336">
        <ele>445.20001220703125</ele>
        <time>2011-06-18T12:12:43Z</time>
      </trkpt>
      <trkpt lat="46.169258980080485" lon="6.035136999562383">
        <ele>445.20001220703125</ele>
        <time>2011-06-18T12:12:59Z</time>
      </trkpt>
      <trkpt lat="46.169001990929246" lon="6.034442977979779">
        <ele>445</ele>
        <time>2011-06-18T12:13:10Z</time>
      </trkpt>
      <trkpt lat="46.168765956535935" lon="6.033784998580813">
        <ele>445</ele>
        <time>2011-06-18T12:13:20Z</time>
      </trkpt>
      <trkpt lat="46.168559929355979" lon="6.03319994173944">
        <ele>445</ele>
        <time>2011-06-18T12:13:29Z</time>
      </trkpt>
      <trkpt lat="46.168246949091554" lon="6.032280949875712">
        <ele>444.79998779296875</ele>
        <time>2011-06-18T12:13:43Z</time>
      </trkpt>
      <trkpt lat="46.167887952178717" lon="6.031160959973931">
        <ele>444.79998779296875</ele>
        <time>2011-06-18T12:14:00Z</time>
      </trkpt>
      <trkpt lat="46.167684942483902" lon="6.030551930889487">
        <ele>444.60000610351562</ele>
        <time>2011-06-18T12:14:09Z</time>
      </trkpt>
      <trkpt lat="46.167320916429162" lon="6.02946194820106">
        <ele>444.60000610351562</ele>
        <time>2011-06-18T12:14:25Z</time>
      </trkpt>
      <trkpt lat="46.167081948369741" lon="6.02874998934567">
        <ele>444.60000610351562</ele>
        <time>2011-06-18T12:14:36Z</time>
      </trkpt>
      <trkpt lat="46.166685987263918" lon="6.027613990008831">
        <ele>444.39999389648438</ele>
        <time>2011-06-18T12:14:53Z</time>
      </trkpt>
      <trkpt lat="46.16643494926393" lon="6.026899935677648">
        <ele>444</ele>
        <time>2011-06-18T12:15:04Z</time>
      </trkpt>
      <trkpt lat="46.166205955669284" lon="6.026275986805558">
        <ele>443.60000610351562</ele>
        <time>2011-06-18T12:15:14Z</time>
      </trkpt>
      <trkpt lat="46.165924994274974" lon="6.02550795301795">
        <ele>443.60000610351562</ele>
        <time>2011-06-18T12:15:27Z</time>
      </trkpt>
      <trkpt lat="46.16574595682323" lon="6.02505692280829">
        <ele>443.39999389648437</ele>
        <time>2011-06-18T12:15:39Z</time>
      </trkpt>
      <trkpt lat="46.165515957400203" lon="6.02445594035089">
        <ele>443.20001220703125</ele>
        <time>2011-06-18T12:15:49Z</time>
      </trkpt>
      <trkpt lat="46.165092922747135" lon="6.023421948775649">
        <ele>441.79998779296875</ele>
        <time>2011-06-18T12:16:03Z</time>
      </trkpt>
      <trkpt lat="46.164722945541143" lon="6.022549979388714">
        <ele>440</ele>
        <time>2011-06-18T12:16:13Z</time>
      </trkpt>
      <trkpt lat="46.164378952234983" lon="6.021713968366385">
        <ele>438.60000610351562</ele>
        <time>2011-06-18T12:16:23Z</time>
      </trkpt>
      <trkpt lat="46.164126992225647" lon="6.021151961758733">
        <ele>438.39999389648437</ele>
        <time>2011-06-18T12:16:31Z</time>
      </trkpt>
      <trkpt lat="46.163841923698783" lon="6.020452994853258">
        <ele>438.79998779296875</ele>
        <time>2011-06-18T12:16:42Z</time>
      </trkpt>
      <trkpt lat="46.16344696842134" lon="6.019540959969163">
        <ele>439.60000610351562</ele>
        <time>2011-06-18T12:16:58Z</time>
      </trkpt>
      <trkpt lat="46.163090988993645" lon="6.018729927018285">
        <ele>440.39999389648437</ele>
        <time>2011-06-18T12:17:14Z</time>
      </trkpt>
      <trkpt lat="46.162868952378631" lon="6.018100949004293">
        <ele>440.60000610351562</ele>
        <time>2011-06-18T12:17:27Z</time>
      </trkpt>
      <trkpt lat="46.162633923813701" lon="6.017650924623013">
        <ele>440.79998779296875</ele>
        <time>2011-06-18T12:17:38Z</time>
      </trkpt>
      <trkpt lat="46.162368971854448" lon="6.017044996842742">
        <ele>440.60000610351562</ele>
        <time>2011-06-18T12:17:48Z</time>
      </trkpt>
      <trkpt lat="46.162084992974997" lon="6.016366984695196">
        <ele>440.39999389648437</ele>
        <time>2011-06-18T12:17:58Z</time>
      </trkpt>
      <trkpt lat="46.161785926669836" lon="6.015662988647819">
        <ele>440.20001220703125</ele>
        <time>2011-06-18T12:18:08Z</time>
      </trkpt>
      <trkpt lat="46.161504965275526" lon="6.01500098593533">
        <ele>440</ele>
        <time>2011-06-18T12:18:17Z</time>
      </trkpt>
      <trkpt lat="46.161204976961017" lon="6.014293972402811">
        <ele>439.39999389648437</ele>
        <time>2011-06-18T12:18:27Z</time>
      </trkpt>
      <trkpt lat="46.160887973383069" lon="6.013528956100345">
        <ele>438.79998779296875</ele>
        <time>2011-06-18T12:18:38Z</time>
      </trkpt>
      <trkpt lat="46.160619920119643" lon="6.01289595477283">
        <ele>438.60000610351562</ele>
        <time>2011-06-18T12:18:47Z</time>
      </trkpt>
      <trkpt lat="46.160311968997121" lon="6.012179972603917">
        <ele>438.39999389648437</ele>
        <time>2011-06-18T12:18:57Z</time>
      </trkpt>
      <trkpt lat="46.16000896319747" lon="6.011458961293101">
        <ele>438.20001220703125</ele>
        <time>2011-06-18T12:19:07Z</time>
      </trkpt>
      <trkpt lat="46.159475957974792" lon="6.010218942537904">
        <ele>437.60000610351562</ele>
        <time>2011-06-18T12:19:25Z</time>
      </trkpt>
      <trkpt lat="46.15921494551003" lon="6.00961091928184">
        <ele>437.20001220703125</ele>
        <time>2011-06-18T12:19:34Z</time>
      </trkpt>
      <trkpt lat="46.15867892280221" lon="6.008337959647179">
        <ele>436.20001220703125</ele>
        <time>2011-06-18T12:19:53Z</time>
      </trkpt>
      <trkpt lat="46.158362925052643" lon="6.007582917809486">
        <ele>436</ele>
        <time>2011-06-18T12:20:04Z</time>
      </trkpt>
      <trkpt lat="46.158091938123107" lon="6.006915969774127">
        <ele>435.79998779296875</ele>
        <time>2011-06-18T12:20:14Z</time>
      </trkpt>
      <trkpt lat="46.157631939277053" lon="6.005845936015248">
        <ele>435.20001220703125</ele>
        <time>2011-06-18T12:20:30Z</time>
      </trkpt>
      <trkpt lat="46.157357934862375" lon="6.005229949951172">
        <ele>434.79998779296875</ele>
        <time>2011-06-18T12:20:39Z</time>
      </trkpt>
      <trkpt lat="46.157038919627666" lon="6.004484966397286">
        <ele>434.39999389648437</ele>
        <time>2011-06-18T12:20:50Z</time>
      </trkpt>
      <trkpt lat="46.156775979325175" lon="6.003857916221023">
        <ele>434</ele>
        <time>2011-06-18T12:20:59Z</time>
      </trkpt>
      <trkpt lat="46.156521923840046" lon="6.003259951248765">
        <ele>433.79998779296875</ele>
        <time>2011-06-18T12:21:08Z</time>
      </trkpt>
      <trkpt lat="46.156213972717524" lon="6.00251697935164">
        <ele>433.39999389648437</ele>
        <time>2011-06-18T12:21:21Z</time>
      </trkpt>
      <trkpt lat="46.155839972198009" lon="6.001564962789416">
        <ele>432.20001220703125</ele>
        <time>2011-06-18T12:21:36Z</time>
      </trkpt>
      <trkpt lat="46.15556295029819" lon="6.000789972022176">
        <ele>431.60000610351562</ele>
        <time>2011-06-18T12:21:46Z</time>
      </trkpt>
      <trkpt lat="46.15532792173326" lon="6.000105924904347">
        <ele>430.79998779296875</ele>
        <time>2011-06-18T12:21:55Z</time>
      </trkpt>
      <trkpt lat="46.155041931197047" lon="5.999129936099052">
        <ele>429.79998779296875</ele>
        <time>2011-06-18T12:22:09Z</time>
      </trkpt>
      <trkpt lat="46.154861971735954" lon="5.99852392449975">
        <ele>429.20001220703125</ele>
        <time>2011-06-18T12:22:17Z</time>
      </trkpt>
      <trkpt lat="46.154684945940971" lon="5.997923947870731">
        <ele>428.39999389648437</ele>
        <time>2011-06-18T12:22:25Z</time>
      </trkpt>
      <trkpt lat="46.154476990923285" lon="5.99690898321569">
        <ele>427.20001220703125</ele>
        <time>2011-06-18T12:22:41Z</time>
      </trkpt>
      <trkpt lat="46.154520995914936" lon="5.996215967461467">
        <ele>425.20001220703125</ele>
        <time>2011-06-18T12:22:51Z</time>
      </trkpt>
      <trkpt lat="46.154727945104241" lon="5.995154986158013">
        <ele>422.20001220703125</ele>
        <time>2011-06-18T12:23:03Z</time>
      </trkpt>
      <trkpt lat="46.154879992827773" lon="5.994382929056883">
        <ele>420.60000610351562</ele>
        <time>2011-06-18T12:23:10Z</time>
      </trkpt>
      <trkpt lat="46.155035980045795" lon="5.993583966046572">
        <ele>418.60000610351562</ele>
        <time>2011-06-18T12:23:17Z</time>
      </trkpt>
      <trkpt lat="46.15556194446981" lon="5.992538994178176">
        <ele>414.60000610351562</ele>
        <time>2011-06-18T12:23:29Z</time>
      </trkpt>
      <trkpt lat="46.156127974390984" lon="5.99173097871244">
        <ele>411.79998779296875</ele>
        <time>2011-06-18T12:23:39Z</time>
      </trkpt>
      <trkpt lat="46.156538939103484" lon="5.990737974643707">
        <ele>409.20001220703125</ele>
        <time>2011-06-18T12:23:49Z</time>
      </trkpt>
      <trkpt lat="46.156643964350224" lon="5.990023920312524">
        <ele>407.39999389648438</ele>
        <time>2011-06-18T12:23:55Z</time>
      </trkpt>
      <trkpt lat="46.156642958521843" lon="5.989191932603717">
        <ele>405.79998779296875</ele>
        <time>2011-06-18T12:24:02Z</time>
      </trkpt>
      <trkpt lat="46.156623931601644" lon="5.988013939931989">
        <ele>402.39999389648437</ele>
        <time>2011-06-18T12:24:12Z</time>
      </trkpt>
      <trkpt lat="46.156612951308489" lon="5.987065946683288">
        <ele>400</ele>
        <time>2011-06-18T12:24:20Z</time>
      </trkpt>
      <trkpt lat="46.156597947701812" lon="5.98586498759687">
        <ele>397</ele>
        <time>2011-06-18T12:24:30Z</time>
      </trkpt>
      <trkpt lat="46.156583949923515" lon="5.984651958569884">
        <ele>395</ele>
        <time>2011-06-18T12:24:40Z</time>
      </trkpt>
      <trkpt lat="46.156569952145219" lon="5.983456950634718">
        <ele>391.79998779296875</ele>
        <time>2011-06-18T12:24:50Z</time>
      </trkpt>
      <trkpt lat="46.1563999671489" lon="5.982405943796039">
        <ele>388.79998779296875</ele>
        <time>2011-06-18T12:25:00Z</time>
      </trkpt>
      <trkpt lat="46.156145995482802" lon="5.981859946623445">
        <ele>387</ele>
        <time>2011-06-18T12:25:06Z</time>
      </trkpt>
      <trkpt lat="46.155699994415045" lon="5.981002980843186">
        <ele>384</ele>
        <time>2011-06-18T12:25:15Z</time>
      </trkpt>
      <trkpt lat="46.15523798391223" lon="5.980098992586136">
        <ele>380.60000610351562</ele>
        <time>2011-06-18T12:25:24Z</time>
      </trkpt>
      <trkpt lat="46.1548509914428" lon="5.979464985430241">
        <ele>378.39999389648437</ele>
        <time>2011-06-18T12:25:31Z</time>
      </trkpt>
      <trkpt lat="46.154468944296241" lon="5.978952934965491">
        <ele>376</ele>
        <time>2011-06-18T12:25:37Z</time>
      </trkpt>
      <trkpt lat="46.153912972658873" lon="5.97834792919457">
        <ele>374.20001220703125</ele>
        <time>2011-06-18T12:25:45Z</time>
      </trkpt>
      <trkpt lat="46.153514999896288" lon="5.977975940331817">
        <ele>373.79998779296875</ele>
        <time>2011-06-18T12:25:51Z</time>
      </trkpt>
      <trkpt lat="46.152767920866609" lon="5.977204972878099">
        <ele>372.60000610351562</ele>
        <time>2011-06-18T12:26:05Z</time>
      </trkpt>
      <trkpt lat="46.152343964204192" lon="5.97662896849215">
        <ele>372.20001220703125</ele>
        <time>2011-06-18T12:26:15Z</time>
      </trkpt>
      <trkpt lat="46.151884971186519" lon="5.975987920537591">
        <ele>371.79998779296875</ele>
        <time>2011-06-18T12:26:27Z</time>
      </trkpt>
      <trkpt lat="46.151291951537132" lon="5.975153921172023">
        <ele>371</ele>
        <time>2011-06-18T12:26:44Z</time>
      </trkpt>
      <trkpt lat="46.150929937139153" lon="5.974650923162699">
        <ele>370.60000610351562</ele>
        <time>2011-06-18T12:26:54Z</time>
      </trkpt>
      <trkpt lat="46.150316968560219" lon="5.97381298430264">
        <ele>369.39999389648437</ele>
        <time>2011-06-18T12:27:11Z</time>
      </trkpt>
      <trkpt lat="46.149957971647382" lon="5.97336295992136">
        <ele>369</ele>
        <time>2011-06-18T12:27:21Z</time>
      </trkpt>
      <trkpt lat="46.149562932550907" lon="5.972795924171805">
        <ele>368.79998779296875</ele>
        <time>2011-06-18T12:27:33Z</time>
      </trkpt>
      <trkpt lat="46.149172922596335" lon="5.972285969182849">
        <ele>368</ele>
        <time>2011-06-18T12:27:46Z</time>
      </trkpt>
      <trkpt lat="46.148609993979335" lon="5.971586918458343">
        <ele>367.20001220703125</ele>
        <time>2011-06-18T12:28:03Z</time>
      </trkpt>
      <trkpt lat="46.148216966539621" lon="5.970997922122479">
        <ele>366.39999389648437</ele>
        <time>2011-06-18T12:28:18Z</time>
      </trkpt>
      <trkpt lat="46.147859981283545" lon="5.970481932163239">
        <ele>366.39999389648437</ele>
        <time>2011-06-18T12:28:30Z</time>
      </trkpt>
      <trkpt lat="46.147455973550677" lon="5.969842979684472">
        <ele>365.60000610351562</ele>
        <time>2011-06-18T12:28:45Z</time>
      </trkpt>
      <trkpt lat="46.147003937512636" lon="5.969454981386662">
        <ele>365.60000610351562</ele>
        <time>2011-06-18T12:28:59Z</time>
      </trkpt>
      <trkpt lat="46.146487947553396" lon="5.969845997169614">
        <ele>363.79998779296875</ele>
        <time>2011-06-18T12:29:12Z</time>
      </trkpt>
      <trkpt lat="46.145738940685987" lon="5.970330974087119">
        <ele>363.20001220703125</ele>
        <time>2011-06-18T12:29:26Z</time>
      </trkpt>
      <trkpt lat="46.145101999863982" lon="5.970450919121504">
        <ele>363.39999389648437</ele>
        <time>2011-06-18T12:29:37Z</time>
      </trkpt>
      <trkpt lat="46.144367996603251" lon="5.971023989841342">
        <ele>364</ele>
        <time>2011-06-18T12:29:51Z</time>
      </trkpt>
      <trkpt lat="46.143620917573571" lon="5.971766961738467">
        <ele>361.60000610351562</ele>
        <time>2011-06-18T12:30:04Z</time>
      </trkpt>
      <trkpt lat="46.142896972596645" lon="5.972479926422238">
        <ele>358</ele>
        <time>2011-06-18T12:30:15Z</time>
      </trkpt>
      <trkpt lat="46.142321974039078" lon="5.973090967163444">
        <ele>356.39999389648438</ele>
        <time>2011-06-18T12:30:23Z</time>
      </trkpt>
      <trkpt lat="46.141415974125266" lon="5.973006980493665">
        <ele>357.79998779296875</ele>
        <time>2011-06-18T12:30:37Z</time>
      </trkpt>
      <trkpt lat="46.141013978049159" lon="5.972578916698694">
        <ele>359.60000610351562</ele>
        <time>2011-06-18T12:30:47Z</time>
      </trkpt>
      <trkpt lat="46.140518942847848" lon="5.972214974462986">
        <ele>362.60000610351562</ele>
        <time>2011-06-18T12:31:01Z</time>
      </trkpt>
      <trkpt lat="46.139925923198462" lon="5.971696972846985">
        <ele>365</ele>
        <time>2011-06-18T12:31:20Z</time>
      </trkpt>
      <trkpt lat="46.139454944059253" lon="5.971092972904444">
        <ele>367.79998779296875</ele>
        <time>2011-06-18T12:31:36Z</time>
      </trkpt>
      <trkpt lat="46.139100976288319" lon="5.970474975183606">
        <ele>371.20001220703125</ele>
        <time>2011-06-18T12:31:52Z</time>
      </trkpt>
      <trkpt lat="46.138776931911707" lon="5.969912968575954">
        <ele>374.79998779296875</ele>
        <time>2011-06-18T12:32:09Z</time>
      </trkpt>
      <trkpt lat="46.138348951935768" lon="5.969545925036073">
        <ele>377.60000610351562</ele>
        <time>2011-06-18T12:32:26Z</time>
      </trkpt>
      <trkpt lat="46.137871937826276" lon="5.969254989176989">
        <ele>381.20001220703125</ele>
        <time>2011-06-18T12:32:46Z</time>
      </trkpt>
      <trkpt lat="46.138018956407905" lon="5.969920931383967">
        <ele>385.39999389648437</ele>
        <time>2011-06-18T12:34:10Z</time>
      </trkpt>
      <trkpt lat="46.138443918898702" lon="5.970276994630694">
        <ele>388.39999389648437</ele>
        <time>2011-06-18T12:34:22Z</time>
      </trkpt>
      <trkpt lat="46.138796964660287" lon="5.970674967393279">
        <ele>391.39999389648437</ele>
        <time>2011-06-18T12:34:34Z</time>
      </trkpt>
      <trkpt lat="46.138908946886659" lon="5.971631929278374">
        <ele>395.60000610351562</ele>
        <time>2011-06-18T12:34:53Z</time>
      </trkpt>
      <trkpt lat="46.138621950522065" lon="5.972393928095698">
        <ele>399.20001220703125</ele>
        <time>2011-06-18T12:35:12Z</time>
      </trkpt>
      <trkpt lat="46.138205956667662" lon="5.973122986033559">
        <ele>402.79998779296875</ele>
        <time>2011-06-18T12:35:31Z</time>
      </trkpt>
      <trkpt lat="46.137924995273352" lon="5.973673928529024">
        <ele>406</ele>
        <time>2011-06-18T12:35:47Z</time>
      </trkpt>
      <trkpt lat="46.1377929802984" lon="5.974557967856526">
        <ele>410</ele>
        <time>2011-06-18T12:36:08Z</time>
      </trkpt>
      <trkpt lat="46.137550994753838" lon="5.975237991660833">
        <ele>413.60000610351562</ele>
        <time>2011-06-18T12:36:26Z</time>
      </trkpt>
      <trkpt lat="46.137014972046018" lon="5.975365983322263">
        <ele>417.20001220703125</ele>
        <time>2011-06-18T12:36:46Z</time>
      </trkpt>
      <trkpt lat="46.136489929631352" lon="5.975419962778688">
        <ele>419.39999389648437</ele>
        <time>2011-06-18T12:37:04Z</time>
      </trkpt>
      <trkpt lat="46.135872937738895" lon="5.975518953055143">
        <ele>421.20001220703125</ele>
        <time>2011-06-18T12:37:21Z</time>
      </trkpt>
      <trkpt lat="46.135259969159961" lon="5.975874932482839">
        <ele>424</ele>
        <time>2011-06-18T12:37:38Z</time>
      </trkpt>
      <trkpt lat="46.134831989184022" lon="5.976235941052437">
        <ele>426.39999389648437</ele>
        <time>2011-06-18T12:37:53Z</time>
      </trkpt>
      <trkpt lat="46.134445918723941" lon="5.976569959893823">
        <ele>428.60000610351562</ele>
        <time>2011-06-18T12:38:07Z</time>
      </trkpt>
      <trkpt lat="46.134040988981724" lon="5.977112939581275">
        <ele>429.60000610351562</ele>
        <time>2011-06-18T12:38:22Z</time>
      </trkpt>
      <trkpt lat="46.133600939065218" lon="5.977587942034006">
        <ele>431</ele>
        <time>2011-06-18T12:38:35Z</time>
      </trkpt>
      <trkpt lat="46.133109927177429" lon="5.977835962548852">
        <ele>432.60000610351562</ele>
        <time>2011-06-18T12:38:47Z</time>
      </trkpt>
      <trkpt lat="46.13250995054841" lon="5.978070991113782">
        <ele>434</ele>
        <time>2011-06-18T12:39:02Z</time>
      </trkpt>
      <trkpt lat="46.131909973919392" lon="5.978265954181552">
        <ele>434</ele>
        <time>2011-06-18T12:39:16Z</time>
      </trkpt>
      <trkpt lat="46.131019983440638" lon="5.978898955509067">
        <ele>436.39999389648437</ele>
        <time>2011-06-18T12:39:40Z</time>
      </trkpt>
      <trkpt lat="46.130502987653017" lon="5.979369934648275">
        <ele>437.79998779296875</ele>
        <time>2011-06-18T12:39:57Z</time>
      </trkpt>
      <trkpt lat="46.129944920539856" lon="5.979879973456264">
        <ele>443</ele>
        <time>2011-06-18T12:40:16Z</time>
      </trkpt>
      <trkpt lat="46.129469918087125" lon="5.9802579972893">
        <ele>445.60000610351562</ele>
        <time>2011-06-18T12:40:34Z</time>
      </trkpt>
      <trkpt lat="46.128960968926549" lon="5.980216925963759">
        <ele>446.39999389648437</ele>
        <time>2011-06-18T12:40:49Z</time>
      </trkpt>
      <trkpt lat="46.128409942612052" lon="5.979612926021218">
        <ele>446.39999389648437</ele>
        <time>2011-06-18T12:41:04Z</time>
      </trkpt>
      <trkpt lat="46.128075923770666" lon="5.979169942438602">
        <ele>446.20001220703125</ele>
        <time>2011-06-18T12:41:13Z</time>
      </trkpt>
      <trkpt lat="46.127682980149984" lon="5.978730982169509">
        <ele>446.39999389648437</ele>
        <time>2011-06-18T12:41:23Z</time>
      </trkpt>
      <trkpt lat="46.127284923568368" lon="5.978299984708428">
        <ele>447.60000610351562</ele>
        <time>2011-06-18T12:41:33Z</time>
      </trkpt>
      <trkpt lat="46.126917963847518" lon="5.977899916470051">
        <ele>448.20001220703125</ele>
        <time>2011-06-18T12:41:43Z</time>
      </trkpt>
      <trkpt lat="46.126328967511654" lon="5.977264987304807">
        <ele>449.79998779296875</ele>
        <time>2011-06-18T12:42:00Z</time>
      </trkpt>
      <trkpt lat="46.125883972272277" lon="5.976788979023695">
        <ele>450.60000610351562</ele>
        <time>2011-06-18T12:42:12Z</time>
      </trkpt>
      <trkpt lat="46.125487927347422" lon="5.976357981562614">
        <ele>451.60000610351562</ele>
        <time>2011-06-18T12:42:23Z</time>
      </trkpt>
      <trkpt lat="46.125060953199863" lon="5.975903933867812">
        <ele>452.60000610351562</ele>
        <time>2011-06-18T12:42:35Z</time>
      </trkpt>
      <trkpt lat="46.124610928818583" lon="5.975420968607068">
        <ele>453.39999389648437</ele>
        <time>2011-06-18T12:42:48Z</time>
      </trkpt>
      <trkpt lat="46.123973987996578" lon="5.974760977551341">
        <ele>454.20001220703125</ele>
        <time>2011-06-18T12:43:05Z</time>
      </trkpt>
      <trkpt lat="46.123349955305457" lon="5.974045917391777">
        <ele>455.60000610351562</ele>
        <time>2011-06-18T12:43:22Z</time>
      </trkpt>
      <trkpt lat="46.123008979484439" lon="5.973478965461254">
        <ele>456.60000610351562</ele>
        <time>2011-06-18T12:43:33Z</time>
      </trkpt>
      <trkpt lat="46.122630955651402" lon="5.97286893054843">
        <ele>457.20001220703125</ele>
        <time>2011-06-18T12:43:45Z</time>
      </trkpt>
      <trkpt lat="46.122092921286821" lon="5.971976928412914">
        <ele>457</ele>
        <time>2011-06-18T12:44:01Z</time>
      </trkpt>
      <trkpt lat="46.121434941887856" lon="5.971141923218966">
        <ele>458.20001220703125</ele>
        <time>2011-06-18T12:44:18Z</time>
      </trkpt>
      <trkpt lat="46.12079992890358" lon="5.970739927142859">
        <ele>459.60000610351562</ele>
        <time>2011-06-18T12:44:33Z</time>
      </trkpt>
      <trkpt lat="46.120095932856202" lon="5.970621993765235">
        <ele>461.39999389648438</ele>
        <time>2011-06-18T12:44:50Z</time>
      </trkpt>
      <trkpt lat="46.119244918227196" lon="5.97048394382">
        <ele>463</ele>
        <time>2011-06-18T12:45:11Z</time>
      </trkpt>
      <trkpt lat="46.118781985715032" lon="5.970351928845048">
        <ele>463.39999389648437</ele>
        <time>2011-06-18T12:45:21Z</time>
      </trkpt>
      <trkpt lat="46.118244957178831" lon="5.970178926363587">
        <ele>463</ele>
        <time>2011-06-18T12:45:32Z</time>
      </trkpt>
      <trkpt lat="46.117695942521095" lon="5.970014976337552">
        <ele>462.39999389648437</ele>
        <time>2011-06-18T12:45:43Z</time>
      </trkpt>
      <trkpt lat="46.117169978097081" lon="5.969844991341233">
        <ele>463</ele>
        <time>2011-06-18T12:45:54Z</time>
      </trkpt>
      <trkpt lat="46.116571929305792" lon="5.969664948061109">
        <ele>464</ele>
        <time>2011-06-18T12:46:08Z</time>
      </trkpt>
      <trkpt lat="46.116118971258402" lon="5.969555983319879">
        <ele>464</ele>
        <time>2011-06-18T12:46:19Z</time>
      </trkpt>
      <trkpt lat="46.115464931353927" lon="5.96926094032824">
        <ele>464.39999389648438</ele>
        <time>2011-06-18T12:46:34Z</time>
      </trkpt>
      <trkpt lat="46.114702932536602" lon="5.968753919005394">
        <ele>463.79998779296875</ele>
        <time>2011-06-18T12:46:51Z</time>
      </trkpt>
      <trkpt lat="46.114092981442809" lon="5.968667920678854">
        <ele>462.79998779296875</ele>
        <time>2011-06-18T12:47:02Z</time>
      </trkpt>
      <trkpt lat="46.113418992608786" lon="5.969032952561975">
        <ele>464.20001220703125</ele>
        <time>2011-06-18T12:47:16Z</time>
      </trkpt>
      <trkpt lat="46.112985983490944" lon="5.969318943098187">
        <ele>465.79998779296875</ele>
        <time>2011-06-18T12:47:26Z</time>
      </trkpt>
      <trkpt lat="46.112583987414837" lon="5.969589930027723">
        <ele>467.20001220703125</ele>
        <time>2011-06-18T12:47:39Z</time>
      </trkpt>
      <trkpt lat="46.112627992406487" lon="5.968636991456151">
        <ele>466.79998779296875</ele>
        <time>2011-06-18T12:47:57Z</time>
      </trkpt>
      <trkpt lat="46.112781967967749" lon="5.967670977115631">
        <ele>466</ele>
        <time>2011-06-18T12:48:11Z</time>
      </trkpt>
      <trkpt lat="46.112638972699642" lon="5.966575965285301">
        <ele>466.39999389648437</ele>
        <time>2011-06-18T12:48:29Z</time>
      </trkpt>
      <trkpt lat="46.112374942749739" lon="5.965721933171153">
        <ele>465.60000610351562</ele>
        <time>2011-06-18T12:48:43Z</time>
      </trkpt>
      <trkpt lat="46.111978981643915" lon="5.96521994099021">
        <ele>465.60000610351562</ele>
        <time>2011-06-18T12:48:53Z</time>
      </trkpt>
      <trkpt lat="46.111609926447272" lon="5.964693976566196">
        <ele>466.20001220703125</ele>
        <time>2011-06-18T12:49:03Z</time>
      </trkpt>
      <trkpt lat="46.111239949241281" lon="5.964149991050363">
        <ele>467.20001220703125</ele>
        <time>2011-06-18T12:49:15Z</time>
      </trkpt>
      <trkpt lat="46.110979942604899" lon="5.963584966957569">
        <ele>468.20001220703125</ele>
        <time>2011-06-18T12:49:26Z</time>
      </trkpt>
      <trkpt lat="46.110674925148487" lon="5.963106947019696">
        <ele>468.79998779296875</ele>
        <time>2011-06-18T12:49:36Z</time>
      </trkpt>
      <trkpt lat="46.110104955732822" lon="5.963247930631042">
        <ele>470.60000610351562</ele>
        <time>2011-06-18T12:49:49Z</time>
      </trkpt>
      <trkpt lat="46.109510930255055" lon="5.963502991944552">
        <ele>472.60000610351562</ele>
        <time>2011-06-18T12:50:06Z</time>
      </trkpt>
      <trkpt lat="46.109034921973944" lon="5.963626960292459">
        <ele>474.20001220703125</ele>
        <time>2011-06-18T12:50:19Z</time>
      </trkpt>
      <trkpt lat="46.108541982248425" lon="5.963689992204309">
        <ele>476.20001220703125</ele>
        <time>2011-06-18T12:50:35Z</time>
      </trkpt>
      <trkpt lat="46.108334949240088" lon="5.962738981470466">
        <ele>475.60000610351562</ele>
        <time>2011-06-18T12:50:51Z</time>
      </trkpt>
      <trkpt lat="46.108130933716893" lon="5.961670959368348">
        <ele>477</ele>
        <time>2011-06-18T12:51:10Z</time>
      </trkpt>
      <trkpt lat="46.107959942892194" lon="5.960469916462898">
        <ele>475.60000610351562</ele>
        <time>2011-06-18T12:51:29Z</time>
      </trkpt>
      <trkpt lat="46.107915937900543" lon="5.959639940410852">
        <ele>473.20001220703125</ele>
        <time>2011-06-18T12:51:38Z</time>
      </trkpt>
      <trkpt lat="46.107899928465486" lon="5.95886193215847">
        <ele>475.79998779296875</ele>
        <time>2011-06-18T12:51:50Z</time>
      </trkpt>
      <trkpt lat="46.107931947335601" lon="5.957536920905113">
        <ele>476.79998779296875</ele>
        <time>2011-06-18T12:52:08Z</time>
      </trkpt>
      <trkpt lat="46.107958937063813" lon="5.956785986199975">
        <ele>476.79998779296875</ele>
        <time>2011-06-18T12:52:18Z</time>
      </trkpt>
      <trkpt lat="46.108008977025747" lon="5.955677982419729">
        <ele>475.60000610351562</ele>
        <time>2011-06-18T12:52:32Z</time>
      </trkpt>
      <trkpt lat="46.10803596675396" lon="5.954567966982722">
        <ele>474.79998779296875</ele>
        <time>2011-06-18T12:52:46Z</time>
      </trkpt>
      <trkpt lat="46.108066979795694" lon="5.953497933223844">
        <ele>475.60000610351562</ele>
        <time>2011-06-18T12:53:00Z</time>
      </trkpt>
      <trkpt lat="46.108084917068481" lon="5.952938944101334">
        <ele>475.60000610351562</ele>
        <time>2011-06-18T13:00:05Z</time>
      </trkpt>
      <trkpt lat="46.107630953192711" lon="5.952721936628223">
        <ele>477</ele>
        <time>2011-06-18T13:00:37Z</time>
      </trkpt>
      <trkpt lat="46.107119992375374" lon="5.952520938590169">
        <ele>479.20001220703125</ele>
        <time>2011-06-18T13:01:01Z</time>
      </trkpt>
      <trkpt lat="46.106676924973726" lon="5.952273923903704">
        <ele>481</ele>
        <time>2011-06-18T13:01:18Z</time>
      </trkpt>
      <trkpt lat="46.106195971369743" lon="5.952003942802548">
        <ele>483.20001220703125</ele>
        <time>2011-06-18T13:01:34Z</time>
      </trkpt>
      <trkpt lat="46.105711916461587" lon="5.951796993613243">
        <ele>485.39999389648437</ele>
        <time>2011-06-18T13:01:51Z</time>
      </trkpt>
      <trkpt lat="46.105231968685985" lon="5.9517059661448">
        <ele>487.39999389648437</ele>
        <time>2011-06-18T13:02:12Z</time>
      </trkpt>
      <trkpt lat="46.104739950969815" lon="5.951521983370185">
        <ele>490.20001220703125</ele>
        <time>2011-06-18T13:07:41Z</time>
      </trkpt>
      <trkpt lat="46.104187918826938" lon="5.951247978955507">
        <ele>492</ele>
        <time>2011-06-18T13:07:58Z</time>
      </trkpt>
      <trkpt lat="46.103740995749831" lon="5.950798960402608">
        <ele>493.20001220703125</ele>
        <time>2011-06-18T13:08:12Z</time>
      </trkpt>
      <trkpt lat="46.103216959163547" lon="5.950322952121496">
        <ele>495.79998779296875</ele>
        <time>2011-06-18T13:08:30Z</time>
      </trkpt>
      <trkpt lat="46.102820998057723" lon="5.950009971857071">
        <ele>497.39999389648437</ele>
        <time>2011-06-18T13:08:45Z</time>
      </trkpt>
      <trkpt lat="46.10249393619597" lon="5.949022918939591">
        <ele>499.60000610351562</ele>
        <time>2011-06-18T13:09:05Z</time>
      </trkpt>
      <trkpt lat="46.10223594121635" lon="5.94794693402946">
        <ele>502.60000610351562</ele>
        <time>2011-06-18T13:09:22Z</time>
      </trkpt>
      <trkpt lat="46.102070985361934" lon="5.94682794995606">
        <ele>504.79998779296875</ele>
        <time>2011-06-18T13:09:40Z</time>
      </trkpt>
      <trkpt lat="46.102030919864774" lon="5.946177933365107">
        <ele>504.20001220703125</ele>
        <time>2011-06-18T13:09:49Z</time>
      </trkpt>
      <trkpt lat="46.102050952613354" lon="5.945499921217561">
        <ele>503.39999389648437</ele>
        <time>2011-06-18T13:09:57Z</time>
      </trkpt>
      <trkpt lat="46.102143991738558" lon="5.94438093714416">
        <ele>502</ele>
        <time>2011-06-18T13:10:09Z</time>
      </trkpt>
      <trkpt lat="46.102197971194983" lon="5.943663949146867">
        <ele>500</ele>
        <time>2011-06-18T13:10:16Z</time>
      </trkpt>
      <trkpt lat="46.102242982015014" lon="5.942825926467776">
        <ele>498.20001220703125</ele>
        <time>2011-06-18T13:10:23Z</time>
      </trkpt>
      <trkpt lat="46.102128988131881" lon="5.94214397482574">
        <ele>496</ele>
        <time>2011-06-18T13:10:30Z</time>
      </trkpt>
      <trkpt lat="46.10184894874692" lon="5.941316932439804">
        <ele>494.20001220703125</ele>
        <time>2011-06-18T13:10:40Z</time>
      </trkpt>
      <trkpt lat="46.101722968742251" lon="5.940311942249537">
        <ele>493.39999389648437</ele>
        <time>2011-06-18T13:10:53Z</time>
      </trkpt>
      <trkpt lat="46.101321978494525" lon="5.939495963975787">
        <ele>492.79998779296875</ele>
        <time>2011-06-18T13:11:07Z</time>
      </trkpt>
      <trkpt lat="46.100915959104896" lon="5.93861997127533">
        <ele>492.60000610351562</ele>
        <time>2011-06-18T13:11:20Z</time>
      </trkpt>
      <trkpt lat="46.100803976878524" lon="5.937946988269687">
        <ele>495.60000610351562</ele>
        <time>2011-06-18T13:11:34Z</time>
      </trkpt>
      <trkpt lat="46.100693922489882" lon="5.937151964753866">
        <ele>495.79998779296875</ele>
        <time>2011-06-18T13:11:49Z</time>
      </trkpt>
      <trkpt lat="46.100651929154992" lon="5.936445957049727">
        <ele>495.39999389648438</ele>
        <time>2011-06-18T13:12:01Z</time>
      </trkpt>
      <trkpt lat="46.100399969145656" lon="5.935837933793664">
        <ele>493.20001220703125</ele>
        <time>2011-06-18T13:12:11Z</time>
      </trkpt>
      <trkpt lat="46.10038798302412" lon="5.935163944959641">
        <ele>494.20001220703125</ele>
        <time>2011-06-18T13:12:24Z</time>
      </trkpt>
      <trkpt lat="46.100706998258829" lon="5.93436892144382">
        <ele>494.20001220703125</ele>
        <time>2011-06-18T13:12:40Z</time>
      </trkpt>
      <trkpt lat="46.100935991853476" lon="5.93327097594738">
        <ele>493.20001220703125</ele>
        <time>2011-06-18T13:12:56Z</time>
      </trkpt>
      <trkpt lat="46.101192981004715" lon="5.932107986882329">
        <ele>489.60000610351562</ele>
        <time>2011-06-18T13:13:10Z</time>
      </trkpt>
      <trkpt lat="46.101369922980666" lon="5.931413965299726">
        <ele>485.79998779296875</ele>
        <time>2011-06-18T13:13:20Z</time>
      </trkpt>
      <trkpt lat="46.101447958499193" lon="5.930810971185565">
        <ele>485</ele>
        <time>2011-06-18T13:13:34Z</time>
      </trkpt>
      <trkpt lat="46.101513924077153" lon="5.929895918816328">
        <ele>486.79998779296875</ele>
        <time>2011-06-18T13:13:47Z</time>
      </trkpt>
      <trkpt lat="46.101574944332242" lon="5.929127968847752">
        <ele>489.20001220703125</ele>
        <time>2011-06-18T13:14:02Z</time>
      </trkpt>
      <trkpt lat="46.101693967357278" lon="5.928485998883843">
        <ele>489.39999389648437</ele>
        <time>2011-06-18T13:15:04Z</time>
      </trkpt>
      <trkpt lat="46.101842997595668" lon="5.927758952602744">
        <ele>489.20001220703125</ele>
        <time>2011-06-18T13:15:16Z</time>
      </trkpt>
      <trkpt lat="46.102074924856424" lon="5.926936939358711">
        <ele>491</ele>
        <time>2011-06-18T13:15:31Z</time>
      </trkpt>
      <trkpt lat="46.102551938965917" lon="5.92609397135675">
        <ele>492.20001220703125</ele>
        <time>2011-06-18T13:15:49Z</time>
      </trkpt>
      <trkpt lat="46.103193992748857" lon="5.925134997814894">
        <ele>492</ele>
        <time>2011-06-18T13:16:03Z</time>
      </trkpt>
      <trkpt lat="46.103790951892734" lon="5.924235954880714">
        <ele>491</ele>
        <time>2011-06-18T13:16:16Z</time>
      </trkpt>
      <trkpt lat="46.104100998491049" lon="5.923753995448351">
        <ele>489.79998779296875</ele>
        <time>2011-06-18T13:16:21Z</time>
      </trkpt>
      <trkpt lat="46.104607935994864" lon="5.922963917255402">
        <ele>487.60000610351562</ele>
        <time>2011-06-18T13:16:28Z</time>
      </trkpt>
      <trkpt lat="46.10518092289567" lon="5.922076944261789">
        <ele>485.79998779296875</ele>
        <time>2011-06-18T13:16:36Z</time>
      </trkpt>
      <trkpt lat="46.105539919808507" lon="5.921516949310899">
        <ele>484.79998779296875</ele>
        <time>2011-06-18T13:16:42Z</time>
      </trkpt>
      <trkpt lat="46.105986926704645" lon="5.920850923284888">
        <ele>484.60000610351562</ele>
        <time>2011-06-18T13:16:50Z</time>
      </trkpt>
      <trkpt lat="46.106396969407797" lon="5.920214988291264">
        <ele>484.20001220703125</ele>
        <time>2011-06-18T13:16:58Z</time>
      </trkpt>
      <trkpt lat="46.1068319901824" lon="5.919557930901647">
        <ele>483.79998779296875</ele>
        <time>2011-06-18T13:17:07Z</time>
      </trkpt>
      <trkpt lat="46.107230968773365" lon="5.918958960101008">
        <ele>483.20001220703125</ele>
        <time>2011-06-18T13:17:15Z</time>
      </trkpt>
      <trkpt lat="46.107627935707569" lon="5.918392930179834">
        <ele>483.39999389648437</ele>
        <time>2011-06-18T13:17:23Z</time>
      </trkpt>
      <trkpt lat="46.107982993125916" lon="5.917790941894054">
        <ele>484.79998779296875</ele>
        <time>2011-06-18T13:21:55Z</time>
      </trkpt>
      <trkpt lat="46.108390940353274" lon="5.917233964428306">
        <ele>485</ele>
        <time>2011-06-18T13:22:13Z</time>
      </trkpt>
      <trkpt lat="46.108779944479465" lon="5.916597945615649">
        <ele>485.39999389648437</ele>
        <time>2011-06-18T13:22:29Z</time>
      </trkpt>
      <trkpt lat="46.109267938882113" lon="5.915698986500502">
        <ele>486</ele>
        <time>2011-06-18T13:22:45Z</time>
      </trkpt>
      <trkpt lat="46.109761968255043" lon="5.914714951068163">
        <ele>485.60000610351562</ele>
        <time>2011-06-18T13:22:58Z</time>
      </trkpt>
      <trkpt lat="46.109986938536167" lon="5.914018917828798">
        <ele>485.60000610351562</ele>
        <time>2011-06-18T13:23:06Z</time>
      </trkpt>
      <trkpt lat="46.110115936025977" lon="5.913360938429833">
        <ele>485</ele>
        <time>2011-06-18T13:23:13Z</time>
      </trkpt>
      <trkpt lat="46.110266977921128" lon="5.912466924637556">
        <ele>484.20001220703125</ele>
        <time>2011-06-18T13:23:22Z</time>
      </trkpt>
      <trkpt lat="46.110402932390571" lon="5.911666955798864">
        <ele>483.60000610351562</ele>
        <time>2011-06-18T13:23:30Z</time>
      </trkpt>
      <trkpt lat="46.110556991770864" lon="5.910852989181876">
        <ele>483.20001220703125</ele>
        <time>2011-06-18T13:23:38Z</time>
      </trkpt>
      <trkpt lat="46.110746925696731" lon="5.90974791906774">
        <ele>483.20001220703125</ele>
        <time>2011-06-18T13:23:49Z</time>
      </trkpt>
      <trkpt lat="46.110951947048306" lon="5.908963959664106">
        <ele>483.39999389648437</ele>
        <time>2011-06-18T13:23:57Z</time>
      </trkpt>
      <trkpt lat="46.11121597699821" lon="5.908329952508211">
        <ele>483.39999389648437</ele>
        <time>2011-06-18T13:24:04Z</time>
      </trkpt>
      <trkpt lat="46.111525939777493" lon="5.907603995874524">
        <ele>483.39999389648437</ele>
        <time>2011-06-18T13:24:12Z</time>
      </trkpt>
      <trkpt lat="46.111863981932402" lon="5.906916931271553">
        <ele>483.39999389648437</ele>
        <time>2011-06-18T13:24:20Z</time>
      </trkpt>
      <trkpt lat="46.112609971314669" lon="5.90589995495975">
        <ele>483.60000610351562</ele>
        <time>2011-06-18T13:24:34Z</time>
      </trkpt>
      <trkpt lat="46.11297994852066" lon="5.905435932800174">
        <ele>483.60000610351562</ele>
        <time>2011-06-18T13:24:41Z</time>
      </trkpt>
      <trkpt lat="46.113313967362046" lon="5.905001917853952">
        <ele>483.39999389648437</ele>
        <time>2011-06-18T13:24:48Z</time>
      </trkpt>
      <trkpt lat="46.113684950396419" lon="5.904498919844627">
        <ele>483.39999389648437</ele>
        <time>2011-06-18T13:24:56Z</time>
      </trkpt>
      <trkpt lat="46.114036990329623" lon="5.90405392460525">
        <ele>483.20001220703125</ele>
        <time>2011-06-18T13:25:03Z</time>
      </trkpt>
      <trkpt lat="46.114897979423404" lon="5.903231995180249">
        <ele>483</ele>
        <time>2011-06-18T13:25:19Z</time>
      </trkpt>
      <trkpt lat="46.115337945520878" lon="5.90284894220531">
        <ele>482.60000610351562</ele>
        <time>2011-06-18T13:25:27Z</time>
      </trkpt>
      <trkpt lat="46.116161970421672" lon="5.902179982513189">
        <ele>482.60000610351562</ele>
        <time>2011-06-18T13:25:42Z</time>
      </trkpt>
      <trkpt lat="46.116551980376244" lon="5.901918970048428">
        <ele>481.79998779296875</ele>
        <time>2011-06-18T13:26:48Z</time>
      </trkpt>
      <trkpt lat="46.11693293787539" lon="5.901531977578998">
        <ele>482</ele>
        <time>2011-06-18T13:27:00Z</time>
      </trkpt>
      <trkpt lat="46.117289923131466" lon="5.90102294459939">
        <ele>482.39999389648437</ele>
        <time>2011-06-18T13:27:11Z</time>
      </trkpt>
      <trkpt lat="46.117112981155515" lon="5.90041995048523">
        <ele>482.20001220703125</ele>
        <time>2011-06-18T13:27:20Z</time>
      </trkpt>
      <trkpt lat="46.117036957293749" lon="5.899384953081608">
        <ele>480.39999389648437</ele>
        <time>2011-06-18T13:27:31Z</time>
      </trkpt>
      <trkpt lat="46.11729696393013" lon="5.898061953485012">
        <ele>476.60000610351562</ele>
        <time>2011-06-18T13:27:42Z</time>
      </trkpt>
      <trkpt lat="46.117400983348489" lon="5.89739098213613">
        <ele>475</ele>
        <time>2011-06-18T13:27:47Z</time>
      </trkpt>
      <trkpt lat="46.117403917014599" lon="5.896409964188933">
        <ele>472.20001220703125</ele>
        <time>2011-06-18T13:27:54Z</time>
      </trkpt>
      <trkpt lat="46.117550935596228" lon="5.89573597535491">
        <ele>470.20001220703125</ele>
        <time>2011-06-18T13:27:59Z</time>
      </trkpt>
      <trkpt lat="46.117697954177856" lon="5.894863922148943">
        <ele>467.60000610351562</ele>
        <time>2011-06-18T13:28:05Z</time>
      </trkpt>
      <trkpt lat="46.117524951696396" lon="5.893917940557003">
        <ele>465</ele>
        <time>2011-06-18T13:28:12Z</time>
      </trkpt>
      <trkpt lat="46.116998987272382" lon="5.893643936142325">
        <ele>462.79998779296875</ele>
        <time>2011-06-18T13:28:18Z</time>
      </trkpt>
      <trkpt lat="46.11645994707942" lon="5.893302960321307">
        <ele>459</ele>
        <time>2011-06-18T13:28:24Z</time>
      </trkpt>
      <trkpt lat="46.11579199321568" lon="5.893105985596776">
        <ele>455.60000610351562</ele>
        <time>2011-06-18T13:28:31Z</time>
      </trkpt>
      <trkpt lat="46.115335933864117" lon="5.893034990876913">
        <ele>454.39999389648437</ele>
        <time>2011-06-18T13:28:36Z</time>
      </trkpt>
      <trkpt lat="46.114658927544951" lon="5.892954943701625">
        <ele>452.20001220703125</ele>
        <time>2011-06-18T13:28:44Z</time>
      </trkpt>
      <trkpt lat="46.114215943962336" lon="5.892657972872257">
        <ele>451</ele>
        <time>2011-06-18T13:28:50Z</time>
      </trkpt>
      <trkpt lat="46.113520916551352" lon="5.892188921570778">
        <ele>449.20001220703125</ele>
        <time>2011-06-18T13:29:00Z</time>
      </trkpt>
      <trkpt lat="46.112846927717328" lon="5.892133936285973">
        <ele>446.60000610351562</ele>
        <time>2011-06-18T13:29:08Z</time>
      </trkpt>
      <trkpt lat="46.112337978556752" lon="5.891894968226552">
        <ele>444.60000610351562</ele>
        <time>2011-06-18T13:29:14Z</time>
      </trkpt>
      <trkpt lat="46.111814947798848" lon="5.891683995723724">
        <ele>442.60000610351562</ele>
        <time>2011-06-18T13:29:20Z</time>
      </trkpt>
      <trkpt lat="46.111179934814572" lon="5.891553992405534">
        <ele>440</ele>
        <time>2011-06-18T13:29:27Z</time>
      </trkpt>
      <trkpt lat="46.110530924052" lon="5.891347965225577">
        <ele>437</ele>
        <time>2011-06-18T13:29:34Z</time>
      </trkpt>
      <trkpt lat="46.109777977690101" lon="5.891025932505727">
        <ele>434.39999389648437</ele>
        <time>2011-06-18T13:29:42Z</time>
      </trkpt>
      <trkpt lat="46.108917994424701" lon="5.890668947249651">
        <ele>430.60000610351562</ele>
        <time>2011-06-18T13:29:51Z</time>
      </trkpt>
      <trkpt lat="46.108444919809699" lon="5.890401983633637">
        <ele>428.39999389648437</ele>
        <time>2011-06-18T13:29:56Z</time>
      </trkpt>
      <trkpt lat="46.107861958444118" lon="5.890255970880389">
        <ele>426.79998779296875</ele>
        <time>2011-06-18T13:30:02Z</time>
      </trkpt>
      <trkpt lat="46.10730498097837" lon="5.890147928148508">
        <ele>425</ele>
        <time>2011-06-18T13:30:08Z</time>
      </trkpt>
      <trkpt lat="46.106443991884589" lon="5.890704989433289">
        <ele>422.39999389648437</ele>
        <time>2011-06-18T13:30:19Z</time>
      </trkpt>
      <trkpt lat="46.106054987758398" lon="5.891108997166157">
        <ele>422</ele>
        <time>2011-06-18T13:30:25Z</time>
      </trkpt>
      <trkpt lat="46.105652991682291" lon="5.891559943556786">
        <ele>423.60000610351562</ele>
        <time>2011-06-18T13:30:34Z</time>
      </trkpt>
      <trkpt lat="46.105275973677635" lon="5.891994964331389">
        <ele>425.60000610351562</ele>
        <time>2011-06-18T13:30:44Z</time>
      </trkpt>
      <trkpt lat="46.104897949844599" lon="5.892433924600482">
        <ele>427.60000610351562</ele>
        <time>2011-06-18T13:30:54Z</time>
      </trkpt>
      <trkpt lat="46.104481955990195" lon="5.892903981730342">
        <ele>430.20001220703125</ele>
        <time>2011-06-18T13:31:06Z</time>
      </trkpt>
      <trkpt lat="46.104020951315761" lon="5.893324920907617">
        <ele>432.79998779296875</ele>
        <time>2011-06-18T13:31:20Z</time>
      </trkpt>
      <trkpt lat="46.103625996038318" lon="5.89384694583714">
        <ele>435.39999389648437</ele>
        <time>2011-06-18T13:31:35Z</time>
      </trkpt>
      <trkpt lat="46.103235986083746" lon="5.894305938854814">
        <ele>437.79998779296875</ele>
        <time>2011-06-18T13:31:49Z</time>
      </trkpt>
      <trkpt lat="46.102808928117156" lon="5.894724950194359">
        <ele>440.39999389648437</ele>
        <time>2011-06-18T13:32:03Z</time>
      </trkpt>
      <trkpt lat="46.102458983659744" lon="5.895253932103515">
        <ele>443</ele>
        <time>2011-06-18T13:32:18Z</time>
      </trkpt>
      <trkpt lat="46.101979957893491" lon="5.895663974806666">
        <ele>445.79998779296875</ele>
        <time>2011-06-18T13:32:34Z</time>
      </trkpt>
      <trkpt lat="46.101475954055786" lon="5.895968992263079">
        <ele>449</ele>
        <time>2011-06-18T13:33:51Z</time>
      </trkpt>
      <trkpt lat="46.100909924134612" lon="5.896491939201951">
        <ele>452.39999389648437</ele>
        <time>2011-06-18T13:34:09Z</time>
      </trkpt>
      <trkpt lat="46.100312964990735" lon="5.896832998842001">
        <ele>455</ele>
        <time>2011-06-18T13:34:25Z</time>
      </trkpt>
      <trkpt lat="46.099816923961043" lon="5.897181937471032">
        <ele>457.60000610351562</ele>
        <time>2011-06-18T13:34:38Z</time>
      </trkpt>
      <trkpt lat="46.099097924306989" lon="5.897663980722427">
        <ele>461</ele>
        <time>2011-06-18T13:34:57Z</time>
      </trkpt>
      <trkpt lat="46.098582940176129" lon="5.89801493100822">
        <ele>464.79998779296875</ele>
        <time>2011-06-18T13:35:12Z</time>
      </trkpt>
      <trkpt lat="46.098033925518394" lon="5.898069916293025">
        <ele>467.79998779296875</ele>
        <time>2011-06-18T13:35:29Z</time>
      </trkpt>
      <trkpt lat="46.097523970529437" lon="5.89814392849803">
        <ele>470.60000610351562</ele>
        <time>2011-06-18T13:35:45Z</time>
      </trkpt>
      <trkpt lat="46.096998928114772" lon="5.898406952619553">
        <ele>473.79998779296875</ele>
        <time>2011-06-18T13:36:03Z</time>
      </trkpt>
      <trkpt lat="46.096352934837341" lon="5.89857392013073">
        <ele>477.39999389648437</ele>
        <time>2011-06-18T13:36:23Z</time>
      </trkpt>
      <trkpt lat="46.095755975693464" lon="5.89855195954442">
        <ele>480.60000610351562</ele>
        <time>2011-06-18T13:36:40Z</time>
      </trkpt>
      <trkpt lat="46.095186928287148" lon="5.898480964824557">
        <ele>483.79998779296875</ele>
        <time>2011-06-18T13:36:57Z</time>
      </trkpt>
      <trkpt lat="46.094714943319559" lon="5.898493956774473">
        <ele>486.60000610351562</ele>
        <time>2011-06-18T13:37:13Z</time>
      </trkpt>
      <trkpt lat="46.09426693059504" lon="5.898447940126061">
        <ele>489.60000610351562</ele>
        <time>2011-06-18T13:37:29Z</time>
      </trkpt>
      <trkpt lat="46.093755969777703" lon="5.898720938712359">
        <ele>491.20001220703125</ele>
        <time>2011-06-18T13:37:46Z</time>
      </trkpt>
      <trkpt lat="46.093185916543007" lon="5.898950938135386">
        <ele>492.79998779296875</ele>
        <time>2011-06-18T13:38:03Z</time>
      </trkpt>
      <trkpt lat="46.092570936307311" lon="5.899070966988802">
        <ele>495</ele>
        <time>2011-06-18T13:38:20Z</time>
      </trkpt>
      <trkpt lat="46.091974982991815" lon="5.899455947801471">
        <ele>496.39999389648437</ele>
        <time>2011-06-18T13:38:36Z</time>
      </trkpt>
      <trkpt lat="46.091326978057623" lon="5.899891974404454">
        <ele>498.39999389648438</ele>
        <time>2011-06-18T13:38:53Z</time>
      </trkpt>
      <trkpt lat="46.090536983683705" lon="5.900175953283906">
        <ele>500.79998779296875</ele>
        <time>2011-06-18T13:39:10Z</time>
      </trkpt>
      <trkpt lat="46.090066926553845" lon="5.900189951062203">
        <ele>502.20001220703125</ele>
        <time>2011-06-18T13:39:20Z</time>
      </trkpt>
      <trkpt lat="46.089587984606624" lon="5.900086937472224">
        <ele>504</ele>
        <time>2011-06-18T13:39:32Z</time>
      </trkpt>
      <trkpt lat="46.088842917233706" lon="5.900170924142003">
        <ele>506.20001220703125</ele>
        <time>2011-06-18T13:39:51Z</time>
      </trkpt>
      <trkpt lat="46.088203964754939" lon="5.90016296133399">
        <ele>508.60000610351562</ele>
        <time>2011-06-18T13:40:06Z</time>
      </trkpt>
      <trkpt lat="46.087633995339274" lon="5.899963974952698">
        <ele>510.39999389648437</ele>
        <time>2011-06-18T13:40:20Z</time>
      </trkpt>
      <trkpt lat="46.087006945163012" lon="5.899900943040848">
        <ele>512</ele>
        <time>2011-06-18T13:40:35Z</time>
      </trkpt>
      <trkpt lat="46.086294986307621" lon="5.8998809941113">
        <ele>514</ele>
        <time>2011-06-18T13:40:53Z</time>
      </trkpt>
      <trkpt lat="46.085674976930022" lon="5.900069922208786">
        <ele>517.5999755859375</ele>
        <time>2011-06-18T13:41:11Z</time>
      </trkpt>
      <trkpt lat="46.08511196449399" lon="5.900511983782053">
        <ele>521</ele>
        <time>2011-06-18T13:41:35Z</time>
      </trkpt>
      <trkpt lat="46.084744920954108" lon="5.901119923219085">
        <ele>522.79998779296875</ele>
        <time>2011-06-18T13:41:53Z</time>
      </trkpt>
      <trkpt lat="46.084398999810219" lon="5.901641948148608">
        <ele>525.4000244140625</ele>
        <time>2011-06-18T13:42:08Z</time>
      </trkpt>
      <trkpt lat="46.083922991529107" lon="5.901614958420396">
        <ele>527.20001220703125</ele>
        <time>2011-06-18T13:42:22Z</time>
      </trkpt>
      <trkpt lat="46.08335193246603" lon="5.901244981214404">
        <ele>531.5999755859375</ele>
        <time>2011-06-18T13:42:44Z</time>
      </trkpt>
      <trkpt lat="46.082781963050365" lon="5.900856982916594">
        <ele>534.5999755859375</ele>
        <time>2011-06-18T13:43:04Z</time>
      </trkpt>
      <trkpt lat="46.082245940342546" lon="5.900792945176363">
        <ele>537.4000244140625</ele>
        <time>2011-06-18T13:43:22Z</time>
      </trkpt>
      <trkpt lat="46.081771943718195" lon="5.900812977924943">
        <ele>540.20001220703125</ele>
        <time>2011-06-18T13:43:38Z</time>
      </trkpt>
      <trkpt lat="46.081273974850774" lon="5.901491995900869">
        <ele>543</ele>
        <time>2011-06-18T13:44:03Z</time>
      </trkpt>
      <trkpt lat="46.080887988209724" lon="5.901880916208029">
        <ele>545.5999755859375</ele>
        <time>2011-06-18T13:44:21Z</time>
      </trkpt>
      <trkpt lat="46.080395970493555" lon="5.901671955361962">
        <ele>548.20001220703125</ele>
        <time>2011-06-18T13:44:40Z</time>
      </trkpt>
      <trkpt lat="46.079945946112275" lon="5.901522925123572">
        <ele>550.5999755859375</ele>
        <time>2011-06-18T13:44:58Z</time>
      </trkpt>
      <trkpt lat="46.079408917576075" lon="5.901508927345276">
        <ele>553</ele>
        <time>2011-06-18T13:45:19Z</time>
      </trkpt>
      <trkpt lat="46.078918995335698" lon="5.901589980348945">
        <ele>556</ele>
        <time>2011-06-18T13:45:37Z</time>
      </trkpt>
      <trkpt lat="46.078457990661263" lon="5.901655945926905">
        <ele>558.4000244140625</ele>
        <time>2011-06-18T13:45:55Z</time>
      </trkpt>
      <trkpt lat="46.077999919652939" lon="5.901713948696852">
        <ele>561</ele>
        <time>2011-06-18T13:46:13Z</time>
      </trkpt>
      <trkpt lat="46.077472949400544" lon="5.901714954525232">
        <ele>563.5999755859375</ele>
        <time>2011-06-18T13:46:33Z</time>
      </trkpt>
      <trkpt lat="46.076886970549822" lon="5.901426952332258">
        <ele>567</ele>
        <time>2011-06-18T13:46:57Z</time>
      </trkpt>
      <trkpt lat="46.076419930905104" lon="5.901141967624426">
        <ele>569.5999755859375</ele>
        <time>2011-06-18T13:47:15Z</time>
      </trkpt>
      <trkpt lat="46.075846944004297" lon="5.9008929412812">
        <ele>573.79998779296875</ele>
        <time>2011-06-18T13:47:39Z</time>
      </trkpt>
      <trkpt lat="46.075306981801987" lon="5.900863939896226">
        <ele>575.4000244140625</ele>
        <time>2011-06-18T13:47:59Z</time>
      </trkpt>
      <trkpt lat="46.074797948822379" lon="5.900855977088213">
        <ele>576</ele>
        <time>2011-06-18T13:48:15Z</time>
      </trkpt>
      <trkpt lat="46.074165953323245" lon="5.900737959891558">
        <ele>574.4000244140625</ele>
        <time>2011-06-18T13:48:28Z</time>
      </trkpt>
      <trkpt lat="46.073473943397403" lon="5.900140916928649">
        <ele>570.79998779296875</ele>
        <time>2011-06-18T13:48:39Z</time>
      </trkpt>
      <trkpt lat="46.072965916246176" lon="5.899370955303311">
        <ele>567.79998779296875</ele>
        <time>2011-06-18T13:48:47Z</time>
      </trkpt>
      <trkpt lat="46.072540953755379" lon="5.898545924574137">
        <ele>564.79998779296875</ele>
        <time>2011-06-18T13:48:54Z</time>
      </trkpt>
      <trkpt lat="46.072054971009493" lon="5.89794997125864">
        <ele>561.5999755859375</ele>
        <time>2011-06-18T13:49:00Z</time>
      </trkpt>
      <trkpt lat="46.071272939443588" lon="5.897205993533135">
        <ele>557</ele>
        <time>2011-06-18T13:49:09Z</time>
      </trkpt>
      <trkpt lat="46.070644967257977" lon="5.896871974691749">
        <ele>553.79998779296875</ele>
        <time>2011-06-18T13:49:16Z</time>
      </trkpt>
      <trkpt lat="46.070101987570524" lon="5.897106919437647">
        <ele>550.79998779296875</ele>
        <time>2011-06-18T13:49:22Z</time>
      </trkpt>
      <trkpt lat="46.069371923804283" lon="5.897322921082377">
        <ele>546.20001220703125</ele>
        <time>2011-06-18T13:49:30Z</time>
      </trkpt>
      <trkpt lat="46.068813940510154" lon="5.897368937730789">
        <ele>543.4000244140625</ele>
        <time>2011-06-18T13:49:36Z</time>
      </trkpt>
      <trkpt lat="46.068336926400661" lon="5.897409925237298">
        <ele>541</ele>
        <time>2011-06-18T13:49:41Z</time>
      </trkpt>
      <trkpt lat="46.067849937826395" lon="5.897471951320767">
        <ele>538.20001220703125</ele>
        <time>2011-06-18T13:49:46Z</time>
      </trkpt>
      <trkpt lat="46.067379964515567" lon="5.89771494269371">
        <ele>535.4000244140625</ele>
        <time>2011-06-18T13:49:51Z</time>
      </trkpt>
      <trkpt lat="46.066779987886548" lon="5.89788593351841">
        <ele>531.5999755859375</ele>
        <time>2011-06-18T13:49:57Z</time>
      </trkpt>
      <trkpt lat="46.065603923052549" lon="5.897644953802228">
        <ele>525.4000244140625</ele>
        <time>2011-06-18T13:50:08Z</time>
      </trkpt>
      <trkpt lat="46.065167980268598" lon="5.897277994081378">
        <ele>521.79998779296875</ele>
        <time>2011-06-18T13:50:13Z</time>
      </trkpt>
      <trkpt lat="46.064639920368791" lon="5.896470984444022">
        <ele>517.5999755859375</ele>
        <time>2011-06-18T13:50:20Z</time>
      </trkpt>
      <trkpt lat="46.064387960359454" lon="5.895779980346561">
        <ele>515</ele>
        <time>2011-06-18T13:50:25Z</time>
      </trkpt>
      <trkpt lat="46.064182939007878" lon="5.894979927688837">
        <ele>511.20001220703125</ele>
        <time>2011-06-18T13:50:34Z</time>
      </trkpt>
      <trkpt lat="46.063919998705387" lon="5.893902936950326">
        <ele>507.60000610351562</ele>
        <time>2011-06-18T13:50:47Z</time>
      </trkpt>
      <trkpt lat="46.06368999928236" lon="5.893000960350037">
        <ele>504.79998779296875</ele>
        <time>2011-06-18T13:50:59Z</time>
      </trkpt>
      <trkpt lat="46.063528982922435" lon="5.892390925437212">
        <ele>503.20001220703125</ele>
        <time>2011-06-18T13:51:07Z</time>
      </trkpt>
      <trkpt lat="46.063377941027284" lon="5.891703944653273">
        <ele>503.39999389648437</ele>
        <time>2011-06-18T13:51:18Z</time>
      </trkpt>
      <trkpt lat="46.063208961859345" lon="5.89109692722559">
        <ele>505</ele>
        <time>2011-06-18T13:51:36Z</time>
      </trkpt>
      <trkpt lat="46.062977956607938" lon="5.890187993645668">
        <ele>507.79998779296875</ele>
        <time>2011-06-18T13:51:57Z</time>
      </trkpt>
      <trkpt lat="46.062742928043008" lon="5.889304960146546">
        <ele>510.60000610351562</ele>
        <time>2011-06-18T13:52:17Z</time>
      </trkpt>
      <trkpt lat="46.062633963301778" lon="5.888555953279138">
        <ele>512.4000244140625</ele>
        <time>2011-06-18T13:52:33Z</time>
      </trkpt>
      <trkpt lat="46.062583923339844" lon="5.88765699416399">
        <ele>513.79998779296875</ele>
        <time>2011-06-18T13:52:50Z</time>
      </trkpt>
      <trkpt lat="46.062519969418645" lon="5.886529963463545">
        <ele>514.4000244140625</ele>
        <time>2011-06-18T13:53:08Z</time>
      </trkpt>
      <trkpt lat="46.062473952770233" lon="5.88576695881784">
        <ele>514</ele>
        <time>2011-06-18T13:53:19Z</time>
      </trkpt>
      <trkpt lat="46.062431959435344" lon="5.885026920586824">
        <ele>514.5999755859375</ele>
        <time>2011-06-18T13:53:29Z</time>
      </trkpt>
      <trkpt lat="46.062400946393609" lon="5.884228963404894">
        <ele>515</ele>
        <time>2011-06-18T13:53:39Z</time>
      </trkpt>
      <trkpt lat="46.062365993857384" lon="5.883499989286065">
        <ele>515.20001220703125</ele>
        <time>2011-06-18T13:53:48Z</time>
      </trkpt>
      <trkpt lat="46.062340931966901" lon="5.8828229829669">
        <ele>515.20001220703125</ele>
        <time>2011-06-18T13:53:56Z</time>
      </trkpt>
      <trkpt lat="46.062285946682096" lon="5.881749931722879">
        <ele>517.79998779296875</ele>
        <time>2011-06-18T13:54:11Z</time>
      </trkpt>
      <trkpt lat="46.062241941690445" lon="5.880905957892537">
        <ele>521</ele>
        <time>2011-06-18T13:54:27Z</time>
      </trkpt>
      <trkpt lat="46.062183938920498" lon="5.879959976300597">
        <ele>524</ele>
        <time>2011-06-18T13:54:46Z</time>
      </trkpt>
      <trkpt lat="46.062141945585608" lon="5.879089934751391">
        <ele>526</ele>
        <time>2011-06-18T13:55:05Z</time>
      </trkpt>
      <trkpt lat="46.062079919502139" lon="5.878051919862628">
        <ele>527.20001220703125</ele>
        <time>2011-06-18T13:55:23Z</time>
      </trkpt>
      <trkpt lat="46.062036920338869" lon="5.877133933827281">
        <ele>528.4000244140625</ele>
        <time>2011-06-18T13:55:37Z</time>
      </trkpt>
      <trkpt lat="46.061976989731193" lon="5.876066917553544">
        <ele>529.79998779296875</ele>
        <time>2011-06-18T13:55:54Z</time>
      </trkpt>
      <trkpt lat="46.061889985576272" lon="5.87487299926579">
        <ele>530.4000244140625</ele>
        <time>2011-06-18T13:56:13Z</time>
      </trkpt>
      <trkpt lat="46.0618229303509" lon="5.87360599078238">
        <ele>529.5999755859375</ele>
        <time>2011-06-18T13:56:28Z</time>
      </trkpt>
      <trkpt lat="46.06177699752152" lon="5.872829994186759">
        <ele>529</ele>
        <time>2011-06-18T13:56:36Z</time>
      </trkpt>
      <trkpt lat="46.061718994751573" lon="5.871804971247912">
        <ele>528.20001220703125</ele>
        <time>2011-06-18T13:56:46Z</time>
      </trkpt>
      <trkpt lat="46.061632996425033" lon="5.870054997503758">
        <ele>526.5999755859375</ele>
        <time>2011-06-18T13:57:02Z</time>
      </trkpt>
      <trkpt lat="46.06158496811986" lon="5.869225943461061">
        <ele>525.79998779296875</ele>
        <time>2011-06-18T13:57:10Z</time>
      </trkpt>
      <trkpt lat="46.061543980613351" lon="5.868056919425726">
        <ele>525.79998779296875</ele>
        <time>2011-06-18T13:57:22Z</time>
      </trkpt>
      <trkpt lat="46.061508944258094" lon="5.867385948076844">
        <ele>525</ele>
        <time>2011-06-18T13:57:29Z</time>
      </trkpt>
      <trkpt lat="46.061437949538231" lon="5.866638952866197">
        <ele>524.5999755859375</ele>
        <time>2011-06-18T13:57:37Z</time>
      </trkpt>
      <trkpt lat="46.061476925387979" lon="5.865661958232522">
        <ele>524.79998779296875</ele>
        <time>2011-06-18T13:57:51Z</time>
      </trkpt>
      <trkpt lat="46.061639953404665" lon="5.865000961348414">
        <ele>525.5999755859375</ele>
        <time>2011-06-18T13:58:07Z</time>
      </trkpt>
      <trkpt lat="46.062256945297122" lon="5.864352956414223">
        <ele>526</ele>
        <time>2011-06-18T13:58:24Z</time>
      </trkpt>
      <trkpt lat="46.062997989356518" lon="5.863582994788885">
        <ele>526.79998779296875</ele>
        <time>2011-06-18T13:58:41Z</time>
      </trkpt>
      <trkpt lat="46.063451953232288" lon="5.863116960972548">
        <ele>526</ele>
        <time>2011-06-18T13:58:50Z</time>
      </trkpt>
      <trkpt lat="46.063912957906723" lon="5.862656962126494">
        <ele>525</ele>
        <time>2011-06-18T13:58:58Z</time>
      </trkpt>
      <trkpt lat="46.064456943422556" lon="5.862097973003984">
        <ele>524.20001220703125</ele>
        <time>2011-06-18T13:59:06Z</time>
      </trkpt>
      <trkpt lat="46.065159933641553" lon="5.861358940601349">
        <ele>522.79998779296875</ele>
        <time>2011-06-18T13:59:16Z</time>
      </trkpt>
      <trkpt lat="46.065792934969068" lon="5.860650921240449">
        <ele>520.79998779296875</ele>
        <time>2011-06-18T13:59:25Z</time>
      </trkpt>
      <trkpt lat="46.066395929083228" lon="5.859973998740315">
        <ele>518.5999755859375</ele>
        <time>2011-06-18T13:59:33Z</time>
      </trkpt>
      <trkpt lat="46.067205956205726" lon="5.859107980504632">
        <ele>516.20001220703125</ele>
        <time>2011-06-18T13:59:43Z</time>
      </trkpt>
      <trkpt lat="46.067738961428404" lon="5.858554942533374">
        <ele>515.5999755859375</ele>
        <time>2011-06-18T13:59:50Z</time>
      </trkpt>
      <trkpt lat="46.068180939182639" lon="5.858062924817205">
        <ele>516.20001220703125</ele>
        <time>2011-06-18T13:59:57Z</time>
      </trkpt>
      <trkpt lat="46.068585952743888" lon="5.857507959008217">
        <ele>517.4000244140625</ele>
        <time>2011-06-18T14:00:05Z</time>
      </trkpt>
      <trkpt lat="46.069050980731845" lon="5.856768926605582">
        <ele>519</ele>
        <time>2011-06-18T14:00:19Z</time>
      </trkpt>
      <trkpt lat="46.069462951272726" lon="5.856162998825312">
        <ele>521</ele>
        <time>2011-06-18T14:00:32Z</time>
      </trkpt>
      <trkpt lat="46.070117997005582" lon="5.855488926172257">
        <ele>523.5999755859375</ele>
        <time>2011-06-18T14:00:51Z</time>
      </trkpt>
      <trkpt lat="46.070842947810888" lon="5.854888949543238">
        <ele>524.4000244140625</ele>
        <time>2011-06-18T14:01:11Z</time>
      </trkpt>
      <trkpt lat="46.071583991870284" lon="5.85429391823709">
        <ele>523.5999755859375</ele>
        <time>2011-06-18T14:01:28Z</time>
      </trkpt>
      <trkpt lat="46.072287987917662" lon="5.8538409601897">
        <ele>522.4000244140625</ele>
        <time>2011-06-18T14:01:40Z</time>
      </trkpt>
      <trkpt lat="46.073366990312934" lon="5.8535629324615">
        <ele>521.4000244140625</ele>
        <time>2011-06-18T14:01:53Z</time>
      </trkpt>
      <trkpt lat="46.074119936674833" lon="5.853410968557">
        <ele>520.5999755859375</ele>
        <time>2011-06-18T14:02:02Z</time>
      </trkpt>
      <trkpt lat="46.074796942993999" lon="5.853268979117274">
        <ele>520.20001220703125</ele>
        <time>2011-06-18T14:02:11Z</time>
      </trkpt>
      <trkpt lat="46.075331959873438" lon="5.853140987455845">
        <ele>520.4000244140625</ele>
        <time>2011-06-18T14:02:19Z</time>
      </trkpt>
      <trkpt lat="46.075992956757545" lon="5.853877924382687">
        <ele>522.79998779296875</ele>
        <time>2011-06-18T14:02:35Z</time>
      </trkpt>
      <trkpt lat="46.07642998918891" lon="5.854493994265795">
        <ele>524.5999755859375</ele>
        <time>2011-06-18T14:02:50Z</time>
      </trkpt>
      <trkpt lat="46.077048992738128" lon="5.855052983388305">
        <ele>523.5999755859375</ele>
        <time>2011-06-18T14:03:06Z</time>
      </trkpt>
      <trkpt lat="46.077464986592531" lon="5.855586994439364">
        <ele>520</ele>
        <time>2011-06-18T14:03:16Z</time>
      </trkpt>
      <trkpt lat="46.077941916882992" lon="5.856489976868033">
        <ele>516.79998779296875</ele>
        <time>2011-06-18T14:03:27Z</time>
      </trkpt>
      <trkpt lat="46.078268978744745" lon="5.857003955170512">
        <ele>516.20001220703125</ele>
        <time>2011-06-18T14:03:34Z</time>
      </trkpt>
      <trkpt lat="46.078576929867268" lon="5.857711974531412">
        <ele>517.20001220703125</ele>
        <time>2011-06-18T14:03:45Z</time>
      </trkpt>
      <trkpt lat="46.079045981168747" lon="5.858059991151094">
        <ele>520.4000244140625</ele>
        <time>2011-06-18T14:04:05Z</time>
      </trkpt>
      <trkpt lat="46.079516960307956" lon="5.858687963336706">
        <ele>522</ele>
        <time>2011-06-18T14:04:28Z</time>
      </trkpt>
      <trkpt lat="46.079872939735651" lon="5.859091971069574">
        <ele>522.79998779296875</ele>
        <time>2011-06-18T14:04:47Z</time>
      </trkpt>
      <trkpt lat="46.080054994672537" lon="5.859653977677226">
        <ele>521.20001220703125</ele>
        <time>2011-06-18T14:05:17Z</time>
      </trkpt>
      <trkpt lat="46.08012892305851" lon="5.860410947352648">
        <ele>519.79998779296875</ele>
        <time>2011-06-18T14:05:37Z</time>
      </trkpt>
      <trkpt lat="46.080017946660519" lon="5.859241923317313">
        <ele>481</ele>
        <time>2011-06-19T07:30:21Z</time>
      </trkpt>
      <trkpt lat="46.07965693809092" lon="5.85884696803987">
        <ele>484</ele>
        <time>2011-06-19T07:31:54Z</time>
      </trkpt>
      <trkpt lat="46.079328954219818" lon="5.858311951160431">
        <ele>483.60000610351562</ele>
        <time>2011-06-19T07:32:09Z</time>
      </trkpt>
      <trkpt lat="46.078808940947056" lon="5.857872990891337">
        <ele>482.39999389648437</ele>
        <time>2011-06-19T07:32:23Z</time>
      </trkpt>
      <trkpt lat="46.078158924356103" lon="5.856756940484047">
        <ele>478.60000610351562</ele>
        <time>2011-06-19T07:32:38Z</time>
      </trkpt>
      <trkpt lat="46.077839992940426" lon="5.856278920546174">
        <ele>478.39999389648438</ele>
        <time>2011-06-19T07:32:45Z</time>
      </trkpt>
      <trkpt lat="46.077537992969155" lon="5.855740970000625">
        <ele>479.20001220703125</ele>
        <time>2011-06-19T07:32:53Z</time>
      </trkpt>
      <trkpt lat="46.077162986621261" lon="5.855110986158252">
        <ele>482.60000610351562</ele>
        <time>2011-06-19T07:33:06Z</time>
      </trkpt>
      <trkpt lat="46.076735928654671" lon="5.854741930961609">
        <ele>485.79998779296875</ele>
        <time>2011-06-19T07:33:20Z</time>
      </trkpt>
      <trkpt lat="46.076119942590594" lon="5.854095937684178">
        <ele>486.60000610351562</ele>
        <time>2011-06-19T07:33:39Z</time>
      </trkpt>
      <trkpt lat="46.075613927096128" lon="5.85334399715066">
        <ele>484.60000610351562</ele>
        <time>2011-06-19T07:33:53Z</time>
      </trkpt>
      <trkpt lat="46.075221989303827" lon="5.853042919188738">
        <ele>482.79998779296875</ele>
        <time>2011-06-19T07:34:02Z</time>
      </trkpt>
      <trkpt lat="46.07473399490118" lon="5.853150961920619">
        <ele>482.60000610351562</ele>
        <time>2011-06-19T07:34:10Z</time>
      </trkpt>
      <trkpt lat="46.073941988870502" lon="5.853327987715602">
        <ele>482.60000610351562</ele>
        <time>2011-06-19T07:34:22Z</time>
      </trkpt>
      <trkpt lat="46.07316792011261" lon="5.853497972711921">
        <ele>483.20001220703125</ele>
        <time>2011-06-19T07:34:34Z</time>
      </trkpt>
      <trkpt lat="46.072540953755379" lon="5.85364893078804">
        <ele>483.60000610351562</ele>
        <time>2011-06-19T07:34:44Z</time>
      </trkpt>
      <trkpt lat="46.072015995159745" lon="5.853868955746293">
        <ele>484.60000610351562</ele>
        <time>2011-06-19T07:34:53Z</time>
      </trkpt>
      <trkpt lat="46.071118963882327" lon="5.854515954852104">
        <ele>486.60000610351562</ele>
        <time>2011-06-19T07:35:11Z</time>
      </trkpt>
      <trkpt lat="46.070609930902719" lon="5.854949969798327">
        <ele>486.79998779296875</ele>
        <time>2011-06-19T07:35:21Z</time>
      </trkpt>
      <trkpt lat="46.069994950667024" lon="5.855478951707482">
        <ele>486.39999389648437</ele>
        <time>2011-06-19T07:35:32Z</time>
      </trkpt>
      <trkpt lat="46.069497987627983" lon="5.855982955545187">
        <ele>485</ele>
        <time>2011-06-19T07:35:40Z</time>
      </trkpt>
      <trkpt lat="46.069061961025" lon="5.856590978801251">
        <ele>483.20001220703125</ele>
        <time>2011-06-19T07:35:47Z</time>
      </trkpt>
      <trkpt lat="46.068362994119525" lon="5.857679955661297">
        <ele>480.20001220703125</ele>
        <time>2011-06-19T07:35:58Z</time>
      </trkpt>
      <trkpt lat="46.067790929228067" lon="5.858380934223533">
        <ele>478.60000610351562</ele>
        <time>2011-06-19T07:36:06Z</time>
      </trkpt>
      <trkpt lat="46.067285919561982" lon="5.85891192778945">
        <ele>477.60000610351562</ele>
        <time>2011-06-19T07:36:13Z</time>
      </trkpt>
      <trkpt lat="46.066826926544309" lon="5.859395982697606">
        <ele>477.79998779296875</ele>
        <time>2011-06-19T07:36:20Z</time>
      </trkpt>
      <trkpt lat="46.066447980701923" lon="5.859796972945333">
        <ele>478.79998779296875</ele>
        <time>2011-06-19T07:36:27Z</time>
      </trkpt>
      <trkpt lat="46.066040955483913" lon="5.860230987891555">
        <ele>480.39999389648437</ele>
        <time>2011-06-19T07:36:36Z</time>
      </trkpt>
      <trkpt lat="46.065630996599793" lon="5.860670953989029">
        <ele>482</ele>
        <time>2011-06-19T07:36:45Z</time>
      </trkpt>
      <trkpt lat="46.065051974728703" lon="5.861280988901854">
        <ele>483.79998779296875</ele>
        <time>2011-06-19T07:36:58Z</time>
      </trkpt>
      <trkpt lat="46.064655929803848" lon="5.861701928079128">
        <ele>485</ele>
        <time>2011-06-19T07:37:07Z</time>
      </trkpt>
      <trkpt lat="46.064287964254618" lon="5.862092943862081">
        <ele>485.60000610351562</ele>
        <time>2011-06-19T07:37:15Z</time>
      </trkpt>
      <trkpt lat="46.063871970400214" lon="5.862534921616316">
        <ele>486.20001220703125</ele>
        <time>2011-06-19T07:37:24Z</time>
      </trkpt>
      <trkpt lat="46.063427980989218" lon="5.863010929897428">
        <ele>487.20001220703125</ele>
        <time>2011-06-19T07:37:34Z</time>
      </trkpt>
      <trkpt lat="46.062935963273048" lon="5.863534966483712">
        <ele>488.20001220703125</ele>
        <time>2011-06-19T07:37:45Z</time>
      </trkpt>
      <trkpt lat="46.062566991895437" lon="5.863927993923426">
        <ele>488.79998779296875</ele>
        <time>2011-06-19T07:37:53Z</time>
      </trkpt>
      <trkpt lat="46.062028957530856" lon="5.864506931975484">
        <ele>488.20001220703125</ele>
        <time>2011-06-19T07:38:04Z</time>
      </trkpt>
      <trkpt lat="46.061615981161594" lon="5.864922925829887">
        <ele>488</ele>
        <time>2011-06-19T07:38:12Z</time>
      </trkpt>
      <trkpt lat="46.061320938169956" lon="5.864035952836275">
        <ele>486.79998779296875</ele>
        <time>2011-06-19T07:38:28Z</time>
      </trkpt>
      <trkpt lat="46.061277939006686" lon="5.863258950412273">
        <ele>486.20001220703125</ele>
        <time>2011-06-19T07:38:37Z</time>
      </trkpt>
      <trkpt lat="46.061229994520545" lon="5.862499969080091">
        <ele>485.39999389648437</ele>
        <time>2011-06-19T07:38:45Z</time>
      </trkpt>
      <trkpt lat="46.061182972043753" lon="5.861670998856425">
        <ele>484.39999389648437</ele>
        <time>2011-06-19T07:38:53Z</time>
      </trkpt>
      <trkpt lat="46.061140978708863" lon="5.860779918730259">
        <ele>483</ele>
        <time>2011-06-19T07:39:01Z</time>
      </trkpt>
      <trkpt lat="46.061093956232071" lon="5.859868973493576">
        <ele>482</ele>
        <time>2011-06-19T07:39:09Z</time>
      </trkpt>
      <trkpt lat="46.06102991849184" lon="5.858773961663246">
        <ele>480.79998779296875</ele>
        <time>2011-06-19T07:39:19Z</time>
      </trkpt>
      <trkpt lat="46.060970993712544" lon="5.857703927904367">
        <ele>479.79998779296875</ele>
        <time>2011-06-19T07:39:29Z</time>
      </trkpt>
      <trkpt lat="46.06090092100203" lon="5.856971936300397">
        <ele>479.20001220703125</ele>
        <time>2011-06-19T07:39:36Z</time>
      </trkpt>
      <trkpt lat="46.060593975707889" lon="5.856341952458024">
        <ele>478.20001220703125</ele>
        <time>2011-06-19T07:39:43Z</time>
      </trkpt>
      <trkpt lat="46.059862989932299" lon="5.855978932231665">
        <ele>479.20001220703125</ele>
        <time>2011-06-19T07:39:54Z</time>
      </trkpt>
      <trkpt lat="46.059214984998107" lon="5.855798972770572">
        <ele>480.20001220703125</ele>
        <time>2011-06-19T07:40:04Z</time>
      </trkpt>
      <trkpt lat="46.058672927320004" lon="5.855642985552549">
        <ele>481.20001220703125</ele>
        <time>2011-06-19T07:40:13Z</time>
      </trkpt>
      <trkpt lat="46.058134976774454" lon="5.855465959757567">
        <ele>482.39999389648437</ele>
        <time>2011-06-19T07:40:23Z</time>
      </trkpt>
      <trkpt lat="46.057210955768824" lon="5.855207964777947">
        <ele>484.79998779296875</ele>
        <time>2011-06-19T07:40:42Z</time>
      </trkpt>
      <trkpt lat="46.05664299800992" lon="5.855519939213991">
        <ele>487.20001220703125</ele>
        <time>2011-06-19T07:40:55Z</time>
      </trkpt>
      <trkpt lat="46.056065987795591" lon="5.856209937483072">
        <ele>489.60000610351562</ele>
        <time>2011-06-19T07:41:11Z</time>
      </trkpt>
      <trkpt lat="46.055702967569232" lon="5.856602964922786">
        <ele>491.20001220703125</ele>
        <time>2011-06-19T07:41:21Z</time>
      </trkpt>
      <trkpt lat="46.055127969011664" lon="5.856790971010923">
        <ele>493.79998779296875</ele>
        <time>2011-06-19T07:41:35Z</time>
      </trkpt>
      <trkpt lat="46.05436697602272" lon="5.856485953554511">
        <ele>495</ele>
        <time>2011-06-19T07:41:52Z</time>
      </trkpt>
      <trkpt lat="46.053922986611724" lon="5.856294929981232">
        <ele>494.60000610351562</ele>
        <time>2011-06-19T07:42:00Z</time>
      </trkpt>
      <trkpt lat="46.053396938368678" lon="5.856063924729824">
        <ele>493.60000610351562</ele>
        <time>2011-06-19T07:42:08Z</time>
      </trkpt>
      <trkpt lat="46.052818922325969" lon="5.855810958892107">
        <ele>492</ele>
        <time>2011-06-19T07:42:16Z</time>
      </trkpt>
      <trkpt lat="46.052228920161724" lon="5.855547934770584">
        <ele>490</ele>
        <time>2011-06-19T07:42:24Z</time>
      </trkpt>
      <trkpt lat="46.05168292298913" lon="5.85534593090415">
        <ele>490.39999389648437</ele>
        <time>2011-06-19T07:42:33Z</time>
      </trkpt>
      <trkpt lat="46.051236921921372" lon="5.855192961171269">
        <ele>491.60000610351562</ele>
        <time>2011-06-19T07:42:42Z</time>
      </trkpt>
      <trkpt lat="46.050757979974151" lon="5.855012917891145">
        <ele>492.79998779296875</ele>
        <time>2011-06-19T07:42:52Z</time>
      </trkpt>
      <trkpt lat="46.050142999738455" lon="5.854593990370631">
        <ele>495</ele>
        <time>2011-06-19T07:43:05Z</time>
      </trkpt>
      <trkpt lat="46.049440931528807" lon="5.854005999863148">
        <ele>495.39999389648438</ele>
        <time>2011-06-19T07:43:21Z</time>
      </trkpt>
      <trkpt lat="46.049055950716138" lon="5.85366896353662">
        <ele>494.60000610351562</ele>
        <time>2011-06-19T07:43:29Z</time>
      </trkpt>
      <trkpt lat="46.048434935510159" lon="5.853148950263858">
        <ele>493.79998779296875</ele>
        <time>2011-06-19T07:43:41Z</time>
      </trkpt>
      <trkpt lat="46.047924980521202" lon="5.852754916995764">
        <ele>493.79998779296875</ele>
        <time>2011-06-19T07:43:50Z</time>
      </trkpt>
      <trkpt lat="46.047321986407042" lon="5.85259691812098">
        <ele>496</ele>
        <time>2011-06-19T07:44:00Z</time>
      </trkpt>
      <trkpt lat="46.046496955677867" lon="5.85242098197341">
        <ele>498.20001220703125</ele>
        <time>2011-06-19T07:44:16Z</time>
      </trkpt>
      <trkpt lat="46.046081967651844" lon="5.852030972018838">
        <ele>498.39999389648438</ele>
        <time>2011-06-19T07:44:25Z</time>
      </trkpt>
      <trkpt lat="46.045647952705622" lon="5.851486986503005">
        <ele>497.60000610351562</ele>
        <time>2011-06-19T07:44:34Z</time>
      </trkpt>
      <trkpt lat="46.045161969959736" lon="5.8508759457618">
        <ele>496.60000610351562</ele>
        <time>2011-06-19T07:44:43Z</time>
      </trkpt>
      <trkpt lat="46.044759973883629" lon="5.850391974672675">
        <ele>497.79998779296875</ele>
        <time>2011-06-19T07:44:51Z</time>
      </trkpt>
      <trkpt lat="46.044115992262959" lon="5.849948991090059">
        <ele>501.39999389648438</ele>
        <time>2011-06-19T07:45:05Z</time>
      </trkpt>
      <trkpt lat="46.043501934036613" lon="5.849658977240324">
        <ele>504.39999389648437</ele>
        <time>2011-06-19T07:45:19Z</time>
      </trkpt>
      <trkpt lat="46.043049981817603" lon="5.849290927872062">
        <ele>504.20001220703125</ele>
        <time>2011-06-19T07:45:29Z</time>
      </trkpt>
      <trkpt lat="46.042430978268385" lon="5.848127938807011">
        <ele>501.39999389648438</ele>
        <time>2011-06-19T07:45:44Z</time>
      </trkpt>
      <trkpt lat="46.042042979970574" lon="5.8473289757967">
        <ele>499.60000610351562</ele>
        <time>2011-06-19T07:45:53Z</time>
      </trkpt>
      <trkpt lat="46.041629919782281" lon="5.846478966996074">
        <ele>497.39999389648437</ele>
        <time>2011-06-19T07:46:02Z</time>
      </trkpt>
      <trkpt lat="46.041354993358254" lon="5.845918972045183">
        <ele>496</ele>
        <time>2011-06-19T07:46:08Z</time>
      </trkpt>
      <trkpt lat="46.041059950366616" lon="5.845300974324346">
        <ele>494.20001220703125</ele>
        <time>2011-06-19T07:46:14Z</time>
      </trkpt>
      <trkpt lat="46.040798937901855" lon="5.844739973545075">
        <ele>492.39999389648437</ele>
        <time>2011-06-19T07:46:19Z</time>
      </trkpt>
      <trkpt lat="46.040286971256137" lon="5.844117952510715">
        <ele>489</ele>
        <time>2011-06-19T07:46:26Z</time>
      </trkpt>
      <trkpt lat="46.039718929678202" lon="5.843588970601559">
        <ele>486.60000610351562</ele>
        <time>2011-06-19T07:46:33Z</time>
      </trkpt>
      <trkpt lat="46.039177961647511" lon="5.843080943450332">
        <ele>484.39999389648437</ele>
        <time>2011-06-19T07:46:40Z</time>
      </trkpt>
      <trkpt lat="46.038672951981425" lon="5.842572916299105">
        <ele>482.20001220703125</ele>
        <time>2011-06-19T07:46:47Z</time>
      </trkpt>
      <trkpt lat="46.038160985335708" lon="5.841911919414997">
        <ele>480.20001220703125</ele>
        <time>2011-06-19T07:46:55Z</time>
      </trkpt>
      <trkpt lat="46.037703920155764" lon="5.841153943911195">
        <ele>478</ele>
        <time>2011-06-19T07:47:03Z</time>
      </trkpt>
      <trkpt lat="46.037212992087007" lon="5.840322962030768">
        <ele>476.20001220703125</ele>
        <time>2011-06-19T07:47:12Z</time>
      </trkpt>
      <trkpt lat="46.036828933283687" lon="5.839671939611435">
        <ele>475.60000610351562</ele>
        <time>2011-06-19T07:47:20Z</time>
      </trkpt>
      <trkpt lat="46.036467924714088" lon="5.839070957154036">
        <ele>475.60000610351562</ele>
        <time>2011-06-19T07:47:28Z</time>
      </trkpt>
      <trkpt lat="46.036065928637981" lon="5.838554967194796">
        <ele>475.60000610351562</ele>
        <time>2011-06-19T07:47:36Z</time>
      </trkpt>
      <trkpt lat="46.03563099168241" lon="5.838168980553746">
        <ele>476.20001220703125</ele>
        <time>2011-06-19T07:47:44Z</time>
      </trkpt>
      <trkpt lat="46.03498793207109" lon="5.83774795755744">
        <ele>476.39999389648437</ele>
        <time>2011-06-19T07:47:55Z</time>
      </trkpt>
      <trkpt lat="46.034353924915195" lon="5.837332969531417">
        <ele>477</ele>
        <time>2011-06-19T07:48:06Z</time>
      </trkpt>
      <trkpt lat="46.033789990469813" lon="5.836964920163155">
        <ele>477.20001220703125</ele>
        <time>2011-06-19T07:48:16Z</time>
      </trkpt>
      <trkpt lat="46.033155983313918" lon="5.836550937965512">
        <ele>479</ele>
        <time>2011-06-19T07:48:28Z</time>
      </trkpt>
      <trkpt lat="46.032565981149673" lon="5.836171992123127">
        <ele>479.60000610351562</ele>
        <time>2011-06-19T07:48:39Z</time>
      </trkpt>
      <trkpt lat="46.032151998952031" lon="5.835902933031321">
        <ele>480.39999389648437</ele>
        <time>2011-06-19T07:48:47Z</time>
      </trkpt>
      <trkpt lat="46.031586974859238" lon="5.835532955825329">
        <ele>481.39999389648438</ele>
        <time>2011-06-19T07:48:58Z</time>
      </trkpt>
      <trkpt lat="46.031082971021533" lon="5.83521293476224">
        <ele>482.39999389648437</ele>
        <time>2011-06-19T07:49:08Z</time>
      </trkpt>
      <trkpt lat="46.030589947476983" lon="5.834894925355911">
        <ele>483.39999389648437</ele>
        <time>2011-06-19T07:49:18Z</time>
      </trkpt>
      <trkpt lat="46.030076975002885" lon="5.834557972848415">
        <ele>484.60000610351562</ele>
        <time>2011-06-19T07:49:29Z</time>
      </trkpt>
      <trkpt lat="46.029635919257998" lon="5.834265947341919">
        <ele>485.60000610351562</ele>
        <time>2011-06-19T07:49:39Z</time>
      </trkpt>
      <trkpt lat="46.028908956795931" lon="5.833442928269506">
        <ele>486.39999389648437</ele>
        <time>2011-06-19T07:49:58Z</time>
      </trkpt>
      <trkpt lat="46.02841098792851" lon="5.832449924200773">
        <ele>485.39999389648437</ele>
        <time>2011-06-19T07:50:13Z</time>
      </trkpt>
      <trkpt lat="46.028149975463748" lon="5.831910967826843">
        <ele>484.20001220703125</ele>
        <time>2011-06-19T07:50:20Z</time>
      </trkpt>
      <trkpt lat="46.027880916371942" lon="5.831359941512346">
        <ele>483.20001220703125</ele>
        <time>2011-06-19T07:50:27Z</time>
      </trkpt>
      <trkpt lat="46.027619987726212" lon="5.830831965431571">
        <ele>482.20001220703125</ele>
        <time>2011-06-19T07:50:34Z</time>
      </trkpt>
      <trkpt lat="46.027325950562954" lon="5.830210950225592">
        <ele>480.79998779296875</ele>
        <time>2011-06-19T07:50:42Z</time>
      </trkpt>
      <trkpt lat="46.02695195004344" lon="5.829508965834975">
        <ele>479.39999389648437</ele>
        <time>2011-06-19T07:50:52Z</time>
      </trkpt>
      <trkpt lat="46.026577949523926" lon="5.829098923131824">
        <ele>478.20001220703125</ele>
        <time>2011-06-19T07:51:00Z</time>
      </trkpt>
      <trkpt lat="46.026083920150995" lon="5.828906977549195">
        <ele>475.79998779296875</ele>
        <time>2011-06-19T07:52:07Z</time>
      </trkpt>
      <trkpt lat="46.025190996006131" lon="5.828766999766231">
        <ele>472</ele>
        <time>2011-06-19T07:52:18Z</time>
      </trkpt>
      <trkpt lat="46.024504937231541" lon="5.828829947859049">
        <ele>468.60000610351562</ele>
        <time>2011-06-19T07:52:25Z</time>
      </trkpt>
      <trkpt lat="46.023882916197181" lon="5.829010996967554">
        <ele>465</ele>
        <time>2011-06-19T07:52:31Z</time>
      </trkpt>
      <trkpt lat="46.02331998758018" lon="5.829088948667049">
        <ele>461.39999389648438</ele>
        <time>2011-06-19T07:52:36Z</time>
      </trkpt>
      <trkpt lat="46.022751946002245" lon="5.829318948090076">
        <ele>458</ele>
        <time>2011-06-19T07:52:41Z</time>
      </trkpt>
      <trkpt lat="46.022214917466044" lon="5.829710969701409">
        <ele>454.79998779296875</ele>
        <time>2011-06-19T07:52:46Z</time>
      </trkpt>
      <trkpt lat="46.021636985242367" lon="5.830038953572512">
        <ele>450.79998779296875</ele>
        <time>2011-06-19T07:52:51Z</time>
      </trkpt>
      <trkpt lat="46.021157959476113" lon="5.83014196716249">
        <ele>448</ele>
        <time>2011-06-19T07:52:55Z</time>
      </trkpt>
      <trkpt lat="46.020452957600355" lon="5.830260990187526">
        <ele>443.39999389648437</ele>
        <time>2011-06-19T07:53:01Z</time>
      </trkpt>
      <trkpt lat="46.019871924072504" lon="5.830392921343446">
        <ele>439.60000610351562</ele>
        <time>2011-06-19T07:53:06Z</time>
      </trkpt>
      <trkpt lat="46.019379990175366" lon="5.830540945753455">
        <ele>436</ele>
        <time>2011-06-19T07:53:11Z</time>
      </trkpt>
      <trkpt lat="46.018920997157693" lon="5.830655945464969">
        <ele>433.39999389648437</ele>
        <time>2011-06-19T07:53:19Z</time>
      </trkpt>
      <trkpt lat="46.018475918099284" lon="5.830284962430596">
        <ele>433.20001220703125</ele>
        <time>2011-06-19T07:53:31Z</time>
      </trkpt>
      <trkpt lat="46.018102923408151" lon="5.829740976914764">
        <ele>433</ele>
        <time>2011-06-19T07:53:44Z</time>
      </trkpt>
      <trkpt lat="46.017753984779119" lon="5.829055923968554">
        <ele>433</ele>
        <time>2011-06-19T07:54:00Z</time>
      </trkpt>
      <trkpt lat="46.017299937084317" lon="5.828584944829345">
        <ele>433.39999389648437</ele>
        <time>2011-06-19T07:54:14Z</time>
      </trkpt>
      <trkpt lat="46.016668947413564" lon="5.828219996765256">
        <ele>433.20001220703125</ele>
        <time>2011-06-19T07:54:28Z</time>
      </trkpt>
      <trkpt lat="46.015989929437637" lon="5.827846918255091">
        <ele>432.79998779296875</ele>
        <time>2011-06-19T07:54:44Z</time>
      </trkpt>
      <trkpt lat="46.015140926465392" lon="5.827296981588006">
        <ele>432.79998779296875</ele>
        <time>2011-06-19T07:54:59Z</time>
      </trkpt>
      <trkpt lat="46.014609932899475" lon="5.826945947483182">
        <ele>432.79998779296875</ele>
        <time>2011-06-19T07:55:08Z</time>
      </trkpt>
      <trkpt lat="46.014149934053421" lon="5.826572952792049">
        <ele>432.60000610351562</ele>
        <time>2011-06-19T07:55:16Z</time>
      </trkpt>
      <trkpt lat="46.013727989047766" lon="5.826242957264185">
        <ele>431.39999389648437</ele>
        <time>2011-06-19T07:55:22Z</time>
      </trkpt>
      <trkpt lat="46.013147961348295" lon="5.825786981731653">
        <ele>428.79998779296875</ele>
        <time>2011-06-19T07:55:29Z</time>
      </trkpt>
      <trkpt lat="46.012532981112599" lon="5.825280966237187">
        <ele>426.20001220703125</ele>
        <time>2011-06-19T07:55:36Z</time>
      </trkpt>
      <trkpt lat="46.012104917317629" lon="5.824882993474603">
        <ele>424</ele>
        <time>2011-06-19T07:55:41Z</time>
      </trkpt>
      <trkpt lat="46.011675931513309" lon="5.824464987963438">
        <ele>421.60000610351562</ele>
        <time>2011-06-19T07:55:46Z</time>
      </trkpt>
      <trkpt lat="46.011063968762755" lon="5.823880936950445">
        <ele>418.39999389648437</ele>
        <time>2011-06-19T07:55:53Z</time>
      </trkpt>
      <trkpt lat="46.010541943833232" lon="5.823385985568166">
        <ele>415.60000610351562</ele>
        <time>2011-06-19T07:55:59Z</time>
      </trkpt>
      <trkpt lat="46.009575929492712" lon="5.82247294485569">
        <ele>410</ele>
        <time>2011-06-19T07:56:10Z</time>
      </trkpt>
      <trkpt lat="46.008471949025989" lon="5.821409951895475">
        <ele>402.20001220703125</ele>
        <time>2011-06-19T07:56:22Z</time>
      </trkpt>
      <trkpt lat="46.008050926029682" lon="5.820850962772965">
        <ele>399.39999389648437</ele>
        <time>2011-06-19T07:56:27Z</time>
      </trkpt>
      <trkpt lat="46.007539965212345" lon="5.819924930110574">
        <ele>396.20001220703125</ele>
        <time>2011-06-19T07:56:35Z</time>
      </trkpt>
      <trkpt lat="46.007151966914535" lon="5.819349931553006">
        <ele>394.20001220703125</ele>
        <time>2011-06-19T07:56:41Z</time>
      </trkpt>
      <trkpt lat="46.006751982495189" lon="5.818988922983408">
        <ele>392.39999389648437</ele>
        <time>2011-06-19T07:56:46Z</time>
      </trkpt>
      <trkpt lat="46.005960982292891" lon="5.818828996270895">
        <ele>388.79998779296875</ele>
        <time>2011-06-19T07:56:54Z</time>
      </trkpt>
      <trkpt lat="46.005307948216796" lon="5.818876940757036">
        <ele>385.60000610351562</ele>
        <time>2011-06-19T07:57:00Z</time>
      </trkpt>
      <trkpt lat="46.0041559394449" lon="5.818955982103944">
        <ele>380.39999389648437</ele>
        <time>2011-06-19T07:57:10Z</time>
      </trkpt>
      <trkpt lat="46.003699963912368" lon="5.818988922983408">
        <ele>378.20001220703125</ele>
        <time>2011-06-19T07:57:14Z</time>
      </trkpt>
      <trkpt lat="46.003137957304716" lon="5.819020941853523">
        <ele>375.60000610351562</ele>
        <time>2011-06-19T07:57:19Z</time>
      </trkpt>
      <trkpt lat="46.002469919621944" lon="5.819025970995426">
        <ele>373.79998779296875</ele>
        <time>2011-06-19T07:57:25Z</time>
      </trkpt>
      <trkpt lat="46.001948984339833" lon="5.81899194046855">
        <ele>372.79998779296875</ele>
        <time>2011-06-19T07:57:30Z</time>
      </trkpt>
      <trkpt lat="46.001282958313823" lon="5.81894894130528">
        <ele>371.60000610351562</ele>
        <time>2011-06-19T07:57:37Z</time>
      </trkpt>
      <trkpt lat="46.000333959236741" lon="5.818888926878572">
        <ele>370.79998779296875</ele>
        <time>2011-06-19T07:57:48Z</time>
      </trkpt>
      <trkpt lat="45.999732976779342" lon="5.818844921886921">
        <ele>370.39999389648438</ele>
        <time>2011-06-19T07:57:56Z</time>
      </trkpt>
      <trkpt lat="45.999125959351659" lon="5.818805946037173">
        <ele>370</ele>
        <time>2011-06-19T07:58:05Z</time>
      </trkpt>
      <trkpt lat="45.998325990512967" lon="5.818742997944355">
        <ele>367.20001220703125</ele>
        <time>2011-06-19T07:58:18Z</time>
      </trkpt>
      <trkpt lat="45.997585952281952" lon="5.818693963810802">
        <ele>364.60000610351562</ele>
        <time>2011-06-19T07:58:28Z</time>
      </trkpt>
      <trkpt lat="45.996390944346786" lon="5.818621963262558">
        <ele>360.60000610351562</ele>
        <time>2011-06-19T07:58:42Z</time>
      </trkpt>
      <trkpt lat="45.995654929429293" lon="5.818859925493598">
        <ele>357.20001220703125</ele>
        <time>2011-06-19T07:58:51Z</time>
      </trkpt>
      <trkpt lat="45.995199959725142" lon="5.819108951836824">
        <ele>355.79998779296875</ele>
        <time>2011-06-19T07:58:57Z</time>
      </trkpt>
      <trkpt lat="45.994682963937521" lon="5.819304920732975">
        <ele>353.20001220703125</ele>
        <time>2011-06-19T07:59:04Z</time>
      </trkpt>
      <trkpt lat="45.993696916848421" lon="5.819564927369356">
        <ele>349.39999389648437</ele>
        <time>2011-06-19T07:59:15Z</time>
      </trkpt>
      <trkpt lat="45.993190985172987" lon="5.819695936515927">
        <ele>346.79998779296875</ele>
        <time>2011-06-19T07:59:20Z</time>
      </trkpt>
      <trkpt lat="45.992664936929941" lon="5.819840943440795">
        <ele>344</ele>
        <time>2011-06-19T07:59:25Z</time>
      </trkpt>
      <trkpt lat="45.991789950057864" lon="5.820081923156977">
        <ele>339.60000610351562</ele>
        <time>2011-06-19T07:59:33Z</time>
      </trkpt>
      <trkpt lat="45.990691920742393" lon="5.820397920906544">
        <ele>334.20001220703125</ele>
        <time>2011-06-19T07:59:43Z</time>
      </trkpt>
      <trkpt lat="45.989961940795183" lon="5.820960933342576">
        <ele>331.79998779296875</ele>
        <time>2011-06-19T07:59:51Z</time>
      </trkpt>
      <trkpt lat="45.98960897885263" lon="5.821329988539219">
        <ele>329</ele>
        <time>2011-06-19T07:59:58Z</time>
      </trkpt>
      <trkpt lat="45.988922920078039" lon="5.821814965456724">
        <ele>328</ele>
        <time>2011-06-19T08:00:13Z</time>
      </trkpt>
      <trkpt lat="45.988485971465707" lon="5.822188965976238">
        <ele>327</ele>
        <time>2011-06-19T08:00:21Z</time>
      </trkpt>
      <trkpt lat="45.987928993999958" lon="5.822678972035646">
        <ele>325.60000610351562</ele>
        <time>2011-06-19T08:00:31Z</time>
      </trkpt>
      <trkpt lat="45.987477963790298" lon="5.823057917878032">
        <ele>324.60000610351562</ele>
        <time>2011-06-19T08:00:39Z</time>
      </trkpt>
      <trkpt lat="45.987069932743907" lon="5.823411969467998">
        <ele>323.20001220703125</ele>
        <time>2011-06-19T08:00:46Z</time>
      </trkpt>
      <trkpt lat="45.986524941399693" lon="5.824301959946752">
        <ele>321</ele>
        <time>2011-06-19T08:00:58Z</time>
      </trkpt>
      <trkpt lat="45.986100984737277" lon="5.825378950685263">
        <ele>319</ele>
        <time>2011-06-19T08:01:11Z</time>
      </trkpt>
      <trkpt lat="45.985823962837458" lon="5.826036930084229">
        <ele>318.20001220703125</ele>
        <time>2011-06-19T08:01:20Z</time>
      </trkpt>
      <trkpt lat="45.985451973974705" lon="5.826626932248473">
        <ele>318</ele>
        <time>2011-06-19T08:01:30Z</time>
      </trkpt>
      <trkpt lat="45.98501292988658" lon="5.827168989926577">
        <ele>317.20001220703125</ele>
        <time>2011-06-19T08:01:40Z</time>
      </trkpt>
      <trkpt lat="45.98447497934103" lon="5.827827975153923">
        <ele>316.79998779296875</ele>
        <time>2011-06-19T08:01:52Z</time>
      </trkpt>
      <trkpt lat="45.984112964943051" lon="5.828729951754212">
        <ele>315.79998779296875</ele>
        <time>2011-06-19T08:02:05Z</time>
      </trkpt>
      <trkpt lat="45.983821945264935" lon="5.829716920852661">
        <ele>312.79998779296875</ele>
        <time>2011-06-19T08:02:16Z</time>
      </trkpt>
      <trkpt lat="45.983280977234244" lon="5.829953961074352">
        <ele>310.20001220703125</ele>
        <time>2011-06-19T08:02:27Z</time>
      </trkpt>
      <trkpt lat="45.982731962576509" lon="5.829871986061335">
        <ele>309.39999389648437</ele>
        <time>2011-06-19T08:02:38Z</time>
      </trkpt>
      <trkpt lat="45.982009945437312" lon="5.829763943329454">
        <ele>309</ele>
        <time>2011-06-19T08:02:54Z</time>
      </trkpt>
      <trkpt lat="45.981246940791607" lon="5.829600999131799">
        <ele>307</ele>
        <time>2011-06-19T08:03:08Z</time>
      </trkpt>
      <trkpt lat="45.980745954439044" lon="5.829609967768192">
        <ele>303.79998779296875</ele>
        <time>2011-06-19T08:03:17Z</time>
      </trkpt>
      <trkpt lat="45.980753917247057" lon="5.830741943791509">
        <ele>299.60000610351562</ele>
        <time>2011-06-19T08:03:32Z</time>
      </trkpt>
      <trkpt lat="45.980476979166269" lon="5.831596981734037">
        <ele>293</ele>
        <time>2011-06-19T08:03:47Z</time>
      </trkpt>
      <trkpt lat="45.979861998930573" lon="5.832369960844517">
        <ele>285.60000610351562</ele>
        <time>2011-06-19T08:03:59Z</time>
      </trkpt>
      <trkpt lat="45.979378949850798" lon="5.832857955247164">
        <ele>280.20001220703125</ele>
        <time>2011-06-19T08:04:10Z</time>
      </trkpt>
      <trkpt lat="45.978784924373031" lon="5.833286941051483">
        <ele>277.39999389648437</ele>
        <time>2011-06-19T08:04:22Z</time>
      </trkpt>
      <trkpt lat="45.978383934125304" lon="5.83398699760437">
        <ele>277.20001220703125</ele>
        <time>2011-06-19T08:04:35Z</time>
      </trkpt>
      <trkpt lat="45.977930976077914" lon="5.83351593464613">
        <ele>274.79998779296875</ele>
        <time>2011-06-19T08:04:51Z</time>
      </trkpt>
      <trkpt lat="45.977457985281944" lon="5.833851965144277">
        <ele>270.39999389648437</ele>
        <time>2011-06-19T08:05:00Z</time>
      </trkpt>
      <trkpt lat="45.976949958130717" lon="5.834149941802025">
        <ele>265.20001220703125</ele>
        <time>2011-06-19T08:05:08Z</time>
      </trkpt>
      <trkpt lat="45.976502951234579" lon="5.833958918228746">
        <ele>260.20001220703125</ele>
        <time>2011-06-19T08:05:13Z</time>
      </trkpt>
      <trkpt lat="45.975614972412586" lon="5.83396696485579">
        <ele>251.80000305175781</ele>
        <time>2011-06-19T08:05:22Z</time>
      </trkpt>
      <trkpt lat="45.975120943039656" lon="5.834323950111866">
        <ele>248.39999389648437</ele>
        <time>2011-06-19T08:05:30Z</time>
      </trkpt>
      <trkpt lat="45.975344991311431" lon="5.835266998037696">
        <ele>244.19999694824219</ele>
        <time>2011-06-19T08:05:40Z</time>
      </trkpt>
      <trkpt lat="45.976086957380176" lon="5.835846941918135">
        <ele>240.80000305175781</ele>
        <time>2011-06-19T08:05:50Z</time>
      </trkpt>
      <trkpt lat="45.976468920707703" lon="5.836259918287396">
        <ele>238.39999389648437</ele>
        <time>2011-06-19T08:05:55Z</time>
      </trkpt>
      <trkpt lat="45.976873934268951" lon="5.837374962866306">
        <ele>233.60000610351562</ele>
        <time>2011-06-19T08:06:04Z</time>
      </trkpt>
      <trkpt lat="45.976551985368133" lon="5.838346928358078">
        <ele>231.39999389648437</ele>
        <time>2011-06-19T08:06:16Z</time>
      </trkpt>
      <trkpt lat="45.975836925208569" lon="5.838058926165104">
        <ele>230.39999389648437</ele>
        <time>2011-06-19T08:06:29Z</time>
      </trkpt>
      <trkpt lat="45.975287994369864" lon="5.837726918980479">
        <ele>230.60000610351562</ele>
        <time>2011-06-19T08:06:38Z</time>
      </trkpt>
      <trkpt lat="45.974645940586925" lon="5.837538996711373">
        <ele>230.60000610351562</ele>
        <time>2011-06-19T08:06:47Z</time>
      </trkpt>
      <trkpt lat="45.973983937874436" lon="5.837537990882993">
        <ele>231</ele>
        <time>2011-06-19T08:06:56Z</time>
      </trkpt>
      <trkpt lat="45.973266949877143" lon="5.837483927607536">
        <ele>234</ele>
        <time>2011-06-19T08:07:07Z</time>
      </trkpt>
      <trkpt lat="45.972617939114571" lon="5.836998950690031">
        <ele>236.80000305175781</ele>
        <time>2011-06-19T08:07:21Z</time>
      </trkpt>
      <trkpt lat="45.972290961071849" lon="5.836491929367185">
        <ele>238.60000610351562</ele>
        <time>2011-06-19T08:07:31Z</time>
      </trkpt>
      <trkpt lat="45.971746975556016" lon="5.835820958018303">
        <ele>242</ele>
        <time>2011-06-19T08:07:49Z</time>
      </trkpt>
      <trkpt lat="45.97130298614502" lon="5.835561957210302">
        <ele>244.39999389648437</ele>
        <time>2011-06-19T08:08:48Z</time>
      </trkpt>
      <trkpt lat="45.970698986202478" lon="5.835646949708462">
        <ele>246.80000305175781</ele>
        <time>2011-06-19T08:09:10Z</time>
      </trkpt>
      <trkpt lat="45.969874961301684" lon="5.835637981072068">
        <ele>247.80000305175781</ele>
        <time>2011-06-19T08:09:28Z</time>
      </trkpt>
      <trkpt lat="45.969059988856316" lon="5.835535973310471">
        <ele>249.19999694824219</ele>
        <time>2011-06-19T08:09:43Z</time>
      </trkpt>
      <trkpt lat="45.968527989462018" lon="5.835468918085098">
        <ele>250</ele>
        <time>2011-06-19T08:09:52Z</time>
      </trkpt>
      <trkpt lat="45.96806195564568" lon="5.835453998297453">
        <ele>250.19999694824219</ele>
        <time>2011-06-19T08:10:00Z</time>
      </trkpt>
      <trkpt lat="45.967518975958228" lon="5.835443940013647">
        <ele>249.60000610351562</ele>
        <time>2011-06-19T08:10:09Z</time>
      </trkpt>
      <trkpt lat="45.966763934120536" lon="5.835426924750209">
        <ele>248.39999389648437</ele>
        <time>2011-06-19T08:10:21Z</time>
      </trkpt>
      <trkpt lat="45.965975951403379" lon="5.835354924201965">
        <ele>245</ele>
        <time>2011-06-19T08:10:33Z</time>
      </trkpt>
      <trkpt lat="45.965371951460838" lon="5.835285941138864">
        <ele>242.60000610351562</ele>
        <time>2011-06-19T08:10:40Z</time>
      </trkpt>
      <trkpt lat="45.964744985103607" lon="5.835206983610988">
        <ele>240.19999694824219</ele>
        <time>2011-06-19T08:10:47Z</time>
      </trkpt>
      <trkpt lat="45.963980974629521" lon="5.835199942812324">
        <ele>235.60000610351562</ele>
        <time>2011-06-19T08:10:57Z</time>
      </trkpt>
      <trkpt lat="45.963431959971786" lon="5.835120985284448">
        <ele>228.39999389648437</ele>
        <time>2011-06-19T08:11:05Z</time>
      </trkpt>
      <trkpt lat="45.962982941418886" lon="5.835387948900461">
        <ele>225.39999389648437</ele>
        <time>2011-06-19T08:11:11Z</time>
      </trkpt>
      <trkpt lat="45.962451947852969" lon="5.835692966356874">
        <ele>224.39999389648437</ele>
        <time>2011-06-19T08:11:20Z</time>
      </trkpt>
      <trkpt lat="45.961895976215601" lon="5.835837973281741">
        <ele>224.39999389648437</ele>
        <time>2011-06-19T08:11:32Z</time>
      </trkpt>
      <trkpt lat="45.961445951834321" lon="5.835931934416294">
        <ele>224.19999694824219</ele>
        <time>2011-06-19T08:11:41Z</time>
      </trkpt>
      <trkpt lat="45.96094898879528" lon="5.836129998788238">
        <ele>223.39999389648437</ele>
        <time>2011-06-19T08:11:53Z</time>
      </trkpt>
      <trkpt lat="45.96047599799931" lon="5.836124969646335">
        <ele>224</ele>
        <time>2011-06-19T08:12:03Z</time>
      </trkpt>
      <trkpt lat="45.960025973618031" lon="5.836009969934821">
        <ele>226</ele>
        <time>2011-06-19T08:12:12Z</time>
      </trkpt>
      <trkpt lat="45.959560945630074" lon="5.835544941946864">
        <ele>230.80000305175781</ele>
        <time>2011-06-19T08:12:29Z</time>
      </trkpt>
      <trkpt lat="45.959218963980675" lon="5.835181921720505">
        <ele>233.39999389648437</ele>
        <time>2011-06-19T08:12:48Z</time>
      </trkpt>
      <trkpt lat="45.958882933482528" lon="5.834691999480128">
        <ele>232.39999389648437</ele>
        <time>2011-06-19T08:13:05Z</time>
      </trkpt>
      <trkpt lat="45.958594931289554" lon="5.834142984822393">
        <ele>231.19999694824219</ele>
        <time>2011-06-19T08:13:19Z</time>
      </trkpt>
      <trkpt lat="45.958501975983381" lon="5.833545941859484">
        <ele>228</ele>
        <time>2011-06-19T08:13:38Z</time>
      </trkpt>
      <trkpt lat="45.958574982360005" lon="5.832872958853841">
        <ele>226.60000610351562</ele>
        <time>2011-06-19T08:16:52Z</time>
      </trkpt>
      <trkpt lat="45.958453947678208" lon="5.832072990015149">
        <ele>226.19999694824219</ele>
        <time>2011-06-19T08:17:11Z</time>
      </trkpt>
      <trkpt lat="45.957668982446194" lon="5.831964947283268">
        <ele>224.80000305175781</ele>
        <time>2011-06-19T08:17:27Z</time>
      </trkpt>
      <trkpt lat="45.957116950303316" lon="5.831942986696959">
        <ele>224.80000305175781</ele>
        <time>2011-06-19T08:17:39Z</time>
      </trkpt>
      <trkpt lat="45.956193935126066" lon="5.831760931760073">
        <ele>224.39999389648437</ele>
        <time>2011-06-19T08:17:56Z</time>
      </trkpt>
      <trkpt lat="45.955466972663999" lon="5.83151794038713">
        <ele>224</ele>
        <time>2011-06-19T08:18:12Z</time>
      </trkpt>
      <trkpt lat="45.954934973269701" lon="5.831369999796152">
        <ele>224</ele>
        <time>2011-06-19T08:18:24Z</time>
      </trkpt>
      <trkpt lat="45.954211950302124" lon="5.831632940098643">
        <ele>225.60000610351562</ele>
        <time>2011-06-19T08:18:40Z</time>
      </trkpt>
      <trkpt lat="45.953537961468101" lon="5.832089921459556">
        <ele>227.39999389648437</ele>
        <time>2011-06-19T08:18:58Z</time>
      </trkpt>
      <trkpt lat="45.953071927651763" lon="5.831656996160746">
        <ele>228.60000610351562</ele>
        <time>2011-06-19T08:19:17Z</time>
      </trkpt>
      <trkpt lat="45.952685941010714" lon="5.830776980146766">
        <ele>229.60000610351562</ele>
        <time>2011-06-19T08:19:33Z</time>
      </trkpt>
      <trkpt lat="45.95222594216466" lon="5.829590940847993">
        <ele>231.39999389648437</ele>
        <time>2011-06-19T08:19:52Z</time>
      </trkpt>
      <trkpt lat="45.951911956071854" lon="5.828852998092771">
        <ele>234.39999389648437</ele>
        <time>2011-06-19T08:20:06Z</time>
      </trkpt>
      <trkpt lat="45.95158196054399" lon="5.828159982338548">
        <ele>236.80000305175781</ele>
        <time>2011-06-19T08:20:22Z</time>
      </trkpt>
      <trkpt lat="45.951106958091259" lon="5.827610967680812">
        <ele>238.80000305175781</ele>
        <time>2011-06-19T08:20:38Z</time>
      </trkpt>
      <trkpt lat="45.950618963688612" lon="5.827192962169647">
        <ele>242.19999694824219</ele>
        <time>2011-06-19T08:20:53Z</time>
      </trkpt>
      <trkpt lat="45.950081935152411" lon="5.826711924746633">
        <ele>247.19999694824219</ele>
        <time>2011-06-19T08:21:16Z</time>
      </trkpt>
      <trkpt lat="45.94968999736011" lon="5.826235916465521">
        <ele>250.80000305175781</ele>
        <time>2011-06-19T08:21:32Z</time>
      </trkpt>
      <trkpt lat="45.949339969083667" lon="5.825706934556365">
        <ele>255.39999389648437</ele>
        <time>2011-06-19T08:21:53Z</time>
      </trkpt>
      <trkpt lat="45.949020953848958" lon="5.82511399872601">
        <ele>258.20001220703125</ele>
        <time>2011-06-19T08:22:12Z</time>
      </trkpt>
      <trkpt lat="45.948818949982524" lon="5.824508992955089">
        <ele>260</ele>
        <time>2011-06-19T08:22:28Z</time>
      </trkpt>
      <trkpt lat="45.948612922802567" lon="5.823884960263968">
        <ele>262.20001220703125</ele>
        <time>2011-06-19T08:22:42Z</time>
      </trkpt>
      <trkpt lat="45.948312934488058" lon="5.823098989203572">
        <ele>265.39999389648438</ele>
        <time>2011-06-19T08:23:02Z</time>
      </trkpt>
      <trkpt lat="45.948063991963863" lon="5.822475962340832">
        <ele>268.60000610351562</ele>
        <time>2011-06-19T08:23:19Z</time>
      </trkpt>
      <trkpt lat="45.947755957022309" lon="5.821669958531857">
        <ele>271.39999389648437</ele>
        <time>2011-06-19T08:23:39Z</time>
      </trkpt>
      <trkpt lat="45.947519922628999" lon="5.820991946384311">
        <ele>275</ele>
        <time>2011-06-19T08:24:00Z</time>
      </trkpt>
      <trkpt lat="45.947268968448043" lon="5.820246962830424">
        <ele>279.60000610351562</ele>
        <time>2011-06-19T08:24:23Z</time>
      </trkpt>
      <trkpt lat="45.947055984288454" lon="5.819564927369356">
        <ele>285.79998779296875</ele>
        <time>2011-06-19T08:24:47Z</time>
      </trkpt>
      <trkpt lat="45.946769993752241" lon="5.819095959886909">
        <ele>290.20001220703125</ele>
        <time>2011-06-19T08:25:07Z</time>
      </trkpt>
      <trkpt lat="45.946606965735555" lon="5.818340918049216">
        <ele>292.60000610351562</ele>
        <time>2011-06-19T08:25:24Z</time>
      </trkpt>
      <trkpt lat="45.946385934948921" lon="5.81763993948698">
        <ele>294.20001220703125</ele>
        <time>2011-06-19T08:25:38Z</time>
      </trkpt>
      <trkpt lat="45.946052921935916" lon="5.81673595122993">
        <ele>296.39999389648438</ele>
        <time>2011-06-19T08:25:53Z</time>
      </trkpt>
      <trkpt lat="45.94569593667984" lon="5.81576993688941">
        <ele>298.79998779296875</ele>
        <time>2011-06-19T08:26:11Z</time>
      </trkpt>
      <trkpt lat="45.945190927013755" lon="5.815048925578594">
        <ele>300.20001220703125</ele>
        <time>2011-06-19T08:26:27Z</time>
      </trkpt>
      <trkpt lat="45.944484919309616" lon="5.814620945602655">
        <ele>303</ele>
        <time>2011-06-19T08:26:44Z</time>
      </trkpt>
      <trkpt lat="45.944046964868903" lon="5.814424976706505">
        <ele>304.60000610351562</ele>
        <time>2011-06-19T08:26:54Z</time>
      </trkpt>
      <trkpt lat="45.943227969110012" lon="5.814020968973637">
        <ele>307.20001220703125</ele>
        <time>2011-06-19T08:27:14Z</time>
      </trkpt>
      <trkpt lat="45.942700998857617" lon="5.813816953450441">
        <ele>308.60000610351562</ele>
        <time>2011-06-19T08:27:25Z</time>
      </trkpt>
      <trkpt lat="45.942100938409567" lon="5.813601957634091">
        <ele>308.60000610351562</ele>
        <time>2011-06-19T08:27:37Z</time>
      </trkpt>
      <trkpt lat="45.941491993144155" lon="5.813325941562653">
        <ele>309</ele>
        <time>2011-06-19T08:27:49Z</time>
      </trkpt>
      <trkpt lat="45.940903918817639" lon="5.813041962683201">
        <ele>309.60000610351562</ele>
        <time>2011-06-19T08:28:01Z</time>
      </trkpt>
      <trkpt lat="45.940464958548546" lon="5.812823949381709">
        <ele>310</ele>
        <time>2011-06-19T08:28:10Z</time>
      </trkpt>
      <trkpt lat="45.939697930589318" lon="5.81250392831862">
        <ele>308.39999389648437</ele>
        <time>2011-06-19T08:28:23Z</time>
      </trkpt>
      <trkpt lat="45.938576934859157" lon="5.812256997451186">
        <ele>304.39999389648437</ele>
        <time>2011-06-19T08:28:37Z</time>
      </trkpt>
      <trkpt lat="45.937935970723629" lon="5.812035966664553">
        <ele>302.20001220703125</ele>
        <time>2011-06-19T08:28:44Z</time>
      </trkpt>
      <trkpt lat="45.937448982149363" lon="5.811882996931672">
        <ele>299.79998779296875</ele>
        <time>2011-06-19T08:28:49Z</time>
      </trkpt>
      <trkpt lat="45.936769964173436" lon="5.811909986659885">
        <ele>298.20001220703125</ele>
        <time>2011-06-19T08:28:56Z</time>
      </trkpt>
      <trkpt lat="45.936258919537067" lon="5.811932953074575">
        <ele>298.39999389648437</ele>
        <time>2011-06-19T08:29:02Z</time>
      </trkpt>
      <trkpt lat="45.93538099899888" lon="5.811789957806468">
        <ele>299.39999389648438</ele>
        <time>2011-06-19T08:29:15Z</time>
      </trkpt>
      <trkpt lat="45.93456594273448" lon="5.811672946438193">
        <ele>301.79998779296875</ele>
        <time>2011-06-19T08:29:32Z</time>
      </trkpt>
      <trkpt lat="45.933773936703801" lon="5.811589965596795">
        <ele>302.79998779296875</ele>
        <time>2011-06-19T08:29:48Z</time>
      </trkpt>
      <trkpt lat="45.933343945071101" lon="5.811380920931697">
        <ele>302.20001220703125</ele>
        <time>2011-06-19T08:29:56Z</time>
      </trkpt>
      <trkpt lat="45.932828960940242" lon="5.811066934838891">
        <ele>301.79998779296875</ele>
        <time>2011-06-19T08:30:05Z</time>
      </trkpt>
      <trkpt lat="45.931946933269501" lon="5.810646917670965">
        <ele>298.79998779296875</ele>
        <time>2011-06-19T08:30:17Z</time>
      </trkpt>
      <trkpt lat="45.931470924988389" lon="5.810570977628231">
        <ele>298.79998779296875</ele>
        <time>2011-06-19T08:30:23Z</time>
      </trkpt>
      <trkpt lat="45.930898943915963" lon="5.810542982071638">
        <ele>299.60000610351562</ele>
        <time>2011-06-19T08:30:31Z</time>
      </trkpt>
      <trkpt lat="45.930193942040205" lon="5.810468969866633">
        <ele>299.39999389648438</ele>
        <time>2011-06-19T08:30:41Z</time>
      </trkpt>
      <trkpt lat="45.929759927093983" lon="5.810286998748779">
        <ele>299</ele>
        <time>2011-06-19T08:30:47Z</time>
      </trkpt>
      <trkpt lat="45.929077975451946" lon="5.809910986572504">
        <ele>297.39999389648437</ele>
        <time>2011-06-19T08:30:56Z</time>
      </trkpt>
      <trkpt lat="45.928513957187533" lon="5.809662966057658">
        <ele>296.60000610351562</ele>
        <time>2011-06-19T08:31:03Z</time>
      </trkpt>
      <trkpt lat="45.927931917831302" lon="5.809567999094725">
        <ele>295.79998779296875</ele>
        <time>2011-06-19T08:31:10Z</time>
      </trkpt>
      <trkpt lat="45.927381981164217" lon="5.809562969952822">
        <ele>294</ele>
        <time>2011-06-19T08:31:16Z</time>
      </trkpt>
      <trkpt lat="45.926757948473096" lon="5.809594988822937">
        <ele>291.60000610351562</ele>
        <time>2011-06-19T08:31:22Z</time>
      </trkpt>
      <trkpt lat="45.926193930208683" lon="5.809681992977858">
        <ele>289</ele>
        <time>2011-06-19T08:31:27Z</time>
      </trkpt>
      <trkpt lat="45.925630917772651" lon="5.809858934953809">
        <ele>286.39999389648437</ele>
        <time>2011-06-19T08:31:32Z</time>
      </trkpt>
      <trkpt lat="45.925165973603725" lon="5.809869999065995">
        <ele>283.39999389648437</ele>
        <time>2011-06-19T08:31:36Z</time>
      </trkpt>
      <trkpt lat="45.924600949510932" lon="5.809801938012242">
        <ele>280.60000610351562</ele>
        <time>2011-06-19T08:31:41Z</time>
      </trkpt>
      <trkpt lat="45.92403894290328" lon="5.809727925807238">
        <ele>277.20001220703125</ele>
        <time>2011-06-19T08:31:46Z</time>
      </trkpt>
      <trkpt lat="45.923588918522" lon="5.809673946350813">
        <ele>275.20001220703125</ele>
        <time>2011-06-19T08:31:50Z</time>
      </trkpt>
      <trkpt lat="45.922582922503352" lon="5.809551989659667">
        <ele>270.39999389648437</ele>
        <time>2011-06-19T08:31:59Z</time>
      </trkpt>
      <trkpt lat="45.921955956146121" lon="5.809515947476029">
        <ele>269</ele>
        <time>2011-06-19T08:32:05Z</time>
      </trkpt>
      <trkpt lat="45.921483971178532" lon="5.809478983283043">
        <ele>268.39999389648438</ele>
        <time>2011-06-19T08:32:10Z</time>
      </trkpt>
      <trkpt lat="45.920344954356551" lon="5.809169942513108">
        <ele>267.60000610351562</ele>
        <time>2011-06-19T08:32:23Z</time>
      </trkpt>
      <trkpt lat="45.919812954962254" lon="5.809017978608608">
        <ele>268</ele>
        <time>2011-06-19T08:32:30Z</time>
      </trkpt>
      <trkpt lat="45.919078951701522" lon="5.808857968077064">
        <ele>268.20001220703125</ele>
        <time>2011-06-19T08:32:41Z</time>
      </trkpt>
      <trkpt lat="45.918409992009401" lon="5.808826955035329">
        <ele>266.79998779296875</ele>
        <time>2011-06-19T08:32:51Z</time>
      </trkpt>
      <trkpt lat="45.917864916846156" lon="5.808856962248683">
        <ele>265</ele>
        <time>2011-06-19T08:32:58Z</time>
      </trkpt>
      <trkpt lat="45.917146923020482" lon="5.808944972231984">
        <ele>262.39999389648438</ele>
        <time>2011-06-19T08:33:06Z</time>
      </trkpt>
      <trkpt lat="45.916473940014839" lon="5.809012949466705">
        <ele>259.79998779296875</ele>
        <time>2011-06-19T08:33:13Z</time>
      </trkpt>
      <trkpt lat="45.915693920105696" lon="5.809084950014949">
        <ele>257.20001220703125</ele>
        <time>2011-06-19T08:33:21Z</time>
      </trkpt>
      <trkpt lat="45.915107941254973" lon="5.809126943349838">
        <ele>255.19999694824219</ele>
        <time>2011-06-19T08:33:27Z</time>
      </trkpt>
      <trkpt lat="45.914262961596251" lon="5.809068940579891">
        <ele>251.80000305175781</ele>
        <time>2011-06-19T08:33:36Z</time>
      </trkpt>
      <trkpt lat="45.913552930578589" lon="5.808967938646674">
        <ele>248.80000305175781</ele>
        <time>2011-06-19T08:33:44Z</time>
      </trkpt>
      <trkpt lat="45.912938956171274" lon="5.80884899944067">
        <ele>246.60000610351562</ele>
        <time>2011-06-19T08:33:51Z</time>
      </trkpt>
      <trkpt lat="45.912164971232414" lon="5.808525960892439">
        <ele>243.60000610351562</ele>
        <time>2011-06-19T08:34:01Z</time>
      </trkpt>
      <trkpt lat="45.91140397824347" lon="5.808388916775584">
        <ele>240.60000610351562</ele>
        <time>2011-06-19T08:34:14Z</time>
      </trkpt>
      <trkpt lat="45.910802995786071" lon="5.808622939512134">
        <ele>237.39999389648437</ele>
        <time>2011-06-19T08:34:22Z</time>
      </trkpt>
      <trkpt lat="45.910188937559724" lon="5.808905996382237">
        <ele>233.80000305175781</ele>
        <time>2011-06-19T08:34:29Z</time>
      </trkpt>
      <trkpt lat="45.909508997574449" lon="5.809120992198587">
        <ele>230.60000610351562</ele>
        <time>2011-06-19T08:34:36Z</time>
      </trkpt>
      <trkpt lat="45.908503923565149" lon="5.809143958613277">
        <ele>226.39999389648437</ele>
        <time>2011-06-19T08:34:46Z</time>
      </trkpt>
      <trkpt lat="45.907857930287719" lon="5.808923933655024">
        <ele>225.19999694824219</ele>
        <time>2011-06-19T08:34:53Z</time>
      </trkpt>
      <trkpt lat="45.907077994197607" lon="5.808585975319147">
        <ele>226.19999694824219</ele>
        <time>2011-06-19T08:35:03Z</time>
      </trkpt>
      <trkpt lat="45.906558986753225" lon="5.808454966172576">
        <ele>226.60000610351562</ele>
        <time>2011-06-19T08:35:10Z</time>
      </trkpt>
      <trkpt lat="45.905868988484144" lon="5.808306941762567">
        <ele>226.19999694824219</ele>
        <time>2011-06-19T08:35:19Z</time>
      </trkpt>
      <trkpt lat="45.90540898963809" lon="5.808048946782947">
        <ele>226.80000305175781</ele>
        <time>2011-06-19T08:35:26Z</time>
      </trkpt>
      <trkpt lat="45.904557975009084" lon="5.80758391879499">
        <ele>226.19999694824219</ele>
        <time>2011-06-19T08:35:40Z</time>
      </trkpt>
      <trkpt lat="45.904051959514618" lon="5.80732299014926">
        <ele>224.39999389648437</ele>
        <time>2011-06-19T08:35:47Z</time>
      </trkpt>
      <trkpt lat="45.90340998955071" lon="5.806980924680829">
        <ele>222.39999389648437</ele>
        <time>2011-06-19T08:35:55Z</time>
      </trkpt>
      <trkpt lat="45.90242394246161" lon="5.806855950504541">
        <ele>219.19999694824219</ele>
        <time>2011-06-19T08:36:06Z</time>
      </trkpt>
      <trkpt lat="45.901636965572834" lon="5.806908924132586">
        <ele>217</ele>
        <time>2011-06-19T08:36:14Z</time>
      </trkpt>
      <trkpt lat="45.900686960667372" lon="5.806971956044436">
        <ele>215.39999389648437</ele>
        <time>2011-06-19T08:36:24Z</time>
      </trkpt>
      <trkpt lat="45.900099975988269" lon="5.807011937722564">
        <ele>214.80000305175781</ele>
        <time>2011-06-19T08:36:31Z</time>
      </trkpt>
      <trkpt lat="45.899238986894488" lon="5.807074969634414">
        <ele>215.60000610351562</ele>
        <time>2011-06-19T08:36:44Z</time>
      </trkpt>
      <trkpt lat="45.898443963378668" lon="5.80710799433291">
        <ele>217</ele>
        <time>2011-06-19T08:36:59Z</time>
      </trkpt>
      <trkpt lat="45.89793493039906" lon="5.807122997939587">
        <ele>217</ele>
        <time>2011-06-19T08:37:08Z</time>
      </trkpt>
      <trkpt lat="45.897422963753343" lon="5.807143952697516">
        <ele>216.19999694824219</ele>
        <time>2011-06-19T08:37:16Z</time>
      </trkpt>
      <trkpt lat="45.896893981844187" lon="5.80715099349618">
        <ele>215.80000305175781</ele>
        <time>2011-06-19T08:37:24Z</time>
      </trkpt>
      <trkpt lat="45.896180933341384" lon="5.807674946263433">
        <ele>218</ele>
        <time>2011-06-19T08:37:39Z</time>
      </trkpt>
      <trkpt lat="45.895540975034237" lon="5.808413978666067">
        <ele>219.80000305175781</ele>
        <time>2011-06-19T08:37:56Z</time>
      </trkpt>
      <trkpt lat="45.894912919029593" lon="5.808488996699452">
        <ele>219.60000610351562</ele>
        <time>2011-06-19T08:38:08Z</time>
      </trkpt>
      <trkpt lat="45.894396929070354" lon="5.808339966461062">
        <ele>218.39999389648437</ele>
        <time>2011-06-19T08:38:16Z</time>
      </trkpt>
      <trkpt lat="45.893911952152848" lon="5.808189930394292">
        <ele>216.39999389648437</ele>
        <time>2011-06-19T08:38:22Z</time>
      </trkpt>
      <trkpt lat="45.893273921683431" lon="5.807983987033367">
        <ele>214.19999694824219</ele>
        <time>2011-06-19T08:38:29Z</time>
      </trkpt>
      <trkpt lat="45.892695989459753" lon="5.807794975116849">
        <ele>213.60000610351562</ele>
        <time>2011-06-19T08:38:36Z</time>
      </trkpt>
      <trkpt lat="45.891898954287171" lon="5.807354925200343">
        <ele>214</ele>
        <time>2011-06-19T08:38:49Z</time>
      </trkpt>
      <trkpt lat="45.890872925519943" lon="5.806851927191019">
        <ele>214.19999694824219</ele>
        <time>2011-06-19T08:39:08Z</time>
      </trkpt>
      <trkpt lat="45.890331957489252" lon="5.8066819421947">
        <ele>214.19999694824219</ele>
        <time>2011-06-19T08:39:17Z</time>
      </trkpt>
      <trkpt lat="45.889876987785101" lon="5.806650929152966">
        <ele>213.80000305175781</ele>
        <time>2011-06-19T08:39:24Z</time>
      </trkpt>
      <trkpt lat="45.889288997277617" lon="5.806765928864479">
        <ele>213.60000610351562</ele>
        <time>2011-06-19T08:39:33Z</time>
      </trkpt>
      <trkpt lat="45.888646943494678" lon="5.806922921910882">
        <ele>213.39999389648437</ele>
        <time>2011-06-19T08:39:43Z</time>
      </trkpt>
      <trkpt lat="45.887878993526101" lon="5.80706499516964">
        <ele>212.60000610351562</ele>
        <time>2011-06-19T08:39:54Z</time>
      </trkpt>
      <trkpt lat="45.887322938069701" lon="5.807164991274476">
        <ele>211.80000305175781</ele>
        <time>2011-06-19T08:40:02Z</time>
      </trkpt>
      <trkpt lat="45.886739976704121" lon="5.8072379976511">
        <ele>211.19999694824219</ele>
        <time>2011-06-19T08:40:11Z</time>
      </trkpt>
      <trkpt lat="45.886263968423009" lon="5.807203967124224">
        <ele>211.80000305175781</ele>
        <time>2011-06-19T08:40:19Z</time>
      </trkpt>
      <trkpt lat="45.885806987062097" lon="5.807097936049104">
        <ele>212.39999389648437</ele>
        <time>2011-06-19T08:40:27Z</time>
      </trkpt>
      <trkpt lat="45.885338941588998" lon="5.806965921074152">
        <ele>212.80000305175781</ele>
        <time>2011-06-19T08:40:35Z</time>
      </trkpt>
      <trkpt lat="45.884731924161315" lon="5.806791996583343">
        <ele>214</ele>
        <time>2011-06-19T08:40:46Z</time>
      </trkpt>
      <trkpt lat="45.884190956130624" lon="5.80663793720305">
        <ele>215.19999694824219</ele>
        <time>2011-06-19T08:40:56Z</time>
      </trkpt>
      <trkpt lat="45.883464999496937" lon="5.806447919458151">
        <ele>218</ele>
        <time>2011-06-19T08:41:11Z</time>
      </trkpt>
      <trkpt lat="45.882976921275258" lon="5.806327974423766">
        <ele>219.80000305175781</ele>
        <time>2011-06-19T08:41:22Z</time>
      </trkpt>
      <trkpt lat="45.882146945223212" lon="5.806215992197394">
        <ele>222.39999389648437</ele>
        <time>2011-06-19T08:41:40Z</time>
      </trkpt>
      <trkpt lat="45.881399950012565" lon="5.806153966113925">
        <ele>224</ele>
        <time>2011-06-19T08:41:57Z</time>
      </trkpt>
      <trkpt lat="45.880696959793568" lon="5.806201994419098">
        <ele>223.60000610351562</ele>
        <time>2011-06-19T08:42:10Z</time>
      </trkpt>
      <trkpt lat="45.879808980971575" lon="5.806158995255828">
        <ele>222</ele>
        <time>2011-06-19T08:42:23Z</time>
      </trkpt>
      <trkpt lat="45.879259966313839" lon="5.806020945310593">
        <ele>220.39999389648437</ele>
        <time>2011-06-19T08:42:30Z</time>
      </trkpt>
      <trkpt lat="45.878571979701519" lon="5.805826988071203">
        <ele>217.80000305175781</ele>
        <time>2011-06-19T08:42:38Z</time>
      </trkpt>
      <trkpt lat="45.877665979787707" lon="5.805550971999764">
        <ele>215.80000305175781</ele>
        <time>2011-06-19T08:42:48Z</time>
      </trkpt>
      <trkpt lat="45.87696198374033" lon="5.805407976731658">
        <ele>215.60000610351562</ele>
        <time>2011-06-19T08:42:56Z</time>
      </trkpt>
      <trkpt lat="45.876290928572416" lon="5.805240925401449">
        <ele>214.60000610351562</ele>
        <time>2011-06-19T08:43:04Z</time>
      </trkpt>
      <trkpt lat="45.875549968332052" lon="5.805041939020157">
        <ele>213</ele>
        <time>2011-06-19T08:43:12Z</time>
      </trkpt>
      <trkpt lat="45.874774977564812" lon="5.804800959303975">
        <ele>211.80000305175781</ele>
        <time>2011-06-19T08:43:20Z</time>
      </trkpt>
      <trkpt lat="45.874097971245646" lon="5.804711943492293">
        <ele>211.80000305175781</ele>
        <time>2011-06-19T08:43:27Z</time>
      </trkpt>
      <trkpt lat="45.873384922742844" lon="5.804632985964418">
        <ele>211.80000305175781</ele>
        <time>2011-06-19T08:43:35Z</time>
      </trkpt>
      <trkpt lat="45.872937999665737" lon="5.80455495044589">
        <ele>212.80000305175781</ele>
        <time>2011-06-19T08:43:41Z</time>
      </trkpt>
      <trkpt lat="45.872391918674111" lon="5.804370967671275">
        <ele>214</ele>
        <time>2011-06-19T08:43:49Z</time>
      </trkpt>
      <trkpt lat="45.871767969802022" lon="5.804169969633222">
        <ele>214.19999694824219</ele>
        <time>2011-06-19T08:43:58Z</time>
      </trkpt>
      <trkpt lat="45.871065985411406" lon="5.803862940520048">
        <ele>213.39999389648437</ele>
        <time>2011-06-19T08:44:08Z</time>
      </trkpt>
      <trkpt lat="45.870416974648833" lon="5.803569993004203">
        <ele>212.60000610351562</ele>
        <time>2011-06-19T08:44:17Z</time>
      </trkpt>
      <trkpt lat="45.869907941669226" lon="5.803328929468989">
        <ele>212</ele>
        <time>2011-06-19T08:44:24Z</time>
      </trkpt>
      <trkpt lat="45.869209980592132" lon="5.802543964236975">
        <ele>210.60000610351562</ele>
        <time>2011-06-19T08:44:37Z</time>
      </trkpt>
      <trkpt lat="45.868549989536405" lon="5.802158983424306">
        <ele>210.39999389648437</ele>
        <time>2011-06-19T08:44:49Z</time>
      </trkpt>
      <trkpt lat="45.868075992912054" lon="5.802037948742509">
        <ele>210.19999694824219</ele>
        <time>2011-06-19T08:44:57Z</time>
      </trkpt>
      <trkpt lat="45.867555979639292" lon="5.801618937402964">
        <ele>209</ele>
        <time>2011-06-19T08:45:07Z</time>
      </trkpt>
      <trkpt lat="45.866976957768202" lon="5.800726935267448">
        <ele>207.19999694824219</ele>
        <time>2011-06-19T08:45:21Z</time>
      </trkpt>
      <trkpt lat="45.866596922278404" lon="5.800287974998355">
        <ele>206.60000610351562</ele>
        <time>2011-06-19T08:45:28Z</time>
      </trkpt>
      <trkpt lat="45.86602695286274" lon="5.800010953098536">
        <ele>206.19999694824219</ele>
        <time>2011-06-19T08:45:37Z</time>
      </trkpt>
      <trkpt lat="45.865563936531544" lon="5.80002193339169">
        <ele>205.80000305175781</ele>
        <time>2011-06-19T08:45:44Z</time>
      </trkpt>
      <trkpt lat="45.864970916882157" lon="5.80010793171823">
        <ele>206.19999694824219</ele>
        <time>2011-06-19T08:45:53Z</time>
      </trkpt>
      <trkpt lat="45.864122919738293" lon="5.799712976440787">
        <ele>206</ele>
        <time>2011-06-19T08:46:06Z</time>
      </trkpt>
      <trkpt lat="45.863613970577717" lon="5.79937694594264">
        <ele>206.19999694824219</ele>
        <time>2011-06-19T08:46:14Z</time>
      </trkpt>
      <trkpt lat="45.862746946513653" lon="5.79933294095099">
        <ele>206.19999694824219</ele>
        <time>2011-06-19T08:46:26Z</time>
      </trkpt>
      <trkpt lat="45.862157950177789" lon="5.799450958147645">
        <ele>205.80000305175781</ele>
        <time>2011-06-19T08:46:34Z</time>
      </trkpt>
      <trkpt lat="45.861344989389181" lon="5.799343921244144">
        <ele>206.39999389648437</ele>
        <time>2011-06-19T08:46:45Z</time>
      </trkpt>
      <trkpt lat="45.860685920342803" lon="5.799147952347994">
        <ele>206.39999389648437</ele>
        <time>2011-06-19T08:46:54Z</time>
      </trkpt>
      <trkpt lat="45.860229944810271" lon="5.799110988155007">
        <ele>206.19999694824219</ele>
        <time>2011-06-19T08:47:00Z</time>
      </trkpt>
      <trkpt lat="45.859779920428991" lon="5.799211990088224">
        <ele>206.60000610351562</ele>
        <time>2011-06-19T08:47:06Z</time>
      </trkpt>
      <trkpt lat="45.859202994033694" lon="5.799317937344313">
        <ele>206.60000610351562</ele>
        <time>2011-06-19T08:47:14Z</time>
      </trkpt>
      <trkpt lat="45.858588935807347" lon="5.799360936507583">
        <ele>206.39999389648437</ele>
        <time>2011-06-19T08:47:23Z</time>
      </trkpt>
      <trkpt lat="45.858052996918559" lon="5.799370994791389">
        <ele>206.39999389648437</ele>
        <time>2011-06-19T08:47:31Z</time>
      </trkpt>
      <trkpt lat="45.857451930642128" lon="5.799374934285879">
        <ele>206.80000305175781</ele>
        <time>2011-06-19T08:47:40Z</time>
      </trkpt>
      <trkpt lat="45.856566969305277" lon="5.799019960686564">
        <ele>206.19999694824219</ele>
        <time>2011-06-19T08:47:54Z</time>
      </trkpt>
      <trkpt lat="45.856073945760727" lon="5.79873095266521">
        <ele>205.80000305175781</ele>
        <time>2011-06-19T08:48:03Z</time>
      </trkpt>
      <trkpt lat="45.855546975508332" lon="5.798424929380417">
        <ele>205.19999694824219</ele>
        <time>2011-06-19T08:48:13Z</time>
      </trkpt>
      <trkpt lat="45.855120923370123" lon="5.798177998512983">
        <ele>205</ele>
        <time>2011-06-19T08:48:21Z</time>
      </trkpt>
      <trkpt lat="45.854670982807875" lon="5.79791396856308">
        <ele>204.60000610351562</ele>
        <time>2011-06-19T08:48:29Z</time>
      </trkpt>
      <trkpt lat="45.854112999513745" lon="5.797493951395154">
        <ele>204.39999389648437</ele>
        <time>2011-06-19T08:48:39Z</time>
      </trkpt>
      <trkpt lat="45.853720977902412" lon="5.797027917578816">
        <ele>204</ele>
        <time>2011-06-19T08:48:47Z</time>
      </trkpt>
      <trkpt lat="45.853405985981226" lon="5.796556938439608">
        <ele>203.80000305175781</ele>
        <time>2011-06-19T08:48:54Z</time>
      </trkpt>
      <trkpt lat="45.853087976574898" lon="5.796074979007244">
        <ele>203.60000610351562</ele>
        <time>2011-06-19T08:49:01Z</time>
      </trkpt>
      <trkpt lat="45.852697966620326" lon="5.79557198099792">
        <ele>203.39999389648437</ele>
        <time>2011-06-19T08:49:09Z</time>
      </trkpt>
      <trkpt lat="45.852230926975608" lon="5.79505599103868">
        <ele>203.60000610351562</ele>
        <time>2011-06-19T08:49:18Z</time>
      </trkpt>
      <trkpt lat="45.851704962551594" lon="5.794673943892121">
        <ele>204</ele>
        <time>2011-06-19T08:49:28Z</time>
      </trkpt>
      <trkpt lat="45.851360969245434" lon="5.794177986681461">
        <ele>205.19999694824219</ele>
        <time>2011-06-19T08:49:37Z</time>
      </trkpt>
      <trkpt lat="45.850968947634101" lon="5.794837977737188">
        <ele>206.39999389648437</ele>
        <time>2011-06-19T08:49:50Z</time>
      </trkpt>
      <trkpt lat="45.85062294267118" lon="5.795716987922788">
        <ele>209.19999694824219</ele>
        <time>2011-06-19T08:50:05Z</time>
      </trkpt>
      <trkpt lat="45.850285990163684" lon="5.796499941498041">
        <ele>207.60000610351562</ele>
        <time>2011-06-19T08:50:17Z</time>
      </trkpt>
      <trkpt lat="45.84993495605886" lon="5.797290941700339">
        <ele>205.39999389648437</ele>
        <time>2011-06-19T08:50:26Z</time>
      </trkpt>
      <trkpt lat="45.84948593750596" lon="5.797852948307991">
        <ele>204.80000305175781</ele>
        <time>2011-06-19T08:50:36Z</time>
      </trkpt>
      <trkpt lat="45.84933397360146" lon="5.798294926062226">
        <ele>204.39999389648437</ele>
        <time>2011-06-19T08:52:12Z</time>
      </trkpt>
      <trkpt lat="45.849434975534678" lon="5.799176953732967">
        <ele>206</ele>
        <time>2011-06-19T08:52:24Z</time>
      </trkpt>
      <trkpt lat="45.849337996914983" lon="5.800067950040102">
        <ele>208.19999694824219</ele>
        <time>2011-06-19T08:52:36Z</time>
      </trkpt>
      <trkpt lat="45.849229954183102" lon="5.801063971593976">
        <ele>209</ele>
        <time>2011-06-19T08:52:49Z</time>
      </trkpt>
      <trkpt lat="45.849146973341703" lon="5.80180199816823">
        <ele>209.39999389648437</ele>
        <time>2011-06-19T08:52:58Z</time>
      </trkpt>
      <trkpt lat="45.849043959751725" lon="5.802668938413262">
        <ele>209.19999694824219</ele>
        <time>2011-06-19T08:53:08Z</time>
      </trkpt>
      <trkpt lat="45.848914962261915" lon="5.803780965507031">
        <ele>209.19999694824219</ele>
        <time>2011-06-19T08:53:20Z</time>
      </trkpt>
      <trkpt lat="45.848834998905659" lon="5.804454954341054">
        <ele>208.60000610351562</ele>
        <time>2011-06-19T08:53:27Z</time>
      </trkpt>
      <trkpt lat="45.848751934245229" lon="5.805115951225162">
        <ele>207.39999389648437</ele>
        <time>2011-06-19T08:53:33Z</time>
      </trkpt>
      <trkpt lat="45.848660990595818" lon="5.805947938933969">
        <ele>205.60000610351562</ele>
        <time>2011-06-19T08:53:40Z</time>
      </trkpt>
      <trkpt lat="45.848556971177459" lon="5.806881934404373">
        <ele>204</ele>
        <time>2011-06-19T08:53:48Z</time>
      </trkpt>
      <trkpt lat="45.847647953778505" lon="5.807492975145578">
        <ele>203</ele>
        <time>2011-06-19T08:54:08Z</time>
      </trkpt>
      <trkpt lat="45.847202958539128" lon="5.807605963200331">
        <ele>202.19999694824219</ele>
        <time>2011-06-19T08:54:20Z</time>
      </trkpt>
      <trkpt lat="45.846737930551171" lon="5.807792963460088">
        <ele>202.39999389648437</ele>
        <time>2011-06-19T08:58:46Z</time>
      </trkpt>
      <trkpt lat="45.84600099362433" lon="5.808041989803314">
        <ele>202.39999389648437</ele>
        <time>2011-06-19T08:59:00Z</time>
      </trkpt>
      <trkpt lat="45.845350977033377" lon="5.808280957862735">
        <ele>202.39999389648437</ele>
        <time>2011-06-19T08:59:11Z</time>
      </trkpt>
      <trkpt lat="45.844366941601038" lon="5.808974979445338">
        <ele>202</ele>
        <time>2011-06-19T08:59:28Z</time>
      </trkpt>
      <trkpt lat="45.843758918344975" lon="5.809383932501078">
        <ele>202</ele>
        <time>2011-06-19T08:59:38Z</time>
      </trkpt>
      <trkpt lat="45.84325198084116" lon="5.809573950245976">
        <ele>202</ele>
        <time>2011-06-19T08:59:46Z</time>
      </trkpt>
      <trkpt lat="45.842663990333676" lon="5.809661960229278">
        <ele>202.19999694824219</ele>
        <time>2011-06-19T08:59:55Z</time>
      </trkpt>
      <trkpt lat="45.841991929337382" lon="5.809635976329446">
        <ele>201.80000305175781</ele>
        <time>2011-06-19T09:00:05Z</time>
      </trkpt>
      <trkpt lat="45.841294974088669" lon="5.809585936367512">
        <ele>201.39999389648437</ele>
        <time>2011-06-19T09:00:15Z</time>
      </trkpt>
      <trkpt lat="45.840602964162827" lon="5.80953698605299">
        <ele>201.60000610351562</ele>
        <time>2011-06-19T09:00:25Z</time>
      </trkpt>
      <trkpt lat="45.840066941455007" lon="5.809548972174525">
        <ele>201.39999389648437</ele>
        <time>2011-06-19T09:00:33Z</time>
      </trkpt>
      <trkpt lat="45.839526979252696" lon="5.809656931087375">
        <ele>201.39999389648437</ele>
        <time>2011-06-19T09:00:41Z</time>
      </trkpt>
      <trkpt lat="45.838931947946548" lon="5.809887936338782">
        <ele>201</ele>
        <time>2011-06-19T09:00:50Z</time>
      </trkpt>
      <trkpt lat="45.838481923565269" lon="5.810107961297035">
        <ele>201</ele>
        <time>2011-06-19T09:00:57Z</time>
      </trkpt>
      <trkpt lat="45.837912959977984" lon="5.810372997075319">
        <ele>201</ele>
        <time>2011-06-19T09:01:06Z</time>
      </trkpt>
      <trkpt lat="45.836971923708916" lon="5.810386994853616">
        <ele>200.80000305175781</ele>
        <time>2011-06-19T09:01:21Z</time>
      </trkpt>
      <trkpt lat="45.836421987041831" lon="5.810400992631912">
        <ele>200.60000610351562</ele>
        <time>2011-06-19T09:01:30Z</time>
      </trkpt>
      <trkpt lat="45.835922928526998" lon="5.810584975406528">
        <ele>200.60000610351562</ele>
        <time>2011-06-19T09:01:38Z</time>
      </trkpt>
      <trkpt lat="45.835233936086297" lon="5.810987977311015">
        <ele>200.60000610351562</ele>
        <time>2011-06-19T09:01:49Z</time>
      </trkpt>
      <trkpt lat="45.834263982251287" lon="5.811540931463242">
        <ele>200.80000305175781</ele>
        <time>2011-06-19T09:02:05Z</time>
      </trkpt>
      <trkpt lat="45.83375696092844" lon="5.811830945312977">
        <ele>200.80000305175781</ele>
        <time>2011-06-19T09:02:13Z</time>
      </trkpt>
      <trkpt lat="45.833243988454342" lon="5.812005959451199">
        <ele>200.80000305175781</ele>
        <time>2011-06-19T09:02:21Z</time>
      </trkpt>
      <trkpt lat="45.832800921052694" lon="5.812120959162712">
        <ele>200.60000610351562</ele>
        <time>2011-06-19T09:02:28Z</time>
      </trkpt>
      <trkpt lat="45.83184496499598" lon="5.812312988564372">
        <ele>200.39999389648437</ele>
        <time>2011-06-19T09:02:42Z</time>
      </trkpt>
      <trkpt lat="45.83076898008585" lon="5.812025992199779">
        <ele>200.39999389648437</ele>
        <time>2011-06-19T09:02:58Z</time>
      </trkpt>
      <trkpt lat="45.829677991569042" lon="5.812105955556035">
        <ele>199.80000305175781</ele>
        <time>2011-06-19T09:03:14Z</time>
      </trkpt>
      <trkpt lat="45.828984975814819" lon="5.812135962769389">
        <ele>199.80000305175781</ele>
        <time>2011-06-19T09:03:24Z</time>
      </trkpt>
      <trkpt lat="45.828364966437221" lon="5.812095981091261">
        <ele>199.80000305175781</ele>
        <time>2011-06-19T09:03:33Z</time>
      </trkpt>
      <trkpt lat="45.827915947884321" lon="5.812001936137676">
        <ele>199.39999389648437</ele>
        <time>2011-06-19T09:03:40Z</time>
      </trkpt>
      <trkpt lat="45.827231984585524" lon="5.811493992805481">
        <ele>198.80000305175781</ele>
        <time>2011-06-19T09:03:52Z</time>
      </trkpt>
      <trkpt lat="45.826825965195894" lon="5.81102192401886">
        <ele>198.39999389648437</ele>
        <time>2011-06-19T09:04:00Z</time>
      </trkpt>
      <trkpt lat="45.826501920819283" lon="5.810495959594846">
        <ele>198.60000610351562</ele>
        <time>2011-06-19T09:04:08Z</time>
      </trkpt>
      <trkpt lat="45.825801948085427" lon="5.80977494828403">
        <ele>199</ele>
        <time>2011-06-19T09:04:23Z</time>
      </trkpt>
      <trkpt lat="45.825367933139205" lon="5.809573950245976">
        <ele>199.39999389648437</ele>
        <time>2011-06-19T09:04:31Z</time>
      </trkpt>
      <trkpt lat="45.824896953999996" lon="5.809349985793233">
        <ele>199.19999694824219</ele>
        <time>2011-06-19T09:04:40Z</time>
      </trkpt>
      <trkpt lat="45.824627978727221" lon="5.808780938386917">
        <ele>198.80000305175781</ele>
        <time>2011-06-19T09:04:49Z</time>
      </trkpt>
      <trkpt lat="45.824729986488819" lon="5.807751975953579">
        <ele>198.39999389648437</ele>
        <time>2011-06-19T09:05:01Z</time>
      </trkpt>
      <trkpt lat="45.824702996760607" lon="5.806977991014719">
        <ele>198.80000305175781</ele>
        <time>2011-06-19T09:05:18Z</time>
      </trkpt>
      <trkpt lat="45.824294965714216" lon="5.80646694637835">
        <ele>199.80000305175781</ele>
        <time>2011-06-19T09:06:08Z</time>
      </trkpt>
      <trkpt lat="45.823614941909909" lon="5.805920949205756">
        <ele>199.39999389648437</ele>
        <time>2011-06-19T09:06:20Z</time>
      </trkpt>
      <trkpt lat="45.82312292419374" lon="5.805575950071216">
        <ele>199.39999389648437</ele>
        <time>2011-06-19T09:06:28Z</time>
      </trkpt>
      <trkpt lat="45.822464944794774" lon="5.804637931287289">
        <ele>199.39999389648437</ele>
        <time>2011-06-19T09:06:42Z</time>
      </trkpt>
      <trkpt lat="45.821946943178773" lon="5.803356925025582">
        <ele>199</ele>
        <time>2011-06-19T09:06:58Z</time>
      </trkpt>
      <trkpt lat="45.821535978466272" lon="5.802612947300077">
        <ele>199.39999389648437</ele>
        <time>2011-06-19T09:07:08Z</time>
      </trkpt>
      <trkpt lat="45.821028957143426" lon="5.802063932642341">
        <ele>199.19999694824219</ele>
        <time>2011-06-19T09:07:18Z</time>
      </trkpt>
      <trkpt lat="45.820420933887362" lon="5.801740977913141">
        <ele>199</ele>
        <time>2011-06-19T09:07:28Z</time>
      </trkpt>
      <trkpt lat="45.81987795419991" lon="5.801407964900136">
        <ele>199</ele>
        <time>2011-06-19T09:07:37Z</time>
      </trkpt>
      <trkpt lat="45.819442933425307" lon="5.80096397548914">
        <ele>199.19999694824219</ele>
        <time>2011-06-19T09:07:45Z</time>
      </trkpt>
      <trkpt lat="45.818982934579253" lon="5.800421917811036">
        <ele>199</ele>
        <time>2011-06-19T09:07:54Z</time>
      </trkpt>
      <trkpt lat="45.818542968481779" lon="5.799985975027084">
        <ele>199.19999694824219</ele>
        <time>2011-06-19T09:08:02Z</time>
      </trkpt>
      <trkpt lat="45.81798892468214" lon="5.799444923177362">
        <ele>199.19999694824219</ele>
        <time>2011-06-19T09:08:12Z</time>
      </trkpt>
      <trkpt lat="45.817418955266476" lon="5.798913929611445">
        <ele>199.19999694824219</ele>
        <time>2011-06-19T09:08:22Z</time>
      </trkpt>
      <trkpt lat="45.816880920901895" lon="5.798478992655873">
        <ele>199.60000610351562</ele>
        <time>2011-06-19T09:08:31Z</time>
      </trkpt>
      <trkpt lat="45.816145995631814" lon="5.797934923321009">
        <ele>199.19999694824219</ele>
        <time>2011-06-19T09:08:43Z</time>
      </trkpt>
      <trkpt lat="45.815332951024175" lon="5.797375934198499">
        <ele>199.19999694824219</ele>
        <time>2011-06-19T09:08:56Z</time>
      </trkpt>
      <trkpt lat="45.81452795304358" lon="5.796869918704033">
        <ele>199.39999389648437</ele>
        <time>2011-06-19T09:09:09Z</time>
      </trkpt>
      <trkpt lat="45.813983967527747" lon="5.796528942883015">
        <ele>199.19999694824219</ele>
        <time>2011-06-19T09:09:18Z</time>
      </trkpt>
      <trkpt lat="45.813328921794891" lon="5.796108925715089">
        <ele>199.39999389648437</ele>
        <time>2011-06-19T09:09:29Z</time>
      </trkpt>
      <trkpt lat="45.812751995399594" lon="5.795743977651">
        <ele>199.60000610351562</ele>
        <time>2011-06-19T09:09:39Z</time>
      </trkpt>
      <trkpt lat="45.812282944098115" lon="5.795371988788247">
        <ele>199.60000610351562</ele>
        <time>2011-06-19T09:09:48Z</time>
      </trkpt>
      <trkpt lat="45.812302976846695" lon="5.79544197767973">
        <ele>199.80000305175781</ele>
        <time>2011-06-19T09:10:05Z</time>
      </trkpt>
      <trkpt lat="45.812768926844001" lon="5.7953139860183">
        <ele>198.60000610351562</ele>
        <time>2011-06-19T09:10:41Z</time>
      </trkpt>
      <trkpt lat="45.813382985070348" lon="5.794597920030356">
        <ele>199.39999389648437</ele>
        <time>2011-06-19T09:10:59Z</time>
      </trkpt>
      <trkpt lat="45.813651960343122" lon="5.794058963656426">
        <ele>199.39999389648437</ele>
        <time>2011-06-19T09:11:07Z</time>
      </trkpt>
      <trkpt lat="45.8139259647578" lon="5.793441971763969">
        <ele>199.39999389648437</ele>
        <time>2011-06-19T09:11:16Z</time>
      </trkpt>
      <trkpt lat="45.813570991158485" lon="5.792311923578382">
        <ele>199.39999389648437</ele>
        <time>2011-06-19T09:11:31Z</time>
      </trkpt>
      <trkpt lat="45.81287395209074" lon="5.791195956990123">
        <ele>199.60000610351562</ele>
        <time>2011-06-19T09:11:48Z</time>
      </trkpt>
      <trkpt lat="45.812431974336505" lon="5.790703939273953">
        <ele>199.60000610351562</ele>
        <time>2011-06-19T09:11:57Z</time>
      </trkpt>
      <trkpt lat="45.811941968277097" lon="5.790252992883325">
        <ele>199.39999389648437</ele>
        <time>2011-06-19T09:12:07Z</time>
      </trkpt>
      <trkpt lat="45.81153997220099" lon="5.789847979322076">
        <ele>199.39999389648437</ele>
        <time>2011-06-19T09:12:16Z</time>
      </trkpt>
      <trkpt lat="45.811401922255754" lon="5.789228975772858">
        <ele>199</ele>
        <time>2011-06-19T09:12:29Z</time>
      </trkpt>
      <trkpt lat="45.811974992975593" lon="5.788598991930485">
        <ele>199.80000305175781</ele>
        <time>2011-06-19T09:12:46Z</time>
      </trkpt>
      <trkpt lat="45.812302976846695" lon="5.788081996142864">
        <ele>199.80000305175781</ele>
        <time>2011-06-19T09:12:58Z</time>
      </trkpt>
      <trkpt lat="45.81265795044601" lon="5.78781696036458">
        <ele>199.80000305175781</ele>
        <time>2011-06-19T09:13:12Z</time>
      </trkpt>
      <trkpt lat="45.812820978462696" lon="5.787315974012017">
        <ele>200.60000610351562</ele>
        <time>2011-06-19T09:13:23Z</time>
      </trkpt>
      <trkpt lat="45.812464999035001" lon="5.786769976839423">
        <ele>204</ele>
        <time>2011-06-19T09:13:37Z</time>
      </trkpt>
      <trkpt lat="45.811940962448716" lon="5.786272929981351">
        <ele>203.60000610351562</ele>
        <time>2011-06-19T09:13:49Z</time>
      </trkpt>
      <trkpt lat="45.811441987752914" lon="5.785820977762342">
        <ele>202.80000305175781</ele>
        <time>2011-06-19T09:13:57Z</time>
      </trkpt>
      <trkpt lat="45.811006966978312" lon="5.785405989736319">
        <ele>202.60000610351562</ele>
        <time>2011-06-19T09:14:04Z</time>
      </trkpt>
      <trkpt lat="45.810197945684195" lon="5.784666957333684">
        <ele>203</ele>
        <time>2011-06-19T09:14:17Z</time>
      </trkpt>
      <trkpt lat="45.809640968218446" lon="5.784131940454245">
        <ele>202.80000305175781</ele>
        <time>2011-06-19T09:14:26Z</time>
      </trkpt>
      <trkpt lat="45.809002937749028" lon="5.783750982955098">
        <ele>202.60000610351562</ele>
        <time>2011-06-19T09:14:36Z</time>
      </trkpt>
      <trkpt lat="45.808630948886275" lon="5.783437918871641">
        <ele>202.60000610351562</ele>
        <time>2011-06-19T09:14:45Z</time>
      </trkpt>
      <trkpt lat="45.808592978864908" lon="5.782766947522759">
        <ele>204</ele>
        <time>2011-06-19T09:14:54Z</time>
      </trkpt>
      <trkpt lat="45.808566994965076" lon="5.781989945098758">
        <ele>203.60000610351562</ele>
        <time>2011-06-19T09:15:06Z</time>
      </trkpt>
      <trkpt lat="45.808659950271249" lon="5.781364990398288">
        <ele>202.19999694824219</ele>
        <time>2011-06-19T09:15:18Z</time>
      </trkpt>
      <trkpt lat="45.808173967525363" lon="5.780681949108839">
        <ele>202.39999389648437</ele>
        <time>2011-06-19T09:15:30Z</time>
      </trkpt>
      <trkpt lat="45.80743795260787" lon="5.78027592971921">
        <ele>200.80000305175781</ele>
        <time>2011-06-19T09:15:42Z</time>
      </trkpt>
      <trkpt lat="45.806913999840617" lon="5.779924979433417">
        <ele>200</ele>
        <time>2011-06-19T09:15:49Z</time>
      </trkpt>
      <trkpt lat="45.806242944672704" lon="5.77958894893527">
        <ele>199.80000305175781</ele>
        <time>2011-06-19T09:15:58Z</time>
      </trkpt>
      <trkpt lat="45.805579936131835" lon="5.779380993917584">
        <ele>200.19999694824219</ele>
        <time>2011-06-19T09:16:07Z</time>
      </trkpt>
      <trkpt lat="45.804858924821019" lon="5.779233975335956">
        <ele>200</ele>
        <time>2011-06-19T09:16:17Z</time>
      </trkpt>
      <trkpt lat="45.804216954857111" lon="5.779097937047482">
        <ele>199.39999389648437</ele>
        <time>2011-06-19T09:16:26Z</time>
      </trkpt>
      <trkpt lat="45.803482951596379" lon="5.77894295565784">
        <ele>199.60000610351562</ele>
        <time>2011-06-19T09:16:36Z</time>
      </trkpt>
      <trkpt lat="45.802694968879223" lon="5.778783950954676">
        <ele>199.39999389648437</ele>
        <time>2011-06-19T09:16:47Z</time>
      </trkpt>
      <trkpt lat="45.802190965041518" lon="5.778677919879556">
        <ele>199.19999694824219</ele>
        <time>2011-06-19T09:16:54Z</time>
      </trkpt>
      <trkpt lat="45.801539942622185" lon="5.778539953753352">
        <ele>199.39999389648437</ele>
        <time>2011-06-19T09:17:03Z</time>
      </trkpt>
      <trkpt lat="45.800760928541422" lon="5.778375919908285">
        <ele>199.60000610351562</ele>
        <time>2011-06-19T09:17:14Z</time>
      </trkpt>
      <trkpt lat="45.799949979409575" lon="5.778215993195772">
        <ele>199.39999389648437</ele>
        <time>2011-06-19T09:17:26Z</time>
      </trkpt>
      <trkpt lat="45.799406999722123" lon="5.778096970170736">
        <ele>199.19999694824219</ele>
        <time>2011-06-19T09:17:34Z</time>
      </trkpt>
      <trkpt lat="45.798797970637679" lon="5.777972918003798">
        <ele>199.39999389648437</ele>
        <time>2011-06-19T09:17:43Z</time>
      </trkpt>
      <trkpt lat="45.798191959038377" lon="5.777841992676258">
        <ele>199.39999389648437</ele>
        <time>2011-06-19T09:17:52Z</time>
      </trkpt>
      <trkpt lat="45.797523921355605" lon="5.777700925245881">
        <ele>199.60000610351562</ele>
        <time>2011-06-19T09:18:02Z</time>
      </trkpt>
      <trkpt lat="45.796928973868489" lon="5.777577962726355">
        <ele>199.60000610351562</ele>
        <time>2011-06-19T09:18:11Z</time>
      </trkpt>
      <trkpt lat="45.796262947842479" lon="5.7774409186095">
        <ele>199.39999389648437</ele>
        <time>2011-06-19T09:18:21Z</time>
      </trkpt>
      <trkpt lat="45.795525927096605" lon="5.777281997725368">
        <ele>199.19999694824219</ele>
        <time>2011-06-19T09:18:32Z</time>
      </trkpt>
      <trkpt lat="45.794929973781109" lon="5.777158951386809">
        <ele>199.39999389648437</ele>
        <time>2011-06-19T09:18:41Z</time>
      </trkpt>
      <trkpt lat="45.79439596273005" lon="5.777040934190154">
        <ele>199.19999694824219</ele>
        <time>2011-06-19T09:18:49Z</time>
      </trkpt>
      <trkpt lat="45.793789951130748" lon="5.776870949193835">
        <ele>199.39999389648437</ele>
        <time>2011-06-19T09:18:58Z</time>
      </trkpt>
      <trkpt lat="45.793083943426609" lon="5.776541959494352">
        <ele>199.60000610351562</ele>
        <time>2011-06-19T09:19:09Z</time>
      </trkpt>
      <trkpt lat="45.792399980127811" lon="5.776392929255962">
        <ele>199.60000610351562</ele>
        <time>2011-06-19T09:19:19Z</time>
      </trkpt>
      <trkpt lat="45.791658936068416" lon="5.776235936209559">
        <ele>199.60000610351562</ele>
        <time>2011-06-19T09:19:30Z</time>
      </trkpt>
      <trkpt lat="45.791052924469113" lon="5.776108950376511">
        <ele>199.39999389648437</ele>
        <time>2011-06-19T09:19:39Z</time>
      </trkpt>
      <trkpt lat="45.790515979751945" lon="5.775994956493378">
        <ele>199.39999389648437</ele>
        <time>2011-06-19T09:19:47Z</time>
      </trkpt>
      <trkpt lat="45.789712993428111" lon="5.77582991681993">
        <ele>199.39999389648437</ele>
        <time>2011-06-19T09:19:59Z</time>
      </trkpt>
      <trkpt lat="45.788981923833489" lon="5.775672923773527">
        <ele>199.39999389648437</ele>
        <time>2011-06-19T09:20:10Z</time>
      </trkpt>
      <trkpt lat="45.78822897747159" lon="5.775511991232634">
        <ele>199.60000610351562</ele>
        <time>2011-06-19T09:20:21Z</time>
      </trkpt>
      <trkpt lat="45.787401935085654" lon="5.775335971266031">
        <ele>199.60000610351562</ele>
        <time>2011-06-19T09:20:33Z</time>
      </trkpt>
      <trkpt lat="45.786809921264648" lon="5.775214936584234">
        <ele>199.60000610351562</ele>
        <time>2011-06-19T09:20:42Z</time>
      </trkpt>
      <trkpt lat="45.786299966275692" lon="5.775104966014624">
        <ele>199.60000610351562</ele>
        <time>2011-06-19T09:20:50Z</time>
      </trkpt>
      <trkpt lat="45.785655984655023" lon="5.774918971583247">
        <ele>199.60000610351562</ele>
        <time>2011-06-19T09:21:00Z</time>
      </trkpt>
      <trkpt lat="45.784960957244039" lon="5.77464597299695">
        <ele>199.80000305175781</ele>
        <time>2011-06-19T09:21:11Z</time>
      </trkpt>
      <trkpt lat="45.784346982836723" lon="5.774357970803976">
        <ele>199.80000305175781</ele>
        <time>2011-06-19T09:21:21Z</time>
      </trkpt>
      <trkpt lat="45.783599987626076" lon="5.773922950029373">
        <ele>199.60000610351562</ele>
        <time>2011-06-19T09:21:35Z</time>
      </trkpt>
      <trkpt lat="45.783066982403398" lon="5.773540986701846">
        <ele>199.80000305175781</ele>
        <time>2011-06-19T09:21:47Z</time>
      </trkpt>
      <trkpt lat="45.782593991607428" lon="5.773192970082164">
        <ele>200</ele>
        <time>2011-06-19T09:21:56Z</time>
      </trkpt>
      <trkpt lat="45.781953949481249" lon="5.772691983729601">
        <ele>200</ele>
        <time>2011-06-19T09:22:08Z</time>
      </trkpt>
      <trkpt lat="45.781580954790115" lon="5.772124947980046">
        <ele>202.39999389648437</ele>
        <time>2011-06-19T09:22:22Z</time>
      </trkpt>
      <trkpt lat="45.780699932947755" lon="5.77198195271194">
        <ele>197.80000305175781</ele>
        <time>2011-06-19T09:22:39Z</time>
      </trkpt>
      <trkpt lat="45.780077995732427" lon="5.771475937217474">
        <ele>197.39999389648437</ele>
        <time>2011-06-19T09:22:49Z</time>
      </trkpt>
      <trkpt lat="45.779496962204576" lon="5.771064972504973">
        <ele>197.19999694824219</ele>
        <time>2011-06-19T09:22:58Z</time>
      </trkpt>
      <trkpt lat="45.779016930609941" lon="5.770849976688623">
        <ele>197.19999694824219</ele>
        <time>2011-06-19T09:23:05Z</time>
      </trkpt>
      <trkpt lat="45.778463976457715" lon="5.770732965320349">
        <ele>197.60000610351562</ele>
        <time>2011-06-19T09:23:13Z</time>
      </trkpt>
      <trkpt lat="45.777986962348223" lon="5.770732965320349">
        <ele>197.60000610351562</ele>
        <time>2011-06-19T09:23:20Z</time>
      </trkpt>
      <trkpt lat="45.777490921318531" lon="5.770804965868592">
        <ele>197.39999389648437</ele>
        <time>2011-06-19T09:23:27Z</time>
      </trkpt>
      <trkpt lat="45.776895973831415" lon="5.770969921723008">
        <ele>197.39999389648437</ele>
        <time>2011-06-19T09:23:36Z</time>
      </trkpt>
      <trkpt lat="45.776286944746971" lon="5.771217942237854">
        <ele>197.80000305175781</ele>
        <time>2011-06-19T09:23:51Z</time>
      </trkpt>
      <trkpt lat="45.775798950344324" lon="5.771392956376076">
        <ele>197.39999389648437</ele>
        <time>2011-06-19T09:23:59Z</time>
      </trkpt>
      <trkpt lat="45.775223951786757" lon="5.771535951644182">
        <ele>197.19999694824219</ele>
        <time>2011-06-19T09:24:08Z</time>
      </trkpt>
      <trkpt lat="45.774264978244901" lon="5.77176695689559">
        <ele>197</ele>
        <time>2011-06-19T09:24:23Z</time>
      </trkpt>
      <trkpt lat="45.773693919181824" lon="5.771928979083896">
        <ele>197</ele>
        <time>2011-06-19T09:24:32Z</time>
      </trkpt>
      <trkpt lat="45.773121938109398" lon="5.772076919674873">
        <ele>196.80000305175781</ele>
        <time>2011-06-19T09:24:41Z</time>
      </trkpt>
      <trkpt lat="45.772556997835636" lon="5.77217792160809">
        <ele>196.80000305175781</ele>
        <time>2011-06-19T09:24:50Z</time>
      </trkpt>
      <trkpt lat="45.77209297567606" lon="5.771999973803759">
        <ele>197</ele>
        <time>2011-06-19T09:24:58Z</time>
      </trkpt>
      <trkpt lat="45.771659966558218" lon="5.771433943882585">
        <ele>196.60000610351562</ele>
        <time>2011-06-19T09:25:09Z</time>
      </trkpt>
      <trkpt lat="45.771305998787284" lon="5.770781999453902">
        <ele>197.39999389648437</ele>
        <time>2011-06-19T09:25:20Z</time>
      </trkpt>
      <trkpt lat="45.770607953891158" lon="5.770593993365765">
        <ele>200.19999694824219</ele>
        <time>2011-06-19T09:25:34Z</time>
      </trkpt>
      <trkpt lat="45.769956931471825" lon="5.770453931763768">
        <ele>205.19999694824219</ele>
        <time>2011-06-19T09:25:54Z</time>
      </trkpt>
      <trkpt lat="45.769451921805739" lon="5.770293921232224">
        <ele>207</ele>
        <time>2011-06-19T09:26:08Z</time>
      </trkpt>
      <trkpt lat="45.768826967105269" lon="5.770027963444591">
        <ele>207.39999389648437</ele>
        <time>2011-06-19T09:26:22Z</time>
      </trkpt>
      <trkpt lat="45.768335955217481" lon="5.769800981506705">
        <ele>206.80000305175781</ele>
        <time>2011-06-19T09:26:33Z</time>
      </trkpt>
      <trkpt lat="45.767935970798135" lon="5.769900977611542">
        <ele>206.80000305175781</ele>
        <time>2011-06-19T09:27:18Z</time>
      </trkpt>
      <trkpt lat="45.767730949446559" lon="5.770389977842569">
        <ele>209.19999694824219</ele>
        <time>2011-06-19T09:30:37Z</time>
      </trkpt>
      <trkpt lat="45.767343956977129" lon="5.770138939842582">
        <ele>212.19999694824219</ele>
        <time>2011-06-19T09:35:52Z</time>
      </trkpt>
      <trkpt lat="45.766927963122725" lon="5.769836939871311">
        <ele>217</ele>
        <time>2011-06-19T09:36:13Z</time>
      </trkpt>
      <trkpt lat="45.766411973163486" lon="5.769399991258979">
        <ele>223</ele>
        <time>2011-06-19T09:36:34Z</time>
      </trkpt>
      <trkpt lat="45.765961948782206" lon="5.768863968551159">
        <ele>230</ele>
        <time>2011-06-19T09:37:00Z</time>
      </trkpt>
      <trkpt lat="45.76558493077755" lon="5.768325934186578">
        <ele>235.19999694824219</ele>
        <time>2011-06-19T09:37:24Z</time>
      </trkpt>
      <trkpt lat="45.765388961881399" lon="5.767610957846046">
        <ele>236.19999694824219</ele>
        <time>2011-06-19T09:37:44Z</time>
      </trkpt>
      <trkpt lat="45.764918988570571" lon="5.7676219381392">
        <ele>238.19999694824219</ele>
        <time>2011-06-19T09:38:01Z</time>
      </trkpt>
      <trkpt lat="45.764374919235706" lon="5.768279917538166">
        <ele>238.60000610351562</ele>
        <time>2011-06-19T09:38:20Z</time>
      </trkpt>
      <trkpt lat="45.763920955359936" lon="5.76920997351408">
        <ele>238.19999694824219</ele>
        <time>2011-06-19T09:38:34Z</time>
      </trkpt>
      <trkpt lat="45.763733955100179" lon="5.769953951239586">
        <ele>237.39999389648437</ele>
        <time>2011-06-19T09:38:44Z</time>
      </trkpt>
      <trkpt lat="45.763625996187329" lon="5.770932957530022">
        <ele>236.39999389648437</ele>
        <time>2011-06-19T09:38:56Z</time>
      </trkpt>
      <trkpt lat="45.763653991743922" lon="5.771824959665537">
        <ele>233.60000610351562</ele>
        <time>2011-06-19T09:39:06Z</time>
      </trkpt>
      <trkpt lat="45.763827916234732" lon="5.772427953779697">
        <ele>231.19999694824219</ele>
        <time>2011-06-19T09:39:14Z</time>
      </trkpt>
      <trkpt lat="45.763680981472135" lon="5.773327918723226">
        <ele>229.39999389648437</ele>
        <time>2011-06-19T09:39:24Z</time>
      </trkpt>
      <trkpt lat="45.763464979827404" lon="5.774141969159246">
        <ele>226.60000610351562</ele>
        <time>2011-06-19T09:39:34Z</time>
      </trkpt>
      <trkpt lat="45.762798953801394" lon="5.774054965004325">
        <ele>219.39999389648437</ele>
        <time>2011-06-19T09:39:44Z</time>
      </trkpt>
      <trkpt lat="45.762347923591733" lon="5.773763945326209">
        <ele>215.19999694824219</ele>
        <time>2011-06-19T09:39:48Z</time>
      </trkpt>
      <trkpt lat="45.761779965832829" lon="5.773640982806683">
        <ele>209</ele>
        <time>2011-06-19T09:39:55Z</time>
      </trkpt>
      <trkpt lat="45.761294988915324" lon="5.773967960849404">
        <ele>207.39999389648437</ele>
        <time>2011-06-19T09:40:02Z</time>
      </trkpt>
      <trkpt lat="45.7606849540025" lon="5.773833934217691">
        <ele>209.39999389648437</ele>
        <time>2011-06-19T09:40:15Z</time>
      </trkpt>
      <trkpt lat="45.760200982913375" lon="5.774009954184294">
        <ele>216.80000305175781</ele>
        <time>2011-06-19T09:40:35Z</time>
      </trkpt>
      <trkpt lat="45.759858917444944" lon="5.774584952741861">
        <ele>224.80000305175781</ele>
        <time>2011-06-19T09:40:59Z</time>
      </trkpt>
      <trkpt lat="45.759452981874347" lon="5.774967921897769">
        <ele>232.19999694824219</ele>
        <time>2011-06-19T09:41:28Z</time>
      </trkpt>
      <trkpt lat="45.759032964706421" lon="5.775291966274381">
        <ele>240</ele>
        <time>2011-06-19T09:42:01Z</time>
      </trkpt>
      <trkpt lat="45.758457966148853" lon="5.775265982374549">
        <ele>249</ele>
        <time>2011-06-19T09:42:37Z</time>
      </trkpt>
      <trkpt lat="45.757989920675755" lon="5.775602934882045">
        <ele>255.19999694824219</ele>
        <time>2011-06-19T09:43:08Z</time>
      </trkpt>
      <trkpt lat="45.757501926273108" lon="5.775735955685377">
        <ele>256.20001220703125</ele>
        <time>2011-06-19T09:43:32Z</time>
      </trkpt>
      <trkpt lat="45.757292965427041" lon="5.776312965899706">
        <ele>249.60000610351562</ele>
        <time>2011-06-19T09:43:44Z</time>
      </trkpt>
      <trkpt lat="45.75718299485743" lon="5.777122993022203">
        <ele>241.39999389648437</ele>
        <time>2011-06-19T09:43:51Z</time>
      </trkpt>
      <trkpt lat="45.756637919694185" lon="5.778196966275573">
        <ele>231</ele>
        <time>2011-06-19T09:44:03Z</time>
      </trkpt>
      <trkpt lat="45.756277916952968" lon="5.77875092625618">
        <ele>227.80000305175781</ele>
        <time>2011-06-19T09:44:11Z</time>
      </trkpt>
      <trkpt lat="45.755492951720953" lon="5.778377931565046">
        <ele>225.39999389648437</ele>
        <time>2011-06-19T09:44:23Z</time>
      </trkpt>
      <trkpt lat="45.755017949268222" lon="5.77832194045186">
        <ele>223</ele>
        <time>2011-06-19T09:46:00Z</time>
      </trkpt>
      <trkpt lat="45.754703963175416" lon="5.778940944001079">
        <ele>219.80000305175781</ele>
        <time>2011-06-19T09:46:09Z</time>
      </trkpt>
      <trkpt lat="45.75425997376442" lon="5.779273957014084">
        <ele>215.19999694824219</ele>
        <time>2011-06-19T09:46:18Z</time>
      </trkpt>
      <trkpt lat="45.753627978265285" lon="5.779581991955638">
        <ele>211.19999694824219</ele>
        <time>2011-06-19T09:46:26Z</time>
      </trkpt>
      <trkpt lat="45.753383981063962" lon="5.780176939442754">
        <ele>207.39999389648437</ele>
        <time>2011-06-19T09:46:32Z</time>
      </trkpt>
      <trkpt lat="45.75337995775044" lon="5.781157957389951">
        <ele>204.60000610351562</ele>
        <time>2011-06-19T09:46:39Z</time>
      </trkpt>
      <trkpt lat="45.753435948863626" lon="5.782190943136811">
        <ele>203.19999694824219</ele>
        <time>2011-06-19T09:46:47Z</time>
      </trkpt>
      <trkpt lat="45.753522953018546" lon="5.783056961372495">
        <ele>205</ele>
        <time>2011-06-19T09:46:57Z</time>
      </trkpt>
      <trkpt lat="45.753588918596506" lon="5.783750982955098">
        <ele>206.80000305175781</ele>
        <time>2011-06-19T09:48:21Z</time>
      </trkpt>
      <trkpt lat="45.753672989085317" lon="5.784704927355051">
        <ele>205.39999389648437</ele>
        <time>2011-06-19T09:48:33Z</time>
      </trkpt>
      <trkpt lat="45.75365899130702" lon="5.785803962498903">
        <ele>202.39999389648437</ele>
        <time>2011-06-19T09:48:43Z</time>
      </trkpt>
      <trkpt lat="45.75331499800086" lon="5.786307966336608">
        <ele>201</ele>
        <time>2011-06-19T09:48:49Z</time>
      </trkpt>
      <trkpt lat="45.752892969176173" lon="5.786975920200348">
        <ele>201</ele>
        <time>2011-06-19T09:48:59Z</time>
      </trkpt>
      <trkpt lat="45.752360969781876" lon="5.787360984832048">
        <ele>200.80000305175781</ele>
        <time>2011-06-19T09:49:09Z</time>
      </trkpt>
      <trkpt lat="45.751698967069387" lon="5.787622919306159">
        <ele>200.39999389648437</ele>
        <time>2011-06-19T09:49:20Z</time>
      </trkpt>
      <trkpt lat="45.75114693492651" lon="5.787794999778271">
        <ele>199.60000610351562</ele>
        <time>2011-06-19T09:49:30Z</time>
      </trkpt>
      <trkpt lat="45.75076094828546" lon="5.788231948390603">
        <ele>200</ele>
        <time>2011-06-19T09:49:39Z</time>
      </trkpt>
      <trkpt lat="45.750128952786326" lon="5.789403989911079">
        <ele>199.39999389648437</ele>
        <time>2011-06-19T09:49:56Z</time>
      </trkpt>
      <trkpt lat="45.749805998057127" lon="5.78998695127666">
        <ele>198.19999694824219</ele>
        <time>2011-06-19T09:50:03Z</time>
      </trkpt>
      <trkpt lat="45.749452952295542" lon="5.790560944005847">
        <ele>197.80000305175781</ele>
        <time>2011-06-19T09:50:10Z</time>
      </trkpt>
      <trkpt lat="45.748896980658174" lon="5.790913989767432">
        <ele>197.80000305175781</ele>
        <time>2011-06-19T09:50:18Z</time>
      </trkpt>
      <trkpt lat="45.748296920210123" lon="5.791158992797136">
        <ele>197.39999389648437</ele>
        <time>2011-06-19T09:50:26Z</time>
      </trkpt>
      <trkpt lat="45.747714964672923" lon="5.791401984170079">
        <ele>198</ele>
        <time>2011-06-19T09:50:34Z</time>
      </trkpt>
      <trkpt lat="45.747174918651581" lon="5.791628966107965">
        <ele>198.80000305175781</ele>
        <time>2011-06-19T09:50:42Z</time>
      </trkpt>
      <trkpt lat="45.746658928692341" lon="5.791848991066217">
        <ele>199.80000305175781</ele>
        <time>2011-06-19T09:50:50Z</time>
      </trkpt>
      <trkpt lat="45.746080996468663" lon="5.792095921933651">
        <ele>201.39999389648437</ele>
        <time>2011-06-19T09:51:00Z</time>
      </trkpt>
      <trkpt lat="45.745617980137467" lon="5.792301949113607">
        <ele>203.19999694824219</ele>
        <time>2011-06-19T09:51:09Z</time>
      </trkpt>
      <trkpt lat="45.745159992948174" lon="5.792496996000409">
        <ele>204.80000305175781</ele>
        <time>2011-06-19T09:51:18Z</time>
      </trkpt>
      <trkpt lat="45.74446395970881" lon="5.792272947728634">
        <ele>207.60000610351562</ele>
        <time>2011-06-19T09:51:33Z</time>
      </trkpt>
      <trkpt lat="45.743839927017689" lon="5.791404917836189">
        <ele>209.80000305175781</ele>
        <time>2011-06-19T09:51:52Z</time>
      </trkpt>
      <trkpt lat="45.743397949263453" lon="5.790819944813848">
        <ele>209.39999389648437</ele>
        <time>2011-06-19T09:52:04Z</time>
      </trkpt>
      <trkpt lat="45.742873996496201" lon="5.789999943226576">
        <ele>207.80000305175781</ele>
        <time>2011-06-19T09:52:16Z</time>
      </trkpt>
      <trkpt lat="45.742515921592712" lon="5.789416981860995">
        <ele>206.60000610351562</ele>
        <time>2011-06-19T09:52:23Z</time>
      </trkpt>
      <trkpt lat="45.742281982675195" lon="5.78884894028306">
        <ele>205.80000305175781</ele>
        <time>2011-06-19T09:52:29Z</time>
      </trkpt>
      <trkpt lat="45.741962967440486" lon="5.787995997816324">
        <ele>204</ele>
        <time>2011-06-19T09:52:38Z</time>
      </trkpt>
      <trkpt lat="45.741681922227144" lon="5.786464959383011">
        <ele>201.80000305175781</ele>
        <time>2011-06-19T09:52:52Z</time>
      </trkpt>
      <trkpt lat="45.741490982472897" lon="5.785275986418128">
        <ele>200.60000610351562</ele>
        <time>2011-06-19T09:53:03Z</time>
      </trkpt>
      <trkpt lat="45.741362990811467" lon="5.78448599204421">
        <ele>200.60000610351562</ele>
        <time>2011-06-19T09:53:11Z</time>
      </trkpt>
      <trkpt lat="45.741196945309639" lon="5.78345593996346">
        <ele>199.60000610351562</ele>
        <time>2011-06-19T09:53:21Z</time>
      </trkpt>
      <trkpt lat="45.741027966141701" lon="5.782447932288051">
        <ele>199</ele>
        <time>2011-06-19T09:53:31Z</time>
      </trkpt>
      <trkpt lat="45.74091799557209" lon="5.781766986474395">
        <ele>198.60000610351562</ele>
        <time>2011-06-19T09:53:38Z</time>
      </trkpt>
      <trkpt lat="45.740789920091629" lon="5.781111940741539">
        <ele>198.80000305175781</ele>
        <time>2011-06-19T09:53:45Z</time>
      </trkpt>
      <trkpt lat="45.740293962880969" lon="5.780478939414024">
        <ele>198.19999694824219</ele>
        <time>2011-06-19T09:53:55Z</time>
      </trkpt>
      <trkpt lat="45.739410929381847" lon="5.780411968007684">
        <ele>197.39999389648437</ele>
        <time>2011-06-19T09:54:07Z</time>
      </trkpt>
      <trkpt lat="45.738955959677696" lon="5.780333932489157">
        <ele>197.19999694824219</ele>
        <time>2011-06-19T09:54:13Z</time>
      </trkpt>
      <trkpt lat="45.73844994418323" lon="5.780162941664457">
        <ele>197</ele>
        <time>2011-06-19T09:54:20Z</time>
      </trkpt>
      <trkpt lat="45.737488958984613" lon="5.780157996341586">
        <ele>197</ele>
        <time>2011-06-19T09:54:33Z</time>
      </trkpt>
      <trkpt lat="45.736821927130222" lon="5.780118936672807">
        <ele>197.19999694824219</ele>
        <time>2011-06-19T09:54:42Z</time>
      </trkpt>
      <trkpt lat="45.736240977421403" lon="5.78008197247982">
        <ele>197</ele>
        <time>2011-06-19T09:54:50Z</time>
      </trkpt>
      <trkpt lat="45.735344951972365" lon="5.780185991898179">
        <ele>197.39999389648437</ele>
        <time>2011-06-19T09:55:03Z</time>
      </trkpt>
      <trkpt lat="45.734864920377731" lon="5.780386989936233">
        <ele>197.39999389648437</ele>
        <time>2011-06-19T09:55:10Z</time>
      </trkpt>
      <trkpt lat="45.734130917117" lon="5.780678931623697">
        <ele>197.19999694824219</ele>
        <time>2011-06-19T09:55:21Z</time>
      </trkpt>
      <trkpt lat="45.733641916885972" lon="5.780883952975273">
        <ele>197.80000305175781</ele>
        <time>2011-06-19T09:55:28Z</time>
      </trkpt>
      <trkpt lat="45.732617983594537" lon="5.780958971008658">
        <ele>197.60000610351562</ele>
        <time>2011-06-19T09:55:42Z</time>
      </trkpt>
      <trkpt lat="45.731959920376539" lon="5.780962994322181">
        <ele>197.19999694824219</ele>
        <time>2011-06-19T09:55:51Z</time>
      </trkpt>
      <trkpt lat="45.731373941525817" lon="5.780891999602318">
        <ele>196.80000305175781</ele>
        <time>2011-06-19T09:55:59Z</time>
      </trkpt>
      <trkpt lat="45.730571961030364" lon="5.780735928565264">
        <ele>197</ele>
        <time>2011-06-19T09:56:10Z</time>
      </trkpt>
      <trkpt lat="45.729777943342924" lon="5.780567955225706">
        <ele>197</ele>
        <time>2011-06-19T09:56:21Z</time>
      </trkpt>
      <trkpt lat="45.729103954508901" lon="5.78036293387413">
        <ele>196.39999389648437</ele>
        <time>2011-06-19T09:56:31Z</time>
      </trkpt>
      <trkpt lat="45.728494925424457" lon="5.780185991898179">
        <ele>196.39999389648437</ele>
        <time>2011-06-19T09:56:40Z</time>
      </trkpt>
      <trkpt lat="45.727956974878907" lon="5.780022963881493">
        <ele>196.39999389648437</ele>
        <time>2011-06-19T09:56:48Z</time>
      </trkpt>
      <trkpt lat="45.727359931915998" lon="5.779836969450116">
        <ele>196.60000610351562</ele>
        <time>2011-06-19T09:56:57Z</time>
      </trkpt>
      <trkpt lat="45.726561974734068" lon="5.779598923400044">
        <ele>196.80000305175781</ele>
        <time>2011-06-19T09:57:09Z</time>
      </trkpt>
      <trkpt lat="45.726055959239602" lon="5.779451988637447">
        <ele>197</ele>
        <time>2011-06-19T09:57:17Z</time>
      </trkpt>
      <trkpt lat="45.725460927933455" lon="5.779276974499226">
        <ele>197.19999694824219</ele>
        <time>2011-06-19T09:57:26Z</time>
      </trkpt>
      <trkpt lat="45.724899927154183" lon="5.779107995331287">
        <ele>197.39999389648437</ele>
        <time>2011-06-19T09:57:35Z</time>
      </trkpt>
      <trkpt lat="45.724161984398961" lon="5.778878917917609">
        <ele>197.19999694824219</ele>
        <time>2011-06-19T09:57:47Z</time>
      </trkpt>
      <trkpt lat="45.723356986418366" lon="5.77864196151495">
        <ele>197.19999694824219</ele>
        <time>2011-06-19T09:58:00Z</time>
      </trkpt>
      <trkpt lat="45.722738988697529" lon="5.778451943770051">
        <ele>197</ele>
        <time>2011-06-19T09:58:10Z</time>
      </trkpt>
      <trkpt lat="45.722171952947974" lon="5.778282964602113">
        <ele>197</ele>
        <time>2011-06-19T09:58:19Z</time>
      </trkpt>
      <trkpt lat="45.721474997699261" lon="5.778065957129002">
        <ele>197</ele>
        <time>2011-06-19T09:58:30Z</time>
      </trkpt>
      <trkpt lat="45.720839984714985" lon="5.777866970747709">
        <ele>197</ele>
        <time>2011-06-19T09:58:40Z</time>
      </trkpt>
      <trkpt lat="45.720238918438554" lon="5.777705954387784">
        <ele>197</ele>
        <time>2011-06-19T09:58:49Z</time>
      </trkpt>
      <trkpt lat="45.71977992542088" lon="5.777515936642885">
        <ele>196.80000305175781</ele>
        <time>2011-06-19T09:58:56Z</time>
      </trkpt>
      <trkpt lat="45.718902926892042" lon="5.776504995301366">
        <ele>197</ele>
        <time>2011-06-19T09:59:12Z</time>
      </trkpt>
      <trkpt lat="45.718404958024621" lon="5.77589294873178">
        <ele>197</ele>
        <time>2011-06-19T09:59:21Z</time>
      </trkpt>
      <trkpt lat="45.717846974730492" lon="5.77520496211946">
        <ele>197.19999694824219</ele>
        <time>2011-06-19T09:59:31Z</time>
      </trkpt>
      <trkpt lat="45.717293936759233" lon="5.77451697550714">
        <ele>197.39999389648437</ele>
        <time>2011-06-19T09:59:41Z</time>
      </trkpt>
      <trkpt lat="45.716769983991981" lon="5.773876933380961">
        <ele>197</ele>
        <time>2011-06-19T09:59:51Z</time>
      </trkpt>
      <trkpt lat="45.716321971267462" lon="5.7733119931072">
        <ele>196.80000305175781</ele>
        <time>2011-06-19T10:00:00Z</time>
      </trkpt>
      <trkpt lat="45.715661980211735" lon="5.772502971813083">
        <ele>196.60000610351562</ele>
        <time>2011-06-19T10:00:13Z</time>
      </trkpt>
      <trkpt lat="45.715221930295229" lon="5.771960997954011">
        <ele>196.60000610351562</ele>
        <time>2011-06-19T10:00:22Z</time>
      </trkpt>
      <trkpt lat="45.714739970862865" lon="5.771365966647863">
        <ele>196.39999389648437</ele>
        <time>2011-06-19T10:00:32Z</time>
      </trkpt>
      <trkpt lat="45.714264968410134" lon="5.770780993625522">
        <ele>196.39999389648437</ele>
        <time>2011-06-19T10:00:42Z</time>
      </trkpt>
      <trkpt lat="45.713640935719013" lon="5.77000399120152">
        <ele>196.39999389648437</ele>
        <time>2011-06-19T10:00:55Z</time>
      </trkpt>
      <trkpt lat="45.713036935776472" lon="5.769254984334111">
        <ele>196.80000305175781</ele>
        <time>2011-06-19T10:01:07Z</time>
      </trkpt>
      <trkpt lat="45.712484987452626" lon="5.768574960529804">
        <ele>196.60000610351562</ele>
        <time>2011-06-19T10:01:18Z</time>
      </trkpt>
      <trkpt lat="45.712046949192882" lon="5.76802795752883">
        <ele>196.60000610351562</ele>
        <time>2011-06-19T10:01:27Z</time>
      </trkpt>
      <trkpt lat="45.711624920368195" lon="5.767505932599306">
        <ele>196.80000305175781</ele>
        <time>2011-06-19T10:01:36Z</time>
      </trkpt>
      <trkpt lat="45.711036929860711" lon="5.766780981794">
        <ele>196.80000305175781</ele>
        <time>2011-06-19T10:01:49Z</time>
      </trkpt>
      <trkpt lat="45.710629988461733" lon="5.766270942986012">
        <ele>197</ele>
        <time>2011-06-19T10:01:58Z</time>
      </trkpt>
      <trkpt lat="45.710266968235373" lon="5.765821924433112">
        <ele>197.19999694824219</ele>
        <time>2011-06-19T10:02:06Z</time>
      </trkpt>
      <trkpt lat="45.709750978276134" lon="5.765177942812443">
        <ele>197.19999694824219</ele>
        <time>2011-06-19T10:02:17Z</time>
      </trkpt>
      <trkpt lat="45.709326937794685" lon="5.764641920104623">
        <ele>197.60000610351562</ele>
        <time>2011-06-19T10:02:26Z</time>
      </trkpt>
      <trkpt lat="45.708720926195383" lon="5.763864917680621">
        <ele>197</ele>
        <time>2011-06-19T10:02:39Z</time>
      </trkpt>
      <trkpt lat="45.708131929859519" lon="5.76313192024827">
        <ele>197.39999389648437</ele>
        <time>2011-06-19T10:02:51Z</time>
      </trkpt>
      <trkpt lat="45.707784919068217" lon="5.762704946100712">
        <ele>197.19999694824219</ele>
        <time>2011-06-19T10:02:58Z</time>
      </trkpt>
      <trkpt lat="45.707122916355729" lon="5.761823924258351">
        <ele>197.39999389648437</ele>
        <time>2011-06-19T10:03:13Z</time>
      </trkpt>
      <trkpt lat="45.706740953028202" lon="5.761094950139523">
        <ele>197.80000305175781</ele>
        <time>2011-06-19T10:03:24Z</time>
      </trkpt>
      <trkpt lat="45.706289922818542" lon="5.760696977376938">
        <ele>198.39999389648437</ele>
        <time>2011-06-19T10:03:34Z</time>
      </trkpt>
      <trkpt lat="45.705849956721067" lon="5.76033697463572">
        <ele>198.39999389648437</ele>
        <time>2011-06-19T10:03:43Z</time>
      </trkpt>
      <trkpt lat="45.705234976485372" lon="5.759598948061466">
        <ele>198</ele>
        <time>2011-06-19T10:03:56Z</time>
      </trkpt>
      <trkpt lat="45.704859970137477" lon="5.759128974750638">
        <ele>198</ele>
        <time>2011-06-19T10:04:09Z</time>
      </trkpt>
      <trkpt lat="45.704418998211622" lon="5.758587922900915">
        <ele>199</ele>
        <time>2011-06-19T10:04:31Z</time>
      </trkpt>
      <trkpt lat="45.703928992152214" lon="5.758279971778393">
        <ele>201</ele>
        <time>2011-06-19T10:04:50Z</time>
      </trkpt>
      <trkpt lat="45.703966962173581" lon="5.757892979308963">
        <ele>201.80000305175781</ele>
        <time>2011-06-19T10:05:48Z</time>
      </trkpt>
      <trkpt lat="45.70379295386374" lon="5.758504942059517">
        <ele>203</ele>
        <time>2011-06-19T10:07:14Z</time>
      </trkpt>
      <trkpt lat="45.703628920018673" lon="5.759204998612404">
        <ele>203.19999694824219</ele>
        <time>2011-06-19T10:07:30Z</time>
      </trkpt>
      <trkpt lat="45.703466981649399" lon="5.759935984387994">
        <ele>201.60000610351562</ele>
        <time>2011-06-19T10:07:47Z</time>
      </trkpt>
      <trkpt lat="45.703424988314509" lon="5.760434959083796">
        <ele>202.39999389648437</ele>
        <time>2011-06-19T10:10:42Z</time>
      </trkpt>
      <trkpt lat="45.703453989699483" lon="5.760436970740557">
        <ele>203</ele>
        <time>2011-06-19T10:11:13Z</time>
      </trkpt>
      <trkpt lat="45.703540993854403" lon="5.759524935856462">
        <ele>203.19999694824219</ele>
        <time>2011-06-19T10:11:33Z</time>
      </trkpt>
      <trkpt lat="45.703698992729187" lon="5.758800990879536">
        <ele>204</ele>
        <time>2011-06-19T10:11:54Z</time>
      </trkpt>
      <trkpt lat="45.70389898493886" lon="5.75842397287488">
        <ele>205.19999694824219</ele>
        <time>2011-06-19T10:17:47Z</time>
      </trkpt>
      <trkpt lat="45.703497994691133" lon="5.757834976539016">
        <ele>206</ele>
        <time>2011-06-19T10:18:09Z</time>
      </trkpt>
      <trkpt lat="45.703065991401672" lon="5.757636995986104">
        <ele>207</ele>
        <time>2011-06-19T10:18:22Z</time>
      </trkpt>
      <trkpt lat="45.702418992295861" lon="5.757320998236537">
        <ele>207.80000305175781</ele>
        <time>2011-06-19T10:18:42Z</time>
      </trkpt>
      <trkpt lat="45.701920939609408" lon="5.756907938048244">
        <ele>208.80000305175781</ele>
        <time>2011-06-19T10:18:59Z</time>
      </trkpt>
      <trkpt lat="45.70149295963347" lon="5.756693948060274">
        <ele>209.39999389648437</ele>
        <time>2011-06-19T10:19:12Z</time>
      </trkpt>
      <trkpt lat="45.701012928038836" lon="5.756681961938739">
        <ele>210.19999694824219</ele>
        <time>2011-06-19T10:19:25Z</time>
      </trkpt>
      <trkpt lat="45.70024891756475" lon="5.756735941395164">
        <ele>211.80000305175781</ele>
        <time>2011-06-19T10:19:45Z</time>
      </trkpt>
      <trkpt lat="45.699602924287319" lon="5.756775923073292">
        <ele>213.60000610351562</ele>
        <time>2011-06-19T10:20:03Z</time>
      </trkpt>
      <trkpt lat="45.699006970971823" lon="5.756508959457278">
        <ele>212.39999389648437</ele>
        <time>2011-06-19T10:35:41Z</time>
      </trkpt>
      <trkpt lat="45.698476983234286" lon="5.756366970017552">
        <ele>213.19999694824219</ele>
        <time>2011-06-19T10:35:56Z</time>
      </trkpt>
      <trkpt lat="45.697867954149842" lon="5.756308967247605">
        <ele>214.60000610351562</ele>
        <time>2011-06-19T10:36:12Z</time>
      </trkpt>
      <trkpt lat="45.697160940617323" lon="5.756289940327406">
        <ele>216.60000610351562</ele>
        <time>2011-06-19T10:36:28Z</time>
      </trkpt>
      <trkpt lat="45.696289977058768" lon="5.756305949762464">
        <ele>218.19999694824219</ele>
        <time>2011-06-19T10:36:47Z</time>
      </trkpt>
      <trkpt lat="45.695814974606037" lon="5.756272925063968">
        <ele>219</ele>
        <time>2011-06-19T10:36:57Z</time>
      </trkpt>
      <trkpt lat="45.695211980491877" lon="5.756131941452622">
        <ele>220</ele>
        <time>2011-06-19T10:37:10Z</time>
      </trkpt>
      <trkpt lat="45.69446699693799" lon="5.755828935652971">
        <ele>221.39999389648437</ele>
        <time>2011-06-19T10:37:27Z</time>
      </trkpt>
      <trkpt lat="45.69401596672833" lon="5.755706978961825">
        <ele>222.19999694824219</ele>
        <time>2011-06-19T10:37:37Z</time>
      </trkpt>
      <trkpt lat="45.693386988714337" lon="5.755233988165855">
        <ele>223.39999389648437</ele>
        <time>2011-06-19T10:37:53Z</time>
      </trkpt>
      <trkpt lat="45.692961942404509" lon="5.755023937672377">
        <ele>224.19999694824219</ele>
        <time>2011-06-19T10:38:03Z</time>
      </trkpt>
      <trkpt lat="45.692505966871977" lon="5.754757979884744">
        <ele>225</ele>
        <time>2011-06-19T10:38:14Z</time>
      </trkpt>
      <trkpt lat="45.692044962197542" lon="5.754429996013641">
        <ele>226</ele>
        <time>2011-06-19T10:38:25Z</time>
      </trkpt>
      <trkpt lat="45.691301990300417" lon="5.753898918628693">
        <ele>226.19999694824219</ele>
        <time>2011-06-19T10:38:42Z</time>
      </trkpt>
      <trkpt lat="45.690384926274419" lon="5.753556936979294">
        <ele>226.60000610351562</ele>
        <time>2011-06-19T10:39:00Z</time>
      </trkpt>
      <trkpt lat="45.68961295299232" lon="5.753615945577622">
        <ele>228.80000305175781</ele>
        <time>2011-06-19T10:39:17Z</time>
      </trkpt>
      <trkpt lat="45.68915999494493" lon="5.753602953627706">
        <ele>230</ele>
        <time>2011-06-19T10:39:27Z</time>
      </trkpt>
      <trkpt lat="45.688696978613734" lon="5.753285950049758">
        <ele>231.60000610351562</ele>
        <time>2011-06-19T10:39:39Z</time>
      </trkpt>
      <trkpt lat="45.688232956454158" lon="5.753218978643417">
        <ele>232.80000305175781</ele>
        <time>2011-06-19T10:39:49Z</time>
      </trkpt>
      <trkpt lat="45.687555950134993" lon="5.752994930371642">
        <ele>234.19999694824219</ele>
        <time>2011-06-19T10:40:03Z</time>
      </trkpt>
      <trkpt lat="45.686782971024513" lon="5.753089981153607">
        <ele>235.39999389648437</ele>
        <time>2011-06-19T10:40:19Z</time>
      </trkpt>
      <trkpt lat="45.68628491833806" lon="5.753447972238064">
        <ele>234.60000610351562</ele>
        <time>2011-06-19T10:40:28Z</time>
      </trkpt>
      <trkpt lat="45.685740932822227" lon="5.754067981615663">
        <ele>234.60000610351562</ele>
        <time>2011-06-19T10:40:38Z</time>
      </trkpt>
      <trkpt lat="45.68529593758285" lon="5.754462936893106">
        <ele>235.80000305175781</ele>
        <time>2011-06-19T10:40:47Z</time>
      </trkpt>
      <trkpt lat="45.684766955673695" lon="5.755360973998904">
        <ele>236.60000610351562</ele>
        <time>2011-06-19T10:41:01Z</time>
      </trkpt>
      <trkpt lat="45.684479959309101" lon="5.755923986434937">
        <ele>236.80000305175781</ele>
        <time>2011-06-19T10:41:09Z</time>
      </trkpt>
      <trkpt lat="45.684139989316463" lon="5.756521951407194">
        <ele>237.19999694824219</ele>
        <time>2011-06-19T10:41:18Z</time>
      </trkpt>
      <trkpt lat="45.683490978553891" lon="5.757196946069598">
        <ele>238.60000610351562</ele>
        <time>2011-06-19T10:41:32Z</time>
      </trkpt>
      <trkpt lat="45.682813972234726" lon="5.758172934874892">
        <ele>239.60000610351562</ele>
        <time>2011-06-19T10:41:49Z</time>
      </trkpt>
      <trkpt lat="45.682078963145614" lon="5.758753968402743">
        <ele>240.39999389648437</ele>
        <time>2011-06-19T10:42:03Z</time>
      </trkpt>
      <trkpt lat="45.681380918249488" lon="5.759082958102226">
        <ele>241.80000305175781</ele>
        <time>2011-06-19T10:42:15Z</time>
      </trkpt>
      <trkpt lat="45.680688992142677" lon="5.759506998583674">
        <ele>243.80000305175781</ele>
        <time>2011-06-19T10:42:29Z</time>
      </trkpt>
      <trkpt lat="45.680229999125004" lon="5.760241923853755">
        <ele>244.80000305175781</ele>
        <time>2011-06-19T10:42:41Z</time>
      </trkpt>
      <trkpt lat="45.679939985275269" lon="5.760820945724845">
        <ele>245.60000610351562</ele>
        <time>2011-06-19T10:42:49Z</time>
      </trkpt>
      <trkpt lat="45.679654916748405" lon="5.761360991746187">
        <ele>246.39999389648437</ele>
        <time>2011-06-19T10:42:57Z</time>
      </trkpt>
      <trkpt lat="45.67925694398582" lon="5.76211896724999">
        <ele>248.39999389648437</ele>
        <time>2011-06-19T10:43:09Z</time>
      </trkpt>
      <trkpt lat="45.678799962624907" lon="5.763030918315053">
        <ele>250.80000305175781</ele>
        <time>2011-06-19T10:43:27Z</time>
      </trkpt>
      <trkpt lat="45.678371982648969" lon="5.76388293877244">
        <ele>251.60000610351562</ele>
        <time>2011-06-19T10:43:43Z</time>
      </trkpt>
      <trkpt lat="45.677699921652675" lon="5.764497919008136">
        <ele>252.60000610351562</ele>
        <time>2011-06-19T10:43:59Z</time>
      </trkpt>
      <trkpt lat="45.677032973617315" lon="5.76502195559442">
        <ele>255</ele>
        <time>2011-06-19T10:44:15Z</time>
      </trkpt>
      <trkpt lat="45.676612956449389" lon="5.765359997749329">
        <ele>256</ele>
        <time>2011-06-19T10:44:25Z</time>
      </trkpt>
      <trkpt lat="45.676023960113525" lon="5.765812955796719">
        <ele>258</ele>
        <time>2011-06-19T10:44:40Z</time>
      </trkpt>
      <trkpt lat="45.675328932702541" lon="5.766262980177999">
        <ele>258.39999389648437</ele>
        <time>2011-06-19T10:44:55Z</time>
      </trkpt>
      <trkpt lat="45.674668941646814" lon="5.766293993219733">
        <ele>258.60000610351562</ele>
        <time>2011-06-19T10:45:07Z</time>
      </trkpt>
      <trkpt lat="45.674210954457521" lon="5.76622199267149">
        <ele>259</ele>
        <time>2011-06-19T10:45:15Z</time>
      </trkpt>
      <trkpt lat="45.673359939828515" lon="5.7657949347049">
        <ele>260.20001220703125</ele>
        <time>2011-06-19T10:45:30Z</time>
      </trkpt>
      <trkpt lat="45.672881919890642" lon="5.765570970252156">
        <ele>261.60000610351562</ele>
        <time>2011-06-19T10:45:40Z</time>
      </trkpt>
      <trkpt lat="45.672416975721717" lon="5.765345999971032">
        <ele>263.39999389648437</ele>
        <time>2011-06-19T10:45:51Z</time>
      </trkpt>
      <trkpt lat="45.671697976067662" lon="5.765004940330982">
        <ele>265.39999389648438</ele>
        <time>2011-06-19T10:46:09Z</time>
      </trkpt>
      <trkpt lat="45.671152984723449" lon="5.764736970886588">
        <ele>267.79998779296875</ele>
        <time>2011-06-19T10:46:24Z</time>
      </trkpt>
      <trkpt lat="45.670600952580571" lon="5.764351990073919">
        <ele>270.79998779296875</ele>
        <time>2011-06-19T10:46:40Z</time>
      </trkpt>
      <trkpt lat="45.67016894929111" lon="5.764037920162082">
        <ele>272.20001220703125</ele>
        <time>2011-06-19T10:46:52Z</time>
      </trkpt>
      <trkpt lat="45.66971791908145" lon="5.764062982052565">
        <ele>273</ele>
        <time>2011-06-19T10:47:02Z</time>
      </trkpt>
      <trkpt lat="45.669231936335564" lon="5.764365987852216">
        <ele>273.79998779296875</ele>
        <time>2011-06-19T10:47:13Z</time>
      </trkpt>
      <trkpt lat="45.668612932786345" lon="5.76422399841249">
        <ele>275.20001220703125</ele>
        <time>2011-06-19T10:47:26Z</time>
      </trkpt>
      <trkpt lat="45.668097948655486" lon="5.763931972905994">
        <ele>276.79998779296875</ele>
        <time>2011-06-19T10:47:38Z</time>
      </trkpt>
      <trkpt lat="45.66737693734467" lon="5.763744972646236">
        <ele>278.79998779296875</ele>
        <time>2011-06-19T10:47:54Z</time>
      </trkpt>
      <trkpt lat="45.666769919916987" lon="5.763521930202842">
        <ele>282.20001220703125</ele>
        <time>2011-06-19T10:48:10Z</time>
      </trkpt>
      <trkpt lat="45.666224928572774" lon="5.763102918863297">
        <ele>285.20001220703125</ele>
        <time>2011-06-19T10:48:27Z</time>
      </trkpt>
      <trkpt lat="45.665860986337066" lon="5.762434964999557">
        <ele>288</ele>
        <time>2011-06-19T10:48:44Z</time>
      </trkpt>
      <trkpt lat="45.665236953645945" lon="5.762140927836299">
        <ele>290.20001220703125</ele>
        <time>2011-06-19T10:49:02Z</time>
      </trkpt>
      <trkpt lat="45.664765974506736" lon="5.7622479647398">
        <ele>290.79998779296875</ele>
        <time>2011-06-19T10:49:14Z</time>
      </trkpt>
      <trkpt lat="45.66415099427104" lon="5.761870946735144">
        <ele>292.39999389648437</ele>
        <time>2011-06-19T10:49:28Z</time>
      </trkpt>
      <trkpt lat="45.66374396905303" lon="5.761490995064378">
        <ele>293.79998779296875</ele>
        <time>2011-06-19T10:49:39Z</time>
      </trkpt>
      <trkpt lat="45.663016922771931" lon="5.761361997574568">
        <ele>296.20001220703125</ele>
        <time>2011-06-19T10:49:56Z</time>
      </trkpt>
      <trkpt lat="45.662481989711523" lon="5.761107942089438">
        <ele>297.60000610351562</ele>
        <time>2011-06-19T10:50:09Z</time>
      </trkpt>
      <trkpt lat="45.661962982267141" lon="5.760534955188632">
        <ele>299</ele>
        <time>2011-06-19T10:50:24Z</time>
      </trkpt>
      <trkpt lat="45.661104926839471" lon="5.760049978271127">
        <ele>300.20001220703125</ele>
        <time>2011-06-19T10:50:44Z</time>
      </trkpt>
      <trkpt lat="45.660579968243837" lon="5.75992994941771">
        <ele>300.79998779296875</ele>
        <time>2011-06-19T10:50:55Z</time>
      </trkpt>
      <trkpt lat="45.659669945016503" lon="5.759864989668131">
        <ele>301.60000610351562</ele>
        <time>2011-06-19T10:51:11Z</time>
      </trkpt>
      <trkpt lat="45.659163929522038" lon="5.759960962459445">
        <ele>302</ele>
        <time>2011-06-19T10:51:19Z</time>
      </trkpt>
      <trkpt lat="45.658600917086005" lon="5.760017959401012">
        <ele>302.79998779296875</ele>
        <time>2011-06-19T10:51:28Z</time>
      </trkpt>
      <trkpt lat="45.657707992941141" lon="5.759931961074472">
        <ele>306.39999389648437</ele>
        <time>2011-06-19T10:51:46Z</time>
      </trkpt>
      <trkpt lat="45.657180938869715" lon="5.759927937760949">
        <ele>308.39999389648437</ele>
        <time>2011-06-19T10:51:58Z</time>
      </trkpt>
      <trkpt lat="45.656576938927174" lon="5.760028939694166">
        <ele>311.39999389648437</ele>
        <time>2011-06-19T10:52:14Z</time>
      </trkpt>
      <trkpt lat="45.65607494674623" lon="5.760169923305512">
        <ele>313.20001220703125</ele>
        <time>2011-06-19T10:52:29Z</time>
      </trkpt>
      <trkpt lat="45.655523920431733" lon="5.760096916928887">
        <ele>315.60000610351562</ele>
        <time>2011-06-19T10:52:44Z</time>
      </trkpt>
      <trkpt lat="45.654950933530927" lon="5.75975795276463">
        <ele>318</ele>
        <time>2011-06-19T10:53:00Z</time>
      </trkpt>
      <trkpt lat="45.654488923028111" lon="5.759874964132905">
        <ele>320</ele>
        <time>2011-06-19T10:53:12Z</time>
      </trkpt>
      <trkpt lat="45.654028924182057" lon="5.760257933288813">
        <ele>322.79998779296875</ele>
        <time>2011-06-19T10:53:26Z</time>
      </trkpt>
      <trkpt lat="45.65338896587491" lon="5.760442921891809">
        <ele>325.79998779296875</ele>
        <time>2011-06-19T10:53:44Z</time>
      </trkpt>
      <trkpt lat="45.65295897424221" lon="5.760282995179296">
        <ele>328</ele>
        <time>2011-06-19T10:53:57Z</time>
      </trkpt>
      <trkpt lat="45.652573993429542" lon="5.75984395109117">
        <ele>330.20001220703125</ele>
        <time>2011-06-19T10:54:11Z</time>
      </trkpt>
      <trkpt lat="45.652105947956443" lon="5.760286934673786">
        <ele>334.39999389648437</ele>
        <time>2011-06-19T10:54:31Z</time>
      </trkpt>
      <trkpt lat="45.651642931625247" lon="5.760820945724845">
        <ele>338.79998779296875</ele>
        <time>2011-06-19T10:54:51Z</time>
      </trkpt>
      <trkpt lat="45.65128393471241" lon="5.761326961219311">
        <ele>342.79998779296875</ele>
        <time>2011-06-19T10:55:10Z</time>
      </trkpt>
      <trkpt lat="45.65091697499156" lon="5.761770950630307">
        <ele>342.79998779296875</ele>
        <time>2011-06-19T10:55:22Z</time>
      </trkpt>
      <trkpt lat="45.650473991408944" lon="5.762029951438308">
        <ele>342.79998779296875</ele>
        <time>2011-06-19T10:55:31Z</time>
      </trkpt>
      <trkpt lat="45.649885917082429" lon="5.76235793530941">
        <ele>346.20001220703125</ele>
        <time>2011-06-19T10:55:46Z</time>
      </trkpt>
      <trkpt lat="45.649341931566596" lon="5.762355923652649">
        <ele>348.39999389648437</ele>
        <time>2011-06-19T10:56:04Z</time>
      </trkpt>
      <trkpt lat="45.648877993226051" lon="5.76222793199122">
        <ele>347.39999389648437</ele>
        <time>2011-06-19T10:56:14Z</time>
      </trkpt>
      <trkpt lat="45.648365942761302" lon="5.762424990534782">
        <ele>345.79998779296875</ele>
        <time>2011-06-19T10:56:23Z</time>
      </trkpt>
      <trkpt lat="45.647892951965332" lon="5.76347297988832">
        <ele>341.39999389648437</ele>
        <time>2011-06-19T10:56:33Z</time>
      </trkpt>
      <trkpt lat="45.647340919822454" lon="5.764177981764078">
        <ele>338.39999389648437</ele>
        <time>2011-06-19T10:56:41Z</time>
      </trkpt>
      <trkpt lat="45.646809926256537" lon="5.764204971492291">
        <ele>339.60000610351562</ele>
        <time>2011-06-19T10:56:49Z</time>
      </trkpt>
      <trkpt lat="45.6462989654392" lon="5.764340925961733">
        <ele>342.39999389648437</ele>
        <time>2011-06-19T10:57:00Z</time>
      </trkpt>
      <trkpt lat="45.645823962986469" lon="5.764595987275243">
        <ele>344.39999389648437</ele>
        <time>2011-06-19T10:57:12Z</time>
      </trkpt>
      <trkpt lat="45.645397994667292" lon="5.764823975041509">
        <ele>346.79998779296875</ele>
        <time>2011-06-19T10:57:24Z</time>
      </trkpt>
      <trkpt lat="45.644736997783184" lon="5.764929922297597">
        <ele>349.79998779296875</ele>
        <time>2011-06-19T10:57:41Z</time>
      </trkpt>
      <trkpt lat="45.644212961196899" lon="5.765219936147332">
        <ele>349</ele>
        <time>2011-06-19T10:57:52Z</time>
      </trkpt>
      <trkpt lat="45.643542995676398" lon="5.765856960788369">
        <ele>347.39999389648437</ele>
        <time>2011-06-19T10:58:02Z</time>
      </trkpt>
      <trkpt lat="45.642964979633689" lon="5.766124930232763">
        <ele>348</ele>
        <time>2011-06-19T10:58:11Z</time>
      </trkpt>
      <trkpt lat="45.642372965812683" lon="5.766432965174317">
        <ele>349.20001220703125</ele>
        <time>2011-06-19T10:58:21Z</time>
      </trkpt>
      <trkpt lat="45.641923947259784" lon="5.766597921028733">
        <ele>350.20001220703125</ele>
        <time>2011-06-19T10:58:30Z</time>
      </trkpt>
      <trkpt lat="45.641287928447127" lon="5.766689954325557">
        <ele>351.60000610351562</ele>
        <time>2011-06-19T10:58:43Z</time>
      </trkpt>
      <trkpt lat="45.640544956550002" lon="5.767127992585301">
        <ele>353.60000610351562</ele>
        <time>2011-06-19T10:59:00Z</time>
      </trkpt>
      <trkpt lat="45.640061991289258" lon="5.767303928732872">
        <ele>355</ele>
        <time>2011-06-19T10:59:09Z</time>
      </trkpt>
      <trkpt lat="45.639479951933026" lon="5.76714794151485">
        <ele>356</ele>
        <time>2011-06-19T10:59:22Z</time>
      </trkpt>
      <trkpt lat="45.639030933380127" lon="5.7671919465065">
        <ele>356.60000610351562</ele>
        <time>2011-06-19T10:59:32Z</time>
      </trkpt>
      <trkpt lat="45.638319980353117" lon="5.767007963731885">
        <ele>357.79998779296875</ele>
        <time>2011-06-19T10:59:47Z</time>
      </trkpt>
      <trkpt lat="45.637924941256642" lon="5.767037970945239">
        <ele>359</ele>
        <time>2011-06-19T10:59:59Z</time>
      </trkpt>
      <trkpt lat="45.637472989037633" lon="5.767128998413682">
        <ele>361.60000610351562</ele>
        <time>2011-06-19T11:00:12Z</time>
      </trkpt>
      <trkpt lat="45.636925986036658" lon="5.767178954556584">
        <ele>364.79998779296875</ele>
        <time>2011-06-19T11:00:30Z</time>
      </trkpt>
      <trkpt lat="45.636490965262055" lon="5.766772935166955">
        <ele>366.39999389648437</ele>
        <time>2011-06-19T11:00:43Z</time>
      </trkpt>
      <trkpt lat="45.636073965579271" lon="5.766352917999029">
        <ele>369.20001220703125</ele>
        <time>2011-06-19T11:00:57Z</time>
      </trkpt>
      <trkpt lat="45.635628970339894" lon="5.766171952709556">
        <ele>371.79998779296875</ele>
        <time>2011-06-19T11:01:13Z</time>
      </trkpt>
      <trkpt lat="45.635023964568973" lon="5.765800969675183">
        <ele>375.39999389648437</ele>
        <time>2011-06-19T11:01:34Z</time>
      </trkpt>
      <trkpt lat="45.63456698320806" lon="5.765546998009086">
        <ele>377.39999389648437</ele>
        <time>2011-06-19T11:01:48Z</time>
      </trkpt>
      <trkpt lat="45.633996929973364" lon="5.766087966039777">
        <ele>381</ele>
        <time>2011-06-19T11:02:06Z</time>
      </trkpt>
      <trkpt lat="45.633515976369381" lon="5.766336992383003">
        <ele>383.79998779296875</ele>
        <time>2011-06-19T11:02:20Z</time>
      </trkpt>
      <trkpt lat="45.63291197642684" lon="5.766456937417388">
        <ele>387.20001220703125</ele>
        <time>2011-06-19T11:02:38Z</time>
      </trkpt>
      <trkpt lat="45.632298924028873" lon="5.766707975417376">
        <ele>390.20001220703125</ele>
        <time>2011-06-19T11:02:57Z</time>
      </trkpt>
      <trkpt lat="45.631714956834912" lon="5.767057919874787">
        <ele>393.20001220703125</ele>
        <time>2011-06-19T11:03:16Z</time>
      </trkpt>
      <trkpt lat="45.631241966038942" lon="5.767346927896142">
        <ele>395.60000610351562</ele>
        <time>2011-06-19T11:03:32Z</time>
      </trkpt>
      <trkpt lat="45.630762940272689" lon="5.767801981419325">
        <ele>398.79998779296875</ele>
        <time>2011-06-19T11:03:51Z</time>
      </trkpt>
      <trkpt lat="45.630418946966529" lon="5.768542941659689">
        <ele>402.39999389648437</ele>
        <time>2011-06-19T11:04:10Z</time>
      </trkpt>
      <trkpt lat="45.629898933693767" lon="5.768945943564177">
        <ele>405</ele>
        <time>2011-06-19T11:04:29Z</time>
      </trkpt>
      <trkpt lat="45.629328964278102" lon="5.769045939669013">
        <ele>408.60000610351562</ele>
        <time>2011-06-19T11:04:48Z</time>
      </trkpt>
      <trkpt lat="45.628807945176959" lon="5.769115928560495">
        <ele>411</ele>
        <time>2011-06-19T11:05:04Z</time>
      </trkpt>
      <trkpt lat="45.628233952447772" lon="5.769098997116089">
        <ele>413.79998779296875</ele>
        <time>2011-06-19T11:05:22Z</time>
      </trkpt>
      <trkpt lat="45.627778982743621" lon="5.768846953287721">
        <ele>416.60000610351562</ele>
        <time>2011-06-19T11:05:39Z</time>
      </trkpt>
      <trkpt lat="45.627192920073867" lon="5.768808983266354">
        <ele>419.79998779296875</ele>
        <time>2011-06-19T11:05:59Z</time>
      </trkpt>
      <trkpt lat="45.626804921776056" lon="5.76929597184062">
        <ele>422.20001220703125</ele>
        <time>2011-06-19T11:06:17Z</time>
      </trkpt>
      <trkpt lat="45.62659596092999" lon="5.768604967743158">
        <ele>425.39999389648437</ele>
        <time>2011-06-19T11:06:38Z</time>
      </trkpt>
      <trkpt lat="45.62689695507288" lon="5.767971966415644">
        <ele>429</ele>
        <time>2011-06-19T11:06:58Z</time>
      </trkpt>
      <trkpt lat="45.627272967249155" lon="5.767516996711493">
        <ele>432.39999389648437</ele>
        <time>2011-06-19T11:07:19Z</time>
      </trkpt>
      <trkpt lat="45.627857940271497" lon="5.76714894734323">
        <ele>436.20001220703125</ele>
        <time>2011-06-19T11:07:39Z</time>
      </trkpt>
      <trkpt lat="45.628424976021051" lon="5.767256990075111">
        <ele>440</ele>
        <time>2011-06-19T11:08:00Z</time>
      </trkpt>
      <trkpt lat="45.628694957122207" lon="5.766596999019384">
        <ele>443</ele>
        <time>2011-06-19T11:08:21Z</time>
      </trkpt>
      <trkpt lat="45.62833696603775" lon="5.766125936061144">
        <ele>445.60000610351562</ele>
        <time>2011-06-19T11:08:37Z</time>
      </trkpt>
      <trkpt lat="45.628040917217731" lon="5.766070950776339">
        <ele>450</ele>
        <time>2011-06-19T11:14:26Z</time>
      </trkpt>
      <trkpt lat="45.627417974174023" lon="5.766420979052782">
        <ele>453.39999389648437</ele>
        <time>2011-06-19T11:14:47Z</time>
      </trkpt>
      <trkpt lat="45.626855967566371" lon="5.766768995672464">
        <ele>455.79998779296875</ele>
        <time>2011-06-19T11:15:04Z</time>
      </trkpt>
      <trkpt lat="45.626413989812136" lon="5.767069989815354">
        <ele>457</ele>
        <time>2011-06-19T11:15:17Z</time>
      </trkpt>
      <trkpt lat="45.625709993764758" lon="5.767551949247718">
        <ele>457.39999389648437</ele>
        <time>2011-06-19T11:15:33Z</time>
      </trkpt>
      <trkpt lat="45.625244965776801" lon="5.767870964482427">
        <ele>457.60000610351562</ele>
        <time>2011-06-19T11:15:42Z</time>
      </trkpt>
      <trkpt lat="45.624720929190516" lon="5.767920920625329">
        <ele>457.60000610351562</ele>
        <time>2011-06-19T11:15:50Z</time>
      </trkpt>
      <trkpt lat="45.624156994745135" lon="5.76734097674489">
        <ele>458.39999389648438</ele>
        <time>2011-06-19T11:16:01Z</time>
      </trkpt>
      <trkpt lat="45.623730942606926" lon="5.767115922644734">
        <ele>459</ele>
        <time>2011-06-19T11:16:08Z</time>
      </trkpt>
      <trkpt lat="45.623204978182912" lon="5.766987930983305">
        <ele>459.39999389648437</ele>
        <time>2011-06-19T11:16:16Z</time>
      </trkpt>
      <trkpt lat="45.622582957148552" lon="5.766982985660434">
        <ele>459.79998779296875</ele>
        <time>2011-06-19T11:16:25Z</time>
      </trkpt>
      <trkpt lat="45.621819952502847" lon="5.767328990623355">
        <ele>460.20001220703125</ele>
        <time>2011-06-19T11:16:37Z</time>
      </trkpt>
      <trkpt lat="45.621380992233753" lon="5.767713971436024">
        <ele>460.39999389648437</ele>
        <time>2011-06-19T11:16:45Z</time>
      </trkpt>
      <trkpt lat="45.62081697396934" lon="5.767906922847033">
        <ele>460.20001220703125</ele>
        <time>2011-06-19T11:16:54Z</time>
      </trkpt>
      <trkpt lat="45.620309952646494" lon="5.767834922298789">
        <ele>460.39999389648437</ele>
        <time>2011-06-19T11:17:02Z</time>
      </trkpt>
      <trkpt lat="45.619675945490599" lon="5.767745990306139">
        <ele>461.20001220703125</ele>
        <time>2011-06-19T11:17:12Z</time>
      </trkpt>
      <trkpt lat="45.618954934179783" lon="5.767874987795949">
        <ele>461</ele>
        <time>2011-06-19T11:17:23Z</time>
      </trkpt>
      <trkpt lat="45.618624938651919" lon="5.767315998673439">
        <ele>461.20001220703125</ele>
        <time>2011-06-19T11:17:31Z</time>
      </trkpt>
      <trkpt lat="45.618482949212193" lon="5.766602950170636">
        <ele>464</ele>
        <time>2011-06-19T11:17:41Z</time>
      </trkpt>
      <trkpt lat="45.618206933140755" lon="5.766108920797706">
        <ele>466</ele>
        <time>2011-06-19T11:17:52Z</time>
      </trkpt>
      <trkpt lat="45.617670994251966" lon="5.766031974926591">
        <ele>468.79998779296875</ele>
        <time>2011-06-19T11:18:07Z</time>
      </trkpt>
      <trkpt lat="45.617357930168509" lon="5.766494991257787">
        <ele>471</ele>
        <time>2011-06-19T11:18:21Z</time>
      </trkpt>
      <trkpt lat="45.616944953799248" lon="5.766957923769951">
        <ele>474.60000610351562</ele>
        <time>2011-06-19T11:18:39Z</time>
      </trkpt>
      <trkpt lat="45.616506999358535" lon="5.766507983207703">
        <ele>478.20001220703125</ele>
        <time>2011-06-19T11:18:57Z</time>
      </trkpt>
      <trkpt lat="45.61632695607841" lon="5.765802981331945">
        <ele>480.79998779296875</ele>
        <time>2011-06-19T11:19:14Z</time>
      </trkpt>
      <trkpt lat="45.615797974169254" lon="5.765033941715956">
        <ele>481</ele>
        <time>2011-06-19T11:19:30Z</time>
      </trkpt>
      <trkpt lat="45.615605944767594" lon="5.764360958710313">
        <ele>480.79998779296875</ele>
        <time>2011-06-19T11:19:39Z</time>
      </trkpt>
      <trkpt lat="45.615177964791656" lon="5.763345994055271">
        <ele>480.20001220703125</ele>
        <time>2011-06-19T11:19:53Z</time>
      </trkpt>
      <trkpt lat="45.614762976765633" lon="5.762804942205548">
        <ele>480</ele>
        <time>2011-06-19T11:20:02Z</time>
      </trkpt>
      <trkpt lat="45.614311946555972" lon="5.762249976396561">
        <ele>479.39999389648437</ele>
        <time>2011-06-19T11:20:11Z</time>
      </trkpt>
      <trkpt lat="45.613935934379697" lon="5.761793917044997">
        <ele>479.39999389648437</ele>
        <time>2011-06-19T11:20:18Z</time>
      </trkpt>
      <trkpt lat="45.613514995202422" lon="5.761280944570899">
        <ele>480.39999389648437</ele>
        <time>2011-06-19T11:20:26Z</time>
      </trkpt>
      <trkpt lat="45.613117944449186" lon="5.76078892685473">
        <ele>480.39999389648437</ele>
        <time>2011-06-19T11:20:34Z</time>
      </trkpt>
      <trkpt lat="45.612738998606801" lon="5.760284923017025">
        <ele>481</ele>
        <time>2011-06-19T11:20:42Z</time>
      </trkpt>
      <trkpt lat="45.612053945660591" lon="5.759682934731245">
        <ele>481.20001220703125</ele>
        <time>2011-06-19T11:20:55Z</time>
      </trkpt>
      <trkpt lat="45.611604927107692" lon="5.759507920593023">
        <ele>481.60000610351562</ele>
        <time>2011-06-19T11:21:04Z</time>
      </trkpt>
      <trkpt lat="45.610863966867328" lon="5.759494928643107">
        <ele>481.39999389648438</ele>
        <time>2011-06-19T11:21:19Z</time>
      </trkpt>
      <trkpt lat="45.610062992200255" lon="5.75990991666913">
        <ele>480.60000610351562</ele>
        <time>2011-06-19T11:21:34Z</time>
      </trkpt>
      <trkpt lat="45.609296970069408" lon="5.760203953832388">
        <ele>478.60000610351562</ele>
        <time>2011-06-19T11:21:48Z</time>
      </trkpt>
      <trkpt lat="45.608511921018362" lon="5.760161960497499">
        <ele>477.79998779296875</ele>
        <time>2011-06-19T11:22:02Z</time>
      </trkpt>
      <trkpt lat="45.608047982677817" lon="5.759988958016038">
        <ele>477</ele>
        <time>2011-06-19T11:22:10Z</time>
      </trkpt>
      <trkpt lat="45.607206942513585" lon="5.759572964161634">
        <ele>476.20001220703125</ele>
        <time>2011-06-19T11:22:25Z</time>
      </trkpt>
      <trkpt lat="45.606554998084903" lon="5.759716965258122">
        <ele>475.20001220703125</ele>
        <time>2011-06-19T11:22:36Z</time>
      </trkpt>
      <trkpt lat="45.606114948168397" lon="5.759968925267458">
        <ele>474.20001220703125</ele>
        <time>2011-06-19T11:22:43Z</time>
      </trkpt>
      <trkpt lat="45.605664923787117" lon="5.760219963267446">
        <ele>471.79998779296875</ele>
        <time>2011-06-19T11:23:47Z</time>
      </trkpt>
      <trkpt lat="45.605041980743408" lon="5.760535961017013">
        <ele>469.20001220703125</ele>
        <time>2011-06-19T11:23:59Z</time>
      </trkpt>
      <trkpt lat="45.604570917785168" lon="5.76078993268311">
        <ele>467.60000610351562</ele>
        <time>2011-06-19T11:24:05Z</time>
      </trkpt>
      <trkpt lat="45.604018969461322" lon="5.761105930432677">
        <ele>465.20001220703125</ele>
        <time>2011-06-19T11:24:11Z</time>
      </trkpt>
      <trkpt lat="45.602883975952864" lon="5.761744966730475">
        <ele>459.79998779296875</ele>
        <time>2011-06-19T11:24:22Z</time>
      </trkpt>
      <trkpt lat="45.602462952956557" lon="5.761971948668361">
        <ele>457.79998779296875</ele>
        <time>2011-06-19T11:24:26Z</time>
      </trkpt>
      <trkpt lat="45.602002954110503" lon="5.762014947831631">
        <ele>454.79998779296875</ele>
        <time>2011-06-19T11:24:30Z</time>
      </trkpt>
      <trkpt lat="45.600781962275505" lon="5.761217996478081">
        <ele>449.60000610351562</ele>
        <time>2011-06-19T11:24:42Z</time>
      </trkpt>
      <trkpt lat="45.600209981203079" lon="5.761171979829669">
        <ele>446.79998779296875</ele>
        <time>2011-06-19T11:24:48Z</time>
      </trkpt>
      <trkpt lat="45.599954919889569" lon="5.76278692111373">
        <ele>441.79998779296875</ele>
        <time>2011-06-19T11:24:59Z</time>
      </trkpt>
      <trkpt lat="45.599858947098255" lon="5.763621926307678">
        <ele>438.79998779296875</ele>
        <time>2011-06-19T11:25:04Z</time>
      </trkpt>
      <trkpt lat="45.599762974306941" lon="5.764487944543362">
        <ele>435.79998779296875</ele>
        <time>2011-06-19T11:25:09Z</time>
      </trkpt>
      <trkpt lat="45.599622996523976" lon="5.765705918893218">
        <ele>431.79998779296875</ele>
        <time>2011-06-19T11:25:16Z</time>
      </trkpt>
      <trkpt lat="45.599342957139015" lon="5.766261974349618">
        <ele>429.20001220703125</ele>
        <time>2011-06-19T11:25:20Z</time>
      </trkpt>
      <trkpt lat="45.598229924216866" lon="5.767054986208677">
        <ele>422.39999389648437</ele>
        <time>2011-06-19T11:25:30Z</time>
      </trkpt>
      <trkpt lat="45.597357954829931" lon="5.767698967829347">
        <ele>417.20001220703125</ele>
        <time>2011-06-19T11:25:38Z</time>
      </trkpt>
      <trkpt lat="45.596587993204594" lon="5.76826298609376">
        <ele>413.60000610351562</ele>
        <time>2011-06-19T11:25:45Z</time>
      </trkpt>
      <trkpt lat="45.59593697078526" lon="5.768731953576207">
        <ele>409.60000610351562</ele>
        <time>2011-06-19T11:25:51Z</time>
      </trkpt>
      <trkpt lat="45.595337999984622" lon="5.769235957413912">
        <ele>404.79998779296875</ele>
        <time>2011-06-19T11:25:57Z</time>
      </trkpt>
      <trkpt lat="45.595028959214687" lon="5.770181939005852">
        <ele>401.39999389648437</ele>
        <time>2011-06-19T11:26:07Z</time>
      </trkpt>
      <trkpt lat="45.59447793290019" lon="5.770011954009533">
        <ele>399</ele>
        <time>2011-06-19T11:26:22Z</time>
      </trkpt>
      <trkpt lat="45.594125976786017" lon="5.769589925184846">
        <ele>398.39999389648437</ele>
        <time>2011-06-19T11:26:30Z</time>
      </trkpt>
      <trkpt lat="45.593775948509574" lon="5.769178960472345">
        <ele>399.20001220703125</ele>
        <time>2011-06-19T11:26:45Z</time>
      </trkpt>
      <trkpt lat="45.594341978430748" lon="5.769889997318387">
        <ele>397.39999389648437</ele>
        <time>2011-06-19T11:27:36Z</time>
      </trkpt>
      <trkpt lat="45.594749925658107" lon="5.770271960645914">
        <ele>398.39999389648437</ele>
        <time>2011-06-19T11:27:48Z</time>
      </trkpt>
      <trkpt lat="45.594898955896497" lon="5.770629951730371">
        <ele>400.20001220703125</ele>
        <time>2011-06-19T11:28:07Z</time>
      </trkpt>
      <trkpt lat="45.594273917376995" lon="5.770596927031875">
        <ele>396.79998779296875</ele>
        <time>2011-06-19T11:28:18Z</time>
      </trkpt>
      <trkpt lat="45.593834957107902" lon="5.770384948700666">
        <ele>395</ele>
        <time>2011-06-19T11:28:24Z</time>
      </trkpt>
      <trkpt lat="45.593223916366696" lon="5.770099963992834">
        <ele>394.79998779296875</ele>
        <time>2011-06-19T11:28:34Z</time>
      </trkpt>
      <trkpt lat="45.592953935265541" lon="5.770653923973441">
        <ele>397</ele>
        <time>2011-06-19T11:29:22Z</time>
      </trkpt>
      <trkpt lat="45.592795936390758" lon="5.771330930292606">
        <ele>399.60000610351562</ele>
        <time>2011-06-19T11:29:36Z</time>
      </trkpt>
      <trkpt lat="45.592465940862894" lon="5.771772991865873">
        <ele>400.20001220703125</ele>
        <time>2011-06-19T11:29:48Z</time>
      </trkpt>
      <trkpt lat="45.591960931196809" lon="5.772786950692534">
        <ele>397.20001220703125</ele>
        <time>2011-06-19T11:30:01Z</time>
      </trkpt>
      <trkpt lat="45.591163979843259" lon="5.773367984220386">
        <ele>393.39999389648438</ele>
        <time>2011-06-19T11:30:12Z</time>
      </trkpt>
      <trkpt lat="45.59065293520689" lon="5.773694962263107">
        <ele>391.39999389648437</ele>
        <time>2011-06-19T11:30:17Z</time>
      </trkpt>
      <trkpt lat="45.590158989652991" lon="5.774110956117511">
        <ele>395.20001220703125</ele>
        <time>2011-06-19T11:30:24Z</time>
      </trkpt>
      <trkpt lat="45.589773925021291" lon="5.774567937478423">
        <ele>401.60000610351562</ele>
        <time>2011-06-19T11:30:40Z</time>
      </trkpt>
      <trkpt lat="45.589331947267056" lon="5.774737922474742">
        <ele>407.39999389648438</ele>
        <time>2011-06-19T11:31:02Z</time>
      </trkpt>
      <trkpt lat="45.588827943429351" lon="5.774800954386592">
        <ele>412.39999389648437</ele>
        <time>2011-06-19T11:31:28Z</time>
      </trkpt>
      <trkpt lat="45.588147919625044" lon="5.775188952684403">
        <ele>415.79998779296875</ele>
        <time>2011-06-19T11:31:56Z</time>
      </trkpt>
      <trkpt lat="45.58764198794961" lon="5.7755689881742">
        <ele>417.79998779296875</ele>
        <time>2011-06-19T11:32:12Z</time>
      </trkpt>
      <trkpt lat="45.587102947756648" lon="5.775875933468342">
        <ele>420</ele>
        <time>2011-06-19T11:32:27Z</time>
      </trkpt>
      <trkpt lat="45.586668932810426" lon="5.775672923773527">
        <ele>422.20001220703125</ele>
        <time>2011-06-19T11:32:41Z</time>
      </trkpt>
      <trkpt lat="45.586173981428146" lon="5.775623973459005">
        <ele>424.60000610351562</ele>
        <time>2011-06-19T11:32:57Z</time>
      </trkpt>
      <trkpt lat="45.585635947063565" lon="5.775832934305072">
        <ele>427.20001220703125</ele>
        <time>2011-06-19T11:33:13Z</time>
      </trkpt>
      <trkpt lat="45.585226994007826" lon="5.776222944259644">
        <ele>429.79998779296875</ele>
        <time>2011-06-19T11:33:28Z</time>
      </trkpt>
      <trkpt lat="45.584790967404842" lon="5.776560986414552">
        <ele>432.39999389648437</ele>
        <time>2011-06-19T11:33:44Z</time>
      </trkpt>
      <trkpt lat="45.584366926923394" lon="5.776357976719737">
        <ele>435.20001220703125</ele>
        <time>2011-06-19T11:34:00Z</time>
      </trkpt>
      <trkpt lat="45.583745995536447" lon="5.775963943451643">
        <ele>438.60000610351562</ele>
        <time>2011-06-19T11:34:24Z</time>
      </trkpt>
      <trkpt lat="45.583057925105095" lon="5.775730926543474">
        <ele>442.39999389648437</ele>
        <time>2011-06-19T11:34:47Z</time>
      </trkpt>
      <trkpt lat="45.582603961229324" lon="5.77550495043397">
        <ele>444.60000610351562</ele>
        <time>2011-06-19T11:35:04Z</time>
      </trkpt>
      <trkpt lat="45.582085959613323" lon="5.77518492937088">
        <ele>447.20001220703125</ele>
        <time>2011-06-19T11:35:23Z</time>
      </trkpt>
      <trkpt lat="45.581586984917521" lon="5.774895921349526">
        <ele>449.39999389648437</ele>
        <time>2011-06-19T11:35:40Z</time>
      </trkpt>
      <trkpt lat="45.581044927239418" lon="5.774827944114804">
        <ele>452.39999389648437</ele>
        <time>2011-06-19T11:35:58Z</time>
      </trkpt>
      <trkpt lat="45.580503959208727" lon="5.775007987394929">
        <ele>456</ele>
        <time>2011-06-19T11:36:16Z</time>
      </trkpt>
      <trkpt lat="45.579878920689225" lon="5.774875972419977">
        <ele>458.60000610351562</ele>
        <time>2011-06-19T11:36:36Z</time>
      </trkpt>
      <trkpt lat="45.579257989302278" lon="5.774716967716813">
        <ele>460</ele>
        <time>2011-06-19T11:36:54Z</time>
      </trkpt>
      <trkpt lat="45.57866295799613" lon="5.774356964975596">
        <ele>462.60000610351562</ele>
        <time>2011-06-19T11:37:13Z</time>
      </trkpt>
      <trkpt lat="45.578118972480297" lon="5.773948933929205">
        <ele>466.60000610351562</ele>
        <time>2011-06-19T11:37:35Z</time>
      </trkpt>
      <trkpt lat="45.577698955312371" lon="5.773654980584979">
        <ele>469.60000610351562</ele>
        <time>2011-06-19T11:37:51Z</time>
      </trkpt>
      <trkpt lat="45.577305927872658" lon="5.77322599478066">
        <ele>472</ele>
        <time>2011-06-19T11:38:07Z</time>
      </trkpt>
      <trkpt lat="45.5767079629004" lon="5.772672956809402">
        <ele>474.79998779296875</ele>
        <time>2011-06-19T11:38:30Z</time>
      </trkpt>
      <trkpt lat="45.576272942125797" lon="5.772312954068184">
        <ele>475.39999389648437</ele>
        <time>2011-06-19T11:38:43Z</time>
      </trkpt>
      <trkpt lat="45.575621919706464" lon="5.772041967138648">
        <ele>477.20001220703125</ele>
        <time>2011-06-19T11:38:59Z</time>
      </trkpt>
      <trkpt lat="45.574833936989307" lon="5.772227961570025">
        <ele>478.79998779296875</ele>
        <time>2011-06-19T11:39:19Z</time>
      </trkpt>
      <trkpt lat="45.574393970891833" lon="5.772367939352989">
        <ele>479.79998779296875</ele>
        <time>2011-06-19T11:39:31Z</time>
      </trkpt>
      <trkpt lat="45.57393598370254" lon="5.772456955164671">
        <ele>481</ele>
        <time>2011-06-19T11:39:43Z</time>
      </trkpt>
      <trkpt lat="45.57346299290657" lon="5.772329969331622">
        <ele>481.39999389648438</ele>
        <time>2011-06-19T11:39:53Z</time>
      </trkpt>
      <trkpt lat="45.572430929169059" lon="5.772007936611772">
        <ele>480</ele>
        <time>2011-06-19T11:40:10Z</time>
      </trkpt>
      <trkpt lat="45.571891972795129" lon="5.771835939958692">
        <ele>479.79998779296875</ele>
        <time>2011-06-19T11:40:19Z</time>
      </trkpt>
      <trkpt lat="45.57129492983222" lon="5.771549949422479">
        <ele>480.20001220703125</ele>
        <time>2011-06-19T11:40:30Z</time>
      </trkpt>
      <trkpt lat="45.570644997060299" lon="5.771352974697948">
        <ele>481.20001220703125</ele>
        <time>2011-06-19T11:40:42Z</time>
      </trkpt>
      <trkpt lat="45.570099921897054" lon="5.771581968292594">
        <ele>485.79998779296875</ele>
        <time>2011-06-19T11:40:57Z</time>
      </trkpt>
      <trkpt lat="45.569704966619611" lon="5.772136934101582">
        <ele>490.39999389648437</ele>
        <time>2011-06-19T11:41:13Z</time>
      </trkpt>
      <trkpt lat="45.56912099942565" lon="5.772761972621083">
        <ele>493.79998779296875</ele>
        <time>2011-06-19T11:41:37Z</time>
      </trkpt>
      <trkpt lat="45.568622946739197" lon="5.772942937910557">
        <ele>496.39999389648437</ele>
        <time>2011-06-19T11:41:54Z</time>
      </trkpt>
      <trkpt lat="45.568100921809673" lon="5.773113928735256">
        <ele>499</ele>
        <time>2011-06-19T11:42:12Z</time>
      </trkpt>
      <trkpt lat="45.567471943795681" lon="5.773340994492173">
        <ele>497.60000610351562</ele>
        <time>2011-06-19T11:42:57Z</time>
      </trkpt>
      <trkpt lat="45.566821927204728" lon="5.773468986153603">
        <ele>492.20001220703125</ele>
        <time>2011-06-19T11:43:05Z</time>
      </trkpt>
      <trkpt lat="45.566405933350325" lon="5.773753970861435">
        <ele>484.39999389648437</ele>
        <time>2011-06-19T11:43:16Z</time>
      </trkpt>
      <trkpt lat="45.56590192951262" lon="5.773925967514515">
        <ele>479.20001220703125</ele>
        <time>2011-06-19T11:43:25Z</time>
      </trkpt>
      <trkpt lat="45.565715935081244" lon="5.77331593260169">
        <ele>475.60000610351562</ele>
        <time>2011-06-19T11:43:32Z</time>
      </trkpt>
      <trkpt lat="45.565391974523664" lon="5.77279893681407">
        <ele>470.60000610351562</ele>
        <time>2011-06-19T11:43:39Z</time>
      </trkpt>
      <trkpt lat="45.564632993191481" lon="5.772520992904902">
        <ele>465.20001220703125</ele>
        <time>2011-06-19T11:43:46Z</time>
      </trkpt>
      <trkpt lat="45.563615933060646" lon="5.772634986788034">
        <ele>460.60000610351562</ele>
        <time>2011-06-19T11:43:55Z</time>
      </trkpt>
      <trkpt lat="45.562866926193237" lon="5.772728947922587">
        <ele>456.79998779296875</ele>
        <time>2011-06-19T11:44:09Z</time>
      </trkpt>
      <trkpt lat="45.562124960124493" lon="5.772702964022756">
        <ele>455.39999389648437</ele>
        <time>2011-06-19T11:44:22Z</time>
      </trkpt>
      <trkpt lat="45.561493970453739" lon="5.772801954299212">
        <ele>456</ele>
        <time>2011-06-19T11:44:35Z</time>
      </trkpt>
      <trkpt lat="45.560900950804353" lon="5.772963976487517">
        <ele>458.79998779296875</ele>
        <time>2011-06-19T11:44:55Z</time>
      </trkpt>
      <trkpt lat="45.560249928385019" lon="5.772880995646119">
        <ele>457.20001220703125</ele>
        <time>2011-06-19T11:46:33Z</time>
      </trkpt>
      <trkpt lat="45.559501927345991" lon="5.772890970110893">
        <ele>453</ele>
        <time>2011-06-19T11:46:43Z</time>
      </trkpt>
      <trkpt lat="45.558520993217826" lon="5.773446941748262">
        <ele>446.60000610351562</ele>
        <time>2011-06-19T11:46:55Z</time>
      </trkpt>
      <trkpt lat="45.558090917766094" lon="5.77374592423439">
        <ele>444.60000610351562</ele>
        <time>2011-06-19T11:47:01Z</time>
      </trkpt>
      <trkpt lat="45.557462945580482" lon="5.774162923917174">
        <ele>442.60000610351562</ele>
        <time>2011-06-19T11:47:11Z</time>
      </trkpt>
      <trkpt lat="45.557012921199203" lon="5.773864947259426">
        <ele>441.79998779296875</ele>
        <time>2011-06-19T11:47:19Z</time>
      </trkpt>
      <trkpt lat="45.556543953716755" lon="5.77346496284008">
        <ele>442</ele>
        <time>2011-06-19T11:47:27Z</time>
      </trkpt>
      <trkpt lat="45.556043973192573" lon="5.773130943998694">
        <ele>441</ele>
        <time>2011-06-19T11:47:39Z</time>
      </trkpt>
      <trkpt lat="45.555549943819642" lon="5.773179978132248">
        <ele>438.79998779296875</ele>
        <time>2011-06-19T11:47:47Z</time>
      </trkpt>
      <trkpt lat="45.554899927228689" lon="5.773071935400367">
        <ele>436</ele>
        <time>2011-06-19T11:47:55Z</time>
      </trkpt>
      <trkpt lat="45.554371951147914" lon="5.772972945123911">
        <ele>434.20001220703125</ele>
        <time>2011-06-19T11:48:01Z</time>
      </trkpt>
      <trkpt lat="45.553902983665466" lon="5.772944949567318">
        <ele>431.60000610351562</ele>
        <time>2011-06-19T11:48:06Z</time>
      </trkpt>
      <trkpt lat="45.552955996245146" lon="5.773399919271469">
        <ele>426</ele>
        <time>2011-06-19T11:48:15Z</time>
      </trkpt>
      <trkpt lat="45.552152926102281" lon="5.77378791756928">
        <ele>420.20001220703125</ele>
        <time>2011-06-19T11:48:23Z</time>
      </trkpt>
      <trkpt lat="45.551767945289612" lon="5.774322934448719">
        <ele>417.60000610351562</ele>
        <time>2011-06-19T11:48:28Z</time>
      </trkpt>
      <trkpt lat="45.551529983058572" lon="5.775488940998912">
        <ele>415.39999389648437</ele>
        <time>2011-06-19T11:48:37Z</time>
      </trkpt>
      <trkpt lat="45.551777919754386" lon="5.776171982288361">
        <ele>410.20001220703125</ele>
        <time>2011-06-19T11:48:44Z</time>
      </trkpt>
      <trkpt lat="45.551946982741356" lon="5.776880923658609">
        <ele>406</ele>
        <time>2011-06-19T11:48:49Z</time>
      </trkpt>
      <trkpt lat="45.552046978846192" lon="5.777658931910992">
        <ele>401.20001220703125</ele>
        <time>2011-06-19T11:48:54Z</time>
      </trkpt>
      <trkpt lat="45.552198942750692" lon="5.778332920745015">
        <ele>395.79998779296875</ele>
        <time>2011-06-19T11:48:59Z</time>
      </trkpt>
      <trkpt lat="45.552116967737675" lon="5.779066924005747">
        <ele>388.79998779296875</ele>
        <time>2011-06-19T11:49:06Z</time>
      </trkpt>
      <trkpt lat="45.551604917272925" lon="5.77877196483314">
        <ele>384</ele>
        <time>2011-06-19T11:49:13Z</time>
      </trkpt>
      <trkpt lat="45.551308952271938" lon="5.779283931478858">
        <ele>378.20001220703125</ele>
        <time>2011-06-19T11:49:23Z</time>
      </trkpt>
      <trkpt lat="45.551150953397155" lon="5.780325969681144">
        <ele>371.60000610351562</ele>
        <time>2011-06-19T11:49:33Z</time>
      </trkpt>
      <trkpt lat="45.550702940672636" lon="5.780236953869462">
        <ele>366.79998779296875</ele>
        <time>2011-06-19T11:49:46Z</time>
      </trkpt>
      <trkpt lat="45.550304967910051" lon="5.779340928420425">
        <ele>366.20001220703125</ele>
        <time>2011-06-19T11:49:57Z</time>
      </trkpt>
      <trkpt lat="45.550051918253303" lon="5.777957998216152">
        <ele>365.20001220703125</ele>
        <time>2011-06-19T11:50:11Z</time>
      </trkpt>
      <trkpt lat="45.549840945750475" lon="5.776843959465623">
        <ele>363.79998779296875</ele>
        <time>2011-06-19T11:50:22Z</time>
      </trkpt>
      <trkpt lat="45.549667943269014" lon="5.775943994522095">
        <ele>363.20001220703125</ele>
        <time>2011-06-19T11:50:31Z</time>
      </trkpt>
      <trkpt lat="45.549518996849656" lon="5.775217954069376">
        <ele>362.39999389648437</ele>
        <time>2011-06-19T11:50:38Z</time>
      </trkpt>
      <trkpt lat="45.549327973276377" lon="5.77423794195056">
        <ele>359.79998779296875</ele>
        <time>2011-06-19T11:50:47Z</time>
      </trkpt>
      <trkpt lat="45.549149941653013" lon="5.773323979228735">
        <ele>357.60000610351562</ele>
        <time>2011-06-19T11:50:55Z</time>
      </trkpt>
      <trkpt lat="45.548937963321805" lon="5.772736994549632">
        <ele>357</ele>
        <time>2011-06-19T11:51:01Z</time>
      </trkpt>
      <trkpt lat="45.548355923965573" lon="5.771944988518953">
        <ele>356.39999389648438</ele>
        <time>2011-06-19T11:51:12Z</time>
      </trkpt>
      <trkpt lat="45.547592919319868" lon="5.771066984161735">
        <ele>356.60000610351562</ele>
        <time>2011-06-19T11:51:25Z</time>
      </trkpt>
      <trkpt lat="45.547147924080491" lon="5.770538924261928">
        <ele>355.20001220703125</ele>
        <time>2011-06-19T11:51:34Z</time>
      </trkpt>
      <trkpt lat="45.546781970188022" lon="5.770066939294338">
        <ele>354.79998779296875</ele>
        <time>2011-06-19T11:51:42Z</time>
      </trkpt>
      <trkpt lat="45.546319959685206" lon="5.769391944631934">
        <ele>353.39999389648438</ele>
        <time>2011-06-19T11:51:52Z</time>
      </trkpt>
      <trkpt lat="45.545895919203758" lon="5.768760954961181">
        <ele>352.39999389648437</ele>
        <time>2011-06-19T11:52:01Z</time>
      </trkpt>
      <trkpt lat="45.545542957261205" lon="5.768230967223644">
        <ele>351.60000610351562</ele>
        <time>2011-06-19T11:52:09Z</time>
      </trkpt>
      <trkpt lat="45.545069966465235" lon="5.767481960356236">
        <ele>350</ele>
        <time>2011-06-19T11:52:20Z</time>
      </trkpt>
      <trkpt lat="45.544721949845552" lon="5.766842924058437">
        <ele>350</ele>
        <time>2011-06-19T11:52:29Z</time>
      </trkpt>
      <trkpt lat="45.544368987902999" lon="5.765721928328276">
        <ele>349.79998779296875</ele>
        <time>2011-06-19T11:52:44Z</time>
      </trkpt>
      <trkpt lat="45.544108981266618" lon="5.764741916209459">
        <ele>349.60000610351562</ele>
        <time>2011-06-19T11:52:57Z</time>
      </trkpt>
      <trkpt lat="45.543893985450268" lon="5.763908922672272">
        <ele>349.60000610351562</ele>
        <time>2011-06-19T11:53:08Z</time>
      </trkpt>
      <trkpt lat="45.543689969927073" lon="5.763105936348438">
        <ele>350</ele>
        <time>2011-06-19T11:53:19Z</time>
      </trkpt>
      <trkpt lat="45.543504981324077" lon="5.76239699497819">
        <ele>349.60000610351562</ele>
        <time>2011-06-19T11:53:29Z</time>
      </trkpt>
      <trkpt lat="45.543335918337107" lon="5.761753935366869">
        <ele>350</ele>
        <time>2011-06-19T11:53:38Z</time>
      </trkpt>
      <trkpt lat="45.543166939169168" lon="5.761068966239691">
        <ele>349</ele>
        <time>2011-06-19T11:53:48Z</time>
      </trkpt>
      <trkpt lat="45.542582971975207" lon="5.760729918256402">
        <ele>349</ele>
        <time>2011-06-19T11:54:06Z</time>
      </trkpt>
      <trkpt lat="45.542310979217291" lon="5.760087948292494">
        <ele>350.39999389648438</ele>
        <time>2011-06-19T11:54:23Z</time>
      </trkpt>
      <trkpt lat="45.542243923991919" lon="5.759356962516904">
        <ele>353.39999389648438</ele>
        <time>2011-06-19T11:56:50Z</time>
      </trkpt>
      <trkpt lat="45.542104952037334" lon="5.758701916784048">
        <ele>355.39999389648437</ele>
        <time>2011-06-19T11:57:04Z</time>
      </trkpt>
      <trkpt lat="45.541913928464055" lon="5.758003955706954">
        <ele>357.60000610351562</ele>
        <time>2011-06-19T11:57:21Z</time>
      </trkpt>
      <trkpt lat="45.541801946237683" lon="5.757284956052899">
        <ele>359</ele>
        <time>2011-06-19T11:57:36Z</time>
      </trkpt>
      <trkpt lat="45.541838994249701" lon="5.756651954725385">
        <ele>360.20001220703125</ele>
        <time>2011-06-19T11:57:49Z</time>
      </trkpt>
      <trkpt lat="45.541456947103143" lon="5.756768966093659">
        <ele>361.79998779296875</ele>
        <time>2011-06-19T11:58:02Z</time>
      </trkpt>
      <trkpt lat="45.541525930166245" lon="5.757819972932339">
        <ele>364.39999389648437</ele>
        <time>2011-06-19T11:58:21Z</time>
      </trkpt>
      <trkpt lat="45.541587956249714" lon="5.758521957322955">
        <ele>366.79998779296875</ele>
        <time>2011-06-19T11:58:35Z</time>
      </trkpt>
      <trkpt lat="45.541265923529863" lon="5.75919795781374">
        <ele>370</ele>
        <time>2011-06-19T11:58:51Z</time>
      </trkpt>
      <trkpt lat="45.541055956855416" lon="5.759897930547595">
        <ele>373.79998779296875</ele>
        <time>2011-06-19T11:59:11Z</time>
      </trkpt>
      <trkpt lat="45.540580954402685" lon="5.760470917448402">
        <ele>378.79998779296875</ele>
        <time>2011-06-19T11:59:34Z</time>
      </trkpt>
      <trkpt lat="45.540103940293193" lon="5.76089495792985">
        <ele>382.79998779296875</ele>
        <time>2011-06-19T11:59:54Z</time>
      </trkpt>
      <trkpt lat="45.539656933397055" lon="5.761286979541183">
        <ele>386.60000610351562</ele>
        <time>2011-06-19T12:00:13Z</time>
      </trkpt>
      <trkpt lat="45.539179919287562" lon="5.761263929307461">
        <ele>390</ele>
        <time>2011-06-19T12:00:30Z</time>
      </trkpt>
      <trkpt lat="45.538620930165052" lon="5.761257978156209">
        <ele>393.39999389648438</ele>
        <time>2011-06-19T12:00:50Z</time>
      </trkpt>
      <trkpt lat="45.538042997941375" lon="5.761358980089426">
        <ele>396.60000610351562</ele>
        <time>2011-06-19T12:01:11Z</time>
      </trkpt>
      <trkpt lat="45.537499934434891" lon="5.761493928730488">
        <ele>399.79998779296875</ele>
        <time>2011-06-19T12:01:31Z</time>
      </trkpt>
      <trkpt lat="45.536923930048943" lon="5.761580932885408">
        <ele>403.39999389648437</ele>
        <time>2011-06-19T12:01:51Z</time>
      </trkpt>
      <trkpt lat="45.536321941763163" lon="5.761590991169214">
        <ele>407</ele>
        <time>2011-06-19T12:02:13Z</time>
      </trkpt>
      <trkpt lat="45.535845933482051" lon="5.761590991169214">
        <ele>410.39999389648438</ele>
        <time>2011-06-19T12:02:32Z</time>
      </trkpt>
      <trkpt lat="45.535379983484745" lon="5.76156391762197">
        <ele>413.60000610351562</ele>
        <time>2011-06-19T12:02:52Z</time>
      </trkpt>
      <trkpt lat="45.534919984638691" lon="5.761506920680404">
        <ele>416.20001220703125</ele>
        <time>2011-06-19T12:03:09Z</time>
      </trkpt>
      <trkpt lat="45.534430984407663" lon="5.761364931240678">
        <ele>419.39999389648437</ele>
        <time>2011-06-19T12:03:27Z</time>
      </trkpt>
      <trkpt lat="45.533965956419706" lon="5.76125898398459">
        <ele>421.60000610351562</ele>
        <time>2011-06-19T12:03:43Z</time>
      </trkpt>
      <trkpt lat="45.533328931778669" lon="5.761450929567218">
        <ele>425.39999389648437</ele>
        <time>2011-06-19T12:04:07Z</time>
      </trkpt>
      <trkpt lat="45.532828951254487" lon="5.761651927605271">
        <ele>428.79998779296875</ele>
        <time>2011-06-19T12:04:27Z</time>
      </trkpt>
      <trkpt lat="45.532349925488234" lon="5.76184194535017">
        <ele>431.79998779296875</ele>
        <time>2011-06-19T12:04:45Z</time>
      </trkpt>
      <trkpt lat="45.531814992427826" lon="5.761977983638644">
        <ele>435.79998779296875</ele>
        <time>2011-06-19T12:05:05Z</time>
      </trkpt>
      <trkpt lat="45.531125999987125" lon="5.762044955044985">
        <ele>440.20001220703125</ele>
        <time>2011-06-19T12:05:31Z</time>
      </trkpt>
      <trkpt lat="45.530500961467624" lon="5.762222986668348">
        <ele>443.39999389648437</ele>
        <time>2011-06-19T12:05:56Z</time>
      </trkpt>
      <trkpt lat="45.529836947098374" lon="5.762395989149809">
        <ele>446.20001220703125</ele>
        <time>2011-06-19T12:06:21Z</time>
      </trkpt>
      <trkpt lat="45.529319951310754" lon="5.762418955564499">
        <ele>445.20001220703125</ele>
        <time>2011-06-19T12:06:32Z</time>
      </trkpt>
      <trkpt lat="45.528525933623314" lon="5.762507971376181">
        <ele>442.20001220703125</ele>
        <time>2011-06-19T12:06:42Z</time>
      </trkpt>
      <trkpt lat="45.527859991416335" lon="5.762583995237947">
        <ele>440.20001220703125</ele>
        <time>2011-06-19T12:06:49Z</time>
      </trkpt>
      <trkpt lat="45.527157923206687" lon="5.76267896220088">
        <ele>436.79998779296875</ele>
        <time>2011-06-19T12:06:56Z</time>
      </trkpt>
      <trkpt lat="45.526323923841119" lon="5.762788932770491">
        <ele>433.39999389648437</ele>
        <time>2011-06-19T12:07:04Z</time>
      </trkpt>
      <trkpt lat="45.525605930015445" lon="5.762945925816894">
        <ele>430.60000610351562</ele>
        <time>2011-06-19T12:07:11Z</time>
      </trkpt>
      <trkpt lat="45.524852983653545" lon="5.763186989352107">
        <ele>427.79998779296875</ele>
        <time>2011-06-19T12:07:19Z</time>
      </trkpt>
      <trkpt lat="45.524414945393801" lon="5.763389999046922">
        <ele>426.60000610351562</ele>
        <time>2011-06-19T12:07:24Z</time>
      </trkpt>
      <trkpt lat="45.523859979584813" lon="5.764102963730693">
        <ele>425.79998779296875</ele>
        <time>2011-06-19T12:07:33Z</time>
      </trkpt>
      <trkpt lat="45.523524954915047" lon="5.764643931761384">
        <ele>426.39999389648437</ele>
        <time>2011-06-19T12:07:40Z</time>
      </trkpt>
      <trkpt lat="45.523009970784187" lon="5.765425963327289">
        <ele>428.39999389648437</ele>
        <time>2011-06-19T12:07:53Z</time>
      </trkpt>
      <trkpt lat="45.522495992481709" lon="5.766209922730923">
        <ele>430.39999389648437</ele>
        <time>2011-06-19T12:08:09Z</time>
      </trkpt>
      <trkpt lat="45.522131966426969" lon="5.766733959317207">
        <ele>432.60000610351562</ele>
        <time>2011-06-19T12:08:23Z</time>
      </trkpt>
      <trkpt lat="45.52170692011714" lon="5.767195969820023">
        <ele>436</ele>
        <time>2011-06-19T12:08:41Z</time>
      </trkpt>
      <trkpt lat="45.521256979554892" lon="5.767442984506488">
        <ele>438.79998779296875</ele>
        <time>2011-06-19T12:08:56Z</time>
      </trkpt>
      <trkpt lat="45.520659936591983" lon="5.76753593981266">
        <ele>442.79998779296875</ele>
        <time>2011-06-19T12:09:18Z</time>
      </trkpt>
      <trkpt lat="45.520038921386003" lon="5.76740694232285">
        <ele>446.60000610351562</ele>
        <time>2011-06-19T12:09:40Z</time>
      </trkpt>
      <trkpt lat="45.519587974995375" lon="5.767165962606669">
        <ele>449.39999389648437</ele>
        <time>2011-06-19T12:09:57Z</time>
      </trkpt>
      <trkpt lat="45.519098974764347" lon="5.766851976513863">
        <ele>452.79998779296875</ele>
        <time>2011-06-19T12:10:17Z</time>
      </trkpt>
      <trkpt lat="45.518434960395098" lon="5.766712920740247">
        <ele>457.20001220703125</ele>
        <time>2011-06-19T12:10:44Z</time>
      </trkpt>
      <trkpt lat="45.518002957105637" lon="5.767280962318182">
        <ele>460.60000610351562</ele>
        <time>2011-06-19T12:11:06Z</time>
      </trkpt>
      <trkpt lat="45.517605990171432" lon="5.767762921750546">
        <ele>463.79998779296875</ele>
        <time>2011-06-19T12:11:25Z</time>
      </trkpt>
      <trkpt lat="45.517178932204843" lon="5.76800893060863">
        <ele>467.20001220703125</ele>
        <time>2011-06-19T12:11:44Z</time>
      </trkpt>
      <trkpt lat="45.516629917547107" lon="5.768252927809954">
        <ele>470.60000610351562</ele>
        <time>2011-06-19T12:12:05Z</time>
      </trkpt>
      <trkpt lat="45.516253989189863" lon="5.768723990768194">
        <ele>473</ele>
        <time>2011-06-19T12:12:22Z</time>
      </trkpt>
      <trkpt lat="45.515764988958836" lon="5.768895987421274">
        <ele>476</ele>
        <time>2011-06-19T12:12:41Z</time>
      </trkpt>
      <trkpt lat="45.515140956267715" lon="5.768794985488057">
        <ele>479.79998779296875</ele>
        <time>2011-06-19T12:13:05Z</time>
      </trkpt>
      <trkpt lat="45.514566963538527" lon="5.768702952191234">
        <ele>483.39999389648437</ele>
        <time>2011-06-19T12:13:27Z</time>
      </trkpt>
      <trkpt lat="45.51410193555057" lon="5.768549982458353">
        <ele>486.60000610351562</ele>
        <time>2011-06-19T12:13:45Z</time>
      </trkpt>
      <trkpt lat="45.513656940311193" lon="5.768431965261698">
        <ele>489.60000610351562</ele>
        <time>2011-06-19T12:14:02Z</time>
      </trkpt>
      <trkpt lat="45.513075990602374" lon="5.768689960241318">
        <ele>493.20001220703125</ele>
        <time>2011-06-19T12:14:27Z</time>
      </trkpt>
      <trkpt lat="45.512879937887192" lon="5.769306952133775">
        <ele>496</ele>
        <time>2011-06-19T12:14:45Z</time>
      </trkpt>
      <trkpt lat="45.512839956209064" lon="5.770001979544759">
        <ele>499</ele>
        <time>2011-06-19T12:15:05Z</time>
      </trkpt>
      <trkpt lat="45.512568969279528" lon="5.770692983642221">
        <ele>502.79998779296875</ele>
        <time>2011-06-19T12:15:28Z</time>
      </trkpt>
      <trkpt lat="45.51203696988523" lon="5.770907979458571">
        <ele>506</ele>
        <time>2011-06-19T12:15:49Z</time>
      </trkpt>
      <trkpt lat="45.511545957997441" lon="5.770873948931694">
        <ele>508.20001220703125</ele>
        <time>2011-06-19T12:16:06Z</time>
      </trkpt>
      <trkpt lat="45.511008929461241" lon="5.770708993077278">
        <ele>511</ele>
        <time>2011-06-19T12:16:25Z</time>
      </trkpt>
      <trkpt lat="45.510496962815523" lon="5.770557951182127">
        <ele>513.4000244140625</ele>
        <time>2011-06-19T12:16:43Z</time>
      </trkpt>
      <trkpt lat="45.509862955659628" lon="5.770360976457596">
        <ele>516.79998779296875</ele>
        <time>2011-06-19T12:17:06Z</time>
      </trkpt>
      <trkpt lat="45.5093929823488" lon="5.770212952047586">
        <ele>518.79998779296875</ele>
        <time>2011-06-19T12:17:23Z</time>
      </trkpt>
      <trkpt lat="45.509004984050989" lon="5.77008998952806">
        <ele>521</ele>
        <time>2011-06-19T12:21:13Z</time>
      </trkpt>
      <trkpt lat="45.508576920256019" lon="5.769879939034581">
        <ele>523.20001220703125</ele>
        <time>2011-06-19T12:21:29Z</time>
      </trkpt>
      <trkpt lat="45.508170984685421" lon="5.769248949363828">
        <ele>526</ele>
        <time>2011-06-19T12:21:50Z</time>
      </trkpt>
      <trkpt lat="45.507792960852385" lon="5.768617959693074">
        <ele>527.5999755859375</ele>
        <time>2011-06-19T12:22:09Z</time>
      </trkpt>
      <trkpt lat="45.50728996284306" lon="5.768234990537167">
        <ele>528</ele>
        <time>2011-06-19T12:22:25Z</time>
      </trkpt>
      <trkpt lat="45.506620919331908" lon="5.7684819214046">
        <ele>529.20001220703125</ele>
        <time>2011-06-19T12:22:42Z</time>
      </trkpt>
      <trkpt lat="45.506162932142615" lon="5.768517963588238">
        <ele>529.5999755859375</ele>
        <time>2011-06-19T12:22:56Z</time>
      </trkpt>
      <trkpt lat="45.505621964111924" lon="5.768015971407294">
        <ele>529.79998779296875</ele>
        <time>2011-06-19T12:23:11Z</time>
      </trkpt>
      <trkpt lat="45.505150984972715" lon="5.767693938687444">
        <ele>529.79998779296875</ele>
        <time>2011-06-19T12:23:21Z</time>
      </trkpt>
      <trkpt lat="45.504604987800121" lon="5.76755496673286">
        <ele>530</ele>
        <time>2011-06-19T12:23:31Z</time>
      </trkpt>
      <trkpt lat="45.504062930122018" lon="5.767465950921178">
        <ele>529.79998779296875</ele>
        <time>2011-06-19T12:23:41Z</time>
      </trkpt>
      <trkpt lat="45.503578959032893" lon="5.767354974523187">
        <ele>530.20001220703125</ele>
        <time>2011-06-19T12:23:50Z</time>
      </trkpt>
      <trkpt lat="45.502807991579175" lon="5.767069989815354">
        <ele>530.5999755859375</ele>
        <time>2011-06-19T12:24:06Z</time>
      </trkpt>
      <trkpt lat="45.502329971641302" lon="5.766963958740234">
        <ele>531</ele>
        <time>2011-06-19T12:24:16Z</time>
      </trkpt>
      <trkpt lat="45.501711973920465" lon="5.767596960067749">
        <ele>530.79998779296875</ele>
        <time>2011-06-19T12:24:32Z</time>
      </trkpt>
      <trkpt lat="45.501652965322137" lon="5.768473958596587">
        <ele>530.79998779296875</ele>
        <time>2011-06-19T12:24:44Z</time>
      </trkpt>
      <trkpt lat="45.500988950952888" lon="5.769041916355491">
        <ele>531.4000244140625</ele>
        <time>2011-06-19T12:24:59Z</time>
      </trkpt>
      <trkpt lat="45.500472960993648" lon="5.769196981564164">
        <ele>533.20001220703125</ele>
        <time>2011-06-19T12:25:09Z</time>
      </trkpt>
      <trkpt lat="45.499706938862801" lon="5.769430920481682">
        <ele>535.5999755859375</ele>
        <time>2011-06-19T12:25:25Z</time>
      </trkpt>
      <trkpt lat="45.499059939756989" lon="5.769643988460302">
        <ele>538</ele>
        <time>2011-06-19T12:25:41Z</time>
      </trkpt>
      <trkpt lat="45.49832995980978" lon="5.769859990105033">
        <ele>540.20001220703125</ele>
        <time>2011-06-19T12:26:01Z</time>
      </trkpt>
      <trkpt lat="45.497743980959058" lon="5.769991921260953">
        <ele>541.20001220703125</ele>
        <time>2011-06-19T12:26:16Z</time>
      </trkpt>
      <trkpt lat="45.49703998491168" lon="5.769883962348104">
        <ele>542.5999755859375</ele>
        <time>2011-06-19T12:26:34Z</time>
      </trkpt>
      <trkpt lat="45.496553918346763" lon="5.769782960414887">
        <ele>543.4000244140625</ele>
        <time>2011-06-19T12:26:47Z</time>
      </trkpt>
      <trkpt lat="45.49594497308135" lon="5.769699979573488">
        <ele>544.79998779296875</ele>
        <time>2011-06-19T12:27:02Z</time>
      </trkpt>
      <trkpt lat="45.495354970917106" lon="5.769858984276652">
        <ele>546.20001220703125</ele>
        <time>2011-06-19T12:27:17Z</time>
      </trkpt>
      <trkpt lat="45.49480595625937" lon="5.770004997029901">
        <ele>547.20001220703125</ele>
        <time>2011-06-19T12:27:32Z</time>
      </trkpt>
      <trkpt lat="45.494098942726851" lon="5.770265925675631">
        <ele>544.79998779296875</ele>
        <time>2011-06-19T12:27:46Z</time>
      </trkpt>
      <trkpt lat="45.493516987189651" lon="5.77045694924891">
        <ele>541.5999755859375</ele>
        <time>2011-06-19T12:29:19Z</time>
      </trkpt>
      <trkpt lat="45.492757922038436" lon="5.770682925358415">
        <ele>538.20001220703125</ele>
        <time>2011-06-19T12:29:29Z</time>
      </trkpt>
      <trkpt lat="45.491742957383394" lon="5.770270954817534">
        <ele>535.4000244140625</ele>
        <time>2011-06-19T12:29:40Z</time>
      </trkpt>
      <trkpt lat="45.491242976859212" lon="5.77002695761621">
        <ele>534.20001220703125</ele>
        <time>2011-06-19T12:29:46Z</time>
      </trkpt>
      <trkpt lat="45.490750959143043" lon="5.769904917106032">
        <ele>532.79998779296875</ele>
        <time>2011-06-19T12:29:52Z</time>
      </trkpt>
      <trkpt lat="45.490195993334055" lon="5.769875999540091">
        <ele>531.5999755859375</ele>
        <time>2011-06-19T12:29:59Z</time>
      </trkpt>
      <trkpt lat="45.489208940416574" lon="5.769980940967798">
        <ele>528.79998779296875</ele>
        <time>2011-06-19T12:30:11Z</time>
      </trkpt>
      <trkpt lat="45.488616926595569" lon="5.770009942352772">
        <ele>526</ele>
        <time>2011-06-19T12:30:19Z</time>
      </trkpt>
      <trkpt lat="45.487870937213302" lon="5.769455982372165">
        <ele>524.20001220703125</ele>
        <time>2011-06-19T12:30:29Z</time>
      </trkpt>
      <trkpt lat="45.48717993311584" lon="5.768987936899066">
        <ele>521.5999755859375</ele>
        <time>2011-06-19T12:30:38Z</time>
      </trkpt>
      <trkpt lat="45.486741978675127" lon="5.768383936956525">
        <ele>521</ele>
        <time>2011-06-19T12:30:45Z</time>
      </trkpt>
      <trkpt lat="45.486229928210378" lon="5.767794940620661">
        <ele>520</ele>
        <time>2011-06-19T12:30:53Z</time>
      </trkpt>
      <trkpt lat="45.485377991572022" lon="5.767216924577951">
        <ele>518.4000244140625</ele>
        <time>2011-06-19T12:31:06Z</time>
      </trkpt>
      <trkpt lat="45.484906928613782" lon="5.767013998702169">
        <ele>517.4000244140625</ele>
        <time>2011-06-19T12:31:13Z</time>
      </trkpt>
      <trkpt lat="45.484313992783427" lon="5.76710494235158">
        <ele>516</ele>
        <time>2011-06-19T12:31:21Z</time>
      </trkpt>
      <trkpt lat="45.483744945377111" lon="5.76699698343873">
        <ele>514.4000244140625</ele>
        <time>2011-06-19T12:31:28Z</time>
      </trkpt>
      <trkpt lat="45.483296932652593" lon="5.766583923250437">
        <ele>514.20001220703125</ele>
        <time>2011-06-19T12:31:35Z</time>
      </trkpt>
      <trkpt lat="45.48273392021656" lon="5.766041949391365">
        <ele>513.5999755859375</ele>
        <time>2011-06-19T12:31:45Z</time>
      </trkpt>
      <trkpt lat="45.482314992696047" lon="5.76572997495532">
        <ele>513.20001220703125</ele>
        <time>2011-06-19T12:31:53Z</time>
      </trkpt>
      <trkpt lat="45.48174099996686" lon="5.765485977753997">
        <ele>512.5999755859375</ele>
        <time>2011-06-19T12:32:04Z</time>
      </trkpt>
      <trkpt lat="45.481007918715477" lon="5.765177942812443">
        <ele>512.20001220703125</ele>
        <time>2011-06-19T12:32:19Z</time>
      </trkpt>
      <trkpt lat="45.480612963438034" lon="5.764360958710313">
        <ele>513</ele>
        <time>2011-06-19T12:32:35Z</time>
      </trkpt>
      <trkpt lat="45.480262935161591" lon="5.763327972963452">
        <ele>514.4000244140625</ele>
        <time>2011-06-19T12:32:55Z</time>
      </trkpt>
      <trkpt lat="45.479936962947249" lon="5.762599920853972">
        <ele>516.20001220703125</ele>
        <time>2011-06-19T12:33:10Z</time>
      </trkpt>
      <trkpt lat="45.479477969929576" lon="5.762413926422596">
        <ele>517</ele>
        <time>2011-06-19T12:33:23Z</time>
      </trkpt>
      <trkpt lat="45.478702979162335" lon="5.762502942234278">
        <ele>515.79998779296875</ele>
        <time>2011-06-19T12:33:38Z</time>
      </trkpt>
      <trkpt lat="45.47789697535336" lon="5.762605955824256">
        <ele>514.5999755859375</ele>
        <time>2011-06-19T12:33:50Z</time>
      </trkpt>
      <trkpt lat="45.477389954030514" lon="5.762670999392867">
        <ele>514</ele>
        <time>2011-06-19T12:33:57Z</time>
      </trkpt>
      <trkpt lat="45.476551931351423" lon="5.762646943330765">
        <ele>511.79998779296875</ele>
        <time>2011-06-19T12:34:08Z</time>
      </trkpt>
      <trkpt lat="45.475823963060975" lon="5.762551976367831">
        <ele>509.39999389648437</ele>
        <time>2011-06-19T12:34:17Z</time>
      </trkpt>
      <trkpt lat="45.47512692399323" lon="5.762469917535782">
        <ele>507.39999389648437</ele>
        <time>2011-06-19T12:34:25Z</time>
      </trkpt>
      <trkpt lat="45.474557960405946" lon="5.762395989149809">
        <ele>505.20001220703125</ele>
        <time>2011-06-19T12:34:31Z</time>
      </trkpt>
      <trkpt lat="45.474077928811312" lon="5.762216951698065">
        <ele>503.79998779296875</ele>
        <time>2011-06-19T12:34:36Z</time>
      </trkpt>
      <trkpt lat="45.473561938852072" lon="5.761823924258351">
        <ele>502.39999389648437</ele>
        <time>2011-06-19T12:34:42Z</time>
      </trkpt>
      <trkpt lat="45.473023988306522" lon="5.761392926797271">
        <ele>500.60000610351562</ele>
        <time>2011-06-19T12:34:49Z</time>
      </trkpt>
      <trkpt lat="45.472212955355644" lon="5.760771995410323">
        <ele>499.20001220703125</ele>
        <time>2011-06-19T12:35:00Z</time>
      </trkpt>
      <trkpt lat="45.471700988709927" lon="5.760461948812008">
        <ele>498.39999389648438</ele>
        <time>2011-06-19T12:35:07Z</time>
      </trkpt>
      <trkpt lat="45.470971930772066" lon="5.759979989379644">
        <ele>497.20001220703125</ele>
        <time>2011-06-19T12:35:18Z</time>
      </trkpt>
      <trkpt lat="45.47024798579514" lon="5.759186977520585">
        <ele>495.79998779296875</ele>
        <time>2011-06-19T12:35:31Z</time>
      </trkpt>
      <trkpt lat="45.469826962798834" lon="5.758694959804416">
        <ele>495.60000610351562</ele>
        <time>2011-06-19T12:35:38Z</time>
      </trkpt>
      <trkpt lat="45.46947592869401" lon="5.758196990936995">
        <ele>495.60000610351562</ele>
        <time>2011-06-19T12:35:44Z</time>
      </trkpt>
      <trkpt lat="45.469242995604873" lon="5.757503975182772">
        <ele>496.20001220703125</ele>
        <time>2011-06-19T12:35:52Z</time>
      </trkpt>
      <trkpt lat="45.46878894791007" lon="5.756931994110346">
        <ele>498.20001220703125</ele>
        <time>2011-06-19T12:36:06Z</time>
      </trkpt>
      <trkpt lat="45.468318974599242" lon="5.756695959717035">
        <ele>500.39999389648438</ele>
        <time>2011-06-19T12:36:18Z</time>
      </trkpt>
      <trkpt lat="45.467800972983241" lon="5.756453974172473">
        <ele>502</ele>
        <time>2011-06-19T12:36:32Z</time>
      </trkpt>
      <trkpt lat="45.467199990525842" lon="5.756174940615892">
        <ele>504.60000610351562</ele>
        <time>2011-06-19T12:36:50Z</time>
      </trkpt>
      <trkpt lat="45.466546956449747" lon="5.755875958129764">
        <ele>507</ele>
        <time>2011-06-19T12:37:09Z</time>
      </trkpt>
      <trkpt lat="45.466024931520224" lon="5.755495922639966">
        <ele>509.79998779296875</ele>
        <time>2011-06-19T12:37:26Z</time>
      </trkpt>
      <trkpt lat="45.465449932962656" lon="5.754932994022965">
        <ele>511.60000610351562</ele>
        <time>2011-06-19T12:37:45Z</time>
      </trkpt>
      <trkpt lat="45.464776949957013" lon="5.754318935796619">
        <ele>512.79998779296875</ele>
        <time>2011-06-19T12:38:06Z</time>
      </trkpt>
      <trkpt lat="45.46421192586422" lon="5.753797916695476">
        <ele>513.4000244140625</ele>
        <time>2011-06-19T12:38:21Z</time>
      </trkpt>
      <trkpt lat="45.463838931173086" lon="5.753004988655448">
        <ele>513.20001220703125</ele>
        <time>2011-06-19T12:38:35Z</time>
      </trkpt>
      <trkpt lat="45.463649919256568" lon="5.751870917156339">
        <ele>511</ele>
        <time>2011-06-19T12:38:48Z</time>
      </trkpt>
      <trkpt lat="45.463432995602489" lon="5.751273958012462">
        <ele>508.79998779296875</ele>
        <time>2011-06-19T12:38:54Z</time>
      </trkpt>
      <trkpt lat="45.463167959824204" lon="5.750626958906651">
        <ele>506.60000610351562</ele>
        <time>2011-06-19T12:39:00Z</time>
      </trkpt>
      <trkpt lat="45.462924968451262" lon="5.749932937324047">
        <ele>505</ele>
        <time>2011-06-19T12:39:06Z</time>
      </trkpt>
      <trkpt lat="45.462768981233239" lon="5.749078989028931">
        <ele>501.20001220703125</ele>
        <time>2011-06-19T12:39:13Z</time>
      </trkpt>
      <trkpt lat="45.462521966546774" lon="5.748486975207925">
        <ele>498.60000610351562</ele>
        <time>2011-06-19T12:39:18Z</time>
      </trkpt>
      <trkpt lat="45.462070936337113" lon="5.747871994972229">
        <ele>496.20001220703125</ele>
        <time>2011-06-19T12:39:24Z</time>
      </trkpt>
      <trkpt lat="45.461518988013268" lon="5.747374948114157">
        <ele>492.39999389648437</ele>
        <time>2011-06-19T12:39:30Z</time>
      </trkpt>
      <trkpt lat="45.461087990552187" lon="5.747155928984284">
        <ele>489.79998779296875</ele>
        <time>2011-06-19T12:39:34Z</time>
      </trkpt>
      <trkpt lat="45.460101943463087" lon="5.747153917327523">
        <ele>484.20001220703125</ele>
        <time>2011-06-19T12:39:42Z</time>
      </trkpt>
      <trkpt lat="45.459155961871147" lon="5.747063979506493">
        <ele>478.79998779296875</ele>
        <time>2011-06-19T12:39:49Z</time>
      </trkpt>
      <trkpt lat="45.458658998832107" lon="5.746382949873805">
        <ele>474.39999389648437</ele>
        <time>2011-06-19T12:39:54Z</time>
      </trkpt>
      <trkpt lat="45.458284998312593" lon="5.745573928579688">
        <ele>471.60000610351562</ele>
        <time>2011-06-19T12:39:59Z</time>
      </trkpt>
      <trkpt lat="45.45776498503983" lon="5.745047964155674">
        <ele>468.60000610351562</ele>
        <time>2011-06-19T12:40:04Z</time>
      </trkpt>
      <trkpt lat="45.457298951223493" lon="5.74477999471128">
        <ele>466.60000610351562</ele>
        <time>2011-06-19T12:40:08Z</time>
      </trkpt>
      <trkpt lat="45.456607947126031" lon="5.744325947016478">
        <ele>463</ele>
        <time>2011-06-19T12:40:14Z</time>
      </trkpt>
      <trkpt lat="45.455829938873649" lon="5.744147999212146">
        <ele>458.60000610351562</ele>
        <time>2011-06-19T12:40:20Z</time>
      </trkpt>
      <trkpt lat="45.45411491766572" lon="5.745139997452498">
        <ele>448</ele>
        <time>2011-06-19T12:40:33Z</time>
      </trkpt>
      <trkpt lat="45.453561963513494" lon="5.745671996846795">
        <ele>444.20001220703125</ele>
        <time>2011-06-19T12:40:38Z</time>
      </trkpt>
      <trkpt lat="45.453261975198984" lon="5.746459979563952">
        <ele>440.20001220703125</ele>
        <time>2011-06-19T12:40:43Z</time>
      </trkpt>
      <trkpt lat="45.452793929725885" lon="5.746852923184633">
        <ele>435.79998779296875</ele>
        <time>2011-06-19T12:40:48Z</time>
      </trkpt>
      <trkpt lat="45.45179195702076" lon="5.746415974572301">
        <ele>430.60000610351562</ele>
        <time>2011-06-19T12:40:57Z</time>
      </trkpt>
      <trkpt lat="45.451315948739648" lon="5.746392924338579">
        <ele>428</ele>
        <time>2011-06-19T12:41:01Z</time>
      </trkpt>
      <trkpt lat="45.450726952403784" lon="5.746998935937882">
        <ele>424.20001220703125</ele>
        <time>2011-06-19T12:41:07Z</time>
      </trkpt>
      <trkpt lat="45.450542969629169" lon="5.747669991105795">
        <ele>421.79998779296875</ele>
        <time>2011-06-19T12:41:11Z</time>
      </trkpt>
      <trkpt lat="45.450469963252544" lon="5.749122994020581">
        <ele>416.20001220703125</ele>
        <time>2011-06-19T12:41:19Z</time>
      </trkpt>
      <trkpt lat="45.45022395439446" lon="5.750131923705339">
        <ele>411.60000610351562</ele>
        <time>2011-06-19T12:41:25Z</time>
      </trkpt>
      <trkpt lat="45.449778959155083" lon="5.750553952530026">
        <ele>407.79998779296875</ele>
        <time>2011-06-19T12:41:30Z</time>
      </trkpt>
      <trkpt lat="45.449262969195843" lon="5.750458985567093">
        <ele>405</ele>
        <time>2011-06-19T12:41:35Z</time>
      </trkpt>
      <trkpt lat="45.448192935436964" lon="5.750263938680291">
        <ele>400</ele>
        <time>2011-06-19T12:41:45Z</time>
      </trkpt>
      <trkpt lat="45.447743916884065" lon="5.750630982220173">
        <ele>397.39999389648437</ele>
        <time>2011-06-19T12:41:50Z</time>
      </trkpt>
      <trkpt lat="45.447461949661374" lon="5.752215916290879">
        <ele>391.60000610351562</ele>
        <time>2011-06-19T12:42:00Z</time>
      </trkpt>
      <trkpt lat="45.447309985756874" lon="5.753003982827067">
        <ele>388</ele>
        <time>2011-06-19T12:42:05Z</time>
      </trkpt>
      <trkpt lat="45.446928944438696" lon="5.753501951694489">
        <ele>384.39999389648437</ele>
        <time>2011-06-19T12:42:10Z</time>
      </trkpt>
      <trkpt lat="45.446220925077796" lon="5.753482924774289">
        <ele>381</ele>
        <time>2011-06-19T12:42:16Z</time>
      </trkpt>
      <trkpt lat="45.445310985669494" lon="5.753341941162944">
        <ele>377.20001220703125</ele>
        <time>2011-06-19T12:42:23Z</time>
      </trkpt>
      <trkpt lat="45.444747973233461" lon="5.753265917301178">
        <ele>374.79998779296875</ele>
        <time>2011-06-19T12:42:27Z</time>
      </trkpt>
      <trkpt lat="45.444183954969049" lon="5.753188971430063">
        <ele>372</ele>
        <time>2011-06-19T12:42:31Z</time>
      </trkpt>
      <trkpt lat="45.44289599172771" lon="5.753004988655448">
        <ele>367.39999389648438</ele>
        <time>2011-06-19T12:42:41Z</time>
      </trkpt>
      <trkpt lat="45.441971970722079" lon="5.752877919003367">
        <ele>364.20001220703125</ele>
        <time>2011-06-19T12:42:49Z</time>
      </trkpt>
      <trkpt lat="45.441100923344493" lon="5.75275395065546">
        <ele>361.79998779296875</ele>
        <time>2011-06-19T12:42:57Z</time>
      </trkpt>
      <trkpt lat="45.440218979492784" lon="5.752638950943947">
        <ele>359.39999389648437</ele>
        <time>2011-06-19T12:43:06Z</time>
      </trkpt>
      <trkpt lat="45.43922396376729" lon="5.752491932362318">
        <ele>358.20001220703125</ele>
        <time>2011-06-19T12:43:20Z</time>
      </trkpt>
      <trkpt lat="45.438622981309891" lon="5.752434935420752">
        <ele>358.39999389648437</ele>
        <time>2011-06-19T12:43:30Z</time>
      </trkpt>
      <trkpt lat="45.437854947522283" lon="5.752327982336283">
        <ele>358.20001220703125</ele>
        <time>2011-06-19T12:43:45Z</time>
      </trkpt>
      <trkpt lat="45.437402995303273" lon="5.75262495316565">
        <ele>357.60000610351562</ele>
        <time>2011-06-19T12:44:04Z</time>
      </trkpt>
      <trkpt lat="45.437272991985083" lon="5.753306988626719">
        <ele>358</ele>
        <time>2011-06-19T12:44:19Z</time>
      </trkpt>
      <trkpt lat="45.436828918755054" lon="5.753443948924542">
        <ele>358.39999389648437</ele>
        <time>2011-06-19T12:44:36Z</time>
      </trkpt>
      <trkpt lat="45.436203964054585" lon="5.753737986087799">
        <ele>360</ele>
        <time>2011-06-19T12:44:57Z</time>
      </trkpt>
      <trkpt lat="45.436203964054585" lon="5.754474923014641">
        <ele>363.39999389648437</ele>
        <time>2011-06-19T12:45:31Z</time>
      </trkpt>
      <trkpt lat="45.436347965151072" lon="5.755120916292071">
        <ele>364.79998779296875</ele>
        <time>2011-06-19T12:45:52Z</time>
      </trkpt>
      <trkpt lat="45.436588944867253" lon="5.755470944568515">
        <ele>364.20001220703125</ele>
        <time>2011-06-19T12:46:24Z</time>
      </trkpt>
      <trkpt lat="45.436275964602828" lon="5.754884965717793">
        <ele>364.60000610351562</ele>
        <time>2011-06-19T12:46:41Z</time>
      </trkpt>
      <trkpt lat="45.43623992241919" lon="5.754162948578596">
        <ele>363.79998779296875</ele>
        <time>2011-06-19T12:46:55Z</time>
      </trkpt>
      <trkpt lat="45.435702977702022" lon="5.754220951348543">
        <ele>359.79998779296875</ele>
        <time>2011-06-19T12:47:11Z</time>
      </trkpt>
      <trkpt lat="45.435160920023918" lon="5.754609955474734">
        <ele>357.79998779296875</ele>
        <time>2011-06-19T12:47:21Z</time>
      </trkpt>
      <trkpt lat="45.434569995850325" lon="5.75488094240427">
        <ele>357</ele>
        <time>2011-06-19T12:47:34Z</time>
      </trkpt>
      <trkpt lat="45.433977982029319" lon="5.755123933777213">
        <ele>355.39999389648437</ele>
        <time>2011-06-19T12:47:49Z</time>
      </trkpt>
      <trkpt lat="45.433560982346535" lon="5.755407996475697">
        <ele>357.79998779296875</ele>
        <time>2011-06-19T12:48:08Z</time>
      </trkpt>
      <trkpt lat="45.43340097181499" lon="5.754821933805943">
        <ele>359</ele>
        <time>2011-06-19T12:48:42Z</time>
      </trkpt>
      <trkpt lat="45.433143982663751" lon="5.754007967188954">
        <ele>358.79998779296875</ele>
        <time>2011-06-19T12:48:58Z</time>
      </trkpt>
      <trkpt lat="45.432909959927201" lon="5.753386951982975">
        <ele>358.39999389648437</ele>
        <time>2011-06-19T12:49:12Z</time>
      </trkpt>
      <trkpt lat="45.432939967140555" lon="5.752637945115566">
        <ele>355.79998779296875</ele>
        <time>2011-06-19T12:49:26Z</time>
      </trkpt>
      <trkpt lat="45.432923957705498" lon="5.751971919089556">
        <ele>354.79998779296875</ele>
        <time>2011-06-19T12:49:50Z</time>
      </trkpt>
      <trkpt lat="45.43253998272121" lon="5.751606971025467">
        <ele>358</ele>
        <time>2011-06-19T12:50:07Z</time>
      </trkpt>
      <trkpt lat="45.432122983038425" lon="5.751228947192431">
        <ele>359.20001220703125</ele>
        <time>2011-06-19T12:50:24Z</time>
      </trkpt>
      <trkpt lat="45.431537926197052" lon="5.750879924744368">
        <ele>359.20001220703125</ele>
        <time>2011-06-19T12:53:38Z</time>
      </trkpt>
      <trkpt lat="45.431224945932627" lon="5.750205935910344">
        <ele>359.39999389648437</ele>
        <time>2011-06-19T12:53:52Z</time>
      </trkpt>
      <trkpt lat="45.430834935978055" lon="5.749256936833262">
        <ele>358.79998779296875</ele>
        <time>2011-06-19T12:54:08Z</time>
      </trkpt>
      <trkpt lat="45.430318946018815" lon="5.748094953596592">
        <ele>358.39999389648437</ele>
        <time>2011-06-19T12:54:26Z</time>
      </trkpt>
      <trkpt lat="45.430082995444536" lon="5.747546944767237">
        <ele>358</ele>
        <time>2011-06-19T12:54:34Z</time>
      </trkpt>
      <trkpt lat="45.429774960502982" lon="5.74667195789516">
        <ele>356</ele>
        <time>2011-06-19T12:54:45Z</time>
      </trkpt>
      <trkpt lat="45.429529957473278" lon="5.746067957952619">
        <ele>355.20001220703125</ele>
        <time>2011-06-19T12:54:53Z</time>
      </trkpt>
      <trkpt lat="45.429072976112366" lon="5.746184969320893">
        <ele>355.60000610351562</ele>
        <time>2011-06-19T12:55:00Z</time>
      </trkpt>
      <trkpt lat="45.428634937852621" lon="5.746378926560283">
        <ele>355.60000610351562</ele>
        <time>2011-06-19T12:55:06Z</time>
      </trkpt>
      <trkpt lat="45.427797921001911" lon="5.746404994279146">
        <ele>355.60000610351562</ele>
        <time>2011-06-19T12:55:17Z</time>
      </trkpt>
      <trkpt lat="45.427308920770884" lon="5.746408933773637">
        <ele>356</ele>
        <time>2011-06-19T12:55:24Z</time>
      </trkpt>
      <trkpt lat="45.426801983267069" lon="5.746398959308863">
        <ele>355.39999389648437</ele>
        <time>2011-06-19T12:55:31Z</time>
      </trkpt>
      <trkpt lat="45.425984999164939" lon="5.746298963204026">
        <ele>354.60000610351562</ele>
        <time>2011-06-19T12:55:42Z</time>
      </trkpt>
      <trkpt lat="45.425463980063796" lon="5.74617994017899">
        <ele>354.60000610351562</ele>
        <time>2011-06-19T12:55:49Z</time>
      </trkpt>
      <trkpt lat="45.424963999539614" lon="5.746040968224406">
        <ele>354.79998779296875</ele>
        <time>2011-06-19T12:55:56Z</time>
      </trkpt>
      <trkpt lat="45.424408949911594" lon="5.745622962713242">
        <ele>355.79998779296875</ele>
        <time>2011-06-19T12:56:06Z</time>
      </trkpt>
      <trkpt lat="45.424007959663868" lon="5.745202945545316">
        <ele>357.39999389648437</ele>
        <time>2011-06-19T12:56:15Z</time>
      </trkpt>
      <trkpt lat="45.42356195859611" lon="5.744598945602775">
        <ele>359.60000610351562</ele>
        <time>2011-06-19T12:56:28Z</time>
      </trkpt>
      <trkpt lat="45.422947984188795" lon="5.744177922606468">
        <ele>361.60000610351562</ele>
        <time>2011-06-19T12:56:43Z</time>
      </trkpt>
      <trkpt lat="45.42227198369801" lon="5.743799982592464">
        <ele>364</ele>
        <time>2011-06-19T12:57:00Z</time>
      </trkpt>
      <trkpt lat="45.421747947111726" lon="5.743539975956082">
        <ele>364.39999389648437</ele>
        <time>2011-06-19T12:57:11Z</time>
      </trkpt>
      <trkpt lat="45.421331953257322" lon="5.743245938792825">
        <ele>363.79998779296875</ele>
        <time>2011-06-19T12:57:18Z</time>
      </trkpt>
      <trkpt lat="45.420812945812941" lon="5.742882918566465">
        <ele>363</ele>
        <time>2011-06-19T12:57:26Z</time>
      </trkpt>
      <trkpt lat="45.42040198110044" lon="5.7425029668957">
        <ele>362.79998779296875</ele>
        <time>2011-06-19T12:57:33Z</time>
      </trkpt>
      <trkpt lat="45.4198859911412" lon="5.742149921134114">
        <ele>363.20001220703125</ele>
        <time>2011-06-19T12:57:42Z</time>
      </trkpt>
      <trkpt lat="45.419316943734884" lon="5.741781955584884">
        <ele>363.60000610351562</ele>
        <time>2011-06-19T12:57:52Z</time>
      </trkpt>
      <trkpt lat="45.418829955160618" lon="5.741520943120122">
        <ele>364</ele>
        <time>2011-06-19T12:58:00Z</time>
      </trkpt>
      <trkpt lat="45.418303990736604" lon="5.741275940090418">
        <ele>363.79998779296875</ele>
        <time>2011-06-19T12:58:08Z</time>
      </trkpt>
      <trkpt lat="45.417702924460173" lon="5.741080977022648">
        <ele>363</ele>
        <time>2011-06-19T12:58:16Z</time>
      </trkpt>
      <trkpt lat="45.417219959199429" lon="5.740596922114492">
        <ele>362.60000610351562</ele>
        <time>2011-06-19T12:58:23Z</time>
      </trkpt>
      <trkpt lat="45.416755937039852" lon="5.740359965711832">
        <ele>361.60000610351562</ele>
        <time>2011-06-19T12:58:29Z</time>
      </trkpt>
      <trkpt lat="45.416133999824524" lon="5.740022929385305">
        <ele>360</ele>
        <time>2011-06-19T12:58:37Z</time>
      </trkpt>
      <trkpt lat="45.415641982108355" lon="5.739787984639406">
        <ele>359</ele>
        <time>2011-06-19T12:58:43Z</time>
      </trkpt>
      <trkpt lat="45.415103947743773" lon="5.739401997998357">
        <ele>358.79998779296875</ele>
        <time>2011-06-19T12:58:50Z</time>
      </trkpt>
      <trkpt lat="45.414584940299392" lon="5.738868992775679">
        <ele>359</ele>
        <time>2011-06-19T12:58:58Z</time>
      </trkpt>
      <trkpt lat="45.41412896476686" lon="5.738395918160677">
        <ele>359</ele>
        <time>2011-06-19T12:59:06Z</time>
      </trkpt>
      <trkpt lat="45.413756975904107" lon="5.737773980945349">
        <ele>359.20001220703125</ele>
        <time>2011-06-19T12:59:15Z</time>
      </trkpt>
      <trkpt lat="45.413228999823332" lon="5.738226938992739">
        <ele>359.39999389648437</ele>
        <time>2011-06-19T12:59:26Z</time>
      </trkpt>
      <trkpt lat="45.412759948521852" lon="5.737697957083583">
        <ele>359.20001220703125</ele>
        <time>2011-06-19T12:59:35Z</time>
      </trkpt>
      <trkpt lat="45.411999961361289" lon="5.737473992630839">
        <ele>359.39999389648437</ele>
        <time>2011-06-19T12:59:48Z</time>
      </trkpt>
      <trkpt lat="45.411239974200726" lon="5.737063949927688">
        <ele>359.79998779296875</ele>
        <time>2011-06-19T13:00:01Z</time>
      </trkpt>
      <trkpt lat="45.410626921802759" lon="5.736668994650245">
        <ele>360.39999389648437</ele>
        <time>2011-06-19T13:00:11Z</time>
      </trkpt>
      <trkpt lat="45.410051923245192" lon="5.73629692196846">
        <ele>360.79998779296875</ele>
        <time>2011-06-19T13:00:20Z</time>
      </trkpt>
      <trkpt lat="45.409470973536372" lon="5.735910935327411">
        <ele>361.20001220703125</ele>
        <time>2011-06-19T13:00:29Z</time>
      </trkpt>
      <trkpt lat="45.40884593501687" lon="5.735496953129768">
        <ele>361.20001220703125</ele>
        <time>2011-06-19T13:00:39Z</time>
      </trkpt>
      <trkpt lat="45.408354923129082" lon="5.735176932066679">
        <ele>361.79998779296875</ele>
        <time>2011-06-19T13:00:47Z</time>
      </trkpt>
      <trkpt lat="45.407863995060325" lon="5.734863951802254">
        <ele>362.20001220703125</ele>
        <time>2011-06-19T13:00:55Z</time>
      </trkpt>
      <trkpt lat="45.407154969871044" lon="5.734127936884761">
        <ele>363</ele>
        <time>2011-06-19T13:01:08Z</time>
      </trkpt>
      <trkpt lat="45.406878953799605" lon="5.733570959419012">
        <ele>363.39999389648437</ele>
        <time>2011-06-19T13:01:15Z</time>
      </trkpt>
      <trkpt lat="45.406265985220671" lon="5.73277099058032">
        <ele>364.20001220703125</ele>
        <time>2011-06-19T13:01:27Z</time>
      </trkpt>
      <trkpt lat="45.405797939747572" lon="5.732007985934615">
        <ele>364.39999389648437</ele>
        <time>2011-06-19T13:01:37Z</time>
      </trkpt>
      <trkpt lat="45.405425950884819" lon="5.731392921879888">
        <ele>364.79998779296875</ele>
        <time>2011-06-19T13:01:45Z</time>
      </trkpt>
      <trkpt lat="45.405042981728911" lon="5.730822952464223">
        <ele>365</ele>
        <time>2011-06-19T13:01:53Z</time>
      </trkpt>
      <trkpt lat="45.404450967907906" lon="5.729981996119022">
        <ele>365.79998779296875</ele>
        <time>2011-06-19T13:02:07Z</time>
      </trkpt>
      <trkpt lat="45.404022987931967" lon="5.729344971477985">
        <ele>366.20001220703125</ele>
        <time>2011-06-19T13:02:18Z</time>
      </trkpt>
      <trkpt lat="45.403459975495934" lon="5.728962924331427">
        <ele>366.39999389648437</ele>
        <time>2011-06-19T13:02:30Z</time>
      </trkpt>
      <trkpt lat="45.403314968571067" lon="5.728164967149496">
        <ele>366.60000610351562</ele>
        <time>2011-06-19T13:02:41Z</time>
      </trkpt>
      <trkpt lat="45.402989918366075" lon="5.727494917809963">
        <ele>366.79998779296875</ele>
        <time>2011-06-19T13:02:51Z</time>
      </trkpt>
      <trkpt lat="45.402851952239871" lon="5.726530998945236">
        <ele>366.60000610351562</ele>
        <time>2011-06-19T13:03:03Z</time>
      </trkpt>
      <trkpt lat="45.402455991134048" lon="5.726007968187332">
        <ele>366.79998779296875</ele>
        <time>2011-06-19T13:03:12Z</time>
      </trkpt>
      <trkpt lat="45.401717964559793" lon="5.72533699683845">
        <ele>367</ele>
        <time>2011-06-19T13:03:26Z</time>
      </trkpt>
      <trkpt lat="45.401364918798208" lon="5.724727967754006">
        <ele>367.39999389648438</ele>
        <time>2011-06-19T13:03:35Z</time>
      </trkpt>
      <trkpt lat="45.401123939082026" lon="5.723814927041531">
        <ele>367.60000610351562</ele>
        <time>2011-06-19T13:03:47Z</time>
      </trkpt>
      <trkpt lat="45.400799978524446" lon="5.723196929320693">
        <ele>367.60000610351562</ele>
        <time>2011-06-19T13:04:00Z</time>
      </trkpt>
      <trkpt lat="45.400672992691398" lon="5.723161976784468">
        <ele>367.60000610351562</ele>
        <time>2011-06-19T13:05:17Z</time>
      </trkpt>
      <trkpt lat="45.401260983198881" lon="5.723245963454247">
        <ele>367.39999389648438</ele>
        <time>2011-06-19T13:05:34Z</time>
      </trkpt>
      <trkpt lat="45.402104957029223" lon="5.722788982093334">
        <ele>367.20001220703125</ele>
        <time>2011-06-19T13:05:50Z</time>
      </trkpt>
      <trkpt lat="45.40282697416842" lon="5.722059924155474">
        <ele>366.20001220703125</ele>
        <time>2011-06-19T13:06:05Z</time>
      </trkpt>
      <trkpt lat="45.403422927483916" lon="5.721393981948495">
        <ele>366.20001220703125</ele>
        <time>2011-06-19T13:06:19Z</time>
      </trkpt>
      <trkpt lat="45.404092976823449" lon="5.720691997557879">
        <ele>366.20001220703125</ele>
        <time>2011-06-19T13:06:35Z</time>
      </trkpt>
      <trkpt lat="45.404466977342963" lon="5.720283966511488">
        <ele>366.20001220703125</ele>
        <time>2011-06-19T13:06:44Z</time>
      </trkpt>
      <trkpt lat="45.404750956222415" lon="5.719758924096823">
        <ele>366</ele>
        <time>2011-06-19T13:06:56Z</time>
      </trkpt>
      <trkpt lat="45.404409980401397" lon="5.718735996633768">
        <ele>366.79998779296875</ele>
        <time>2011-06-19T13:07:33Z</time>
      </trkpt>
      <trkpt lat="45.40409498848021" lon="5.717766964808106">
        <ele>367.39999389648438</ele>
        <time>2011-06-19T13:07:45Z</time>
      </trkpt>
      <trkpt lat="45.403852919116616" lon="5.717169921845198">
        <ele>368.20001220703125</ele>
        <time>2011-06-19T13:07:53Z</time>
      </trkpt>
      <trkpt lat="45.403427956625819" lon="5.716347992420197">
        <ele>368.39999389648437</ele>
        <time>2011-06-19T13:08:05Z</time>
      </trkpt>
      <trkpt lat="45.403145989403129" lon="5.715670986101031">
        <ele>368</ele>
        <time>2011-06-19T13:08:13Z</time>
      </trkpt>
      <trkpt lat="45.402830997481942" lon="5.714987944811583">
        <ele>368.39999389648437</ele>
        <time>2011-06-19T13:08:21Z</time>
      </trkpt>
      <trkpt lat="45.402553975582123" lon="5.714461980387569">
        <ele>369.60000610351562</ele>
        <time>2011-06-19T13:08:28Z</time>
      </trkpt>
      <trkpt lat="45.402250969782472" lon="5.713845994323492">
        <ele>370.60000610351562</ele>
        <time>2011-06-19T13:08:37Z</time>
      </trkpt>
      <trkpt lat="45.40175199508667" lon="5.713123977184296">
        <ele>370.39999389648438</ele>
        <time>2011-06-19T13:08:51Z</time>
      </trkpt>
      <trkpt lat="45.401380928233266" lon="5.712499944493175">
        <ele>370.60000610351562</ele>
        <time>2011-06-19T13:09:03Z</time>
      </trkpt>
      <trkpt lat="45.400954959914088" lon="5.712033994495869">
        <ele>368.60000610351562</ele>
        <time>2011-06-19T13:10:17Z</time>
      </trkpt>
      <trkpt lat="45.40031592361629" lon="5.711083989590406">
        <ele>367.60000610351562</ele>
        <time>2011-06-19T13:10:30Z</time>
      </trkpt>
      <trkpt lat="45.399981988593936" lon="5.710612926632166">
        <ele>367.79998779296875</ele>
        <time>2011-06-19T13:10:36Z</time>
      </trkpt>
      <trkpt lat="45.399595918133855" lon="5.710079921409488">
        <ele>368.20001220703125</ele>
        <time>2011-06-19T13:10:43Z</time>
      </trkpt>
      <trkpt lat="45.399205991998315" lon="5.709397969767451">
        <ele>368.20001220703125</ele>
        <time>2011-06-19T13:10:51Z</time>
      </trkpt>
      <trkpt lat="45.398892927914858" lon="5.708860941231251">
        <ele>369.39999389648437</ele>
        <time>2011-06-19T13:10:58Z</time>
      </trkpt>
      <trkpt lat="45.39857491850853" lon="5.708186952397227">
        <ele>370.20001220703125</ele>
        <time>2011-06-19T13:11:07Z</time>
      </trkpt>
      <trkpt lat="45.398050965741277" lon="5.707339961081743">
        <ele>370.39999389648438</ele>
        <time>2011-06-19T13:11:20Z</time>
      </trkpt>
      <trkpt lat="45.3975869435817" lon="5.706586930900812">
        <ele>371</ele>
        <time>2011-06-19T13:11:31Z</time>
      </trkpt>
      <trkpt lat="45.397260971367359" lon="5.705622928217053">
        <ele>373</ele>
        <time>2011-06-19T13:11:44Z</time>
      </trkpt>
      <trkpt lat="45.397118981927633" lon="5.704966960474849">
        <ele>376.79998779296875</ele>
        <time>2011-06-19T13:11:56Z</time>
      </trkpt>
      <trkpt lat="45.396856963634491" lon="5.704377964138985">
        <ele>380</ele>
        <time>2011-06-19T13:12:10Z</time>
      </trkpt>
      <trkpt lat="45.396910943090916" lon="5.703518986701965">
        <ele>383.20001220703125</ele>
        <time>2011-06-19T13:12:39Z</time>
      </trkpt>
      <trkpt lat="45.396522944793105" lon="5.703119924291968">
        <ele>382</ele>
        <time>2011-06-19T13:12:51Z</time>
      </trkpt>
      <trkpt lat="45.395770920440555" lon="5.703011965379119">
        <ele>379.60000610351562</ele>
        <time>2011-06-19T13:13:03Z</time>
      </trkpt>
      <trkpt lat="45.395354926586151" lon="5.702623967081308">
        <ele>378.39999389648437</ele>
        <time>2011-06-19T13:13:10Z</time>
      </trkpt>
      <trkpt lat="45.39504898712039" lon="5.702111916616559">
        <ele>377</ele>
        <time>2011-06-19T13:13:16Z</time>
      </trkpt>
      <trkpt lat="45.394681943580508" lon="5.70163993164897">
        <ele>375.20001220703125</ele>
        <time>2011-06-19T13:13:22Z</time>
      </trkpt>
      <trkpt lat="45.394159918650985" lon="5.701086977496743">
        <ele>373.79998779296875</ele>
        <time>2011-06-19T13:13:30Z</time>
      </trkpt>
      <trkpt lat="45.393739985302091" lon="5.700687998905778">
        <ele>373.60000610351562</ele>
        <time>2011-06-19T13:13:37Z</time>
      </trkpt>
      <trkpt lat="45.393142942339182" lon="5.700142923742533">
        <ele>373.39999389648438</ele>
        <time>2011-06-19T13:13:48Z</time>
      </trkpt>
      <trkpt lat="45.39232193492353" lon="5.699419984593988">
        <ele>370.39999389648438</ele>
        <time>2011-06-19T13:14:00Z</time>
      </trkpt>
      <trkpt lat="45.391968972980976" lon="5.699014971032739">
        <ele>370.20001220703125</ele>
        <time>2011-06-19T13:14:06Z</time>
      </trkpt>
      <trkpt lat="45.391597989946604" lon="5.698392949998379">
        <ele>370.39999389648438</ele>
        <time>2011-06-19T13:14:14Z</time>
      </trkpt>
      <trkpt lat="45.391296995803714" lon="5.697586946189404">
        <ele>373</ele>
        <time>2011-06-19T13:14:26Z</time>
      </trkpt>
      <trkpt lat="45.39111896418035" lon="5.696766944602132">
        <ele>372.79998779296875</ele>
        <time>2011-06-19T13:14:38Z</time>
      </trkpt>
      <trkpt lat="45.390571961179376" lon="5.695721972733736">
        <ele>373.79998779296875</ele>
        <time>2011-06-19T13:14:54Z</time>
      </trkpt>
      <trkpt lat="45.390345985069871" lon="5.695093916729093">
        <ele>374.79998779296875</ele>
        <time>2011-06-19T13:15:03Z</time>
      </trkpt>
      <trkpt lat="45.38995698094368" lon="5.69465696811676">
        <ele>376.20001220703125</ele>
        <time>2011-06-19T13:15:13Z</time>
      </trkpt>
      <trkpt lat="45.389580968767405" lon="5.694308951497078">
        <ele>378</ele>
        <time>2011-06-19T13:15:23Z</time>
      </trkpt>
      <trkpt lat="45.389246949926019" lon="5.693744933232665">
        <ele>378.60000610351562</ele>
        <time>2011-06-19T13:15:34Z</time>
      </trkpt>
      <trkpt lat="45.38854094222188" lon="5.693327933549881">
        <ele>381.39999389648437</ele>
        <time>2011-06-19T13:15:51Z</time>
      </trkpt>
      <trkpt lat="45.388162918388844" lon="5.69278696551919">
        <ele>381.39999389648437</ele>
        <time>2011-06-19T13:16:03Z</time>
      </trkpt>
      <trkpt lat="45.387554978951812" lon="5.692483959719539">
        <ele>379.60000610351562</ele>
        <time>2011-06-19T13:16:14Z</time>
      </trkpt>
      <trkpt lat="45.387011999264359" lon="5.692143989726901">
        <ele>378.39999389648437</ele>
        <time>2011-06-19T13:16:23Z</time>
      </trkpt>
      <trkpt lat="45.38639098405838" lon="5.691452985629439">
        <ele>379.39999389648437</ele>
        <time>2011-06-19T13:16:37Z</time>
      </trkpt>
      <trkpt lat="45.385723952203989" lon="5.691302949562669">
        <ele>378.39999389648437</ele>
        <time>2011-06-19T13:16:51Z</time>
      </trkpt>
      <trkpt lat="45.385156916454434" lon="5.691341925412417">
        <ele>375.39999389648437</ele>
        <time>2011-06-19T13:17:00Z</time>
      </trkpt>
      <trkpt lat="45.384503966197371" lon="5.690543968230486">
        <ele>370.60000610351562</ele>
        <time>2011-06-19T13:17:14Z</time>
      </trkpt>
      <trkpt lat="45.383905917406082" lon="5.689877942204475">
        <ele>370.79998779296875</ele>
        <time>2011-06-19T13:17:27Z</time>
      </trkpt>
      <trkpt lat="45.383137967437506" lon="5.689352983608842">
        <ele>370.60000610351562</ele>
        <time>2011-06-19T13:17:42Z</time>
      </trkpt>
      <trkpt lat="45.3825459536165" lon="5.688785947859287">
        <ele>370.60000610351562</ele>
        <time>2011-06-19T13:17:55Z</time>
      </trkpt>
      <trkpt lat="45.382176982238889" lon="5.688110953196883">
        <ele>370.39999389648438</ele>
        <time>2011-06-19T13:18:07Z</time>
      </trkpt>
      <trkpt lat="45.381907923147082" lon="5.687419949099422">
        <ele>369.79998779296875</ele>
        <time>2011-06-19T13:18:15Z</time>
      </trkpt>
      <trkpt lat="45.381719917058945" lon="5.68683598190546">
        <ele>369.60000610351562</ele>
        <time>2011-06-19T13:18:21Z</time>
      </trkpt>
      <trkpt lat="45.381488995626569" lon="5.686074988916516">
        <ele>369.39999389648437</ele>
        <time>2011-06-19T13:18:29Z</time>
      </trkpt>
      <trkpt lat="45.380779970437288" lon="5.685510970652103">
        <ele>370</ele>
        <time>2011-06-19T13:18:40Z</time>
      </trkpt>
      <trkpt lat="45.380261968821287" lon="5.68479691632092">
        <ele>372.39999389648437</ele>
        <time>2011-06-19T13:18:53Z</time>
      </trkpt>
      <trkpt lat="45.379820996895432" lon="5.684260977432132">
        <ele>375.60000610351562</ele>
        <time>2011-06-19T13:19:07Z</time>
      </trkpt>
      <trkpt lat="45.379456970840693" lon="5.683883959427476">
        <ele>379.39999389648437</ele>
        <time>2011-06-19T13:19:22Z</time>
      </trkpt>
      <trkpt lat="45.379100991412997" lon="5.683278953656554">
        <ele>385.20001220703125</ele>
        <time>2011-06-19T13:19:45Z</time>
      </trkpt>
      <trkpt lat="45.378696983680129" lon="5.68286195397377">
        <ele>390.20001220703125</ele>
        <time>2011-06-19T13:20:09Z</time>
      </trkpt>
      <trkpt lat="45.37822499871254" lon="5.682534975931048">
        <ele>395.20001220703125</ele>
        <time>2011-06-19T13:20:35Z</time>
      </trkpt>
      <trkpt lat="45.377675984054804" lon="5.682145971804857">
        <ele>400.60000610351562</ele>
        <time>2011-06-19T13:21:02Z</time>
      </trkpt>
      <trkpt lat="45.377241969108582" lon="5.681588994339109">
        <ele>406</ele>
        <time>2011-06-19T13:21:27Z</time>
      </trkpt>
      <trkpt lat="45.376913985237479" lon="5.680913999676704">
        <ele>412</ele>
        <time>2011-06-19T13:25:07Z</time>
      </trkpt>
      <trkpt lat="45.376518946141005" lon="5.68024093285203">
        <ele>417.39999389648437</ele>
        <time>2011-06-19T13:25:29Z</time>
      </trkpt>
      <trkpt lat="45.376162966713309" lon="5.679720919579268">
        <ele>422.20001220703125</ele>
        <time>2011-06-19T13:25:51Z</time>
      </trkpt>
      <trkpt lat="45.375692993402481" lon="5.679757967591286">
        <ele>417.60000610351562</ele>
        <time>2011-06-19T13:26:03Z</time>
      </trkpt>
      <trkpt lat="45.375785948708653" lon="5.680435979738832">
        <ele>410.79998779296875</ele>
        <time>2011-06-19T13:26:12Z</time>
      </trkpt>
      <trkpt lat="45.375953922048211" lon="5.681428983807564">
        <ele>401</ele>
        <time>2011-06-19T13:26:22Z</time>
      </trkpt>
      <trkpt lat="45.376453986391425" lon="5.681998953223229">
        <ele>395.20001220703125</ele>
        <time>2011-06-19T13:26:30Z</time>
      </trkpt>
      <trkpt lat="45.376244941726327" lon="5.682413941249251">
        <ele>388.60000610351562</ele>
        <time>2011-06-19T13:26:41Z</time>
      </trkpt>
      <trkpt lat="45.375676983967423" lon="5.682132979854941">
        <ele>383.79998779296875</ele>
        <time>2011-06-19T13:26:48Z</time>
      </trkpt>
      <trkpt lat="45.375187983736396" lon="5.68206793628633">
        <ele>379.60000610351562</ele>
        <time>2011-06-19T13:26:53Z</time>
      </trkpt>
      <trkpt lat="45.374723961576819" lon="5.681805917993188">
        <ele>378</ele>
        <time>2011-06-19T13:26:58Z</time>
      </trkpt>
      <trkpt lat="45.374318948015571" lon="5.681242989376187">
        <ele>377</ele>
        <time>2011-06-19T13:27:07Z</time>
      </trkpt>
      <trkpt lat="45.373833971098065" lon="5.68060596473515">
        <ele>377.79998779296875</ele>
        <time>2011-06-19T13:27:18Z</time>
      </trkpt>
      <trkpt lat="45.373333990573883" lon="5.680021997541189">
        <ele>378.79998779296875</ele>
        <time>2011-06-19T13:27:30Z</time>
      </trkpt>
      <trkpt lat="45.372850941494107" lon="5.679644979536533">
        <ele>379.60000610351562</ele>
        <time>2011-06-19T13:27:41Z</time>
      </trkpt>
      <trkpt lat="45.372388930991292" lon="5.679762996733189">
        <ele>380.39999389648437</ele>
        <time>2011-06-19T13:27:51Z</time>
      </trkpt>
      <trkpt lat="45.371949970722198" lon="5.679980926215649">
        <ele>381</ele>
        <time>2011-06-19T13:28:01Z</time>
      </trkpt>
      <trkpt lat="45.371313951909542" lon="5.679966928437352">
        <ele>383.20001220703125</ele>
        <time>2011-06-19T13:28:16Z</time>
      </trkpt>
      <trkpt lat="45.370743982493877" lon="5.679838936775923">
        <ele>384.20001220703125</ele>
        <time>2011-06-19T13:28:29Z</time>
      </trkpt>
      <trkpt lat="45.370097989216447" lon="5.679602986201644">
        <ele>385.39999389648437</ele>
        <time>2011-06-19T13:28:44Z</time>
      </trkpt>
      <trkpt lat="45.369576970115304" lon="5.679306937381625">
        <ele>387.20001220703125</ele>
        <time>2011-06-19T13:28:57Z</time>
      </trkpt>
      <trkpt lat="45.368961989879608" lon="5.679277935996652">
        <ele>389.20001220703125</ele>
        <time>2011-06-19T13:29:12Z</time>
      </trkpt>
      <trkpt lat="45.368420938029885" lon="5.679049948230386">
        <ele>391.20001220703125</ele>
        <time>2011-06-19T13:29:26Z</time>
      </trkpt>
      <trkpt lat="45.367699926719069" lon="5.678645940497518">
        <ele>392</ele>
        <time>2011-06-19T13:29:42Z</time>
      </trkpt>
      <trkpt lat="45.366990985348821" lon="5.678200945258141">
        <ele>394</ele>
        <time>2011-06-19T13:30:00Z</time>
      </trkpt>
      <trkpt lat="45.36639092490077" lon="5.678135985508561">
        <ele>395.20001220703125</ele>
        <time>2011-06-19T13:30:14Z</time>
      </trkpt>
      <trkpt lat="45.365925980731845" lon="5.678079994395375">
        <ele>396.20001220703125</ele>
        <time>2011-06-19T13:30:25Z</time>
      </trkpt>
      <trkpt lat="45.365283926948905" lon="5.677781933918595">
        <ele>397.39999389648437</ele>
        <time>2011-06-19T13:30:41Z</time>
      </trkpt>
      <trkpt lat="45.364830968901515" lon="5.67718698643148">
        <ele>399.79998779296875</ele>
        <time>2011-06-19T13:30:56Z</time>
      </trkpt>
      <trkpt lat="45.364364935085177" lon="5.676877945661545">
        <ele>401</ele>
        <time>2011-06-19T13:31:09Z</time>
      </trkpt>
      <trkpt lat="45.36385296843946" lon="5.676429932937026">
        <ele>403.20001220703125</ele>
        <time>2011-06-19T13:31:24Z</time>
      </trkpt>
      <trkpt lat="45.363558931276202" lon="5.676664961501956">
        <ele>404.60000610351562</ele>
        <time>2011-06-19T13:32:19Z</time>
      </trkpt>
      <trkpt lat="45.363154923543334" lon="5.678076976910234">
        <ele>403.79998779296875</ele>
        <time>2011-06-19T13:32:35Z</time>
      </trkpt>
      <trkpt lat="45.362969934940338" lon="5.678698997944593">
        <ele>404.60000610351562</ele>
        <time>2011-06-19T13:32:43Z</time>
      </trkpt>
      <trkpt lat="45.362700959667563" lon="5.678901923820376">
        <ele>404.60000610351562</ele>
        <time>2011-06-19T13:32:54Z</time>
      </trkpt>
      <trkpt lat="45.362148927524686" lon="5.678475955501199">
        <ele>406.79998779296875</ele>
        <time>2011-06-19T13:33:07Z</time>
      </trkpt>
      <trkpt lat="45.361539982259274" lon="5.677962983027101">
        <ele>408.20001220703125</ele>
        <time>2011-06-19T13:33:20Z</time>
      </trkpt>
      <trkpt lat="45.361205963417888" lon="5.677460990846157">
        <ele>409.39999389648437</ele>
        <time>2011-06-19T13:33:29Z</time>
      </trkpt>
      <trkpt lat="45.360850989818573" lon="5.677023958414793">
        <ele>411</ele>
        <time>2011-06-19T13:33:38Z</time>
      </trkpt>
      <trkpt lat="45.359904924407601" lon="5.67643697373569">
        <ele>412.79998779296875</ele>
        <time>2011-06-19T13:33:58Z</time>
      </trkpt>
      <trkpt lat="45.359345935285091" lon="5.676080994307995">
        <ele>414</ele>
        <time>2011-06-19T13:34:10Z</time>
      </trkpt>
      <trkpt lat="45.358924996107817" lon="5.675762984901667">
        <ele>415.60000610351562</ele>
        <time>2011-06-19T13:34:20Z</time>
      </trkpt>
      <trkpt lat="45.358142964541912" lon="5.675382949411869">
        <ele>419</ele>
        <time>2011-06-19T13:34:39Z</time>
      </trkpt>
      <trkpt lat="45.357518931850791" lon="5.674918927252293">
        <ele>422.39999389648437</ele>
        <time>2011-06-19T13:34:57Z</time>
      </trkpt>
      <trkpt lat="45.356905963271856" lon="5.674314927309752">
        <ele>425.39999389648437</ele>
        <time>2011-06-19T13:35:17Z</time>
      </trkpt>
      <trkpt lat="45.35618495196104" lon="5.673699947074056">
        <ele>428.20001220703125</ele>
        <time>2011-06-19T13:35:38Z</time>
      </trkpt>
      <trkpt lat="45.355497971177101" lon="5.673215975984931">
        <ele>431.39999389648437</ele>
        <time>2011-06-19T13:35:58Z</time>
      </trkpt>
      <trkpt lat="45.354907969012856" lon="5.672762934118509">
        <ele>434.20001220703125</ele>
        <time>2011-06-19T13:36:16Z</time>
      </trkpt>
      <trkpt lat="45.35420891828835" lon="5.672354986891151">
        <ele>437.60000610351562</ele>
        <time>2011-06-19T13:36:37Z</time>
      </trkpt>
      <trkpt lat="45.35360399633646" lon="5.672191958874464">
        <ele>440.20001220703125</ele>
        <time>2011-06-19T13:36:55Z</time>
      </trkpt>
      <trkpt lat="45.3529819753021" lon="5.672126999124885">
        <ele>441.60000610351562</ele>
        <time>2011-06-19T13:37:11Z</time>
      </trkpt>
      <trkpt lat="45.352303963154554" lon="5.671920971944928">
        <ele>443</ele>
        <time>2011-06-19T13:37:26Z</time>
      </trkpt>
      <trkpt lat="45.3515659365803" lon="5.671337926760316">
        <ele>446.20001220703125</ele>
        <time>2011-06-19T13:37:46Z</time>
      </trkpt>
      <trkpt lat="45.350990938022733" lon="5.670810956507921">
        <ele>449.20001220703125</ele>
        <time>2011-06-19T13:38:05Z</time>
      </trkpt>
      <trkpt lat="45.350485928356647" lon="5.670098997652531">
        <ele>452.39999389648437</ele>
        <time>2011-06-19T13:38:24Z</time>
      </trkpt>
      <trkpt lat="45.350119974464178" lon="5.669378992170095">
        <ele>455.60000610351562</ele>
        <time>2011-06-19T13:38:42Z</time>
      </trkpt>
      <trkpt lat="45.349632985889912" lon="5.668838946148753">
        <ele>458.60000610351562</ele>
        <time>2011-06-19T13:39:00Z</time>
      </trkpt>
      <trkpt lat="45.348912980407476" lon="5.668430998921394">
        <ele>462.20001220703125</ele>
        <time>2011-06-19T13:39:22Z</time>
      </trkpt>
      <trkpt lat="45.348287941887975" lon="5.668277945369482">
        <ele>464.39999389648438</ele>
        <time>2011-06-19T13:39:40Z</time>
      </trkpt>
      <trkpt lat="45.347468946129084" lon="5.668135955929756">
        <ele>466.60000610351562</ele>
        <time>2011-06-19T13:40:01Z</time>
      </trkpt>
      <trkpt lat="45.346612986177206" lon="5.667726919054985">
        <ele>468</ele>
        <time>2011-06-19T13:40:18Z</time>
      </trkpt>
      <trkpt lat="45.345818968489766" lon="5.667612925171852">
        <ele>470.39999389648437</ele>
        <time>2011-06-19T13:40:33Z</time>
      </trkpt>
      <trkpt lat="45.345196947455406" lon="5.667407987639308">
        <ele>474</ele>
        <time>2011-06-19T13:40:48Z</time>
      </trkpt>
      <trkpt lat="45.344455987215042" lon="5.666958969086409">
        <ele>478.20001220703125</ele>
        <time>2011-06-19T13:41:11Z</time>
      </trkpt>
      <trkpt lat="45.34397997893393" lon="5.666674990206957">
        <ele>481.39999389648438</ele>
        <time>2011-06-19T13:41:29Z</time>
      </trkpt>
      <trkpt lat="45.3434669226408" lon="5.666362931951881">
        <ele>484.60000610351562</ele>
        <time>2011-06-19T13:41:49Z</time>
      </trkpt>
      <trkpt lat="45.342997955158353" lon="5.665959930047393">
        <ele>488.20001220703125</ele>
        <time>2011-06-19T13:42:09Z</time>
      </trkpt>
      <trkpt lat="45.342609956860542" lon="5.665606968104839">
        <ele>491.39999389648437</ele>
        <time>2011-06-19T13:43:26Z</time>
      </trkpt>
      <trkpt lat="45.342395966872573" lon="5.665233973413706">
        <ele>493.39999389648437</ele>
        <time>2011-06-19T13:46:32Z</time>
      </trkpt>
      <trkpt lat="45.341775957494974" lon="5.664767939597368">
        <ele>497.20001220703125</ele>
        <time>2011-06-19T13:46:51Z</time>
      </trkpt>
      <trkpt lat="45.341262985020876" lon="5.664377929642797">
        <ele>500</ele>
        <time>2011-06-19T13:47:08Z</time>
      </trkpt>
      <trkpt lat="45.340793933719397" lon="5.66393293440342">
        <ele>503.20001220703125</ele>
        <time>2011-06-19T13:47:24Z</time>
      </trkpt>
      <trkpt lat="45.340244919061661" lon="5.663591958582401">
        <ele>506.60000610351562</ele>
        <time>2011-06-19T13:47:43Z</time>
      </trkpt>
      <trkpt lat="45.339846946299076" lon="5.663217958062887">
        <ele>508.79998779296875</ele>
        <time>2011-06-19T13:47:57Z</time>
      </trkpt>
      <trkpt lat="45.339270941913128" lon="5.662671960890293">
        <ele>511.60000610351562</ele>
        <time>2011-06-19T13:48:17Z</time>
      </trkpt>
      <trkpt lat="45.338789988309145" lon="5.662248926237226">
        <ele>514.5999755859375</ele>
        <time>2011-06-19T13:48:34Z</time>
      </trkpt>
      <trkpt lat="45.338211972266436" lon="5.661819940432906">
        <ele>518.20001220703125</ele>
        <time>2011-06-19T13:48:55Z</time>
      </trkpt>
      <trkpt lat="45.337592968717217" lon="5.661603938788176">
        <ele>521.5999755859375</ele>
        <time>2011-06-19T13:49:15Z</time>
      </trkpt>
      <trkpt lat="45.337216956540942" lon="5.66105299629271">
        <ele>524.20001220703125</ele>
        <time>2011-06-19T13:49:31Z</time>
      </trkpt>
      <trkpt lat="45.336827952414751" lon="5.660417983308435">
        <ele>527.20001220703125</ele>
        <time>2011-06-19T13:49:48Z</time>
      </trkpt>
      <trkpt lat="45.336460992693901" lon="5.659942980855703">
        <ele>529.79998779296875</ele>
        <time>2011-06-19T13:50:05Z</time>
      </trkpt>
      <trkpt lat="45.335952965542674" lon="5.659653972834349">
        <ele>532.20001220703125</ele>
        <time>2011-06-19T13:50:21Z</time>
      </trkpt>
      <trkpt lat="45.335218962281942" lon="5.659396983683109">
        <ele>535.79998779296875</ele>
        <time>2011-06-19T13:50:41Z</time>
      </trkpt>
      <trkpt lat="45.334580931812525" lon="5.659212917089462">
        <ele>538.20001220703125</ele>
        <time>2011-06-19T13:50:59Z</time>
      </trkpt>
      <trkpt lat="45.333906942978501" lon="5.659169917926192">
        <ele>541.20001220703125</ele>
        <time>2011-06-19T13:51:19Z</time>
      </trkpt>
      <trkpt lat="45.333203952759504" lon="5.659077968448401">
        <ele>544.5999755859375</ele>
        <time>2011-06-19T13:51:41Z</time>
      </trkpt>
      <trkpt lat="45.332476990297437" lon="5.658779991790652">
        <ele>547</ele>
        <time>2011-06-19T13:52:02Z</time>
      </trkpt>
      <trkpt lat="45.33199293538928" lon="5.658558961004019">
        <ele>549.20001220703125</ele>
        <time>2011-06-19T13:52:16Z</time>
      </trkpt>
      <trkpt lat="45.331306960433722" lon="5.658423928543925">
        <ele>551.5999755859375</ele>
        <time>2011-06-19T13:52:36Z</time>
      </trkpt>
      <trkpt lat="45.330481929704547" lon="5.658202981576324">
        <ele>551.79998779296875</ele>
        <time>2011-06-19T13:52:52Z</time>
      </trkpt>
      <trkpt lat="45.329995946958661" lon="5.658154953271151">
        <ele>552.20001220703125</ele>
        <time>2011-06-19T13:53:02Z</time>
      </trkpt>
      <trkpt lat="45.329536953940988" lon="5.658274982124567">
        <ele>552</ele>
        <time>2011-06-19T13:53:11Z</time>
      </trkpt>
      <trkpt lat="45.329050971195102" lon="5.657819928601384">
        <ele>549</ele>
        <time>2011-06-19T13:53:22Z</time>
      </trkpt>
      <trkpt lat="45.328546967357397" lon="5.657410975545645">
        <ele>545</ele>
        <time>2011-06-19T13:54:10Z</time>
      </trkpt>
      <trkpt lat="45.327904997393489" lon="5.656944941729307">
        <ele>541.20001220703125</ele>
        <time>2011-06-19T13:54:17Z</time>
      </trkpt>
      <trkpt lat="45.327314995229244" lon="5.656764982268214">
        <ele>537.20001220703125</ele>
        <time>2011-06-19T13:54:22Z</time>
      </trkpt>
      <trkpt lat="45.326498933136463" lon="5.656681917607784">
        <ele>532</ele>
        <time>2011-06-19T13:54:28Z</time>
      </trkpt>
      <trkpt lat="45.325774988159537" lon="5.656372960656881">
        <ele>526.79998779296875</ele>
        <time>2011-06-19T13:54:33Z</time>
      </trkpt>
      <trkpt lat="45.324872927740216" lon="5.655913967639208">
        <ele>519</ele>
        <time>2011-06-19T13:54:39Z</time>
      </trkpt>
      <trkpt lat="45.324432961642742" lon="5.6555759254843">
        <ele>516</ele>
        <time>2011-06-19T13:54:42Z</time>
      </trkpt>
      <trkpt lat="45.32389392144978" lon="5.655214916914702">
        <ele>510.60000610351562</ele>
        <time>2011-06-19T13:54:46Z</time>
      </trkpt>
      <trkpt lat="45.323409950360656" lon="5.65473698079586">
        <ele>505</ele>
        <time>2011-06-19T13:54:50Z</time>
      </trkpt>
      <trkpt lat="45.322893960401416" lon="5.654283938929439">
        <ele>501.60000610351562</ele>
        <time>2011-06-19T13:54:54Z</time>
      </trkpt>
      <trkpt lat="45.322186946868896" lon="5.653874985873699">
        <ele>496.20001220703125</ele>
        <time>2011-06-19T13:54:59Z</time>
      </trkpt>
      <trkpt lat="45.321417991071939" lon="5.653665941208601">
        <ele>490</ele>
        <time>2011-06-19T13:55:04Z</time>
      </trkpt>
      <trkpt lat="45.32047594897449" lon="5.653451951220632">
        <ele>482.20001220703125</ele>
        <time>2011-06-19T13:55:10Z</time>
      </trkpt>
      <trkpt lat="45.31957196071744" lon="5.653101922944188">
        <ele>475.39999389648437</ele>
        <time>2011-06-19T13:55:16Z</time>
      </trkpt>
      <trkpt lat="45.318865953013301" lon="5.652869995683432">
        <ele>471.39999389648437</ele>
        <time>2011-06-19T13:55:21Z</time>
      </trkpt>
      <trkpt lat="45.31806799583137" lon="5.652655921876431">
        <ele>467.79998779296875</ele>
        <time>2011-06-19T13:55:27Z</time>
      </trkpt>
      <trkpt lat="45.317460978403687" lon="5.652293991297483">
        <ele>466.20001220703125</ele>
        <time>2011-06-19T13:55:32Z</time>
      </trkpt>
      <trkpt lat="45.316772991791368" lon="5.651826951652765">
        <ele>463.60000610351562</ele>
        <time>2011-06-19T13:55:38Z</time>
      </trkpt>
      <trkpt lat="45.316069917753339" lon="5.651394948363304">
        <ele>461</ele>
        <time>2011-06-19T13:55:44Z</time>
      </trkpt>
      <trkpt lat="45.315610924735665" lon="5.651102922856808">
        <ele>459</ele>
        <time>2011-06-19T13:55:48Z</time>
      </trkpt>
      <trkpt lat="45.314944982528687" lon="5.650624986737967">
        <ele>456.39999389648437</ele>
        <time>2011-06-19T13:55:54Z</time>
      </trkpt>
      <trkpt lat="45.314283985644579" lon="5.650158952921629">
        <ele>454.39999389648437</ele>
        <time>2011-06-19T13:56:00Z</time>
      </trkpt>
      <trkpt lat="45.313948960974813" lon="5.649701971560717">
        <ele>453.39999389648437</ele>
        <time>2011-06-19T13:56:04Z</time>
      </trkpt>
      <trkpt lat="45.313551994040608" lon="5.648911977186799">
        <ele>452.39999389648437</ele>
        <time>2011-06-19T13:56:10Z</time>
      </trkpt>
      <trkpt lat="45.312989987432957" lon="5.648280987516046">
        <ele>450.60000610351562</ele>
        <time>2011-06-19T13:56:17Z</time>
      </trkpt>
      <trkpt lat="45.31241599470377" lon="5.648058950901032">
        <ele>450</ele>
        <time>2011-06-19T13:56:23Z</time>
      </trkpt>
      <trkpt lat="45.311847953125834" lon="5.647658966481686">
        <ele>448.20001220703125</ele>
        <time>2011-06-19T13:56:29Z</time>
      </trkpt>
      <trkpt lat="45.311144962906837" lon="5.64668096601963">
        <ele>443.20001220703125</ele>
        <time>2011-06-19T13:56:37Z</time>
      </trkpt>
      <trkpt lat="45.3105079382658" lon="5.645390991121531">
        <ele>437.39999389648437</ele>
        <time>2011-06-19T13:56:45Z</time>
      </trkpt>
      <trkpt lat="45.310279950499535" lon="5.644609965384007">
        <ele>432.39999389648437</ele>
        <time>2011-06-19T13:56:49Z</time>
      </trkpt>
      <trkpt lat="45.309997983276844" lon="5.643744952976704">
        <ele>426.39999389648437</ele>
        <time>2011-06-19T13:56:54Z</time>
      </trkpt>
      <trkpt lat="45.309458943083882" lon="5.643335999920964">
        <ele>420.20001220703125</ele>
        <time>2011-06-19T13:56:59Z</time>
      </trkpt>
      <trkpt lat="45.309144956991076" lon="5.642365962266922">
        <ele>412.60000610351562</ele>
        <time>2011-06-19T13:57:05Z</time>
      </trkpt>
      <trkpt lat="45.309673938900232" lon="5.64126399345696">
        <ele>404.60000610351562</ele>
        <time>2011-06-19T13:57:12Z</time>
      </trkpt>
      <trkpt lat="45.309802936390042" lon="5.640566954389215">
        <ele>399.79998779296875</ele>
        <time>2011-06-19T13:57:17Z</time>
      </trkpt>
      <trkpt lat="45.309429941698909" lon="5.639937976375222">
        <ele>395</ele>
        <time>2011-06-19T13:57:22Z</time>
      </trkpt>
      <trkpt lat="45.308698955923319" lon="5.638982942327857">
        <ele>385.20001220703125</ele>
        <time>2011-06-19T13:57:29Z</time>
      </trkpt>
      <trkpt lat="45.308143990114331" lon="5.638147937133908">
        <ele>379</ele>
        <time>2011-06-19T13:57:34Z</time>
      </trkpt>
      <trkpt lat="45.307553987950087" lon="5.637370934709907">
        <ele>371.79998779296875</ele>
        <time>2011-06-19T13:57:39Z</time>
      </trkpt>
      <trkpt lat="45.306693920865655" lon="5.636937925592065">
        <ele>363.39999389648437</ele>
        <time>2011-06-19T13:57:45Z</time>
      </trkpt>
      <trkpt lat="45.30620894394815" lon="5.636308947578073">
        <ele>354.39999389648437</ele>
        <time>2011-06-19T13:57:51Z</time>
      </trkpt>
      <trkpt lat="45.305359940975904" lon="5.636072997003794">
        <ele>346.20001220703125</ele>
        <time>2011-06-19T13:57:59Z</time>
      </trkpt>
      <trkpt lat="45.304750995710492" lon="5.635946933180094">
        <ele>341.20001220703125</ele>
        <time>2011-06-19T13:58:04Z</time>
      </trkpt>
      <trkpt lat="45.304151941090822" lon="5.635780971497297">
        <ele>334.20001220703125</ele>
        <time>2011-06-19T13:58:09Z</time>
      </trkpt>
      <trkpt lat="45.30354299582541" lon="5.635285936295986">
        <ele>327.60000610351562</ele>
        <time>2011-06-19T13:58:15Z</time>
      </trkpt>
      <trkpt lat="45.302739925682545" lon="5.635343939065933">
        <ele>321.60000610351562</ele>
        <time>2011-06-19T13:58:21Z</time>
      </trkpt>
      <trkpt lat="45.302127962931991" lon="5.635231956839562">
        <ele>316.39999389648438</ele>
        <time>2011-06-19T13:58:25Z</time>
      </trkpt>
      <trkpt lat="45.301382979378104" lon="5.635037999600172">
        <ele>308.39999389648437</ele>
        <time>2011-06-19T13:58:30Z</time>
      </trkpt>
      <trkpt lat="45.300926920026541" lon="5.634789979085326">
        <ele>302</ele>
        <time>2011-06-19T13:58:35Z</time>
      </trkpt>
      <trkpt lat="45.300741931423545" lon="5.635051997378469">
        <ele>299.60000610351562</ele>
        <time>2011-06-19T13:58:43Z</time>
      </trkpt>
      <trkpt lat="45.301412986591458" lon="5.635447958484292">
        <ele>297.39999389648437</ele>
        <time>2011-06-19T13:58:52Z</time>
      </trkpt>
      <trkpt lat="45.301915984600782" lon="5.635883985087276">
        <ele>295.39999389648437</ele>
        <time>2011-06-19T13:58:58Z</time>
      </trkpt>
      <trkpt lat="45.302397944033146" lon="5.63610996119678">
        <ele>292.20001220703125</ele>
        <time>2011-06-19T13:59:03Z</time>
      </trkpt>
      <trkpt lat="45.302839921787381" lon="5.636397963389754">
        <ele>287.39999389648437</ele>
        <time>2011-06-19T13:59:08Z</time>
      </trkpt>
      <trkpt lat="45.302985934540629" lon="5.637036999687553">
        <ele>284</ele>
        <time>2011-06-19T13:59:12Z</time>
      </trkpt>
      <trkpt lat="45.303224986419082" lon="5.63772096298635">
        <ele>280</ele>
        <time>2011-06-19T13:59:17Z</time>
      </trkpt>
      <trkpt lat="45.303269997239113" lon="5.638595949858427">
        <ele>277</ele>
        <time>2011-06-19T13:59:23Z</time>
      </trkpt>
      <trkpt lat="45.303648943081498" lon="5.638911947607994">
        <ele>272.79998779296875</ele>
        <time>2011-06-19T13:59:29Z</time>
      </trkpt>
      <trkpt lat="45.303188944235444" lon="5.638842964544892">
        <ele>265.60000610351562</ele>
        <time>2011-06-19T13:59:37Z</time>
      </trkpt>
      <trkpt lat="45.302458964288235" lon="5.638484973460436">
        <ele>260.60000610351562</ele>
        <time>2011-06-19T13:59:44Z</time>
      </trkpt>
      <trkpt lat="45.301715992391109" lon="5.638225972652435">
        <ele>255</ele>
        <time>2011-06-19T13:59:50Z</time>
      </trkpt>
      <trkpt lat="45.301015935838223" lon="5.638101920485497">
        <ele>250.39999389648437</ele>
        <time>2011-06-19T13:59:55Z</time>
      </trkpt>
      <trkpt lat="45.300355944782495" lon="5.637966971844435">
        <ele>243.80000305175781</ele>
        <time>2011-06-19T14:00:00Z</time>
      </trkpt>
      <trkpt lat="45.299799973145127" lon="5.638014916330576">
        <ele>240</ele>
        <time>2011-06-19T14:00:05Z</time>
      </trkpt>
      <trkpt lat="45.298985922709107" lon="5.637980969622731">
        <ele>231.19999694824219</ele>
        <time>2011-06-19T14:00:13Z</time>
      </trkpt>
      <trkpt lat="45.298575963824987" lon="5.63754796050489">
        <ele>224.39999389648437</ele>
        <time>2011-06-19T14:00:24Z</time>
      </trkpt>
      <trkpt lat="45.298200957477093" lon="5.636777998879552">
        <ele>222.39999389648437</ele>
        <time>2011-06-19T14:00:56Z</time>
      </trkpt>
      <trkpt lat="45.297770965844393" lon="5.636349935084581">
        <ele>219</ele>
        <time>2011-06-19T14:01:11Z</time>
      </trkpt>
      <trkpt lat="45.297217927873135" lon="5.635551977902651">
        <ele>214.39999389648437</ele>
        <time>2011-06-19T14:01:24Z</time>
      </trkpt>
      <trkpt lat="45.296731945127249" lon="5.635037999600172">
        <ele>210.39999389648437</ele>
        <time>2011-06-19T14:01:33Z</time>
      </trkpt>
      <trkpt lat="45.295813959091902" lon="5.634327968582511">
        <ele>205.39999389648437</ele>
        <time>2011-06-19T14:01:44Z</time>
      </trkpt>
      <trkpt lat="45.295066963881254" lon="5.633775936439633">
        <ele>200.80000305175781</ele>
        <time>2011-06-19T14:01:52Z</time>
      </trkpt>
      <trkpt lat="45.294442931190133" lon="5.633096918463707">
        <ele>195.80000305175781</ele>
        <time>2011-06-19T14:02:00Z</time>
      </trkpt>
      <trkpt lat="45.293997935950756" lon="5.632507922127843">
        <ele>192</ele>
        <time>2011-06-19T14:02:06Z</time>
      </trkpt>
      <trkpt lat="45.293383961543441" lon="5.631732931360602">
        <ele>187.80000305175781</ele>
        <time>2011-06-19T14:02:14Z</time>
      </trkpt>
      <trkpt lat="45.293024964630604" lon="5.631137983873487">
        <ele>183</ele>
        <time>2011-06-19T14:02:24Z</time>
      </trkpt>
      <trkpt lat="45.292599918320775" lon="5.630306918174028">
        <ele>182.39999389648437</ele>
        <time>2011-06-19T14:02:38Z</time>
      </trkpt>
      <trkpt lat="45.292185936123133" lon="5.630469946190715">
        <ele>178.80000305175781</ele>
        <time>2011-06-19T14:02:49Z</time>
      </trkpt>
      <trkpt lat="45.291694924235344" lon="5.630939919501543">
        <ele>177.19999694824219</ele>
        <time>2011-06-19T14:02:59Z</time>
      </trkpt>
      <trkpt lat="45.291350930929184" lon="5.631486922502518">
        <ele>176</ele>
        <time>2011-06-19T14:03:07Z</time>
      </trkpt>
      <trkpt lat="45.290967961773276" lon="5.632190918549895">
        <ele>173.60000610351562</ele>
        <time>2011-06-19T14:03:16Z</time>
      </trkpt>
      <trkpt lat="45.290592955425382" lon="5.632560979574919">
        <ele>172</ele>
        <time>2011-06-19T14:03:22Z</time>
      </trkpt>
      <trkpt lat="45.290152989327908" lon="5.632864991202951">
        <ele>172</ele>
        <time>2011-06-19T14:03:30Z</time>
      </trkpt>
      <trkpt lat="45.289684943854809" lon="5.633085938170552">
        <ele>171.60000610351562</ele>
        <time>2011-06-19T14:03:39Z</time>
      </trkpt>
      <trkpt lat="45.289248917251825" lon="5.633629923686385">
        <ele>171.19999694824219</ele>
        <time>2011-06-19T14:03:54Z</time>
      </trkpt>
      <trkpt lat="45.288666961714625" lon="5.633634952828288">
        <ele>169.80000305175781</ele>
        <time>2011-06-19T14:04:04Z</time>
      </trkpt>
      <trkpt lat="45.288230935111642" lon="5.6339399702847">
        <ele>168.60000610351562</ele>
        <time>2011-06-19T14:04:11Z</time>
      </trkpt>
      <trkpt lat="45.28779398649931" lon="5.63424096442759">
        <ele>168</ele>
        <time>2011-06-19T14:04:17Z</time>
      </trkpt>
      <trkpt lat="45.287134917452931" lon="5.6346929166466">
        <ele>166</ele>
        <time>2011-06-19T14:04:26Z</time>
      </trkpt>
      <trkpt lat="45.286513986065984" lon="5.635110922157764">
        <ele>165.19999694824219</ele>
        <time>2011-06-19T14:04:34Z</time>
      </trkpt>
      <trkpt lat="45.285574961453676" lon="5.635733949020505">
        <ele>165</ele>
        <time>2011-06-19T14:04:46Z</time>
      </trkpt>
      <trkpt lat="45.28515494428575" lon="5.63599999062717">
        <ele>164.39999389648437</ele>
        <time>2011-06-19T14:04:52Z</time>
      </trkpt>
      <trkpt lat="45.28470491990447" lon="5.636292938143015">
        <ele>164</ele>
        <time>2011-06-19T14:04:59Z</time>
      </trkpt>
      <trkpt lat="45.284203933551908" lon="5.636637937277556">
        <ele>163.80000305175781</ele>
        <time>2011-06-19T14:05:08Z</time>
      </trkpt>
      <trkpt lat="45.283801937475801" lon="5.636724941432476">
        <ele>163.19999694824219</ele>
        <time>2011-06-19T14:05:20Z</time>
      </trkpt>
      <trkpt lat="45.283503960818052" lon="5.636150948703289">
        <ele>163.19999694824219</ele>
        <time>2011-06-19T14:05:33Z</time>
      </trkpt>
      <trkpt lat="45.283213946968317" lon="5.635661948472261">
        <ele>163</ele>
        <time>2011-06-19T14:05:43Z</time>
      </trkpt>
      <trkpt lat="45.282636936753988" lon="5.634675985202193">
        <ele>162.80000305175781</ele>
        <time>2011-06-19T14:06:00Z</time>
      </trkpt>
      <trkpt lat="45.282293949276209" lon="5.634146919474006">
        <ele>163</ele>
        <time>2011-06-19T14:06:10Z</time>
      </trkpt>
      <trkpt lat="45.281674945726991" lon="5.633211918175221">
        <ele>163</ele>
        <time>2011-06-19T14:06:29Z</time>
      </trkpt>
      <trkpt lat="45.281222993507981" lon="5.632976973429322">
        <ele>163.39999389648437</ele>
        <time>2011-06-19T14:06:40Z</time>
      </trkpt>
      <trkpt lat="45.280721923336387" lon="5.632689977064729">
        <ele>163.80000305175781</ele>
        <time>2011-06-19T14:06:50Z</time>
      </trkpt>
      <trkpt lat="45.280221942812204" lon="5.632376996800304">
        <ele>163.60000610351562</ele>
        <time>2011-06-19T14:07:00Z</time>
      </trkpt>
      <trkpt lat="45.279704947024584" lon="5.632044989615679">
        <ele>164</ele>
        <time>2011-06-19T14:07:10Z</time>
      </trkpt>
      <trkpt lat="45.279102958738804" lon="5.631753969937563">
        <ele>163.39999389648437</ele>
        <time>2011-06-19T14:07:22Z</time>
      </trkpt>
      <trkpt lat="45.278624938800931" lon="5.631942981854081">
        <ele>163.80000305175781</ele>
        <time>2011-06-19T14:07:31Z</time>
      </trkpt>
      <trkpt lat="45.278036948293447" lon="5.632166946306825">
        <ele>163.39999389648437</ele>
        <time>2011-06-19T14:07:42Z</time>
      </trkpt>
      <trkpt lat="45.277496986091137" lon="5.632374985143542">
        <ele>163.39999389648437</ele>
        <time>2011-06-19T14:07:52Z</time>
      </trkpt>
      <trkpt lat="45.277010919526219" lon="5.632536923512816">
        <ele>163.39999389648437</ele>
        <time>2011-06-19T14:08:01Z</time>
      </trkpt>
      <trkpt lat="45.276444973424077" lon="5.632696934044361">
        <ele>163.39999389648437</ele>
        <time>2011-06-19T14:08:11Z</time>
      </trkpt>
      <trkpt lat="45.275830999016762" lon="5.632884940132499">
        <ele>163.19999694824219</ele>
        <time>2011-06-19T14:08:22Z</time>
      </trkpt>
      <trkpt lat="45.275279972702265" lon="5.633059954270721">
        <ele>163.19999694824219</ele>
        <time>2011-06-19T14:08:32Z</time>
      </trkpt>
      <trkpt lat="45.274756941944361" lon="5.63323094509542">
        <ele>163.39999389648437</ele>
        <time>2011-06-19T14:08:42Z</time>
      </trkpt>
      <trkpt lat="45.274212956428528" lon="5.633369917050004">
        <ele>164.19999694824219</ele>
        <time>2011-06-19T14:08:54Z</time>
      </trkpt>
      <trkpt lat="45.273668970912695" lon="5.633413922041655">
        <ele>164</ele>
        <time>2011-06-19T14:09:08Z</time>
      </trkpt>
      <trkpt lat="45.273385997861624" lon="5.632568942382932">
        <ele>164.80000305175781</ele>
        <time>2011-06-19T14:09:30Z</time>
      </trkpt>
      <trkpt lat="45.2732939645648" lon="5.631893947720528">
        <ele>165</ele>
        <time>2011-06-19T14:09:40Z</time>
      </trkpt>
      <trkpt lat="45.273199919611216" lon="5.63108392059803">
        <ele>164.80000305175781</ele>
        <time>2011-06-19T14:09:52Z</time>
      </trkpt>
      <trkpt lat="45.27310193516314" lon="5.630129976198077">
        <ele>164.60000610351562</ele>
        <time>2011-06-19T14:10:07Z</time>
      </trkpt>
      <trkpt lat="45.272909989580512" lon="5.62955497764051">
        <ele>163.60000610351562</ele>
        <time>2011-06-19T14:10:22Z</time>
      </trkpt>
      <trkpt lat="45.266945930197835" lon="5.621888972818852">
        <ele>191.19999694824219</ele>
        <time>2011-06-20T06:35:21Z</time>
      </trkpt>
      <trkpt lat="45.267357984557748" lon="5.621867934241891">
        <ele>190.60000610351562</ele>
        <time>2011-06-20T06:36:43Z</time>
      </trkpt>
      <trkpt lat="45.267709940671921" lon="5.621931971982122">
        <ele>192.19999694824219</ele>
        <time>2011-06-20T06:37:07Z</time>
      </trkpt>
      <trkpt lat="45.267376927658916" lon="5.622319970279932">
        <ele>192.80000305175781</ele>
        <time>2011-06-20T06:38:19Z</time>
      </trkpt>
      <trkpt lat="45.266966968774796" lon="5.622720960527659">
        <ele>193.19999694824219</ele>
        <time>2011-06-20T06:38:30Z</time>
      </trkpt>
      <trkpt lat="45.266530942171812" lon="5.623128991574049">
        <ele>193.19999694824219</ele>
        <time>2011-06-20T06:38:39Z</time>
      </trkpt>
      <trkpt lat="45.265846978873014" lon="5.623748917132616">
        <ele>193.19999694824219</ele>
        <time>2011-06-20T06:38:52Z</time>
      </trkpt>
      <trkpt lat="45.265104928985238" lon="5.624425923451781">
        <ele>193.19999694824219</ele>
        <time>2011-06-20T06:39:06Z</time>
      </trkpt>
      <trkpt lat="45.264618946239352" lon="5.624857926741242">
        <ele>193.19999694824219</ele>
        <time>2011-06-20T06:39:15Z</time>
      </trkpt>
      <trkpt lat="45.263934982940555" lon="5.625487994402647">
        <ele>193.39999389648437</ele>
        <time>2011-06-20T06:39:28Z</time>
      </trkpt>
      <trkpt lat="45.263540949672461" lon="5.625942964106798">
        <ele>193.39999389648437</ele>
        <time>2011-06-20T06:39:36Z</time>
      </trkpt>
      <trkpt lat="45.263163931667805" lon="5.626411931589246">
        <ele>193.39999389648437</ele>
        <time>2011-06-20T06:39:44Z</time>
      </trkpt>
      <trkpt lat="45.262800995260477" lon="5.626873942092061">
        <ele>193.39999389648437</ele>
        <time>2011-06-20T06:39:52Z</time>
      </trkpt>
      <trkpt lat="45.262234965339303" lon="5.627554971724749">
        <ele>193.39999389648437</ele>
        <time>2011-06-20T06:40:04Z</time>
      </trkpt>
      <trkpt lat="45.261780917644501" lon="5.628125946968794">
        <ele>193.39999389648437</ele>
        <time>2011-06-20T06:40:13Z</time>
      </trkpt>
      <trkpt lat="45.26115495711565" lon="5.628920970484614">
        <ele>193.39999389648437</ele>
        <time>2011-06-20T06:40:26Z</time>
      </trkpt>
      <trkpt lat="45.26076796464622" lon="5.629390943795443">
        <ele>193.60000610351562</ele>
        <time>2011-06-20T06:40:34Z</time>
      </trkpt>
      <trkpt lat="45.260325986891985" lon="5.629931995645165">
        <ele>193.60000610351562</ele>
        <time>2011-06-20T06:40:43Z</time>
      </trkpt>
      <trkpt lat="45.259731961414218" lon="5.63069592230022">
        <ele>193.80000305175781</ele>
        <time>2011-06-20T06:40:55Z</time>
      </trkpt>
      <trkpt lat="45.259079933166504" lon="5.631492957472801">
        <ele>194</ele>
        <time>2011-06-20T06:41:08Z</time>
      </trkpt>
      <trkpt lat="45.258716996759176" lon="5.631939964368939">
        <ele>193.80000305175781</ele>
        <time>2011-06-20T06:41:15Z</time>
      </trkpt>
      <trkpt lat="45.258368980139494" lon="5.632361993193626">
        <ele>194</ele>
        <time>2011-06-20T06:41:22Z</time>
      </trkpt>
      <trkpt lat="45.258027920499444" lon="5.632792990654707">
        <ele>194</ele>
        <time>2011-06-20T06:41:29Z</time>
      </trkpt>
      <trkpt lat="45.257542943581939" lon="5.6334029417485">
        <ele>194.19999694824219</ele>
        <time>2011-06-20T06:41:39Z</time>
      </trkpt>
      <trkpt lat="45.257049920037389" lon="5.634022951126099">
        <ele>194.19999694824219</ele>
        <time>2011-06-20T06:41:49Z</time>
      </trkpt>
      <trkpt lat="45.256343996152282" lon="5.634930962696672">
        <ele>194.39999389648437</ele>
        <time>2011-06-20T06:42:04Z</time>
      </trkpt>
      <trkpt lat="45.25595691986382" lon="5.635394984856248">
        <ele>194.39999389648437</ele>
        <time>2011-06-20T06:42:12Z</time>
      </trkpt>
      <trkpt lat="45.255246972665191" lon="5.63628095202148">
        <ele>194.39999389648437</ele>
        <time>2011-06-20T06:42:27Z</time>
      </trkpt>
      <trkpt lat="45.254721930250525" lon="5.637241937220097">
        <ele>194.60000610351562</ele>
        <time>2011-06-20T06:42:41Z</time>
      </trkpt>
      <trkpt lat="45.254241982474923" lon="5.638303924351931">
        <ele>194.39999389648437</ele>
        <time>2011-06-20T06:42:55Z</time>
      </trkpt>
      <trkpt lat="45.253877956420183" lon="5.639099953696132">
        <ele>194.60000610351562</ele>
        <time>2011-06-20T06:43:06Z</time>
      </trkpt>
      <trkpt lat="45.253641922026873" lon="5.639643939211965">
        <ele>194.60000610351562</ele>
        <time>2011-06-20T06:43:13Z</time>
      </trkpt>
      <trkpt lat="45.253340927883983" lon="5.640335949137807">
        <ele>194.80000305175781</ele>
        <time>2011-06-20T06:43:22Z</time>
      </trkpt>
      <trkpt lat="45.253025935962796" lon="5.640978924930096">
        <ele>194.80000305175781</ele>
        <time>2011-06-20T06:43:31Z</time>
      </trkpt>
      <trkpt lat="45.252563925459981" lon="5.641590971499682">
        <ele>194.80000305175781</ele>
        <time>2011-06-20T06:43:41Z</time>
      </trkpt>
      <trkpt lat="45.252093952149153" lon="5.642199916765094">
        <ele>195</ele>
        <time>2011-06-20T06:43:51Z</time>
      </trkpt>
      <trkpt lat="45.25163596495986" lon="5.642827972769737">
        <ele>195.19999694824219</ele>
        <time>2011-06-20T06:44:01Z</time>
      </trkpt>
      <trkpt lat="45.251080999150872" lon="5.643570944666863">
        <ele>195.39999389648437</ele>
        <time>2011-06-20T06:44:13Z</time>
      </trkpt>
      <trkpt lat="45.250525949522853" lon="5.644334955140948">
        <ele>195.39999389648437</ele>
        <time>2011-06-20T06:44:25Z</time>
      </trkpt>
      <trkpt lat="45.249993950128555" lon="5.645039957016707">
        <ele>195.39999389648437</ele>
        <time>2011-06-20T06:44:36Z</time>
      </trkpt>
      <trkpt lat="45.249655991792679" lon="5.645494926720858">
        <ele>195.39999389648437</ele>
        <time>2011-06-20T06:44:43Z</time>
      </trkpt>
      <trkpt lat="45.249268999323249" lon="5.646007983013988">
        <ele>195.39999389648437</ele>
        <time>2011-06-20T06:44:51Z</time>
      </trkpt>
      <trkpt lat="45.248895920813084" lon="5.646509975194931">
        <ele>195.39999389648437</ele>
        <time>2011-06-20T06:44:59Z</time>
      </trkpt>
      <trkpt lat="45.248345984145999" lon="5.647241966798902">
        <ele>195.60000610351562</ele>
        <time>2011-06-20T06:45:11Z</time>
      </trkpt>
      <trkpt lat="45.247822953388095" lon="5.647864993661642">
        <ele>195.80000305175781</ele>
        <time>2011-06-20T06:45:22Z</time>
      </trkpt>
      <trkpt lat="45.246900944039226" lon="5.648794965818524">
        <ele>195.80000305175781</ele>
        <time>2011-06-20T06:45:40Z</time>
      </trkpt>
      <trkpt lat="45.246408926323056" lon="5.649229986593127">
        <ele>196</ele>
        <time>2011-06-20T06:45:49Z</time>
      </trkpt>
      <trkpt lat="45.245459927245975" lon="5.649946974590421">
        <ele>196</ele>
        <time>2011-06-20T06:46:06Z</time>
      </trkpt>
      <trkpt lat="45.244960952550173" lon="5.650315945968032">
        <ele>196.19999694824219</ele>
        <time>2011-06-20T06:46:15Z</time>
      </trkpt>
      <trkpt lat="45.244555938988924" lon="5.650596991181374">
        <ele>196.19999694824219</ele>
        <time>2011-06-20T06:46:22Z</time>
      </trkpt>
      <trkpt lat="45.244067944586277" lon="5.650952970609069">
        <ele>196.19999694824219</ele>
        <time>2011-06-20T06:46:31Z</time>
      </trkpt>
      <trkpt lat="45.243588918820024" lon="5.651306938380003">
        <ele>196.19999694824219</ele>
        <time>2011-06-20T06:46:40Z</time>
      </trkpt>
      <trkpt lat="45.243099918588996" lon="5.651662917807698">
        <ele>196.39999389648437</ele>
        <time>2011-06-20T06:46:49Z</time>
      </trkpt>
      <trkpt lat="45.242661964148283" lon="5.651993919163942">
        <ele>196.39999389648437</ele>
        <time>2011-06-20T06:46:57Z</time>
      </trkpt>
      <trkpt lat="45.242221998050809" lon="5.652315951883793">
        <ele>196.39999389648437</ele>
        <time>2011-06-20T06:47:05Z</time>
      </trkpt>
      <trkpt lat="45.241791922599077" lon="5.652518961578608">
        <ele>196.60000610351562</ele>
        <time>2011-06-20T06:47:12Z</time>
      </trkpt>
      <trkpt lat="45.241228993982077" lon="5.652738986536861">
        <ele>196.60000610351562</ele>
        <time>2011-06-20T06:47:21Z</time>
      </trkpt>
      <trkpt lat="45.240735970437527" lon="5.652926992624998">
        <ele>196.60000610351562</ele>
        <time>2011-06-20T06:47:29Z</time>
      </trkpt>
      <trkpt lat="45.239867940545082" lon="5.653490927070379">
        <ele>196.39999389648437</ele>
        <time>2011-06-20T06:47:44Z</time>
      </trkpt>
      <trkpt lat="45.239467956125736" lon="5.653806924819946">
        <ele>196.19999694824219</ele>
        <time>2011-06-20T06:47:51Z</time>
      </trkpt>
      <trkpt lat="45.238735964521766" lon="5.654362980276346">
        <ele>196.39999389648437</ele>
        <time>2011-06-20T06:48:05Z</time>
      </trkpt>
      <trkpt lat="45.238117966800928" lon="5.654800934717059">
        <ele>196.39999389648437</ele>
        <time>2011-06-20T06:48:16Z</time>
      </trkpt>
      <trkpt lat="45.237436937168241" lon="5.655234949663281">
        <ele>196.60000610351562</ele>
        <time>2011-06-20T06:48:29Z</time>
      </trkpt>
      <trkpt lat="45.236954977735877" lon="5.65529496408999">
        <ele>196.39999389648437</ele>
        <time>2011-06-20T06:48:37Z</time>
      </trkpt>
      <trkpt lat="45.236148973926902" lon="5.655327988788486">
        <ele>196.60000610351562</ele>
        <time>2011-06-20T06:48:50Z</time>
      </trkpt>
      <trkpt lat="45.235494934022427" lon="5.655604926869273">
        <ele>196.39999389648437</ele>
        <time>2011-06-20T06:49:02Z</time>
      </trkpt>
      <trkpt lat="45.235177930444479" lon="5.656065931543708">
        <ele>195.39999389648437</ele>
        <time>2011-06-20T06:49:10Z</time>
      </trkpt>
      <trkpt lat="45.235281949862838" lon="5.656759953126311">
        <ele>195.19999694824219</ele>
        <time>2011-06-20T06:49:23Z</time>
      </trkpt>
      <trkpt lat="45.23492194712162" lon="5.65718399360776">
        <ele>195.39999389648437</ele>
        <time>2011-06-20T06:49:31Z</time>
      </trkpt>
      <trkpt lat="45.234454991295934" lon="5.657708952203393">
        <ele>195.80000305175781</ele>
        <time>2011-06-20T06:49:41Z</time>
      </trkpt>
      <trkpt lat="45.233757952228189" lon="5.658319992944598">
        <ele>197</ele>
        <time>2011-06-20T06:49:56Z</time>
      </trkpt>
      <trkpt lat="45.233392920345068" lon="5.658729951828718">
        <ele>199.19999694824219</ele>
        <time>2011-06-20T06:50:09Z</time>
      </trkpt>
      <trkpt lat="45.232739970088005" lon="5.659246947616339">
        <ele>199</ele>
        <time>2011-06-20T06:50:26Z</time>
      </trkpt>
      <trkpt lat="45.232092970982194" lon="5.659731924533844">
        <ele>199.19999694824219</ele>
        <time>2011-06-20T06:50:41Z</time>
      </trkpt>
      <trkpt lat="45.231691980734468" lon="5.660036941990256">
        <ele>199</ele>
        <time>2011-06-20T06:50:50Z</time>
      </trkpt>
      <trkpt lat="45.230645919218659" lon="5.660819979384542">
        <ele>199.19999694824219</ele>
        <time>2011-06-20T06:51:10Z</time>
      </trkpt>
      <trkpt lat="45.230108974501491" lon="5.661212923005223">
        <ele>199</ele>
        <time>2011-06-20T06:51:20Z</time>
      </trkpt>
      <trkpt lat="45.229655932635069" lon="5.661532944068313">
        <ele>199.19999694824219</ele>
        <time>2011-06-20T06:51:28Z</time>
      </trkpt>
      <trkpt lat="45.22907598875463" lon="5.661988919600844">
        <ele>199</ele>
        <time>2011-06-20T06:51:38Z</time>
      </trkpt>
      <trkpt lat="45.228614984080195" lon="5.662326961755753">
        <ele>199</ele>
        <time>2011-06-20T06:51:46Z</time>
      </trkpt>
      <trkpt lat="45.22791693918407" lon="5.662813950330019">
        <ele>199</ele>
        <time>2011-06-20T06:51:58Z</time>
      </trkpt>
      <trkpt lat="45.227429950609803" lon="5.663176970556378">
        <ele>199.19999694824219</ele>
        <time>2011-06-20T06:52:07Z</time>
      </trkpt>
      <trkpt lat="45.227031977847219" lon="5.663529932498932">
        <ele>199.19999694824219</ele>
        <time>2011-06-20T06:52:15Z</time>
      </trkpt>
      <trkpt lat="45.226509952917695" lon="5.663874931633472">
        <ele>199</ele>
        <time>2011-06-20T06:52:25Z</time>
      </trkpt>
      <trkpt lat="45.226033944636583" lon="5.664180954918265">
        <ele>198.80000305175781</ele>
        <time>2011-06-20T06:52:34Z</time>
      </trkpt>
      <trkpt lat="45.225520972162485" lon="5.664556967094541">
        <ele>198.60000610351562</ele>
        <time>2011-06-20T06:52:44Z</time>
      </trkpt>
      <trkpt lat="45.22493096999824" lon="5.664992993697524">
        <ele>198.60000610351562</ele>
        <time>2011-06-20T06:52:55Z</time>
      </trkpt>
      <trkpt lat="45.224471976980567" lon="5.665332963690162">
        <ele>199</ele>
        <time>2011-06-20T06:53:04Z</time>
      </trkpt>
      <trkpt lat="45.224002925679088" lon="5.665683997794986">
        <ele>198.60000610351562</ele>
        <time>2011-06-20T06:53:13Z</time>
      </trkpt>
      <trkpt lat="45.223575951531529" lon="5.665991948917508">
        <ele>198.60000610351562</ele>
        <time>2011-06-20T06:53:21Z</time>
      </trkpt>
      <trkpt lat="45.222872961312532" lon="5.666494946926832">
        <ele>198.60000610351562</ele>
        <time>2011-06-20T06:53:34Z</time>
      </trkpt>
      <trkpt lat="45.222247922793031" lon="5.666932985186577">
        <ele>198.39999389648437</ele>
        <time>2011-06-20T06:53:45Z</time>
      </trkpt>
      <trkpt lat="45.221337983384728" lon="5.667618960142136">
        <ele>198.60000610351562</ele>
        <time>2011-06-20T06:54:01Z</time>
      </trkpt>
      <trkpt lat="45.220662988722324" lon="5.668130926787853">
        <ele>198.60000610351562</ele>
        <time>2011-06-20T06:54:13Z</time>
      </trkpt>
      <trkpt lat="45.219888919964433" lon="5.66870198585093">
        <ele>198.60000610351562</ele>
        <time>2011-06-20T06:54:27Z</time>
      </trkpt>
      <trkpt lat="45.219414923340082" lon="5.6690679397434">
        <ele>198.60000610351562</ele>
        <time>2011-06-20T06:54:36Z</time>
      </trkpt>
      <trkpt lat="45.218709921464324" lon="5.669596921652556">
        <ele>198.39999389648437</ele>
        <time>2011-06-20T06:54:49Z</time>
      </trkpt>
      <trkpt lat="45.217963932082057" lon="5.670144930481911">
        <ele>198.39999389648437</ele>
        <time>2011-06-20T06:55:02Z</time>
      </trkpt>
      <trkpt lat="45.217306958511472" lon="5.670791929587722">
        <ele>198.39999389648437</ele>
        <time>2011-06-20T06:55:14Z</time>
      </trkpt>
      <trkpt lat="45.216778982430696" lon="5.671386960893869">
        <ele>198.80000305175781</ele>
        <time>2011-06-20T06:55:25Z</time>
      </trkpt>
      <trkpt lat="45.216114968061447" lon="5.672255996614695">
        <ele>198.80000305175781</ele>
        <time>2011-06-20T06:55:40Z</time>
      </trkpt>
      <trkpt lat="45.215460928156972" lon="5.673157973214984">
        <ele>199</ele>
        <time>2011-06-20T06:55:55Z</time>
      </trkpt>
      <trkpt lat="45.214939992874861" lon="5.673872949555516">
        <ele>199.19999694824219</ele>
        <time>2011-06-20T06:56:07Z</time>
      </trkpt>
      <trkpt lat="45.214320989325643" lon="5.674706948921084">
        <ele>199.19999694824219</ele>
        <time>2011-06-20T06:56:20Z</time>
      </trkpt>
      <trkpt lat="45.213990993797779" lon="5.6751689594239">
        <ele>199.19999694824219</ele>
        <time>2011-06-20T06:56:27Z</time>
      </trkpt>
      <trkpt lat="45.213663931936026" lon="5.675625940784812">
        <ele>199.19999694824219</ele>
        <time>2011-06-20T06:56:34Z</time>
      </trkpt>
      <trkpt lat="45.21302992478013" lon="5.67650293931365">
        <ele>199.39999389648437</ele>
        <time>2011-06-20T06:56:48Z</time>
      </trkpt>
      <trkpt lat="45.212675957009196" lon="5.676982970908284">
        <ele>199.39999389648437</ele>
        <time>2011-06-20T06:56:56Z</time>
      </trkpt>
      <trkpt lat="45.212269937619567" lon="5.677544977515936">
        <ele>199.39999389648437</ele>
        <time>2011-06-20T06:57:05Z</time>
      </trkpt>
      <trkpt lat="45.211702985689044" lon="5.678339917212725">
        <ele>199.60000610351562</ele>
        <time>2011-06-20T06:57:18Z</time>
      </trkpt>
      <trkpt lat="45.211132932454348" lon="5.679132929071784">
        <ele>199.60000610351562</ele>
        <time>2011-06-20T06:57:31Z</time>
      </trkpt>
      <trkpt lat="45.210692966356874" lon="5.679742963984609">
        <ele>199.80000305175781</ele>
        <time>2011-06-20T06:57:41Z</time>
      </trkpt>
      <trkpt lat="45.210338998585939" lon="5.680226935073733">
        <ele>199.80000305175781</ele>
        <time>2011-06-20T06:57:49Z</time>
      </trkpt>
      <trkpt lat="45.209935996681452" lon="5.680778967216611">
        <ele>199.80000305175781</ele>
        <time>2011-06-20T06:57:58Z</time>
      </trkpt>
      <trkpt lat="45.209300983697176" lon="5.681623946875334">
        <ele>199.80000305175781</ele>
        <time>2011-06-20T06:58:12Z</time>
      </trkpt>
      <trkpt lat="45.208738977089524" lon="5.682395920157433">
        <ele>200</ele>
        <time>2011-06-20T06:58:25Z</time>
      </trkpt>
      <trkpt lat="45.208297921344638" lon="5.683005955070257">
        <ele>199.80000305175781</ele>
        <time>2011-06-20T06:58:36Z</time>
      </trkpt>
      <trkpt lat="45.207836916670203" lon="5.683719925582409">
        <ele>198.39999389648437</ele>
        <time>2011-06-20T06:58:46Z</time>
      </trkpt>
      <trkpt lat="45.207261918112636" lon="5.684434985741973">
        <ele>200</ele>
        <time>2011-06-20T06:58:57Z</time>
      </trkpt>
      <trkpt lat="45.206657918170094" lon="5.685255993157625">
        <ele>200.60000610351562</ele>
        <time>2011-06-20T06:59:10Z</time>
      </trkpt>
      <trkpt lat="45.206311997026205" lon="5.685731917619705">
        <ele>200.80000305175781</ele>
        <time>2011-06-20T06:59:17Z</time>
      </trkpt>
      <trkpt lat="45.205774968490005" lon="5.6864919885993">
        <ele>201</ele>
        <time>2011-06-20T06:59:29Z</time>
      </trkpt>
      <trkpt lat="45.20537699572742" lon="5.687046954408288">
        <ele>201</ele>
        <time>2011-06-20T06:59:38Z</time>
      </trkpt>
      <trkpt lat="45.2048409730196" lon="5.687782969325781">
        <ele>201.39999389648437</ele>
        <time>2011-06-20T06:59:50Z</time>
      </trkpt>
      <trkpt lat="45.204374939203262" lon="5.688415970653296">
        <ele>201.60000610351562</ele>
        <time>2011-06-20T07:00:00Z</time>
      </trkpt>
      <trkpt lat="45.203998927026987" lon="5.688929948955774">
        <ele>201.60000610351562</ele>
        <time>2011-06-20T07:00:08Z</time>
      </trkpt>
      <trkpt lat="45.203544963151217" lon="5.689546940848231">
        <ele>202.19999694824219</ele>
        <time>2011-06-20T07:00:18Z</time>
      </trkpt>
      <trkpt lat="45.20310097374022" lon="5.690160999074578">
        <ele>202</ele>
        <time>2011-06-20T07:00:28Z</time>
      </trkpt>
      <trkpt lat="45.202665952965617" lon="5.690753934904933">
        <ele>202.19999694824219</ele>
        <time>2011-06-20T07:00:38Z</time>
      </trkpt>
      <trkpt lat="45.202288934960961" lon="5.691273948177695">
        <ele>202.19999694824219</ele>
        <time>2011-06-20T07:00:47Z</time>
      </trkpt>
      <trkpt lat="45.20191895775497" lon="5.6917779520154">
        <ele>202.39999389648437</ele>
        <time>2011-06-20T07:00:56Z</time>
      </trkpt>
      <trkpt lat="45.201504975557327" lon="5.692341970279813">
        <ele>202.39999389648437</ele>
        <time>2011-06-20T07:01:06Z</time>
      </trkpt>
      <trkpt lat="45.201047994196415" lon="5.692969942465425">
        <ele>202.60000610351562</ele>
        <time>2011-06-20T07:01:17Z</time>
      </trkpt>
      <trkpt lat="45.200550947338343" lon="5.693678967654705">
        <ele>202.80000305175781</ele>
        <time>2011-06-20T07:01:29Z</time>
      </trkpt>
      <trkpt lat="45.200206954032183" lon="5.69414097815752">
        <ele>203.19999694824219</ele>
        <time>2011-06-20T07:01:37Z</time>
      </trkpt>
      <trkpt lat="45.19985793158412" lon="5.694607933983207">
        <ele>203.60000610351562</ele>
        <time>2011-06-20T07:01:45Z</time>
      </trkpt>
      <trkpt lat="45.199280921369791" lon="5.695400945842266">
        <ele>203.60000610351562</ele>
        <time>2011-06-20T07:01:59Z</time>
      </trkpt>
      <trkpt lat="45.198879931122065" lon="5.695961946621537">
        <ele>204</ele>
        <time>2011-06-20T07:02:08Z</time>
      </trkpt>
      <trkpt lat="45.198366958647966" lon="5.696688992902637">
        <ele>204.19999694824219</ele>
        <time>2011-06-20T07:02:20Z</time>
      </trkpt>
      <trkpt lat="45.197980972006917" lon="5.697219986468554">
        <ele>204.39999389648437</ele>
        <time>2011-06-20T07:02:29Z</time>
      </trkpt>
      <trkpt lat="45.197565983980894" lon="5.697788950055838">
        <ele>204.80000305175781</ele>
        <time>2011-06-20T07:02:39Z</time>
      </trkpt>
      <trkpt lat="45.197127945721149" lon="5.698379958048463">
        <ele>205.39999389648437</ele>
        <time>2011-06-20T07:02:50Z</time>
      </trkpt>
      <trkpt lat="45.196748999878764" lon="5.698821935802698">
        <ele>205</ele>
        <time>2011-06-20T07:02:59Z</time>
      </trkpt>
      <trkpt lat="45.196235943585634" lon="5.699314959347248">
        <ele>205.19999694824219</ele>
        <time>2011-06-20T07:03:10Z</time>
      </trkpt>
      <trkpt lat="45.195738980546594" lon="5.699675967916846">
        <ele>205.39999389648437</ele>
        <time>2011-06-20T07:03:20Z</time>
      </trkpt>
      <trkpt lat="45.195229947566986" lon="5.699953995645046">
        <ele>205.60000610351562</ele>
        <time>2011-06-20T07:03:30Z</time>
      </trkpt>
      <trkpt lat="45.194714963436127" lon="5.700146947056055">
        <ele>205.60000610351562</ele>
        <time>2011-06-20T07:03:40Z</time>
      </trkpt>
      <trkpt lat="45.194094954058528" lon="5.70028499700129">
        <ele>205.80000305175781</ele>
        <time>2011-06-20T07:03:53Z</time>
      </trkpt>
      <trkpt lat="45.193342929705977" lon="5.700556989759207">
        <ele>205.39999389648437</ele>
        <time>2011-06-20T07:05:58Z</time>
      </trkpt>
      <trkpt lat="45.192541955038905" lon="5.700782965868712">
        <ele>203.80000305175781</ele>
        <time>2011-06-20T07:06:11Z</time>
      </trkpt>
      <trkpt lat="45.192008949816227" lon="5.700792940333486">
        <ele>203.80000305175781</ele>
        <time>2011-06-20T07:06:19Z</time>
      </trkpt>
      <trkpt lat="45.191519949585199" lon="5.700765950605273">
        <ele>203.80000305175781</ele>
        <time>2011-06-20T07:06:27Z</time>
      </trkpt>
      <trkpt lat="45.190499955788255" lon="5.700719933956862">
        <ele>204.19999694824219</ele>
        <time>2011-06-20T07:06:44Z</time>
      </trkpt>
      <trkpt lat="45.18971691839397" lon="5.700791934505105">
        <ele>203.19999694824219</ele>
        <time>2011-06-20T07:06:56Z</time>
      </trkpt>
      <trkpt lat="45.189131945371628" lon="5.700797969475389">
        <ele>204.60000610351562</ele>
        <time>2011-06-20T07:07:05Z</time>
      </trkpt>
      <trkpt lat="45.188463991507888" lon="5.700723957270384">
        <ele>204.80000305175781</ele>
        <time>2011-06-20T07:07:16Z</time>
      </trkpt>
      <trkpt lat="45.187828978523612" lon="5.700648939236999">
        <ele>205.39999389648437</ele>
        <time>2011-06-20T07:07:26Z</time>
      </trkpt>
      <trkpt lat="45.187145937234163" lon="5.700563946738839">
        <ele>206.19999694824219</ele>
        <time>2011-06-20T07:07:38Z</time>
      </trkpt>
      <trkpt lat="45.18627799116075" lon="5.70043595507741">
        <ele>208.60000610351562</ele>
        <time>2011-06-20T07:07:53Z</time>
      </trkpt>
      <trkpt lat="45.185602996498346" lon="5.700353980064392">
        <ele>209.19999694824219</ele>
        <time>2011-06-20T07:08:05Z</time>
      </trkpt>
      <trkpt lat="45.185120953246951" lon="5.700334953144193">
        <ele>209.19999694824219</ele>
        <time>2011-06-20T07:08:13Z</time>
      </trkpt>
      <trkpt lat="45.184634970501065" lon="5.700304945930839">
        <ele>209.39999389648437</ele>
        <time>2011-06-20T07:08:21Z</time>
      </trkpt>
      <trkpt lat="45.18374296836555" lon="5.70028692483902">
        <ele>209.80000305175781</ele>
        <time>2011-06-20T07:08:36Z</time>
      </trkpt>
      <trkpt lat="45.183143997564912" lon="5.700272927060723">
        <ele>210</ele>
        <time>2011-06-20T07:08:46Z</time>
      </trkpt>
      <trkpt lat="45.182668995112181" lon="5.700254989787936">
        <ele>210.39999389648437</ele>
        <time>2011-06-20T07:08:54Z</time>
      </trkpt>
      <trkpt lat="45.182065917178988" lon="5.700237974524498">
        <ele>210.39999389648437</ele>
        <time>2011-06-20T07:09:04Z</time>
      </trkpt>
      <trkpt lat="45.181323951110244" lon="5.700230933725834">
        <ele>210.80000305175781</ele>
        <time>2011-06-20T07:09:16Z</time>
      </trkpt>
      <trkpt lat="45.180749958381057" lon="5.700223976746202">
        <ele>211</ele>
        <time>2011-06-20T07:09:25Z</time>
      </trkpt>
      <trkpt lat="45.180036993697286" lon="5.700209978967905">
        <ele>211.19999694824219</ele>
        <time>2011-06-20T07:09:36Z</time>
      </trkpt>
      <trkpt lat="45.179261919111013" lon="5.700174942612648">
        <ele>211.39999389648437</ele>
        <time>2011-06-20T07:09:48Z</time>
      </trkpt>
      <trkpt lat="45.17871499992907" lon="5.7001549936831">
        <ele>211.80000305175781</ele>
        <time>2011-06-20T07:09:57Z</time>
      </trkpt>
      <trkpt lat="45.178147964179516" lon="5.700139990076423">
        <ele>212.19999694824219</ele>
        <time>2011-06-20T07:10:06Z</time>
      </trkpt>
      <trkpt lat="45.177497947588563" lon="5.700128925964236">
        <ele>212.39999389648437</ele>
        <time>2011-06-20T07:10:16Z</time>
      </trkpt>
      <trkpt lat="45.176773918792605" lon="5.700110988691449">
        <ele>212.60000610351562</ele>
        <time>2011-06-20T07:10:27Z</time>
      </trkpt>
      <trkpt lat="45.176189951598644" lon="5.70011199451983">
        <ele>212.80000305175781</ele>
        <time>2011-06-20T07:10:36Z</time>
      </trkpt>
      <trkpt lat="45.175595926120877" lon="5.70007293485105">
        <ele>213.19999694824219</ele>
        <time>2011-06-20T07:10:45Z</time>
      </trkpt>
      <trkpt lat="45.174936940893531" lon="5.700063966214657">
        <ele>213.39999389648437</ele>
        <time>2011-06-20T07:10:55Z</time>
      </trkpt>
      <trkpt lat="45.174216935411096" lon="5.700053991749883">
        <ele>213.60000610351562</ele>
        <time>2011-06-20T07:11:06Z</time>
      </trkpt>
      <trkpt lat="45.173647971823812" lon="5.700042927637696">
        <ele>213.80000305175781</ele>
        <time>2011-06-20T07:11:15Z</time>
      </trkpt>
      <trkpt lat="45.173143967986107" lon="5.700038988143206">
        <ele>213.80000305175781</ele>
        <time>2011-06-20T07:11:23Z</time>
      </trkpt>
      <trkpt lat="45.172525970265269" lon="5.700022978708148">
        <ele>214</ele>
        <time>2011-06-20T07:11:33Z</time>
      </trkpt>
      <trkpt lat="45.171885928139091" lon="5.700017949566245">
        <ele>214.19999694824219</ele>
        <time>2011-06-20T07:11:44Z</time>
      </trkpt>
      <trkpt lat="45.171187967061996" lon="5.699998922646046">
        <ele>214.60000610351562</ele>
        <time>2011-06-20T07:11:56Z</time>
      </trkpt>
      <trkpt lat="45.170424962416291" lon="5.699977967888117">
        <ele>214.80000305175781</ele>
        <time>2011-06-20T07:12:09Z</time>
      </trkpt>
      <trkpt lat="45.169773939996958" lon="5.69996397010982">
        <ele>215</ele>
        <time>2011-06-20T07:12:20Z</time>
      </trkpt>
      <trkpt lat="45.169115960597992" lon="5.699941925704479">
        <ele>215.39999389648437</ele>
        <time>2011-06-20T07:12:31Z</time>
      </trkpt>
      <trkpt lat="45.168575998395681" lon="5.699917953461409">
        <ele>215.60000610351562</ele>
        <time>2011-06-20T07:12:40Z</time>
      </trkpt>
      <trkpt lat="45.167796984314919" lon="5.699902949854732">
        <ele>215.60000610351562</ele>
        <time>2011-06-20T07:12:53Z</time>
      </trkpt>
      <trkpt lat="45.167313935235143" lon="5.699887946248055">
        <ele>215.80000305175781</ele>
        <time>2011-06-20T07:13:01Z</time>
      </trkpt>
      <trkpt lat="45.166827952489257" lon="5.69987797178328">
        <ele>216.19999694824219</ele>
        <time>2011-06-20T07:13:09Z</time>
      </trkpt>
      <trkpt lat="45.166333923116326" lon="5.699872942641377">
        <ele>216</ele>
        <time>2011-06-20T07:13:17Z</time>
      </trkpt>
      <trkpt lat="45.165845928713679" lon="5.699861962348223">
        <ele>216</ele>
        <time>2011-06-20T07:13:25Z</time>
      </trkpt>
      <trkpt lat="45.165291968733072" lon="5.699844947084785">
        <ele>216.60000610351562</ele>
        <time>2011-06-20T07:13:34Z</time>
      </trkpt>
      <trkpt lat="45.164610939100385" lon="5.69983497262001">
        <ele>216.60000610351562</ele>
        <time>2011-06-20T07:13:45Z</time>
      </trkpt>
      <trkpt lat="45.164017919450998" lon="5.69983497262001">
        <ele>216.80000305175781</ele>
        <time>2011-06-20T07:13:55Z</time>
      </trkpt>
      <trkpt lat="45.163548951968551" lon="5.699743945151568">
        <ele>216.80000305175781</ele>
        <time>2011-06-20T07:14:03Z</time>
      </trkpt>
      <trkpt lat="45.163022987544537" lon="5.699614947661758">
        <ele>216.80000305175781</ele>
        <time>2011-06-20T07:14:12Z</time>
      </trkpt>
      <trkpt lat="45.162539938464761" lon="5.699494918808341">
        <ele>217</ele>
        <time>2011-06-20T07:14:20Z</time>
      </trkpt>
      <trkpt lat="45.161997964605689" lon="5.699366927146912">
        <ele>217.39999389648437</ele>
        <time>2011-06-20T07:14:29Z</time>
      </trkpt>
      <trkpt lat="45.161414919421077" lon="5.699218986555934">
        <ele>217.39999389648437</ele>
        <time>2011-06-20T07:14:39Z</time>
      </trkpt>
      <trkpt lat="45.160660967230797" lon="5.699038943275809">
        <ele>217.39999389648437</ele>
        <time>2011-06-20T07:14:54Z</time>
      </trkpt>
      <trkpt lat="45.160137936472893" lon="5.698840962722898">
        <ele>217.60000610351562</ele>
        <time>2011-06-20T07:15:12Z</time>
      </trkpt>
      <trkpt lat="45.16008798032999" lon="5.699509922415018">
        <ele>217.60000610351562</ele>
        <time>2011-06-20T07:17:37Z</time>
      </trkpt>
      <trkpt lat="45.159902991726995" lon="5.7002879306674">
        <ele>216.39999389648437</ele>
        <time>2011-06-20T07:17:51Z</time>
      </trkpt>
      <trkpt lat="45.15944198705256" lon="5.700166979804635">
        <ele>215.19999694824219</ele>
        <time>2011-06-20T07:18:57Z</time>
      </trkpt>
      <trkpt lat="45.158983999863267" lon="5.699959946796298">
        <ele>214.80000305175781</ele>
        <time>2011-06-20T07:19:06Z</time>
      </trkpt>
      <trkpt lat="45.158503968268633" lon="5.699744950979948">
        <ele>216</ele>
        <time>2011-06-20T07:19:15Z</time>
      </trkpt>
      <trkpt lat="45.157950930297375" lon="5.699627939611673">
        <ele>216</ele>
        <time>2011-06-20T07:19:23Z</time>
      </trkpt>
      <trkpt lat="45.157375931739807" lon="5.699977967888117">
        <ele>217.60000610351562</ele>
        <time>2011-06-20T07:19:34Z</time>
      </trkpt>
      <trkpt lat="45.157138975337148" lon="5.699418978765607">
        <ele>217</ele>
        <time>2011-06-20T07:19:44Z</time>
      </trkpt>
      <trkpt lat="45.156318973749876" lon="5.698949927464128">
        <ele>217.19999694824219</ele>
        <time>2011-06-20T07:19:58Z</time>
      </trkpt>
      <trkpt lat="45.155842965468764" lon="5.698703918606043">
        <ele>217.39999389648437</ele>
        <time>2011-06-20T07:20:06Z</time>
      </trkpt>
      <trkpt lat="45.155363939702511" lon="5.698473919183016">
        <ele>217.19999694824219</ele>
        <time>2011-06-20T07:20:14Z</time>
      </trkpt>
      <trkpt lat="45.154500938951969" lon="5.697812922298908">
        <ele>217.60000610351562</ele>
        <time>2011-06-20T07:20:30Z</time>
      </trkpt>
      <trkpt lat="45.1539639942348" lon="5.697180926799774">
        <ele>217.60000610351562</ele>
        <time>2011-06-20T07:20:42Z</time>
      </trkpt>
      <trkpt lat="45.153574990108609" lon="5.696584973484278">
        <ele>217.19999694824219</ele>
        <time>2011-06-20T07:20:53Z</time>
      </trkpt>
      <trkpt lat="45.153048941865563" lon="5.69667398929596">
        <ele>215.80000305175781</ele>
        <time>2011-06-20T07:21:07Z</time>
      </trkpt>
      <trkpt lat="45.152486935257912" lon="5.696391938254237">
        <ele>216</ele>
        <time>2011-06-20T07:21:21Z</time>
      </trkpt>
      <trkpt lat="45.152065996080637" lon="5.696083987131715">
        <ele>216.39999389648437</ele>
        <time>2011-06-20T07:21:32Z</time>
      </trkpt>
      <trkpt lat="45.151774976402521" lon="5.695336991921067">
        <ele>216.39999389648437</ele>
        <time>2011-06-20T07:21:47Z</time>
      </trkpt>
      <trkpt lat="45.151200983673334" lon="5.695543941110373">
        <ele>216.80000305175781</ele>
        <time>2011-06-20T07:22:08Z</time>
      </trkpt>
      <trkpt lat="45.150581980124116" lon="5.695420978590846">
        <ele>216.80000305175781</ele>
        <time>2011-06-20T07:22:27Z</time>
      </trkpt>
      <trkpt lat="45.150111922994256" lon="5.695202965289354">
        <ele>217.19999694824219</ele>
        <time>2011-06-20T07:22:44Z</time>
      </trkpt>
      <trkpt lat="45.14970799908042" lon="5.694898953661323">
        <ele>217.19999694824219</ele>
        <time>2011-06-20T07:22:56Z</time>
      </trkpt>
      <trkpt lat="45.149426953867078" lon="5.694239968433976">
        <ele>217</ele>
        <time>2011-06-20T07:23:10Z</time>
      </trkpt>
      <trkpt lat="45.149422930553555" lon="5.693705957382917">
        <ele>217</ele>
        <time>2011-06-20T07:23:33Z</time>
      </trkpt>
      <trkpt lat="45.10800794698298" lon="5.675954930484295">
        <ele>258</ele>
        <time>2011-06-20T08:38:07Z</time>
      </trkpt>
      <trkpt lat="45.108233923092484" lon="5.675348918884993">
        <ele>259.39999389648438</ele>
        <time>2011-06-20T08:38:24Z</time>
      </trkpt>
      <trkpt lat="45.108465934172273" lon="5.674622962251306">
        <ele>261</ele>
        <time>2011-06-20T08:38:41Z</time>
      </trkpt>
      <trkpt lat="45.108203999698162" lon="5.673928940668702">
        <ele>262.60000610351562</ele>
        <time>2011-06-20T08:38:59Z</time>
      </trkpt>
      <trkpt lat="45.107821952551603" lon="5.673584947362542">
        <ele>264.39999389648437</ele>
        <time>2011-06-20T08:39:11Z</time>
      </trkpt>
      <trkpt lat="45.107349967584014" lon="5.673149926587939">
        <ele>266.60000610351562</ele>
        <time>2011-06-20T08:39:30Z</time>
      </trkpt>
      <trkpt lat="45.106908995658159" lon="5.672736950218678">
        <ele>268.60000610351562</ele>
        <time>2011-06-20T08:39:49Z</time>
      </trkpt>
      <trkpt lat="45.106263924390078" lon="5.672614993527532">
        <ele>271</ele>
        <time>2011-06-20T08:40:08Z</time>
      </trkpt>
      <trkpt lat="45.105777941644192" lon="5.672792941331863">
        <ele>271.39999389648437</ele>
        <time>2011-06-20T08:40:20Z</time>
      </trkpt>
      <trkpt lat="45.105343926697969" lon="5.673134922981262">
        <ele>270.39999389648437</ele>
        <time>2011-06-20T08:40:30Z</time>
      </trkpt>
      <trkpt lat="45.104925921186805" lon="5.673540942370892">
        <ele>269.20001220703125</ele>
        <time>2011-06-20T08:40:39Z</time>
      </trkpt>
      <trkpt lat="45.104200970381498" lon="5.673350924625993">
        <ele>267.79998779296875</ele>
        <time>2011-06-20T08:40:51Z</time>
      </trkpt>
      <trkpt lat="45.103551959618926" lon="5.673056971281767">
        <ele>267.79998779296875</ele>
        <time>2011-06-20T08:41:05Z</time>
      </trkpt>
      <trkpt lat="45.102963969111443" lon="5.672861924394965">
        <ele>266.79998779296875</ele>
        <time>2011-06-20T08:41:17Z</time>
      </trkpt>
      <trkpt lat="45.102072972804308" lon="5.672584986314178">
        <ele>264</ele>
        <time>2011-06-20T08:41:32Z</time>
      </trkpt>
      <trkpt lat="45.101330922916532" lon="5.672208974137902">
        <ele>261.60000610351562</ele>
        <time>2011-06-20T08:41:45Z</time>
      </trkpt>
      <trkpt lat="45.100859943777323" lon="5.672036977484822">
        <ele>260.39999389648437</ele>
        <time>2011-06-20T08:41:53Z</time>
      </trkpt>
      <trkpt lat="45.100198946893215" lon="5.672245938330889">
        <ele>259.79998779296875</ele>
        <time>2011-06-20T08:42:06Z</time>
      </trkpt>
      <trkpt lat="45.099216923117638" lon="5.672628991305828">
        <ele>260.39999389648437</ele>
        <time>2011-06-20T08:42:36Z</time>
      </trkpt>
      <trkpt lat="45.098778968676925" lon="5.672351969406009">
        <ele>262</ele>
        <time>2011-06-20T08:42:59Z</time>
      </trkpt>
      <trkpt lat="45.09820899926126" lon="5.672299917787314">
        <ele>264.79998779296875</ele>
        <time>2011-06-20T08:43:16Z</time>
      </trkpt>
      <trkpt lat="45.09771597571671" lon="5.673080943524838">
        <ele>267.20001220703125</ele>
        <time>2011-06-20T08:43:37Z</time>
      </trkpt>
      <trkpt lat="45.09728891775012" lon="5.673782927915454">
        <ele>265.79998779296875</ele>
        <time>2011-06-20T08:43:49Z</time>
      </trkpt>
      <trkpt lat="45.09687795303762" lon="5.674267988651991">
        <ele>263.79998779296875</ele>
        <time>2011-06-20T08:43:56Z</time>
      </trkpt>
      <trkpt lat="45.096549969166517" lon="5.674803927540779">
        <ele>261.60000610351562</ele>
        <time>2011-06-20T08:44:08Z</time>
      </trkpt>
      <trkpt lat="45.09636296890676" lon="5.67570892162621">
        <ele>261.39999389648437</ele>
        <time>2011-06-20T08:44:27Z</time>
      </trkpt>
      <trkpt lat="45.096044959500432" lon="5.67684592679143">
        <ele>261</ele>
        <time>2011-06-20T08:44:44Z</time>
      </trkpt>
      <trkpt lat="45.095744971185923" lon="5.677708927541971">
        <ele>260.20001220703125</ele>
        <time>2011-06-20T08:44:58Z</time>
      </trkpt>
      <trkpt lat="45.095565933734179" lon="5.678333966061473">
        <ele>260.39999389648437</ele>
        <time>2011-06-20T08:45:06Z</time>
      </trkpt>
      <trkpt lat="45.095318919047713" lon="5.678985994309187">
        <ele>261</ele>
        <time>2011-06-20T08:45:15Z</time>
      </trkpt>
      <trkpt lat="45.095092942938209" lon="5.679602986201644">
        <ele>261.20001220703125</ele>
        <time>2011-06-20T08:45:24Z</time>
      </trkpt>
      <trkpt lat="45.094767976552248" lon="5.680485935881734">
        <ele>261.79998779296875</ele>
        <time>2011-06-20T08:45:38Z</time>
      </trkpt>
      <trkpt lat="45.094494977965951" lon="5.681106951087713">
        <ele>261.60000610351562</ele>
        <time>2011-06-20T08:45:50Z</time>
      </trkpt>
      <trkpt lat="45.09432096965611" lon="5.681724948808551">
        <ele>261</ele>
        <time>2011-06-20T08:46:04Z</time>
      </trkpt>
      <trkpt lat="45.093971947208047" lon="5.682438919320703">
        <ele>261.39999389648437</ele>
        <time>2011-06-20T08:46:18Z</time>
      </trkpt>
      <trkpt lat="45.093723926693201" lon="5.683054989203811">
        <ele>262</ele>
        <time>2011-06-20T08:46:28Z</time>
      </trkpt>
      <trkpt lat="45.093444976955652" lon="5.683738952502608">
        <ele>262</ele>
        <time>2011-06-20T08:46:40Z</time>
      </trkpt>
      <trkpt lat="45.093012973666191" lon="5.68468795157969">
        <ele>262.20001220703125</ele>
        <time>2011-06-20T08:46:56Z</time>
      </trkpt>
      <trkpt lat="45.092485919594765" lon="5.685618929564953">
        <ele>263.20001220703125</ele>
        <time>2011-06-20T08:47:13Z</time>
      </trkpt>
      <trkpt lat="45.091981999576092" lon="5.685634939000011">
        <ele>263.39999389648437</ele>
        <time>2011-06-20T08:47:25Z</time>
      </trkpt>
      <trkpt lat="45.091331982985139" lon="5.685471994802356">
        <ele>263</ele>
        <time>2011-06-20T08:47:44Z</time>
      </trkpt>
      <trkpt lat="45.090847928076982" lon="5.685346936807036">
        <ele>263</ele>
        <time>2011-06-20T08:47:56Z</time>
      </trkpt>
      <trkpt lat="45.090765953063965" lon="5.685951942577958">
        <ele>263.39999389648437</ele>
        <time>2011-06-20T08:48:08Z</time>
      </trkpt>
      <trkpt lat="45.090836947783828" lon="5.686976965516806">
        <ele>263.60000610351562</ele>
        <time>2011-06-20T08:48:24Z</time>
      </trkpt>
      <trkpt lat="45.090898973867297" lon="5.68760896101594">
        <ele>263.20001220703125</ele>
        <time>2011-06-20T08:48:34Z</time>
      </trkpt>
      <trkpt lat="45.091134924441576" lon="5.688572963699698">
        <ele>262.20001220703125</ele>
        <time>2011-06-20T08:48:49Z</time>
      </trkpt>
      <trkpt lat="45.091305999085307" lon="5.689197918400168">
        <ele>261.60000610351562</ele>
        <time>2011-06-20T08:48:59Z</time>
      </trkpt>
      <trkpt lat="45.091263921931386" lon="5.690345987677574">
        <ele>260.79998779296875</ele>
        <time>2011-06-20T08:49:15Z</time>
      </trkpt>
      <trkpt lat="45.091193933039904" lon="5.691105974838138">
        <ele>260.39999389648437</ele>
        <time>2011-06-20T08:49:29Z</time>
      </trkpt>
      <trkpt lat="45.09090693667531" lon="5.691540995612741">
        <ele>260.39999389648437</ele>
        <time>2011-06-20T08:50:38Z</time>
      </trkpt>
      <trkpt lat="45.090603930875659" lon="5.691684996709228">
        <ele>259.60000610351562</ele>
        <time>2011-06-20T08:51:07Z</time>
      </trkpt>
      <trkpt lat="45.09010897949338" lon="5.691742999479175">
        <ele>260.60000610351562</ele>
        <time>2011-06-20T08:51:23Z</time>
      </trkpt>
      <trkpt lat="45.089352931827307" lon="5.691785998642445">
        <ele>261.39999389648437</ele>
        <time>2011-06-20T08:51:39Z</time>
      </trkpt>
      <trkpt lat="45.088807940483093" lon="5.691748950630426">
        <ele>261.60000610351562</ele>
        <time>2011-06-20T08:51:50Z</time>
      </trkpt>
      <trkpt lat="45.08819991722703" lon="5.691080996766686">
        <ele>262.39999389648438</ele>
        <time>2011-06-20T08:52:05Z</time>
      </trkpt>
      <trkpt lat="45.087647968903184" lon="5.690395943820477">
        <ele>262.79998779296875</ele>
        <time>2011-06-20T08:52:20Z</time>
      </trkpt>
      <trkpt lat="45.087184952571988" lon="5.689876936376095">
        <ele>263.60000610351562</ele>
        <time>2011-06-20T08:52:34Z</time>
      </trkpt>
      <trkpt lat="45.086852945387363" lon="5.689314929768443">
        <ele>264</ele>
        <time>2011-06-20T08:52:46Z</time>
      </trkpt>
      <trkpt lat="45.086168982088566" lon="5.688945958390832">
        <ele>264.79998779296875</ele>
        <time>2011-06-20T08:53:01Z</time>
      </trkpt>
      <trkpt lat="45.085388962179422" lon="5.688437931239605">
        <ele>265.60000610351562</ele>
        <time>2011-06-20T08:53:18Z</time>
      </trkpt>
      <trkpt lat="45.084872972220182" lon="5.688100978732109">
        <ele>265.79998779296875</ele>
        <time>2011-06-20T08:53:29Z</time>
      </trkpt>
      <trkpt lat="45.084389923140407" lon="5.687903920188546">
        <ele>266</ele>
        <time>2011-06-20T08:53:39Z</time>
      </trkpt>
      <trkpt lat="45.084381960332394" lon="5.687147956341505">
        <ele>266.39999389648437</ele>
        <time>2011-06-20T08:53:53Z</time>
      </trkpt>
      <trkpt lat="45.083866976201534" lon="5.686809998005629">
        <ele>267.20001220703125</ele>
        <time>2011-06-20T08:54:03Z</time>
      </trkpt>
      <trkpt lat="45.083384932950139" lon="5.686532976105809">
        <ele>267.60000610351562</ele>
        <time>2011-06-20T08:54:12Z</time>
      </trkpt>
      <trkpt lat="45.082961982116103" lon="5.686295935884118">
        <ele>268.20001220703125</ele>
        <time>2011-06-20T08:54:20Z</time>
      </trkpt>
      <trkpt lat="45.082465941086411" lon="5.686016986146569">
        <ele>269</ele>
        <time>2011-06-20T08:54:30Z</time>
      </trkpt>
      <trkpt lat="45.081711988896132" lon="5.685587916523218">
        <ele>269.60000610351562</ele>
        <time>2011-06-20T08:54:46Z</time>
      </trkpt>
      <trkpt lat="45.081263976171613" lon="5.685338973999023">
        <ele>270</ele>
        <time>2011-06-20T08:54:55Z</time>
      </trkpt>
      <trkpt lat="45.080821998417377" lon="5.685078967362642">
        <ele>270.60000610351562</ele>
        <time>2011-06-20T08:55:04Z</time>
      </trkpt>
      <trkpt lat="45.080345990136266" lon="5.684801945462823">
        <ele>271</ele>
        <time>2011-06-20T08:55:14Z</time>
      </trkpt>
      <trkpt lat="45.079884985461831" lon="5.684546967968345">
        <ele>271.79998779296875</ele>
        <time>2011-06-20T08:55:23Z</time>
      </trkpt>
      <trkpt lat="45.079307975247502" lon="5.684208925813437">
        <ele>272.20001220703125</ele>
        <time>2011-06-20T08:55:34Z</time>
      </trkpt>
      <trkpt lat="45.078817969188094" lon="5.683929976075888">
        <ele>272.79998779296875</ele>
        <time>2011-06-20T08:55:44Z</time>
      </trkpt>
      <trkpt lat="45.078285969793797" lon="5.683629987761378">
        <ele>273.20001220703125</ele>
        <time>2011-06-20T08:57:18Z</time>
      </trkpt>
      <trkpt lat="45.077420957386494" lon="5.683115925639868">
        <ele>273.79998779296875</ele>
        <time>2011-06-20T08:57:35Z</time>
      </trkpt>
      <trkpt lat="45.076853921636939" lon="5.682782996445894">
        <ele>275</ele>
        <time>2011-06-20T08:57:46Z</time>
      </trkpt>
      <trkpt lat="45.076157972216606" lon="5.682361973449588">
        <ele>275.60000610351562</ele>
        <time>2011-06-20T08:58:00Z</time>
      </trkpt>
      <trkpt lat="45.075421957299113" lon="5.681918989866972">
        <ele>276.20001220703125</ele>
        <time>2011-06-20T08:58:15Z</time>
      </trkpt>
      <trkpt lat="45.074969921261072" lon="5.681634927168489">
        <ele>276.60000610351562</ele>
        <time>2011-06-20T08:58:25Z</time>
      </trkpt>
      <trkpt lat="45.074565997347236" lon="5.681341979652643">
        <ele>276.79998779296875</ele>
        <time>2011-06-20T08:58:34Z</time>
      </trkpt>
      <trkpt lat="45.074175987392664" lon="5.680995974689722">
        <ele>277.60000610351562</ele>
        <time>2011-06-20T08:58:43Z</time>
      </trkpt>
      <trkpt lat="45.073773991316557" lon="5.680606970563531">
        <ele>278.20001220703125</ele>
        <time>2011-06-20T08:58:52Z</time>
      </trkpt>
      <trkpt lat="45.073377946391702" lon="5.680228946730495">
        <ele>278.60000610351562</ele>
        <time>2011-06-20T08:59:01Z</time>
      </trkpt>
      <trkpt lat="45.072801942005754" lon="5.680267922580242">
        <ele>279.79998779296875</ele>
        <time>2011-06-20T08:59:14Z</time>
      </trkpt>
      <trkpt lat="45.072459960356355" lon="5.68088692612946">
        <ele>280.20001220703125</ele>
        <time>2011-06-20T08:59:26Z</time>
      </trkpt>
      <trkpt lat="45.071913963183761" lon="5.681020952761173">
        <ele>280.20001220703125</ele>
        <time>2011-06-20T08:59:37Z</time>
      </trkpt>
      <trkpt lat="45.071365954354405" lon="5.681063951924443">
        <ele>280</ele>
        <time>2011-06-20T08:59:47Z</time>
      </trkpt>
      <trkpt lat="45.070494990795851" lon="5.6809919513762">
        <ele>280.20001220703125</ele>
        <time>2011-06-20T09:00:03Z</time>
      </trkpt>
      <trkpt lat="45.070012947544456" lon="5.680901929736137">
        <ele>281</ele>
        <time>2011-06-20T09:00:12Z</time>
      </trkpt>
      <trkpt lat="45.069256983697414" lon="5.680887931957841">
        <ele>281.39999389648437</ele>
        <time>2011-06-20T09:00:26Z</time>
      </trkpt>
      <trkpt lat="45.068564973771572" lon="5.681262938305736">
        <ele>283.79998779296875</ele>
        <time>2011-06-20T09:00:39Z</time>
      </trkpt>
      <trkpt lat="45.068215951323509" lon="5.681755961850286">
        <ele>286.20001220703125</ele>
        <time>2011-06-20T09:00:49Z</time>
      </trkpt>
      <trkpt lat="45.067691998556256" lon="5.681705921888351">
        <ele>288.39999389648437</ele>
        <time>2011-06-20T09:01:04Z</time>
      </trkpt>
      <trkpt lat="45.067471973598003" lon="5.680856918916106">
        <ele>291.39999389648437</ele>
        <time>2011-06-20T09:01:23Z</time>
      </trkpt>
      <trkpt lat="45.067280950024724" lon="5.680065918713808">
        <ele>290.79998779296875</ele>
        <time>2011-06-20T09:01:36Z</time>
      </trkpt>
      <trkpt lat="45.06692698225379" lon="5.679511958733201">
        <ele>289.20001220703125</ele>
        <time>2011-06-20T09:01:44Z</time>
      </trkpt>
      <trkpt lat="45.066523980349302" lon="5.67901692353189">
        <ele>287.39999389648437</ele>
        <time>2011-06-20T09:01:51Z</time>
      </trkpt>
      <trkpt lat="45.066165989264846" lon="5.678600929677486">
        <ele>286</ele>
        <time>2011-06-20T09:01:57Z</time>
      </trkpt>
      <trkpt lat="45.065789977088571" lon="5.678233969956636">
        <ele>286.20001220703125</ele>
        <time>2011-06-20T09:02:04Z</time>
      </trkpt>
      <trkpt lat="45.065330984070897" lon="5.677766930311918">
        <ele>287</ele>
        <time>2011-06-20T09:02:14Z</time>
      </trkpt>
      <trkpt lat="45.064866961911321" lon="5.677484963089228">
        <ele>287.60000610351562</ele>
        <time>2011-06-20T09:02:23Z</time>
      </trkpt>
      <trkpt lat="45.064436970278621" lon="5.677287988364697">
        <ele>287.79998779296875</ele>
        <time>2011-06-20T09:02:31Z</time>
      </trkpt>
      <trkpt lat="45.063784942030907" lon="5.676950952038169">
        <ele>288.79998779296875</ele>
        <time>2011-06-20T09:02:44Z</time>
      </trkpt>
      <trkpt lat="45.063335923478007" lon="5.676604947075248">
        <ele>289.20001220703125</ele>
        <time>2011-06-20T09:02:57Z</time>
      </trkpt>
      <trkpt lat="45.062920935451984" lon="5.676182918250561">
        <ele>289</ele>
        <time>2011-06-20T09:03:28Z</time>
      </trkpt>
      <trkpt lat="45.062392959371209" lon="5.675987955182791">
        <ele>290.20001220703125</ele>
        <time>2011-06-20T09:03:46Z</time>
      </trkpt>
      <trkpt lat="45.061882920563221" lon="5.675700958818197">
        <ele>291.20001220703125</ele>
        <time>2011-06-20T09:04:01Z</time>
      </trkpt>
      <trkpt lat="45.061497939750552" lon="5.67534196190536">
        <ele>291.79998779296875</ele>
        <time>2011-06-20T09:04:13Z</time>
      </trkpt>
      <trkpt lat="45.060820933431387" lon="5.674723964184523">
        <ele>293.39999389648437</ele>
        <time>2011-06-20T09:04:32Z</time>
      </trkpt>
      <trkpt lat="45.06013797596097" lon="5.673977974802256">
        <ele>295</ele>
        <time>2011-06-20T09:04:51Z</time>
      </trkpt>
      <trkpt lat="45.059695998206735" lon="5.67325696349144">
        <ele>296</ele>
        <time>2011-06-20T09:05:06Z</time>
      </trkpt>
      <trkpt lat="45.059329960495234" lon="5.672605941072106">
        <ele>296.79998779296875</ele>
        <time>2011-06-20T09:05:20Z</time>
      </trkpt>
      <trkpt lat="45.058817993849516" lon="5.672026919201016">
        <ele>298</ele>
        <time>2011-06-20T09:05:34Z</time>
      </trkpt>
      <trkpt lat="45.058217933401465" lon="5.671203983947635">
        <ele>299</ele>
        <time>2011-06-20T09:05:52Z</time>
      </trkpt>
      <trkpt lat="45.057567916810513" lon="5.670738955959678">
        <ele>300.20001220703125</ele>
        <time>2011-06-20T09:06:07Z</time>
      </trkpt>
      <trkpt lat="45.057036923244596" lon="5.670382976531982">
        <ele>300.79998779296875</ele>
        <time>2011-06-20T09:06:19Z</time>
      </trkpt>
      <trkpt lat="45.056275930255651" lon="5.669834967702627">
        <ele>301.39999389648437</ele>
        <time>2011-06-20T09:06:36Z</time>
      </trkpt>
      <trkpt lat="45.055897990241647" lon="5.669466918334365">
        <ele>302</ele>
        <time>2011-06-20T09:06:48Z</time>
      </trkpt>
      <trkpt lat="45.056043919175863" lon="5.668324967846274">
        <ele>303.79998779296875</ele>
        <time>2011-06-20T09:07:12Z</time>
      </trkpt>
      <trkpt lat="45.055650975555182" lon="5.667724991217256">
        <ele>304</ele>
        <time>2011-06-20T09:07:29Z</time>
      </trkpt>
      <trkpt lat="45.055047981441021" lon="5.667408993467689">
        <ele>304.20001220703125</ele>
        <time>2011-06-20T09:07:42Z</time>
      </trkpt>
      <trkpt lat="45.054288916289806" lon="5.666982941329479">
        <ele>305.60000610351562</ele>
        <time>2011-06-20T09:07:59Z</time>
      </trkpt>
      <trkpt lat="45.053767981007695" lon="5.666690999642015">
        <ele>306.39999389648437</ele>
        <time>2011-06-20T09:08:13Z</time>
      </trkpt>
      <trkpt lat="45.053131962195039" lon="5.666327979415655">
        <ele>307.39999389648437</ele>
        <time>2011-06-20T09:08:30Z</time>
      </trkpt>
      <trkpt lat="45.052510946989059" lon="5.665965965017676">
        <ele>308.20001220703125</ele>
        <time>2011-06-20T09:08:46Z</time>
      </trkpt>
      <trkpt lat="45.052088918164372" lon="5.665715932846069">
        <ele>309</ele>
        <time>2011-06-20T09:08:56Z</time>
      </trkpt>
      <trkpt lat="45.051610982045531" lon="5.665459949523211">
        <ele>309.60000610351562</ele>
        <time>2011-06-20T09:09:07Z</time>
      </trkpt>
      <trkpt lat="45.051190964877605" lon="5.665203966200352">
        <ele>310.39999389648437</ele>
        <time>2011-06-20T09:09:17Z</time>
      </trkpt>
      <trkpt lat="45.050392923876643" lon="5.664745979011059">
        <ele>311.39999389648437</ele>
        <time>2011-06-20T09:09:35Z</time>
      </trkpt>
      <trkpt lat="45.049627991393209" lon="5.664303917437792">
        <ele>312.39999389648437</ele>
        <time>2011-06-20T09:09:52Z</time>
      </trkpt>
      <trkpt lat="45.049204956740141" lon="5.664068972691894">
        <ele>313</ele>
        <time>2011-06-20T09:10:01Z</time>
      </trkpt>
      <trkpt lat="45.048377998173237" lon="5.663596987724304">
        <ele>313.79998779296875</ele>
        <time>2011-06-20T09:10:19Z</time>
      </trkpt>
      <trkpt lat="45.047599989920855" lon="5.663142940029502">
        <ele>314.79998779296875</ele>
        <time>2011-06-20T09:10:36Z</time>
      </trkpt>
      <trkpt lat="45.04718299023807" lon="5.662904977798462">
        <ele>315.60000610351562</ele>
        <time>2011-06-20T09:10:45Z</time>
      </trkpt>
      <trkpt lat="45.046377992257476" lon="5.662699956446886">
        <ele>316.79998779296875</ele>
        <time>2011-06-20T09:11:02Z</time>
      </trkpt>
      <trkpt lat="45.045874994248152" lon="5.662455959245563">
        <ele>316.79998779296875</ele>
        <time>2011-06-20T09:11:13Z</time>
      </trkpt>
      <trkpt lat="45.045279962942004" lon="5.662629967555404">
        <ele>318</ele>
        <time>2011-06-20T09:11:27Z</time>
      </trkpt>
      <trkpt lat="45.045003946870565" lon="5.66339791752398">
        <ele>319</ele>
        <time>2011-06-20T09:11:43Z</time>
      </trkpt>
      <trkpt lat="45.044785933569074" lon="5.663979956880212">
        <ele>319</ele>
        <time>2011-06-20T09:11:54Z</time>
      </trkpt>
      <trkpt lat="45.044373963028193" lon="5.664445990696549">
        <ele>319.79998779296875</ele>
        <time>2011-06-20T09:12:08Z</time>
      </trkpt>
      <trkpt lat="45.043653957545757" lon="5.664404919371009">
        <ele>321.20001220703125</ele>
        <time>2011-06-20T09:12:25Z</time>
      </trkpt>
      <trkpt lat="45.043155988678336" lon="5.664365943521261">
        <ele>322.20001220703125</ele>
        <time>2011-06-20T09:12:35Z</time>
      </trkpt>
      <trkpt lat="45.042458949610591" lon="5.664077941328287">
        <ele>323.39999389648437</ele>
        <time>2011-06-20T09:12:49Z</time>
      </trkpt>
      <trkpt lat="45.041987970471382" lon="5.663648955523968">
        <ele>324.20001220703125</ele>
        <time>2011-06-20T09:12:59Z</time>
      </trkpt>
      <trkpt lat="45.041609946638346" lon="5.663283923640847">
        <ele>324.79998779296875</ele>
        <time>2011-06-20T09:13:07Z</time>
      </trkpt>
      <trkpt lat="45.041179955005646" lon="5.662876982241869">
        <ele>325.39999389648437</ele>
        <time>2011-06-20T09:13:16Z</time>
      </trkpt>
      <trkpt lat="45.040761949494481" lon="5.662487978115678">
        <ele>326</ele>
        <time>2011-06-20T09:13:25Z</time>
      </trkpt>
      <trkpt lat="45.040291976183653" lon="5.662046922370791">
        <ele>326.79998779296875</ele>
        <time>2011-06-20T09:13:35Z</time>
      </trkpt>
      <trkpt lat="45.039726952090859" lon="5.661502936854959">
        <ele>327.79998779296875</ele>
        <time>2011-06-20T09:13:47Z</time>
      </trkpt>
      <trkpt lat="45.038901921361685" lon="5.660874964669347">
        <ele>329</ele>
        <time>2011-06-20T09:14:04Z</time>
      </trkpt>
      <trkpt lat="45.038391966372728" lon="5.66045394167304">
        <ele>329.79998779296875</ele>
        <time>2011-06-20T09:14:15Z</time>
      </trkpt>
      <trkpt lat="45.037969937548041" lon="5.660136938095093">
        <ele>330.79998779296875</ele>
        <time>2011-06-20T09:14:24Z</time>
      </trkpt>
      <trkpt lat="45.037561990320683" lon="5.659806942567229">
        <ele>331.39999389648437</ele>
        <time>2011-06-20T09:14:33Z</time>
      </trkpt>
      <trkpt lat="45.037096962332726" lon="5.659430930390954">
        <ele>332.20001220703125</ele>
        <time>2011-06-20T09:14:43Z</time>
      </trkpt>
      <trkpt lat="45.036683985963464" lon="5.659092972055078">
        <ele>333.20001220703125</ele>
        <time>2011-06-20T09:14:52Z</time>
      </trkpt>
      <trkpt lat="45.035811932757497" lon="5.658381935209036">
        <ele>334.39999389648437</ele>
        <time>2011-06-20T09:15:10Z</time>
      </trkpt>
      <trkpt lat="45.035332990810275" lon="5.657989997416735">
        <ele>335.20001220703125</ele>
        <time>2011-06-20T09:15:20Z</time>
      </trkpt>
      <trkpt lat="45.034584989771247" lon="5.657370993867517">
        <ele>336.60000610351562</ele>
        <time>2011-06-20T09:15:36Z</time>
      </trkpt>
      <trkpt lat="45.034110993146896" lon="5.656984923407435">
        <ele>337.79998779296875</ele>
        <time>2011-06-20T09:15:46Z</time>
      </trkpt>
      <trkpt lat="45.033625932410359" lon="5.656592985615134">
        <ele>339</ele>
        <time>2011-06-20T09:15:56Z</time>
      </trkpt>
      <trkpt lat="45.032811965793371" lon="5.655895946547389">
        <ele>341.39999389648437</ele>
        <time>2011-06-20T09:16:14Z</time>
      </trkpt>
      <trkpt lat="45.032256999984384" lon="5.65531793050468">
        <ele>341.79998779296875</ele>
        <time>2011-06-20T09:16:28Z</time>
      </trkpt>
      <trkpt lat="45.031925998628139" lon="5.655019953846932">
        <ele>342</ele>
        <time>2011-06-20T09:17:09Z</time>
      </trkpt>
      <trkpt lat="45.031804963946342" lon="5.655259927734733">
        <ele>341.60000610351562</ele>
        <time>2011-06-20T09:17:28Z</time>
      </trkpt>
      <trkpt lat="45.030985968187451" lon="5.655005956068635">
        <ele>342</ele>
        <time>2011-06-20T09:17:45Z</time>
      </trkpt>
      <trkpt lat="45.030491938814521" lon="5.655151968821883">
        <ele>342.79998779296875</ele>
        <time>2011-06-20T09:17:55Z</time>
      </trkpt>
      <trkpt lat="45.0299939699471" lon="5.655570980161429">
        <ele>344</ele>
        <time>2011-06-20T09:18:06Z</time>
      </trkpt>
      <trkpt lat="45.029504969716072" lon="5.655407952144742">
        <ele>346</ele>
        <time>2011-06-20T09:18:18Z</time>
      </trkpt>
      <trkpt lat="45.028893928974867" lon="5.655049961060286">
        <ele>349.39999389648437</ele>
        <time>2011-06-20T09:18:35Z</time>
      </trkpt>
      <trkpt lat="45.028435941785574" lon="5.654570935294032">
        <ele>352.39999389648437</ele>
        <time>2011-06-20T09:18:53Z</time>
      </trkpt>
      <trkpt lat="45.027908971533179" lon="5.654611922800541">
        <ele>356</ele>
        <time>2011-06-20T09:19:11Z</time>
      </trkpt>
      <trkpt lat="45.02752399072051" lon="5.654257955029607">
        <ele>358.79998779296875</ele>
        <time>2011-06-20T09:19:32Z</time>
      </trkpt>
      <trkpt lat="45.027126939967275" lon="5.654625920578837">
        <ele>365.39999389648437</ele>
        <time>2011-06-20T09:19:55Z</time>
      </trkpt>
      <trkpt lat="45.02649393863976" lon="5.654935967177153">
        <ele>371.20001220703125</ele>
        <time>2011-06-20T09:20:23Z</time>
      </trkpt>
      <trkpt lat="45.025953976437449" lon="5.655097989365459">
        <ele>376.60000610351562</ele>
        <time>2011-06-20T09:20:49Z</time>
      </trkpt>
      <trkpt lat="45.025508981198072" lon="5.655476935207844">
        <ele>380.79998779296875</ele>
        <time>2011-06-20T09:21:13Z</time>
      </trkpt>
      <trkpt lat="45.025187954306602" lon="5.655969958752394">
        <ele>385.20001220703125</ele>
        <time>2011-06-20T09:21:37Z</time>
      </trkpt>
      <trkpt lat="45.025121988728642" lon="5.655316924676299">
        <ele>390.39999389648438</ele>
        <time>2011-06-20T09:22:02Z</time>
      </trkpt>
      <trkpt lat="45.025447960942984" lon="5.654634973034263">
        <ele>396</ele>
        <time>2011-06-20T09:22:31Z</time>
      </trkpt>
      <trkpt lat="45.025505963712931" lon="5.654346970841289">
        <ele>400.39999389648437</ele>
        <time>2011-06-20T09:22:54Z</time>
      </trkpt>
      <trkpt lat="45.024980921298265" lon="5.654613934457302">
        <ele>405.79998779296875</ele>
        <time>2011-06-20T09:23:21Z</time>
      </trkpt>
      <trkpt lat="45.024561993777752" lon="5.654960945248604">
        <ele>410.39999389648438</ele>
        <time>2011-06-20T09:23:47Z</time>
      </trkpt>
      <trkpt lat="45.024248929694295" lon="5.655542984604836">
        <ele>415</ele>
        <time>2011-06-20T09:24:13Z</time>
      </trkpt>
      <trkpt lat="45.02419394440949" lon="5.656257960945368">
        <ele>419</ele>
        <time>2011-06-20T09:24:38Z</time>
      </trkpt>
      <trkpt lat="45.023839976638556" lon="5.656624920666218">
        <ele>423</ele>
        <time>2011-06-20T09:25:00Z</time>
      </trkpt>
      <trkpt lat="45.023317951709032" lon="5.656629949808121">
        <ele>427.39999389648438</ele>
        <time>2011-06-20T09:25:24Z</time>
      </trkpt>
      <trkpt lat="45.02277597784996" lon="5.656427945941687">
        <ele>432.60000610351562</ele>
        <time>2011-06-20T09:25:51Z</time>
      </trkpt>
      <trkpt lat="45.022318996489048" lon="5.656183948740363">
        <ele>437</ele>
        <time>2011-06-20T09:26:16Z</time>
      </trkpt>
      <trkpt lat="45.021797977387905" lon="5.656165927648544">
        <ele>442</ele>
        <time>2011-06-20T09:26:41Z</time>
      </trkpt>
      <trkpt lat="45.021263966336846" lon="5.656313952058554">
        <ele>446.79998779296875</ele>
        <time>2011-06-20T09:27:07Z</time>
      </trkpt>
      <trkpt lat="45.020726937800646" lon="5.656556943431497">
        <ele>451.60000610351562</ele>
        <time>2011-06-20T09:27:33Z</time>
      </trkpt>
      <trkpt lat="45.020187981426716" lon="5.656582927331328">
        <ele>456.39999389648437</ele>
        <time>2011-06-20T09:27:59Z</time>
      </trkpt>
      <trkpt lat="45.019625974819064" lon="5.656784931197763">
        <ele>460</ele>
        <time>2011-06-20T09:28:25Z</time>
      </trkpt>
      <trkpt lat="45.019237976521254" lon="5.657151974737644">
        <ele>464</ele>
        <time>2011-06-20T09:28:48Z</time>
      </trkpt>
      <trkpt lat="45.01867295242846" lon="5.657376945018768">
        <ele>470</ele>
        <time>2011-06-20T09:29:21Z</time>
      </trkpt>
      <trkpt lat="45.018212953582406" lon="5.657427990809083">
        <ele>473.60000610351562</ele>
        <time>2011-06-20T09:29:43Z</time>
      </trkpt>
      <trkpt lat="45.01770299859345" lon="5.657302932813764">
        <ele>477.39999389648437</ele>
        <time>2011-06-20T09:30:06Z</time>
      </trkpt>
      <trkpt lat="45.017176950350404" lon="5.657189944759011">
        <ele>482</ele>
        <time>2011-06-20T09:30:31Z</time>
      </trkpt>
      <trkpt lat="45.016621984541416" lon="5.657012918964028">
        <ele>487.20001220703125</ele>
        <time>2011-06-20T09:31:01Z</time>
      </trkpt>
      <trkpt lat="45.016106916591525" lon="5.656895991414785">
        <ele>491.39999389648437</ele>
        <time>2011-06-20T09:31:30Z</time>
      </trkpt>
      <trkpt lat="45.015557985752821" lon="5.656793983653188">
        <ele>497</ele>
        <time>2011-06-20T09:33:42Z</time>
      </trkpt>
      <trkpt lat="45.015027998015285" lon="5.656749978661537">
        <ele>501.79998779296875</ele>
        <time>2011-06-20T09:34:07Z</time>
      </trkpt>
      <trkpt lat="45.014530951157212" lon="5.656837988644838">
        <ele>506</ele>
        <time>2011-06-20T09:34:32Z</time>
      </trkpt>
      <trkpt lat="45.014078998938203" lon="5.657063964754343">
        <ele>511</ele>
        <time>2011-06-20T09:34:58Z</time>
      </trkpt>
      <trkpt lat="45.013590920716524" lon="5.657142922282219">
        <ele>514.20001220703125</ele>
        <time>2011-06-20T09:35:22Z</time>
      </trkpt>
      <trkpt lat="45.012918943539262" lon="5.657180976122618">
        <ele>517.79998779296875</ele>
        <time>2011-06-20T09:35:45Z</time>
      </trkpt>
      <trkpt lat="45.012386944144964" lon="5.65720796585083">
        <ele>521.20001220703125</ele>
        <time>2011-06-20T09:36:03Z</time>
      </trkpt>
      <trkpt lat="45.011895932257175" lon="5.657266974449158">
        <ele>522.79998779296875</ele>
        <time>2011-06-20T09:36:18Z</time>
      </trkpt>
      <trkpt lat="45.011354964226484" lon="5.657223975285888">
        <ele>525.4000244140625</ele>
        <time>2011-06-20T09:36:35Z</time>
      </trkpt>
      <trkpt lat="45.010824976488948" lon="5.656409924849868">
        <ele>523</ele>
        <time>2011-06-20T09:36:50Z</time>
      </trkpt>
      <trkpt lat="45.010327929630876" lon="5.656193923205137">
        <ele>522.79998779296875</ele>
        <time>2011-06-20T09:36:58Z</time>
      </trkpt>
      <trkpt lat="45.009595938026905" lon="5.655871974304318">
        <ele>525</ele>
        <time>2011-06-20T09:37:14Z</time>
      </trkpt>
      <trkpt lat="45.009040972217917" lon="5.655613979324698">
        <ele>527.4000244140625</ele>
        <time>2011-06-20T09:37:29Z</time>
      </trkpt>
      <trkpt lat="45.008469996973872" lon="5.655286917462945">
        <ele>532.79998779296875</ele>
        <time>2011-06-20T09:37:52Z</time>
      </trkpt>
      <trkpt lat="45.007810927927494" lon="5.654849968850613">
        <ele>532.20001220703125</ele>
        <time>2011-06-20T09:38:11Z</time>
      </trkpt>
      <trkpt lat="45.007263924926519" lon="5.654384940862656">
        <ele>538.4000244140625</ele>
        <time>2011-06-20T09:38:36Z</time>
      </trkpt>
      <trkpt lat="45.006847931072116" lon="5.654084952548146">
        <ele>542.5999755859375</ele>
        <time>2011-06-20T09:38:57Z</time>
      </trkpt>
      <trkpt lat="45.006307968869805" lon="5.653853947296739">
        <ele>547</ele>
        <time>2011-06-20T09:39:22Z</time>
      </trkpt>
      <trkpt lat="45.005750991404057" lon="5.653695948421955">
        <ele>550.4000244140625</ele>
        <time>2011-06-20T09:39:46Z</time>
      </trkpt>
      <trkpt lat="45.005147997289896" lon="5.653497967869043">
        <ele>552.20001220703125</ele>
        <time>2011-06-20T09:40:07Z</time>
      </trkpt>
      <trkpt lat="45.004644999280572" lon="5.653193956241012">
        <ele>554.20001220703125</ele>
        <time>2011-06-20T09:40:24Z</time>
      </trkpt>
      <trkpt lat="45.004159938544035" lon="5.653111981227994">
        <ele>555.79998779296875</ele>
        <time>2011-06-20T09:40:39Z</time>
      </trkpt>
      <trkpt lat="45.003587957471609" lon="5.653054984286428">
        <ele>557.4000244140625</ele>
        <time>2011-06-20T09:40:56Z</time>
      </trkpt>
      <trkpt lat="45.003123935312033" lon="5.653000921010971">
        <ele>560.20001220703125</ele>
        <time>2011-06-20T09:41:12Z</time>
      </trkpt>
      <trkpt lat="45.002711964771152" lon="5.653403922915459">
        <ele>566</ele>
        <time>2011-06-20T09:41:36Z</time>
      </trkpt>
      <trkpt lat="45.002551954239607" lon="5.654190983623266">
        <ele>573.20001220703125</ele>
        <time>2011-06-20T09:42:09Z</time>
      </trkpt>
      <trkpt lat="45.002176947891712" lon="5.654336996376514">
        <ele>574.5999755859375</ele>
        <time>2011-06-20T09:42:28Z</time>
      </trkpt>
      <trkpt lat="45.001601949334145" lon="5.654111942276359">
        <ele>576</ele>
        <time>2011-06-20T09:42:42Z</time>
      </trkpt>
      <trkpt lat="45.000838944688439" lon="5.653803991153836">
        <ele>578.5999755859375</ele>
        <time>2011-06-20T09:42:59Z</time>
      </trkpt>
      <trkpt lat="45.000082980841398" lon="5.653495956212282">
        <ele>581.20001220703125</ele>
        <time>2011-06-20T09:43:18Z</time>
      </trkpt>
      <trkpt lat="44.999509993940592" lon="5.653197979554534">
        <ele>583.4000244140625</ele>
        <time>2011-06-20T09:43:34Z</time>
      </trkpt>
      <trkpt lat="44.998880932107568" lon="5.652853986248374">
        <ele>585</ele>
        <time>2011-06-20T09:43:49Z</time>
      </trkpt>
      <trkpt lat="44.998457981273532" lon="5.652617951855063">
        <ele>585.4000244140625</ele>
        <time>2011-06-20T09:43:57Z</time>
      </trkpt>
      <trkpt lat="44.997861944139004" lon="5.652284938842058">
        <ele>586.4000244140625</ele>
        <time>2011-06-20T09:44:08Z</time>
      </trkpt>
      <trkpt lat="44.997389959171414" lon="5.652042953297496">
        <ele>587</ele>
        <time>2011-06-20T09:44:17Z</time>
      </trkpt>
      <trkpt lat="44.996903976425529" lon="5.651803985238075">
        <ele>588.20001220703125</ele>
        <time>2011-06-20T09:44:27Z</time>
      </trkpt>
      <trkpt lat="44.996010968461633" lon="5.651428978890181">
        <ele>591.20001220703125</ele>
        <time>2011-06-20T09:44:46Z</time>
      </trkpt>
      <trkpt lat="44.995496990159154" lon="5.651221945881844">
        <ele>592.79998779296875</ele>
        <time>2011-06-20T09:44:57Z</time>
      </trkpt>
      <trkpt lat="44.995051994919777" lon="5.651050955057144">
        <ele>594</ele>
        <time>2011-06-20T09:45:07Z</time>
      </trkpt>
      <trkpt lat="44.994122944772243" lon="5.65067695453763">
        <ele>596.5999755859375</ele>
        <time>2011-06-20T09:45:28Z</time>
      </trkpt>
      <trkpt lat="44.993430934846401" lon="5.650401944294572">
        <ele>601</ele>
        <time>2011-06-20T09:45:46Z</time>
      </trkpt>
      <trkpt lat="44.992931960150599" lon="5.650197928771377">
        <ele>604.5999755859375</ele>
        <time>2011-06-20T09:46:03Z</time>
      </trkpt>
      <trkpt lat="44.992324942722917" lon="5.649960972368717">
        <ele>608.20001220703125</ele>
        <time>2011-06-20T09:46:24Z</time>
      </trkpt>
      <trkpt lat="44.991705939173698" lon="5.649715969339013">
        <ele>610.20001220703125</ele>
        <time>2011-06-20T09:46:43Z</time>
      </trkpt>
      <trkpt lat="44.991036979481578" lon="5.649585966020823">
        <ele>611.4000244140625</ele>
        <time>2011-06-20T09:47:01Z</time>
      </trkpt>
      <trkpt lat="44.990359973162413" lon="5.649530980736017">
        <ele>614.20001220703125</ele>
        <time>2011-06-20T09:47:19Z</time>
      </trkpt>
      <trkpt lat="44.98977298848331" lon="5.649336939677596">
        <ele>618.4000244140625</ele>
        <time>2011-06-20T09:47:36Z</time>
      </trkpt>
      <trkpt lat="44.989310977980494" lon="5.649154968559742">
        <ele>622</ele>
        <time>2011-06-20T09:47:54Z</time>
      </trkpt>
      <trkpt lat="44.988833963871002" lon="5.64891591668129">
        <ele>625.79998779296875</ele>
        <time>2011-06-20T09:48:15Z</time>
      </trkpt>
      <trkpt lat="44.988368935883045" lon="5.64835692755878">
        <ele>628.79998779296875</ele>
        <time>2011-06-20T09:48:38Z</time>
      </trkpt>
      <trkpt lat="44.988002981990576" lon="5.648653982207179">
        <ele>630.79998779296875</ele>
        <time>2011-06-20T09:48:55Z</time>
      </trkpt>
      <trkpt lat="44.987424965947866" lon="5.648594973608851">
        <ele>634.79998779296875</ele>
        <time>2011-06-20T09:51:19Z</time>
      </trkpt>
      <trkpt lat="44.986992962658405" lon="5.648340918123722">
        <ele>637.20001220703125</ele>
        <time>2011-06-20T09:51:33Z</time>
      </trkpt>
      <trkpt lat="44.986465992406011" lon="5.648036990314722">
        <ele>641</ele>
        <time>2011-06-20T09:51:52Z</time>
      </trkpt>
      <trkpt lat="44.985945979133248" lon="5.647751921787858">
        <ele>644.79998779296875</ele>
        <time>2011-06-20T09:52:11Z</time>
      </trkpt>
      <trkpt lat="44.985255980864167" lon="5.647529968991876">
        <ele>650.4000244140625</ele>
        <time>2011-06-20T09:52:38Z</time>
      </trkpt>
      <trkpt lat="44.984683999791741" lon="5.647441959008575">
        <ele>654.79998779296875</ele>
        <time>2011-06-20T09:53:02Z</time>
      </trkpt>
      <trkpt lat="44.984107995405793" lon="5.647169966250658">
        <ele>659.4000244140625</ele>
        <time>2011-06-20T09:53:29Z</time>
      </trkpt>
      <trkpt lat="44.98352293856442" lon="5.646800994873047">
        <ele>664.4000244140625</ele>
        <time>2011-06-20T09:53:58Z</time>
      </trkpt>
      <trkpt lat="44.982995968312025" lon="5.646663950756192">
        <ele>668.79998779296875</ele>
        <time>2011-06-20T09:54:23Z</time>
      </trkpt>
      <trkpt lat="44.982421975582838" lon="5.646452978253365">
        <ele>673.5999755859375</ele>
        <time>2011-06-20T09:54:53Z</time>
      </trkpt>
      <trkpt lat="44.981791991740465" lon="5.646392963826656">
        <ele>678.20001220703125</ele>
        <time>2011-06-20T09:55:21Z</time>
      </trkpt>
      <trkpt lat="44.981109956279397" lon="5.646462952718139">
        <ele>682.4000244140625</ele>
        <time>2011-06-20T09:55:47Z</time>
      </trkpt>
      <trkpt lat="44.980568988248706" lon="5.64633596688509">
        <ele>685.20001220703125</ele>
        <time>2011-06-20T09:56:05Z</time>
      </trkpt>
      <trkpt lat="44.980013938620687" lon="5.646189954131842">
        <ele>688.20001220703125</ele>
        <time>2011-06-20T09:56:24Z</time>
      </trkpt>
      <trkpt lat="44.979527955874801" lon="5.646072942763567">
        <ele>691</ele>
        <time>2011-06-20T09:56:42Z</time>
      </trkpt>
      <trkpt lat="44.979041973128915" lon="5.645943945273757">
        <ele>694.20001220703125</ele>
        <time>2011-06-20T09:57:00Z</time>
      </trkpt>
      <trkpt lat="44.978507962077856" lon="5.645718974992633">
        <ele>698</ele>
        <time>2011-06-20T09:57:20Z</time>
      </trkpt>
      <trkpt lat="44.978081993758678" lon="5.645460980013013">
        <ele>701</ele>
        <time>2011-06-20T09:57:38Z</time>
      </trkpt>
      <trkpt lat="44.977654935792089" lon="5.645204996690154">
        <ele>703.5999755859375</ele>
        <time>2011-06-20T09:57:57Z</time>
      </trkpt>
      <trkpt lat="44.977219998836517" lon="5.645015984773636">
        <ele>706.79998779296875</ele>
        <time>2011-06-20T09:58:15Z</time>
      </trkpt>
      <trkpt lat="44.976643994450569" lon="5.644957982003689">
        <ele>711</ele>
        <time>2011-06-20T09:58:39Z</time>
      </trkpt>
      <trkpt lat="44.976071929559112" lon="5.644921939820051">
        <ele>715.20001220703125</ele>
        <time>2011-06-20T09:59:03Z</time>
      </trkpt>
      <trkpt lat="44.975548982620239" lon="5.644854968413711">
        <ele>719.4000244140625</ele>
        <time>2011-06-20T09:59:28Z</time>
      </trkpt>
      <trkpt lat="44.975065933540463" lon="5.644788919016719">
        <ele>723</ele>
        <time>2011-06-20T09:59:51Z</time>
      </trkpt>
      <trkpt lat="44.974506944417953" lon="5.644698981195688">
        <ele>727.20001220703125</ele>
        <time>2011-06-20T10:00:18Z</time>
      </trkpt>
      <trkpt lat="44.973952984437346" lon="5.644549950957298">
        <ele>731.5999755859375</ele>
        <time>2011-06-20T10:00:45Z</time>
      </trkpt>
      <trkpt lat="44.973431965336204" lon="5.644374936819077">
        <ele>735.5999755859375</ele>
        <time>2011-06-20T10:01:09Z</time>
      </trkpt>
      <trkpt lat="44.972851937636733" lon="5.644175950437784">
        <ele>739.5999755859375</ele>
        <time>2011-06-20T10:01:33Z</time>
      </trkpt>
      <trkpt lat="44.97228498570621" lon="5.643981993198395">
        <ele>742.4000244140625</ele>
        <time>2011-06-20T10:01:53Z</time>
      </trkpt>
      <trkpt lat="44.971593981608748" lon="5.643732966855168">
        <ele>745.5999755859375</ele>
        <time>2011-06-20T10:02:16Z</time>
      </trkpt>
      <trkpt lat="44.971002973616123" lon="5.643529957160354">
        <ele>748.20001220703125</ele>
        <time>2011-06-20T10:02:36Z</time>
      </trkpt>
      <trkpt lat="44.970341976732016" lon="5.643293922767043">
        <ele>752.79998779296875</ele>
        <time>2011-06-20T10:03:02Z</time>
      </trkpt>
      <trkpt lat="44.969731941819191" lon="5.643097953870893">
        <ele>757.20001220703125</ele>
        <time>2011-06-20T10:03:28Z</time>
      </trkpt>
      <trkpt lat="44.969056947156787" lon="5.642986977472901">
        <ele>762.4000244140625</ele>
        <time>2011-06-20T10:03:57Z</time>
      </trkpt>
      <trkpt lat="44.968598959967494" lon="5.64296099357307">
        <ele>765.5999755859375</ele>
        <time>2011-06-20T10:04:17Z</time>
      </trkpt>
      <trkpt lat="44.968018932268023" lon="5.643020924180746">
        <ele>769.79998779296875</ele>
        <time>2011-06-20T10:04:43Z</time>
      </trkpt>
      <trkpt lat="44.967527920380235" lon="5.643127961084247">
        <ele>772.79998779296875</ele>
        <time>2011-06-20T10:05:05Z</time>
      </trkpt>
      <trkpt lat="44.967079991474748" lon="5.643210941925645">
        <ele>774.4000244140625</ele>
        <time>2011-06-20T10:05:21Z</time>
      </trkpt>
      <trkpt lat="44.966624937951565" lon="5.643316973000765">
        <ele>775.79998779296875</ele>
        <time>2011-06-20T10:05:36Z</time>
      </trkpt>
      <trkpt lat="44.966068966314197" lon="5.643499949947">
        <ele>777.4000244140625</ele>
        <time>2011-06-20T10:05:52Z</time>
      </trkpt>
      <trkpt lat="44.96558097191155" lon="5.643708994612098">
        <ele>779</ele>
        <time>2011-06-20T10:06:07Z</time>
      </trkpt>
      <trkpt lat="44.96511192061007" lon="5.643955925479531">
        <ele>780.5999755859375</ele>
        <time>2011-06-20T10:06:19Z</time>
      </trkpt>
      <trkpt lat="44.964457964524627" lon="5.644369991496205">
        <ele>782.79998779296875</ele>
        <time>2011-06-20T10:06:37Z</time>
      </trkpt>
      <trkpt lat="44.96386393904686" lon="5.644844993948937">
        <ele>785.5999755859375</ele>
        <time>2011-06-20T10:06:56Z</time>
      </trkpt>
      <trkpt lat="44.963386924937367" lon="5.645285965874791">
        <ele>788.5999755859375</ele>
        <time>2011-06-20T10:07:15Z</time>
      </trkpt>
      <trkpt lat="44.962883926928043" lon="5.645754933357239">
        <ele>791.4000244140625</ele>
        <time>2011-06-20T10:07:37Z</time>
      </trkpt>
      <trkpt lat="44.962440943345428" lon="5.646166987717152">
        <ele>794.20001220703125</ele>
        <time>2011-06-20T10:07:55Z</time>
      </trkpt>
      <trkpt lat="44.962013969197869" lon="5.646564960479736">
        <ele>796.79998779296875</ele>
        <time>2011-06-20T10:08:13Z</time>
      </trkpt>
      <trkpt lat="44.961617924273014" lon="5.646933931857348">
        <ele>799.20001220703125</ele>
        <time>2011-06-20T10:08:29Z</time>
      </trkpt>
      <trkpt lat="44.96115792542696" lon="5.647357972338796">
        <ele>802</ele>
        <time>2011-06-20T10:08:49Z</time>
      </trkpt>
      <trkpt lat="44.960721982643008" lon="5.647763991728425">
        <ele>804.79998779296875</ele>
        <time>2011-06-20T10:09:10Z</time>
      </trkpt>
      <trkpt lat="44.960337923839688" lon="5.64820596948266">
        <ele>807.4000244140625</ele>
        <time>2011-06-20T10:09:30Z</time>
      </trkpt>
      <trkpt lat="44.960089987143874" lon="5.648954976350069">
        <ele>809.79998779296875</ele>
        <time>2011-06-20T10:09:51Z</time>
      </trkpt>
      <trkpt lat="44.959888989105821" lon="5.649590995162725">
        <ele>810.20001220703125</ele>
        <time>2011-06-20T10:10:08Z</time>
      </trkpt>
      <trkpt lat="44.959805924445391" lon="5.650306977331638">
        <ele>811.4000244140625</ele>
        <time>2011-06-20T10:10:23Z</time>
      </trkpt>
      <trkpt lat="44.95949998497963" lon="5.651193950325251">
        <ele>811.4000244140625</ele>
        <time>2011-06-20T10:10:38Z</time>
      </trkpt>
      <trkpt lat="44.959077956154943" lon="5.652160970494151">
        <ele>813.4000244140625</ele>
        <time>2011-06-20T10:10:56Z</time>
      </trkpt>
      <trkpt lat="44.958610916510224" lon="5.6529959756881">
        <ele>815.79998779296875</ele>
        <time>2011-06-20T10:11:12Z</time>
      </trkpt>
      <trkpt lat="44.957956960424781" lon="5.653844978660345">
        <ele>818.4000244140625</ele>
        <time>2011-06-20T10:11:31Z</time>
      </trkpt>
      <trkpt lat="44.95743996463716" lon="5.654330961406231">
        <ele>820.20001220703125</ele>
        <time>2011-06-20T10:11:47Z</time>
      </trkpt>
      <trkpt lat="44.956868989393115" lon="5.654722983017564">
        <ele>822</ele>
        <time>2011-06-20T10:12:04Z</time>
      </trkpt>
      <trkpt lat="44.956088969483972" lon="5.654925992712379">
        <ele>824.20001220703125</ele>
        <time>2011-06-20T10:12:24Z</time>
      </trkpt>
      <trkpt lat="44.955279948189855" lon="5.654763970524073">
        <ele>827</ele>
        <time>2011-06-20T10:12:44Z</time>
      </trkpt>
      <trkpt lat="44.954466987401247" lon="5.654528941959143">
        <ele>830.20001220703125</ele>
        <time>2011-06-20T10:13:05Z</time>
      </trkpt>
      <trkpt lat="44.953762991353869" lon="5.654319981113076">
        <ele>833</ele>
        <time>2011-06-20T10:13:25Z</time>
      </trkpt>
      <trkpt lat="44.953264938667417" lon="5.65417799167335">
        <ele>834.4000244140625</ele>
        <time>2011-06-20T10:13:40Z</time>
      </trkpt>
      <trkpt lat="44.952827990055084" lon="5.65407196059823">
        <ele>835.79998779296875</ele>
        <time>2011-06-20T10:15:44Z</time>
      </trkpt>
      <trkpt lat="44.95189793407917" lon="5.653777923434973">
        <ele>837.4000244140625</ele>
        <time>2011-06-20T10:16:06Z</time>
      </trkpt>
      <trkpt lat="44.951030993834138" lon="5.653503919020295">
        <ele>838.4000244140625</ele>
        <time>2011-06-20T10:16:24Z</time>
      </trkpt>
      <trkpt lat="44.950556997209787" lon="5.653300993144512">
        <ele>839.20001220703125</ele>
        <time>2011-06-20T10:16:33Z</time>
      </trkpt>
      <trkpt lat="44.950123988091946" lon="5.652943924069405">
        <ele>841.20001220703125</ele>
        <time>2011-06-20T10:16:46Z</time>
      </trkpt>
      <trkpt lat="44.949884936213493" lon="5.652405973523855">
        <ele>842.20001220703125</ele>
        <time>2011-06-20T10:16:59Z</time>
      </trkpt>
      <trkpt lat="44.949115980416536" lon="5.651763919740915">
        <ele>845.5999755859375</ele>
        <time>2011-06-20T10:17:19Z</time>
      </trkpt>
      <trkpt lat="44.948483984917402" lon="5.651480946689844">
        <ele>848</ele>
        <time>2011-06-20T10:17:35Z</time>
      </trkpt>
      <trkpt lat="44.947955925017595" lon="5.651116920635104">
        <ele>850.5999755859375</ele>
        <time>2011-06-20T10:20:41Z</time>
      </trkpt>
      <trkpt lat="44.947286965325475" lon="5.650581987574697">
        <ele>853.4000244140625</ele>
        <time>2011-06-20T10:21:01Z</time>
      </trkpt>
      <trkpt lat="44.946735939010978" lon="5.650167921558023">
        <ele>856</ele>
        <time>2011-06-20T10:21:18Z</time>
      </trkpt>
      <trkpt lat="44.946214919909835" lon="5.649617984890938">
        <ele>858.5999755859375</ele>
        <time>2011-06-20T10:21:35Z</time>
      </trkpt>
      <trkpt lat="44.945894982665777" lon="5.648843999952078">
        <ele>861.4000244140625</ele>
        <time>2011-06-20T10:21:52Z</time>
      </trkpt>
      <trkpt lat="44.945778977125883" lon="5.648066997528076">
        <ele>864.20001220703125</ele>
        <time>2011-06-20T10:22:07Z</time>
      </trkpt>
      <trkpt lat="44.945544954389334" lon="5.647275997325778">
        <ele>866.5999755859375</ele>
        <time>2011-06-20T10:22:24Z</time>
      </trkpt>
      <trkpt lat="44.945238931104541" lon="5.646642995998263">
        <ele>868.4000244140625</ele>
        <time>2011-06-20T10:22:40Z</time>
      </trkpt>
      <trkpt lat="44.944951934739947" lon="5.646063974127173">
        <ele>870.5999755859375</ele>
        <time>2011-06-20T10:22:56Z</time>
      </trkpt>
      <trkpt lat="44.944920921698213" lon="5.645281942561269">
        <ele>873.79998779296875</ele>
        <time>2011-06-20T10:23:17Z</time>
      </trkpt>
      <trkpt lat="44.944738950580359" lon="5.644527990370989">
        <ele>874</ele>
        <time>2011-06-20T10:23:30Z</time>
      </trkpt>
      <trkpt lat="44.94454993866384" lon="5.643837992101908">
        <ele>874</ele>
        <time>2011-06-20T10:23:40Z</time>
      </trkpt>
      <trkpt lat="44.94424894452095" lon="5.643246984109283">
        <ele>874</ele>
        <time>2011-06-20T10:23:50Z</time>
      </trkpt>
      <trkpt lat="44.943876955658197" lon="5.642829984426498">
        <ele>874.20001220703125</ele>
        <time>2011-06-20T10:23:59Z</time>
      </trkpt>
      <trkpt lat="44.94336892850697" lon="5.642742980271578">
        <ele>873.5999755859375</ele>
        <time>2011-06-20T10:24:08Z</time>
      </trkpt>
      <trkpt lat="44.942564936354756" lon="5.642867954447866">
        <ele>870</ele>
        <time>2011-06-20T10:24:17Z</time>
      </trkpt>
      <trkpt lat="44.942081971094012" lon="5.642710961401463">
        <ele>867.79998779296875</ele>
        <time>2011-06-20T10:24:22Z</time>
      </trkpt>
      <trkpt lat="44.941123919561505" lon="5.642519937828183">
        <ele>862.5999755859375</ele>
        <time>2011-06-20T10:24:31Z</time>
      </trkpt>
      <trkpt lat="44.940662998706102" lon="5.642438968643546">
        <ele>860.5999755859375</ele>
        <time>2011-06-20T10:24:35Z</time>
      </trkpt>
      <trkpt lat="44.939829921349883" lon="5.642331931740046">
        <ele>857.20001220703125</ele>
        <time>2011-06-20T10:24:42Z</time>
      </trkpt>
      <trkpt lat="44.939265986904502" lon="5.642139986157417">
        <ele>853.79998779296875</ele>
        <time>2011-06-20T10:24:47Z</time>
      </trkpt>
      <trkpt lat="44.938704986125231" lon="5.642056921496987">
        <ele>851.4000244140625</ele>
        <time>2011-06-20T10:24:52Z</time>
      </trkpt>
      <trkpt lat="44.938102997839451" lon="5.642203940078616">
        <ele>848.4000244140625</ele>
        <time>2011-06-20T10:24:57Z</time>
      </trkpt>
      <trkpt lat="44.937275955453515" lon="5.642179967835546">
        <ele>844.20001220703125</ele>
        <time>2011-06-20T10:25:04Z</time>
      </trkpt>
      <trkpt lat="44.936202988028526" lon="5.642260937020183">
        <ele>838.4000244140625</ele>
        <time>2011-06-20T10:25:13Z</time>
      </trkpt>
      <trkpt lat="44.935220964252949" lon="5.642169993370771">
        <ele>833.5999755859375</ele>
        <time>2011-06-20T10:25:21Z</time>
      </trkpt>
      <trkpt lat="44.934229971840978" lon="5.642010988667607">
        <ele>827.5999755859375</ele>
        <time>2011-06-20T10:25:29Z</time>
      </trkpt>
      <trkpt lat="44.933694954961538" lon="5.642168987542391">
        <ele>825</ele>
        <time>2011-06-20T10:25:33Z</time>
      </trkpt>
      <trkpt lat="44.932763976976275" lon="5.642088940367103">
        <ele>820.5999755859375</ele>
        <time>2011-06-20T10:25:41Z</time>
      </trkpt>
      <trkpt lat="44.932039948180318" lon="5.641969917342067">
        <ele>816.20001220703125</ele>
        <time>2011-06-20T10:25:47Z</time>
      </trkpt>
      <trkpt lat="44.931207960471511" lon="5.641503967344761">
        <ele>810.79998779296875</ele>
        <time>2011-06-20T10:25:54Z</time>
      </trkpt>
      <trkpt lat="44.930266924202442" lon="5.641492987051606">
        <ele>804.5999755859375</ele>
        <time>2011-06-20T10:26:01Z</time>
      </trkpt>
      <trkpt lat="44.929354973137379" lon="5.641370946541429">
        <ele>802.20001220703125</ele>
        <time>2011-06-20T10:26:08Z</time>
      </trkpt>
      <trkpt lat="44.92860596626997" lon="5.641197944059968">
        <ele>802.4000244140625</ele>
        <time>2011-06-20T10:26:16Z</time>
      </trkpt>
      <trkpt lat="44.928032979369164" lon="5.641015972942114">
        <ele>801.20001220703125</ele>
        <time>2011-06-20T10:26:23Z</time>
      </trkpt>
      <trkpt lat="44.927740953862667" lon="5.640473999083042">
        <ele>797.4000244140625</ele>
        <time>2011-06-20T10:26:31Z</time>
      </trkpt>
      <trkpt lat="44.927513971924782" lon="5.639898916706443">
        <ele>795.79998779296875</ele>
        <time>2011-06-20T10:26:37Z</time>
      </trkpt>
      <trkpt lat="44.926904942840338" lon="5.639188969507814">
        <ele>794</ele>
        <time>2011-06-20T10:26:46Z</time>
      </trkpt>
      <trkpt lat="44.926418960094452" lon="5.63862394541502">
        <ele>794.20001220703125</ele>
        <time>2011-06-20T10:26:54Z</time>
      </trkpt>
      <trkpt lat="44.925981927663088" lon="5.638359999284148">
        <ele>794.5999755859375</ele>
        <time>2011-06-20T10:27:02Z</time>
      </trkpt>
      <trkpt lat="44.925694931298494" lon="5.637876950204372">
        <ele>795.20001220703125</ele>
        <time>2011-06-20T10:27:14Z</time>
      </trkpt>
      <trkpt lat="44.925102917477489" lon="5.63773998990655">
        <ele>796.20001220703125</ele>
        <time>2011-06-20T10:27:26Z</time>
      </trkpt>
      <trkpt lat="44.924211921170354" lon="5.637448970228434">
        <ele>798.4000244140625</ele>
        <time>2011-06-20T10:27:45Z</time>
      </trkpt>
      <trkpt lat="44.92347196675837" lon="5.637189969420433">
        <ele>798.79998779296875</ele>
        <time>2011-06-20T10:28:02Z</time>
      </trkpt>
      <trkpt lat="44.922574935480952" lon="5.636910935863853">
        <ele>800.4000244140625</ele>
        <time>2011-06-20T10:28:20Z</time>
      </trkpt>
      <trkpt lat="44.921653931960464" lon="5.636618994176388">
        <ele>800.79998779296875</ele>
        <time>2011-06-20T10:28:37Z</time>
      </trkpt>
      <trkpt lat="44.921141965314746" lon="5.63608598895371">
        <ele>800.4000244140625</ele>
        <time>2011-06-20T10:28:51Z</time>
      </trkpt>
      <trkpt lat="44.920717924833298" lon="5.636305930092931">
        <ele>801</ele>
        <time>2011-06-20T10:29:01Z</time>
      </trkpt>
      <trkpt lat="44.91988493129611" lon="5.636073919013143">
        <ele>802.5999755859375</ele>
        <time>2011-06-20T10:29:21Z</time>
      </trkpt>
      <trkpt lat="44.91934597492218" lon="5.635878955945373">
        <ele>804.4000244140625</ele>
        <time>2011-06-20T10:29:36Z</time>
      </trkpt>
      <trkpt lat="44.9188959505409" lon="5.635768985375762">
        <ele>806</ele>
        <time>2011-06-20T10:29:52Z</time>
      </trkpt>
      <trkpt lat="44.918428994715214" lon="5.635600928217173">
        <ele>808.20001220703125</ele>
        <time>2011-06-20T10:30:09Z</time>
      </trkpt>
      <trkpt lat="44.918209975585341" lon="5.635650968179107">
        <ele>811</ele>
        <time>2011-06-20T10:30:52Z</time>
      </trkpt>
      <trkpt lat="44.917996991425753" lon="5.636203922331333">
        <ele>827</ele>
        <time>2011-06-20T11:12:45Z</time>
      </trkpt>
      <trkpt lat="44.91743297316134" lon="5.636163940653205">
        <ele>829.79998779296875</ele>
        <time>2011-06-20T11:13:09Z</time>
      </trkpt>
      <trkpt lat="44.916924946010113" lon="5.635968977585435">
        <ele>832.79998779296875</ele>
        <time>2011-06-20T11:13:27Z</time>
      </trkpt>
      <trkpt lat="44.916304936632514" lon="5.636050952598453">
        <ele>839.20001220703125</ele>
        <time>2011-06-20T11:13:52Z</time>
      </trkpt>
      <trkpt lat="44.915804956108332" lon="5.635899994522333">
        <ele>841</ele>
        <time>2011-06-20T11:14:10Z</time>
      </trkpt>
      <trkpt lat="44.915385944768786" lon="5.635657925158739">
        <ele>841</ele>
        <time>2011-06-20T11:14:23Z</time>
      </trkpt>
      <trkpt lat="44.914933992549777" lon="5.635354919359088">
        <ele>842.20001220703125</ele>
        <time>2011-06-20T11:14:37Z</time>
      </trkpt>
      <trkpt lat="44.914284981787205" lon="5.635005980730057">
        <ele>842.79998779296875</ele>
        <time>2011-06-20T11:14:54Z</time>
      </trkpt>
      <trkpt lat="44.913821965456009" lon="5.634523937478662">
        <ele>843.20001220703125</ele>
        <time>2011-06-20T11:15:05Z</time>
      </trkpt>
      <trkpt lat="44.913978958502412" lon="5.633777948096395">
        <ele>847.5999755859375</ele>
        <time>2011-06-20T11:15:22Z</time>
      </trkpt>
      <trkpt lat="44.914083983749151" lon="5.633197920396924">
        <ele>849.20001220703125</ele>
        <time>2011-06-20T11:15:49Z</time>
      </trkpt>
      <trkpt lat="44.913471937179565" lon="5.63286691904068">
        <ele>852</ele>
        <time>2011-06-20T11:16:10Z</time>
      </trkpt>
      <trkpt lat="44.913033982738853" lon="5.632584951817989">
        <ele>853.5999755859375</ele>
        <time>2011-06-20T11:16:23Z</time>
      </trkpt>
      <trkpt lat="44.912534924224019" lon="5.632333997637034">
        <ele>855.20001220703125</ele>
        <time>2011-06-20T11:16:37Z</time>
      </trkpt>
      <trkpt lat="44.912086995318532" lon="5.63209293410182">
        <ele>856.5999755859375</ele>
        <time>2011-06-20T11:16:48Z</time>
      </trkpt>
      <trkpt lat="44.911529934033751" lon="5.631766961887479">
        <ele>858.79998779296875</ele>
        <time>2011-06-20T11:17:04Z</time>
      </trkpt>
      <trkpt lat="44.911049986258149" lon="5.631515923887491">
        <ele>861.4000244140625</ele>
        <time>2011-06-20T11:17:20Z</time>
      </trkpt>
      <trkpt lat="44.910563919693232" lon="5.63123194500804">
        <ele>864</ele>
        <time>2011-06-20T11:17:36Z</time>
      </trkpt>
      <trkpt lat="44.910091934725642" lon="5.630957940593362">
        <ele>868</ele>
        <time>2011-06-20T11:17:54Z</time>
      </trkpt>
      <trkpt lat="44.909464968368411" lon="5.63063096255064">
        <ele>873.4000244140625</ele>
        <time>2011-06-20T11:18:20Z</time>
      </trkpt>
      <trkpt lat="44.908890975639224" lon="5.630263919010758">
        <ele>878.79998779296875</ele>
        <time>2011-06-20T11:18:48Z</time>
      </trkpt>
      <trkpt lat="44.908397952094674" lon="5.629745917394757">
        <ele>883.5999755859375</ele>
        <time>2011-06-20T11:19:14Z</time>
      </trkpt>
      <trkpt lat="44.908045995980501" lon="5.629077963531017">
        <ele>888</ele>
        <time>2011-06-20T11:19:40Z</time>
      </trkpt>
      <trkpt lat="44.907825971022248" lon="5.628449991345406">
        <ele>892</ele>
        <time>2011-06-20T11:20:02Z</time>
      </trkpt>
      <trkpt lat="44.907940970733762" lon="5.627634935081005">
        <ele>896.5999755859375</ele>
        <time>2011-06-20T11:20:29Z</time>
      </trkpt>
      <trkpt lat="44.908149931579828" lon="5.62702096067369">
        <ele>898.5999755859375</ele>
        <time>2011-06-20T11:20:47Z</time>
      </trkpt>
      <trkpt lat="44.908302985131741" lon="5.626333979889751">
        <ele>899</ele>
        <time>2011-06-20T11:21:02Z</time>
      </trkpt>
      <trkpt lat="44.907815996557474" lon="5.626288969069719">
        <ele>900</ele>
        <time>2011-06-20T11:21:15Z</time>
      </trkpt>
      <trkpt lat="44.907199926674366" lon="5.626409919932485">
        <ele>900.20001220703125</ele>
        <time>2011-06-20T11:21:25Z</time>
      </trkpt>
      <trkpt lat="44.906344972550869" lon="5.626101968809962">
        <ele>903</ele>
        <time>2011-06-20T11:21:40Z</time>
      </trkpt>
      <trkpt lat="44.905947921797633" lon="5.62579695135355">
        <ele>904.20001220703125</ele>
        <time>2011-06-20T11:21:49Z</time>
      </trkpt>
      <trkpt lat="44.905367977917194" lon="5.625076945871115">
        <ele>905.20001220703125</ele>
        <time>2011-06-20T11:22:04Z</time>
      </trkpt>
      <trkpt lat="44.904935974627733" lon="5.624052928760648">
        <ele>902.4000244140625</ele>
        <time>2011-06-20T11:22:15Z</time>
      </trkpt>
      <trkpt lat="44.904762972146273" lon="5.623259916901588">
        <ele>900.20001220703125</ele>
        <time>2011-06-20T11:22:21Z</time>
      </trkpt>
      <trkpt lat="44.904564991593361" lon="5.62240295112133">
        <ele>897.79998779296875</ele>
        <time>2011-06-20T11:22:27Z</time>
      </trkpt>
      <trkpt lat="44.90432895720005" lon="5.621859971433878">
        <ele>895.5999755859375</ele>
        <time>2011-06-20T11:22:31Z</time>
      </trkpt>
      <trkpt lat="44.903907934203744" lon="5.621231999248266">
        <ele>893.20001220703125</ele>
        <time>2011-06-20T11:22:36Z</time>
      </trkpt>
      <trkpt lat="44.90306094288826" lon="5.620066998526454">
        <ele>886.79998779296875</ele>
        <time>2011-06-20T11:22:45Z</time>
      </trkpt>
      <trkpt lat="44.902376979589462" lon="5.619122944772244">
        <ele>882</ele>
        <time>2011-06-20T11:22:52Z</time>
      </trkpt>
      <trkpt lat="44.901692932471633" lon="5.618196995928884">
        <ele>877.5999755859375</ele>
        <time>2011-06-20T11:22:59Z</time>
      </trkpt>
      <trkpt lat="44.901137966662645" lon="5.617091925814748">
        <ele>872</ele>
        <time>2011-06-20T11:23:06Z</time>
      </trkpt>
      <trkpt lat="44.900905955582857" lon="5.616357922554016">
        <ele>869.20001220703125</ele>
        <time>2011-06-20T11:23:10Z</time>
      </trkpt>
      <trkpt lat="44.900498930364847" lon="5.61550498008728">
        <ele>865.79998779296875</ele>
        <time>2011-06-20T11:23:15Z</time>
      </trkpt>
      <trkpt lat="44.899864923208952" lon="5.615062918514013">
        <ele>862.5999755859375</ele>
        <time>2011-06-20T11:23:20Z</time>
      </trkpt>
      <trkpt lat="44.898937968537211" lon="5.61494892463088">
        <ele>860.20001220703125</ele>
        <time>2011-06-20T11:23:27Z</time>
      </trkpt>
      <trkpt lat="44.898185944184661" lon="5.614891927689314">
        <ele>858.4000244140625</ele>
        <time>2011-06-20T11:23:33Z</time>
      </trkpt>
      <trkpt lat="44.897703984752297" lon="5.614983960986137">
        <ele>857.5999755859375</ele>
        <time>2011-06-20T11:23:37Z</time>
      </trkpt>
      <trkpt lat="44.897249937057495" lon="5.615181941539049">
        <ele>857</ele>
        <time>2011-06-20T11:23:41Z</time>
      </trkpt>
      <trkpt lat="44.896259950473905" lon="5.615629954263568">
        <ele>855.79998779296875</ele>
        <time>2011-06-20T11:23:50Z</time>
      </trkpt>
      <trkpt lat="44.895547991618514" lon="5.616004960611463">
        <ele>855.20001220703125</ele>
        <time>2011-06-20T11:23:57Z</time>
      </trkpt>
      <trkpt lat="44.895025966688991" lon="5.616466971114278">
        <ele>854.20001220703125</ele>
        <time>2011-06-20T11:24:03Z</time>
      </trkpt>
      <trkpt lat="44.89422993734479" lon="5.617239950224757">
        <ele>852.4000244140625</ele>
        <time>2011-06-20T11:24:13Z</time>
      </trkpt>
      <trkpt lat="44.893739931285381" lon="5.617612944915891">
        <ele>851.5999755859375</ele>
        <time>2011-06-20T11:24:19Z</time>
      </trkpt>
      <trkpt lat="44.893223941326141" lon="5.617836993187666">
        <ele>851</ele>
        <time>2011-06-20T11:24:25Z</time>
      </trkpt>
      <trkpt lat="44.892698982730508" lon="5.617917962372303">
        <ele>850.4000244140625</ele>
        <time>2011-06-20T11:24:31Z</time>
      </trkpt>
      <trkpt lat="44.892193973064423" lon="5.617860965430737">
        <ele>850</ele>
        <time>2011-06-20T11:24:37Z</time>
      </trkpt>
      <trkpt lat="44.891633978113532" lon="5.617643957957625">
        <ele>848.4000244140625</ele>
        <time>2011-06-20T11:24:44Z</time>
      </trkpt>
      <trkpt lat="44.891189988702536" lon="5.617335923016071">
        <ele>848.20001220703125</ele>
        <time>2011-06-20T11:24:50Z</time>
      </trkpt>
      <trkpt lat="44.890798972919583" lon="5.616928981617093">
        <ele>848.20001220703125</ele>
        <time>2011-06-20T11:24:56Z</time>
      </trkpt>
      <trkpt lat="44.890361940488219" lon="5.616283994168043">
        <ele>848.79998779296875</ele>
        <time>2011-06-20T11:25:04Z</time>
      </trkpt>
      <trkpt lat="44.88997595384717" lon="5.615773955360055">
        <ele>848.20001220703125</ele>
        <time>2011-06-20T11:25:11Z</time>
      </trkpt>
      <trkpt lat="44.889121921733022" lon="5.615333989262581">
        <ele>845.79998779296875</ele>
        <time>2011-06-20T11:25:22Z</time>
      </trkpt>
      <trkpt lat="44.888504929840565" lon="5.615147994831204">
        <ele>846.4000244140625</ele>
        <time>2011-06-20T11:25:30Z</time>
      </trkpt>
      <trkpt lat="44.888048954308033" lon="5.615002987906337">
        <ele>847.20001220703125</ele>
        <time>2011-06-20T11:25:37Z</time>
      </trkpt>
      <trkpt lat="44.887205986306071" lon="5.614997958764434">
        <ele>845.20001220703125</ele>
        <time>2011-06-20T11:25:48Z</time>
      </trkpt>
      <trkpt lat="44.886779934167862" lon="5.615223934873939">
        <ele>844.20001220703125</ele>
        <time>2011-06-20T11:25:53Z</time>
      </trkpt>
      <trkpt lat="44.886400988325477" lon="5.615603970363736">
        <ele>843.4000244140625</ele>
        <time>2011-06-20T11:25:58Z</time>
      </trkpt>
      <trkpt lat="44.885728927329183" lon="5.616442998871207">
        <ele>842.20001220703125</ele>
        <time>2011-06-20T11:26:08Z</time>
      </trkpt>
      <trkpt lat="44.885123921558261" lon="5.617185970768333">
        <ele>841.4000244140625</ele>
        <time>2011-06-20T11:26:17Z</time>
      </trkpt>
      <trkpt lat="44.884413974359632" lon="5.618025921285152">
        <ele>840.20001220703125</ele>
        <time>2011-06-20T11:26:27Z</time>
      </trkpt>
      <trkpt lat="44.883909970521927" lon="5.618417942896485">
        <ele>839.5999755859375</ele>
        <time>2011-06-20T11:26:33Z</time>
      </trkpt>
      <trkpt lat="44.883017968386412" lon="5.618886994197965">
        <ele>839</ele>
        <time>2011-06-20T11:26:43Z</time>
      </trkpt>
      <trkpt lat="44.882276924327016" lon="5.619141971692443">
        <ele>837.79998779296875</ele>
        <time>2011-06-20T11:26:51Z</time>
      </trkpt>
      <trkpt lat="44.881484918296337" lon="5.619447994977236">
        <ele>838</ele>
        <time>2011-06-20T11:27:00Z</time>
      </trkpt>
      <trkpt lat="44.881069930270314" lon="5.619762986898422">
        <ele>838.79998779296875</ele>
        <time>2011-06-20T11:27:06Z</time>
      </trkpt>
      <trkpt lat="44.88060892559588" lon="5.620241928845644">
        <ele>839.4000244140625</ele>
        <time>2011-06-20T11:27:14Z</time>
      </trkpt>
      <trkpt lat="44.880286976695061" lon="5.620699999853969">
        <ele>840</ele>
        <time>2011-06-20T11:27:21Z</time>
      </trkpt>
      <trkpt lat="44.879848938435316" lon="5.621439954265952">
        <ele>841</ele>
        <time>2011-06-20T11:27:32Z</time>
      </trkpt>
      <trkpt lat="44.879461945965886" lon="5.622089970856905">
        <ele>842.20001220703125</ele>
        <time>2011-06-20T11:27:42Z</time>
      </trkpt>
      <trkpt lat="44.8791469540447" lon="5.622615935280919">
        <ele>844</ele>
        <time>2011-06-20T11:27:51Z</time>
      </trkpt>
      <trkpt lat="44.878832967951894" lon="5.623154975473881">
        <ele>845.20001220703125</ele>
        <time>2011-06-20T11:28:01Z</time>
      </trkpt>
      <trkpt lat="44.878533985465765" lon="5.62366995960474">
        <ele>847.20001220703125</ele>
        <time>2011-06-20T11:28:13Z</time>
      </trkpt>
      <trkpt lat="44.878225950524211" lon="5.624179998412728">
        <ele>848.5999755859375</ele>
        <time>2011-06-20T11:28:24Z</time>
      </trkpt>
      <trkpt lat="44.877548944205046" lon="5.624931938946247">
        <ele>852</ele>
        <time>2011-06-20T11:28:44Z</time>
      </trkpt>
      <trkpt lat="44.876788957044482" lon="5.625356985256076">
        <ele>852.79998779296875</ele>
        <time>2011-06-20T11:29:02Z</time>
      </trkpt>
      <trkpt lat="44.876281935721636" lon="5.625479947775602">
        <ele>852.4000244140625</ele>
        <time>2011-06-20T11:29:11Z</time>
      </trkpt>
      <trkpt lat="44.875418934971094" lon="5.625384980812669">
        <ele>850.79998779296875</ele>
        <time>2011-06-20T11:29:23Z</time>
      </trkpt>
      <trkpt lat="44.874878972768784" lon="5.625132936984301">
        <ele>849.4000244140625</ele>
        <time>2011-06-20T11:29:30Z</time>
      </trkpt>
      <trkpt lat="44.874300956726074" lon="5.624793972820044">
        <ele>848</ele>
        <time>2011-06-20T11:29:37Z</time>
      </trkpt>
      <trkpt lat="44.87375495955348" lon="5.624387953430414">
        <ele>848.5999755859375</ele>
        <time>2011-06-20T11:29:44Z</time>
      </trkpt>
      <trkpt lat="44.873317927122116" lon="5.623984951525927">
        <ele>849.4000244140625</ele>
        <time>2011-06-20T11:29:51Z</time>
      </trkpt>
      <trkpt lat="44.872911991551518" lon="5.623554959893227">
        <ele>850.4000244140625</ele>
        <time>2011-06-20T11:29:59Z</time>
      </trkpt>
      <trkpt lat="44.872426930814981" lon="5.622965963557363">
        <ele>852.4000244140625</ele>
        <time>2011-06-20T11:30:10Z</time>
      </trkpt>
      <trkpt lat="44.872023928910494" lon="5.62246891669929">
        <ele>853.4000244140625</ele>
        <time>2011-06-20T11:30:20Z</time>
      </trkpt>
      <trkpt lat="44.871598966419697" lon="5.62194898724556">
        <ele>853.5999755859375</ele>
        <time>2011-06-20T11:30:30Z</time>
      </trkpt>
      <trkpt lat="44.871254973113537" lon="5.621525952592492">
        <ele>853</ele>
        <time>2011-06-20T11:30:37Z</time>
      </trkpt>
      <trkpt lat="44.87083294428885" lon="5.62100694514811">
        <ele>852</ele>
        <time>2011-06-20T11:30:44Z</time>
      </trkpt>
      <trkpt lat="44.870268926024437" lon="5.62031795270741">
        <ele>850.4000244140625</ele>
        <time>2011-06-20T11:30:52Z</time>
      </trkpt>
      <trkpt lat="44.869442973285913" lon="5.619316985830665">
        <ele>848.20001220703125</ele>
        <time>2011-06-20T11:31:03Z</time>
      </trkpt>
      <trkpt lat="44.868795974180102" lon="5.618522968143225">
        <ele>847.4000244140625</ele>
        <time>2011-06-20T11:31:12Z</time>
      </trkpt>
      <trkpt lat="44.868097929283977" lon="5.617678994312882">
        <ele>846.79998779296875</ele>
        <time>2011-06-20T11:31:22Z</time>
      </trkpt>
      <trkpt lat="44.867657963186502" lon="5.617033923044801">
        <ele>846.4000244140625</ele>
        <time>2011-06-20T11:31:29Z</time>
      </trkpt>
      <trkpt lat="44.867271976545453" lon="5.615993980318308">
        <ele>848.5999755859375</ele>
        <time>2011-06-20T11:31:40Z</time>
      </trkpt>
      <trkpt lat="44.867174997925758" lon="5.614877929911017">
        <ele>851</ele>
        <time>2011-06-20T11:31:54Z</time>
      </trkpt>
      <trkpt lat="44.86735294573009" lon="5.613736985251308">
        <ele>850.79998779296875</ele>
        <time>2011-06-20T11:32:07Z</time>
      </trkpt>
      <trkpt lat="44.867808921262622" lon="5.612472994253039">
        <ele>848.4000244140625</ele>
        <time>2011-06-20T11:32:18Z</time>
      </trkpt>
      <trkpt lat="44.867889974266291" lon="5.611244961619377">
        <ele>843.79998779296875</ele>
        <time>2011-06-20T11:32:26Z</time>
      </trkpt>
      <trkpt lat="44.867762988433242" lon="5.610596956685185">
        <ele>840.5999755859375</ele>
        <time>2011-06-20T11:32:30Z</time>
      </trkpt>
      <trkpt lat="44.867509938776493" lon="5.609756922349334">
        <ele>836.4000244140625</ele>
        <time>2011-06-20T11:32:35Z</time>
      </trkpt>
      <trkpt lat="44.867451936006546" lon="5.608442975208163">
        <ele>830.79998779296875</ele>
        <time>2011-06-20T11:32:42Z</time>
      </trkpt>
      <trkpt lat="44.867702974006534" lon="5.607109917327762">
        <ele>824.5999755859375</ele>
        <time>2011-06-20T11:32:49Z</time>
      </trkpt>
      <trkpt lat="44.867614964023232" lon="5.605975929647684">
        <ele>820.79998779296875</ele>
        <time>2011-06-20T11:32:55Z</time>
      </trkpt>
      <trkpt lat="44.867077935487032" lon="5.604474982246757">
        <ele>816.5999755859375</ele>
        <time>2011-06-20T11:33:04Z</time>
      </trkpt>
      <trkpt lat="44.86694298684597" lon="5.603706948459148">
        <ele>812.20001220703125</ele>
        <time>2011-06-20T11:33:08Z</time>
      </trkpt>
      <trkpt lat="44.866940975189209" lon="5.602883929386735">
        <ele>808.79998779296875</ele>
        <time>2011-06-20T11:33:12Z</time>
      </trkpt>
      <trkpt lat="44.866979951038957" lon="5.601613987237215">
        <ele>803.4000244140625</ele>
        <time>2011-06-20T11:33:18Z</time>
      </trkpt>
      <trkpt lat="44.866825975477695" lon="5.60057396069169">
        <ele>799.20001220703125</ele>
        <time>2011-06-20T11:33:23Z</time>
      </trkpt>
      <trkpt lat="44.866628916934133" lon="5.599994938820601">
        <ele>796</ele>
        <time>2011-06-20T11:33:26Z</time>
      </trkpt>
      <trkpt lat="44.86634292639792" lon="5.599483978003264">
        <ele>794.20001220703125</ele>
        <time>2011-06-20T11:33:29Z</time>
      </trkpt>
      <trkpt lat="44.865980995818973" lon="5.599059937521815">
        <ele>790.79998779296875</ele>
        <time>2011-06-20T11:33:32Z</time>
      </trkpt>
      <trkpt lat="44.865408930927515" lon="5.598657941445708">
        <ele>786.5999755859375</ele>
        <time>2011-06-20T11:33:36Z</time>
      </trkpt>
      <trkpt lat="44.864807948470116" lon="5.598475970327854">
        <ele>783.5999755859375</ele>
        <time>2011-06-20T11:33:40Z</time>
      </trkpt>
      <trkpt lat="44.86425993964076" lon="5.598504971712828">
        <ele>782.4000244140625</ele>
        <time>2011-06-20T11:33:44Z</time>
      </trkpt>
      <trkpt lat="44.863496934995055" lon="5.598819963634014">
        <ele>784.20001220703125</ele>
        <time>2011-06-20T11:33:52Z</time>
      </trkpt>
      <trkpt lat="44.862943980842829" lon="5.599298989400268">
        <ele>787.79998779296875</ele>
        <time>2011-06-20T11:34:03Z</time>
      </trkpt>
      <trkpt lat="44.86249596811831" lon="5.599872982129455">
        <ele>791.20001220703125</ele>
        <time>2011-06-20T11:34:17Z</time>
      </trkpt>
      <trkpt lat="44.862120961770415" lon="5.600601956248283">
        <ele>795.79998779296875</ele>
        <time>2011-06-20T11:34:38Z</time>
      </trkpt>
      <trkpt lat="44.86185098066926" lon="5.601296983659267">
        <ele>799</ele>
        <time>2011-06-20T11:34:57Z</time>
      </trkpt>
      <trkpt lat="44.861590974032879" lon="5.601975917816162">
        <ele>802</ele>
        <time>2011-06-20T11:35:17Z</time>
      </trkpt>
      <trkpt lat="44.861318981274962" lon="5.602695923298597">
        <ele>804.4000244140625</ele>
        <time>2011-06-20T11:35:35Z</time>
      </trkpt>
      <trkpt lat="44.860897958278656" lon="5.603781966492534">
        <ele>805.79998779296875</ele>
        <time>2011-06-20T11:35:55Z</time>
      </trkpt>
      <trkpt lat="44.860406946390867" lon="5.605051992461085">
        <ele>805.4000244140625</ele>
        <time>2011-06-20T11:36:14Z</time>
      </trkpt>
      <trkpt lat="44.860173929482698" lon="5.605669990181923">
        <ele>805.20001220703125</ele>
        <time>2011-06-20T11:36:23Z</time>
      </trkpt>
      <trkpt lat="44.859785931184888" lon="5.606678919866681">
        <ele>802.4000244140625</ele>
        <time>2011-06-20T11:36:37Z</time>
      </trkpt>
      <trkpt lat="44.859536988660693" lon="5.607249978929758">
        <ele>801.20001220703125</ele>
        <time>2011-06-20T11:36:44Z</time>
      </trkpt>
      <trkpt lat="44.859040947631001" lon="5.608175927773118">
        <ele>798.4000244140625</ele>
        <time>2011-06-20T11:36:55Z</time>
      </trkpt>
      <trkpt lat="44.858603999018669" lon="5.608819993212819">
        <ele>796.79998779296875</ele>
        <time>2011-06-20T11:37:03Z</time>
      </trkpt>
      <trkpt lat="44.858185993507504" lon="5.609363978728652">
        <ele>795</ele>
        <time>2011-06-20T11:37:10Z</time>
      </trkpt>
      <trkpt lat="44.857187960296869" lon="5.610485980287194">
        <ele>790</ele>
        <time>2011-06-20T11:37:25Z</time>
      </trkpt>
      <trkpt lat="44.85658798366785" lon="5.611204979941249">
        <ele>787</ele>
        <time>2011-06-20T11:37:33Z</time>
      </trkpt>
      <trkpt lat="44.856265950948" lon="5.611748965457082">
        <ele>785</ele>
        <time>2011-06-20T11:37:38Z</time>
      </trkpt>
      <trkpt lat="44.855783991515636" lon="5.612784968689084">
        <ele>782.4000244140625</ele>
        <time>2011-06-20T11:37:47Z</time>
      </trkpt>
      <trkpt lat="44.855414936318994" lon="5.613594995811582">
        <ele>780.20001220703125</ele>
        <time>2011-06-20T11:37:54Z</time>
      </trkpt>
      <trkpt lat="44.855129951611161" lon="5.614235959947109">
        <ele>778.20001220703125</ele>
        <time>2011-06-20T11:37:59Z</time>
      </trkpt>
      <trkpt lat="44.854820994660258" lon="5.614903997629881">
        <ele>775</ele>
        <time>2011-06-20T11:38:04Z</time>
      </trkpt>
      <trkpt lat="44.854339957237244" lon="5.615929942578077">
        <ele>771.5999755859375</ele>
        <time>2011-06-20T11:38:12Z</time>
      </trkpt>
      <trkpt lat="44.853987917304039" lon="5.616749944165349">
        <ele>770.20001220703125</ele>
        <time>2011-06-20T11:38:19Z</time>
      </trkpt>
      <trkpt lat="44.853734951466322" lon="5.617556953802705">
        <ele>768.20001220703125</ele>
        <time>2011-06-20T11:38:26Z</time>
      </trkpt>
      <trkpt lat="44.853496989235282" lon="5.618348959833384">
        <ele>766</ele>
        <time>2011-06-20T11:38:33Z</time>
      </trkpt>
      <trkpt lat="44.853217955678701" lon="5.619101990014315">
        <ele>764.20001220703125</ele>
        <time>2011-06-20T11:38:40Z</time>
      </trkpt>
      <trkpt lat="44.852909920737147" lon="5.619671959429979">
        <ele>762.5999755859375</ele>
        <time>2011-06-20T11:38:46Z</time>
      </trkpt>
      <trkpt lat="44.852568944916129" lon="5.620091976597905">
        <ele>761</ele>
        <time>2011-06-20T11:38:51Z</time>
      </trkpt>
      <trkpt lat="44.852063935250044" lon="5.620482992380858">
        <ele>758.79998779296875</ele>
        <time>2011-06-20T11:38:57Z</time>
      </trkpt>
      <trkpt lat="44.851552974432707" lon="5.62072497792542">
        <ele>758.4000244140625</ele>
        <time>2011-06-20T11:39:03Z</time>
      </trkpt>
      <trkpt lat="44.850704977288842" lon="5.620837965980172">
        <ele>759.5999755859375</ele>
        <time>2011-06-20T11:39:15Z</time>
      </trkpt>
      <trkpt lat="44.849912971258163" lon="5.62055298127234">
        <ele>760</ele>
        <time>2011-06-20T11:39:29Z</time>
      </trkpt>
      <trkpt lat="44.849162958562374" lon="5.619858959689736">
        <ele>757.79998779296875</ele>
        <time>2011-06-20T11:39:42Z</time>
      </trkpt>
      <trkpt lat="44.848743947222829" lon="5.619226964190602">
        <ele>756.4000244140625</ele>
        <time>2011-06-20T11:39:49Z</time>
      </trkpt>
      <trkpt lat="44.848332982510328" lon="5.618756990879774">
        <ele>756</ele>
        <time>2011-06-20T11:39:55Z</time>
      </trkpt>
      <trkpt lat="44.8474779445678" lon="5.618383996188641">
        <ele>757.4000244140625</ele>
        <time>2011-06-20T11:40:06Z</time>
      </trkpt>
      <trkpt lat="44.846583930775523" lon="5.618526991456747">
        <ele>759</ele>
        <time>2011-06-20T11:40:19Z</time>
      </trkpt>
      <trkpt lat="44.845746997743845" lon="5.618411991745234">
        <ele>761.20001220703125</ele>
        <time>2011-06-20T11:40:33Z</time>
      </trkpt>
      <trkpt lat="44.845023974776268" lon="5.617871945723891">
        <ele>762.79998779296875</ele>
        <time>2011-06-20T11:40:48Z</time>
      </trkpt>
      <trkpt lat="44.844239931553602" lon="5.617398954927921">
        <ele>762.20001220703125</ele>
        <time>2011-06-20T11:41:01Z</time>
      </trkpt>
      <trkpt lat="44.843787979334593" lon="5.617414964362979">
        <ele>762.79998779296875</ele>
        <time>2011-06-20T11:41:08Z</time>
      </trkpt>
      <trkpt lat="44.842929923906922" lon="5.617991974577308">
        <ele>764.79998779296875</ele>
        <time>2011-06-20T11:41:26Z</time>
      </trkpt>
      <trkpt lat="44.842201955616474" lon="5.618128934875131">
        <ele>766.79998779296875</ele>
        <time>2011-06-20T11:41:41Z</time>
      </trkpt>
      <trkpt lat="44.841528972610831" lon="5.6176539324224">
        <ele>766.4000244140625</ele>
        <time>2011-06-20T11:41:55Z</time>
      </trkpt>
      <trkpt lat="44.840841991826892" lon="5.616377955302596">
        <ele>765.79998779296875</ele>
        <time>2011-06-20T11:42:10Z</time>
      </trkpt>
      <trkpt lat="44.840581985190511" lon="5.61582894064486">
        <ele>766.79998779296875</ele>
        <time>2011-06-20T11:42:17Z</time>
      </trkpt>
      <trkpt lat="44.840331953018904" lon="5.614618929103017">
        <ele>769</ele>
        <time>2011-06-20T11:42:32Z</time>
      </trkpt>
      <trkpt lat="44.840262969955802" lon="5.613937983289361">
        <ele>769.20001220703125</ele>
        <time>2011-06-20T11:42:40Z</time>
      </trkpt>
      <trkpt lat="44.840132966637611" lon="5.613239938393235">
        <ele>770.20001220703125</ele>
        <time>2011-06-20T11:42:49Z</time>
      </trkpt>
      <trkpt lat="44.839816968888044" lon="5.612271996214986">
        <ele>771.4000244140625</ele>
        <time>2011-06-20T11:43:04Z</time>
      </trkpt>
      <trkpt lat="44.839372979477048" lon="5.611501950770617">
        <ele>771.4000244140625</ele>
        <time>2011-06-20T11:43:19Z</time>
      </trkpt>
      <trkpt lat="44.838983975350857" lon="5.611027954146266">
        <ele>771.79998779296875</ele>
        <time>2011-06-20T11:43:29Z</time>
      </trkpt>
      <trkpt lat="44.83860494568944" lon="5.610591927543283">
        <ele>772.5999755859375</ele>
        <time>2011-06-20T11:43:39Z</time>
      </trkpt>
      <trkpt lat="44.837948977947235" lon="5.609714929014444">
        <ele>773.79998779296875</ele>
        <time>2011-06-20T11:43:56Z</time>
      </trkpt>
      <trkpt lat="44.83763599768281" lon="5.608702981844544">
        <ele>775.79998779296875</ele>
        <time>2011-06-20T11:44:11Z</time>
      </trkpt>
      <trkpt lat="44.837560979649425" lon="5.608002925291657">
        <ele>776.79998779296875</ele>
        <time>2011-06-20T11:44:21Z</time>
      </trkpt>
      <trkpt lat="44.837286975234747" lon="5.606965916231275">
        <ele>777.4000244140625</ele>
        <time>2011-06-20T11:44:36Z</time>
      </trkpt>
      <trkpt lat="44.836674928665161" lon="5.606109956279397">
        <ele>778</ele>
        <time>2011-06-20T11:44:52Z</time>
      </trkpt>
      <trkpt lat="44.836364965885878" lon="5.605634953826666">
        <ele>778.5999755859375</ele>
        <time>2011-06-20T11:45:00Z</time>
      </trkpt>
      <trkpt lat="44.835966993123293" lon="5.604703975841403">
        <ele>780</ele>
        <time>2011-06-20T11:45:15Z</time>
      </trkpt>
      <trkpt lat="44.835804970934987" lon="5.603520954027772">
        <ele>782.20001220703125</ele>
        <time>2011-06-20T11:45:35Z</time>
      </trkpt>
      <trkpt lat="44.835760965943336" lon="5.602493919432163">
        <ele>782.4000244140625</ele>
        <time>2011-06-20T11:45:49Z</time>
      </trkpt>
      <trkpt lat="44.835566924884915" lon="5.601646928116679">
        <ele>782</ele>
        <time>2011-06-20T11:46:00Z</time>
      </trkpt>
      <trkpt lat="44.835199965164065" lon="5.600881995633245">
        <ele>782.79998779296875</ele>
        <time>2011-06-20T11:46:13Z</time>
      </trkpt>
      <trkpt lat="44.834593953564763" lon="5.600091917440295">
        <ele>783.5999755859375</ele>
        <time>2011-06-20T11:46:29Z</time>
      </trkpt>
      <trkpt lat="44.83419799245894" lon="5.599573999643326">
        <ele>784.20001220703125</ele>
        <time>2011-06-20T11:46:39Z</time>
      </trkpt>
      <trkpt lat="44.833885934203863" lon="5.599052980542183">
        <ele>785</ele>
        <time>2011-06-20T11:46:48Z</time>
      </trkpt>
      <trkpt lat="44.833287969231606" lon="5.598389972001314">
        <ele>788.4000244140625</ele>
        <time>2011-06-20T11:47:05Z</time>
      </trkpt>
      <trkpt lat="44.832693943753839" lon="5.597781948745251">
        <ele>791.4000244140625</ele>
        <time>2011-06-20T11:47:24Z</time>
      </trkpt>
      <trkpt lat="44.832107964903116" lon="5.597732998430729">
        <ele>793.5999755859375</ele>
        <time>2011-06-20T11:47:39Z</time>
      </trkpt>
      <trkpt lat="44.831756930798292" lon="5.598258962854743">
        <ele>796.4000244140625</ele>
        <time>2011-06-20T11:47:53Z</time>
      </trkpt>
      <trkpt lat="44.83177394606173" lon="5.59898491948843">
        <ele>798.79998779296875</ele>
        <time>2011-06-20T11:48:07Z</time>
      </trkpt>
      <trkpt lat="44.832109976559877" lon="5.599619932472706">
        <ele>801.79998779296875</ele>
        <time>2011-06-20T11:48:24Z</time>
      </trkpt>
      <trkpt lat="44.832541979849339" lon="5.599942971020937">
        <ele>803.5999755859375</ele>
        <time>2011-06-20T11:52:58Z</time>
      </trkpt>
      <trkpt lat="44.832831993699074" lon="5.600433982908726">
        <ele>806.20001220703125</ele>
        <time>2011-06-20T11:53:12Z</time>
      </trkpt>
      <trkpt lat="44.832969959825277" lon="5.601042928174138">
        <ele>809</ele>
        <time>2011-06-20T11:53:27Z</time>
      </trkpt>
      <trkpt lat="44.833027962595224" lon="5.601692944765091">
        <ele>812.20001220703125</ele>
        <time>2011-06-20T11:53:43Z</time>
      </trkpt>
      <trkpt lat="44.832914974540472" lon="5.602518981322646">
        <ele>815.79998779296875</ele>
        <time>2011-06-20T11:54:03Z</time>
      </trkpt>
      <trkpt lat="44.832670977339149" lon="5.603231946006417">
        <ele>819.4000244140625</ele>
        <time>2011-06-20T11:54:22Z</time>
      </trkpt>
      <trkpt lat="44.832441983744502" lon="5.603888919577003">
        <ele>822.79998779296875</ele>
        <time>2011-06-20T11:54:42Z</time>
      </trkpt>
      <trkpt lat="44.83232899568975" lon="5.604602973908186">
        <ele>825.5999755859375</ele>
        <time>2011-06-20T11:55:01Z</time>
      </trkpt>
      <trkpt lat="44.832335952669382" lon="5.60546999797225">
        <ele>828.79998779296875</ele>
        <time>2011-06-20T11:55:23Z</time>
      </trkpt>
      <trkpt lat="44.832329917699099" lon="5.606278935447335">
        <ele>832</ele>
        <time>2011-06-20T11:55:44Z</time>
      </trkpt>
      <trkpt lat="44.832197986543179" lon="5.607063984498382">
        <ele>833</ele>
        <time>2011-06-20T11:56:01Z</time>
      </trkpt>
      <trkpt lat="44.831724995747209" lon="5.60731996782124">
        <ele>833</ele>
        <time>2011-06-20T11:56:14Z</time>
      </trkpt>
      <trkpt lat="44.830985963344574" lon="5.607222989201546">
        <ele>833.20001220703125</ele>
        <time>2011-06-20T11:56:33Z</time>
      </trkpt>
      <trkpt lat="44.830232933163643" lon="5.607129950076342">
        <ele>833.5999755859375</ele>
        <time>2011-06-20T11:56:52Z</time>
      </trkpt>
      <trkpt lat="44.829916935414076" lon="5.606515975669026">
        <ele>835.4000244140625</ele>
        <time>2011-06-20T11:57:10Z</time>
      </trkpt>
      <trkpt lat="44.829692970961332" lon="5.605760933831334">
        <ele>837.5999755859375</ele>
        <time>2011-06-20T11:57:28Z</time>
      </trkpt>
      <trkpt lat="44.829427935183048" lon="5.604873960837722">
        <ele>840</ele>
        <time>2011-06-20T11:57:49Z</time>
      </trkpt>
      <trkpt lat="44.829240934923291" lon="5.604282952845097">
        <ele>842.20001220703125</ele>
        <time>2011-06-20T11:58:03Z</time>
      </trkpt>
      <trkpt lat="44.829004984349012" lon="5.603512991219759">
        <ele>846</ele>
        <time>2011-06-20T11:58:22Z</time>
      </trkpt>
      <trkpt lat="44.828774984925985" lon="5.602772952988744">
        <ele>849.5999755859375</ele>
        <time>2011-06-20T11:58:42Z</time>
      </trkpt>
      <trkpt lat="44.828580943867564" lon="5.602064933627844">
        <ele>852.4000244140625</ele>
        <time>2011-06-20T11:59:01Z</time>
      </trkpt>
      <trkpt lat="44.828602988272905" lon="5.60138993896544">
        <ele>855.79998779296875</ele>
        <time>2011-06-20T11:59:18Z</time>
      </trkpt>
      <trkpt lat="44.828751934692264" lon="5.600742939859629">
        <ele>859.20001220703125</ele>
        <time>2011-06-20T11:59:37Z</time>
      </trkpt>
      <trkpt lat="44.828794933855534" lon="5.600113961845636">
        <ele>862</ele>
        <time>2011-06-20T11:59:54Z</time>
      </trkpt>
      <trkpt lat="44.828747995197773" lon="5.599373923614621">
        <ele>865</ele>
        <time>2011-06-20T12:00:14Z</time>
      </trkpt>
      <trkpt lat="44.828538950532675" lon="5.598677974194288">
        <ele>868.5999755859375</ele>
        <time>2011-06-20T12:00:35Z</time>
      </trkpt>
      <trkpt lat="44.828151958063245" lon="5.597870964556932">
        <ele>872.5999755859375</ele>
        <time>2011-06-20T12:01:01Z</time>
      </trkpt>
      <trkpt lat="44.827782986685634" lon="5.597116928547621">
        <ele>876.5999755859375</ele>
        <time>2011-06-20T12:01:27Z</time>
      </trkpt>
      <trkpt lat="44.827396916225553" lon="5.596335986629129">
        <ele>880.79998779296875</ele>
        <time>2011-06-20T12:01:51Z</time>
      </trkpt>
      <trkpt lat="44.827057952061296" lon="5.595537945628166">
        <ele>884.5999755859375</ele>
        <time>2011-06-20T12:02:15Z</time>
      </trkpt>
      <trkpt lat="44.826918980106711" lon="5.594861945137382">
        <ele>887.20001220703125</ele>
        <time>2011-06-20T12:02:35Z</time>
      </trkpt>
      <trkpt lat="44.826903976500034" lon="5.594278983771801">
        <ele>889.20001220703125</ele>
        <time>2011-06-20T12:04:51Z</time>
      </trkpt>
      <trkpt lat="44.826822923496366" lon="5.593607928603888">
        <ele>890.79998779296875</ele>
        <time>2011-06-20T12:05:05Z</time>
      </trkpt>
      <trkpt lat="44.826725944876671" lon="5.592977944761515">
        <ele>891.20001220703125</ele>
        <time>2011-06-20T12:05:15Z</time>
      </trkpt>
      <trkpt lat="44.826629972085357" lon="5.592100946232677">
        <ele>892</ele>
        <time>2011-06-20T12:05:29Z</time>
      </trkpt>
      <trkpt lat="44.826469961553812" lon="5.591282956302166">
        <ele>893</ele>
        <time>2011-06-20T12:05:43Z</time>
      </trkpt>
      <trkpt lat="44.826279943808913" lon="5.590496985241771">
        <ele>894</ele>
        <time>2011-06-20T12:05:56Z</time>
      </trkpt>
      <trkpt lat="44.825875936076045" lon="5.589768933132291">
        <ele>896</ele>
        <time>2011-06-20T12:06:10Z</time>
      </trkpt>
      <trkpt lat="44.825547952204943" lon="5.589215978980064">
        <ele>897.79998779296875</ele>
        <time>2011-06-20T12:06:22Z</time>
      </trkpt>
      <trkpt lat="44.825266990810633" lon="5.588662941008806">
        <ele>899.79998779296875</ele>
        <time>2011-06-20T12:06:35Z</time>
      </trkpt>
      <trkpt lat="44.824833981692791" lon="5.588079979643226">
        <ele>901.79998779296875</ele>
        <time>2011-06-20T12:06:52Z</time>
      </trkpt>
      <trkpt lat="44.824385968968272" lon="5.587602965533733">
        <ele>903.79998779296875</ele>
        <time>2011-06-20T12:07:06Z</time>
      </trkpt>
      <trkpt lat="44.824215983971953" lon="5.586711969226599">
        <ele>906.79998779296875</ele>
        <time>2011-06-20T12:07:24Z</time>
      </trkpt>
      <trkpt lat="44.82397198677063" lon="5.585879981517792">
        <ele>909.79998779296875</ele>
        <time>2011-06-20T12:07:43Z</time>
      </trkpt>
      <trkpt lat="44.823703933507204" lon="5.584949925541878">
        <ele>911.20001220703125</ele>
        <time>2011-06-20T12:08:04Z</time>
      </trkpt>
      <trkpt lat="44.823396988213062" lon="5.5841129925102">
        <ele>912.20001220703125</ele>
        <time>2011-06-20T12:08:21Z</time>
      </trkpt>
      <trkpt lat="44.823058946058154" lon="5.583502957597375">
        <ele>913.4000244140625</ele>
        <time>2011-06-20T12:08:34Z</time>
      </trkpt>
      <trkpt lat="44.822602970525622" lon="5.583161981776357">
        <ele>914.79998779296875</ele>
        <time>2011-06-20T12:08:45Z</time>
      </trkpt>
      <trkpt lat="44.822032917290926" lon="5.582637945190072">
        <ele>915.5999755859375</ele>
        <time>2011-06-20T12:08:59Z</time>
      </trkpt>
      <trkpt lat="44.821423972025514" lon="5.582089936360717">
        <ele>919</ele>
        <time>2011-06-20T12:09:24Z</time>
      </trkpt>
      <trkpt lat="44.820823995396495" lon="5.581783996894956">
        <ele>922.4000244140625</ele>
        <time>2011-06-20T12:09:48Z</time>
      </trkpt>
      <trkpt lat="44.820403978228569" lon="5.581776956096292">
        <ele>925.20001220703125</ele>
        <time>2011-06-20T12:13:54Z</time>
      </trkpt>
      <trkpt lat="44.820114970207214" lon="5.582399982959032">
        <ele>927.5999755859375</ele>
        <time>2011-06-20T12:14:11Z</time>
      </trkpt>
      <trkpt lat="44.819836942479014" lon="5.582909937947989">
        <ele>930.4000244140625</ele>
        <time>2011-06-20T12:14:26Z</time>
      </trkpt>
      <trkpt lat="44.819248951971531" lon="5.58291194960475">
        <ele>933.4000244140625</ele>
        <time>2011-06-20T12:14:45Z</time>
      </trkpt>
      <trkpt lat="44.818695997819304" lon="5.582822933793068">
        <ele>935.5999755859375</ele>
        <time>2011-06-20T12:15:02Z</time>
      </trkpt>
      <trkpt lat="44.81819492764771" lon="5.582726961001754">
        <ele>937.4000244140625</ele>
        <time>2011-06-20T12:15:16Z</time>
      </trkpt>
      <trkpt lat="44.817558992654085" lon="5.582585977390409">
        <ele>939.20001220703125</ele>
        <time>2011-06-20T12:15:33Z</time>
      </trkpt>
      <trkpt lat="44.816977959126234" lon="5.582178952172399">
        <ele>941.4000244140625</ele>
        <time>2011-06-20T12:15:51Z</time>
      </trkpt>
      <trkpt lat="44.816458951681852" lon="5.581808974966407">
        <ele>943.79998779296875</ele>
        <time>2011-06-20T12:16:09Z</time>
      </trkpt>
      <trkpt lat="44.815927958115935" lon="5.581576963886619">
        <ele>946.5999755859375</ele>
        <time>2011-06-20T12:16:27Z</time>
      </trkpt>
      <trkpt lat="44.815220944583416" lon="5.581532958894968">
        <ele>949.79998779296875</ele>
        <time>2011-06-20T12:16:48Z</time>
      </trkpt>
      <trkpt lat="44.814742924645543" lon="5.581369930878282">
        <ele>951.79998779296875</ele>
        <time>2011-06-20T12:17:03Z</time>
      </trkpt>
      <trkpt lat="44.814306981861591" lon="5.581713924184442">
        <ele>953.20001220703125</ele>
        <time>2011-06-20T12:17:17Z</time>
      </trkpt>
      <trkpt lat="44.813713962212205" lon="5.582005949690938">
        <ele>955</ele>
        <time>2011-06-20T12:17:33Z</time>
      </trkpt>
      <trkpt lat="44.813106944784522" lon="5.582242989912629">
        <ele>957.4000244140625</ele>
        <time>2011-06-20T12:17:50Z</time>
      </trkpt>
      <trkpt lat="44.812423987314105" lon="5.582403922453523">
        <ele>960.20001220703125</ele>
        <time>2011-06-20T12:18:10Z</time>
      </trkpt>
      <trkpt lat="44.811827950179577" lon="5.582533925771713">
        <ele>962.79998779296875</ele>
        <time>2011-06-20T12:18:28Z</time>
      </trkpt>
      <trkpt lat="44.811283964663744" lon="5.582615984603763">
        <ele>965.4000244140625</ele>
        <time>2011-06-20T12:18:46Z</time>
      </trkpt>
      <trkpt lat="44.81084793806076" lon="5.582953942939639">
        <ele>966.79998779296875</ele>
        <time>2011-06-20T12:19:00Z</time>
      </trkpt>
      <trkpt lat="44.810367990285158" lon="5.5836639739573">
        <ele>968.79998779296875</ele>
        <time>2011-06-20T12:19:18Z</time>
      </trkpt>
      <trkpt lat="44.809959959238768" lon="5.584278954192996">
        <ele>971.79998779296875</ele>
        <time>2011-06-20T12:19:35Z</time>
      </trkpt>
      <trkpt lat="44.809543965384364" lon="5.584913967177272">
        <ele>976.79998779296875</ele>
        <time>2011-06-20T12:20:01Z</time>
      </trkpt>
      <trkpt lat="44.809097964316607" lon="5.585226947441697">
        <ele>981.4000244140625</ele>
        <time>2011-06-20T12:20:26Z</time>
      </trkpt>
      <trkpt lat="44.808606952428818" lon="5.585622992366552">
        <ele>985.4000244140625</ele>
        <time>2011-06-20T12:20:52Z</time>
      </trkpt>
      <trkpt lat="44.808194981887937" lon="5.585961956530809">
        <ele>988.79998779296875</ele>
        <time>2011-06-20T12:21:13Z</time>
      </trkpt>
      <trkpt lat="44.807757949456573" lon="5.586375938728452">
        <ele>993</ele>
        <time>2011-06-20T12:21:37Z</time>
      </trkpt>
      <trkpt lat="44.807228967547417" lon="5.586802996695042">
        <ele>997.5999755859375</ele>
        <time>2011-06-20T12:22:03Z</time>
      </trkpt>
      <trkpt lat="44.806768968701363" lon="5.586998965591192">
        <ele>1001.4000244140625</ele>
        <time>2011-06-20T12:22:27Z</time>
      </trkpt>
      <trkpt lat="44.806157927960157" lon="5.587196946144104">
        <ele>1005.7999877929687</ele>
        <time>2011-06-20T12:22:55Z</time>
      </trkpt>
      <trkpt lat="44.805612936615944" lon="5.587268946692348">
        <ele>1010.2000122070312</ele>
        <time>2011-06-20T12:23:21Z</time>
      </trkpt>
      <trkpt lat="44.805085966363549" lon="5.5873819347471">
        <ele>1014.2000122070312</ele>
        <time>2011-06-20T12:23:45Z</time>
      </trkpt>
      <trkpt lat="44.804579950869083" lon="5.587656944990158">
        <ele>1017.7999877929687</ele>
        <time>2011-06-20T12:24:10Z</time>
      </trkpt>
      <trkpt lat="44.804195975884795" lon="5.588247952982783">
        <ele>1022</ele>
        <time>2011-06-20T12:24:35Z</time>
      </trkpt>
      <trkpt lat="44.803871931508183" lon="5.588726978749037">
        <ele>1026</ele>
        <time>2011-06-20T12:28:59Z</time>
      </trkpt>
      <trkpt lat="44.803281929343939" lon="5.589095950126648">
        <ele>1031.199951171875</ele>
        <time>2011-06-20T12:29:25Z</time>
      </trkpt>
      <trkpt lat="44.802854955196381" lon="5.589360985904932">
        <ele>1034.5999755859375</ele>
        <time>2011-06-20T12:29:44Z</time>
      </trkpt>
      <trkpt lat="44.802364949136972" lon="5.5897649936378">
        <ele>1038.5999755859375</ele>
        <time>2011-06-20T12:30:08Z</time>
      </trkpt>
      <trkpt lat="44.801881983876228" lon="5.590250976383686">
        <ele>1042.800048828125</ele>
        <time>2011-06-20T12:30:33Z</time>
      </trkpt>
      <trkpt lat="44.801320983096957" lon="5.59060494415462">
        <ele>1047.5999755859375</ele>
        <time>2011-06-20T12:31:01Z</time>
      </trkpt>
      <trkpt lat="44.800944970920682" lon="5.591005934402347">
        <ele>1050.800048828125</ele>
        <time>2011-06-20T12:31:23Z</time>
      </trkpt>
      <trkpt lat="44.800455970689654" lon="5.591098973527551">
        <ele>1054.5999755859375</ele>
        <time>2011-06-20T12:31:48Z</time>
      </trkpt>
      <trkpt lat="44.800114994868636" lon="5.590641992166638">
        <ele>1058</ele>
        <time>2011-06-20T12:32:12Z</time>
      </trkpt>
      <trkpt lat="44.799765972420573" lon="5.590102951973677">
        <ele>1061.5999755859375</ele>
        <time>2011-06-20T12:32:36Z</time>
      </trkpt>
      <trkpt lat="44.799460954964161" lon="5.589395938441157">
        <ele>1066</ele>
        <time>2011-06-20T12:33:01Z</time>
      </trkpt>
      <trkpt lat="44.799060970544815" lon="5.589076923206449">
        <ele>1069.4000244140625</ele>
        <time>2011-06-20T12:33:21Z</time>
      </trkpt>
      <trkpt lat="44.79853693395853" lon="5.589305916801095">
        <ele>1073.5999755859375</ele>
        <time>2011-06-20T12:33:44Z</time>
      </trkpt>
      <trkpt lat="44.798114988952875" lon="5.589773962274194">
        <ele>1077.4000244140625</ele>
        <time>2011-06-20T12:34:06Z</time>
      </trkpt>
      <trkpt lat="44.797634957358241" lon="5.59015098027885">
        <ele>1081.4000244140625</ele>
        <time>2011-06-20T12:34:31Z</time>
      </trkpt>
      <trkpt lat="44.797218963503838" lon="5.590497991070151">
        <ele>1084.800048828125</ele>
        <time>2011-06-20T12:34:53Z</time>
      </trkpt>
      <trkpt lat="44.796802969649434" lon="5.590995959937573">
        <ele>1089</ele>
        <time>2011-06-20T12:35:17Z</time>
      </trkpt>
      <trkpt lat="44.796286979690194" lon="5.591349927708507">
        <ele>1093.4000244140625</ele>
        <time>2011-06-20T12:35:42Z</time>
      </trkpt>
      <trkpt lat="44.795835949480534" lon="5.591683946549892">
        <ele>1096.800048828125</ele>
        <time>2011-06-20T12:36:05Z</time>
      </trkpt>
      <trkpt lat="44.795394977554679" lon="5.592124918475747">
        <ele>1101</ele>
        <time>2011-06-20T12:36:30Z</time>
      </trkpt>
      <trkpt lat="44.795058947056532" lon="5.592640992254019">
        <ele>1104.5999755859375</ele>
        <time>2011-06-20T12:36:53Z</time>
      </trkpt>
      <trkpt lat="44.794765999540687" lon="5.593331996351481">
        <ele>1108.800048828125</ele>
        <time>2011-06-20T12:37:17Z</time>
      </trkpt>
      <trkpt lat="44.794285967946053" lon="5.593662997707725">
        <ele>1114.800048828125</ele>
        <time>2011-06-20T12:42:01Z</time>
      </trkpt>
      <trkpt lat="44.793805936351418" lon="5.593374995514751">
        <ele>1118.4000244140625</ele>
        <time>2011-06-20T12:42:25Z</time>
      </trkpt>
      <trkpt lat="44.793211994692683" lon="5.593378935009241">
        <ele>1122.4000244140625</ele>
        <time>2011-06-20T12:42:51Z</time>
      </trkpt>
      <trkpt lat="44.7927569411695" lon="5.593605916947126">
        <ele>1126.199951171875</ele>
        <time>2011-06-20T12:43:12Z</time>
      </trkpt>
      <trkpt lat="44.792142966762185" lon="5.594027945771813">
        <ele>1131</ele>
        <time>2011-06-20T12:43:41Z</time>
      </trkpt>
      <trkpt lat="44.791730996221304" lon="5.59432097710669">
        <ele>1134.4000244140625</ele>
        <time>2011-06-20T12:44:02Z</time>
      </trkpt>
      <trkpt lat="44.791210982948542" lon="5.59472699649632">
        <ele>1138.4000244140625</ele>
        <time>2011-06-20T12:44:29Z</time>
      </trkpt>
      <trkpt lat="44.790654927492142" lon="5.595103930681944">
        <ele>1142.800048828125</ele>
        <time>2011-06-20T12:44:56Z</time>
      </trkpt>
      <trkpt lat="44.790133992210031" lon="5.595042994245887">
        <ele>1146.4000244140625</ele>
        <time>2011-06-20T12:45:20Z</time>
      </trkpt>
      <trkpt lat="44.789703916758299" lon="5.595424957573414">
        <ele>1149.800048828125</ele>
        <time>2011-06-20T12:45:42Z</time>
      </trkpt>
      <trkpt lat="44.789238972589374" lon="5.595771968364716">
        <ele>1153.800048828125</ele>
        <time>2011-06-20T12:46:05Z</time>
      </trkpt>
      <trkpt lat="44.788886932656169" lon="5.596203971654177">
        <ele>1157.5999755859375</ele>
        <time>2011-06-20T12:46:28Z</time>
      </trkpt>
      <trkpt lat="44.788548974320292" lon="5.596723984926939">
        <ele>1161.5999755859375</ele>
        <time>2011-06-20T12:46:52Z</time>
      </trkpt>
      <trkpt lat="44.788225935772061" lon="5.597256990149617">
        <ele>1165.800048828125</ele>
        <time>2011-06-20T12:47:15Z</time>
      </trkpt>
      <trkpt lat="44.787773983553052" lon="5.597782954573631">
        <ele>1170.5999755859375</ele>
        <time>2011-06-20T12:47:44Z</time>
      </trkpt>
      <trkpt lat="44.787455974146724" lon="5.598277989774942">
        <ele>1174.5999755859375</ele>
        <time>2011-06-20T12:48:10Z</time>
      </trkpt>
      <trkpt lat="44.787033945322037" lon="5.598612930625677">
        <ele>1178.4000244140625</ele>
        <time>2011-06-20T12:48:35Z</time>
      </trkpt>
      <trkpt lat="44.786448972299695" lon="5.598747963085771">
        <ele>1182.4000244140625</ele>
        <time>2011-06-20T12:49:02Z</time>
      </trkpt>
      <trkpt lat="44.78592099621892" lon="5.598751986399293">
        <ele>1186.4000244140625</ele>
        <time>2011-06-20T12:49:27Z</time>
      </trkpt>
      <trkpt lat="44.785323953256011" lon="5.59874695725739">
        <ele>1191.4000244140625</ele>
        <time>2011-06-20T12:50:01Z</time>
      </trkpt>
      <trkpt lat="44.784857919439673" lon="5.598306991159916">
        <ele>1194.199951171875</ele>
        <time>2011-06-20T12:53:02Z</time>
      </trkpt>
      <trkpt lat="44.78437596000731" lon="5.597701985388994">
        <ele>1196.5999755859375</ele>
        <time>2011-06-20T12:53:26Z</time>
      </trkpt>
      <trkpt lat="44.783810935914516" lon="5.597366960719228">
        <ele>1198.199951171875</ele>
        <time>2011-06-20T12:53:43Z</time>
      </trkpt>
      <trkpt lat="44.783454956486821" lon="5.596789950504899">
        <ele>1200.199951171875</ele>
        <time>2011-06-20T12:54:00Z</time>
      </trkpt>
      <trkpt lat="44.783266950398684" lon="5.596034992486239">
        <ele>1202</ele>
        <time>2011-06-20T12:54:16Z</time>
      </trkpt>
      <trkpt lat="44.783258987590671" lon="5.595304928719997">
        <ele>1203.5999755859375</ele>
        <time>2011-06-20T12:54:29Z</time>
      </trkpt>
      <trkpt lat="44.783226968720555" lon="5.594669999554753">
        <ele>1205.4000244140625</ele>
        <time>2011-06-20T12:54:42Z</time>
      </trkpt>
      <trkpt lat="44.782760934904218" lon="5.594876948744059">
        <ele>1207.800048828125</ele>
        <time>2011-06-20T12:54:59Z</time>
      </trkpt>
      <trkpt lat="44.782375954091549" lon="5.595385981723666">
        <ele>1209.4000244140625</ele>
        <time>2011-06-20T12:55:14Z</time>
      </trkpt>
      <trkpt lat="44.781832974404097" lon="5.595870958641172">
        <ele>1211.199951171875</ele>
        <time>2011-06-20T12:55:32Z</time>
      </trkpt>
      <trkpt lat="44.781393930315971" lon="5.595939941704273">
        <ele>1212.5999755859375</ele>
        <time>2011-06-20T12:55:46Z</time>
      </trkpt>
      <trkpt lat="44.78125898167491" lon="5.595077946782112">
        <ele>1214.800048828125</ele>
        <time>2011-06-20T12:56:04Z</time>
      </trkpt>
      <trkpt lat="44.781125960871577" lon="5.594453997910023">
        <ele>1216.5999755859375</ele>
        <time>2011-06-20T12:56:17Z</time>
      </trkpt>
      <trkpt lat="44.780882969498634" lon="5.593575993552804">
        <ele>1219</ele>
        <time>2011-06-20T12:56:36Z</time>
      </trkpt>
      <trkpt lat="44.780607959255576" lon="5.593946976587176">
        <ele>1220.5999755859375</ele>
        <time>2011-06-20T12:56:53Z</time>
      </trkpt>
      <trkpt lat="44.780264971777797" lon="5.594770917668939">
        <ele>1222.800048828125</ele>
        <time>2011-06-20T12:57:13Z</time>
      </trkpt>
      <trkpt lat="44.780030949041247" lon="5.595530988648534">
        <ele>1225</ele>
        <time>2011-06-20T12:57:31Z</time>
      </trkpt>
      <trkpt lat="44.779813941568136" lon="5.596330957487226">
        <ele>1226.800048828125</ele>
        <time>2011-06-20T12:57:49Z</time>
      </trkpt>
      <trkpt lat="44.779503978788853" lon="5.596225932240486">
        <ele>1228.4000244140625</ele>
        <time>2011-06-20T12:58:02Z</time>
      </trkpt>
      <trkpt lat="44.77934799157083" lon="5.595439961180091">
        <ele>1230.4000244140625</ele>
        <time>2011-06-20T12:58:18Z</time>
      </trkpt>
      <trkpt lat="44.779204996302724" lon="5.594758931547403">
        <ele>1232.199951171875</ele>
        <time>2011-06-20T12:58:33Z</time>
      </trkpt>
      <trkpt lat="44.779110951349139" lon="5.594028951600194">
        <ele>1234</ele>
        <time>2011-06-20T12:58:47Z</time>
      </trkpt>
      <trkpt lat="44.779058983549476" lon="5.593265946954489">
        <ele>1236</ele>
        <time>2011-06-20T12:59:04Z</time>
      </trkpt>
      <trkpt lat="44.77904993109405" lon="5.592332957312465">
        <ele>1238.5999755859375</ele>
        <time>2011-06-20T12:59:23Z</time>
      </trkpt>
      <trkpt lat="44.778994945809245" lon="5.591606916859746">
        <ele>1240.4000244140625</ele>
        <time>2011-06-20T12:59:37Z</time>
      </trkpt>
      <trkpt lat="44.778617927804589" lon="5.591298965737224">
        <ele>1242.5999755859375</ele>
        <time>2011-06-20T12:59:52Z</time>
      </trkpt>
      <trkpt lat="44.778212998062372" lon="5.591687969863415">
        <ele>1244</ele>
        <time>2011-06-20T13:00:05Z</time>
      </trkpt>
      <trkpt lat="44.777719974517822" lon="5.591583950445056">
        <ele>1246.5999755859375</ele>
        <time>2011-06-20T13:00:22Z</time>
      </trkpt>
      <trkpt lat="44.777422919869423" lon="5.591049939393997">
        <ele>1248.4000244140625</ele>
        <time>2011-06-20T13:00:36Z</time>
      </trkpt>
      <trkpt lat="44.776823949068785" lon="5.590643920004368">
        <ele>1250.4000244140625</ele>
        <time>2011-06-20T13:00:56Z</time>
      </trkpt>
      <trkpt lat="44.776563942432404" lon="5.591192934662104">
        <ele>1252.199951171875</ele>
        <time>2011-06-20T13:01:11Z</time>
      </trkpt>
      <trkpt lat="44.776266971603036" lon="5.59146492742002">
        <ele>1254</ele>
        <time>2011-06-20T13:01:26Z</time>
      </trkpt>
      <trkpt lat="44.776005959138274" lon="5.591824930161238">
        <ele>1259.199951171875</ele>
        <time>2011-06-20T13:04:32Z</time>
      </trkpt>
      <trkpt lat="44.776150966063142" lon="5.59275196865201">
        <ele>1261.800048828125</ele>
        <time>2011-06-20T13:04:52Z</time>
      </trkpt>
      <trkpt lat="44.775853995233774" lon="5.593401985242963">
        <ele>1264.199951171875</ele>
        <time>2011-06-20T13:05:10Z</time>
      </trkpt>
      <trkpt lat="44.775699935853481" lon="5.594004979357123">
        <ele>1265.5999755859375</ele>
        <time>2011-06-20T13:05:22Z</time>
      </trkpt>
      <trkpt lat="44.775411933660507" lon="5.593691999092698">
        <ele>1268</ele>
        <time>2011-06-20T13:05:37Z</time>
      </trkpt>
      <trkpt lat="44.775184951722622" lon="5.593139966949821">
        <ele>1269.4000244140625</ele>
        <time>2011-06-20T13:05:50Z</time>
      </trkpt>
      <trkpt lat="44.774831989780068" lon="5.592477964237332">
        <ele>1271.800048828125</ele>
        <time>2011-06-20T13:06:09Z</time>
      </trkpt>
      <trkpt lat="44.774561924859881" lon="5.591950993984938">
        <ele>1273.4000244140625</ele>
        <time>2011-06-20T13:06:23Z</time>
      </trkpt>
      <trkpt lat="44.774371990934014" lon="5.591297959908843">
        <ele>1275</ele>
        <time>2011-06-20T13:06:38Z</time>
      </trkpt>
      <trkpt lat="44.773881984874606" lon="5.5909479316324">
        <ele>1277.4000244140625</ele>
        <time>2011-06-20T13:06:56Z</time>
      </trkpt>
      <trkpt lat="44.773500943556428" lon="5.590404951944947">
        <ele>1280</ele>
        <time>2011-06-20T13:07:14Z</time>
      </trkpt>
      <trkpt lat="44.773532962426543" lon="5.589542957022786">
        <ele>1283</ele>
        <time>2011-06-20T13:07:33Z</time>
      </trkpt>
      <trkpt lat="44.773435983806849" lon="5.588682973757386">
        <ele>1285.5999755859375</ele>
        <time>2011-06-20T13:07:53Z</time>
      </trkpt>
      <trkpt lat="44.773253928869963" lon="5.587970931082964">
        <ele>1287.800048828125</ele>
        <time>2011-06-20T13:08:09Z</time>
      </trkpt>
      <trkpt lat="44.772915970534086" lon="5.588203947991133">
        <ele>1290.4000244140625</ele>
        <time>2011-06-20T13:08:28Z</time>
      </trkpt>
      <trkpt lat="44.772822931408882" lon="5.588816916570067">
        <ele>1292.800048828125</ele>
        <time>2011-06-20T13:08:41Z</time>
      </trkpt>
      <trkpt lat="44.772639954462647" lon="5.589598948135972">
        <ele>1295.5999755859375</ele>
        <time>2011-06-20T13:09:00Z</time>
      </trkpt>
      <trkpt lat="44.772241981700063" lon="5.589540945366025">
        <ele>1298.4000244140625</ele>
        <time>2011-06-20T13:09:17Z</time>
      </trkpt>
      <trkpt lat="44.772032937034965" lon="5.590406963601708">
        <ele>1302.199951171875</ele>
        <time>2011-06-20T13:09:40Z</time>
      </trkpt>
      <trkpt lat="44.77191299200058" lon="5.59124599210918">
        <ele>1305</ele>
        <time>2011-06-20T13:10:00Z</time>
      </trkpt>
      <trkpt lat="44.771541925147176" lon="5.590893952175975">
        <ele>1307.800048828125</ele>
        <time>2011-06-20T13:10:19Z</time>
      </trkpt>
      <trkpt lat="44.771128948777914" lon="5.590296993032098">
        <ele>1310.4000244140625</ele>
        <time>2011-06-20T13:10:39Z</time>
      </trkpt>
      <trkpt lat="44.770658975467086" lon="5.58989591896534">
        <ele>1313.4000244140625</ele>
        <time>2011-06-20T13:11:00Z</time>
      </trkpt>
      <trkpt lat="44.770307941362262" lon="5.590196996927261">
        <ele>1315.199951171875</ele>
        <time>2011-06-20T13:11:17Z</time>
      </trkpt>
      <trkpt lat="44.769856994971633" lon="5.590294981375337">
        <ele>1317.5999755859375</ele>
        <time>2011-06-20T13:11:35Z</time>
      </trkpt>
      <trkpt lat="44.769328935071826" lon="5.590631933882833">
        <ele>1320.199951171875</ele>
        <time>2011-06-20T13:11:58Z</time>
      </trkpt>
      <trkpt lat="44.768772963434458" lon="5.590684991329908">
        <ele>1323.199951171875</ele>
        <time>2011-06-20T13:12:21Z</time>
      </trkpt>
      <trkpt lat="44.768526954576373" lon="5.591250937432051">
        <ele>1325.4000244140625</ele>
        <time>2011-06-20T13:12:38Z</time>
      </trkpt>
      <trkpt lat="44.768203999847174" lon="5.59167992323637">
        <ele>1327.5999755859375</ele>
        <time>2011-06-20T13:12:57Z</time>
      </trkpt>
      <trkpt lat="44.767860928550363" lon="5.592308985069394">
        <ele>1330.199951171875</ele>
        <time>2011-06-20T13:13:18Z</time>
      </trkpt>
      <trkpt lat="44.767271932214499" lon="5.592484921216965">
        <ele>1333.4000244140625</ele>
        <time>2011-06-20T13:13:40Z</time>
      </trkpt>
      <trkpt lat="44.766740938648582" lon="5.591778997331858">
        <ele>1336.4000244140625</ele>
        <time>2011-06-20T13:14:02Z</time>
      </trkpt>
      <trkpt lat="44.766432987526059" lon="5.59116292744875">
        <ele>1338.800048828125</ele>
        <time>2011-06-20T13:14:19Z</time>
      </trkpt>
      <trkpt lat="44.766124952584505" lon="5.590488938614726">
        <ele>1341.4000244140625</ele>
        <time>2011-06-20T13:14:38Z</time>
      </trkpt>
      <trkpt lat="44.765684986487031" lon="5.590693959966302">
        <ele>1343.800048828125</ele>
        <time>2011-06-20T13:14:56Z</time>
      </trkpt>
      <trkpt lat="44.765498992055655" lon="5.591498957946897">
        <ele>1345.4000244140625</ele>
        <time>2011-06-20T13:15:15Z</time>
      </trkpt>
      <trkpt lat="44.765420956537127" lon="5.592342931777239">
        <ele>1348.199951171875</ele>
        <time>2011-06-20T13:15:35Z</time>
      </trkpt>
      <trkpt lat="44.765325989574194" lon="5.59311892837286">
        <ele>1350.4000244140625</ele>
        <time>2011-06-20T13:15:52Z</time>
      </trkpt>
      <trkpt lat="44.765186933800578" lon="5.593983940780163">
        <ele>1353.5999755859375</ele>
        <time>2011-06-20T13:16:13Z</time>
      </trkpt>
      <trkpt lat="44.764926927164197" lon="5.594607973471284">
        <ele>1356</ele>
        <time>2011-06-20T13:16:31Z</time>
      </trkpt>
      <trkpt lat="44.764377996325493" lon="5.594863956794143">
        <ele>1358.199951171875</ele>
        <time>2011-06-20T13:16:51Z</time>
      </trkpt>
      <trkpt lat="44.763947920873761" lon="5.595232928171754">
        <ele>1360</ele>
        <time>2011-06-20T13:17:07Z</time>
      </trkpt>
      <trkpt lat="44.763833926990628" lon="5.596021916717291">
        <ele>1362.4000244140625</ele>
        <time>2011-06-20T13:17:25Z</time>
      </trkpt>
      <trkpt lat="44.763749940320849" lon="5.596732953563333">
        <ele>1365.199951171875</ele>
        <time>2011-06-20T13:17:48Z</time>
      </trkpt>
      <trkpt lat="44.763398990035057" lon="5.597511967644095">
        <ele>1367.4000244140625</ele>
        <time>2011-06-20T13:18:10Z</time>
      </trkpt>
      <trkpt lat="44.763064971193671" lon="5.598157960921526">
        <ele>1369.4000244140625</ele>
        <time>2011-06-20T13:18:28Z</time>
      </trkpt>
      <trkpt lat="44.762769928202033" lon="5.598724996671081">
        <ele>1371.199951171875</ele>
        <time>2011-06-20T13:18:45Z</time>
      </trkpt>
      <trkpt lat="44.762334991246462" lon="5.599264958873391">
        <ele>1373.800048828125</ele>
        <time>2011-06-20T13:19:03Z</time>
      </trkpt>
      <trkpt lat="44.762384947389364" lon="5.599905923008919">
        <ele>1376</ele>
        <time>2011-06-20T13:19:20Z</time>
      </trkpt>
      <trkpt lat="44.761946992948651" lon="5.600276989862323">
        <ele>1378.5999755859375</ele>
        <time>2011-06-20T13:19:38Z</time>
      </trkpt>
      <trkpt lat="44.761648932471871" lon="5.600839918479323">
        <ele>1380.800048828125</ele>
        <time>2011-06-20T13:19:55Z</time>
      </trkpt>
      <trkpt lat="44.761272920295596" lon="5.60145297087729">
        <ele>1383.4000244140625</ele>
        <time>2011-06-20T13:20:14Z</time>
      </trkpt>
      <trkpt lat="44.761416921392083" lon="5.602041967213154">
        <ele>1385.4000244140625</ele>
        <time>2011-06-20T13:20:31Z</time>
      </trkpt>
      <trkpt lat="44.76132195442915" lon="5.602648984640837">
        <ele>1387</ele>
        <time>2011-06-20T13:20:48Z</time>
      </trkpt>
      <trkpt lat="44.76123595610261" lon="5.603306964039803">
        <ele>1388.800048828125</ele>
        <time>2011-06-20T13:21:03Z</time>
      </trkpt>
      <trkpt lat="44.761140989139676" lon="5.604120930656791">
        <ele>1391</ele>
        <time>2011-06-20T13:21:20Z</time>
      </trkpt>
      <trkpt lat="44.760759947821498" lon="5.604733983054757">
        <ele>1393.199951171875</ele>
        <time>2011-06-20T13:21:39Z</time>
      </trkpt>
      <trkpt lat="44.760578982532024" lon="5.604178933426738">
        <ele>1395.5999755859375</ele>
        <time>2011-06-20T13:21:54Z</time>
      </trkpt>
      <trkpt lat="44.76020498201251" lon="5.603991933166981">
        <ele>1397</ele>
        <time>2011-06-20T13:22:08Z</time>
      </trkpt>
      <trkpt lat="44.759637946262956" lon="5.604415973648429">
        <ele>1398.4000244140625</ele>
        <time>2011-06-20T13:22:24Z</time>
      </trkpt>
      <trkpt lat="44.759097984060645" lon="5.60482693836093">
        <ele>1399.4000244140625</ele>
        <time>2011-06-20T13:22:44Z</time>
      </trkpt>
      <trkpt lat="44.757173918187618" lon="5.602408926934004">
        <ele>1398.5999755859375</ele>
        <time>2011-06-20T13:23:39Z</time>
      </trkpt>
      <trkpt lat="44.757074927911162" lon="5.602153949439526">
        <ele>1395.800048828125</ele>
        <time>2011-06-20T13:27:14Z</time>
      </trkpt>
      <trkpt lat="44.757021954283118" lon="5.601339982822537">
        <ele>1393.199951171875</ele>
        <time>2011-06-20T13:27:25Z</time>
      </trkpt>
      <trkpt lat="44.756927993148565" lon="5.600491985678673">
        <ele>1390.800048828125</ele>
        <time>2011-06-20T13:27:32Z</time>
      </trkpt>
      <trkpt lat="44.7566809784621" lon="5.599917992949486">
        <ele>1388.4000244140625</ele>
        <time>2011-06-20T13:27:37Z</time>
      </trkpt>
      <trkpt lat="44.756386941298842" lon="5.599428992718458">
        <ele>1384.800048828125</ele>
        <time>2011-06-20T13:27:42Z</time>
      </trkpt>
      <trkpt lat="44.756146967411041" lon="5.59870395809412">
        <ele>1382</ele>
        <time>2011-06-20T13:27:48Z</time>
      </trkpt>
      <trkpt lat="44.755708929151297" lon="5.597965931519866">
        <ele>1377.4000244140625</ele>
        <time>2011-06-20T13:27:55Z</time>
      </trkpt>
      <trkpt lat="44.755904981866479" lon="5.59674795717001">
        <ele>1371.800048828125</ele>
        <time>2011-06-20T13:28:04Z</time>
      </trkpt>
      <trkpt lat="44.755882937461138" lon="5.595971960574389">
        <ele>1368.800048828125</ele>
        <time>2011-06-20T13:28:09Z</time>
      </trkpt>
      <trkpt lat="44.755615973845124" lon="5.595215996727347">
        <ele>1365.4000244140625</ele>
        <time>2011-06-20T13:28:14Z</time>
      </trkpt>
      <trkpt lat="44.755107946693897" lon="5.594517951831222">
        <ele>1362.199951171875</ele>
        <time>2011-06-20T13:28:20Z</time>
      </trkpt>
      <trkpt lat="44.754733946174383" lon="5.59367791749537">
        <ele>1357.800048828125</ele>
        <time>2011-06-20T13:28:26Z</time>
      </trkpt>
      <trkpt lat="44.755030917003751" lon="5.592783987522125">
        <ele>1353</ele>
        <time>2011-06-20T13:28:33Z</time>
      </trkpt>
      <trkpt lat="44.754908960312605" lon="5.592068927362561">
        <ele>1349.800048828125</ele>
        <time>2011-06-20T13:28:38Z</time>
      </trkpt>
      <trkpt lat="44.7545759472996" lon="5.591261917725205">
        <ele>1346.4000244140625</ele>
        <time>2011-06-20T13:28:44Z</time>
      </trkpt>
      <trkpt lat="44.754578964784741" lon="5.590463960543275">
        <ele>1343.5999755859375</ele>
        <time>2011-06-20T13:28:49Z</time>
      </trkpt>
      <trkpt lat="44.754626993089914" lon="5.589541951194406">
        <ele>1340.199951171875</ele>
        <time>2011-06-20T13:28:55Z</time>
      </trkpt>
      <trkpt lat="44.754766970872879" lon="5.588915990665555">
        <ele>1337</ele>
        <time>2011-06-20T13:29:00Z</time>
      </trkpt>
      <trkpt lat="44.754504952579737" lon="5.588528998196125">
        <ele>1333.199951171875</ele>
        <time>2011-06-20T13:29:07Z</time>
      </trkpt>
      <trkpt lat="44.753958955407143" lon="5.589004922658205">
        <ele>1330.199951171875</ele>
        <time>2011-06-20T13:29:14Z</time>
      </trkpt>
      <trkpt lat="44.753475990146399" lon="5.589420916512609">
        <ele>1327</ele>
        <time>2011-06-20T13:29:20Z</time>
      </trkpt>
      <trkpt lat="44.753097966313362" lon="5.589839927852154">
        <ele>1323</ele>
        <time>2011-06-20T13:29:25Z</time>
      </trkpt>
      <trkpt lat="44.752662945538759" lon="5.589821990579367">
        <ele>1319.5999755859375</ele>
        <time>2011-06-20T13:29:31Z</time>
      </trkpt>
      <trkpt lat="44.752312917262316" lon="5.589075917378068">
        <ele>1317.199951171875</ele>
        <time>2011-06-20T13:29:38Z</time>
      </trkpt>
      <trkpt lat="44.751722998917103" lon="5.58798492886126">
        <ele>1313.199951171875</ele>
        <time>2011-06-20T13:29:47Z</time>
      </trkpt>
      <trkpt lat="44.751248918473721" lon="5.587327955290675">
        <ele>1309.800048828125</ele>
        <time>2011-06-20T13:29:53Z</time>
      </trkpt>
      <trkpt lat="44.750781962648034" lon="5.586916990578175">
        <ele>1306.800048828125</ele>
        <time>2011-06-20T13:29:58Z</time>
      </trkpt>
      <trkpt lat="44.750480968505144" lon="5.586254987865686">
        <ele>1301.5999755859375</ele>
        <time>2011-06-20T13:30:04Z</time>
      </trkpt>
      <trkpt lat="44.750487925484776" lon="5.586709957569838">
        <ele>1298.4000244140625</ele>
        <time>2011-06-20T13:30:16Z</time>
      </trkpt>
      <trkpt lat="44.750818926841021" lon="5.587420994415879">
        <ele>1297.800048828125</ele>
        <time>2011-06-20T13:30:24Z</time>
      </trkpt>
      <trkpt lat="44.751179935410619" lon="5.587970931082964">
        <ele>1292.800048828125</ele>
        <time>2011-06-20T13:30:30Z</time>
      </trkpt>
      <trkpt lat="44.751523928716779" lon="5.588670987635851">
        <ele>1289.4000244140625</ele>
        <time>2011-06-20T13:30:36Z</time>
      </trkpt>
      <trkpt lat="44.75188996642828" lon="5.589761976152659">
        <ele>1285.4000244140625</ele>
        <time>2011-06-20T13:30:44Z</time>
      </trkpt>
      <trkpt lat="44.75217193365097" lon="5.590845923870802">
        <ele>1280.5999755859375</ele>
        <time>2011-06-20T13:30:52Z</time>
      </trkpt>
      <trkpt lat="44.752632938325405" lon="5.591085981577635">
        <ele>1276</ele>
        <time>2011-06-20T13:30:59Z</time>
      </trkpt>
      <trkpt lat="44.753073994070292" lon="5.590897975489497">
        <ele>1273</ele>
        <time>2011-06-20T13:31:04Z</time>
      </trkpt>
      <trkpt lat="44.753396948799491" lon="5.590977938845754">
        <ele>1269.5999755859375</ele>
        <time>2011-06-20T13:31:12Z</time>
      </trkpt>
      <trkpt lat="44.75279294885695" lon="5.591055974364281">
        <ele>1266.800048828125</ele>
        <time>2011-06-20T13:31:21Z</time>
      </trkpt>
      <trkpt lat="44.75230093114078" lon="5.591287985444069">
        <ele>1264.5999755859375</ele>
        <time>2011-06-20T13:31:27Z</time>
      </trkpt>
      <trkpt lat="44.751887954771519" lon="5.590874925255776">
        <ele>1261.4000244140625</ele>
        <time>2011-06-20T13:31:33Z</time>
      </trkpt>
      <trkpt lat="44.751395937055349" lon="5.590136982500553">
        <ele>1258.5999755859375</ele>
        <time>2011-06-20T13:31:40Z</time>
      </trkpt>
      <trkpt lat="44.751060996204615" lon="5.589610934257507">
        <ele>1254.800048828125</ele>
        <time>2011-06-20T13:31:45Z</time>
      </trkpt>
      <trkpt lat="44.750684984028339" lon="5.589729957282543">
        <ele>1250.5999755859375</ele>
        <time>2011-06-20T13:31:53Z</time>
      </trkpt>
      <trkpt lat="44.750201934948564" lon="5.589530970901251">
        <ele>1247.199951171875</ele>
        <time>2011-06-20T13:32:00Z</time>
      </trkpt>
      <trkpt lat="44.749764986336231" lon="5.589046999812126">
        <ele>1246</ele>
        <time>2011-06-20T13:32:06Z</time>
      </trkpt>
      <trkpt lat="44.749366929754615" lon="5.58845498599112">
        <ele>1241.800048828125</ele>
        <time>2011-06-20T13:32:12Z</time>
      </trkpt>
      <trkpt lat="44.749330971390009" lon="5.587501963600516">
        <ele>1237.4000244140625</ele>
        <time>2011-06-20T13:32:20Z</time>
      </trkpt>
      <trkpt lat="44.749165931716561" lon="5.586232943460345">
        <ele>1232.5999755859375</ele>
        <time>2011-06-20T13:32:29Z</time>
      </trkpt>
      <trkpt lat="44.749041963368654" lon="5.584797961637378">
        <ele>1227.5999755859375</ele>
        <time>2011-06-20T13:32:38Z</time>
      </trkpt>
      <trkpt lat="44.749021930620074" lon="5.583468927070499">
        <ele>1223</ele>
        <time>2011-06-20T13:32:46Z</time>
      </trkpt>
      <trkpt lat="44.749016985297203" lon="5.582660995423794">
        <ele>1218</ele>
        <time>2011-06-20T13:32:52Z</time>
      </trkpt>
      <trkpt lat="44.748698975890875" lon="5.581827918067575">
        <ele>1213.800048828125</ele>
        <time>2011-06-20T13:33:00Z</time>
      </trkpt>
      <trkpt lat="44.748468976467848" lon="5.580970952287316">
        <ele>1210.199951171875</ele>
        <time>2011-06-20T13:33:07Z</time>
      </trkpt>
      <trkpt lat="44.74791593849659" lon="5.581122916191816">
        <ele>1206.800048828125</ele>
        <time>2011-06-20T13:33:14Z</time>
      </trkpt>
      <trkpt lat="44.747585942968726" lon="5.580773977562785">
        <ele>1201.199951171875</ele>
        <time>2011-06-20T13:33:21Z</time>
      </trkpt>
      <trkpt lat="44.74738092161715" lon="5.58020593598485">
        <ele>1199</ele>
        <time>2011-06-20T13:33:26Z</time>
      </trkpt>
      <trkpt lat="44.746830984950066" lon="5.579472938552499">
        <ele>1195.199951171875</ele>
        <time>2011-06-20T13:33:33Z</time>
      </trkpt>
      <trkpt lat="44.746302925050259" lon="5.579134980216622">
        <ele>1192.5999755859375</ele>
        <time>2011-06-20T13:33:38Z</time>
      </trkpt>
      <trkpt lat="44.745735973119736" lon="5.578842954710126">
        <ele>1189</ele>
        <time>2011-06-20T13:33:43Z</time>
      </trkpt>
      <trkpt lat="44.745276980102062" lon="5.578188998624682">
        <ele>1182</ele>
        <time>2011-06-20T13:33:50Z</time>
      </trkpt>
      <trkpt lat="44.745690962299705" lon="5.577719947323203">
        <ele>1177.4000244140625</ele>
        <time>2011-06-20T13:33:57Z</time>
      </trkpt>
      <trkpt lat="44.745283937081695" lon="5.577514925971627">
        <ele>1174</ele>
        <time>2011-06-20T13:34:05Z</time>
      </trkpt>
      <trkpt lat="44.744702987372875" lon="5.577813992276788">
        <ele>1170.199951171875</ele>
        <time>2011-06-20T13:34:12Z</time>
      </trkpt>
      <trkpt lat="44.744315994903445" lon="5.577365979552269">
        <ele>1166.5999755859375</ele>
        <time>2011-06-20T13:34:17Z</time>
      </trkpt>
      <trkpt lat="44.744289927184582" lon="5.57657397352159">
        <ele>1162.4000244140625</ele>
        <time>2011-06-20T13:34:23Z</time>
      </trkpt>
      <trkpt lat="44.74488596431911" lon="5.575634948909283">
        <ele>1157.800048828125</ele>
        <time>2011-06-20T13:34:31Z</time>
      </trkpt>
      <trkpt lat="44.745251918211579" lon="5.575205963104963">
        <ele>1154.800048828125</ele>
        <time>2011-06-20T13:34:35Z</time>
      </trkpt>
      <trkpt lat="44.745759945362806" lon="5.575074953958392">
        <ele>1150.800048828125</ele>
        <time>2011-06-20T13:34:40Z</time>
      </trkpt>
      <trkpt lat="44.746363945305347" lon="5.575108984485269">
        <ele>1147.4000244140625</ele>
        <time>2011-06-20T13:34:46Z</time>
      </trkpt>
      <trkpt lat="44.746805923059583" lon="5.57489893399179">
        <ele>1145.4000244140625</ele>
        <time>2011-06-20T13:34:51Z</time>
      </trkpt>
      <trkpt lat="44.746717996895313" lon="5.574156967923045">
        <ele>1142.800048828125</ele>
        <time>2011-06-20T13:34:57Z</time>
      </trkpt>
      <trkpt lat="44.746301919221878" lon="5.573289943858981">
        <ele>1139.4000244140625</ele>
        <time>2011-06-20T13:35:04Z</time>
      </trkpt>
      <trkpt lat="44.745861953124404" lon="5.572353936731815">
        <ele>1134.800048828125</ele>
        <time>2011-06-20T13:35:11Z</time>
      </trkpt>
      <trkpt lat="44.745193999260664" lon="5.571145936846733">
        <ele>1129</ele>
        <time>2011-06-20T13:35:20Z</time>
      </trkpt>
      <trkpt lat="44.744585976004601" lon="5.570204984396696">
        <ele>1124.800048828125</ele>
        <time>2011-06-20T13:35:27Z</time>
      </trkpt>
      <trkpt lat="44.743998991325498" lon="5.569465951994062">
        <ele>1120.199951171875</ele>
        <time>2011-06-20T13:35:33Z</time>
      </trkpt>
      <trkpt lat="44.743709983304143" lon="5.568742929026485">
        <ele>1115.5999755859375</ele>
        <time>2011-06-20T13:35:39Z</time>
      </trkpt>
      <trkpt lat="44.743877956643701" lon="5.56810699403286">
        <ele>1111.4000244140625</ele>
        <time>2011-06-20T13:35:45Z</time>
      </trkpt>
      <trkpt lat="44.744325969368219" lon="5.567850926890969">
        <ele>1108.800048828125</ele>
        <time>2011-06-20T13:35:50Z</time>
      </trkpt>
      <trkpt lat="44.744854951277375" lon="5.567568959668279">
        <ele>1105.4000244140625</ele>
        <time>2011-06-20T13:35:57Z</time>
      </trkpt>
      <trkpt lat="44.744616989046335" lon="5.56664795614779">
        <ele>1103</ele>
        <time>2011-06-20T13:36:06Z</time>
      </trkpt>
      <trkpt lat="44.744483968243003" lon="5.565729970112443">
        <ele>1100.800048828125</ele>
        <time>2011-06-20T13:36:14Z</time>
      </trkpt>
      <trkpt lat="44.744552951306105" lon="5.565010970458388">
        <ele>1099</ele>
        <time>2011-06-20T13:36:20Z</time>
      </trkpt>
      <trkpt lat="44.744761995971203" lon="5.564291970804334">
        <ele>1096.5999755859375</ele>
        <time>2011-06-20T13:36:26Z</time>
      </trkpt>
      <trkpt lat="44.745008926838636" lon="5.563096962869167">
        <ele>1092.800048828125</ele>
        <time>2011-06-20T13:36:35Z</time>
      </trkpt>
      <trkpt lat="44.745147982612252" lon="5.562395984306932">
        <ele>1090</ele>
        <time>2011-06-20T13:36:40Z</time>
      </trkpt>
      <trkpt lat="44.74501496180892" lon="5.561667932197452">
        <ele>1087.199951171875</ele>
        <time>2011-06-20T13:36:45Z</time>
      </trkpt>
      <trkpt lat="44.744806922972202" lon="5.561097962781787">
        <ele>1085.199951171875</ele>
        <time>2011-06-20T13:36:49Z</time>
      </trkpt>
      <trkpt lat="44.744484974071383" lon="5.560418944805861">
        <ele>1082.5999755859375</ele>
        <time>2011-06-20T13:36:54Z</time>
      </trkpt>
      <trkpt lat="44.74430694244802" lon="5.559674967080355">
        <ele>1079.4000244140625</ele>
        <time>2011-06-20T13:36:59Z</time>
      </trkpt>
      <trkpt lat="44.744098987430334" lon="5.559091921895742">
        <ele>1075.800048828125</ele>
        <time>2011-06-20T13:37:04Z</time>
      </trkpt>
      <trkpt lat="44.743534969165921" lon="5.558718927204609">
        <ele>1073</ele>
        <time>2011-06-20T13:37:10Z</time>
      </trkpt>
      <trkpt lat="44.743221988901496" lon="5.55809891782701">
        <ele>1070.199951171875</ele>
        <time>2011-06-20T13:37:15Z</time>
      </trkpt>
      <trkpt lat="44.742983942851424" lon="5.557230971753597">
        <ele>1067.199951171875</ele>
        <time>2011-06-20T13:37:21Z</time>
      </trkpt>
      <trkpt lat="44.742593932896852" lon="5.556116933003068">
        <ele>1062.800048828125</ele>
        <time>2011-06-20T13:37:29Z</time>
      </trkpt>
      <trkpt lat="44.742450937628746" lon="5.555211938917637">
        <ele>1060</ele>
        <time>2011-06-20T13:37:35Z</time>
      </trkpt>
      <trkpt lat="44.742444986477494" lon="5.554573992267251">
        <ele>1057.5999755859375</ele>
        <time>2011-06-20T13:37:39Z</time>
      </trkpt>
      <trkpt lat="44.742561997845769" lon="5.553755918517709">
        <ele>1054</ele>
        <time>2011-06-20T13:37:44Z</time>
      </trkpt>
      <trkpt lat="44.742818986997008" lon="5.552741959691048">
        <ele>1049.199951171875</ele>
        <time>2011-06-20T13:37:50Z</time>
      </trkpt>
      <trkpt lat="44.742851927876472" lon="5.551455924287438">
        <ele>1044</ele>
        <time>2011-06-20T13:37:57Z</time>
      </trkpt>
      <trkpt lat="44.742743968963623" lon="5.55061798542738">
        <ele>1038.5999755859375</ele>
        <time>2011-06-20T13:38:03Z</time>
      </trkpt>
      <trkpt lat="44.743109922856092" lon="5.549826985225081">
        <ele>1033.800048828125</ele>
        <time>2011-06-20T13:38:10Z</time>
      </trkpt>
      <trkpt lat="44.743513930588961" lon="5.549366986379027">
        <ele>1031</ele>
        <time>2011-06-20T13:38:15Z</time>
      </trkpt>
      <trkpt lat="44.744131928309798" lon="5.548412958160043">
        <ele>1025.4000244140625</ele>
        <time>2011-06-20T13:38:23Z</time>
      </trkpt>
      <trkpt lat="44.744626963511109" lon="5.547861931845546">
        <ele>1022.4000244140625</ele>
        <time>2011-06-20T13:38:28Z</time>
      </trkpt>
      <trkpt lat="44.745056955143809" lon="5.547447949647903">
        <ele>1019.2000122070312</ele>
        <time>2011-06-20T13:38:32Z</time>
      </trkpt>
      <trkpt lat="44.74568098783493" lon="5.546459974721074">
        <ele>1013</ele>
        <time>2011-06-20T13:38:39Z</time>
      </trkpt>
      <trkpt lat="44.746393952518702" lon="5.54552991874516">
        <ele>1006</ele>
        <time>2011-06-20T13:38:47Z</time>
      </trkpt>
      <trkpt lat="44.746722942218184" lon="5.54488392546773">
        <ele>1001.7999877929687</ele>
        <time>2011-06-20T13:38:52Z</time>
      </trkpt>
      <trkpt lat="44.746300997212529" lon="5.54406794719398">
        <ele>997.4000244140625</ele>
        <time>2011-06-20T13:39:01Z</time>
      </trkpt>
      <trkpt lat="44.745806967839599" lon="5.54380894638598">
        <ele>995.5999755859375</ele>
        <time>2011-06-20T13:39:07Z</time>
      </trkpt>
      <trkpt lat="44.745222916826606" lon="5.543740969151259">
        <ele>993</ele>
        <time>2011-06-20T13:39:13Z</time>
      </trkpt>
      <trkpt lat="44.744663927704096" lon="5.544058978557587">
        <ele>989.79998779296875</ele>
        <time>2011-06-20T13:39:19Z</time>
      </trkpt>
      <trkpt lat="44.744138969108462" lon="5.544229969382286">
        <ele>987.4000244140625</ele>
        <time>2011-06-20T13:39:24Z</time>
      </trkpt>
      <trkpt lat="44.743388956412673" lon="5.544069958850741">
        <ele>982.4000244140625</ele>
        <time>2011-06-20T13:39:31Z</time>
      </trkpt>
      <trkpt lat="44.742946978658438" lon="5.544182946905494">
        <ele>979.4000244140625</ele>
        <time>2011-06-20T13:39:35Z</time>
      </trkpt>
      <trkpt lat="44.742478933185339" lon="5.544157968834043">
        <ele>976.4000244140625</ele>
        <time>2011-06-20T13:39:39Z</time>
      </trkpt>
      <trkpt lat="44.741718946024776" lon="5.544438930228353">
        <ele>972</ele>
        <time>2011-06-20T13:39:47Z</time>
      </trkpt>
      <trkpt lat="44.741145959123969" lon="5.544273974373937">
        <ele>967.79998779296875</ele>
        <time>2011-06-20T13:39:53Z</time>
      </trkpt>
      <trkpt lat="44.740340961143374" lon="5.544748976826668">
        <ele>964</ele>
        <time>2011-06-20T13:40:01Z</time>
      </trkpt>
      <trkpt lat="44.739694967865944" lon="5.544918961822987">
        <ele>959</ele>
        <time>2011-06-20T13:40:08Z</time>
      </trkpt>
      <trkpt lat="44.73988096229732" lon="5.545090958476067">
        <ele>955.5999755859375</ele>
        <time>2011-06-20T13:40:18Z</time>
      </trkpt>
      <trkpt lat="44.740668945014477" lon="5.544844949617982">
        <ele>952.20001220703125</ele>
        <time>2011-06-20T13:40:28Z</time>
      </trkpt>
      <trkpt lat="44.741453994065523" lon="5.544792981818318">
        <ele>948</ele>
        <time>2011-06-20T13:40:36Z</time>
      </trkpt>
      <trkpt lat="44.742154972627759" lon="5.545172933489084">
        <ele>944.20001220703125</ele>
        <time>2011-06-20T13:40:43Z</time>
      </trkpt>
      <trkpt lat="44.742941949516535" lon="5.545023987069726">
        <ele>939.79998779296875</ele>
        <time>2011-06-20T13:40:50Z</time>
      </trkpt>
      <trkpt lat="44.743280997499824" lon="5.545487925410271">
        <ele>935.5999755859375</ele>
        <time>2011-06-20T13:40:57Z</time>
      </trkpt>
      <trkpt lat="44.743331959471107" lon="5.546223940327764">
        <ele>933.20001220703125</ele>
        <time>2011-06-20T13:41:03Z</time>
      </trkpt>
      <trkpt lat="44.743228945881128" lon="5.546886948868632">
        <ele>931</ele>
        <time>2011-06-20T13:41:08Z</time>
      </trkpt>
      <trkpt lat="44.742873972281814" lon="5.54735298268497">
        <ele>928.79998779296875</ele>
        <time>2011-06-20T13:41:13Z</time>
      </trkpt>
      <trkpt lat="44.742216998711228" lon="5.548043986782432">
        <ele>924.79998779296875</ele>
        <time>2011-06-20T13:41:21Z</time>
      </trkpt>
      <trkpt lat="44.741718946024776" lon="5.548586966469884">
        <ele>921.79998779296875</ele>
        <time>2011-06-20T13:41:27Z</time>
      </trkpt>
      <trkpt lat="44.741072952747345" lon="5.54960997775197">
        <ele>916.79998779296875</ele>
        <time>2011-06-20T13:41:36Z</time>
      </trkpt>
      <trkpt lat="44.740443974733353" lon="5.55048898793757">
        <ele>912.5999755859375</ele>
        <time>2011-06-20T13:41:44Z</time>
      </trkpt>
      <trkpt lat="44.73992396146059" lon="5.550822922959924">
        <ele>910.20001220703125</ele>
        <time>2011-06-20T13:41:49Z</time>
      </trkpt>
      <trkpt lat="44.739349968731403" lon="5.551355928182602">
        <ele>907</ele>
        <time>2011-06-20T13:41:55Z</time>
      </trkpt>
      <trkpt lat="44.738950990140438" lon="5.551679972559214">
        <ele>904.79998779296875</ele>
        <time>2011-06-20T13:41:59Z</time>
      </trkpt>
      <trkpt lat="44.738402981311083" lon="5.551941990852356">
        <ele>902.4000244140625</ele>
        <time>2011-06-20T13:42:04Z</time>
      </trkpt>
      <trkpt lat="44.737668978050351" lon="5.552241979166865">
        <ele>898.20001220703125</ele>
        <time>2011-06-20T13:42:11Z</time>
      </trkpt>
      <trkpt lat="44.73768699914217" lon="5.553629938513041">
        <ele>891</ele>
        <time>2011-06-20T13:42:24Z</time>
      </trkpt>
      <trkpt lat="44.737835945561528" lon="5.554232932627201">
        <ele>888</ele>
        <time>2011-06-20T13:42:32Z</time>
      </trkpt>
      <trkpt lat="44.73820298910141" lon="5.554833998903632">
        <ele>884.5999755859375</ele>
        <time>2011-06-20T13:42:51Z</time>
      </trkpt>
      <trkpt lat="44.736497942358255" lon="5.553340930491686">
        <ele>857.20001220703125</ele>
        <time>2011-06-21T07:01:47Z</time>
      </trkpt>
      <trkpt lat="44.736403981223702" lon="5.552569963037968">
        <ele>857.20001220703125</ele>
        <time>2011-06-21T07:02:04Z</time>
      </trkpt>
      <trkpt lat="44.737923955544829" lon="5.551006989553571">
        <ele>857.20001220703125</ele>
        <time>2011-06-21T07:02:33Z</time>
      </trkpt>
      <trkpt lat="44.738279934972525" lon="5.550542967393994">
        <ele>857.20001220703125</ele>
        <time>2011-06-21T07:02:38Z</time>
      </trkpt>
      <trkpt lat="44.738619988784194" lon="5.549838971346617">
        <ele>857.20001220703125</ele>
        <time>2011-06-21T07:02:44Z</time>
      </trkpt>
      <trkpt lat="44.738879995420575" lon="5.549238994717598">
        <ele>836</ele>
        <time>2011-06-21T07:02:49Z</time>
      </trkpt>
      <trkpt lat="44.739324990659952" lon="5.548560982570052">
        <ele>833.20001220703125</ele>
        <time>2011-06-21T07:02:58Z</time>
      </trkpt>
      <trkpt lat="44.738576989620924" lon="5.548116993159056">
        <ele>831.5999755859375</ele>
        <time>2011-06-21T07:03:18Z</time>
      </trkpt>
      <trkpt lat="44.737181989476085" lon="5.548373982310295">
        <ele>823.79998779296875</ele>
        <time>2011-06-21T07:03:43Z</time>
      </trkpt>
      <trkpt lat="44.736561980098486" lon="5.548472972586751">
        <ele>817.79998779296875</ele>
        <time>2011-06-21T07:03:50Z</time>
      </trkpt>
      <trkpt lat="44.735892936587334" lon="5.548175917938352">
        <ele>813.20001220703125</ele>
        <time>2011-06-21T07:03:58Z</time>
      </trkpt>
      <trkpt lat="44.73541097715497" lon="5.547827985137701">
        <ele>811.20001220703125</ele>
        <time>2011-06-21T07:04:04Z</time>
      </trkpt>
      <trkpt lat="44.734843941405416" lon="5.547554986551404">
        <ele>807.4000244140625</ele>
        <time>2011-06-21T07:04:10Z</time>
      </trkpt>
      <trkpt lat="44.734090995043516" lon="5.547411991283298">
        <ele>803.4000244140625</ele>
        <time>2011-06-21T07:04:17Z</time>
      </trkpt>
      <trkpt lat="44.73330695182085" lon="5.547592956572771">
        <ele>798.20001220703125</ele>
        <time>2011-06-21T07:04:25Z</time>
      </trkpt>
      <trkpt lat="44.732814934104681" lon="5.547933932393789">
        <ele>795.5999755859375</ele>
        <time>2011-06-21T07:04:30Z</time>
      </trkpt>
      <trkpt lat="44.732404975220561" lon="5.548326959833503">
        <ele>792.79998779296875</ele>
        <time>2011-06-21T07:04:35Z</time>
      </trkpt>
      <trkpt lat="44.73184397444129" lon="5.548314973711968">
        <ele>788</ele>
        <time>2011-06-21T07:04:42Z</time>
      </trkpt>
      <trkpt lat="44.731321949511766" lon="5.547861931845546">
        <ele>785.20001220703125</ele>
        <time>2011-06-21T07:04:48Z</time>
      </trkpt>
      <trkpt lat="44.730801936239004" lon="5.547621957957745">
        <ele>782</ele>
        <time>2011-06-21T07:04:53Z</time>
      </trkpt>
      <trkpt lat="44.729985957965255" lon="5.547809964045882">
        <ele>777.5999755859375</ele>
        <time>2011-06-21T07:05:00Z</time>
      </trkpt>
      <trkpt lat="44.729190934449434" lon="5.547959916293621">
        <ele>772.5999755859375</ele>
        <time>2011-06-21T07:05:07Z</time>
      </trkpt>
      <trkpt lat="44.728473946452141" lon="5.547806946560741">
        <ele>768.5999755859375</ele>
        <time>2011-06-21T07:05:13Z</time>
      </trkpt>
      <trkpt lat="44.727817978709936" lon="5.547561943531036">
        <ele>764.5999755859375</ele>
        <time>2011-06-21T07:05:19Z</time>
      </trkpt>
      <trkpt lat="44.727340964600444" lon="5.547240916639566">
        <ele>763</ele>
        <time>2011-06-21T07:05:24Z</time>
      </trkpt>
      <trkpt lat="44.726766971871257" lon="5.546997925266624">
        <ele>761.79998779296875</ele>
        <time>2011-06-21T07:05:30Z</time>
      </trkpt>
      <trkpt lat="44.726288951933384" lon="5.547003960236907">
        <ele>760</ele>
        <time>2011-06-21T07:05:35Z</time>
      </trkpt>
      <trkpt lat="44.72550499252975" lon="5.546620991080999">
        <ele>755.5999755859375</ele>
        <time>2011-06-21T07:05:43Z</time>
      </trkpt>
      <trkpt lat="44.724943991750479" lon="5.546070970594883">
        <ele>752.5999755859375</ele>
        <time>2011-06-21T07:05:49Z</time>
      </trkpt>
      <trkpt lat="44.724672921001911" lon="5.54544098675251">
        <ele>749</ele>
        <time>2011-06-21T07:05:54Z</time>
      </trkpt>
      <trkpt lat="44.724613996222615" lon="5.544253941625357">
        <ele>744</ele>
        <time>2011-06-21T07:06:02Z</time>
      </trkpt>
      <trkpt lat="44.724467983469367" lon="5.5436369497329">
        <ele>741.4000244140625</ele>
        <time>2011-06-21T07:06:07Z</time>
      </trkpt>
      <trkpt lat="44.724103957414627" lon="5.542744947597385">
        <ele>736.5999755859375</ele>
        <time>2011-06-21T07:06:15Z</time>
      </trkpt>
      <trkpt lat="44.723766921088099" lon="5.542037934064865">
        <ele>734.20001220703125</ele>
        <time>2011-06-21T07:06:21Z</time>
      </trkpt>
      <trkpt lat="44.723419994115829" lon="5.541376937180758">
        <ele>732</ele>
        <time>2011-06-21T07:06:27Z</time>
      </trkpt>
      <trkpt lat="44.723093938082457" lon="5.540853990241885">
        <ele>725.79998779296875</ele>
        <time>2011-06-21T07:06:35Z</time>
      </trkpt>
      <trkpt lat="44.723310945555568" lon="5.541583970189095">
        <ele>723</ele>
        <time>2011-06-21T07:06:46Z</time>
      </trkpt>
      <trkpt lat="44.72350699827075" lon="5.542268939316273">
        <ele>720.5999755859375</ele>
        <time>2011-06-21T07:06:52Z</time>
      </trkpt>
      <trkpt lat="44.723816961050034" lon="5.543125988915563">
        <ele>716.79998779296875</ele>
        <time>2011-06-21T07:06:59Z</time>
      </trkpt>
      <trkpt lat="44.723937995731831" lon="5.543992929160595">
        <ele>712</ele>
        <time>2011-06-21T07:07:06Z</time>
      </trkpt>
      <trkpt lat="44.724039919674397" lon="5.544604975730181">
        <ele>707.4000244140625</ele>
        <time>2011-06-21T07:07:14Z</time>
      </trkpt>
      <trkpt lat="44.723766921088099" lon="5.543954959139228">
        <ele>704.20001220703125</ele>
        <time>2011-06-21T07:07:23Z</time>
      </trkpt>
      <trkpt lat="44.723518984392285" lon="5.543280970305204">
        <ele>702</ele>
        <time>2011-06-21T07:07:29Z</time>
      </trkpt>
      <trkpt lat="44.723034929484129" lon="5.542270950973034">
        <ele>698.79998779296875</ele>
        <time>2011-06-21T07:07:38Z</time>
      </trkpt>
      <trkpt lat="44.722354989498854" lon="5.541074937209487">
        <ele>694.4000244140625</ele>
        <time>2011-06-21T07:07:49Z</time>
      </trkpt>
      <trkpt lat="44.721920974552631" lon="5.540510918945074">
        <ele>691</ele>
        <time>2011-06-21T07:07:55Z</time>
      </trkpt>
      <trkpt lat="44.721508920192719" lon="5.539839947596192">
        <ele>688.20001220703125</ele>
        <time>2011-06-21T07:08:01Z</time>
      </trkpt>
      <trkpt lat="44.721318986266851" lon="5.538993962109089">
        <ele>686</ele>
        <time>2011-06-21T07:08:07Z</time>
      </trkpt>
      <trkpt lat="44.721368942409754" lon="5.537871960550547">
        <ele>683.20001220703125</ele>
        <time>2011-06-21T07:08:15Z</time>
      </trkpt>
      <trkpt lat="44.721177918836474" lon="5.53691097535193">
        <ele>680</ele>
        <time>2011-06-21T07:08:23Z</time>
      </trkpt>
      <trkpt lat="44.720703922212124" lon="5.536228939890862">
        <ele>678.5999755859375</ele>
        <time>2011-06-21T07:08:31Z</time>
      </trkpt>
      <trkpt lat="44.720132946968079" lon="5.535906990990043">
        <ele>677.4000244140625</ele>
        <time>2011-06-21T07:08:39Z</time>
      </trkpt>
      <trkpt lat="44.719626931473613" lon="5.535167958587408">
        <ele>674.4000244140625</ele>
        <time>2011-06-21T07:08:48Z</time>
      </trkpt>
      <trkpt lat="44.718913966789842" lon="5.534659931436181">
        <ele>671.4000244140625</ele>
        <time>2011-06-21T07:08:57Z</time>
      </trkpt>
      <trkpt lat="44.71828892827034" lon="5.534469997510314">
        <ele>669</ele>
        <time>2011-06-21T07:09:04Z</time>
      </trkpt>
      <trkpt lat="44.717722982168198" lon="5.533758960664272">
        <ele>668</ele>
        <time>2011-06-21T07:09:14Z</time>
      </trkpt>
      <trkpt lat="44.717438919469714" lon="5.533228972926736">
        <ele>667.4000244140625</ele>
        <time>2011-06-21T07:09:21Z</time>
      </trkpt>
      <trkpt lat="44.716680943965912" lon="5.532246949151158">
        <ele>662.5999755859375</ele>
        <time>2011-06-21T07:09:33Z</time>
      </trkpt>
      <trkpt lat="44.716261932626367" lon="5.531874960288405">
        <ele>660.4000244140625</ele>
        <time>2011-06-21T07:09:38Z</time>
      </trkpt>
      <trkpt lat="44.715952975675464" lon="5.531324939802289">
        <ele>657.20001220703125</ele>
        <time>2011-06-21T07:09:43Z</time>
      </trkpt>
      <trkpt lat="44.71573093906045" lon="5.530437966808677">
        <ele>653</ele>
        <time>2011-06-21T07:09:50Z</time>
      </trkpt>
      <trkpt lat="44.715494988486171" lon="5.52934898994863">
        <ele>649.20001220703125</ele>
        <time>2011-06-21T07:10:01Z</time>
      </trkpt>
      <trkpt lat="44.71532491967082" lon="5.528728980571032">
        <ele>647.20001220703125</ele>
        <time>2011-06-21T07:10:08Z</time>
      </trkpt>
      <trkpt lat="44.715026943013072" lon="5.528201926499605">
        <ele>646.79998779296875</ele>
        <time>2011-06-21T07:10:17Z</time>
      </trkpt>
      <trkpt lat="44.714532997459173" lon="5.528132943436503">
        <ele>648</ele>
        <time>2011-06-21T07:10:29Z</time>
      </trkpt>
      <trkpt lat="44.714035950601101" lon="5.528061948716641">
        <ele>649.5999755859375</ele>
        <time>2011-06-21T07:10:41Z</time>
      </trkpt>
      <trkpt lat="44.713374953716993" lon="5.528133949264884">
        <ele>650.5999755859375</ele>
        <time>2011-06-21T07:10:57Z</time>
      </trkpt>
      <trkpt lat="44.712833985686302" lon="5.528294965624809">
        <ele>650.5999755859375</ele>
        <time>2011-06-21T07:11:09Z</time>
      </trkpt>
      <trkpt lat="44.712068969383836" lon="5.528388926759362">
        <ele>650.5999755859375</ele>
        <time>2011-06-21T07:11:26Z</time>
      </trkpt>
      <trkpt lat="44.711212925612926" lon="5.528419939801097">
        <ele>650.4000244140625</ele>
        <time>2011-06-21T07:11:44Z</time>
      </trkpt>
      <trkpt lat="44.710582941770554" lon="5.528251966461539">
        <ele>650.20001220703125</ele>
        <time>2011-06-21T07:11:56Z</time>
      </trkpt>
      <trkpt lat="44.70984298735857" lon="5.528092961758375">
        <ele>649.79998779296875</ele>
        <time>2011-06-21T07:12:10Z</time>
      </trkpt>
      <trkpt lat="44.70941198989749" lon="5.527812922373414">
        <ele>648.79998779296875</ele>
        <time>2011-06-21T07:12:18Z</time>
      </trkpt>
      <trkpt lat="44.708865992724895" lon="5.527430959045887">
        <ele>647.20001220703125</ele>
        <time>2011-06-21T07:12:27Z</time>
      </trkpt>
      <trkpt lat="44.708229973912239" lon="5.527488961815834">
        <ele>645.5999755859375</ele>
        <time>2011-06-21T07:12:36Z</time>
      </trkpt>
      <trkpt lat="44.707251973450184" lon="5.527236917987466">
        <ele>644.5999755859375</ele>
        <time>2011-06-21T07:12:51Z</time>
      </trkpt>
      <trkpt lat="44.706745957955718" lon="5.527144968509674">
        <ele>644.4000244140625</ele>
        <time>2011-06-21T07:12:59Z</time>
      </trkpt>
      <trkpt lat="44.706095941364765" lon="5.527272960171104">
        <ele>642.5999755859375</ele>
        <time>2011-06-21T07:13:08Z</time>
      </trkpt>
      <trkpt lat="44.705618927255273" lon="5.52756791934371">
        <ele>640.5999755859375</ele>
        <time>2011-06-21T07:13:14Z</time>
      </trkpt>
      <trkpt lat="44.705122970044613" lon="5.527616953477264">
        <ele>638.20001220703125</ele>
        <time>2011-06-21T07:13:20Z</time>
      </trkpt>
      <trkpt lat="44.704460967332125" lon="5.527366921305656">
        <ele>636.5999755859375</ele>
        <time>2011-06-21T07:13:29Z</time>
      </trkpt>
      <trkpt lat="44.703949922695756" lon="5.527256950736046">
        <ele>636.4000244140625</ele>
        <time>2011-06-21T07:13:37Z</time>
      </trkpt>
      <trkpt lat="44.70341993495822" lon="5.526966936886311">
        <ele>635.4000244140625</ele>
        <time>2011-06-21T07:13:46Z</time>
      </trkpt>
      <trkpt lat="44.702715938910842" lon="5.526502998545766">
        <ele>633.5999755859375</ele>
        <time>2011-06-21T07:13:58Z</time>
      </trkpt>
      <trkpt lat="44.702252922579646" lon="5.526311974972487">
        <ele>634</ele>
        <time>2011-06-21T07:14:06Z</time>
      </trkpt>
      <trkpt lat="44.701463934034109" lon="5.525843929499388">
        <ele>634.5999755859375</ele>
        <time>2011-06-21T07:14:21Z</time>
      </trkpt>
      <trkpt lat="44.700956996530294" lon="5.525387953966856">
        <ele>635.20001220703125</ele>
        <time>2011-06-21T07:14:32Z</time>
      </trkpt>
      <trkpt lat="44.700300944969058" lon="5.524743972346187">
        <ele>633.20001220703125</ele>
        <time>2011-06-21T07:14:43Z</time>
      </trkpt>
      <trkpt lat="44.699717983603477" lon="5.524227982386947">
        <ele>631.20001220703125</ele>
        <time>2011-06-21T07:14:51Z</time>
      </trkpt>
      <trkpt lat="44.699296960607171" lon="5.523999994620681">
        <ele>629.5999755859375</ele>
        <time>2011-06-21T07:14:56Z</time>
      </trkpt>
      <trkpt lat="44.698831932619214" lon="5.52352893166244">
        <ele>627.4000244140625</ele>
        <time>2011-06-21T07:15:02Z</time>
      </trkpt>
      <trkpt lat="44.698400935158134" lon="5.523225925862789">
        <ele>625.79998779296875</ele>
        <time>2011-06-21T07:15:07Z</time>
      </trkpt>
      <trkpt lat="44.697724934667349" lon="5.522918980568647">
        <ele>624</ele>
        <time>2011-06-21T07:15:15Z</time>
      </trkpt>
      <trkpt lat="44.696861933916807" lon="5.522952927276492">
        <ele>622.5999755859375</ele>
        <time>2011-06-21T07:15:26Z</time>
      </trkpt>
      <trkpt lat="44.696258939802647" lon="5.52279694005847">
        <ele>621.79998779296875</ele>
        <time>2011-06-21T07:15:35Z</time>
      </trkpt>
      <trkpt lat="44.695775974541903" lon="5.522834993898869">
        <ele>621</ele>
        <time>2011-06-21T07:15:43Z</time>
      </trkpt>
      <trkpt lat="44.694833932444453" lon="5.522312968969345">
        <ele>618.79998779296875</ele>
        <time>2011-06-21T07:15:57Z</time>
      </trkpt>
      <trkpt lat="44.694456998258829" lon="5.521966964006424">
        <ele>618.20001220703125</ele>
        <time>2011-06-21T07:16:03Z</time>
      </trkpt>
      <trkpt lat="44.693760965019464" lon="5.52191692404449">
        <ele>616.20001220703125</ele>
        <time>2011-06-21T07:16:12Z</time>
      </trkpt>
      <trkpt lat="44.693261990323663" lon="5.521600926294923">
        <ele>615</ele>
        <time>2011-06-21T07:16:19Z</time>
      </trkpt>
      <trkpt lat="44.692759998142719" lon="5.520726945251226">
        <ele>614.5999755859375</ele>
        <time>2011-06-21T07:16:31Z</time>
      </trkpt>
      <trkpt lat="44.692231938242912" lon="5.520326960831881">
        <ele>613.79998779296875</ele>
        <time>2011-06-21T07:16:41Z</time>
      </trkpt>
      <trkpt lat="44.691523918882012" lon="5.519748944789171">
        <ele>613.4000244140625</ele>
        <time>2011-06-21T07:16:56Z</time>
      </trkpt>
      <trkpt lat="44.69076594337821" lon="5.519314929842949">
        <ele>612</ele>
        <time>2011-06-21T07:17:11Z</time>
      </trkpt>
      <trkpt lat="44.690103940665722" lon="5.519167995080352">
        <ele>610.5999755859375</ele>
        <time>2011-06-21T07:17:22Z</time>
      </trkpt>
      <trkpt lat="44.68941293656826" lon="5.518827941268683">
        <ele>609</ele>
        <time>2011-06-21T07:17:33Z</time>
      </trkpt>
      <trkpt lat="44.688987974077463" lon="5.518524935469031">
        <ele>608</ele>
        <time>2011-06-21T07:17:40Z</time>
      </trkpt>
      <trkpt lat="44.688330916687846" lon="5.517534948885441">
        <ele>606</ele>
        <time>2011-06-21T07:17:54Z</time>
      </trkpt>
      <trkpt lat="44.68805599026382" lon="5.516577987000346">
        <ele>604.5999755859375</ele>
        <time>2011-06-21T07:18:05Z</time>
      </trkpt>
      <trkpt lat="44.687974937260151" lon="5.517200930044055">
        <ele>603</ele>
        <time>2011-06-21T07:18:20Z</time>
      </trkpt>
      <trkpt lat="44.687596997246146" lon="5.51772496663034">
        <ele>604.4000244140625</ele>
        <time>2011-06-21T07:18:34Z</time>
      </trkpt>
      <trkpt lat="44.687193995341659" lon="5.518233999609947">
        <ele>608.20001220703125</ele>
        <time>2011-06-21T07:18:50Z</time>
      </trkpt>
      <trkpt lat="44.686684962362051" lon="5.518773961812258">
        <ele>611.4000244140625</ele>
        <time>2011-06-21T07:19:10Z</time>
      </trkpt>
      <trkpt lat="44.686212977394462" lon="5.519129941239953">
        <ele>611.79998779296875</ele>
        <time>2011-06-21T07:19:25Z</time>
      </trkpt>
      <trkpt lat="44.685722971335053" lon="5.519425990059972">
        <ele>612.20001220703125</ele>
        <time>2011-06-21T07:19:39Z</time>
      </trkpt>
      <trkpt lat="44.685280993580818" lon="5.519614918157458">
        <ele>611.5999755859375</ele>
        <time>2011-06-21T07:20:59Z</time>
      </trkpt>
      <trkpt lat="44.684858964756131" lon="5.519851958379149">
        <ele>611.4000244140625</ele>
        <time>2011-06-21T07:21:21Z</time>
      </trkpt>
      <trkpt lat="44.684149939566851" lon="5.520156975835562">
        <ele>611</ele>
        <time>2011-06-21T07:21:35Z</time>
      </trkpt>
      <trkpt lat="44.683655994012952" lon="5.520270969718695">
        <ele>610.5999755859375</ele>
        <time>2011-06-21T07:21:43Z</time>
      </trkpt>
      <trkpt lat="44.682802967727184" lon="5.520587973296642">
        <ele>611.79998779296875</ele>
        <time>2011-06-21T07:21:58Z</time>
      </trkpt>
      <trkpt lat="44.682151945307851" lon="5.521084936335683">
        <ele>613.4000244140625</ele>
        <time>2011-06-21T07:22:12Z</time>
      </trkpt>
      <trkpt lat="44.681658921763301" lon="5.52144393324852">
        <ele>614.5999755859375</ele>
        <time>2011-06-21T07:22:23Z</time>
      </trkpt>
      <trkpt lat="44.681397993117571" lon="5.52234398201108">
        <ele>614.79998779296875</ele>
        <time>2011-06-21T07:22:38Z</time>
      </trkpt>
      <trkpt lat="44.681022986769676" lon="5.523042948916555">
        <ele>615.4000244140625</ele>
        <time>2011-06-21T07:22:51Z</time>
      </trkpt>
      <trkpt lat="44.680762980133295" lon="5.523627921938896">
        <ele>616.4000244140625</ele>
        <time>2011-06-21T07:23:00Z</time>
      </trkpt>
      <trkpt lat="44.680493921041489" lon="5.524691920727491">
        <ele>618.20001220703125</ele>
        <time>2011-06-21T07:23:15Z</time>
      </trkpt>
      <trkpt lat="44.680622918531299" lon="5.525624994188547">
        <ele>619.79998779296875</ele>
        <time>2011-06-21T07:23:28Z</time>
      </trkpt>
      <trkpt lat="44.680279931053519" lon="5.526490928605199">
        <ele>622.20001220703125</ele>
        <time>2011-06-21T07:23:45Z</time>
      </trkpt>
      <trkpt lat="44.679769976064563" lon="5.527219986543059">
        <ele>623.79998779296875</ele>
        <time>2011-06-21T07:24:02Z</time>
      </trkpt>
      <trkpt lat="44.679338978603482" lon="5.527973938733339">
        <ele>625.5999755859375</ele>
        <time>2011-06-21T07:24:19Z</time>
      </trkpt>
      <trkpt lat="44.678901946172118" lon="5.528731998056173">
        <ele>626.5999755859375</ele>
        <time>2011-06-21T07:24:35Z</time>
      </trkpt>
      <trkpt lat="44.678575973957777" lon="5.529275983572006">
        <ele>627</ele>
        <time>2011-06-21T07:24:45Z</time>
      </trkpt>
      <trkpt lat="44.678238937631249" lon="5.529769929125905">
        <ele>627.5999755859375</ele>
        <time>2011-06-21T07:24:54Z</time>
      </trkpt>
      <trkpt lat="44.677831996232271" lon="5.530271921306849">
        <ele>628.4000244140625</ele>
        <time>2011-06-21T07:25:04Z</time>
      </trkpt>
      <trkpt lat="44.677118947729468" lon="5.53108798339963">
        <ele>630.4000244140625</ele>
        <time>2011-06-21T07:25:22Z</time>
      </trkpt>
      <trkpt lat="44.676452921703458" lon="5.531590981408954">
        <ele>633.20001220703125</ele>
        <time>2011-06-21T07:25:39Z</time>
      </trkpt>
      <trkpt lat="44.676076993346214" lon="5.532134966924787">
        <ele>635</ele>
        <time>2011-06-21T07:25:52Z</time>
      </trkpt>
      <trkpt lat="44.67596098780632" lon="5.532755982130766">
        <ele>635.5999755859375</ele>
        <time>2011-06-21T07:26:01Z</time>
      </trkpt>
      <trkpt lat="44.675698969513178" lon="5.533419996500015">
        <ele>636.5999755859375</ele>
        <time>2011-06-21T07:26:12Z</time>
      </trkpt>
      <trkpt lat="44.675376936793327" lon="5.534324990585446">
        <ele>638.20001220703125</ele>
        <time>2011-06-21T07:26:28Z</time>
      </trkpt>
      <trkpt lat="44.675264954566956" lon="5.534947933629155">
        <ele>639</ele>
        <time>2011-06-21T07:26:38Z</time>
      </trkpt>
      <trkpt lat="44.674953985959291" lon="5.535559980198741">
        <ele>639.5999755859375</ele>
        <time>2011-06-21T07:26:50Z</time>
      </trkpt>
      <trkpt lat="44.674382926896214" lon="5.535940937697887">
        <ele>641.79998779296875</ele>
        <time>2011-06-21T07:27:05Z</time>
      </trkpt>
      <trkpt lat="44.673934997990727" lon="5.535913947969675">
        <ele>642.79998779296875</ele>
        <time>2011-06-21T07:27:16Z</time>
      </trkpt>
      <trkpt lat="44.673138968646526" lon="5.535407932475209">
        <ele>644.4000244140625</ele>
        <time>2011-06-21T07:27:37Z</time>
      </trkpt>
      <trkpt lat="44.672486940398812" lon="5.535309948027134">
        <ele>645.79998779296875</ele>
        <time>2011-06-21T07:27:53Z</time>
      </trkpt>
      <trkpt lat="44.672410916537046" lon="5.53553894162178">
        <ele>647.79998779296875</ele>
        <time>2011-06-21T07:29:01Z</time>
      </trkpt>
      <trkpt lat="44.672199944034219" lon="5.536251990124583">
        <ele>651.79998779296875</ele>
        <time>2011-06-21T07:30:12Z</time>
      </trkpt>
      <trkpt lat="44.671929962933064" lon="5.537055982276797">
        <ele>653.4000244140625</ele>
        <time>2011-06-21T07:30:27Z</time>
      </trkpt>
      <trkpt lat="44.671650929376483" lon="5.537787973880768">
        <ele>654.20001220703125</ele>
        <time>2011-06-21T07:30:40Z</time>
      </trkpt>
      <trkpt lat="44.671171987429261" lon="5.538634965196252">
        <ele>655.79998779296875</ele>
        <time>2011-06-21T07:30:55Z</time>
      </trkpt>
      <trkpt lat="44.670708971098065" lon="5.539309959858656">
        <ele>657</ele>
        <time>2011-06-21T07:31:08Z</time>
      </trkpt>
      <trkpt lat="44.670218965038657" lon="5.540018985047936">
        <ele>658.20001220703125</ele>
        <time>2011-06-21T07:31:22Z</time>
      </trkpt>
      <trkpt lat="44.669567942619324" lon="5.540780983865261">
        <ele>660.4000244140625</ele>
        <time>2011-06-21T07:31:41Z</time>
      </trkpt>
      <trkpt lat="44.668944999575615" lon="5.54153292439878">
        <ele>662.4000244140625</ele>
        <time>2011-06-21T07:31:59Z</time>
      </trkpt>
      <trkpt lat="44.668587930500507" lon="5.541918994858861">
        <ele>663.5999755859375</ele>
        <time>2011-06-21T07:32:09Z</time>
      </trkpt>
      <trkpt lat="44.668319961056113" lon="5.542437918484211">
        <ele>664.4000244140625</ele>
        <time>2011-06-21T07:32:18Z</time>
      </trkpt>
      <trkpt lat="44.668003963306546" lon="5.543311983346939">
        <ele>666</ele>
        <time>2011-06-21T07:32:33Z</time>
      </trkpt>
      <trkpt lat="44.668330941349268" lon="5.544117987155914">
        <ele>668.20001220703125</ele>
        <time>2011-06-21T07:32:49Z</time>
      </trkpt>
      <trkpt lat="44.668120974674821" lon="5.545034967362881">
        <ele>669.5999755859375</ele>
        <time>2011-06-21T07:33:06Z</time>
      </trkpt>
      <trkpt lat="44.667482944205403" lon="5.54552698507905">
        <ele>671.5999755859375</ele>
        <time>2011-06-21T07:33:22Z</time>
      </trkpt>
      <trkpt lat="44.6667889226228" lon="5.546149928122759">
        <ele>674</ele>
        <time>2011-06-21T07:33:42Z</time>
      </trkpt>
      <trkpt lat="44.666234962642193" lon="5.546451928094029">
        <ele>676</ele>
        <time>2011-06-21T07:33:57Z</time>
      </trkpt>
      <trkpt lat="44.66631299816072" lon="5.547990929335356">
        <ele>678.5999755859375</ele>
        <time>2011-06-21T07:34:23Z</time>
      </trkpt>
      <trkpt lat="44.665740933269262" lon="5.547846928238869">
        <ele>678.5999755859375</ele>
        <time>2011-06-21T07:34:39Z</time>
      </trkpt>
      <trkpt lat="44.665499953553081" lon="5.547220967710018">
        <ele>679.20001220703125</ele>
        <time>2011-06-21T07:34:50Z</time>
      </trkpt>
      <trkpt lat="44.665471957996488" lon="5.546458968892694">
        <ele>682.20001220703125</ele>
        <time>2011-06-21T07:35:02Z</time>
      </trkpt>
      <trkpt lat="44.660486988723278" lon="5.55244792252779">
        <ele>766.4000244140625</ele>
        <time>2011-06-21T07:42:17Z</time>
      </trkpt>
      <trkpt lat="44.660619925707579" lon="5.553056951612234">
        <ele>771.79998779296875</ele>
        <time>2011-06-21T07:42:46Z</time>
      </trkpt>
      <trkpt lat="44.660462932661176" lon="5.553659945726395">
        <ele>775.4000244140625</ele>
        <time>2011-06-21T07:43:12Z</time>
      </trkpt>
      <trkpt lat="44.660221952944994" lon="5.55422798730433">
        <ele>777.5999755859375</ele>
        <time>2011-06-21T07:43:31Z</time>
      </trkpt>
      <trkpt lat="44.659968987107277" lon="5.555337918922305">
        <ele>778.20001220703125</ele>
        <time>2011-06-21T07:43:51Z</time>
      </trkpt>
      <trkpt lat="44.659699928015471" lon="5.556041998788714">
        <ele>777.5999755859375</ele>
        <time>2011-06-21T07:44:07Z</time>
      </trkpt>
      <trkpt lat="44.65944092720747" lon="5.556622948497534">
        <ele>777.20001220703125</ele>
        <time>2011-06-21T07:44:19Z</time>
      </trkpt>
      <trkpt lat="44.659101963043213" lon="5.557149918749929">
        <ele>776.20001220703125</ele>
        <time>2011-06-21T07:44:30Z</time>
      </trkpt>
      <trkpt lat="44.658701978623867" lon="5.557513944804668">
        <ele>776.79998779296875</ele>
        <time>2011-06-21T07:44:44Z</time>
      </trkpt>
      <trkpt lat="44.658088926225901" lon="5.557701950892806">
        <ele>776.4000244140625</ele>
        <time>2011-06-21T07:46:03Z</time>
      </trkpt>
      <trkpt lat="44.657393982633948" lon="5.557804964482784">
        <ele>777</ele>
        <time>2011-06-21T07:46:22Z</time>
      </trkpt>
      <trkpt lat="44.656772967427969" lon="5.558085925877094">
        <ele>778</ele>
        <time>2011-06-21T07:46:38Z</time>
      </trkpt>
      <trkpt lat="44.65621892362833" lon="5.558515917509794">
        <ele>779</ele>
        <time>2011-06-21T07:46:54Z</time>
      </trkpt>
      <trkpt lat="44.655675943940878" lon="5.558558916673064">
        <ele>779.4000244140625</ele>
        <time>2011-06-21T07:47:07Z</time>
      </trkpt>
      <trkpt lat="44.654979994520545" lon="5.558895952999592">
        <ele>780.5999755859375</ele>
        <time>2011-06-21T07:47:24Z</time>
      </trkpt>
      <trkpt lat="44.654340958222747" lon="5.559316975995898">
        <ele>781.5999755859375</ele>
        <time>2011-06-21T07:47:40Z</time>
      </trkpt>
      <trkpt lat="44.653795966878533" lon="5.559704974293709">
        <ele>783.20001220703125</ele>
        <time>2011-06-21T07:47:55Z</time>
      </trkpt>
      <trkpt lat="44.653169922530651" lon="5.560372928157449">
        <ele>785.4000244140625</ele>
        <time>2011-06-21T07:48:15Z</time>
      </trkpt>
      <trkpt lat="44.652461986988783" lon="5.560669982805848">
        <ele>787</ele>
        <time>2011-06-21T07:48:33Z</time>
      </trkpt>
      <trkpt lat="44.651747932657599" lon="5.561068961396813">
        <ele>788.4000244140625</ele>
        <time>2011-06-21T07:48:51Z</time>
      </trkpt>
      <trkpt lat="44.651006972417235" lon="5.561531977728009">
        <ele>790.5999755859375</ele>
        <time>2011-06-21T07:49:10Z</time>
      </trkpt>
      <trkpt lat="44.65048092417419" lon="5.561974961310625">
        <ele>793</ele>
        <time>2011-06-21T07:49:26Z</time>
      </trkpt>
      <trkpt lat="44.650135925039649" lon="5.562571920454502">
        <ele>795.20001220703125</ele>
        <time>2011-06-21T07:49:41Z</time>
      </trkpt>
      <trkpt lat="44.649747926741838" lon="5.563115989789367">
        <ele>798.79998779296875</ele>
        <time>2011-06-21T07:49:58Z</time>
      </trkpt>
      <trkpt lat="44.649311983957887" lon="5.563566936179996">
        <ele>803.79998779296875</ele>
        <time>2011-06-21T07:50:22Z</time>
      </trkpt>
      <trkpt lat="44.648927925154567" lon="5.564185939729214">
        <ele>808.4000244140625</ele>
        <time>2011-06-21T07:50:48Z</time>
      </trkpt>
      <trkpt lat="44.64869893155992" lon="5.56486495770514">
        <ele>808.4000244140625</ele>
        <time>2011-06-21T07:51:10Z</time>
      </trkpt>
      <trkpt lat="44.648343957960606" lon="5.565538946539164">
        <ele>800.4000244140625</ele>
        <time>2011-06-21T07:54:12Z</time>
      </trkpt>
      <trkpt lat="44.647960988804698" lon="5.566036999225617">
        <ele>798.20001220703125</ele>
        <time>2011-06-21T07:54:35Z</time>
      </trkpt>
      <trkpt lat="44.647604925557971" lon="5.566419968381524">
        <ele>797</ele>
        <time>2011-06-21T07:54:55Z</time>
      </trkpt>
      <trkpt lat="44.647276941686869" lon="5.565665932372212">
        <ele>796.79998779296875</ele>
        <time>2011-06-21T07:55:19Z</time>
      </trkpt>
      <trkpt lat="44.647072926163673" lon="5.56503695435822">
        <ele>795.20001220703125</ele>
        <time>2011-06-21T07:55:28Z</time>
      </trkpt>
      <trkpt lat="44.646901935338974" lon="5.564250983297825">
        <ele>796.79998779296875</ele>
        <time>2011-06-21T07:55:42Z</time>
      </trkpt>
      <trkpt lat="44.646880980581045" lon="5.563207939267159">
        <ele>797</ele>
        <time>2011-06-21T07:55:59Z</time>
      </trkpt>
      <trkpt lat="44.64682892896235" lon="5.562369916588068">
        <ele>798.5999755859375</ele>
        <time>2011-06-21T07:56:15Z</time>
      </trkpt>
      <trkpt lat="44.646698925644159" lon="5.561491996049881">
        <ele>796.4000244140625</ele>
        <time>2011-06-21T07:56:29Z</time>
      </trkpt>
      <trkpt lat="44.646336995065212" lon="5.561097962781787">
        <ele>794.20001220703125</ele>
        <time>2011-06-21T07:56:37Z</time>
      </trkpt>
      <trkpt lat="44.64560491964221" lon="5.560972988605499">
        <ele>795.20001220703125</ele>
        <time>2011-06-21T07:56:54Z</time>
      </trkpt>
      <trkpt lat="44.645051965489984" lon="5.560861928388476">
        <ele>796.79998779296875</ele>
        <time>2011-06-21T07:57:08Z</time>
      </trkpt>
      <trkpt lat="44.644550979137421" lon="5.560771990567446">
        <ele>798.5999755859375</ele>
        <time>2011-06-21T07:57:22Z</time>
      </trkpt>
      <trkpt lat="44.644034989178181" lon="5.560371922329068">
        <ele>800.20001220703125</ele>
        <time>2011-06-21T07:57:39Z</time>
      </trkpt>
      <trkpt lat="44.643485974520445" lon="5.559843946248293">
        <ele>802.79998779296875</ele>
        <time>2011-06-21T07:58:00Z</time>
      </trkpt>
      <trkpt lat="44.642843920737505" lon="5.559509927406907">
        <ele>805.20001220703125</ele>
        <time>2011-06-21T07:58:20Z</time>
      </trkpt>
      <trkpt lat="44.642209997400641" lon="5.55940599180758">
        <ele>807.5999755859375</ele>
        <time>2011-06-21T07:58:38Z</time>
      </trkpt>
      <trkpt lat="44.64175695553422" lon="5.559358969330788">
        <ele>810.20001220703125</ele>
        <time>2011-06-21T07:58:53Z</time>
      </trkpt>
      <trkpt lat="44.641147926449776" lon="5.559092927724123">
        <ele>814.4000244140625</ele>
        <time>2011-06-21T07:59:17Z</time>
      </trkpt>
      <trkpt lat="44.640693962574005" lon="5.558852953836322">
        <ele>815.79998779296875</ele>
        <time>2011-06-21T07:59:33Z</time>
      </trkpt>
      <trkpt lat="44.640304958447814" lon="5.558411981910467">
        <ele>816.20001220703125</ele>
        <time>2011-06-21T07:59:47Z</time>
      </trkpt>
      <trkpt lat="44.64003698900342" lon="5.55786095559597">
        <ele>818.20001220703125</ele>
        <time>2011-06-21T08:00:03Z</time>
      </trkpt>
      <trkpt lat="44.639532985165715" lon="5.557265924289823">
        <ele>821</ele>
        <time>2011-06-21T08:00:27Z</time>
      </trkpt>
      <trkpt lat="44.639088995754719" lon="5.556800980120897">
        <ele>823.20001220703125</ele>
        <time>2011-06-21T08:00:45Z</time>
      </trkpt>
      <trkpt lat="44.638743996620178" lon="5.556326983496547">
        <ele>825.4000244140625</ele>
        <time>2011-06-21T08:01:01Z</time>
      </trkpt>
      <trkpt lat="44.638364966958761" lon="5.555466916412115">
        <ele>828.4000244140625</ele>
        <time>2011-06-21T08:01:27Z</time>
      </trkpt>
      <trkpt lat="44.63782399892807" lon="5.555482925847173">
        <ele>831</ele>
        <time>2011-06-21T08:01:49Z</time>
      </trkpt>
      <trkpt lat="44.637412950396538" lon="5.55562692694366">
        <ele>833.79998779296875</ele>
        <time>2011-06-21T08:03:58Z</time>
      </trkpt>
      <trkpt lat="44.636981952935457" lon="5.555883999913931">
        <ele>835.4000244140625</ele>
        <time>2011-06-21T08:04:17Z</time>
      </trkpt>
      <trkpt lat="44.636494964361191" lon="5.555912917479873">
        <ele>840</ele>
        <time>2011-06-21T08:04:37Z</time>
      </trkpt>
      <trkpt lat="44.635973945260048" lon="5.55575693026185">
        <ele>842.79998779296875</ele>
        <time>2011-06-21T08:04:58Z</time>
      </trkpt>
      <trkpt lat="44.635462984442711" lon="5.555493989959359">
        <ele>845.20001220703125</ele>
        <time>2011-06-21T08:05:17Z</time>
      </trkpt>
      <trkpt lat="44.634836940094829" lon="5.55519693531096">
        <ele>847.79998779296875</ele>
        <time>2011-06-21T08:05:41Z</time>
      </trkpt>
      <trkpt lat="44.634393956512213" lon="5.554928965866566">
        <ele>848.79998779296875</ele>
        <time>2011-06-21T08:05:55Z</time>
      </trkpt>
      <trkpt lat="44.633950972929597" lon="5.554518923163414">
        <ele>852</ele>
        <time>2011-06-21T08:06:15Z</time>
      </trkpt>
      <trkpt lat="44.633519975468516" lon="5.553978960961103">
        <ele>854.20001220703125</ele>
        <time>2011-06-21T08:06:35Z</time>
      </trkpt>
      <trkpt lat="44.633299950510263" lon="5.553211933001876">
        <ele>858.4000244140625</ele>
        <time>2011-06-21T08:06:58Z</time>
      </trkpt>
      <trkpt lat="44.632776919752359" lon="5.553128952160478">
        <ele>860.79998779296875</ele>
        <time>2011-06-21T08:07:17Z</time>
      </trkpt>
      <trkpt lat="44.632264953106642" lon="5.553389964625239">
        <ele>864.79998779296875</ele>
        <time>2011-06-21T08:07:38Z</time>
      </trkpt>
      <trkpt lat="44.631694983690977" lon="5.553667992353439">
        <ele>867.5999755859375</ele>
        <time>2011-06-21T08:07:59Z</time>
      </trkpt>
      <trkpt lat="44.631263986229897" lon="5.553897991776466">
        <ele>871.5999755859375</ele>
        <time>2011-06-21T08:08:20Z</time>
      </trkpt>
      <trkpt lat="44.630714971572161" lon="5.554169984534383">
        <ele>876.79998779296875</ele>
        <time>2011-06-21T08:08:50Z</time>
      </trkpt>
      <trkpt lat="44.630107954144478" lon="5.554283978417516">
        <ele>881</ele>
        <time>2011-06-21T08:09:17Z</time>
      </trkpt>
      <trkpt lat="44.629559945315123" lon="5.554324965924025">
        <ele>886.4000244140625</ele>
        <time>2011-06-21T08:09:46Z</time>
      </trkpt>
      <trkpt lat="44.629068933427334" lon="5.554248942062259">
        <ele>890.20001220703125</ele>
        <time>2011-06-21T08:12:01Z</time>
      </trkpt>
      <trkpt lat="44.628582950681448" lon="5.554172918200493">
        <ele>893.4000244140625</ele>
        <time>2011-06-21T08:12:21Z</time>
      </trkpt>
      <trkpt lat="44.627936957404017" lon="5.554033946245909">
        <ele>897.4000244140625</ele>
        <time>2011-06-21T08:12:46Z</time>
      </trkpt>
      <trkpt lat="44.627369921654463" lon="5.553918946534395">
        <ele>904.79998779296875</ele>
        <time>2011-06-21T08:13:18Z</time>
      </trkpt>
      <trkpt lat="44.626893997192383" lon="5.553791960701346">
        <ele>911</ele>
        <time>2011-06-21T08:13:44Z</time>
      </trkpt>
      <trkpt lat="44.626454953104258" lon="5.553508987650275">
        <ele>918.4000244140625</ele>
        <time>2011-06-21T08:14:17Z</time>
      </trkpt>
      <trkpt lat="44.626946970820427" lon="5.5532849393785">
        <ele>920.4000244140625</ele>
        <time>2011-06-21T08:14:40Z</time>
      </trkpt>
      <trkpt lat="44.627464972436428" lon="5.553240934386849">
        <ele>923.5999755859375</ele>
        <time>2011-06-21T08:15:00Z</time>
      </trkpt>
      <trkpt lat="44.627912985160947" lon="5.553057957440615">
        <ele>927.4000244140625</ele>
        <time>2011-06-21T08:15:24Z</time>
      </trkpt>
      <trkpt lat="44.628382958471775" lon="5.552515983581543">
        <ele>931.79998779296875</ele>
        <time>2011-06-21T08:15:52Z</time>
      </trkpt>
      <trkpt lat="44.628885956481099" lon="5.552068976685405">
        <ele>937.79998779296875</ele>
        <time>2011-06-21T08:16:24Z</time>
      </trkpt>
      <trkpt lat="44.629437988623977" lon="5.551797989755869">
        <ele>942.79998779296875</ele>
        <time>2011-06-21T08:16:53Z</time>
      </trkpt>
      <trkpt lat="44.62961794808507" lon="5.551279988139868">
        <ele>947.20001220703125</ele>
        <time>2011-06-21T08:17:17Z</time>
      </trkpt>
      <trkpt lat="44.629479981958866" lon="5.55064195767045">
        <ele>952</ele>
        <time>2011-06-21T08:17:43Z</time>
      </trkpt>
      <trkpt lat="44.629331957548857" lon="5.5500159971416">
        <ele>957.4000244140625</ele>
        <time>2011-06-21T08:18:12Z</time>
      </trkpt>
      <trkpt lat="44.629199942573905" lon="5.549337984994054">
        <ele>962.79998779296875</ele>
        <time>2011-06-21T08:18:45Z</time>
      </trkpt>
      <trkpt lat="44.62936095893383" lon="5.548602975904942">
        <ele>967.5999755859375</ele>
        <time>2011-06-21T08:19:16Z</time>
      </trkpt>
      <trkpt lat="44.629487944766879" lon="5.54791197180748">
        <ele>971.20001220703125</ele>
        <time>2011-06-21T08:19:41Z</time>
      </trkpt>
      <trkpt lat="44.629573943093419" lon="5.547236977145076">
        <ele>975.4000244140625</ele>
        <time>2011-06-21T08:20:07Z</time>
      </trkpt>
      <trkpt lat="44.630006952211261" lon="5.546642951667309">
        <ele>980.4000244140625</ele>
        <time>2011-06-21T08:20:37Z</time>
      </trkpt>
      <trkpt lat="44.630493940785527" lon="5.546622918918729">
        <ele>984.20001220703125</ele>
        <time>2011-06-21T08:21:01Z</time>
      </trkpt>
      <trkpt lat="44.630969949066639" lon="5.546567933633924">
        <ele>989.4000244140625</ele>
        <time>2011-06-21T08:21:28Z</time>
      </trkpt>
      <trkpt lat="44.630761994048953" lon="5.54610793478787">
        <ele>994.20001220703125</ele>
        <time>2011-06-21T08:21:55Z</time>
      </trkpt>
      <trkpt lat="44.630281962454319" lon="5.545583982020617">
        <ele>1000.4000244140625</ele>
        <time>2011-06-21T08:22:28Z</time>
      </trkpt>
      <trkpt lat="44.63000594638288" lon="5.544926924631">
        <ele>1005.4000244140625</ele>
        <time>2011-06-21T08:22:58Z</time>
      </trkpt>
      <trkpt lat="44.629669999703765" lon="5.544240949675441">
        <ele>1011.2000122070312</ele>
        <time>2011-06-21T08:23:31Z</time>
      </trkpt>
      <trkpt lat="44.629153925925493" lon="5.544096948578954">
        <ele>1015.2000122070312</ele>
        <time>2011-06-21T08:23:57Z</time>
      </trkpt>
      <trkpt lat="44.629067927598953" lon="5.543510969728231">
        <ele>1018</ele>
        <time>2011-06-21T08:24:26Z</time>
      </trkpt>
      <trkpt lat="44.629526920616627" lon="5.543298991397023">
        <ele>1015.7999877929687</ele>
        <time>2011-06-21T08:24:41Z</time>
      </trkpt>
      <trkpt lat="44.629898993298411" lon="5.542979976162314">
        <ele>1014.2000122070312</ele>
        <time>2011-06-21T08:26:11Z</time>
      </trkpt>
      <trkpt lat="44.629741916432977" lon="5.542079927399755">
        <ele>1010.2000122070312</ele>
        <time>2011-06-21T08:26:26Z</time>
      </trkpt>
      <trkpt lat="44.629573943093419" lon="5.541386995464563">
        <ele>1006</ele>
        <time>2011-06-21T08:26:35Z</time>
      </trkpt>
      <trkpt lat="44.629348972812295" lon="5.540702948346734">
        <ele>1001.7999877929687</ele>
        <time>2011-06-21T08:26:47Z</time>
      </trkpt>
      <trkpt lat="44.629414938390255" lon="5.539763923734427">
        <ele>995</ele>
        <time>2011-06-21T08:26:59Z</time>
      </trkpt>
      <trkpt lat="44.629701934754848" lon="5.538887931033969">
        <ele>987.20001220703125</ele>
        <time>2011-06-21T08:27:10Z</time>
      </trkpt>
      <trkpt lat="44.630026984959841" lon="5.538089973852038">
        <ele>979.79998779296875</ele>
        <time>2011-06-21T08:27:21Z</time>
      </trkpt>
      <trkpt lat="44.630119940266013" lon="5.537266954779625">
        <ele>975</ele>
        <time>2011-06-21T08:27:31Z</time>
      </trkpt>
      <trkpt lat="44.630290931090713" lon="5.536533957347274">
        <ele>969.4000244140625</ele>
        <time>2011-06-21T08:27:39Z</time>
      </trkpt>
      <trkpt lat="44.630481954663992" lon="5.535350935533643">
        <ele>959.79998779296875</ele>
        <time>2011-06-21T08:27:51Z</time>
      </trkpt>
      <trkpt lat="44.630631990730762" lon="5.534446947276592">
        <ele>951.79998779296875</ele>
        <time>2011-06-21T08:28:02Z</time>
      </trkpt>
      <trkpt lat="44.630285985767841" lon="5.535222943872213">
        <ele>945</ele>
        <time>2011-06-21T08:28:19Z</time>
      </trkpt>
      <trkpt lat="44.629951966926455" lon="5.535684954375029">
        <ele>940</ele>
        <time>2011-06-21T08:28:27Z</time>
      </trkpt>
      <trkpt lat="44.62944695726037" lon="5.535828955471516">
        <ele>933.5999755859375</ele>
        <time>2011-06-21T08:28:36Z</time>
      </trkpt>
      <trkpt lat="44.628991987556219" lon="5.536090973764658">
        <ele>929.20001220703125</ele>
        <time>2011-06-21T08:28:43Z</time>
      </trkpt>
      <trkpt lat="44.629177981987596" lon="5.535582946613431">
        <ele>922.5999755859375</ele>
        <time>2011-06-21T08:28:54Z</time>
      </trkpt>
      <trkpt lat="44.629482999444008" lon="5.535075925290585">
        <ele>916.79998779296875</ele>
        <time>2011-06-21T08:29:01Z</time>
      </trkpt>
      <trkpt lat="44.629750968888402" lon="5.534607963636518">
        <ele>913.20001220703125</ele>
        <time>2011-06-21T08:29:09Z</time>
      </trkpt>
      <trkpt lat="44.629757925868034" lon="5.533779999241233">
        <ele>908.4000244140625</ele>
        <time>2011-06-21T08:29:17Z</time>
      </trkpt>
      <trkpt lat="44.629960935562849" lon="5.533077931031585">
        <ele>902</ele>
        <time>2011-06-21T08:29:25Z</time>
      </trkpt>
      <trkpt lat="44.63004894554615" lon="5.532301934435964">
        <ele>896</ele>
        <time>2011-06-21T08:29:33Z</time>
      </trkpt>
      <trkpt lat="44.630383970215917" lon="5.53175593726337">
        <ele>890.79998779296875</ele>
        <time>2011-06-21T08:29:41Z</time>
      </trkpt>
      <trkpt lat="44.630866935476661" lon="5.530994944274426">
        <ele>883.4000244140625</ele>
        <time>2011-06-21T08:29:53Z</time>
      </trkpt>
      <trkpt lat="44.631278989836574" lon="5.530663942918181">
        <ele>880</ele>
        <time>2011-06-21T08:30:00Z</time>
      </trkpt>
      <trkpt lat="44.630847992375493" lon="5.530451964586973">
        <ele>872.20001220703125</ele>
        <time>2011-06-21T08:30:14Z</time>
      </trkpt>
      <trkpt lat="44.630317920818925" lon="5.530750947073102">
        <ele>865.4000244140625</ele>
        <time>2011-06-21T08:30:23Z</time>
      </trkpt>
      <trkpt lat="44.630682952702045" lon="5.529846958816052">
        <ele>857</ele>
        <time>2011-06-21T08:30:38Z</time>
      </trkpt>
      <trkpt lat="44.631029963493347" lon="5.529326945543289">
        <ele>850.4000244140625</ele>
        <time>2011-06-21T08:30:45Z</time>
      </trkpt>
      <trkpt lat="44.630709942430258" lon="5.529236923903227">
        <ele>846.5999755859375</ele>
        <time>2011-06-21T08:30:56Z</time>
      </trkpt>
      <trkpt lat="44.630119940266013" lon="5.529323928058147">
        <ele>840.4000244140625</ele>
        <time>2011-06-21T08:31:07Z</time>
      </trkpt>
      <trkpt lat="44.629916930571198" lon="5.528656980022788">
        <ele>834.5999755859375</ele>
        <time>2011-06-21T08:31:17Z</time>
      </trkpt>
      <trkpt lat="44.629792962223291" lon="5.527725918218494">
        <ele>826.79998779296875</ele>
        <time>2011-06-21T08:31:28Z</time>
      </trkpt>
      <trkpt lat="44.629991948604584" lon="5.527127953246236">
        <ele>821.4000244140625</ele>
        <time>2011-06-21T08:31:37Z</time>
      </trkpt>
      <trkpt lat="44.629609985277057" lon="5.52636293694377">
        <ele>818.4000244140625</ele>
        <time>2011-06-21T08:31:55Z</time>
      </trkpt>
      <trkpt lat="44.629432959482074" lon="5.525511922314763">
        <ele>821</ele>
        <time>2011-06-21T08:32:17Z</time>
      </trkpt>
      <trkpt lat="44.629220981150866" lon="5.524850925430656">
        <ele>823.4000244140625</ele>
        <time>2011-06-21T08:32:39Z</time>
      </trkpt>
      <trkpt lat="44.628814961761236" lon="5.524347927421331">
        <ele>822.5999755859375</ele>
        <time>2011-06-21T08:32:57Z</time>
      </trkpt>
      <trkpt lat="44.628267958760262" lon="5.52391198463738">
        <ele>820.20001220703125</ele>
        <time>2011-06-21T08:33:09Z</time>
      </trkpt>
      <trkpt lat="44.627817934378982" lon="5.52359095774591">
        <ele>818.79998779296875</ele>
        <time>2011-06-21T08:33:18Z</time>
      </trkpt>
      <trkpt lat="44.627155931666493" lon="5.523019982501864">
        <ele>816.5999755859375</ele>
        <time>2011-06-21T08:33:30Z</time>
      </trkpt>
      <trkpt lat="44.626377923414111" lon="5.52240994758904">
        <ele>812.20001220703125</ele>
        <time>2011-06-21T08:33:41Z</time>
      </trkpt>
      <trkpt lat="44.625838967040181" lon="5.522071989253163">
        <ele>807.5999755859375</ele>
        <time>2011-06-21T08:33:48Z</time>
      </trkpt>
      <trkpt lat="44.62523496709764" lon="5.520993992686272">
        <ele>802</ele>
        <time>2011-06-21T08:33:58Z</time>
      </trkpt>
      <trkpt lat="44.624814949929714" lon="5.520076928660274">
        <ele>797.4000244140625</ele>
        <time>2011-06-21T08:34:05Z</time>
      </trkpt>
      <trkpt lat="44.624585956335068" lon="5.519307972863317">
        <ele>793.79998779296875</ele>
        <time>2011-06-21T08:34:10Z</time>
      </trkpt>
      <trkpt lat="44.62431195192039" lon="5.518203992396593">
        <ele>787.79998779296875</ele>
        <time>2011-06-21T08:34:17Z</time>
      </trkpt>
      <trkpt lat="44.623936945572495" lon="5.517743993550539">
        <ele>783.20001220703125</ele>
        <time>2011-06-21T08:34:22Z</time>
      </trkpt>
      <trkpt lat="44.623242923989892" lon="5.517219956964254">
        <ele>777.79998779296875</ele>
        <time>2011-06-21T08:34:29Z</time>
      </trkpt>
      <trkpt lat="44.622661974281073" lon="5.516314962878823">
        <ele>772.5999755859375</ele>
        <time>2011-06-21T08:34:36Z</time>
      </trkpt>
      <trkpt lat="44.621970970183611" lon="5.515176951885223">
        <ele>766.5999755859375</ele>
        <time>2011-06-21T08:34:44Z</time>
      </trkpt>
      <trkpt lat="44.621643992140889" lon="5.514641935005784">
        <ele>765</ele>
        <time>2011-06-21T08:34:48Z</time>
      </trkpt>
      <trkpt lat="44.621098916977644" lon="5.513761918991804">
        <ele>762.20001220703125</ele>
        <time>2011-06-21T08:34:55Z</time>
      </trkpt>
      <trkpt lat="44.62054998613894" lon="5.512773944064975">
        <ele>758.79998779296875</ele>
        <time>2011-06-21T08:35:03Z</time>
      </trkpt>
      <trkpt lat="44.620266929268837" lon="5.511873979121447">
        <ele>755.20001220703125</ele>
        <time>2011-06-21T08:35:09Z</time>
      </trkpt>
      <trkpt lat="44.619790920987725" lon="5.51029197871685">
        <ele>748.20001220703125</ele>
        <time>2011-06-21T08:35:19Z</time>
      </trkpt>
      <trkpt lat="44.619470983743668" lon="5.509223956614733">
        <ele>745</ele>
        <time>2011-06-21T08:35:26Z</time>
      </trkpt>
      <trkpt lat="44.619184993207455" lon="5.508266994729638">
        <ele>742.5999755859375</ele>
        <time>2011-06-21T08:35:33Z</time>
      </trkpt>
      <trkpt lat="44.618714936077595" lon="5.506698992103338">
        <ele>738.79998779296875</ele>
        <time>2011-06-21T08:35:45Z</time>
      </trkpt>
      <trkpt lat="44.618462976068258" lon="5.505869938060641">
        <ele>737.4000244140625</ele>
        <time>2011-06-21T08:35:52Z</time>
      </trkpt>
      <trkpt lat="44.618113953620195" lon="5.504758916795254">
        <ele>734.20001220703125</ele>
        <time>2011-06-21T08:36:01Z</time>
      </trkpt>
      <trkpt lat="44.617764931172132" lon="5.504149971529841">
        <ele>732.4000244140625</ele>
        <time>2011-06-21T08:36:07Z</time>
      </trkpt>
      <trkpt lat="44.617365952581167" lon="5.503291999921203">
        <ele>730.20001220703125</ele>
        <time>2011-06-21T08:36:15Z</time>
      </trkpt>
      <trkpt lat="44.617172917351127" lon="5.502475937828422">
        <ele>728.5999755859375</ele>
        <time>2011-06-21T08:36:22Z</time>
      </trkpt>
      <trkpt lat="44.616995975375175" lon="5.501730954274535">
        <ele>727.4000244140625</ele>
        <time>2011-06-21T08:36:29Z</time>
      </trkpt>
      <trkpt lat="44.616789948195219" lon="5.500848926603794">
        <ele>725.79998779296875</ele>
        <time>2011-06-21T08:36:38Z</time>
      </trkpt>
      <trkpt lat="44.616591967642307" lon="5.499936975538731">
        <ele>723.4000244140625</ele>
        <time>2011-06-21T08:36:46Z</time>
      </trkpt>
      <trkpt lat="44.616397926583886" lon="5.498979929834604">
        <ele>721.20001220703125</ele>
        <time>2011-06-21T08:36:54Z</time>
      </trkpt>
      <trkpt lat="44.616167927160859" lon="5.498345922678709">
        <ele>720</ele>
        <time>2011-06-21T08:37:00Z</time>
      </trkpt>
      <trkpt lat="44.615826951339841" lon="5.497696995735169">
        <ele>718.5999755859375</ele>
        <time>2011-06-21T08:37:07Z</time>
      </trkpt>
      <trkpt lat="44.615455968305469" lon="5.496428981423378">
        <ele>716.4000244140625</ele>
        <time>2011-06-21T08:37:20Z</time>
      </trkpt>
      <trkpt lat="44.615216916427016" lon="5.495754992589355">
        <ele>715.4000244140625</ele>
        <time>2011-06-21T08:37:27Z</time>
      </trkpt>
      <trkpt lat="44.614928998053074" lon="5.495141940191388">
        <ele>714.4000244140625</ele>
        <time>2011-06-21T08:37:34Z</time>
      </trkpt>
      <trkpt lat="44.614671925082803" lon="5.494503993541002">
        <ele>713.20001220703125</ele>
        <time>2011-06-21T08:37:41Z</time>
      </trkpt>
      <trkpt lat="44.614541921764612" lon="5.493604950606823">
        <ele>711.4000244140625</ele>
        <time>2011-06-21T08:37:50Z</time>
      </trkpt>
      <trkpt lat="44.614217961207032" lon="5.492444979026914">
        <ele>709.20001220703125</ele>
        <time>2011-06-21T08:38:02Z</time>
      </trkpt>
      <trkpt lat="44.614066919311881" lon="5.491758920252323">
        <ele>707.5999755859375</ele>
        <time>2011-06-21T08:38:09Z</time>
      </trkpt>
      <trkpt lat="44.613875979557633" lon="5.491048973053694">
        <ele>705.79998779296875</ele>
        <time>2011-06-21T08:38:16Z</time>
      </trkpt>
      <trkpt lat="44.613667940720916" lon="5.48998991958797">
        <ele>703.4000244140625</ele>
        <time>2011-06-21T08:38:26Z</time>
      </trkpt>
      <trkpt lat="44.613433917984366" lon="5.489419950172305">
        <ele>702.5999755859375</ele>
        <time>2011-06-21T08:38:32Z</time>
      </trkpt>
      <trkpt lat="44.613063940778375" lon="5.488611934706569">
        <ele>700.5999755859375</ele>
        <time>2011-06-21T08:38:41Z</time>
      </trkpt>
      <trkpt lat="44.612711984664202" lon="5.487761925905943">
        <ele>698.5999755859375</ele>
        <time>2011-06-21T08:38:50Z</time>
      </trkpt>
      <trkpt lat="44.612191971391439" lon="5.487132947891951">
        <ele>699</ele>
        <time>2011-06-21T08:39:01Z</time>
      </trkpt>
      <trkpt lat="44.611997930333018" lon="5.4859509319067">
        <ele>695.20001220703125</ele>
        <time>2011-06-21T08:39:12Z</time>
      </trkpt>
      <trkpt lat="44.61152695119381" lon="5.484946947544813">
        <ele>691.5999755859375</ele>
        <time>2011-06-21T08:39:21Z</time>
      </trkpt>
      <trkpt lat="44.610907947644591" lon="5.48433699645102">
        <ele>689</ele>
        <time>2011-06-21T08:39:29Z</time>
      </trkpt>
      <trkpt lat="44.610547944903374" lon="5.48390893265605">
        <ele>687.20001220703125</ele>
        <time>2011-06-21T08:39:34Z</time>
      </trkpt>
      <trkpt lat="44.610438980162144" lon="5.482692969962955">
        <ele>685.20001220703125</ele>
        <time>2011-06-21T08:39:44Z</time>
      </trkpt>
      <trkpt lat="44.610486924648285" lon="5.481779929250479">
        <ele>683.20001220703125</ele>
        <time>2011-06-21T08:39:52Z</time>
      </trkpt>
      <trkpt lat="44.610532941296697" lon="5.480779968202114">
        <ele>681</ele>
        <time>2011-06-21T08:40:01Z</time>
      </trkpt>
      <trkpt lat="44.610562948510051" lon="5.480035990476608">
        <ele>680.20001220703125</ele>
        <time>2011-06-21T08:40:08Z</time>
      </trkpt>
      <trkpt lat="44.610588932409883" lon="5.479041980579495">
        <ele>679.79998779296875</ele>
        <time>2011-06-21T08:40:20Z</time>
      </trkpt>
      <trkpt lat="44.610214931890368" lon="5.478216949850321">
        <ele>678.79998779296875</ele>
        <time>2011-06-21T08:40:35Z</time>
      </trkpt>
      <trkpt lat="44.609867921099067" lon="5.47776591964066">
        <ele>677.20001220703125</ele>
        <time>2011-06-21T08:40:42Z</time>
      </trkpt>
      <trkpt lat="44.609209941700101" lon="5.477083967998624">
        <ele>675</ele>
        <time>2011-06-21T08:40:53Z</time>
      </trkpt>
      <trkpt lat="44.608817920088768" lon="5.476714996621013">
        <ele>673.79998779296875</ele>
        <time>2011-06-21T08:40:59Z</time>
      </trkpt>
      <trkpt lat="44.608386922627687" lon="5.476079983636737">
        <ele>672.5999755859375</ele>
        <time>2011-06-21T08:41:07Z</time>
      </trkpt>
      <trkpt lat="44.607805972918868" lon="5.47602592036128">
        <ele>671.5999755859375</ele>
        <time>2011-06-21T08:41:15Z</time>
      </trkpt>
      <trkpt lat="44.606956969946623" lon="5.475864987820387">
        <ele>670</ele>
        <time>2011-06-21T08:41:28Z</time>
      </trkpt>
      <trkpt lat="44.606213998049498" lon="5.475573968142271">
        <ele>668.79998779296875</ele>
        <time>2011-06-21T08:41:41Z</time>
      </trkpt>
      <trkpt lat="44.605431966483593" lon="5.475066946819425">
        <ele>666.79998779296875</ele>
        <time>2011-06-21T08:41:54Z</time>
      </trkpt>
      <trkpt lat="44.604805922135711" lon="5.474234959110618">
        <ele>665.20001220703125</ele>
        <time>2011-06-21T08:42:07Z</time>
      </trkpt>
      <trkpt lat="44.604387916624546" lon="5.473845954984427">
        <ele>664.79998779296875</ele>
        <time>2011-06-21T08:42:16Z</time>
      </trkpt>
      <trkpt lat="44.60433091968298" lon="5.473212953656912">
        <ele>663.4000244140625</ele>
        <time>2011-06-21T08:42:27Z</time>
      </trkpt>
      <trkpt lat="44.604441979900002" lon="5.472316928207874">
        <ele>661</ele>
        <time>2011-06-21T08:42:37Z</time>
      </trkpt>
      <trkpt lat="44.60415992885828" lon="5.471472954377532">
        <ele>658.79998779296875</ele>
        <time>2011-06-21T08:42:45Z</time>
      </trkpt>
      <trkpt lat="44.603827921673656" lon="5.470724953338504">
        <ele>656</ele>
        <time>2011-06-21T08:42:52Z</time>
      </trkpt>
      <trkpt lat="44.603680986911058" lon="5.469268932938576">
        <ele>652.79998779296875</ele>
        <time>2011-06-21T08:43:04Z</time>
      </trkpt>
      <trkpt lat="44.603340933099389" lon="5.468197977170348">
        <ele>651</ele>
        <time>2011-06-21T08:43:15Z</time>
      </trkpt>
      <trkpt lat="44.603154938668013" lon="5.467007998377085">
        <ele>649.4000244140625</ele>
        <time>2011-06-21T08:43:28Z</time>
      </trkpt>
      <trkpt lat="44.602879928424954" lon="5.466038966551423">
        <ele>648.5999755859375</ele>
        <time>2011-06-21T08:43:42Z</time>
      </trkpt>
      <trkpt lat="44.60256895981729" lon="5.465375958010554">
        <ele>647.79998779296875</ele>
        <time>2011-06-21T08:43:56Z</time>
      </trkpt>
      <trkpt lat="44.602303924039006" lon="5.46500195749104">
        <ele>646.20001220703125</ele>
        <time>2011-06-21T08:44:15Z</time>
      </trkpt>
      <trkpt lat="44.602133939042687" lon="5.465400936082006">
        <ele>644.5999755859375</ele>
        <time>2011-06-21T08:48:20Z</time>
      </trkpt>
      <trkpt lat="44.601567992940545" lon="5.465747946873307">
        <ele>644</ele>
        <time>2011-06-21T08:48:56Z</time>
      </trkpt>
      <trkpt lat="44.60106298327446" lon="5.466197971254587">
        <ele>643.5999755859375</ele>
        <time>2011-06-21T08:49:06Z</time>
      </trkpt>
      <trkpt lat="44.600639948621392" lon="5.466570965945721">
        <ele>643.20001220703125</ele>
        <time>2011-06-21T08:49:13Z</time>
      </trkpt>
      <trkpt lat="44.600178943946958" lon="5.466974973678589">
        <ele>642.79998779296875</ele>
        <time>2011-06-21T08:49:20Z</time>
      </trkpt>
      <trkpt lat="44.599557928740978" lon="5.467518959194422">
        <ele>642.5999755859375</ele>
        <time>2011-06-21T08:49:29Z</time>
      </trkpt>
      <trkpt lat="44.598811939358711" lon="5.468186996877194">
        <ele>642.79998779296875</ele>
        <time>2011-06-21T08:49:40Z</time>
      </trkpt>
      <trkpt lat="44.598154965788126" lon="5.468773981556296">
        <ele>642.5999755859375</ele>
        <time>2011-06-21T08:49:50Z</time>
      </trkpt>
      <trkpt lat="44.597571920603514" lon="5.469287959858775">
        <ele>641.79998779296875</ele>
        <time>2011-06-21T08:49:59Z</time>
      </trkpt>
      <trkpt lat="44.59674496203661" lon="5.47002799808979">
        <ele>641.4000244140625</ele>
        <time>2011-06-21T08:50:12Z</time>
      </trkpt>
      <trkpt lat="44.596028979867697" lon="5.470665944740176">
        <ele>641.20001220703125</ele>
        <time>2011-06-21T08:50:23Z</time>
      </trkpt>
      <trkpt lat="44.595394972711802" lon="5.471193920820952">
        <ele>642.4000244140625</ele>
        <time>2011-06-21T08:50:33Z</time>
      </trkpt>
      <trkpt lat="44.59468494169414" lon="5.471625924110413">
        <ele>643.4000244140625</ele>
        <time>2011-06-21T08:50:46Z</time>
      </trkpt>
      <trkpt lat="44.59392998367548" lon="5.472475932911038">
        <ele>642.4000244140625</ele>
        <time>2011-06-21T08:50:59Z</time>
      </trkpt>
      <trkpt lat="44.593429919332266" lon="5.473021930083633">
        <ele>642.4000244140625</ele>
        <time>2011-06-21T08:51:07Z</time>
      </trkpt>
      <trkpt lat="44.592684935778379" lon="5.473694996908307">
        <ele>642.4000244140625</ele>
        <time>2011-06-21T08:51:18Z</time>
      </trkpt>
      <trkpt lat="44.591966941952705" lon="5.474329926073551">
        <ele>642.5999755859375</ele>
        <time>2011-06-21T08:51:29Z</time>
      </trkpt>
      <trkpt lat="44.591473918408155" lon="5.474773999303579">
        <ele>642.4000244140625</ele>
        <time>2011-06-21T08:51:37Z</time>
      </trkpt>
      <trkpt lat="44.590844940394163" lon="5.475324941799045">
        <ele>642.79998779296875</ele>
        <time>2011-06-21T08:51:47Z</time>
      </trkpt>
      <trkpt lat="44.590281927958131" lon="5.475823916494846">
        <ele>642.79998779296875</ele>
        <time>2011-06-21T08:51:56Z</time>
      </trkpt>
      <trkpt lat="44.589601987972856" lon="5.476429928094149">
        <ele>642.79998779296875</ele>
        <time>2011-06-21T08:52:07Z</time>
      </trkpt>
      <trkpt lat="44.588815933093429" lon="5.477129984647036">
        <ele>642.79998779296875</ele>
        <time>2011-06-21T08:52:20Z</time>
      </trkpt>
      <trkpt lat="44.588319975882769" lon="5.477540949359536">
        <ele>643</ele>
        <time>2011-06-21T08:52:28Z</time>
      </trkpt>
      <trkpt lat="44.587625954300165" lon="5.478083929046989">
        <ele>642.79998779296875</ele>
        <time>2011-06-21T08:52:39Z</time>
      </trkpt>
      <trkpt lat="44.586863955482841" lon="5.478671919554472">
        <ele>643</ele>
        <time>2011-06-21T08:52:51Z</time>
      </trkpt>
      <trkpt lat="44.586113942787051" lon="5.479260999709368">
        <ele>643.20001220703125</ele>
        <time>2011-06-21T08:53:03Z</time>
      </trkpt>
      <trkpt lat="44.585491921752691" lon="5.479755951091647">
        <ele>643</ele>
        <time>2011-06-21T08:53:13Z</time>
      </trkpt>
      <trkpt lat="44.584932932630181" lon="5.480193989351392">
        <ele>642.79998779296875</ele>
        <time>2011-06-21T08:53:22Z</time>
      </trkpt>
      <trkpt lat="44.584270929917693" lon="5.480707967653871">
        <ele>642.79998779296875</ele>
        <time>2011-06-21T08:53:33Z</time>
      </trkpt>
      <trkpt lat="44.583737924695015" lon="5.481110969558358">
        <ele>642.79998779296875</ele>
        <time>2011-06-21T08:53:42Z</time>
      </trkpt>
      <trkpt lat="44.583028983324766" lon="5.481574991717935">
        <ele>642.79998779296875</ele>
        <time>2011-06-21T08:53:54Z</time>
      </trkpt>
      <trkpt lat="44.582550963386893" lon="5.481764925643802">
        <ele>642.79998779296875</ele>
        <time>2011-06-21T08:54:02Z</time>
      </trkpt>
      <trkpt lat="44.581802962347865" lon="5.482203969731927">
        <ele>643.20001220703125</ele>
        <time>2011-06-21T08:54:16Z</time>
      </trkpt>
      <trkpt lat="44.581343969330192" lon="5.482574952766299">
        <ele>643.79998779296875</ele>
        <time>2011-06-21T08:54:25Z</time>
      </trkpt>
      <trkpt lat="44.580922946333885" lon="5.482955994084477">
        <ele>644.20001220703125</ele>
        <time>2011-06-21T08:54:34Z</time>
      </trkpt>
      <trkpt lat="44.580408968031406" lon="5.483530992642045">
        <ele>645.79998779296875</ele>
        <time>2011-06-21T08:54:49Z</time>
      </trkpt>
      <trkpt lat="44.580026920884848" lon="5.483986968174577">
        <ele>646.20001220703125</ele>
        <time>2011-06-21T08:55:03Z</time>
      </trkpt>
      <trkpt lat="44.579460974782705" lon="5.48470395617187">
        <ele>646.5999755859375</ele>
        <time>2011-06-21T08:55:24Z</time>
      </trkpt>
      <trkpt lat="44.579119998961687" lon="5.485409963876009">
        <ele>647</ele>
        <time>2011-06-21T08:55:37Z</time>
      </trkpt>
      <trkpt lat="44.578769970685244" lon="5.486312946304679">
        <ele>647.4000244140625</ele>
        <time>2011-06-21T08:55:53Z</time>
      </trkpt>
      <trkpt lat="44.57837593741715" lon="5.487289940938354">
        <ele>645.5999755859375</ele>
        <time>2011-06-21T08:56:05Z</time>
      </trkpt>
      <trkpt lat="44.578099921345711" lon="5.487985974177718">
        <ele>645.20001220703125</ele>
        <time>2011-06-21T08:56:12Z</time>
      </trkpt>
      <trkpt lat="44.577776966616511" lon="5.488819973543286">
        <ele>645.79998779296875</ele>
        <time>2011-06-21T08:56:20Z</time>
      </trkpt>
      <trkpt lat="44.577421993017197" lon="5.48975195735693">
        <ele>645.79998779296875</ele>
        <time>2011-06-21T08:56:29Z</time>
      </trkpt>
      <trkpt lat="44.577187970280647" lon="5.490350928157568">
        <ele>645.79998779296875</ele>
        <time>2011-06-21T08:56:35Z</time>
      </trkpt>
      <trkpt lat="44.576752949506044" lon="5.49146899022162">
        <ele>646</ele>
        <time>2011-06-21T08:56:46Z</time>
      </trkpt>
      <trkpt lat="44.576444998383522" lon="5.492272982373834">
        <ele>646</ele>
        <time>2011-06-21T08:56:54Z</time>
      </trkpt>
      <trkpt lat="44.576213993132114" lon="5.49284596927464">
        <ele>646</ele>
        <time>2011-06-21T08:57:00Z</time>
      </trkpt>
      <trkpt lat="44.575843932107091" lon="5.493801925331354">
        <ele>646.4000244140625</ele>
        <time>2011-06-21T08:57:10Z</time>
      </trkpt>
      <trkpt lat="44.57541293464601" lon="5.494926944375038">
        <ele>646.79998779296875</ele>
        <time>2011-06-21T08:57:22Z</time>
      </trkpt>
      <trkpt lat="44.575101966038346" lon="5.495721967890859">
        <ele>647.20001220703125</ele>
        <time>2011-06-21T08:57:31Z</time>
      </trkpt>
      <trkpt lat="44.574792925268412" lon="5.496507938951254">
        <ele>647</ele>
        <time>2011-06-21T08:57:40Z</time>
      </trkpt>
      <trkpt lat="44.574414985254407" lon="5.497491974383593">
        <ele>647.4000244140625</ele>
        <time>2011-06-21T08:57:51Z</time>
      </trkpt>
      <trkpt lat="44.574119942262769" lon="5.498252967372537">
        <ele>647.79998779296875</ele>
        <time>2011-06-21T08:58:00Z</time>
      </trkpt>
      <trkpt lat="44.573789946734905" lon="5.49909895285964">
        <ele>648</ele>
        <time>2011-06-21T08:58:10Z</time>
      </trkpt>
      <trkpt lat="44.573465986177325" lon="5.499801943078637">
        <ele>648.4000244140625</ele>
        <time>2011-06-21T08:58:19Z</time>
      </trkpt>
      <trkpt lat="44.573185946792364" lon="5.500301923602819">
        <ele>649.4000244140625</ele>
        <time>2011-06-21T08:58:27Z</time>
      </trkpt>
      <trkpt lat="44.572575995698571" lon="5.501108933240175">
        <ele>651</ele>
        <time>2011-06-21T08:58:45Z</time>
      </trkpt>
      <trkpt lat="44.571846937760711" lon="5.501751992851496">
        <ele>650.4000244140625</ele>
        <time>2011-06-21T08:59:00Z</time>
      </trkpt>
      <trkpt lat="44.571344945579767" lon="5.502093974500895">
        <ele>650.4000244140625</ele>
        <time>2011-06-21T08:59:08Z</time>
      </trkpt>
      <trkpt lat="44.57070398144424" lon="5.502428999170661">
        <ele>650.20001220703125</ele>
        <time>2011-06-21T08:59:18Z</time>
      </trkpt>
      <trkpt lat="44.569671917706728" lon="5.502667967230082">
        <ele>650.4000244140625</ele>
        <time>2011-06-21T08:59:35Z</time>
      </trkpt>
      <trkpt lat="44.569209991022944" lon="5.502717923372984">
        <ele>650.4000244140625</ele>
        <time>2011-06-21T08:59:43Z</time>
      </trkpt>
      <trkpt lat="44.568625940009952" lon="5.502797970548272">
        <ele>650.5999755859375</ele>
        <time>2011-06-21T08:59:53Z</time>
      </trkpt>
      <trkpt lat="44.56808497197926" lon="5.502934930846095">
        <ele>651.5999755859375</ele>
        <time>2011-06-21T09:00:03Z</time>
      </trkpt>
      <trkpt lat="44.567761933431029" lon="5.503474976867437">
        <ele>652.20001220703125</ele>
        <time>2011-06-21T09:00:13Z</time>
      </trkpt>
      <trkpt lat="44.56763494759798" lon="5.50408492796123">
        <ele>652.5999755859375</ele>
        <time>2011-06-21T09:00:21Z</time>
      </trkpt>
      <trkpt lat="44.567477954551578" lon="5.504953963682056">
        <ele>653</ele>
        <time>2011-06-21T09:00:32Z</time>
      </trkpt>
      <trkpt lat="44.567331941798329" lon="5.50556592643261">
        <ele>653.20001220703125</ele>
        <time>2011-06-21T09:00:40Z</time>
      </trkpt>
      <trkpt lat="44.567158939316869" lon="5.506160957738757">
        <ele>653.5999755859375</ele>
        <time>2011-06-21T09:00:48Z</time>
      </trkpt>
      <trkpt lat="44.56694595515728" lon="5.506808962672949">
        <ele>653.79998779296875</ele>
        <time>2011-06-21T09:00:57Z</time>
      </trkpt>
      <trkpt lat="44.566696928814054" lon="5.507430983707309">
        <ele>653.79998779296875</ele>
        <time>2011-06-21T09:01:06Z</time>
      </trkpt>
      <trkpt lat="44.566324939951301" lon="5.508172949776053">
        <ele>654</ele>
        <time>2011-06-21T09:01:17Z</time>
      </trkpt>
      <trkpt lat="44.565987987443805" lon="5.508752977475524">
        <ele>654.5999755859375</ele>
        <time>2011-06-21T09:01:26Z</time>
      </trkpt>
      <trkpt lat="44.565624967217445" lon="5.509350942447782">
        <ele>654.79998779296875</ele>
        <time>2011-06-21T09:01:36Z</time>
      </trkpt>
      <trkpt lat="44.564979979768395" lon="5.510414941236377">
        <ele>655.79998779296875</ele>
        <time>2011-06-21T09:01:54Z</time>
      </trkpt>
      <trkpt lat="44.564349995926023" lon="5.51145295612514">
        <ele>657</ele>
        <time>2011-06-21T09:02:12Z</time>
      </trkpt>
      <trkpt lat="44.563977923244238" lon="5.512047987431288">
        <ele>657.5999755859375</ele>
        <time>2011-06-21T09:02:23Z</time>
      </trkpt>
      <trkpt lat="44.563639964908361" lon="5.512608988210559">
        <ele>658.4000244140625</ele>
        <time>2011-06-21T09:02:33Z</time>
      </trkpt>
      <trkpt lat="44.56314099021256" lon="5.51342798396945">
        <ele>658.5999755859375</ele>
        <time>2011-06-21T09:02:48Z</time>
      </trkpt>
      <trkpt lat="44.562638998031616" lon="5.514245973899961">
        <ele>659</ele>
        <time>2011-06-21T09:03:03Z</time>
      </trkpt>
      <trkpt lat="44.562317971140146" lon="5.51469792611897">
        <ele>659.20001220703125</ele>
        <time>2011-06-21T09:03:12Z</time>
      </trkpt>
      <trkpt lat="44.5619179867208" lon="5.515221962705255">
        <ele>659.5999755859375</ele>
        <time>2011-06-21T09:03:22Z</time>
      </trkpt>
      <trkpt lat="44.561547925695777" lon="5.515668969601393">
        <ele>660</ele>
        <time>2011-06-21T09:03:31Z</time>
      </trkpt>
      <trkpt lat="44.56120896153152" lon="5.516092926263809">
        <ele>660.20001220703125</ele>
        <time>2011-06-21T09:03:39Z</time>
      </trkpt>
      <trkpt lat="44.560870919376612" lon="5.516512943431735">
        <ele>660.4000244140625</ele>
        <time>2011-06-21T09:03:47Z</time>
      </trkpt>
      <trkpt lat="44.560224926099181" lon="5.517321964725852">
        <ele>661</ele>
        <time>2011-06-21T09:04:03Z</time>
      </trkpt>
      <trkpt lat="44.55949192866683" lon="5.518242968246341">
        <ele>662</ele>
        <time>2011-06-21T09:04:21Z</time>
      </trkpt>
      <trkpt lat="44.558842917904258" lon="5.519045954570174">
        <ele>662.79998779296875</ele>
        <time>2011-06-21T09:04:37Z</time>
      </trkpt>
      <trkpt lat="44.558363975957036" lon="5.519634950906038">
        <ele>663.5999755859375</ele>
        <time>2011-06-21T09:04:49Z</time>
      </trkpt>
      <trkpt lat="44.558017970994115" lon="5.520093943923712">
        <ele>663.5999755859375</ele>
        <time>2011-06-21T09:04:58Z</time>
      </trkpt>
      <trkpt lat="44.557475997135043" lon="5.52079894579947">
        <ele>664.79998779296875</ele>
        <time>2011-06-21T09:05:13Z</time>
      </trkpt>
      <trkpt lat="44.556852970272303" lon="5.521560944616795">
        <ele>665.5999755859375</ele>
        <time>2011-06-21T09:05:30Z</time>
      </trkpt>
      <trkpt lat="44.556145956739783" lon="5.522467950358987">
        <ele>666.4000244140625</ele>
        <time>2011-06-21T09:05:47Z</time>
      </trkpt>
      <trkpt lat="44.555482948198915" lon="5.523209916427732">
        <ele>667.5999755859375</ele>
        <time>2011-06-21T09:06:04Z</time>
      </trkpt>
      <trkpt lat="44.555089920759201" lon="5.523538989946246">
        <ele>668.20001220703125</ele>
        <time>2011-06-21T09:06:14Z</time>
      </trkpt>
      <trkpt lat="44.554555993527174" lon="5.52395498380065">
        <ele>669</ele>
        <time>2011-06-21T09:06:27Z</time>
      </trkpt>
      <trkpt lat="44.553928943350911" lon="5.524459993466735">
        <ele>670</ele>
        <time>2011-06-21T09:06:43Z</time>
      </trkpt>
      <trkpt lat="44.553209943696856" lon="5.525038931518793">
        <ele>670.79998779296875</ele>
        <time>2011-06-21T09:07:01Z</time>
      </trkpt>
      <trkpt lat="44.552700994536281" lon="5.525692971423268">
        <ele>671.5999755859375</ele>
        <time>2011-06-21T09:07:18Z</time>
      </trkpt>
      <trkpt lat="44.552531931549311" lon="5.526446923613548">
        <ele>672.20001220703125</ele>
        <time>2011-06-21T09:07:32Z</time>
      </trkpt>
      <trkpt lat="44.552495973184705" lon="5.527370944619179">
        <ele>672.5999755859375</ele>
        <time>2011-06-21T09:07:49Z</time>
      </trkpt>
      <trkpt lat="44.55250795930624" lon="5.528005957603455">
        <ele>673</ele>
        <time>2011-06-21T09:08:00Z</time>
      </trkpt>
      <trkpt lat="44.552517933771014" lon="5.528845991939306">
        <ele>673.5999755859375</ele>
        <time>2011-06-21T09:08:14Z</time>
      </trkpt>
      <trkpt lat="44.552506953477859" lon="5.529812928289175">
        <ele>674.4000244140625</ele>
        <time>2011-06-21T09:08:30Z</time>
      </trkpt>
      <trkpt lat="44.552244935184717" lon="5.530974995344877">
        <ele>675.4000244140625</ele>
        <time>2011-06-21T09:08:48Z</time>
      </trkpt>
      <trkpt lat="44.552063969895244" lon="5.531556950882077">
        <ele>675.79998779296875</ele>
        <time>2011-06-21T09:08:57Z</time>
      </trkpt>
      <trkpt lat="44.55173397436738" lon="5.532590942457318">
        <ele>676.79998779296875</ele>
        <time>2011-06-21T09:09:14Z</time>
      </trkpt>
      <trkpt lat="44.551385957747698" lon="5.533475987613201">
        <ele>677.5999755859375</ele>
        <time>2011-06-21T09:09:30Z</time>
      </trkpt>
      <trkpt lat="44.550926964730024" lon="5.53435399197042">
        <ele>679</ele>
        <time>2011-06-21T09:09:47Z</time>
      </trkpt>
      <trkpt lat="44.550588922575116" lon="5.534872999414802">
        <ele>679.4000244140625</ele>
        <time>2011-06-21T09:09:58Z</time>
      </trkpt>
      <trkpt lat="44.550130935385823" lon="5.535531984642148">
        <ele>680</ele>
        <time>2011-06-21T09:10:14Z</time>
      </trkpt>
      <trkpt lat="44.549668924883008" lon="5.536135984584689">
        <ele>681.4000244140625</ele>
        <time>2011-06-21T09:10:31Z</time>
      </trkpt>
      <trkpt lat="44.549321997910738" lon="5.536640994250774">
        <ele>682</ele>
        <time>2011-06-21T09:10:45Z</time>
      </trkpt>
      <trkpt lat="44.549167938530445" lon="5.537354964762926">
        <ele>683</ele>
        <time>2011-06-21T09:10:59Z</time>
      </trkpt>
      <trkpt lat="44.548936933279037" lon="5.538229951635003">
        <ele>683.79998779296875</ele>
        <time>2011-06-21T09:11:15Z</time>
      </trkpt>
      <trkpt lat="44.548647925257683" lon="5.539191942662001">
        <ele>685</ele>
        <time>2011-06-21T09:11:32Z</time>
      </trkpt>
      <trkpt lat="44.548314996063709" lon="5.539710950106382">
        <ele>686.20001220703125</ele>
        <time>2011-06-21T09:11:49Z</time>
      </trkpt>
      <trkpt lat="44.547745948657393" lon="5.54067294113338">
        <ele>693</ele>
        <time>2011-06-21T09:19:30Z</time>
      </trkpt>
      <trkpt lat="44.547255942597985" lon="5.541384983807802">
        <ele>695</ele>
        <time>2011-06-21T09:19:50Z</time>
      </trkpt>
      <trkpt lat="44.546871967613697" lon="5.541977919638157">
        <ele>696.79998779296875</ele>
        <time>2011-06-21T09:20:05Z</time>
      </trkpt>
      <trkpt lat="44.546380955725908" lon="5.542587954550982">
        <ele>698.4000244140625</ele>
        <time>2011-06-21T09:20:23Z</time>
      </trkpt>
      <trkpt lat="44.5458909496665" lon="5.542812924832106">
        <ele>699.5999755859375</ele>
        <time>2011-06-21T09:20:37Z</time>
      </trkpt>
      <trkpt lat="44.545246968045831" lon="5.542908981442452">
        <ele>699.5999755859375</ele>
        <time>2011-06-21T09:20:51Z</time>
      </trkpt>
      <trkpt lat="44.544646991416812" lon="5.54299296811223">
        <ele>700</ele>
        <time>2011-06-21T09:21:04Z</time>
      </trkpt>
      <trkpt lat="44.543903935700655" lon="5.543404938653112">
        <ele>700.4000244140625</ele>
        <time>2011-06-21T09:21:21Z</time>
      </trkpt>
      <trkpt lat="44.543331954628229" lon="5.543802995234728">
        <ele>701</ele>
        <time>2011-06-21T09:21:34Z</time>
      </trkpt>
      <trkpt lat="44.542854940518737" lon="5.544050931930542">
        <ele>702.20001220703125</ele>
        <time>2011-06-21T09:21:45Z</time>
      </trkpt>
      <trkpt lat="44.542093947529793" lon="5.544622996822">
        <ele>703.4000244140625</ele>
        <time>2011-06-21T09:22:03Z</time>
      </trkpt>
      <trkpt lat="44.541340917348862" lon="5.54509699344635">
        <ele>704.4000244140625</ele>
        <time>2011-06-21T09:22:20Z</time>
      </trkpt>
      <trkpt lat="44.540579924359918" lon="5.54561197757721">
        <ele>705.5999755859375</ele>
        <time>2011-06-21T09:22:38Z</time>
      </trkpt>
      <trkpt lat="44.540063934400678" lon="5.546525940299034">
        <ele>707.20001220703125</ele>
        <time>2011-06-21T09:22:56Z</time>
      </trkpt>
      <trkpt lat="44.539682976901531" lon="5.547427916899324">
        <ele>709.20001220703125</ele>
        <time>2011-06-21T09:23:13Z</time>
      </trkpt>
      <trkpt lat="44.539334960281849" lon="5.548307932913303">
        <ele>710.20001220703125</ele>
        <time>2011-06-21T09:23:28Z</time>
      </trkpt>
      <trkpt lat="44.538832968100905" lon="5.549246957525611">
        <ele>711</ele>
        <time>2011-06-21T09:23:44Z</time>
      </trkpt>
      <trkpt lat="44.538460979238153" lon="5.550186987966299">
        <ele>712.4000244140625</ele>
        <time>2011-06-21T09:24:00Z</time>
      </trkpt>
      <trkpt lat="44.53843298368156" lon="5.551087958738208">
        <ele>713</ele>
        <time>2011-06-21T09:24:14Z</time>
      </trkpt>
      <trkpt lat="44.538354948163033" lon="5.55177896283567">
        <ele>713.4000244140625</ele>
        <time>2011-06-21T09:24:25Z</time>
      </trkpt>
      <trkpt lat="44.538162918761373" lon="5.552678927779198">
        <ele>714.5999755859375</ele>
        <time>2011-06-21T09:24:41Z</time>
      </trkpt>
      <trkpt lat="44.537813980132341" lon="5.553352916613221">
        <ele>717.5999755859375</ele>
        <time>2011-06-21T09:24:57Z</time>
      </trkpt>
      <trkpt lat="44.537624968215823" lon="5.55407895706594">
        <ele>720.20001220703125</ele>
        <time>2011-06-21T09:25:13Z</time>
      </trkpt>
      <trkpt lat="44.53749094158411" lon="5.554753951728344">
        <ele>723.20001220703125</ele>
        <time>2011-06-21T09:25:31Z</time>
      </trkpt>
      <trkpt lat="44.537495970726013" lon="5.555657939985395">
        <ele>726.4000244140625</ele>
        <time>2011-06-21T09:25:53Z</time>
      </trkpt>
      <trkpt lat="44.537412989884615" lon="5.556541979312897">
        <ele>728</ele>
        <time>2011-06-21T09:26:12Z</time>
      </trkpt>
      <trkpt lat="44.536987943574786" lon="5.557124940678477">
        <ele>728.4000244140625</ele>
        <time>2011-06-21T09:26:26Z</time>
      </trkpt>
      <trkpt lat="44.536504978314042" lon="5.558038987219334">
        <ele>728.79998779296875</ele>
        <time>2011-06-21T09:26:44Z</time>
      </trkpt>
      <trkpt lat="44.5358129683882" lon="5.55882696993649">
        <ele>729.4000244140625</ele>
        <time>2011-06-21T09:27:01Z</time>
      </trkpt>
      <trkpt lat="44.535415917634964" lon="5.559194935485721">
        <ele>730</ele>
        <time>2011-06-21T09:27:09Z</time>
      </trkpt>
      <trkpt lat="44.535017944872379" lon="5.559552926570177">
        <ele>730.4000244140625</ele>
        <time>2011-06-21T09:27:17Z</time>
      </trkpt>
      <trkpt lat="44.534586947411299" lon="5.559980990365148">
        <ele>730.79998779296875</ele>
        <time>2011-06-21T09:27:27Z</time>
      </trkpt>
      <trkpt lat="44.534260975196958" lon="5.560614997521043">
        <ele>731.20001220703125</ele>
        <time>2011-06-21T09:27:38Z</time>
      </trkpt>
      <trkpt lat="44.533409960567951" lon="5.561066949740052">
        <ele>731.5999755859375</ele>
        <time>2011-06-21T09:27:55Z</time>
      </trkpt>
      <trkpt lat="44.532599933445454" lon="5.561410943046212">
        <ele>732.4000244140625</ele>
        <time>2011-06-21T09:28:11Z</time>
      </trkpt>
      <trkpt lat="44.531775992363691" lon="5.561859961599112">
        <ele>733.4000244140625</ele>
        <time>2011-06-21T09:28:29Z</time>
      </trkpt>
      <trkpt lat="44.53125991858542" lon="5.562222981825471">
        <ele>735</ele>
        <time>2011-06-21T09:28:42Z</time>
      </trkpt>
      <trkpt lat="44.530919948592782" lon="5.562947932630777">
        <ele>735</ele>
        <time>2011-06-21T09:28:57Z</time>
      </trkpt>
      <trkpt lat="44.530246965587139" lon="5.563652934506536">
        <ele>735</ele>
        <time>2011-06-21T09:29:14Z</time>
      </trkpt>
      <trkpt lat="44.529510950669646" lon="5.56419993750751">
        <ele>737</ele>
        <time>2011-06-21T09:29:31Z</time>
      </trkpt>
      <trkpt lat="44.529149942100048" lon="5.564908962696791">
        <ele>739.20001220703125</ele>
        <time>2011-06-21T09:29:45Z</time>
      </trkpt>
      <trkpt lat="44.528812989592552" lon="5.565843963995576">
        <ele>740</ele>
        <time>2011-06-21T09:30:02Z</time>
      </trkpt>
      <trkpt lat="44.528528926894069" lon="5.566422985866666">
        <ele>741</ele>
        <time>2011-06-21T09:30:13Z</time>
      </trkpt>
      <trkpt lat="44.528030958026648" lon="5.566872926428914">
        <ele>743.79998779296875</ele>
        <time>2011-06-21T09:30:28Z</time>
      </trkpt>
      <trkpt lat="44.527571965008974" lon="5.567213986068964">
        <ele>745.20001220703125</ele>
        <time>2011-06-21T09:30:40Z</time>
      </trkpt>
      <trkpt lat="44.527031918987632" lon="5.567692928016186">
        <ele>747</ele>
        <time>2011-06-21T09:30:56Z</time>
      </trkpt>
      <trkpt lat="44.526593964546919" lon="5.568556934595108">
        <ele>748.5999755859375</ele>
        <time>2011-06-21T09:31:15Z</time>
      </trkpt>
      <trkpt lat="44.526310991495848" lon="5.569446925073862">
        <ele>750.20001220703125</ele>
        <time>2011-06-21T09:31:32Z</time>
      </trkpt>
      <trkpt lat="44.526007985696197" lon="5.570095935836434">
        <ele>751</ele>
        <time>2011-06-21T09:31:45Z</time>
      </trkpt>
      <trkpt lat="44.525408931076527" lon="5.570548977702856">
        <ele>752.79998779296875</ele>
        <time>2011-06-21T09:32:02Z</time>
      </trkpt>
      <trkpt lat="44.525057980790734" lon="5.571045940741897">
        <ele>755.20001220703125</ele>
        <time>2011-06-21T09:32:16Z</time>
      </trkpt>
      <trkpt lat="44.524935940280557" lon="5.57165396399796">
        <ele>757.4000244140625</ele>
        <time>2011-06-21T09:32:29Z</time>
      </trkpt>
      <trkpt lat="44.524729996919632" lon="5.57234195061028">
        <ele>759.20001220703125</ele>
        <time>2011-06-21T09:32:45Z</time>
      </trkpt>
      <trkpt lat="44.524211995303631" lon="5.572650991380215">
        <ele>760.20001220703125</ele>
        <time>2011-06-21T09:33:04Z</time>
      </trkpt>
      <trkpt lat="44.523623920977116" lon="5.573011999949813">
        <ele>760</ele>
        <time>2011-06-21T09:33:23Z</time>
      </trkpt>
      <trkpt lat="44.523221924901009" lon="5.573507957160473">
        <ele>761.4000244140625</ele>
        <time>2011-06-21T09:33:38Z</time>
      </trkpt>
      <trkpt lat="44.522822946310043" lon="5.573850944638252">
        <ele>762.5999755859375</ele>
        <time>2011-06-21T09:33:50Z</time>
      </trkpt>
      <trkpt lat="44.522012919187546" lon="5.57397591881454">
        <ele>763.20001220703125</ele>
        <time>2011-06-21T09:34:05Z</time>
      </trkpt>
      <trkpt lat="44.521525930613279" lon="5.573966950178146">
        <ele>764</ele>
        <time>2011-06-21T09:34:13Z</time>
      </trkpt>
      <trkpt lat="44.520981945097446" lon="5.573947923257947">
        <ele>764.20001220703125</ele>
        <time>2011-06-21T09:34:22Z</time>
      </trkpt>
      <trkpt lat="44.520502919331193" lon="5.574094941839576">
        <ele>764.4000244140625</ele>
        <time>2011-06-21T09:34:31Z</time>
      </trkpt>
      <trkpt lat="44.52000193297863" lon="5.57412494905293">
        <ele>764.79998779296875</ele>
        <time>2011-06-21T09:34:40Z</time>
      </trkpt>
      <trkpt lat="44.519177991896868" lon="5.573983965441585">
        <ele>765.20001220703125</ele>
        <time>2011-06-21T09:34:55Z</time>
      </trkpt>
      <trkpt lat="44.518568962812424" lon="5.573794953525066">
        <ele>765.79998779296875</ele>
        <time>2011-06-21T09:35:06Z</time>
      </trkpt>
      <trkpt lat="44.517795983701944" lon="5.574006931856275">
        <ele>766</ele>
        <time>2011-06-21T09:35:21Z</time>
      </trkpt>
      <trkpt lat="44.517297931015491" lon="5.574152944609523">
        <ele>766.5999755859375</ele>
        <time>2011-06-21T09:35:31Z</time>
      </trkpt>
      <trkpt lat="44.516685968264937" lon="5.574281942099333">
        <ele>767.79998779296875</ele>
        <time>2011-06-21T09:35:43Z</time>
      </trkpt>
      <trkpt lat="44.516109963878989" lon="5.574367940425873">
        <ele>768.4000244140625</ele>
        <time>2011-06-21T09:35:54Z</time>
      </trkpt>
      <trkpt lat="44.515652982518077" lon="5.574419992044568">
        <ele>769.4000244140625</ele>
        <time>2011-06-21T09:36:03Z</time>
      </trkpt>
      <trkpt lat="44.514903975650668" lon="5.574364922940731">
        <ele>771.20001220703125</ele>
        <time>2011-06-21T09:36:18Z</time>
      </trkpt>
      <trkpt lat="44.514421932399273" lon="5.574258975684643">
        <ele>772.79998779296875</ele>
        <time>2011-06-21T09:36:28Z</time>
      </trkpt>
      <trkpt lat="44.513868978247046" lon="5.574197955429554">
        <ele>773.79998779296875</ele>
        <time>2011-06-21T09:36:40Z</time>
      </trkpt>
      <trkpt lat="44.513011928647757" lon="5.574140958487988">
        <ele>776.20001220703125</ele>
        <time>2011-06-21T09:37:00Z</time>
      </trkpt>
      <trkpt lat="44.512446988373995" lon="5.57418898679316">
        <ele>777.20001220703125</ele>
        <time>2011-06-21T09:37:13Z</time>
      </trkpt>
      <trkpt lat="44.511824967339635" lon="5.57472794316709">
        <ele>779</ele>
        <time>2011-06-21T09:37:32Z</time>
      </trkpt>
      <trkpt lat="44.511279975995421" lon="5.575021980330348">
        <ele>780.20001220703125</ele>
        <time>2011-06-21T09:37:47Z</time>
      </trkpt>
      <trkpt lat="44.510824922472239" lon="5.575120970606804">
        <ele>781.20001220703125</ele>
        <time>2011-06-21T09:37:58Z</time>
      </trkpt>
      <trkpt lat="44.510117992758751" lon="5.575165981426835">
        <ele>782.5999755859375</ele>
        <time>2011-06-21T09:38:15Z</time>
      </trkpt>
      <trkpt lat="44.50943193398416" lon="5.575087945908308">
        <ele>783.5999755859375</ele>
        <time>2011-06-21T09:38:31Z</time>
      </trkpt>
      <trkpt lat="44.50876297429204" lon="5.574828945100308">
        <ele>784.5999755859375</ele>
        <time>2011-06-21T09:38:48Z</time>
      </trkpt>
      <trkpt lat="44.508152939379215" lon="5.574823999777436">
        <ele>785.5999755859375</ele>
        <time>2011-06-21T09:39:03Z</time>
      </trkpt>
      <trkpt lat="44.507449949160218" lon="5.574957942590118">
        <ele>787.5999755859375</ele>
        <time>2011-06-21T09:39:20Z</time>
      </trkpt>
      <trkpt lat="44.506834968924522" lon="5.575429927557707">
        <ele>788</ele>
        <time>2011-06-21T09:39:38Z</time>
      </trkpt>
      <trkpt lat="44.506224934011698" lon="5.575679959729314">
        <ele>788.4000244140625</ele>
        <time>2011-06-21T09:39:57Z</time>
      </trkpt>
      <trkpt lat="44.505780944600701" lon="5.575029943138361">
        <ele>788.79998779296875</ele>
        <time>2011-06-21T09:40:21Z</time>
      </trkpt>
      <trkpt lat="44.505610959604383" lon="5.574397947639227">
        <ele>790.4000244140625</ele>
        <time>2011-06-21T09:40:44Z</time>
      </trkpt>
      <trkpt lat="44.505344917997718" lon="5.57380098849535">
        <ele>793.5999755859375</ele>
        <time>2011-06-21T09:41:05Z</time>
      </trkpt>
      <trkpt lat="44.505028920248151" lon="5.573259936645627">
        <ele>798</ele>
        <time>2011-06-21T09:41:32Z</time>
      </trkpt>
      <trkpt lat="44.504685932770371" lon="5.572651997208595">
        <ele>803.79998779296875</ele>
        <time>2011-06-21T09:42:03Z</time>
      </trkpt>
      <trkpt lat="44.504415951669216" lon="5.572584941983223">
        <ele>808.79998779296875</ele>
        <time>2011-06-21T09:42:32Z</time>
      </trkpt>
      <trkpt lat="44.50448895804584" lon="5.572389978915453">
        <ele>809</ele>
        <time>2011-06-21T09:47:52Z</time>
      </trkpt>
      <trkpt lat="44.504361972212791" lon="5.573093974962831">
        <ele>810</ele>
        <time>2011-06-21T09:49:14Z</time>
      </trkpt>
      <trkpt lat="44.50425392948091" lon="5.573944989591837">
        <ele>804.79998779296875</ele>
        <time>2011-06-21T09:49:40Z</time>
      </trkpt>
      <trkpt lat="44.504397930577397" lon="5.574582936242223">
        <ele>796.5999755859375</ele>
        <time>2011-06-21T09:49:54Z</time>
      </trkpt>
      <trkpt lat="44.504716945812106" lon="5.575182996690273">
        <ele>791</ele>
        <time>2011-06-21T09:50:06Z</time>
      </trkpt>
      <trkpt lat="44.504807973280549" lon="5.575402937829495">
        <ele>790</ele>
        <time>2011-06-21T09:50:29Z</time>
      </trkpt>
      <trkpt lat="44.505204940214753" lon="5.575076965615153">
        <ele>789.20001220703125</ele>
        <time>2011-06-21T09:50:43Z</time>
      </trkpt>
      <trkpt lat="44.505653958767653" lon="5.574863981455565">
        <ele>790.4000244140625</ele>
        <time>2011-06-21T09:51:02Z</time>
      </trkpt>
      <trkpt lat="44.506005998700857" lon="5.575450966134667">
        <ele>790.4000244140625</ele>
        <time>2011-06-21T09:51:19Z</time>
      </trkpt>
      <trkpt lat="44.506120998412371" lon="5.575979948043823">
        <ele>790.20001220703125</ele>
        <time>2011-06-21T09:51:32Z</time>
      </trkpt>
      <trkpt lat="44.505810951814055" lon="5.576439946889877">
        <ele>790.4000244140625</ele>
        <time>2011-06-21T09:51:44Z</time>
      </trkpt>
      <trkpt lat="44.505445919930935" lon="5.576963983476162">
        <ele>791.79998779296875</ele>
        <time>2011-06-21T09:52:00Z</time>
      </trkpt>
      <trkpt lat="44.505025986582041" lon="5.577461952343583">
        <ele>792.5999755859375</ele>
        <time>2011-06-21T09:52:17Z</time>
      </trkpt>
      <trkpt lat="44.504618961364031" lon="5.577724976465106">
        <ele>792.4000244140625</ele>
        <time>2011-06-21T09:52:27Z</time>
      </trkpt>
      <trkpt lat="44.50427295640111" lon="5.578198973089457">
        <ele>791.4000244140625</ele>
        <time>2011-06-21T09:52:39Z</time>
      </trkpt>
      <trkpt lat="44.503896944224834" lon="5.578652936965227">
        <ele>793.20001220703125</ele>
        <time>2011-06-21T09:52:51Z</time>
      </trkpt>
      <trkpt lat="44.503425965085626" lon="5.579201951622963">
        <ele>796</ele>
        <time>2011-06-21T09:53:08Z</time>
      </trkpt>
      <trkpt lat="44.502829927951097" lon="5.579804945737124">
        <ele>799.4000244140625</ele>
        <time>2011-06-21T09:53:30Z</time>
      </trkpt>
      <trkpt lat="44.502301951870322" lon="5.580259999260306">
        <ele>801.79998779296875</ele>
        <time>2011-06-21T09:53:49Z</time>
      </trkpt>
      <trkpt lat="44.502030964940786" lon="5.581217966973782">
        <ele>804.5999755859375</ele>
        <time>2011-06-21T09:54:11Z</time>
      </trkpt>
      <trkpt lat="44.502012943848968" lon="5.581963956356049">
        <ele>805.20001220703125</ele>
        <time>2011-06-21T09:54:25Z</time>
      </trkpt>
      <trkpt lat="44.502057954668999" lon="5.582784963771701">
        <ele>805.20001220703125</ele>
        <time>2011-06-21T09:54:39Z</time>
      </trkpt>
      <trkpt lat="44.50234193354845" lon="5.583434980362654">
        <ele>805.4000244140625</ele>
        <time>2011-06-21T09:54:51Z</time>
      </trkpt>
      <trkpt lat="44.50216599740088" lon="5.584419937804341">
        <ele>806.4000244140625</ele>
        <time>2011-06-21T09:55:08Z</time>
      </trkpt>
      <trkpt lat="44.50199693441391" lon="5.585054950788617">
        <ele>809.4000244140625</ele>
        <time>2011-06-21T09:55:22Z</time>
      </trkpt>
      <trkpt lat="44.501950917765498" lon="5.585908982902765">
        <ele>813.5999755859375</ele>
        <time>2011-06-21T09:55:44Z</time>
      </trkpt>
      <trkpt lat="44.502091985195875" lon="5.586866950616241">
        <ele>817.4000244140625</ele>
        <time>2011-06-21T09:56:09Z</time>
      </trkpt>
      <trkpt lat="44.502342939376831" lon="5.587559966370463">
        <ele>818.4000244140625</ele>
        <time>2011-06-21T09:56:25Z</time>
      </trkpt>
      <trkpt lat="44.502491969615221" lon="5.588553976267576">
        <ele>819.5999755859375</ele>
        <time>2011-06-21T09:56:43Z</time>
      </trkpt>
      <trkpt lat="44.50251292437315" lon="5.589287979528308">
        <ele>820.79998779296875</ele>
        <time>2011-06-21T09:56:56Z</time>
      </trkpt>
      <trkpt lat="44.502655919641256" lon="5.589974960312247">
        <ele>823.4000244140625</ele>
        <time>2011-06-21T09:57:12Z</time>
      </trkpt>
      <trkpt lat="44.502911986783147" lon="5.590810971334577">
        <ele>826.5999755859375</ele>
        <time>2011-06-21T09:57:34Z</time>
      </trkpt>
      <trkpt lat="44.50328498147428" lon="5.591649999842048">
        <ele>830.4000244140625</ele>
        <time>2011-06-21T09:57:58Z</time>
      </trkpt>
      <trkpt lat="44.503577928990126" lon="5.592141933739185">
        <ele>832.79998779296875</ele>
        <time>2011-06-21T09:58:14Z</time>
      </trkpt>
      <trkpt lat="44.504102971404791" lon="5.592753980308771">
        <ele>836.20001220703125</ele>
        <time>2011-06-21T09:58:39Z</time>
      </trkpt>
      <trkpt lat="44.50446892529726" lon="5.593145918101072">
        <ele>838.20001220703125</ele>
        <time>2011-06-21T09:58:56Z</time>
      </trkpt>
      <trkpt lat="44.504902940243483" lon="5.593589991331101">
        <ele>840.4000244140625</ele>
        <time>2011-06-21T09:59:14Z</time>
      </trkpt>
      <trkpt lat="44.505387917160988" lon="5.59401897713542">
        <ele>843</ele>
        <time>2011-06-21T09:59:32Z</time>
      </trkpt>
      <trkpt lat="44.5058189984411" lon="5.594416949898005">
        <ele>845.20001220703125</ele>
        <time>2011-06-21T09:59:48Z</time>
      </trkpt>
      <trkpt lat="44.506287965923548" lon="5.595080964267254">
        <ele>847.79998779296875</ele>
        <time>2011-06-21T10:00:09Z</time>
      </trkpt>
      <trkpt lat="44.506576973944902" lon="5.595611957833171">
        <ele>849.79998779296875</ele>
        <time>2011-06-21T10:00:24Z</time>
      </trkpt>
      <trkpt lat="44.506831951439381" lon="5.596329951658845">
        <ele>851.79998779296875</ele>
        <time>2011-06-21T10:00:42Z</time>
      </trkpt>
      <trkpt lat="44.507056921720505" lon="5.596968987956643">
        <ele>853.79998779296875</ele>
        <time>2011-06-21T10:00:58Z</time>
      </trkpt>
      <trkpt lat="44.507480962201953" lon="5.597762921825051">
        <ele>855</ele>
        <time>2011-06-21T10:01:16Z</time>
      </trkpt>
      <trkpt lat="44.507897961884737" lon="5.598414950072765">
        <ele>856.5999755859375</ele>
        <time>2011-06-21T10:01:31Z</time>
      </trkpt>
      <trkpt lat="44.508057972416282" lon="5.599296977743506">
        <ele>857.79998779296875</ele>
        <time>2011-06-21T10:01:47Z</time>
      </trkpt>
      <trkpt lat="44.508357960730791" lon="5.600069956853986">
        <ele>858.79998779296875</ele>
        <time>2011-06-21T10:02:04Z</time>
      </trkpt>
      <trkpt lat="44.508487964048982" lon="5.600875960662961">
        <ele>860</ele>
        <time>2011-06-21T10:02:23Z</time>
      </trkpt>
      <trkpt lat="44.508666917681694" lon="5.601594960317016">
        <ele>861.5999755859375</ele>
        <time>2011-06-21T10:02:39Z</time>
      </trkpt>
      <trkpt lat="44.508944945409894" lon="5.602362994104624">
        <ele>862.79998779296875</ele>
        <time>2011-06-21T10:02:53Z</time>
      </trkpt>
      <trkpt lat="44.509197995066643" lon="5.60325893573463">
        <ele>864.20001220703125</ele>
        <time>2011-06-21T10:03:09Z</time>
      </trkpt>
      <trkpt lat="44.509401926770806" lon="5.604195948690176">
        <ele>865.5999755859375</ele>
        <time>2011-06-21T10:03:25Z</time>
      </trkpt>
      <trkpt lat="44.509551962837577" lon="5.60521393083036">
        <ele>867.20001220703125</ele>
        <time>2011-06-21T10:03:40Z</time>
      </trkpt>
      <trkpt lat="44.509614994749427" lon="5.606256974861026">
        <ele>868.79998779296875</ele>
        <time>2011-06-21T10:03:56Z</time>
      </trkpt>
      <trkpt lat="44.509787997230887" lon="5.607052920386195">
        <ele>870.5999755859375</ele>
        <time>2011-06-21T10:04:10Z</time>
      </trkpt>
      <trkpt lat="44.509887993335724" lon="5.607856996357441">
        <ele>873</ele>
        <time>2011-06-21T10:04:26Z</time>
      </trkpt>
      <trkpt lat="44.510092930868268" lon="5.608796942979097">
        <ele>875.5999755859375</ele>
        <time>2011-06-21T10:04:44Z</time>
      </trkpt>
      <trkpt lat="44.510270962491632" lon="5.609669918194413">
        <ele>877.79998779296875</ele>
        <time>2011-06-21T10:05:01Z</time>
      </trkpt>
      <trkpt lat="44.510527951642871" lon="5.610353965312243">
        <ele>880</ele>
        <time>2011-06-21T10:05:17Z</time>
      </trkpt>
      <trkpt lat="44.510716963559389" lon="5.61103792861104">
        <ele>883.4000244140625</ele>
        <time>2011-06-21T10:05:39Z</time>
      </trkpt>
      <trkpt lat="44.510892983525991" lon="5.611946946009994">
        <ele>891.79998779296875</ele>
        <time>2011-06-21T10:34:49Z</time>
      </trkpt>
      <trkpt lat="44.510991973802447" lon="5.612583970651031">
        <ele>894.20001220703125</ele>
        <time>2011-06-21T10:35:07Z</time>
      </trkpt>
      <trkpt lat="44.511305959895253" lon="5.613416964188218">
        <ele>897.79998779296875</ele>
        <time>2011-06-21T10:35:33Z</time>
      </trkpt>
      <trkpt lat="44.511524979025126" lon="5.61402196995914">
        <ele>900.5999755859375</ele>
        <time>2011-06-21T10:35:50Z</time>
      </trkpt>
      <trkpt lat="44.511710973456502" lon="5.614660922437906">
        <ele>903.4000244140625</ele>
        <time>2011-06-21T10:36:07Z</time>
      </trkpt>
      <trkpt lat="44.511884981766343" lon="5.615554936230183">
        <ele>907</ele>
        <time>2011-06-21T10:36:31Z</time>
      </trkpt>
      <trkpt lat="44.511924963444471" lon="5.616246946156025">
        <ele>909.79998779296875</ele>
        <time>2011-06-21T10:36:50Z</time>
      </trkpt>
      <trkpt lat="44.512218916788697" lon="5.617061918601394">
        <ele>913.20001220703125</ele>
        <time>2011-06-21T10:37:15Z</time>
      </trkpt>
      <trkpt lat="44.51250096783042" lon="5.61793296597898">
        <ele>917.79998779296875</ele>
        <time>2011-06-21T10:37:42Z</time>
      </trkpt>
      <trkpt lat="44.512684950605035" lon="5.618523973971605">
        <ele>920.5999755859375</ele>
        <time>2011-06-21T10:38:01Z</time>
      </trkpt>
      <trkpt lat="44.512746976688504" lon="5.619243979454041">
        <ele>923.79998779296875</ele>
        <time>2011-06-21T10:38:23Z</time>
      </trkpt>
      <trkpt lat="44.512767931446433" lon="5.620069932192564">
        <ele>922.79998779296875</ele>
        <time>2011-06-21T10:38:41Z</time>
      </trkpt>
      <trkpt lat="44.512744965031743" lon="5.620732940733433">
        <ele>920.4000244140625</ele>
        <time>2011-06-21T10:38:47Z</time>
      </trkpt>
      <trkpt lat="44.512667935341597" lon="5.621356973424554">
        <ele>918.79998779296875</ele>
        <time>2011-06-21T10:38:52Z</time>
      </trkpt>
      <trkpt lat="44.512813948094845" lon="5.62203791923821">
        <ele>921.79998779296875</ele>
        <time>2011-06-21T10:39:02Z</time>
      </trkpt>
      <trkpt lat="44.513350976631045" lon="5.622387947514653">
        <ele>929</ele>
        <time>2011-06-21T10:39:30Z</time>
      </trkpt>
      <trkpt lat="44.513779962435365" lon="5.622662957757711">
        <ele>934.5999755859375</ele>
        <time>2011-06-21T10:40:00Z</time>
      </trkpt>
      <trkpt lat="44.514104928821325" lon="5.623102923855186">
        <ele>940</ele>
        <time>2011-06-21T10:40:27Z</time>
      </trkpt>
      <trkpt lat="44.514490999281406" lon="5.623463932424784">
        <ele>947.20001220703125</ele>
        <time>2011-06-21T10:41:02Z</time>
      </trkpt>
      <trkpt lat="44.51484396122396" lon="5.623552948236466">
        <ele>953.20001220703125</ele>
        <time>2011-06-21T10:41:33Z</time>
      </trkpt>
      <trkpt lat="44.514650925993919" lon="5.6241659168154">
        <ele>955.79998779296875</ele>
        <time>2011-06-21T10:41:57Z</time>
      </trkpt>
      <trkpt lat="44.514094954356551" lon="5.624054940417409">
        <ele>958</ele>
        <time>2011-06-21T10:42:19Z</time>
      </trkpt>
      <trkpt lat="44.513693964108825" lon="5.624053934589028">
        <ele>960.79998779296875</ele>
        <time>2011-06-21T10:42:39Z</time>
      </trkpt>
      <trkpt lat="44.513389952480793" lon="5.624796990305185">
        <ele>963.5999755859375</ele>
        <time>2011-06-21T10:43:02Z</time>
      </trkpt>
      <trkpt lat="44.513293979689479" lon="5.625602994114161">
        <ele>967.5999755859375</ele>
        <time>2011-06-21T10:43:25Z</time>
      </trkpt>
      <trkpt lat="44.51325592584908" lon="5.626339931041002">
        <ele>971</ele>
        <time>2011-06-21T10:43:47Z</time>
      </trkpt>
      <trkpt lat="44.51314696110785" lon="5.627124980092049">
        <ele>974.79998779296875</ele>
        <time>2011-06-21T10:44:11Z</time>
      </trkpt>
      <trkpt lat="44.512879997491837" lon="5.627866946160793">
        <ele>979</ele>
        <time>2011-06-21T10:44:36Z</time>
      </trkpt>
      <trkpt lat="44.512627953663468" lon="5.62863296829164">
        <ele>983.4000244140625</ele>
        <time>2011-06-21T10:45:02Z</time>
      </trkpt>
      <trkpt lat="44.51248093508184" lon="5.629453975707293">
        <ele>986.4000244140625</ele>
        <time>2011-06-21T10:45:24Z</time>
      </trkpt>
      <trkpt lat="44.512494932860136" lon="5.630087982863188">
        <ele>989.5999755859375</ele>
        <time>2011-06-21T10:45:43Z</time>
      </trkpt>
      <trkpt lat="44.512453945353627" lon="5.630725929513574">
        <ele>992.5999755859375</ele>
        <time>2011-06-21T10:46:03Z</time>
      </trkpt>
      <trkpt lat="44.512423938140273" lon="5.631602928042412">
        <ele>996.4000244140625</ele>
        <time>2011-06-21T10:46:26Z</time>
      </trkpt>
      <trkpt lat="44.512534998357296" lon="5.632231989875436">
        <ele>998.79998779296875</ele>
        <time>2011-06-21T10:46:43Z</time>
      </trkpt>
      <trkpt lat="44.512860970571637" lon="5.632960963994265">
        <ele>1002.4000244140625</ele>
        <time>2011-06-21T10:47:06Z</time>
      </trkpt>
      <trkpt lat="44.513124916702509" lon="5.633639981970191">
        <ele>1006.7999877929687</ele>
        <time>2011-06-21T10:47:29Z</time>
      </trkpt>
      <trkpt lat="44.513632943853736" lon="5.634202994406223">
        <ele>1010.4000244140625</ele>
        <time>2011-06-21T10:47:56Z</time>
      </trkpt>
      <trkpt lat="44.513745931908488" lon="5.634845970198512">
        <ele>1014.2000122070312</ele>
        <time>2011-06-21T10:48:17Z</time>
      </trkpt>
      <trkpt lat="44.513788931071758" lon="5.635483916848898">
        <ele>1018</ele>
        <time>2011-06-21T10:48:39Z</time>
      </trkpt>
      <trkpt lat="44.514043992385268" lon="5.636150948703289">
        <ele>1020.5999755859375</ele>
        <time>2011-06-21T10:49:28Z</time>
      </trkpt>
      <trkpt lat="44.514111969619989" lon="5.636768946424127">
        <ele>1024.800048828125</ele>
        <time>2011-06-21T10:49:48Z</time>
      </trkpt>
      <trkpt lat="44.514217916876078" lon="5.637385938316584">
        <ele>1028</ele>
        <time>2011-06-21T10:50:11Z</time>
      </trkpt>
      <trkpt lat="44.514061929658055" lon="5.637967977672815">
        <ele>1031.4000244140625</ele>
        <time>2011-06-21T10:51:10Z</time>
      </trkpt>
      <trkpt lat="44.51394097879529" lon="5.638421941548586">
        <ele>1035.199951171875</ele>
        <time>2011-06-21T10:56:04Z</time>
      </trkpt>
      <trkpt lat="44.513495983555913" lon="5.638414984568954">
        <ele>1037</ele>
        <time>2011-06-21T10:57:45Z</time>
      </trkpt>
      <trkpt lat="44.51288896612823" lon="5.638188924640417">
        <ele>1036.5999755859375</ele>
        <time>2011-06-21T10:58:07Z</time>
      </trkpt>
      <trkpt lat="44.512522928416729" lon="5.637549972161651">
        <ele>1037</ele>
        <time>2011-06-21T10:58:21Z</time>
      </trkpt>
      <trkpt lat="44.512399965897202" lon="5.636850921437144">
        <ele>1040.4000244140625</ele>
        <time>2011-06-21T10:58:41Z</time>
      </trkpt>
      <trkpt lat="44.51218094676733" lon="5.636273995041847">
        <ele>1043.5999755859375</ele>
        <time>2011-06-21T10:59:04Z</time>
      </trkpt>
      <trkpt lat="44.511795965954661" lon="5.635944921523333">
        <ele>1047.5999755859375</ele>
        <time>2011-06-21T10:59:29Z</time>
      </trkpt>
      <trkpt lat="44.511457923799753" lon="5.636623939499259">
        <ele>1052.4000244140625</ele>
        <time>2011-06-21T10:59:56Z</time>
      </trkpt>
      <trkpt lat="44.510993985459208" lon="5.636317916214466">
        <ele>1056.5999755859375</ele>
        <time>2011-06-21T11:00:24Z</time>
      </trkpt>
      <trkpt lat="44.51054597273469" lon="5.636120941489935">
        <ele>1060.5999755859375</ele>
        <time>2011-06-21T11:00:49Z</time>
      </trkpt>
      <trkpt lat="44.510020930320024" lon="5.635981969535351">
        <ele>1065.4000244140625</ele>
        <time>2011-06-21T11:01:18Z</time>
      </trkpt>
      <trkpt lat="44.509486919268966" lon="5.635961936786771">
        <ele>1070</ele>
        <time>2011-06-21T11:01:47Z</time>
      </trkpt>
      <trkpt lat="44.509878940880299" lon="5.636267960071564">
        <ele>1074.199951171875</ele>
        <time>2011-06-21T11:02:16Z</time>
      </trkpt>
      <trkpt lat="44.510372970253229" lon="5.63664497807622">
        <ele>1077.800048828125</ele>
        <time>2011-06-21T11:02:45Z</time>
      </trkpt>
      <trkpt lat="44.510538931936026" lon="5.63724797219038">
        <ele>1082.4000244140625</ele>
        <time>2011-06-21T11:03:09Z</time>
      </trkpt>
      <trkpt lat="44.510575979948044" lon="5.637920955196023">
        <ele>1086.199951171875</ele>
        <time>2011-06-21T11:03:33Z</time>
      </trkpt>
      <trkpt lat="44.510700954124331" lon="5.638634925708175">
        <ele>1090.199951171875</ele>
        <time>2011-06-21T11:04:03Z</time>
      </trkpt>
      <trkpt lat="44.510766919702291" lon="5.639228951185942">
        <ele>1094.4000244140625</ele>
        <time>2011-06-21T11:08:53Z</time>
      </trkpt>
      <trkpt lat="44.510305998846889" lon="5.639780983328819">
        <ele>1098.4000244140625</ele>
        <time>2011-06-21T11:09:20Z</time>
      </trkpt>
      <trkpt lat="44.510046998038888" lon="5.640385989099741">
        <ele>1102.800048828125</ele>
        <time>2011-06-21T11:09:44Z</time>
      </trkpt>
      <trkpt lat="44.50958096422255" lon="5.641016978770495">
        <ele>1107.4000244140625</ele>
        <time>2011-06-21T11:10:12Z</time>
      </trkpt>
      <trkpt lat="44.50913093984127" lon="5.641499944031239">
        <ele>1111.4000244140625</ele>
        <time>2011-06-21T11:10:38Z</time>
      </trkpt>
      <trkpt lat="44.508672952651978" lon="5.642028925940394">
        <ele>1115.4000244140625</ele>
        <time>2011-06-21T11:11:05Z</time>
      </trkpt>
      <trkpt lat="44.508299957960844" lon="5.642679948359728">
        <ele>1120.5999755859375</ele>
        <time>2011-06-21T11:11:35Z</time>
      </trkpt>
      <trkpt lat="44.508156962692738" lon="5.643470948562026">
        <ele>1125.4000244140625</ele>
        <time>2011-06-21T11:12:07Z</time>
      </trkpt>
      <trkpt lat="44.507828978821635" lon="5.643900940194726">
        <ele>1128.4000244140625</ele>
        <time>2011-06-21T11:12:31Z</time>
      </trkpt>
      <trkpt lat="44.507401920855045" lon="5.644120965152979">
        <ele>1131.5999755859375</ele>
        <time>2011-06-21T11:12:53Z</time>
      </trkpt>
      <trkpt lat="44.507026998326182" lon="5.644550956785679">
        <ele>1135.5999755859375</ele>
        <time>2011-06-21T11:13:17Z</time>
      </trkpt>
      <trkpt lat="44.506714940071106" lon="5.645054960623384">
        <ele>1140</ele>
        <time>2011-06-21T11:13:44Z</time>
      </trkpt>
      <trkpt lat="44.506557947024703" lon="5.644676936790347">
        <ele>1143</ele>
        <time>2011-06-21T11:14:09Z</time>
      </trkpt>
      <trkpt lat="44.506810996681452" lon="5.644136974588037">
        <ele>1146.5999755859375</ele>
        <time>2011-06-21T11:14:32Z</time>
      </trkpt>
      <trkpt lat="44.506698930636048" lon="5.644047958776355">
        <ele>1149.4000244140625</ele>
        <time>2011-06-21T11:14:53Z</time>
      </trkpt>
      <trkpt lat="44.506361978128552" lon="5.644565960392356">
        <ele>1153.4000244140625</ele>
        <time>2011-06-21T11:15:16Z</time>
      </trkpt>
      <trkpt lat="44.505942966789007" lon="5.645082956179977">
        <ele>1157.5999755859375</ele>
        <time>2011-06-21T11:15:42Z</time>
      </trkpt>
      <trkpt lat="44.505598973482847" lon="5.645523928105831">
        <ele>1161.5999755859375</ele>
        <time>2011-06-21T11:16:09Z</time>
      </trkpt>
      <trkpt lat="44.505693940445781" lon="5.646326998248696">
        <ele>1166</ele>
        <time>2011-06-21T11:16:40Z</time>
      </trkpt>
      <trkpt lat="44.505423959344625" lon="5.646826978772879">
        <ele>1169.800048828125</ele>
        <time>2011-06-21T11:17:01Z</time>
      </trkpt>
      <trkpt lat="44.505017939954996" lon="5.64725998789072">
        <ele>1172.800048828125</ele>
        <time>2011-06-21T11:17:25Z</time>
      </trkpt>
      <trkpt lat="44.504790958017111" lon="5.647768937051296">
        <ele>1175</ele>
        <time>2011-06-21T11:17:44Z</time>
      </trkpt>
      <trkpt lat="44.504906963557005" lon="5.648449966683984">
        <ele>1178.5999755859375</ele>
        <time>2011-06-21T11:18:04Z</time>
      </trkpt>
      <trkpt lat="44.505164958536625" lon="5.648992946371436">
        <ele>1181.800048828125</ele>
        <time>2011-06-21T11:18:27Z</time>
      </trkpt>
      <trkpt lat="44.50558296404779" lon="5.649255970492959">
        <ele>1185.4000244140625</ele>
        <time>2011-06-21T11:18:56Z</time>
      </trkpt>
      <trkpt lat="44.506047992035747" lon="5.649189921095967">
        <ele>1188.4000244140625</ele>
        <time>2011-06-21T11:19:22Z</time>
      </trkpt>
      <trkpt lat="44.506525928154588" lon="5.649164943024516">
        <ele>1191.5999755859375</ele>
        <time>2011-06-21T11:19:45Z</time>
      </trkpt>
      <trkpt lat="44.506889954209328" lon="5.649573979899287">
        <ele>1195</ele>
        <time>2011-06-21T11:20:06Z</time>
      </trkpt>
      <trkpt lat="44.507388928905129" lon="5.649885954335332">
        <ele>1198.5999755859375</ele>
        <time>2011-06-21T11:20:36Z</time>
      </trkpt>
      <trkpt lat="44.507736945524812" lon="5.649943957105279">
        <ele>1203.199951171875</ele>
        <time>2011-06-21T11:23:30Z</time>
      </trkpt>
      <trkpt lat="44.507502922788262" lon="5.650241933763027">
        <ele>1206.5999755859375</ele>
        <time>2011-06-21T11:24:03Z</time>
      </trkpt>
      <trkpt lat="44.506961954757571" lon="5.650505963712931">
        <ele>1211.5999755859375</ele>
        <time>2011-06-21T11:24:31Z</time>
      </trkpt>
      <trkpt lat="44.506507990881801" lon="5.650732945650816">
        <ele>1215.5999755859375</ele>
        <time>2011-06-21T11:24:55Z</time>
      </trkpt>
      <trkpt lat="44.506107922643423" lon="5.651028994470835">
        <ele>1220</ele>
        <time>2011-06-21T11:25:17Z</time>
      </trkpt>
      <trkpt lat="44.505929974839091" lon="5.651609944179654">
        <ele>1223.199951171875</ele>
        <time>2011-06-21T11:25:40Z</time>
      </trkpt>
      <trkpt lat="44.505502916872501" lon="5.651895934715867">
        <ele>1226.199951171875</ele>
        <time>2011-06-21T11:26:02Z</time>
      </trkpt>
      <trkpt lat="44.505054987967014" lon="5.652185948565602">
        <ele>1229.4000244140625</ele>
        <time>2011-06-21T11:26:24Z</time>
      </trkpt>
      <trkpt lat="44.50455098412931" lon="5.652167927473784">
        <ele>1233.199951171875</ele>
        <time>2011-06-21T11:26:47Z</time>
      </trkpt>
      <trkpt lat="44.50403893366456" lon="5.652317963540554">
        <ele>1236.5999755859375</ele>
        <time>2011-06-21T11:27:10Z</time>
      </trkpt>
      <trkpt lat="44.503463935106993" lon="5.652346964925528">
        <ele>1240.800048828125</ele>
        <time>2011-06-21T11:27:35Z</time>
      </trkpt>
      <trkpt lat="44.503003936260939" lon="5.652645947411656">
        <ele>1244.4000244140625</ele>
        <time>2011-06-21T11:27:59Z</time>
      </trkpt>
      <trkpt lat="44.502607975155115" lon="5.653083985671401">
        <ele>1248.199951171875</ele>
        <time>2011-06-21T11:28:23Z</time>
      </trkpt>
      <trkpt lat="44.50205996632576" lon="5.653504924848676">
        <ele>1251.5999755859375</ele>
        <time>2011-06-21T11:28:47Z</time>
      </trkpt>
      <trkpt lat="44.501484967768192" lon="5.653674993664026">
        <ele>1255.5999755859375</ele>
        <time>2011-06-21T11:29:10Z</time>
      </trkpt>
      <trkpt lat="44.500868981704116" lon="5.653858976438642">
        <ele>1259.4000244140625</ele>
        <time>2011-06-21T11:29:36Z</time>
      </trkpt>
      <trkpt lat="44.500474948436022" lon="5.654281927272677">
        <ele>1261.199951171875</ele>
        <time>2011-06-21T11:30:03Z</time>
      </trkpt>
      <trkpt lat="44.500463968142867" lon="5.655049961060286">
        <ele>1260</ele>
        <time>2011-06-21T11:40:34Z</time>
      </trkpt>
      <trkpt lat="44.500537980347872" lon="5.655821934342384">
        <ele>1257</ele>
        <time>2011-06-21T11:40:46Z</time>
      </trkpt>
      <trkpt lat="44.500197926536202" lon="5.65677696838975">
        <ele>1254.4000244140625</ele>
        <time>2011-06-21T11:40:56Z</time>
      </trkpt>
      <trkpt lat="44.499916965141892" lon="5.657435953617096">
        <ele>1251.800048828125</ele>
        <time>2011-06-21T11:41:02Z</time>
      </trkpt>
      <trkpt lat="44.499375997111201" lon="5.658122934401035">
        <ele>1247.5999755859375</ele>
        <time>2011-06-21T11:41:10Z</time>
      </trkpt>
      <trkpt lat="44.499172987416387" lon="5.658771945163608">
        <ele>1244</ele>
        <time>2011-06-21T11:41:17Z</time>
      </trkpt>
      <trkpt lat="44.498654985800385" lon="5.659121973440051">
        <ele>1241.199951171875</ele>
        <time>2011-06-21T11:41:25Z</time>
      </trkpt>
      <trkpt lat="44.498228933662176" lon="5.659351972863078">
        <ele>1239</ele>
        <time>2011-06-21T11:41:30Z</time>
      </trkpt>
      <trkpt lat="44.497184967622161" lon="5.659406958147883">
        <ele>1233.4000244140625</ele>
        <time>2011-06-21T11:41:40Z</time>
      </trkpt>
      <trkpt lat="44.49671097099781" lon="5.659746928140521">
        <ele>1229</ele>
        <time>2011-06-21T11:41:48Z</time>
      </trkpt>
      <trkpt lat="44.49668993242085" lon="5.660542957484722">
        <ele>1226</ele>
        <time>2011-06-21T11:41:58Z</time>
      </trkpt>
      <trkpt lat="44.496808955445886" lon="5.66118392162025">
        <ele>1223.4000244140625</ele>
        <time>2011-06-21T11:42:04Z</time>
      </trkpt>
      <trkpt lat="44.497317988425493" lon="5.662201987579465">
        <ele>1217.800048828125</ele>
        <time>2011-06-21T11:42:14Z</time>
      </trkpt>
      <trkpt lat="44.497271971777081" lon="5.663035986945033">
        <ele>1212.5999755859375</ele>
        <time>2011-06-21T11:42:22Z</time>
      </trkpt>
      <trkpt lat="44.496817924082279" lon="5.663213934749365">
        <ele>1209.5999755859375</ele>
        <time>2011-06-21T11:42:29Z</time>
      </trkpt>
      <trkpt lat="44.496225994080305" lon="5.663606962189078">
        <ele>1206.5999755859375</ele>
        <time>2011-06-21T11:42:36Z</time>
      </trkpt>
      <trkpt lat="44.495688965544105" lon="5.663941986858845">
        <ele>1203.199951171875</ele>
        <time>2011-06-21T11:42:42Z</time>
      </trkpt>
      <trkpt lat="44.49511899612844" lon="5.663481988012791">
        <ele>1197.4000244140625</ele>
        <time>2011-06-21T11:42:52Z</time>
      </trkpt>
      <trkpt lat="44.494522958993912" lon="5.663228938356042">
        <ele>1194.5999755859375</ele>
        <time>2011-06-21T11:42:59Z</time>
      </trkpt>
      <trkpt lat="44.493575971573591" lon="5.663204966112971">
        <ele>1190.4000244140625</ele>
        <time>2011-06-21T11:43:09Z</time>
      </trkpt>
      <trkpt lat="44.492977922782302" lon="5.663262968882918">
        <ele>1187.199951171875</ele>
        <time>2011-06-21T11:43:15Z</time>
      </trkpt>
      <trkpt lat="44.492396973073483" lon="5.66330797970295">
        <ele>1182.4000244140625</ele>
        <time>2011-06-21T11:43:21Z</time>
      </trkpt>
      <trkpt lat="44.491846952587366" lon="5.663469918072224">
        <ele>1178.800048828125</ele>
        <time>2011-06-21T11:43:27Z</time>
      </trkpt>
      <trkpt lat="44.491223925724626" lon="5.663513923063874">
        <ele>1173.800048828125</ele>
        <time>2011-06-21T11:43:35Z</time>
      </trkpt>
      <trkpt lat="44.490581955760717" lon="5.66419193521142">
        <ele>1170</ele>
        <time>2011-06-21T11:43:44Z</time>
      </trkpt>
      <trkpt lat="44.490014920011163" lon="5.664531989023089">
        <ele>1167.4000244140625</ele>
        <time>2011-06-21T11:43:50Z</time>
      </trkpt>
      <trkpt lat="44.489452997222543" lon="5.664451941847801">
        <ele>1162.199951171875</ele>
        <time>2011-06-21T11:43:58Z</time>
      </trkpt>
      <trkpt lat="44.489841917529702" lon="5.664123957976699">
        <ele>1159</ele>
        <time>2011-06-21T11:44:06Z</time>
      </trkpt>
      <trkpt lat="44.490375928580761" lon="5.663603944703937">
        <ele>1156.199951171875</ele>
        <time>2011-06-21T11:44:14Z</time>
      </trkpt>
      <trkpt lat="44.490964924916625" lon="5.663241930305958">
        <ele>1152.5999755859375</ele>
        <time>2011-06-21T11:44:21Z</time>
      </trkpt>
      <trkpt lat="44.491700939834118" lon="5.662616975605488">
        <ele>1148.199951171875</ele>
        <time>2011-06-21T11:44:29Z</time>
      </trkpt>
      <trkpt lat="44.492249954491854" lon="5.662340959534049">
        <ele>1143.800048828125</ele>
        <time>2011-06-21T11:44:35Z</time>
      </trkpt>
      <trkpt lat="44.492700984701514" lon="5.662062931805849">
        <ele>1141.199951171875</ele>
        <time>2011-06-21T11:44:40Z</time>
      </trkpt>
      <trkpt lat="44.493159977719188" lon="5.661617936566472">
        <ele>1137.5999755859375</ele>
        <time>2011-06-21T11:44:46Z</time>
      </trkpt>
      <trkpt lat="44.493632968515158" lon="5.661379974335432">
        <ele>1134.5999755859375</ele>
        <time>2011-06-21T11:44:51Z</time>
      </trkpt>
      <trkpt lat="44.494073940441012" lon="5.661114938557148">
        <ele>1131.800048828125</ele>
        <time>2011-06-21T11:44:56Z</time>
      </trkpt>
      <trkpt lat="44.494601916521788" lon="5.660486966371536">
        <ele>1127.5999755859375</ele>
        <time>2011-06-21T11:45:05Z</time>
      </trkpt>
      <trkpt lat="44.494275944307446" lon="5.660574976354837">
        <ele>1123.800048828125</ele>
        <time>2011-06-21T11:45:17Z</time>
      </trkpt>
      <trkpt lat="44.49342392385006" lon="5.660855937749147">
        <ele>1118.4000244140625</ele>
        <time>2011-06-21T11:45:27Z</time>
      </trkpt>
      <trkpt lat="44.492889996618032" lon="5.661021983250976">
        <ele>1114.800048828125</ele>
        <time>2011-06-21T11:45:32Z</time>
      </trkpt>
      <trkpt lat="44.492430919781327" lon="5.66113899461925">
        <ele>1110.800048828125</ele>
        <time>2011-06-21T11:45:36Z</time>
      </trkpt>
      <trkpt lat="44.491808982565999" lon="5.661190962418914">
        <ele>1105.5999755859375</ele>
        <time>2011-06-21T11:45:41Z</time>
      </trkpt>
      <trkpt lat="44.490918992087245" lon="5.66116196103394">
        <ele>1099</ele>
        <time>2011-06-21T11:45:48Z</time>
      </trkpt>
      <trkpt lat="44.490446923300624" lon="5.661188950762153">
        <ele>1094.4000244140625</ele>
        <time>2011-06-21T11:45:52Z</time>
      </trkpt>
      <trkpt lat="44.490010980516672" lon="5.661401934921742">
        <ele>1090.5999755859375</ele>
        <time>2011-06-21T11:45:57Z</time>
      </trkpt>
      <trkpt lat="44.489187961444259" lon="5.661822957918048">
        <ele>1084</ele>
        <time>2011-06-21T11:46:05Z</time>
      </trkpt>
      <trkpt lat="44.488541968166828" lon="5.661770990118384">
        <ele>1080.199951171875</ele>
        <time>2011-06-21T11:46:10Z</time>
      </trkpt>
      <trkpt lat="44.487693971022964" lon="5.661856988444924">
        <ele>1074.4000244140625</ele>
        <time>2011-06-21T11:46:16Z</time>
      </trkpt>
      <trkpt lat="44.487143950536847" lon="5.661867968738079">
        <ele>1069.4000244140625</ele>
        <time>2011-06-21T11:46:20Z</time>
      </trkpt>
      <trkpt lat="44.48650692589581" lon="5.66182597540319">
        <ele>1063.800048828125</ele>
        <time>2011-06-21T11:46:25Z</time>
      </trkpt>
      <trkpt lat="44.486061930656433" lon="5.661678956821561">
        <ele>1058.199951171875</ele>
        <time>2011-06-21T11:46:30Z</time>
      </trkpt>
      <trkpt lat="44.485548958182335" lon="5.661664959043264">
        <ele>1051.5999755859375</ele>
        <time>2011-06-21T11:46:39Z</time>
      </trkpt>
      <trkpt lat="44.4851069804281" lon="5.661420961841941">
        <ele>1047.5999755859375</ele>
        <time>2011-06-21T11:46:48Z</time>
      </trkpt>
      <trkpt lat="44.485631939023733" lon="5.660985941067338">
        <ele>1043.199951171875</ele>
        <time>2011-06-21T11:47:03Z</time>
      </trkpt>
      <trkpt lat="44.486534921452403" lon="5.660789972171187">
        <ele>1037.4000244140625</ele>
        <time>2011-06-21T11:47:12Z</time>
      </trkpt>
      <trkpt lat="44.487101957201958" lon="5.660613952204585">
        <ele>1033.199951171875</ele>
        <time>2011-06-21T11:47:17Z</time>
      </trkpt>
      <trkpt lat="44.487600931897759" lon="5.660271970555186">
        <ele>1028.5999755859375</ele>
        <time>2011-06-21T11:47:22Z</time>
      </trkpt>
      <trkpt lat="44.488133937120438" lon="5.659754974767566">
        <ele>1021.4000244140625</ele>
        <time>2011-06-21T11:47:31Z</time>
      </trkpt>
      <trkpt lat="44.487632950767875" lon="5.659492956474423">
        <ele>1018</ele>
        <time>2011-06-21T11:47:40Z</time>
      </trkpt>
      <trkpt lat="44.486953932791948" lon="5.65963595174253">
        <ele>1013.7999877929687</ele>
        <time>2011-06-21T11:47:48Z</time>
      </trkpt>
      <trkpt lat="44.486425956711173" lon="5.659399917349219">
        <ele>1009.4000244140625</ele>
        <time>2011-06-21T11:47:54Z</time>
      </trkpt>
      <trkpt lat="44.485952965915203" lon="5.658913934603334">
        <ele>1006.5999755859375</ele>
        <time>2011-06-21T11:47:59Z</time>
      </trkpt>
      <trkpt lat="44.485508976504207" lon="5.658428957685828">
        <ele>1002.5999755859375</ele>
        <time>2011-06-21T11:48:04Z</time>
      </trkpt>
      <trkpt lat="44.485052917152643" lon="5.658401967957616">
        <ele>999.4000244140625</ele>
        <time>2011-06-21T11:48:12Z</time>
      </trkpt>
      <trkpt lat="44.484178936108947" lon="5.658909995108843">
        <ele>994</ele>
        <time>2011-06-21T11:48:23Z</time>
      </trkpt>
      <trkpt lat="44.483725978061557" lon="5.658892979845405">
        <ele>991.4000244140625</ele>
        <time>2011-06-21T11:48:29Z</time>
      </trkpt>
      <trkpt lat="44.483273942023516" lon="5.658378917723894">
        <ele>983.4000244140625</ele>
        <time>2011-06-21T11:48:39Z</time>
      </trkpt>
      <trkpt lat="44.482822995632887" lon="5.658274982124567">
        <ele>981.4000244140625</ele>
        <time>2011-06-21T11:48:45Z</time>
      </trkpt>
      <trkpt lat="44.482285967096686" lon="5.658304989337921">
        <ele>975</ele>
        <time>2011-06-21T11:48:52Z</time>
      </trkpt>
      <trkpt lat="44.481636956334114" lon="5.658484948799014">
        <ele>970.5999755859375</ele>
        <time>2011-06-21T11:48:59Z</time>
      </trkpt>
      <trkpt lat="44.481058940291405" lon="5.658591985702515">
        <ele>964.20001220703125</ele>
        <time>2011-06-21T11:49:07Z</time>
      </trkpt>
      <trkpt lat="44.480466926470399" lon="5.658867917954922">
        <ele>959.5999755859375</ele>
        <time>2011-06-21T11:49:15Z</time>
      </trkpt>
      <trkpt lat="44.479833925142884" lon="5.658937990665436">
        <ele>954.5999755859375</ele>
        <time>2011-06-21T11:49:22Z</time>
      </trkpt>
      <trkpt lat="44.479347942396998" lon="5.659036980941892">
        <ele>951.5999755859375</ele>
        <time>2011-06-21T11:49:27Z</time>
      </trkpt>
      <trkpt lat="44.478788953274488" lon="5.659062964841723">
        <ele>945.79998779296875</ele>
        <time>2011-06-21T11:49:35Z</time>
      </trkpt>
      <trkpt lat="44.47868593968451" lon="5.659812977537513">
        <ele>941.4000244140625</ele>
        <time>2011-06-21T11:49:44Z</time>
      </trkpt>
      <trkpt lat="44.478675965219736" lon="5.660511944442987">
        <ele>937.20001220703125</ele>
        <time>2011-06-21T11:50:19Z</time>
      </trkpt>
      <trkpt lat="44.478271957486868" lon="5.66045394167304">
        <ele>933</ele>
        <time>2011-06-21T11:50:30Z</time>
      </trkpt>
      <trkpt lat="44.477880941703916" lon="5.659685991704464">
        <ele>927.79998779296875</ele>
        <time>2011-06-21T11:50:39Z</time>
      </trkpt>
      <trkpt lat="44.47733192704618" lon="5.659444928169251">
        <ele>923</ele>
        <time>2011-06-21T11:50:48Z</time>
      </trkpt>
      <trkpt lat="44.476959938183427" lon="5.659066988155246">
        <ele>918</ele>
        <time>2011-06-21T11:50:56Z</time>
      </trkpt>
      <trkpt lat="44.477235954254866" lon="5.658487966284156">
        <ele>913.20001220703125</ele>
        <time>2011-06-21T11:51:05Z</time>
      </trkpt>
      <trkpt lat="44.476651987060905" lon="5.657578948885202">
        <ele>906</ele>
        <time>2011-06-21T11:51:19Z</time>
      </trkpt>
      <trkpt lat="44.476219983771443" lon="5.65707796253264">
        <ele>902.5999755859375</ele>
        <time>2011-06-21T11:51:28Z</time>
      </trkpt>
      <trkpt lat="44.475901974365115" lon="5.656477985903621">
        <ele>900.79998779296875</ele>
        <time>2011-06-21T11:51:37Z</time>
      </trkpt>
      <trkpt lat="44.475584970787168" lon="5.655900975689292">
        <ele>901</ele>
        <time>2011-06-21T11:51:48Z</time>
      </trkpt>
      <trkpt lat="44.475306943058968" lon="5.655372999608517">
        <ele>900.20001220703125</ele>
        <time>2011-06-21T11:52:01Z</time>
      </trkpt>
      <trkpt lat="44.474854990839958" lon="5.655717998743057">
        <ele>895.20001220703125</ele>
        <time>2011-06-21T11:52:15Z</time>
      </trkpt>
      <trkpt lat="44.474189970642328" lon="5.656551998108625">
        <ele>889.5999755859375</ele>
        <time>2011-06-21T11:52:24Z</time>
      </trkpt>
      <trkpt lat="44.473631987348199" lon="5.657246941700578">
        <ele>884.4000244140625</ele>
        <time>2011-06-21T11:52:30Z</time>
      </trkpt>
      <trkpt lat="44.47303393855691" lon="5.658052945509553">
        <ele>878.5999755859375</ele>
        <time>2011-06-21T11:52:36Z</time>
      </trkpt>
      <trkpt lat="44.47262791916728" lon="5.658636996522546">
        <ele>874.4000244140625</ele>
        <time>2011-06-21T11:52:40Z</time>
      </trkpt>
      <trkpt lat="44.472352992743254" lon="5.659337975084782">
        <ele>869.5999755859375</ele>
        <time>2011-06-21T11:52:44Z</time>
      </trkpt>
      <trkpt lat="44.471976980566978" lon="5.660848980769515">
        <ele>863.5999755859375</ele>
        <time>2011-06-21T11:52:52Z</time>
      </trkpt>
      <trkpt lat="44.471776988357306" lon="5.661637969315052">
        <ele>860</ele>
        <time>2011-06-21T11:52:57Z</time>
      </trkpt>
      <trkpt lat="44.47165796533227" lon="5.662555955350399">
        <ele>853.5999755859375</ele>
        <time>2011-06-21T11:53:05Z</time>
      </trkpt>
      <trkpt lat="44.472327930852771" lon="5.662784948945046">
        <ele>851</ele>
        <time>2011-06-21T11:53:14Z</time>
      </trkpt>
      <trkpt lat="44.472652981057763" lon="5.663507971912623">
        <ele>846.4000244140625</ele>
        <time>2011-06-21T11:53:22Z</time>
      </trkpt>
      <trkpt lat="44.472681982442737" lon="5.664296960458159">
        <ele>843.79998779296875</ele>
        <time>2011-06-21T11:53:30Z</time>
      </trkpt>
      <trkpt lat="44.472359949722886" lon="5.664819991216064">
        <ele>842.20001220703125</ele>
        <time>2011-06-21T11:53:36Z</time>
      </trkpt>
      <trkpt lat="44.47191696614027" lon="5.665151998400688">
        <ele>840</ele>
        <time>2011-06-21T11:53:42Z</time>
      </trkpt>
      <trkpt lat="44.471358982846141" lon="5.665941992774606">
        <ele>838.5999755859375</ele>
        <time>2011-06-21T11:53:52Z</time>
      </trkpt>
      <trkpt lat="44.470858918502927" lon="5.666137961670756">
        <ele>839.4000244140625</ele>
        <time>2011-06-21T11:54:00Z</time>
      </trkpt>
      <trkpt lat="44.470366984605789" lon="5.666469968855381">
        <ele>840.5999755859375</ele>
        <time>2011-06-21T11:54:11Z</time>
      </trkpt>
      <trkpt lat="44.469913942739367" lon="5.667099952697754">
        <ele>840.79998779296875</ele>
        <time>2011-06-21T11:54:24Z</time>
      </trkpt>
      <trkpt lat="44.46974697522819" lon="5.667793974280357">
        <ele>840.4000244140625</ele>
        <time>2011-06-21T11:54:34Z</time>
      </trkpt>
      <trkpt lat="44.469427959993482" lon="5.668353969231248">
        <ele>840.20001220703125</ele>
        <time>2011-06-21T11:54:44Z</time>
      </trkpt>
      <trkpt lat="44.469119925051928" lon="5.66893894225359">
        <ele>839.20001220703125</ele>
        <time>2011-06-21T11:54:55Z</time>
      </trkpt>
      <trkpt lat="44.468960920348763" lon="5.669696917757392">
        <ele>837.5999755859375</ele>
        <time>2011-06-21T11:55:04Z</time>
      </trkpt>
      <trkpt lat="44.468936948105693" lon="5.670411977916956">
        <ele>835.20001220703125</ele>
        <time>2011-06-21T11:55:10Z</time>
      </trkpt>
      <trkpt lat="44.468507962301373" lon="5.671469941735268">
        <ele>830.5999755859375</ele>
        <time>2011-06-21T11:55:19Z</time>
      </trkpt>
      <trkpt lat="44.46822096593678" lon="5.672070924192667">
        <ele>828.79998779296875</ele>
        <time>2011-06-21T11:55:24Z</time>
      </trkpt>
      <trkpt lat="44.467782927677035" lon="5.673091923817992">
        <ele>823.5999755859375</ele>
        <time>2011-06-21T11:55:32Z</time>
      </trkpt>
      <trkpt lat="44.467196948826313" lon="5.674171932041645">
        <ele>818.79998779296875</ele>
        <time>2011-06-21T11:55:41Z</time>
      </trkpt>
      <trkpt lat="44.466956974938512" lon="5.674842987209559">
        <ele>817</ele>
        <time>2011-06-21T11:55:46Z</time>
      </trkpt>
      <trkpt lat="44.466392956674099" lon="5.675743957981467">
        <ele>814.5999755859375</ele>
        <time>2011-06-21T11:55:54Z</time>
      </trkpt>
      <trkpt lat="44.466193970292807" lon="5.676557924598455">
        <ele>812.5999755859375</ele>
        <time>2011-06-21T11:56:00Z</time>
      </trkpt>
      <trkpt lat="44.466272927820683" lon="5.677304919809103">
        <ele>810.4000244140625</ele>
        <time>2011-06-21T11:56:05Z</time>
      </trkpt>
      <trkpt lat="44.466023985296488" lon="5.6785639654845">
        <ele>807</ele>
        <time>2011-06-21T11:56:14Z</time>
      </trkpt>
      <trkpt lat="44.465759955346584" lon="5.679333927109838">
        <ele>805.20001220703125</ele>
        <time>2011-06-21T11:56:20Z</time>
      </trkpt>
      <trkpt lat="44.465570943430066" lon="5.679918983951211">
        <ele>804.20001220703125</ele>
        <time>2011-06-21T11:56:25Z</time>
      </trkpt>
      <trkpt lat="44.465552922338247" lon="5.680889943614602">
        <ele>804.20001220703125</ele>
        <time>2011-06-21T11:56:35Z</time>
      </trkpt>
      <trkpt lat="44.465386960655451" lon="5.681515987962484">
        <ele>803.20001220703125</ele>
        <time>2011-06-21T11:56:44Z</time>
      </trkpt>
      <trkpt lat="44.465043973177671" lon="5.681978920474649">
        <ele>802.20001220703125</ele>
        <time>2011-06-21T11:56:52Z</time>
      </trkpt>
      <trkpt lat="44.464755970984697" lon="5.683192955330014">
        <ele>799.4000244140625</ele>
        <time>2011-06-21T11:57:05Z</time>
      </trkpt>
      <trkpt lat="44.464652957394719" lon="5.683831991627812">
        <ele>798.20001220703125</ele>
        <time>2011-06-21T11:57:12Z</time>
      </trkpt>
      <trkpt lat="44.464557990431786" lon="5.684562977403402">
        <ele>797.4000244140625</ele>
        <time>2011-06-21T11:57:21Z</time>
      </trkpt>
      <trkpt lat="44.464485989883542" lon="5.685729989781976">
        <ele>792.79998779296875</ele>
        <time>2011-06-21T11:57:32Z</time>
      </trkpt>
      <trkpt lat="44.464356992393732" lon="5.686633978039026">
        <ele>790.5999755859375</ele>
        <time>2011-06-21T11:57:39Z</time>
      </trkpt>
      <trkpt lat="44.464208967983723" lon="5.687439981848002">
        <ele>787.5999755859375</ele>
        <time>2011-06-21T11:57:45Z</time>
      </trkpt>
      <trkpt lat="44.46368895471096" lon="5.688435919582844">
        <ele>784.5999755859375</ele>
        <time>2011-06-21T11:57:54Z</time>
      </trkpt>
      <trkpt lat="44.46325795724988" lon="5.689217951148748">
        <ele>782.5999755859375</ele>
        <time>2011-06-21T11:58:02Z</time>
      </trkpt>
      <trkpt lat="44.462316920980811" lon="5.690098972991109">
        <ele>778.5999755859375</ele>
        <time>2011-06-21T11:58:16Z</time>
      </trkpt>
      <trkpt lat="44.461850970983505" lon="5.690751923248172">
        <ele>775.79998779296875</ele>
        <time>2011-06-21T11:58:25Z</time>
      </trkpt>
      <trkpt lat="44.461595993489027" lon="5.691337985917926">
        <ele>774</ele>
        <time>2011-06-21T11:58:32Z</time>
      </trkpt>
      <trkpt lat="44.461357947438955" lon="5.691894963383675">
        <ele>773</ele>
        <time>2011-06-21T11:58:39Z</time>
      </trkpt>
      <trkpt lat="44.461019989103079" lon="5.692632989957929">
        <ele>771.79998779296875</ele>
        <time>2011-06-21T11:58:49Z</time>
      </trkpt>
      <trkpt lat="44.460638947784901" lon="5.693040937185288">
        <ele>770.4000244140625</ele>
        <time>2011-06-21T11:58:57Z</time>
      </trkpt>
      <trkpt lat="44.460166962817311" lon="5.693548964336515">
        <ele>770</ele>
        <time>2011-06-21T11:59:08Z</time>
      </trkpt>
      <trkpt lat="44.459908967837691" lon="5.694088926538825">
        <ele>769</ele>
        <time>2011-06-21T11:59:17Z</time>
      </trkpt>
      <trkpt lat="44.459493979811668" lon="5.694112982600927">
        <ele>766.79998779296875</ele>
        <time>2011-06-21T12:01:21Z</time>
      </trkpt>
      <trkpt lat="44.458797946572304" lon="5.694168973714113">
        <ele>764.79998779296875</ele>
        <time>2011-06-21T12:01:37Z</time>
      </trkpt>
      <trkpt lat="44.458117922767997" lon="5.693895975127816">
        <ele>763.20001220703125</ele>
        <time>2011-06-21T12:01:50Z</time>
      </trkpt>
      <trkpt lat="44.457663958892226" lon="5.694295959547162">
        <ele>761.79998779296875</ele>
        <time>2011-06-21T12:02:00Z</time>
      </trkpt>
      <trkpt lat="44.457124918699265" lon="5.694253966212273">
        <ele>760.4000244140625</ele>
        <time>2011-06-21T12:02:09Z</time>
      </trkpt>
      <trkpt lat="44.456805987283587" lon="5.693751974031329">
        <ele>758.4000244140625</ele>
        <time>2011-06-21T12:02:15Z</time>
      </trkpt>
      <trkpt lat="44.456201987341046" lon="5.693435976281762">
        <ele>754.20001220703125</ele>
        <time>2011-06-21T12:02:23Z</time>
      </trkpt>
      <trkpt lat="44.455408975481987" lon="5.693310918286443">
        <ele>748.5999755859375</ele>
        <time>2011-06-21T12:02:32Z</time>
      </trkpt>
      <trkpt lat="44.454778991639614" lon="5.693380990996957">
        <ele>746.4000244140625</ele>
        <time>2011-06-21T12:02:39Z</time>
      </trkpt>
      <trkpt lat="44.454136937856674" lon="5.693263979628682">
        <ele>744.20001220703125</ele>
        <time>2011-06-21T12:02:47Z</time>
      </trkpt>
      <trkpt lat="44.453490944579244" lon="5.693158954381943">
        <ele>741.79998779296875</ele>
        <time>2011-06-21T12:02:55Z</time>
      </trkpt>
      <trkpt lat="44.4527109246701" lon="5.693343942984939">
        <ele>741.20001220703125</ele>
        <time>2011-06-21T12:03:06Z</time>
      </trkpt>
      <trkpt lat="44.452223936095834" lon="5.693932939320803">
        <ele>740.20001220703125</ele>
        <time>2011-06-21T12:03:18Z</time>
      </trkpt>
      <trkpt lat="44.451795956119895" lon="5.694166962057352">
        <ele>739.4000244140625</ele>
        <time>2011-06-21T12:03:26Z</time>
      </trkpt>
      <trkpt lat="44.451362947002053" lon="5.694387992843986">
        <ele>738.5999755859375</ele>
        <time>2011-06-21T12:03:34Z</time>
      </trkpt>
      <trkpt lat="44.450855925679207" lon="5.694917980581522">
        <ele>737</ele>
        <time>2011-06-21T12:03:46Z</time>
      </trkpt>
      <trkpt lat="44.450004994869232" lon="5.695615941658616">
        <ele>733.5999755859375</ele>
        <time>2011-06-21T12:04:03Z</time>
      </trkpt>
      <trkpt lat="44.449353972449899" lon="5.696344999596477">
        <ele>731.5999755859375</ele>
        <time>2011-06-21T12:04:17Z</time>
      </trkpt>
      <trkpt lat="44.44896899163723" lon="5.697335992008448">
        <ele>730.5999755859375</ele>
        <time>2011-06-21T12:04:32Z</time>
      </trkpt>
      <trkpt lat="44.44862793199718" lon="5.698174936696887">
        <ele>730</ele>
        <time>2011-06-21T12:04:46Z</time>
      </trkpt>
      <trkpt lat="44.448445960879326" lon="5.699003990739584">
        <ele>730.20001220703125</ele>
        <time>2011-06-21T12:04:59Z</time>
      </trkpt>
      <trkpt lat="44.448024937883019" lon="5.699417972937226">
        <ele>729.4000244140625</ele>
        <time>2011-06-21T12:05:10Z</time>
      </trkpt>
      <trkpt lat="44.447219939902425" lon="5.699926922097802">
        <ele>727</ele>
        <time>2011-06-21T12:05:24Z</time>
      </trkpt>
      <trkpt lat="44.446690957993269" lon="5.700388932600617">
        <ele>725</ele>
        <time>2011-06-21T12:05:33Z</time>
      </trkpt>
      <trkpt lat="44.446324920281768" lon="5.700774919241667">
        <ele>724.20001220703125</ele>
        <time>2011-06-21T12:05:40Z</time>
      </trkpt>
      <trkpt lat="44.446110930293798" lon="5.701371962204576">
        <ele>722.79998779296875</ele>
        <time>2011-06-21T12:05:47Z</time>
      </trkpt>
      <trkpt lat="44.446036918088794" lon="5.702093979343772">
        <ele>721.20001220703125</ele>
        <time>2011-06-21T12:05:54Z</time>
      </trkpt>
      <trkpt lat="44.445754950866103" lon="5.702737960964441">
        <ele>719.79998779296875</ele>
        <time>2011-06-21T12:06:01Z</time>
      </trkpt>
      <trkpt lat="44.445184981450438" lon="5.703246993944049">
        <ele>717</ele>
        <time>2011-06-21T12:06:10Z</time>
      </trkpt>
      <trkpt lat="44.44460897706449" lon="5.70333399809897">
        <ele>715.20001220703125</ele>
        <time>2011-06-21T12:06:18Z</time>
      </trkpt>
      <trkpt lat="44.444076977670193" lon="5.703500965610147">
        <ele>714.79998779296875</ele>
        <time>2011-06-21T12:06:27Z</time>
      </trkpt>
      <trkpt lat="44.443563921377063" lon="5.703792991116643">
        <ele>714.4000244140625</ele>
        <time>2011-06-21T12:06:38Z</time>
      </trkpt>
      <trkpt lat="44.443268962204456" lon="5.704304957762361">
        <ele>713.79998779296875</ele>
        <time>2011-06-21T12:06:48Z</time>
      </trkpt>
      <trkpt lat="44.442525990307331" lon="5.704930918291211">
        <ele>712</ele>
        <time>2011-06-21T12:07:04Z</time>
      </trkpt>
      <trkpt lat="44.441976975649595" lon="5.705449925735593">
        <ele>711.79998779296875</ele>
        <time>2011-06-21T12:07:16Z</time>
      </trkpt>
      <trkpt lat="44.441445982083678" lon="5.706219971179962">
        <ele>710.79998779296875</ele>
        <time>2011-06-21T12:07:29Z</time>
      </trkpt>
      <trkpt lat="44.440604941919446" lon="5.706438990309835">
        <ele>709.20001220703125</ele>
        <time>2011-06-21T12:07:43Z</time>
      </trkpt>
      <trkpt lat="44.440034972503781" lon="5.706993956118822">
        <ele>708.4000244140625</ele>
        <time>2011-06-21T12:07:54Z</time>
      </trkpt>
      <trkpt lat="44.439700953662395" lon="5.707724941894412">
        <ele>708</ele>
        <time>2011-06-21T12:08:05Z</time>
      </trkpt>
      <trkpt lat="44.439189992845058" lon="5.708161974325776">
        <ele>707.4000244140625</ele>
        <time>2011-06-21T12:08:17Z</time>
      </trkpt>
      <trkpt lat="44.438437968492508" lon="5.708604957908392">
        <ele>706.4000244140625</ele>
        <time>2011-06-21T12:08:32Z</time>
      </trkpt>
      <trkpt lat="44.437923990190029" lon="5.709078954532743">
        <ele>705.79998779296875</ele>
        <time>2011-06-21T12:08:42Z</time>
      </trkpt>
      <trkpt lat="44.437427949160337" lon="5.709509951993823">
        <ele>707</ele>
        <time>2011-06-21T12:08:53Z</time>
      </trkpt>
      <trkpt lat="44.436928974464536" lon="5.709765935316682">
        <ele>709</ele>
        <time>2011-06-21T12:09:08Z</time>
      </trkpt>
      <trkpt lat="44.436432933434844" lon="5.70986894890666">
        <ele>710</ele>
        <time>2011-06-21T12:09:23Z</time>
      </trkpt>
      <trkpt lat="44.435765985399485" lon="5.709988977760077">
        <ele>708</ele>
        <time>2011-06-21T12:09:37Z</time>
      </trkpt>
      <trkpt lat="44.435206996276975" lon="5.710108922794461">
        <ele>706.5999755859375</ele>
        <time>2011-06-21T12:09:46Z</time>
      </trkpt>
      <trkpt lat="44.434578940272331" lon="5.710370941087604">
        <ele>703.79998779296875</ele>
        <time>2011-06-21T12:09:55Z</time>
      </trkpt>
      <trkpt lat="44.434071918949485" lon="5.710660954937339">
        <ele>701.5999755859375</ele>
        <time>2011-06-21T12:10:01Z</time>
      </trkpt>
      <trkpt lat="44.433126943185925" lon="5.711212987080216">
        <ele>694.79998779296875</ele>
        <time>2011-06-21T12:10:11Z</time>
      </trkpt>
      <trkpt lat="44.432698963209987" lon="5.711801983416081">
        <ele>690.5999755859375</ele>
        <time>2011-06-21T12:10:18Z</time>
      </trkpt>
      <trkpt lat="44.432466952130198" lon="5.712348986417055">
        <ele>688.5999755859375</ele>
        <time>2011-06-21T12:10:24Z</time>
      </trkpt>
      <trkpt lat="44.432057999074459" lon="5.712989950552583">
        <ele>686.79998779296875</ele>
        <time>2011-06-21T12:10:33Z</time>
      </trkpt>
      <trkpt lat="44.431473948061466" lon="5.713184997439385">
        <ele>686</ele>
        <time>2011-06-21T12:10:53Z</time>
      </trkpt>
      <trkpt lat="44.431241936981678" lon="5.713831996545196">
        <ele>685.4000244140625</ele>
        <time>2011-06-21T12:13:34Z</time>
      </trkpt>
      <trkpt lat="44.430917976424098" lon="5.714490981772542">
        <ele>685.79998779296875</ele>
        <time>2011-06-21T12:13:47Z</time>
      </trkpt>
      <trkpt lat="44.430597955361009" lon="5.715213920921087">
        <ele>686.4000244140625</ele>
        <time>2011-06-21T12:13:59Z</time>
      </trkpt>
      <trkpt lat="44.430335937067866" lon="5.716340951621532">
        <ele>684.79998779296875</ele>
        <time>2011-06-21T12:14:13Z</time>
      </trkpt>
      <trkpt lat="44.43010694347322" lon="5.716965990141034">
        <ele>683.5999755859375</ele>
        <time>2011-06-21T12:14:20Z</time>
      </trkpt>
      <trkpt lat="44.429580979049206" lon="5.717376954853535">
        <ele>680.79998779296875</ele>
        <time>2011-06-21T12:14:29Z</time>
      </trkpt>
      <trkpt lat="44.429172948002815" lon="5.717046959325671">
        <ele>679</ele>
        <time>2011-06-21T12:14:40Z</time>
      </trkpt>
      <trkpt lat="44.428780926391482" lon="5.716262999922037">
        <ele>679.4000244140625</ele>
        <time>2011-06-21T12:14:56Z</time>
      </trkpt>
      <trkpt lat="44.428494935855269" lon="5.715716918930411">
        <ele>681.5999755859375</ele>
        <time>2011-06-21T12:15:08Z</time>
      </trkpt>
      <trkpt lat="44.42825797945261" lon="5.715115936473012">
        <ele>684</ele>
        <time>2011-06-21T12:15:21Z</time>
      </trkpt>
      <trkpt lat="44.428056981414557" lon="5.714273974299431">
        <ele>685.5999755859375</ele>
        <time>2011-06-21T12:15:42Z</time>
      </trkpt>
      <trkpt lat="44.427910968661308" lon="5.713381972163916">
        <ele>685.79998779296875</ele>
        <time>2011-06-21T12:15:57Z</time>
      </trkpt>
      <trkpt lat="44.427664959803224" lon="5.712593989446759">
        <ele>685.4000244140625</ele>
        <time>2011-06-21T12:16:12Z</time>
      </trkpt>
      <trkpt lat="44.427282996475697" lon="5.711612971499562">
        <ele>684.79998779296875</ele>
        <time>2011-06-21T12:16:28Z</time>
      </trkpt>
      <trkpt lat="44.426930956542492" lon="5.711064962670207">
        <ele>684.4000244140625</ele>
        <time>2011-06-21T12:16:38Z</time>
      </trkpt>
      <trkpt lat="44.426545975729823" lon="5.710585936903954">
        <ele>683.79998779296875</ele>
        <time>2011-06-21T12:16:49Z</time>
      </trkpt>
      <trkpt lat="44.426075918599963" lon="5.710153933614492">
        <ele>683</ele>
        <time>2011-06-21T12:17:02Z</time>
      </trkpt>
      <trkpt lat="44.425290953367949" lon="5.710231969133019">
        <ele>680.79998779296875</ele>
        <time>2011-06-21T12:17:22Z</time>
      </trkpt>
      <trkpt lat="44.424839923158288" lon="5.710161980241537">
        <ele>680.4000244140625</ele>
        <time>2011-06-21T12:17:30Z</time>
      </trkpt>
      <trkpt lat="44.424399957060814" lon="5.709804994985461">
        <ele>678.79998779296875</ele>
        <time>2011-06-21T12:17:38Z</time>
      </trkpt>
      <trkpt lat="44.423636952415109" lon="5.709784962236881">
        <ele>675.79998779296875</ele>
        <time>2011-06-21T12:17:49Z</time>
      </trkpt>
      <trkpt lat="44.423109982162714" lon="5.70986894890666">
        <ele>673.5999755859375</ele>
        <time>2011-06-21T12:17:55Z</time>
      </trkpt>
      <trkpt lat="44.422431970015168" lon="5.710068941116333">
        <ele>672</ele>
        <time>2011-06-21T12:18:03Z</time>
      </trkpt>
      <trkpt lat="44.421947998926044" lon="5.710150999948382">
        <ele>670.5999755859375</ele>
        <time>2011-06-21T12:18:09Z</time>
      </trkpt>
      <trkpt lat="44.421498980373144" lon="5.71010397747159">
        <ele>669.5999755859375</ele>
        <time>2011-06-21T12:18:15Z</time>
      </trkpt>
      <trkpt lat="44.420770928263664" lon="5.710055949166417">
        <ele>669.79998779296875</ele>
        <time>2011-06-21T12:18:26Z</time>
      </trkpt>
      <trkpt lat="44.419927960261703" lon="5.710185952484608">
        <ele>669.5999755859375</ele>
        <time>2011-06-21T12:18:42Z</time>
      </trkpt>
      <trkpt lat="44.419335946440697" lon="5.710628936067224">
        <ele>668.5999755859375</ele>
        <time>2011-06-21T12:18:53Z</time>
      </trkpt>
      <trkpt lat="44.418814927339554" lon="5.711084995418787">
        <ele>668.20001220703125</ele>
        <time>2011-06-21T12:19:02Z</time>
      </trkpt>
      <trkpt lat="44.41837496124208" lon="5.711477939039469">
        <ele>668.20001220703125</ele>
        <time>2011-06-21T12:19:10Z</time>
      </trkpt>
      <trkpt lat="44.417940946295857" lon="5.711861997842789">
        <ele>668</ele>
        <time>2011-06-21T12:19:18Z</time>
      </trkpt>
      <trkpt lat="44.417506931349635" lon="5.712095936760306">
        <ele>668.5999755859375</ele>
        <time>2011-06-21T12:19:26Z</time>
      </trkpt>
      <trkpt lat="44.416846940293908" lon="5.711917988955975">
        <ele>669.20001220703125</ele>
        <time>2011-06-21T12:19:41Z</time>
      </trkpt>
      <trkpt lat="44.416163982823491" lon="5.711954953148961">
        <ele>668.5999755859375</ele>
        <time>2011-06-21T12:19:54Z</time>
      </trkpt>
      <trkpt lat="44.415635922923684" lon="5.712036928161979">
        <ele>669</ele>
        <time>2011-06-21T12:20:04Z</time>
      </trkpt>
      <trkpt lat="44.414627999067307" lon="5.712174978107214">
        <ele>668.5999755859375</ele>
        <time>2011-06-21T12:20:23Z</time>
      </trkpt>
      <trkpt lat="44.413753934204578" lon="5.71240397170186">
        <ele>667.4000244140625</ele>
        <time>2011-06-21T12:20:38Z</time>
      </trkpt>
      <trkpt lat="44.412826979532838" lon="5.712969917804003">
        <ele>667</ele>
        <time>2011-06-21T12:20:56Z</time>
      </trkpt>
      <trkpt lat="44.412388941273093" lon="5.713331932201982">
        <ele>666.5999755859375</ele>
        <time>2011-06-21T12:21:05Z</time>
      </trkpt>
      <trkpt lat="44.411632977426052" lon="5.713936937972903">
        <ele>665.79998779296875</ele>
        <time>2011-06-21T12:21:20Z</time>
      </trkpt>
      <trkpt lat="44.410894950851798" lon="5.714268945157528">
        <ele>666.79998779296875</ele>
        <time>2011-06-21T12:21:35Z</time>
      </trkpt>
      <trkpt lat="44.410329926759005" lon="5.714519983157516">
        <ele>669.20001220703125</ele>
        <time>2011-06-21T12:21:50Z</time>
      </trkpt>
      <trkpt lat="44.409877974539995" lon="5.714642945677042">
        <ele>669.4000244140625</ele>
        <time>2011-06-21T12:22:07Z</time>
      </trkpt>
      <trkpt lat="44.409432979300618" lon="5.714752916246653">
        <ele>668.20001220703125</ele>
        <time>2011-06-21T12:23:14Z</time>
      </trkpt>
      <trkpt lat="44.408490937203169" lon="5.714986938983202">
        <ele>666</ele>
        <time>2011-06-21T12:23:29Z</time>
      </trkpt>
      <trkpt lat="44.407680993899703" lon="5.715227918699384">
        <ele>666</ele>
        <time>2011-06-21T12:23:42Z</time>
      </trkpt>
      <trkpt lat="44.407113958150148" lon="5.715686995536089">
        <ele>668</ele>
        <time>2011-06-21T12:23:55Z</time>
      </trkpt>
      <trkpt lat="44.406738951802254" lon="5.716103995218873">
        <ele>668.79998779296875</ele>
        <time>2011-06-21T12:24:06Z</time>
      </trkpt>
      <trkpt lat="44.40612992271781" lon="5.716771949082613">
        <ele>667</ele>
        <time>2011-06-21T12:24:18Z</time>
      </trkpt>
      <trkpt lat="44.405790958553553" lon="5.717200934886932">
        <ele>667</ele>
        <time>2011-06-21T12:24:25Z</time>
      </trkpt>
      <trkpt lat="44.405482923611999" lon="5.717670992016792">
        <ele>667.20001220703125</ele>
        <time>2011-06-21T12:24:33Z</time>
      </trkpt>
      <trkpt lat="44.405077993869781" lon="5.718249930068851">
        <ele>666.4000244140625</ele>
        <time>2011-06-21T12:24:43Z</time>
      </trkpt>
      <trkpt lat="44.404633920639753" lon="5.718856947496533">
        <ele>666.20001220703125</ele>
        <time>2011-06-21T12:24:54Z</time>
      </trkpt>
      <trkpt lat="44.404249945655465" lon="5.719289956614375">
        <ele>665.4000244140625</ele>
        <time>2011-06-21T12:25:02Z</time>
      </trkpt>
      <trkpt lat="44.403814924880862" lon="5.719719948247075">
        <ele>664.4000244140625</ele>
        <time>2011-06-21T12:25:11Z</time>
      </trkpt>
      <trkpt lat="44.403030965477228" lon="5.720693925395608">
        <ele>664.20001220703125</ele>
        <time>2011-06-21T12:25:29Z</time>
      </trkpt>
      <trkpt lat="44.402679931372404" lon="5.721144955605269">
        <ele>664.20001220703125</ele>
        <time>2011-06-21T12:25:38Z</time>
      </trkpt>
      <trkpt lat="44.401972917839885" lon="5.721922963857651">
        <ele>663.20001220703125</ele>
        <time>2011-06-21T12:25:54Z</time>
      </trkpt>
      <trkpt lat="44.401567988097668" lon="5.722317919135094">
        <ele>662.4000244140625</ele>
        <time>2011-06-21T12:26:02Z</time>
      </trkpt>
      <trkpt lat="44.401151994243264" lon="5.722730979323387">
        <ele>661.79998779296875</ele>
        <time>2011-06-21T12:26:11Z</time>
      </trkpt>
      <trkpt lat="44.40043592825532" lon="5.723378984257579">
        <ele>660.20001220703125</ele>
        <time>2011-06-21T12:26:24Z</time>
      </trkpt>
      <trkpt lat="44.399961931630969" lon="5.723824985325337">
        <ele>659.4000244140625</ele>
        <time>2011-06-21T12:26:32Z</time>
      </trkpt>
      <trkpt lat="44.399630930274725" lon="5.724270986393094">
        <ele>658.79998779296875</ele>
        <time>2011-06-21T12:26:38Z</time>
      </trkpt>
      <trkpt lat="44.39925592392683" lon="5.724918991327286">
        <ele>658.4000244140625</ele>
        <time>2011-06-21T12:26:46Z</time>
      </trkpt>
      <trkpt lat="44.398880917578936" lon="5.725452918559313">
        <ele>658.20001220703125</ele>
        <time>2011-06-21T12:26:54Z</time>
      </trkpt>
      <trkpt lat="44.398249927908182" lon="5.7263049390167">
        <ele>658.20001220703125</ele>
        <time>2011-06-21T12:27:08Z</time>
      </trkpt>
      <trkpt lat="44.397841980680823" lon="5.726887984201312">
        <ele>658</ele>
        <time>2011-06-21T12:27:18Z</time>
      </trkpt>
      <trkpt lat="44.39729992300272" lon="5.727598937228322">
        <ele>658</ele>
        <time>2011-06-21T12:27:31Z</time>
      </trkpt>
      <trkpt lat="44.396883929148316" lon="5.728097995743156">
        <ele>657.79998779296875</ele>
        <time>2011-06-21T12:27:41Z</time>
      </trkpt>
      <trkpt lat="44.396182950586081" lon="5.728900982066989">
        <ele>657.4000244140625</ele>
        <time>2011-06-21T12:27:58Z</time>
      </trkpt>
      <trkpt lat="44.395818924531341" lon="5.729281939566135">
        <ele>657</ele>
        <time>2011-06-21T12:28:06Z</time>
      </trkpt>
      <trkpt lat="44.395153988152742" lon="5.729764988645911">
        <ele>654.20001220703125</ele>
        <time>2011-06-21T12:28:16Z</time>
      </trkpt>
      <trkpt lat="44.394714944064617" lon="5.729928938671947">
        <ele>653</ele>
        <time>2011-06-21T12:28:21Z</time>
      </trkpt>
      <trkpt lat="44.394179927185178" lon="5.730273937806487">
        <ele>651.4000244140625</ele>
        <time>2011-06-21T12:28:27Z</time>
      </trkpt>
      <trkpt lat="44.39371095970273" lon="5.730497986078262">
        <ele>650.20001220703125</ele>
        <time>2011-06-21T12:28:32Z</time>
      </trkpt>
      <trkpt lat="44.393000928685069" lon="5.730749946087599">
        <ele>649</ele>
        <time>2011-06-21T12:28:40Z</time>
      </trkpt>
      <trkpt lat="44.392447974532843" lon="5.73092395439744">
        <ele>648.5999755859375</ele>
        <time>2011-06-21T12:28:47Z</time>
      </trkpt>
      <trkpt lat="44.391808938235044" lon="5.730750951915979">
        <ele>647.79998779296875</ele>
        <time>2011-06-21T12:28:56Z</time>
      </trkpt>
      <trkpt lat="44.391127992421389" lon="5.730138989165425">
        <ele>647.20001220703125</ele>
        <time>2011-06-21T12:29:08Z</time>
      </trkpt>
      <trkpt lat="44.390644943341613" lon="5.729940924793482">
        <ele>647.5999755859375</ele>
        <time>2011-06-21T12:29:17Z</time>
      </trkpt>
      <trkpt lat="44.389915969222784" lon="5.730216940864921">
        <ele>646</ele>
        <time>2011-06-21T12:29:29Z</time>
      </trkpt>
      <trkpt lat="44.389529982581735" lon="5.730568980798125">
        <ele>644</ele>
        <time>2011-06-21T12:29:35Z</time>
      </trkpt>
      <trkpt lat="44.3886389862746" lon="5.731305917724967">
        <ele>642.20001220703125</ele>
        <time>2011-06-21T12:29:49Z</time>
      </trkpt>
      <trkpt lat="44.388218969106674" lon="5.731536922976375">
        <ele>642.20001220703125</ele>
        <time>2011-06-21T12:29:55Z</time>
      </trkpt>
      <trkpt lat="44.387684958055615" lon="5.731921987608075">
        <ele>641.5999755859375</ele>
        <time>2011-06-21T12:30:03Z</time>
      </trkpt>
      <trkpt lat="44.387164944782853" lon="5.73233999311924">
        <ele>641</ele>
        <time>2011-06-21T12:30:11Z</time>
      </trkpt>
      <trkpt lat="44.386628922075033" lon="5.732736960053444">
        <ele>640.4000244140625</ele>
        <time>2011-06-21T12:30:19Z</time>
      </trkpt>
      <trkpt lat="44.386042943224311" lon="5.733125964179635">
        <ele>640.20001220703125</ele>
        <time>2011-06-21T12:30:28Z</time>
      </trkpt>
      <trkpt lat="44.385315980762243" lon="5.733503988012672">
        <ele>642.5999755859375</ele>
        <time>2011-06-21T12:30:42Z</time>
      </trkpt>
      <trkpt lat="44.384752968326211" lon="5.733550926670432">
        <ele>646.5999755859375</ele>
        <time>2011-06-21T12:30:56Z</time>
      </trkpt>
      <trkpt lat="44.384372932836413" lon="5.734066916629672">
        <ele>649.20001220703125</ele>
        <time>2011-06-21T12:33:23Z</time>
      </trkpt>
      <trkpt lat="44.38378594815731" lon="5.734199937433004">
        <ele>649.20001220703125</ele>
        <time>2011-06-21T12:33:45Z</time>
      </trkpt>
      <trkpt lat="44.383056974038482" lon="5.734063982963562">
        <ele>647.4000244140625</ele>
        <time>2011-06-21T12:33:58Z</time>
      </trkpt>
      <trkpt lat="44.382528997957706" lon="5.73399399407208">
        <ele>646</ele>
        <time>2011-06-21T12:34:05Z</time>
      </trkpt>
      <trkpt lat="44.381828941404819" lon="5.733877988532186">
        <ele>644.4000244140625</ele>
        <time>2011-06-21T12:34:13Z</time>
      </trkpt>
      <trkpt lat="44.381179930642247" lon="5.733784949406982">
        <ele>645</ele>
        <time>2011-06-21T12:34:21Z</time>
      </trkpt>
      <trkpt lat="44.380700988695025" lon="5.733750918880105">
        <ele>645.5999755859375</ele>
        <time>2011-06-21T12:34:28Z</time>
      </trkpt>
      <trkpt lat="44.379842933267355" lon="5.733535923063755">
        <ele>646.4000244140625</ele>
        <time>2011-06-21T12:34:43Z</time>
      </trkpt>
      <trkpt lat="44.379150923341513" lon="5.733923921361566">
        <ele>644.20001220703125</ele>
        <time>2011-06-21T12:34:55Z</time>
      </trkpt>
      <trkpt lat="44.378629988059402" lon="5.734523981809616">
        <ele>643.20001220703125</ele>
        <time>2011-06-21T12:35:04Z</time>
      </trkpt>
      <trkpt lat="44.378092959523201" lon="5.735136950388551">
        <ele>642.79998779296875</ele>
        <time>2011-06-21T12:35:14Z</time>
      </trkpt>
      <trkpt lat="44.377632960677147" lon="5.735674984753132">
        <ele>642.20001220703125</ele>
        <time>2011-06-21T12:35:23Z</time>
      </trkpt>
      <trkpt lat="44.377202969044447" lon="5.736097935587168">
        <ele>641.4000244140625</ele>
        <time>2011-06-21T12:35:31Z</time>
      </trkpt>
      <trkpt lat="44.376403922215104" lon="5.73655198328197">
        <ele>641.4000244140625</ele>
        <time>2011-06-21T12:35:45Z</time>
      </trkpt>
      <trkpt lat="44.375679977238178" lon="5.736941993236542">
        <ele>640.20001220703125</ele>
        <time>2011-06-21T12:35:57Z</time>
      </trkpt>
      <trkpt lat="44.375345958396792" lon="5.737380953505635">
        <ele>639.79998779296875</ele>
        <time>2011-06-21T12:36:04Z</time>
      </trkpt>
      <trkpt lat="44.374791998416185" lon="5.737753948196769">
        <ele>638.5999755859375</ele>
        <time>2011-06-21T12:36:13Z</time>
      </trkpt>
      <trkpt lat="44.373948946595192" lon="5.738285947591066">
        <ele>639.20001220703125</ele>
        <time>2011-06-21T12:36:27Z</time>
      </trkpt>
      <trkpt lat="44.373334972187877" lon="5.738625917583704">
        <ele>638.4000244140625</ele>
        <time>2011-06-21T12:36:37Z</time>
      </trkpt>
      <trkpt lat="44.372805990278721" lon="5.738778971135616">
        <ele>637.5999755859375</ele>
        <time>2011-06-21T12:36:45Z</time>
      </trkpt>
      <trkpt lat="44.372136946767569" lon="5.738966977223754">
        <ele>635.5999755859375</ele>
        <time>2011-06-21T12:36:54Z</time>
      </trkpt>
      <trkpt lat="44.371652975678444" lon="5.739301918074489">
        <ele>634</ele>
        <time>2011-06-21T12:37:01Z</time>
      </trkpt>
      <trkpt lat="44.371171938255429" lon="5.740253934636712">
        <ele>633.79998779296875</ele>
        <time>2011-06-21T12:37:13Z</time>
      </trkpt>
      <trkpt lat="44.370724931359291" lon="5.741128921508789">
        <ele>635</ele>
        <time>2011-06-21T12:37:28Z</time>
      </trkpt>
      <trkpt lat="44.370100982487202" lon="5.742213958874345">
        <ele>633.79998779296875</ele>
        <time>2011-06-21T12:37:46Z</time>
      </trkpt>
      <trkpt lat="44.369391957297921" lon="5.742636993527412">
        <ele>632.79998779296875</ele>
        <time>2011-06-21T12:37:59Z</time>
      </trkpt>
      <trkpt lat="44.368660971522331" lon="5.742894988507032">
        <ele>632.4000244140625</ele>
        <time>2011-06-21T12:38:12Z</time>
      </trkpt>
      <trkpt lat="44.367997962981462" lon="5.743229929357767">
        <ele>632.5999755859375</ele>
        <time>2011-06-21T12:38:25Z</time>
      </trkpt>
      <trkpt lat="44.36766897328198" lon="5.743849938735366">
        <ele>632.20001220703125</ele>
        <time>2011-06-21T12:38:34Z</time>
      </trkpt>
      <trkpt lat="44.366976963356137" lon="5.744337933138013">
        <ele>631.20001220703125</ele>
        <time>2011-06-21T12:38:47Z</time>
      </trkpt>
      <trkpt lat="44.366568932309747" lon="5.7446079980582">
        <ele>631.4000244140625</ele>
        <time>2011-06-21T12:38:55Z</time>
      </trkpt>
      <trkpt lat="44.366146987304091" lon="5.745039917528629">
        <ele>630.79998779296875</ele>
        <time>2011-06-21T12:39:04Z</time>
      </trkpt>
      <trkpt lat="44.365731999278069" lon="5.74549094773829">
        <ele>630.5999755859375</ele>
        <time>2011-06-21T12:39:13Z</time>
      </trkpt>
      <trkpt lat="44.365281974896789" lon="5.745973996818066">
        <ele>630.4000244140625</ele>
        <time>2011-06-21T12:39:23Z</time>
      </trkpt>
      <trkpt lat="44.364589964970946" lon="5.746504990383983">
        <ele>629</ele>
        <time>2011-06-21T12:39:39Z</time>
      </trkpt>
      <trkpt lat="44.363869959488511" lon="5.747009916231036">
        <ele>628</ele>
        <time>2011-06-21T12:39:55Z</time>
      </trkpt>
      <trkpt lat="44.36317996121943" lon="5.747549962252379">
        <ele>628</ele>
        <time>2011-06-21T12:40:11Z</time>
      </trkpt>
      <trkpt lat="44.362812917679548" lon="5.747965956106782">
        <ele>627.4000244140625</ele>
        <time>2011-06-21T12:40:20Z</time>
      </trkpt>
      <trkpt lat="44.362188968807459" lon="5.748595939949155">
        <ele>626</ele>
        <time>2011-06-21T12:40:33Z</time>
      </trkpt>
      <trkpt lat="44.361526966094971" lon="5.749201951548457">
        <ele>626.20001220703125</ele>
        <time>2011-06-21T12:40:47Z</time>
      </trkpt>
      <trkpt lat="44.360916931182146" lon="5.749703943729401">
        <ele>626</ele>
        <time>2011-06-21T12:40:59Z</time>
      </trkpt>
      <trkpt lat="44.360501943156123" lon="5.750015918165445">
        <ele>626</ele>
        <time>2011-06-21T12:41:07Z</time>
      </trkpt>
      <trkpt lat="44.360084943473339" lon="5.750295957550407">
        <ele>625.20001220703125</ele>
        <time>2011-06-21T12:41:15Z</time>
      </trkpt>
      <trkpt lat="44.359621927142143" lon="5.750618996098638">
        <ele>624.5999755859375</ele>
        <time>2011-06-21T12:41:24Z</time>
      </trkpt>
      <trkpt lat="44.358981968834996" lon="5.751200951635838">
        <ele>624.5999755859375</ele>
        <time>2011-06-21T12:41:38Z</time>
      </trkpt>
      <trkpt lat="44.358578966930509" lon="5.751504963263869">
        <ele>624</ele>
        <time>2011-06-21T12:41:46Z</time>
      </trkpt>
      <trkpt lat="44.357877988368273" lon="5.751816937699914">
        <ele>623.79998779296875</ele>
        <time>2011-06-21T12:42:00Z</time>
      </trkpt>
      <trkpt lat="44.357316987589002" lon="5.752055989578366">
        <ele>622.4000244140625</ele>
        <time>2011-06-21T12:42:10Z</time>
      </trkpt>
      <trkpt lat="44.356869980692863" lon="5.752540966495872">
        <ele>623.79998779296875</ele>
        <time>2011-06-21T12:42:22Z</time>
      </trkpt>
      <trkpt lat="44.356170929968357" lon="5.753271952271462">
        <ele>622.4000244140625</ele>
        <time>2011-06-21T12:42:36Z</time>
      </trkpt>
      <trkpt lat="44.355710931122303" lon="5.753513937816024">
        <ele>621.20001220703125</ele>
        <time>2011-06-21T12:42:43Z</time>
      </trkpt>
      <trkpt lat="44.3552949372679" lon="5.753792971372604">
        <ele>620</ele>
        <time>2011-06-21T12:42:49Z</time>
      </trkpt>
      <trkpt lat="44.35479898005724" lon="5.754139982163906">
        <ele>617.5999755859375</ele>
        <time>2011-06-21T12:42:55Z</time>
      </trkpt>
      <trkpt lat="44.354386925697327" lon="5.754525968804956">
        <ele>616.20001220703125</ele>
        <time>2011-06-21T12:43:00Z</time>
      </trkpt>
      <trkpt lat="44.353906977921724" lon="5.754904998466373">
        <ele>614.79998779296875</ele>
        <time>2011-06-21T12:43:06Z</time>
      </trkpt>
      <trkpt lat="44.353362992405891" lon="5.755256954580545">
        <ele>614</ele>
        <time>2011-06-21T12:43:13Z</time>
      </trkpt>
      <trkpt lat="44.352860916405916" lon="5.755534982308745">
        <ele>613</ele>
        <time>2011-06-21T12:43:20Z</time>
      </trkpt>
      <trkpt lat="44.352216934785247" lon="5.755977965891361">
        <ele>612.20001220703125</ele>
        <time>2011-06-21T12:43:30Z</time>
      </trkpt>
      <trkpt lat="44.351691976189613" lon="5.756428996101022">
        <ele>612</ele>
        <time>2011-06-21T12:43:39Z</time>
      </trkpt>
      <trkpt lat="44.351239940151572" lon="5.756901986896992">
        <ele>611.5999755859375</ele>
        <time>2011-06-21T12:43:48Z</time>
      </trkpt>
      <trkpt lat="44.350472996011376" lon="5.757647976279259">
        <ele>611.5999755859375</ele>
        <time>2011-06-21T12:44:05Z</time>
      </trkpt>
      <trkpt lat="44.349674955010414" lon="5.758265974000096">
        <ele>610.4000244140625</ele>
        <time>2011-06-21T12:44:22Z</time>
      </trkpt>
      <trkpt lat="44.349182937294245" lon="5.758702922612429">
        <ele>609.79998779296875</ele>
        <time>2011-06-21T12:44:33Z</time>
      </trkpt>
      <trkpt lat="44.348622942343354" lon="5.759102990850806">
        <ele>609.20001220703125</ele>
        <time>2011-06-21T12:44:48Z</time>
      </trkpt>
      <trkpt lat="44.348082980141044" lon="5.759546980261803">
        <ele>609</ele>
        <time>2011-06-21T12:45:02Z</time>
      </trkpt>
      <trkpt lat="44.347394993528724" lon="5.76001594774425">
        <ele>609</ele>
        <time>2011-06-21T12:45:18Z</time>
      </trkpt>
      <trkpt lat="44.346858970820904" lon="5.760528920218349">
        <ele>610</ele>
        <time>2011-06-21T12:45:33Z</time>
      </trkpt>
      <trkpt lat="44.3461839761585" lon="5.760864950716496">
        <ele>612.5999755859375</ele>
        <time>2011-06-21T12:45:56Z</time>
      </trkpt>
      <trkpt lat="44.345765970647335" lon="5.761160999536514">
        <ele>614.79998779296875</ele>
        <time>2011-06-21T12:46:14Z</time>
      </trkpt>
      <trkpt lat="44.34532793238759" lon="5.76147397980094">
        <ele>616.20001220703125</ele>
        <time>2011-06-21T12:46:31Z</time>
      </trkpt>
      <trkpt lat="44.344912944361567" lon="5.761832976713777">
        <ele>616.20001220703125</ele>
        <time>2011-06-21T12:46:47Z</time>
      </trkpt>
      <trkpt lat="44.344441965222359" lon="5.762078985571861">
        <ele>614.79998779296875</ele>
        <time>2011-06-21T12:46:59Z</time>
      </trkpt>
      <trkpt lat="44.343854980543256" lon="5.761981923133135">
        <ele>612</ele>
        <time>2011-06-21T12:47:09Z</time>
      </trkpt>
      <trkpt lat="44.343092981725931" lon="5.76160691678524">
        <ele>609.4000244140625</ele>
        <time>2011-06-21T12:47:20Z</time>
      </trkpt>
      <trkpt lat="44.342653937637806" lon="5.761450929567218">
        <ele>610</ele>
        <time>2011-06-21T12:47:27Z</time>
      </trkpt>
      <trkpt lat="44.342109952121973" lon="5.761413965374231">
        <ele>612.4000244140625</ele>
        <time>2011-06-21T12:47:40Z</time>
      </trkpt>
      <trkpt lat="44.341527996584773" lon="5.760977938771248">
        <ele>616.5999755859375</ele>
        <time>2011-06-21T12:48:03Z</time>
      </trkpt>
      <trkpt lat="44.341202946379781" lon="5.760342925786972">
        <ele>617.20001220703125</ele>
        <time>2011-06-21T12:48:19Z</time>
      </trkpt>
      <trkpt lat="44.340850990265608" lon="5.759749989956617">
        <ele>617.4000244140625</ele>
        <time>2011-06-21T12:48:32Z</time>
      </trkpt>
      <trkpt lat="44.340208936482668" lon="5.759302983060479">
        <ele>617.5999755859375</ele>
        <time>2011-06-21T12:48:49Z</time>
      </trkpt>
      <trkpt lat="44.339795960113406" lon="5.758907943964005">
        <ele>616.4000244140625</ele>
        <time>2011-06-21T12:49:01Z</time>
      </trkpt>
      <trkpt lat="44.339429922401905" lon="5.758458925411105">
        <ele>616.20001220703125</ele>
        <time>2011-06-21T12:49:12Z</time>
      </trkpt>
      <trkpt lat="44.338868921622634" lon="5.758272930979729">
        <ele>617.4000244140625</ele>
        <time>2011-06-21T12:49:27Z</time>
      </trkpt>
      <trkpt lat="44.338174983859062" lon="5.757697932422161">
        <ele>616.4000244140625</ele>
        <time>2011-06-21T12:49:45Z</time>
      </trkpt>
      <trkpt lat="44.337448943406343" lon="5.756915984675288">
        <ele>617</ele>
        <time>2011-06-21T12:50:02Z</time>
      </trkpt>
      <trkpt lat="44.337119953706861" lon="5.756486998870969">
        <ele>617.20001220703125</ele>
        <time>2011-06-21T12:50:10Z</time>
      </trkpt>
      <trkpt lat="44.33688391931355" lon="5.755935972556472">
        <ele>616.79998779296875</ele>
        <time>2011-06-21T12:50:17Z</time>
      </trkpt>
      <trkpt lat="44.336557947099209" lon="5.755122927948833">
        <ele>617.20001220703125</ele>
        <time>2011-06-21T12:50:27Z</time>
      </trkpt>
      <trkpt lat="44.335870966315269" lon="5.754461931064725">
        <ele>618.20001220703125</ele>
        <time>2011-06-21T12:50:41Z</time>
      </trkpt>
      <trkpt lat="44.335371991619468" lon="5.753903947770596">
        <ele>620.5999755859375</ele>
        <time>2011-06-21T12:50:56Z</time>
      </trkpt>
      <trkpt lat="44.335005953907967" lon="5.753466999158263">
        <ele>622.5999755859375</ele>
        <time>2011-06-21T12:51:10Z</time>
      </trkpt>
      <trkpt lat="44.334448976442218" lon="5.752840954810381">
        <ele>625.20001220703125</ele>
        <time>2011-06-21T12:51:31Z</time>
      </trkpt>
      <trkpt lat="44.334048992022872" lon="5.752477934584022">
        <ele>625.79998779296875</ele>
        <time>2011-06-21T12:51:43Z</time>
      </trkpt>
      <trkpt lat="44.33348597958684" lon="5.752037968486548">
        <ele>626.20001220703125</ele>
        <time>2011-06-21T12:51:57Z</time>
      </trkpt>
      <trkpt lat="44.332645945250988" lon="5.751443943008781">
        <ele>625.4000244140625</ele>
        <time>2011-06-21T12:52:13Z</time>
      </trkpt>
      <trkpt lat="44.332149988040328" lon="5.751094920560718">
        <ele>626.20001220703125</ele>
        <time>2011-06-21T12:52:22Z</time>
      </trkpt>
      <trkpt lat="44.331588987261057" lon="5.750694936141372">
        <ele>628.4000244140625</ele>
        <time>2011-06-21T12:52:36Z</time>
      </trkpt>
      <trkpt lat="44.331152960658073" lon="5.750112980604172">
        <ele>630.4000244140625</ele>
        <time>2011-06-21T12:52:51Z</time>
      </trkpt>
      <trkpt lat="44.330761944875121" lon="5.749157946556807">
        <ele>631.4000244140625</ele>
        <time>2011-06-21T12:53:09Z</time>
      </trkpt>
      <trkpt lat="44.330196920782328" lon="5.748272985219955">
        <ele>632</ele>
        <time>2011-06-21T12:53:27Z</time>
      </trkpt>
      <trkpt lat="44.329552939161658" lon="5.747587932273746">
        <ele>632.4000244140625</ele>
        <time>2011-06-21T12:53:43Z</time>
      </trkpt>
      <trkpt lat="44.329129988327622" lon="5.747162969782949">
        <ele>632.79998779296875</ele>
        <time>2011-06-21T12:53:53Z</time>
      </trkpt>
      <trkpt lat="44.328518947586417" lon="5.746495937928557">
        <ele>634.4000244140625</ele>
        <time>2011-06-21T12:54:09Z</time>
      </trkpt>
      <trkpt lat="44.328008992597461" lon="5.745960921049118">
        <ele>634.5999755859375</ele>
        <time>2011-06-21T12:54:25Z</time>
      </trkpt>
      <trkpt lat="44.32714993134141" lon="5.745395980775356">
        <ele>635.20001220703125</ele>
        <time>2011-06-21T12:54:45Z</time>
      </trkpt>
      <trkpt lat="44.326607957482338" lon="5.744824921712279">
        <ele>637.79998779296875</ele>
        <time>2011-06-21T12:55:03Z</time>
      </trkpt>
      <trkpt lat="44.326127925887704" lon="5.744127966463566">
        <ele>639.4000244140625</ele>
        <time>2011-06-21T12:55:22Z</time>
      </trkpt>
      <trkpt lat="44.325616965070367" lon="5.743400920182467">
        <ele>640.20001220703125</ele>
        <time>2011-06-21T12:55:41Z</time>
      </trkpt>
      <trkpt lat="44.325013970956206" lon="5.74267596937716">
        <ele>640.79998779296875</ele>
        <time>2011-06-21T12:55:59Z</time>
      </trkpt>
      <trkpt lat="44.324487922713161" lon="5.741916988044977">
        <ele>640.79998779296875</ele>
        <time>2011-06-21T12:56:15Z</time>
      </trkpt>
      <trkpt lat="44.32390496134758" lon="5.740812923759222">
        <ele>638.79998779296875</ele>
        <time>2011-06-21T12:56:29Z</time>
      </trkpt>
      <trkpt lat="44.323570942506194" lon="5.740185957401991">
        <ele>639.20001220703125</ele>
        <time>2011-06-21T12:56:37Z</time>
      </trkpt>
      <trkpt lat="44.323209933936596" lon="5.739500988274813">
        <ele>641.5999755859375</ele>
        <time>2011-06-21T12:56:50Z</time>
      </trkpt>
      <trkpt lat="44.322817996144295" lon="5.73855098336935">
        <ele>643.79998779296875</ele>
        <time>2011-06-21T12:57:11Z</time>
      </trkpt>
      <trkpt lat="44.322515996173024" lon="5.737717989832163">
        <ele>644.79998779296875</ele>
        <time>2011-06-21T12:57:29Z</time>
      </trkpt>
      <trkpt lat="44.322243919596076" lon="5.736922966316342">
        <ele>645.4000244140625</ele>
        <time>2011-06-21T12:57:47Z</time>
      </trkpt>
      <trkpt lat="44.322043927386403" lon="5.736394990235567">
        <ele>645.20001220703125</ele>
        <time>2011-06-21T13:01:09Z</time>
      </trkpt>
      <trkpt lat="44.321844941005111" lon="5.735809933394194">
        <ele>645.79998779296875</ele>
        <time>2011-06-21T13:01:23Z</time>
      </trkpt>
      <trkpt lat="44.321595998480916" lon="5.735056987032294">
        <ele>646.79998779296875</ele>
        <time>2011-06-21T13:01:40Z</time>
      </trkpt>
      <trkpt lat="44.321341942995787" lon="5.734345950186253">
        <ele>647.4000244140625</ele>
        <time>2011-06-21T13:04:40Z</time>
      </trkpt>
      <trkpt lat="44.321034997701645" lon="5.73343894444406">
        <ele>647.5999755859375</ele>
        <time>2011-06-21T13:04:57Z</time>
      </trkpt>
      <trkpt lat="44.320710953325033" lon="5.732254916802049">
        <ele>647.4000244140625</ele>
        <time>2011-06-21T13:05:13Z</time>
      </trkpt>
      <trkpt lat="44.320536945015192" lon="5.730939963832498">
        <ele>648.20001220703125</ele>
        <time>2011-06-21T13:05:31Z</time>
      </trkpt>
      <trkpt lat="44.320416999980807" lon="5.730025917291641">
        <ele>648.4000244140625</ele>
        <time>2011-06-21T13:05:44Z</time>
      </trkpt>
      <trkpt lat="44.320257995277643" lon="5.728833926841617">
        <ele>649.20001220703125</ele>
        <time>2011-06-21T13:06:02Z</time>
      </trkpt>
      <trkpt lat="44.320104941725731" lon="5.727623999118805">
        <ele>651.20001220703125</ele>
        <time>2011-06-21T13:06:21Z</time>
      </trkpt>
      <trkpt lat="44.319972926750779" lon="5.726604927331209">
        <ele>653.20001220703125</ele>
        <time>2011-06-21T13:06:39Z</time>
      </trkpt>
      <trkpt lat="44.319793973118067" lon="5.725472951307893">
        <ele>654.4000244140625</ele>
        <time>2011-06-21T13:06:59Z</time>
      </trkpt>
      <trkpt lat="44.31937295012176" lon="5.72452194057405">
        <ele>655.20001220703125</ele>
        <time>2011-06-21T13:07:16Z</time>
      </trkpt>
      <trkpt lat="44.318926949054003" lon="5.72357595898211">
        <ele>656.79998779296875</ele>
        <time>2011-06-21T13:07:35Z</time>
      </trkpt>
      <trkpt lat="44.318670965731144" lon="5.722656967118383">
        <ele>657.79998779296875</ele>
        <time>2011-06-21T13:07:52Z</time>
      </trkpt>
      <trkpt lat="44.318411964923143" lon="5.721494983881712">
        <ele>658.79998779296875</ele>
        <time>2011-06-21T13:08:12Z</time>
      </trkpt>
      <trkpt lat="44.318226976320148" lon="5.72086893953383">
        <ele>659.4000244140625</ele>
        <time>2011-06-21T13:08:23Z</time>
      </trkpt>
      <trkpt lat="44.317905949428678" lon="5.719868978485465">
        <ele>660.4000244140625</ele>
        <time>2011-06-21T13:08:41Z</time>
      </trkpt>
      <trkpt lat="44.317622976377606" lon="5.718841943889856">
        <ele>660.79998779296875</ele>
        <time>2011-06-21T13:08:57Z</time>
      </trkpt>
      <trkpt lat="44.317523986101151" lon="5.717680966481566">
        <ele>662.5999755859375</ele>
        <time>2011-06-21T13:09:15Z</time>
      </trkpt>
      <trkpt lat="44.317338997498155" lon="5.716765997931361">
        <ele>663.4000244140625</ele>
        <time>2011-06-21T13:09:31Z</time>
      </trkpt>
      <trkpt lat="44.316976983100176" lon="5.716201979666948">
        <ele>663.20001220703125</ele>
        <time>2011-06-21T13:09:42Z</time>
      </trkpt>
      <trkpt lat="44.31645093485713" lon="5.71496095508337">
        <ele>662.79998779296875</ele>
        <time>2011-06-21T13:10:01Z</time>
      </trkpt>
      <trkpt lat="44.316196963191032" lon="5.714278919622302">
        <ele>663</ele>
        <time>2011-06-21T13:10:11Z</time>
      </trkpt>
      <trkpt lat="44.315936956554651" lon="5.7132429163903">
        <ele>664.79998779296875</ele>
        <time>2011-06-21T13:10:27Z</time>
      </trkpt>
      <trkpt lat="44.315766971558332" lon="5.71231797337532">
        <ele>667</ele>
        <time>2011-06-21T13:10:45Z</time>
      </trkpt>
      <trkpt lat="44.315574942156672" lon="5.711326980963349">
        <ele>668.5999755859375</ele>
        <time>2011-06-21T13:11:02Z</time>
      </trkpt>
      <trkpt lat="44.315362963825464" lon="5.710579985752702">
        <ele>670.79998779296875</ele>
        <time>2011-06-21T13:11:17Z</time>
      </trkpt>
      <trkpt lat="44.315370926633477" lon="5.709581952542067">
        <ele>672</ele>
        <time>2011-06-21T13:11:35Z</time>
      </trkpt>
      <trkpt lat="44.315490955486894" lon="5.708955992013216">
        <ele>672.5999755859375</ele>
        <time>2011-06-21T13:11:45Z</time>
      </trkpt>
      <trkpt lat="44.315629927441478" lon="5.707969944924116">
        <ele>674.4000244140625</ele>
        <time>2011-06-21T13:12:02Z</time>
      </trkpt>
      <trkpt lat="44.315593969076872" lon="5.707108955830336">
        <ele>677.20001220703125</ele>
        <time>2011-06-21T13:12:19Z</time>
      </trkpt>
      <trkpt lat="44.315427923575044" lon="5.706342933699489">
        <ele>679.79998779296875</ele>
        <time>2011-06-21T13:12:36Z</time>
      </trkpt>
      <trkpt lat="44.315108992159367" lon="5.705770952627063">
        <ele>681.5999755859375</ele>
        <time>2011-06-21T13:12:51Z</time>
      </trkpt>
      <trkpt lat="44.314865916967392" lon="5.704927984625101">
        <ele>683</ele>
        <time>2011-06-21T13:13:08Z</time>
      </trkpt>
      <trkpt lat="44.314743960276246" lon="5.704319961369038">
        <ele>684</ele>
        <time>2011-06-21T13:13:19Z</time>
      </trkpt>
      <trkpt lat="44.314334923401475" lon="5.703364927321672">
        <ele>685.5999755859375</ele>
        <time>2011-06-21T13:13:38Z</time>
      </trkpt>
      <trkpt lat="44.314233921468258" lon="5.702208979055286">
        <ele>688.79998779296875</ele>
        <time>2011-06-21T13:13:59Z</time>
      </trkpt>
      <trkpt lat="44.314036946743727" lon="5.70138193666935">
        <ele>691</ele>
        <time>2011-06-21T13:14:15Z</time>
      </trkpt>
      <trkpt lat="44.313761936500669" lon="5.700589930638671">
        <ele>693</ele>
        <time>2011-06-21T13:14:32Z</time>
      </trkpt>
      <trkpt lat="44.313603937625885" lon="5.699752997606993">
        <ele>693</ele>
        <time>2011-06-21T13:14:47Z</time>
      </trkpt>
      <trkpt lat="44.313394976779819" lon="5.698819924145937">
        <ele>692</ele>
        <time>2011-06-21T13:14:59Z</time>
      </trkpt>
      <trkpt lat="44.313233960419893" lon="5.697938986122608">
        <ele>691.4000244140625</ele>
        <time>2011-06-21T13:15:11Z</time>
      </trkpt>
      <trkpt lat="44.313238989561796" lon="5.697206994518638">
        <ele>691.79998779296875</ele>
        <time>2011-06-21T13:15:20Z</time>
      </trkpt>
      <trkpt lat="44.313274947926402" lon="5.69650199264288">
        <ele>691.79998779296875</ele>
        <time>2011-06-21T13:15:29Z</time>
      </trkpt>
      <trkpt lat="44.313336974009871" lon="5.695534972473979">
        <ele>692.4000244140625</ele>
        <time>2011-06-21T13:15:44Z</time>
      </trkpt>
      <trkpt lat="44.313520956784487" lon="5.694620925933123">
        <ele>691.4000244140625</ele>
        <time>2011-06-21T13:15:58Z</time>
      </trkpt>
      <trkpt lat="44.313560938462615" lon="5.693938974291086">
        <ele>690.79998779296875</ele>
        <time>2011-06-21T13:16:07Z</time>
      </trkpt>
      <trkpt lat="44.313493967056274" lon="5.692876987159252">
        <ele>689.4000244140625</ele>
        <time>2011-06-21T13:16:21Z</time>
      </trkpt>
      <trkpt lat="44.312996920198202" lon="5.692100990563631">
        <ele>686.79998779296875</ele>
        <time>2011-06-21T13:16:36Z</time>
      </trkpt>
      <trkpt lat="44.312752922996879" lon="5.691204965114594">
        <ele>686</ele>
        <time>2011-06-21T13:16:47Z</time>
      </trkpt>
      <trkpt lat="44.312752922996879" lon="5.690543968230486">
        <ele>686.5999755859375</ele>
        <time>2011-06-21T13:16:56Z</time>
      </trkpt>
      <trkpt lat="44.312879992648959" lon="5.6897799577564">
        <ele>688.20001220703125</ele>
        <time>2011-06-21T13:17:08Z</time>
      </trkpt>
      <trkpt lat="44.313202947378159" lon="5.689039919525385">
        <ele>688.4000244140625</ele>
        <time>2011-06-21T13:17:22Z</time>
      </trkpt>
      <trkpt lat="44.313845923170447" lon="5.68861898034811">
        <ele>689.5999755859375</ele>
        <time>2011-06-21T13:17:37Z</time>
      </trkpt>
      <trkpt lat="44.314440954476595" lon="5.688206925988197">
        <ele>691</ele>
        <time>2011-06-21T13:17:51Z</time>
      </trkpt>
      <trkpt lat="44.314807998016477" lon="5.68746093660593">
        <ele>692.79998779296875</ele>
        <time>2011-06-21T13:18:07Z</time>
      </trkpt>
      <trkpt lat="44.314916962757707" lon="5.686798933893442">
        <ele>693.5999755859375</ele>
        <time>2011-06-21T13:18:18Z</time>
      </trkpt>
      <trkpt lat="44.314911933615804" lon="5.685703922063112">
        <ele>695.20001220703125</ele>
        <time>2011-06-21T13:18:36Z</time>
      </trkpt>
      <trkpt lat="44.314913945272565" lon="5.684785936027765">
        <ele>695.79998779296875</ele>
        <time>2011-06-21T13:18:51Z</time>
      </trkpt>
      <trkpt lat="44.314438942819834" lon="5.683814976364374">
        <ele>697.5999755859375</ele>
        <time>2011-06-21T13:19:10Z</time>
      </trkpt>
      <trkpt lat="44.314197963103652" lon="5.683281971141696">
        <ele>697.79998779296875</ele>
        <time>2011-06-21T13:19:19Z</time>
      </trkpt>
      <trkpt lat="44.314019931480289" lon="5.682684928178787">
        <ele>698.4000244140625</ele>
        <time>2011-06-21T13:19:30Z</time>
      </trkpt>
      <trkpt lat="44.314017919823527" lon="5.68150894716382">
        <ele>699.79998779296875</ele>
        <time>2011-06-21T13:19:49Z</time>
      </trkpt>
      <trkpt lat="44.314103918150067" lon="5.680234981700778">
        <ele>699.5999755859375</ele>
        <time>2011-06-21T13:20:07Z</time>
      </trkpt>
      <trkpt lat="44.314104923978448" lon="5.679560992866755">
        <ele>699.4000244140625</ele>
        <time>2011-06-21T13:20:15Z</time>
      </trkpt>
      <trkpt lat="44.314112970605493" lon="5.6788419932127">
        <ele>699.5999755859375</ele>
        <time>2011-06-21T13:20:24Z</time>
      </trkpt>
      <trkpt lat="44.3140849750489" lon="5.678111929446459">
        <ele>700.20001220703125</ele>
        <time>2011-06-21T13:20:33Z</time>
      </trkpt>
      <trkpt lat="44.313994953408837" lon="5.676946928724647">
        <ele>701.20001220703125</ele>
        <time>2011-06-21T13:20:50Z</time>
      </trkpt>
      <trkpt lat="44.313932927325368" lon="5.676231952384114">
        <ele>701</ele>
        <time>2011-06-21T13:20:59Z</time>
      </trkpt>
      <trkpt lat="44.313839972019196" lon="5.675519993528724">
        <ele>701.4000244140625</ele>
        <time>2011-06-21T13:21:08Z</time>
      </trkpt>
      <trkpt lat="44.313540989533067" lon="5.674656992778182">
        <ele>703.4000244140625</ele>
        <time>2011-06-21T13:21:22Z</time>
      </trkpt>
      <trkpt lat="44.313265979290009" lon="5.674131950363517">
        <ele>704.79998779296875</ele>
        <time>2011-06-21T13:21:33Z</time>
      </trkpt>
      <trkpt lat="44.312750995159149" lon="5.673241959884763">
        <ele>706.4000244140625</ele>
        <time>2011-06-21T13:21:51Z</time>
      </trkpt>
      <trkpt lat="44.31243197992444" lon="5.672799982130528">
        <ele>707.20001220703125</ele>
        <time>2011-06-21T13:22:00Z</time>
      </trkpt>
      <trkpt lat="44.312057979404926" lon="5.672330930829048">
        <ele>708.4000244140625</ele>
        <time>2011-06-21T13:22:11Z</time>
      </trkpt>
      <trkpt lat="44.311372926458716" lon="5.671748975291848">
        <ele>709.79998779296875</ele>
        <time>2011-06-21T13:22:29Z</time>
      </trkpt>
      <trkpt lat="44.310563988983631" lon="5.67121597006917">
        <ele>710.5999755859375</ele>
        <time>2011-06-21T13:22:48Z</time>
      </trkpt>
      <trkpt lat="44.309921935200691" lon="5.670522954314947">
        <ele>711</ele>
        <time>2011-06-21T13:23:05Z</time>
      </trkpt>
      <trkpt lat="44.309415919706225" lon="5.669652996584773">
        <ele>712.79998779296875</ele>
        <time>2011-06-21T13:23:24Z</time>
      </trkpt>
      <trkpt lat="44.308905964717269" lon="5.668806927278638">
        <ele>714.5999755859375</ele>
        <time>2011-06-21T13:23:43Z</time>
      </trkpt>
      <trkpt lat="44.308369942009449" lon="5.668155988678336">
        <ele>716.5999755859375</ele>
        <time>2011-06-21T13:24:01Z</time>
      </trkpt>
      <trkpt lat="44.307845989242196" lon="5.667621977627277">
        <ele>717.20001220703125</ele>
        <time>2011-06-21T13:24:17Z</time>
      </trkpt>
      <trkpt lat="44.307193960994482" lon="5.667204977944493">
        <ele>717.20001220703125</ele>
        <time>2011-06-21T13:24:32Z</time>
      </trkpt>
      <trkpt lat="44.306720970198512" lon="5.666950922459364">
        <ele>717.20001220703125</ele>
        <time>2011-06-21T13:24:42Z</time>
      </trkpt>
      <trkpt lat="44.306354932487011" lon="5.666398974135518">
        <ele>717</ele>
        <time>2011-06-21T13:28:03Z</time>
      </trkpt>
      <trkpt lat="44.305938938632607" lon="5.665912991389632">
        <ele>718</ele>
        <time>2011-06-21T13:28:17Z</time>
      </trkpt>
      <trkpt lat="44.305418925359845" lon="5.665446957573295">
        <ele>718.79998779296875</ele>
        <time>2011-06-21T13:28:33Z</time>
      </trkpt>
      <trkpt lat="44.30473999120295" lon="5.665453998371959">
        <ele>718.5999755859375</ele>
        <time>2011-06-21T13:28:47Z</time>
      </trkpt>
      <trkpt lat="44.304154934361577" lon="5.665436983108521">
        <ele>719.5999755859375</ele>
        <time>2011-06-21T13:28:59Z</time>
      </trkpt>
      <trkpt lat="44.303491925820708" lon="5.664890985935926">
        <ele>721.79998779296875</ele>
        <time>2011-06-21T13:29:17Z</time>
      </trkpt>
      <trkpt lat="44.303083978593349" lon="5.664399974048138">
        <ele>723.5999755859375</ele>
        <time>2011-06-21T13:29:31Z</time>
      </trkpt>
      <trkpt lat="44.302874933928251" lon="5.663568992167711">
        <ele>725.5999755859375</ele>
        <time>2011-06-21T13:29:47Z</time>
      </trkpt>
      <trkpt lat="44.30276395753026" lon="5.662876982241869">
        <ele>728</ele>
        <time>2011-06-21T13:30:02Z</time>
      </trkpt>
      <trkpt lat="44.302342934533954" lon="5.66199797205627">
        <ele>731</ele>
        <time>2011-06-21T13:30:25Z</time>
      </trkpt>
      <trkpt lat="44.301974968984723" lon="5.661314930766821">
        <ele>732.79998779296875</ele>
        <time>2011-06-21T13:30:42Z</time>
      </trkpt>
      <trkpt lat="44.301680931821465" lon="5.660427957773209">
        <ele>734</ele>
        <time>2011-06-21T13:31:01Z</time>
      </trkpt>
      <trkpt lat="44.301564926281571" lon="5.659821946173906">
        <ele>735</ele>
        <time>2011-06-21T13:31:12Z</time>
      </trkpt>
      <trkpt lat="44.301206935197115" lon="5.659047961235046">
        <ele>736.5999755859375</ele>
        <time>2011-06-21T13:31:28Z</time>
      </trkpt>
      <trkpt lat="44.300969978794456" lon="5.658458964899182">
        <ele>738.20001220703125</ele>
        <time>2011-06-21T13:31:40Z</time>
      </trkpt>
      <trkpt lat="44.300617938861251" lon="5.657456992194057">
        <ele>740.79998779296875</ele>
        <time>2011-06-21T13:31:59Z</time>
      </trkpt>
      <trkpt lat="44.300283920019865" lon="5.65641294233501">
        <ele>743.20001220703125</ele>
        <time>2011-06-21T13:32:19Z</time>
      </trkpt>
      <trkpt lat="44.299900950863957" lon="5.655468972399831">
        <ele>744.79998779296875</ele>
        <time>2011-06-21T13:32:37Z</time>
      </trkpt>
      <trkpt lat="44.299526950344443" lon="5.654536988586187">
        <ele>746.5999755859375</ele>
        <time>2011-06-21T13:32:55Z</time>
      </trkpt>
      <trkpt lat="44.299295945093036" lon="5.653966935351491">
        <ele>747.4000244140625</ele>
        <time>2011-06-21T13:33:06Z</time>
      </trkpt>
      <trkpt lat="44.298923956230283" lon="5.653058923780918">
        <ele>749.5999755859375</ele>
        <time>2011-06-21T13:33:24Z</time>
      </trkpt>
      <trkpt lat="44.2985759396106" lon="5.652252919971943">
        <ele>751.4000244140625</ele>
        <time>2011-06-21T13:33:40Z</time>
      </trkpt>
      <trkpt lat="44.298302941024303" lon="5.651659984141588">
        <ele>752.5999755859375</ele>
        <time>2011-06-21T13:33:51Z</time>
      </trkpt>
      <trkpt lat="44.297892982140183" lon="5.650670919567347">
        <ele>753.5999755859375</ele>
        <time>2011-06-21T13:34:08Z</time>
      </trkpt>
      <trkpt lat="44.297426948323846" lon="5.649568950757384">
        <ele>754.4000244140625</ele>
        <time>2011-06-21T13:34:27Z</time>
      </trkpt>
      <trkpt lat="44.297047918662429" lon="5.648685917258263">
        <ele>755.20001220703125</ele>
        <time>2011-06-21T13:34:44Z</time>
      </trkpt>
      <trkpt lat="44.296775925904512" lon="5.64788393676281">
        <ele>755.79998779296875</ele>
        <time>2011-06-21T13:35:01Z</time>
      </trkpt>
      <trkpt lat="44.296766957268119" lon="5.647255964577198">
        <ele>755.4000244140625</ele>
        <time>2011-06-21T13:35:15Z</time>
      </trkpt>
      <trkpt lat="44.296786990016699" lon="5.647099977359176">
        <ele>756.4000244140625</ele>
        <time>2011-06-22T07:26:12Z</time>
      </trkpt>
      <trkpt lat="44.296301929280162" lon="5.646248962730169">
        <ele>756.4000244140625</ele>
        <time>2011-06-22T07:26:53Z</time>
      </trkpt>
      <trkpt lat="44.29610294289887" lon="5.645468942821026">
        <ele>756.4000244140625</ele>
        <time>2011-06-22T07:27:08Z</time>
      </trkpt>
      <trkpt lat="44.295824998989701" lon="5.644303942099214">
        <ele>756.4000244140625</ele>
        <time>2011-06-22T07:27:29Z</time>
      </trkpt>
      <trkpt lat="44.295601956546307" lon="5.643690973520279">
        <ele>760.5999755859375</ele>
        <time>2011-06-22T07:27:41Z</time>
      </trkpt>
      <trkpt lat="44.295282941311598" lon="5.643012961372733">
        <ele>760.5999755859375</ele>
        <time>2011-06-22T07:27:56Z</time>
      </trkpt>
      <trkpt lat="44.294790923595428" lon="5.642131939530373">
        <ele>759.5999755859375</ele>
        <time>2011-06-22T07:28:11Z</time>
      </trkpt>
      <trkpt lat="44.294559918344021" lon="5.641462979838252">
        <ele>759</ele>
        <time>2011-06-22T07:28:21Z</time>
      </trkpt>
      <trkpt lat="44.294367972761393" lon="5.640351958572865">
        <ele>757.79998779296875</ele>
        <time>2011-06-22T07:28:35Z</time>
      </trkpt>
      <trkpt lat="44.294136967509985" lon="5.63980495557189">
        <ele>757.79998779296875</ele>
        <time>2011-06-22T07:28:43Z</time>
      </trkpt>
      <trkpt lat="44.293658947572112" lon="5.639151921495795">
        <ele>757.5999755859375</ele>
        <time>2011-06-22T07:28:56Z</time>
      </trkpt>
      <trkpt lat="44.293026952072978" lon="5.63827995210886">
        <ele>757.79998779296875</ele>
        <time>2011-06-22T07:29:14Z</time>
      </trkpt>
      <trkpt lat="44.292748924344778" lon="5.637389961630106">
        <ele>758.4000244140625</ele>
        <time>2011-06-22T07:29:29Z</time>
      </trkpt>
      <trkpt lat="44.292756970971823" lon="5.636735921725631">
        <ele>759</ele>
        <time>2011-06-22T07:29:39Z</time>
      </trkpt>
      <trkpt lat="44.292472992092371" lon="5.636029997840524">
        <ele>758.5999755859375</ele>
        <time>2011-06-22T07:33:04Z</time>
      </trkpt>
      <trkpt lat="44.292015926912427" lon="5.635252995416522">
        <ele>759.5999755859375</ele>
        <time>2011-06-22T07:33:18Z</time>
      </trkpt>
      <trkpt lat="44.291671933606267" lon="5.634424947202206">
        <ele>760.20001220703125</ele>
        <time>2011-06-22T07:33:31Z</time>
      </trkpt>
      <trkpt lat="44.29152793250978" lon="5.633476953953505">
        <ele>761.5999755859375</ele>
        <time>2011-06-22T07:33:45Z</time>
      </trkpt>
      <trkpt lat="44.291491974145174" lon="5.632349923253059">
        <ele>762.4000244140625</ele>
        <time>2011-06-22T07:34:01Z</time>
      </trkpt>
      <trkpt lat="44.291592976078391" lon="5.631681969389319">
        <ele>763.4000244140625</ele>
        <time>2011-06-22T07:34:11Z</time>
      </trkpt>
      <trkpt lat="44.291559951379895" lon="5.630570948123932">
        <ele>766</ele>
        <time>2011-06-22T07:34:29Z</time>
      </trkpt>
      <trkpt lat="44.29150597192347" lon="5.629933923482895">
        <ele>767.20001220703125</ele>
        <time>2011-06-22T07:34:40Z</time>
      </trkpt>
      <trkpt lat="44.291447969153523" lon="5.629304945468903">
        <ele>768.4000244140625</ele>
        <time>2011-06-22T07:34:52Z</time>
      </trkpt>
      <trkpt lat="44.291248982772231" lon="5.628518974408507">
        <ele>769.5999755859375</ele>
        <time>2011-06-22T07:35:07Z</time>
      </trkpt>
      <trkpt lat="44.290810944512486" lon="5.62783794477582">
        <ele>771.4000244140625</ele>
        <time>2011-06-22T07:35:24Z</time>
      </trkpt>
      <trkpt lat="44.290441973134875" lon="5.626997994259">
        <ele>772.20001220703125</ele>
        <time>2011-06-22T07:35:40Z</time>
      </trkpt>
      <trkpt lat="44.290208956226707" lon="5.6264419388026">
        <ele>772.20001220703125</ele>
        <time>2011-06-22T07:35:49Z</time>
      </trkpt>
      <trkpt lat="44.289940986782312" lon="5.62577398493886">
        <ele>772.79998779296875</ele>
        <time>2011-06-22T07:36:00Z</time>
      </trkpt>
      <trkpt lat="44.289691960439086" lon="5.624774945899844">
        <ele>773.4000244140625</ele>
        <time>2011-06-22T07:36:16Z</time>
      </trkpt>
      <trkpt lat="44.289460955187678" lon="5.623745983466506">
        <ele>774.4000244140625</ele>
        <time>2011-06-22T07:36:32Z</time>
      </trkpt>
      <trkpt lat="44.289315948262811" lon="5.623141983523965">
        <ele>774.79998779296875</ele>
        <time>2011-06-22T07:36:42Z</time>
      </trkpt>
      <trkpt lat="44.289065999910235" lon="5.622002966701984">
        <ele>776.20001220703125</ele>
        <time>2011-06-22T07:37:01Z</time>
      </trkpt>
      <trkpt lat="44.288967931643128" lon="5.620849952101708">
        <ele>778.5999755859375</ele>
        <time>2011-06-22T07:37:21Z</time>
      </trkpt>
      <trkpt lat="44.289190974086523" lon="5.619956944137812">
        <ele>780.79998779296875</ele>
        <time>2011-06-22T07:37:37Z</time>
      </trkpt>
      <trkpt lat="44.289523987099528" lon="5.619514966383576">
        <ele>781.79998779296875</ele>
        <time>2011-06-22T07:37:47Z</time>
      </trkpt>
      <trkpt lat="44.29038698785007" lon="5.618807952851057">
        <ele>782.5999755859375</ele>
        <time>2011-06-22T07:38:05Z</time>
      </trkpt>
      <trkpt lat="44.290788983926177" lon="5.618489943444729">
        <ele>783.5999755859375</ele>
        <time>2011-06-22T07:38:14Z</time>
      </trkpt>
      <trkpt lat="44.2914819996804" lon="5.617946963757277">
        <ele>785</ele>
        <time>2011-06-22T07:38:31Z</time>
      </trkpt>
      <trkpt lat="44.291992960497737" lon="5.617532981559634">
        <ele>786</ele>
        <time>2011-06-22T07:38:44Z</time>
      </trkpt>
      <trkpt lat="44.292294960469007" lon="5.616841977462173">
        <ele>787.5999755859375</ele>
        <time>2011-06-22T07:38:58Z</time>
      </trkpt>
      <trkpt lat="44.292528983205557" lon="5.615857942029834">
        <ele>788.5999755859375</ele>
        <time>2011-06-22T07:39:15Z</time>
      </trkpt>
      <trkpt lat="44.292674995958805" lon="5.615181941539049">
        <ele>789.20001220703125</ele>
        <time>2011-06-22T07:39:26Z</time>
      </trkpt>
      <trkpt lat="44.292746996507049" lon="5.614052983000875">
        <ele>790.5999755859375</ele>
        <time>2011-06-22T07:39:44Z</time>
      </trkpt>
      <trkpt lat="44.292730987071991" lon="5.613111946731806">
        <ele>792.4000244140625</ele>
        <time>2011-06-22T07:40:00Z</time>
      </trkpt>
      <trkpt lat="44.292726963758469" lon="5.612407950684428">
        <ele>792.5999755859375</ele>
        <time>2011-06-22T07:40:11Z</time>
      </trkpt>
      <trkpt lat="44.292712965980172" lon="5.611621979624033">
        <ele>792.5999755859375</ele>
        <time>2011-06-22T07:40:22Z</time>
      </trkpt>
      <trkpt lat="44.292559996247292" lon="5.61034994199872">
        <ele>793.20001220703125</ele>
        <time>2011-06-22T07:40:40Z</time>
      </trkpt>
      <trkpt lat="44.292468968778849" lon="5.609676958993077">
        <ele>793.79998779296875</ele>
        <time>2011-06-22T07:40:50Z</time>
      </trkpt>
      <trkpt lat="44.292309964075685" lon="5.608449932187796">
        <ele>795.4000244140625</ele>
        <time>2011-06-22T07:41:10Z</time>
      </trkpt>
      <trkpt lat="44.292175937443972" lon="5.60734293423593">
        <ele>797.5999755859375</ele>
        <time>2011-06-22T07:41:28Z</time>
      </trkpt>
      <trkpt lat="44.2922159191221" lon="5.606407932937145">
        <ele>800.5999755859375</ele>
        <time>2011-06-22T07:41:46Z</time>
      </trkpt>
      <trkpt lat="44.292331924661994" lon="5.605764957144857">
        <ele>803.20001220703125</ele>
        <time>2011-06-22T07:42:01Z</time>
      </trkpt>
      <trkpt lat="44.292508950456977" lon="5.604899944737554">
        <ele>804.4000244140625</ele>
        <time>2011-06-22T07:42:18Z</time>
      </trkpt>
      <trkpt lat="44.29247198626399" lon="5.60409595258534">
        <ele>805.5999755859375</ele>
        <time>2011-06-22T07:42:32Z</time>
      </trkpt>
      <trkpt lat="44.292312981560826" lon="5.603294977918267">
        <ele>807.4000244140625</ele>
        <time>2011-06-22T07:42:47Z</time>
      </trkpt>
      <trkpt lat="44.292071918025613" lon="5.602288981899619">
        <ele>808.79998779296875</ele>
        <time>2011-06-22T07:43:05Z</time>
      </trkpt>
      <trkpt lat="44.291814928874373" lon="5.601723957806826">
        <ele>809.20001220703125</ele>
        <time>2011-06-22T07:43:19Z</time>
      </trkpt>
      <trkpt lat="44.291466996073723" lon="5.600997917354107">
        <ele>810.5999755859375</ele>
        <time>2011-06-22T07:44:17Z</time>
      </trkpt>
      <trkpt lat="44.291273960843682" lon="5.600173976272345">
        <ele>812.79998779296875</ele>
        <time>2011-06-22T07:44:32Z</time>
      </trkpt>
      <trkpt lat="44.29126993753016" lon="5.599370989948511">
        <ele>815.20001220703125</ele>
        <time>2011-06-22T07:44:48Z</time>
      </trkpt>
      <trkpt lat="44.291377980262041" lon="5.598522992804647">
        <ele>818.20001220703125</ele>
        <time>2011-06-22T07:45:07Z</time>
      </trkpt>
      <trkpt lat="44.291764972731471" lon="5.597727969288826">
        <ele>822</ele>
        <time>2011-06-22T07:45:32Z</time>
      </trkpt>
      <trkpt lat="44.292190941050649" lon="5.597216924652457">
        <ele>823.4000244140625</ele>
        <time>2011-06-22T07:45:50Z</time>
      </trkpt>
      <trkpt lat="44.292592937126756" lon="5.596649972721934">
        <ele>822.79998779296875</ele>
        <time>2011-06-22T07:46:05Z</time>
      </trkpt>
      <trkpt lat="44.292770968750119" lon="5.596079919487238">
        <ele>822.79998779296875</ele>
        <time>2011-06-22T07:46:19Z</time>
      </trkpt>
      <trkpt lat="44.292350951582193" lon="5.595769956707954">
        <ele>824</ele>
        <time>2011-06-22T07:46:34Z</time>
      </trkpt>
      <trkpt lat="44.291819958016276" lon="5.595582956448197">
        <ele>822.4000244140625</ele>
        <time>2011-06-22T07:46:44Z</time>
      </trkpt>
      <trkpt lat="44.291284941136837" lon="5.595971960574389">
        <ele>821.20001220703125</ele>
        <time>2011-06-22T07:46:54Z</time>
      </trkpt>
      <trkpt lat="44.290837934240699" lon="5.5967709235847">
        <ele>819.20001220703125</ele>
        <time>2011-06-22T07:47:04Z</time>
      </trkpt>
      <trkpt lat="44.290446918457747" lon="5.59711198322475">
        <ele>818.79998779296875</ele>
        <time>2011-06-22T07:47:12Z</time>
      </trkpt>
      <trkpt lat="44.289972921833396" lon="5.596855999901891">
        <ele>820</ele>
        <time>2011-06-22T07:47:23Z</time>
      </trkpt>
      <trkpt lat="44.28940094076097" lon="5.596571937203407">
        <ele>822.20001220703125</ele>
        <time>2011-06-22T07:47:38Z</time>
      </trkpt>
      <trkpt lat="44.288827953860164" lon="5.596623988822103">
        <ele>825.20001220703125</ele>
        <time>2011-06-22T07:47:56Z</time>
      </trkpt>
      <trkpt lat="44.288379941135645" lon="5.596831943839788">
        <ele>829.20001220703125</ele>
        <time>2011-06-22T07:48:15Z</time>
      </trkpt>
      <trkpt lat="44.288025973364711" lon="5.596399940550327">
        <ele>833.20001220703125</ele>
        <time>2011-06-22T07:48:34Z</time>
      </trkpt>
      <trkpt lat="44.287644932046533" lon="5.595788983628154">
        <ele>837.20001220703125</ele>
        <time>2011-06-22T07:48:57Z</time>
      </trkpt>
      <trkpt lat="44.287327928468585" lon="5.595103930681944">
        <ele>841.20001220703125</ele>
        <time>2011-06-22T07:49:22Z</time>
      </trkpt>
      <trkpt lat="44.286755947396159" lon="5.594870997592807">
        <ele>845.79998779296875</ele>
        <time>2011-06-22T07:49:49Z</time>
      </trkpt>
      <trkpt lat="44.286146918311715" lon="5.594809977337718">
        <ele>850.4000244140625</ele>
        <time>2011-06-22T07:50:16Z</time>
      </trkpt>
      <trkpt lat="44.285942986607552" lon="5.594970993697643">
        <ele>854.20001220703125</ele>
        <time>2011-06-22T07:50:37Z</time>
      </trkpt>
      <trkpt lat="44.286634996533394" lon="5.595118934288621">
        <ele>856.79998779296875</ele>
        <time>2011-06-22T07:50:59Z</time>
      </trkpt>
      <trkpt lat="44.28703892044723" lon="5.595557978376746">
        <ele>859.4000244140625</ele>
        <time>2011-06-22T07:51:16Z</time>
      </trkpt>
      <trkpt lat="44.286841945722699" lon="5.59621294029057">
        <ele>863.4000244140625</ele>
        <time>2011-06-22T07:51:36Z</time>
      </trkpt>
      <trkpt lat="44.286874970421195" lon="5.596831943839788">
        <ele>866.20001220703125</ele>
        <time>2011-06-22T07:51:52Z</time>
      </trkpt>
      <trkpt lat="44.287022994831204" lon="5.597475925460458">
        <ele>869.5999755859375</ele>
        <time>2011-06-22T07:52:09Z</time>
      </trkpt>
      <trkpt lat="44.286759970709682" lon="5.59715498238802">
        <ele>872.79998779296875</ele>
        <time>2011-06-22T07:52:25Z</time>
      </trkpt>
      <trkpt lat="44.28647993132472" lon="5.596615942195058">
        <ele>876.4000244140625</ele>
        <time>2011-06-22T07:52:42Z</time>
      </trkpt>
      <trkpt lat="44.285972993820906" lon="5.596130965277553">
        <ele>881.5999755859375</ele>
        <time>2011-06-22T07:53:08Z</time>
      </trkpt>
      <trkpt lat="44.2855329439044" lon="5.595702985301614">
        <ele>886.4000244140625</ele>
        <time>2011-06-22T07:53:34Z</time>
      </trkpt>
      <trkpt lat="44.284955933690071" lon="5.59580298140645">
        <ele>892</ele>
        <time>2011-06-22T07:54:03Z</time>
      </trkpt>
      <trkpt lat="44.284479925408959" lon="5.595970954746008">
        <ele>896.4000244140625</ele>
        <time>2011-06-22T07:54:26Z</time>
      </trkpt>
      <trkpt lat="44.2839649412781" lon="5.596114955842495">
        <ele>900.79998779296875</ele>
        <time>2011-06-22T07:54:50Z</time>
      </trkpt>
      <trkpt lat="44.283414920791984" lon="5.596027951687574">
        <ele>905.20001220703125</ele>
        <time>2011-06-22T07:55:15Z</time>
      </trkpt>
      <trkpt lat="44.282812932506204" lon="5.595982940867543">
        <ele>910</ele>
        <time>2011-06-22T07:55:42Z</time>
      </trkpt>
      <trkpt lat="44.28250296972692" lon="5.596526926383376">
        <ele>914.20001220703125</ele>
        <time>2011-06-22T07:56:05Z</time>
      </trkpt>
      <trkpt lat="44.282151935622096" lon="5.597045933827758">
        <ele>918.4000244140625</ele>
        <time>2011-06-22T07:56:28Z</time>
      </trkpt>
      <trkpt lat="44.28170895203948" lon="5.597576927393675">
        <ele>922.20001220703125</ele>
        <time>2011-06-22T07:56:53Z</time>
      </trkpt>
      <trkpt lat="44.281213916838169" lon="5.598063999786973">
        <ele>926.5999755859375</ele>
        <time>2011-06-22T07:57:23Z</time>
      </trkpt>
      <trkpt lat="44.280773950740695" lon="5.59837999753654">
        <ele>930</ele>
        <time>2011-06-22T07:57:45Z</time>
      </trkpt>
      <trkpt lat="44.280403973534703" lon="5.598788950592279">
        <ele>933.79998779296875</ele>
        <time>2011-06-22T07:58:07Z</time>
      </trkpt>
      <trkpt lat="44.279976999387145" lon="5.599077958613634">
        <ele>937.4000244140625</ele>
        <time>2011-06-22T07:58:31Z</time>
      </trkpt>
      <trkpt lat="44.279831992462277" lon="5.599674917757511">
        <ele>940.5999755859375</ele>
        <time>2011-06-22T07:58:50Z</time>
      </trkpt>
      <trkpt lat="44.279584977775812" lon="5.600313954055309">
        <ele>943.79998779296875</ele>
        <time>2011-06-22T07:59:12Z</time>
      </trkpt>
      <trkpt lat="44.279053984209895" lon="5.600581923499703">
        <ele>947.5999755859375</ele>
        <time>2011-06-22T07:59:36Z</time>
      </trkpt>
      <trkpt lat="44.278510920703411" lon="5.601129932329059">
        <ele>951.4000244140625</ele>
        <time>2011-06-22T08:00:02Z</time>
      </trkpt>
      <trkpt lat="44.278050921857357" lon="5.601328918710351">
        <ele>954.4000244140625</ele>
        <time>2011-06-22T08:00:22Z</time>
      </trkpt>
      <trkpt lat="44.277600981295109" lon="5.601299917325378">
        <ele>956.5999755859375</ele>
        <time>2011-06-22T08:00:39Z</time>
      </trkpt>
      <trkpt lat="44.277110975235701" lon="5.601676935330033">
        <ele>960.4000244140625</ele>
        <time>2011-06-22T08:01:02Z</time>
      </trkpt>
      <trkpt lat="44.277189932763577" lon="5.602198960259557">
        <ele>963.20001220703125</ele>
        <time>2011-06-22T08:01:20Z</time>
      </trkpt>
      <trkpt lat="44.277364946901798" lon="5.602640938013792">
        <ele>966.4000244140625</ele>
        <time>2011-06-22T08:01:37Z</time>
      </trkpt>
      <trkpt lat="44.277164954692125" lon="5.603165980428457">
        <ele>969.5999755859375</ele>
        <time>2011-06-22T08:01:56Z</time>
      </trkpt>
      <trkpt lat="44.277211977168918" lon="5.603921944275498">
        <ele>973.4000244140625</ele>
        <time>2011-06-22T08:02:21Z</time>
      </trkpt>
      <trkpt lat="44.277022965252399" lon="5.60448294505477">
        <ele>976.5999755859375</ele>
        <time>2011-06-22T08:02:38Z</time>
      </trkpt>
      <trkpt lat="44.276526924222708" lon="5.604730965569615">
        <ele>980.79998779296875</ele>
        <time>2011-06-22T08:03:01Z</time>
      </trkpt>
      <trkpt lat="44.275924935936928" lon="5.604712944477797">
        <ele>984.79998779296875</ele>
        <time>2011-06-22T08:03:27Z</time>
      </trkpt>
      <trkpt lat="44.275398971512914" lon="5.604441957548261">
        <ele>989</ele>
        <time>2011-06-22T08:03:55Z</time>
      </trkpt>
      <trkpt lat="44.275159919634461" lon="5.604352941736579">
        <ele>994.5999755859375</ele>
        <time>2011-06-22T08:07:45Z</time>
      </trkpt>
      <trkpt lat="44.275119937956333" lon="5.604944955557585">
        <ele>997.5999755859375</ele>
        <time>2011-06-22T08:08:22Z</time>
      </trkpt>
      <trkpt lat="44.274888932704926" lon="5.605755988508463">
        <ele>1002.2000122070312</ele>
        <time>2011-06-22T08:08:49Z</time>
      </trkpt>
      <trkpt lat="44.274524990469217" lon="5.606217999011278">
        <ele>1006.5999755859375</ele>
        <time>2011-06-22T08:09:12Z</time>
      </trkpt>
      <trkpt lat="44.274282921105623" lon="5.606697946786881">
        <ele>1009.5999755859375</ele>
        <time>2011-06-22T08:09:32Z</time>
      </trkpt>
      <trkpt lat="44.273942951112986" lon="5.607135985046625">
        <ele>1013.5999755859375</ele>
        <time>2011-06-22T08:09:55Z</time>
      </trkpt>
      <trkpt lat="44.273344986140728" lon="5.607462963089347">
        <ele>1018.5999755859375</ele>
        <time>2011-06-22T08:10:28Z</time>
      </trkpt>
      <trkpt lat="44.273099983111024" lon="5.608109962195158">
        <ele>1022.5999755859375</ele>
        <time>2011-06-22T08:10:51Z</time>
      </trkpt>
      <trkpt lat="44.273207942023873" lon="5.608642967417836">
        <ele>1026.5999755859375</ele>
        <time>2011-06-22T08:11:13Z</time>
      </trkpt>
      <trkpt lat="44.272933937609196" lon="5.60916499234736">
        <ele>1030.5999755859375</ele>
        <time>2011-06-22T08:11:36Z</time>
      </trkpt>
      <trkpt lat="44.272564966231585" lon="5.609675953164697">
        <ele>1035.4000244140625</ele>
        <time>2011-06-22T08:12:02Z</time>
      </trkpt>
      <trkpt lat="44.272010922431946" lon="5.609893966466188">
        <ele>1040</ele>
        <time>2011-06-22T08:12:29Z</time>
      </trkpt>
      <trkpt lat="44.271488981321454" lon="5.61017794534564">
        <ele>1044.199951171875</ele>
        <time>2011-06-22T08:12:56Z</time>
      </trkpt>
      <trkpt lat="44.271023953333497" lon="5.610422948375344">
        <ele>1048.4000244140625</ele>
        <time>2011-06-22T08:13:21Z</time>
      </trkpt>
      <trkpt lat="44.270576946437359" lon="5.610630987212062">
        <ele>1052.199951171875</ele>
        <time>2011-06-22T08:13:44Z</time>
      </trkpt>
      <trkpt lat="44.270115941762924" lon="5.610814969986677">
        <ele>1056.199951171875</ele>
        <time>2011-06-22T08:14:08Z</time>
      </trkpt>
      <trkpt lat="44.2696319706738" lon="5.61122895218432">
        <ele>1060.4000244140625</ele>
        <time>2011-06-22T08:14:35Z</time>
      </trkpt>
      <trkpt lat="44.269153950735927" lon="5.611694986000657">
        <ele>1065.199951171875</ele>
        <time>2011-06-22T08:15:02Z</time>
      </trkpt>
      <trkpt lat="44.26868892274797" lon="5.612068986520171">
        <ele>1070.4000244140625</ele>
        <time>2011-06-22T08:15:27Z</time>
      </trkpt>
      <trkpt lat="44.268272928893566" lon="5.61251699924469">
        <ele>1075.4000244140625</ele>
        <time>2011-06-22T08:15:53Z</time>
      </trkpt>
      <trkpt lat="44.267895994707942" lon="5.613169949501753">
        <ele>1080.199951171875</ele>
        <time>2011-06-22T08:16:21Z</time>
      </trkpt>
      <trkpt lat="44.267535991966724" lon="5.613610921427608">
        <ele>1084.5999755859375</ele>
        <time>2011-06-22T08:16:43Z</time>
      </trkpt>
      <trkpt lat="44.267100971192122" lon="5.614074943587184">
        <ele>1089</ele>
        <time>2011-06-22T08:17:09Z</time>
      </trkpt>
      <trkpt lat="44.266602918505669" lon="5.614511976018548">
        <ele>1093.4000244140625</ele>
        <time>2011-06-22T08:17:37Z</time>
      </trkpt>
      <trkpt lat="44.266097992658615" lon="5.615005921572447">
        <ele>1098.800048828125</ele>
        <time>2011-06-22T08:18:09Z</time>
      </trkpt>
      <trkpt lat="44.265810996294022" lon="5.615575974807143">
        <ele>1103</ele>
        <time>2011-06-22T08:18:34Z</time>
      </trkpt>
      <trkpt lat="44.265630953013897" lon="5.616266978904605">
        <ele>1107</ele>
        <time>2011-06-22T08:18:57Z</time>
      </trkpt>
      <trkpt lat="44.265495920553803" lon="5.616961922496557">
        <ele>1110.4000244140625</ele>
        <time>2011-06-22T08:19:20Z</time>
      </trkpt>
      <trkpt lat="44.265544954687357" lon="5.617804974317551">
        <ele>1113.5999755859375</ele>
        <time>2011-06-22T08:19:42Z</time>
      </trkpt>
      <trkpt lat="44.265068946406245" lon="5.618076967075467">
        <ele>1118.199951171875</ele>
        <time>2011-06-22T08:20:04Z</time>
      </trkpt>
      <trkpt lat="44.264656975865364" lon="5.618589939549565">
        <ele>1122.4000244140625</ele>
        <time>2011-06-22T08:20:30Z</time>
      </trkpt>
      <trkpt lat="44.264392945915461" lon="5.619298964738846">
        <ele>1127.800048828125</ele>
        <time>2011-06-22T08:21:57Z</time>
      </trkpt>
      <trkpt lat="44.264174932613969" lon="5.619854936376214">
        <ele>1131</ele>
        <time>2011-06-22T08:22:14Z</time>
      </trkpt>
      <trkpt lat="44.263661960139871" lon="5.620330944657326">
        <ele>1135.5999755859375</ele>
        <time>2011-06-22T08:22:38Z</time>
      </trkpt>
      <trkpt lat="44.263206990435719" lon="5.620773928239942">
        <ele>1139.4000244140625</ele>
        <time>2011-06-22T08:22:58Z</time>
      </trkpt>
      <trkpt lat="44.262839946895838" lon="5.621215989813209">
        <ele>1143</ele>
        <time>2011-06-22T08:23:17Z</time>
      </trkpt>
      <trkpt lat="44.262475920841098" lon="5.621860977262259">
        <ele>1147.199951171875</ele>
        <time>2011-06-22T08:23:41Z</time>
      </trkpt>
      <trkpt lat="44.262018939480186" lon="5.621761986985803">
        <ele>1149.5999755859375</ele>
        <time>2011-06-22T08:28:19Z</time>
      </trkpt>
      <trkpt lat="44.261894971132278" lon="5.621516983956099">
        <ele>1145.199951171875</ele>
        <time>2011-06-22T08:28:35Z</time>
      </trkpt>
      <trkpt lat="44.26230694167316" lon="5.620988924056292">
        <ele>1141.4000244140625</ele>
        <time>2011-06-22T08:28:49Z</time>
      </trkpt>
      <trkpt lat="44.262299984693527" lon="5.620313929393888">
        <ele>1137.800048828125</ele>
        <time>2011-06-22T08:28:58Z</time>
      </trkpt>
      <trkpt lat="44.262064956128597" lon="5.619465932250023">
        <ele>1133</ele>
        <time>2011-06-22T08:29:09Z</time>
      </trkpt>
      <trkpt lat="44.261908968910575" lon="5.618646936491132">
        <ele>1128.800048828125</ele>
        <time>2011-06-22T08:29:19Z</time>
      </trkpt>
      <trkpt lat="44.261707970872521" lon="5.61808492988348">
        <ele>1124.5999755859375</ele>
        <time>2011-06-22T08:29:26Z</time>
      </trkpt>
      <trkpt lat="44.261238919571042" lon="5.617405995726585">
        <ele>1119.800048828125</ele>
        <time>2011-06-22T08:29:36Z</time>
      </trkpt>
      <trkpt lat="44.260726952925324" lon="5.617097960785031">
        <ele>1114.199951171875</ele>
        <time>2011-06-22T08:29:45Z</time>
      </trkpt>
      <trkpt lat="44.260311964899302" lon="5.616689929738641">
        <ele>1109.800048828125</ele>
        <time>2011-06-22T08:29:55Z</time>
      </trkpt>
      <trkpt lat="44.259703941643238" lon="5.616250969469547">
        <ele>1104</ele>
        <time>2011-06-22T08:30:07Z</time>
      </trkpt>
      <trkpt lat="44.258959963917732" lon="5.616680961102247">
        <ele>1097.800048828125</ele>
        <time>2011-06-22T08:30:22Z</time>
      </trkpt>
      <trkpt lat="44.258369961753488" lon="5.616967957466841">
        <ele>1093</ele>
        <time>2011-06-22T08:30:32Z</time>
      </trkpt>
      <trkpt lat="44.257853971794248" lon="5.616951948031783">
        <ele>1089</ele>
        <time>2011-06-22T08:30:41Z</time>
      </trkpt>
      <trkpt lat="44.257945921272039" lon="5.617193933576345">
        <ele>1083.800048828125</ele>
        <time>2011-06-22T08:30:54Z</time>
      </trkpt>
      <trkpt lat="44.258507927879691" lon="5.617537926882505">
        <ele>1080.199951171875</ele>
        <time>2011-06-22T08:31:06Z</time>
      </trkpt>
      <trkpt lat="44.258958958089352" lon="5.617563994601369">
        <ele>1076</ele>
        <time>2011-06-22T08:31:14Z</time>
      </trkpt>
      <trkpt lat="44.259294988587499" lon="5.617892984300852">
        <ele>1072.800048828125</ele>
        <time>2011-06-22T08:31:23Z</time>
      </trkpt>
      <trkpt lat="44.25932097248733" lon="5.618846928700805">
        <ele>1067.4000244140625</ele>
        <time>2011-06-22T08:31:35Z</time>
      </trkpt>
      <trkpt lat="44.259478971362114" lon="5.619618985801935">
        <ele>1063.4000244140625</ele>
        <time>2011-06-22T08:31:47Z</time>
      </trkpt>
      <trkpt lat="44.259030958637595" lon="5.620266990736127">
        <ele>1057.4000244140625</ele>
        <time>2011-06-22T08:31:58Z</time>
      </trkpt>
      <trkpt lat="44.258600967004895" lon="5.621031923219562">
        <ele>1051</ele>
        <time>2011-06-22T08:32:09Z</time>
      </trkpt>
      <trkpt lat="44.258233923465014" lon="5.621404917910695">
        <ele>1046.4000244140625</ele>
        <time>2011-06-22T08:32:16Z</time>
      </trkpt>
      <trkpt lat="44.257755987346172" lon="5.621653944253922">
        <ele>1041.4000244140625</ele>
        <time>2011-06-22T08:32:24Z</time>
      </trkpt>
      <trkpt lat="44.257152993232012" lon="5.62158496119082">
        <ele>1036.5999755859375</ele>
        <time>2011-06-22T08:32:34Z</time>
      </trkpt>
      <trkpt lat="44.256847975775599" lon="5.622168928384781">
        <ele>1031.4000244140625</ele>
        <time>2011-06-22T08:32:45Z</time>
      </trkpt>
      <trkpt lat="44.256913941353559" lon="5.621423944830895">
        <ele>1026.800048828125</ele>
        <time>2011-06-22T08:32:58Z</time>
      </trkpt>
      <trkpt lat="44.257071940228343" lon="5.620753979310393">
        <ele>1022.5999755859375</ele>
        <time>2011-06-22T08:33:06Z</time>
      </trkpt>
      <trkpt lat="44.257383998483419" lon="5.619963984936476">
        <ele>1017.4000244140625</ele>
        <time>2011-06-22T08:34:46Z</time>
      </trkpt>
      <trkpt lat="44.256941936910152" lon="5.619777990505099">
        <ele>1012.5999755859375</ele>
        <time>2011-06-22T08:35:01Z</time>
      </trkpt>
      <trkpt lat="44.256358975544572" lon="5.619932971894741">
        <ele>1008</ele>
        <time>2011-06-22T08:35:10Z</time>
      </trkpt>
      <trkpt lat="44.255724968388677" lon="5.619915956631303">
        <ele>1003.4000244140625</ele>
        <time>2011-06-22T08:35:19Z</time>
      </trkpt>
      <trkpt lat="44.255038993433118" lon="5.620019976049662">
        <ele>996.20001220703125</ele>
        <time>2011-06-22T08:35:30Z</time>
      </trkpt>
      <trkpt lat="44.255534950643778" lon="5.62027595937252">
        <ele>990</ele>
        <time>2011-06-22T08:35:46Z</time>
      </trkpt>
      <trkpt lat="44.255261952057481" lon="5.620476957410574">
        <ele>987</ele>
        <time>2011-06-22T08:35:56Z</time>
      </trkpt>
      <trkpt lat="44.254613947123289" lon="5.620321976020932">
        <ele>981</ele>
        <time>2011-06-22T08:36:05Z</time>
      </trkpt>
      <trkpt lat="44.254175992682576" lon="5.620040930807591">
        <ele>977</ele>
        <time>2011-06-22T08:36:11Z</time>
      </trkpt>
      <trkpt lat="44.253701996058226" lon="5.620095999911428">
        <ele>972</ele>
        <time>2011-06-22T08:36:18Z</time>
      </trkpt>
      <trkpt lat="44.253188939765096" lon="5.620346954092383">
        <ele>968</ele>
        <time>2011-06-22T08:36:26Z</time>
      </trkpt>
      <trkpt lat="44.252567924559116" lon="5.620405962690711">
        <ele>963.4000244140625</ele>
        <time>2011-06-22T08:36:35Z</time>
      </trkpt>
      <trkpt lat="44.251714982092381" lon="5.620371932163835">
        <ele>956.5999755859375</ele>
        <time>2011-06-22T08:36:47Z</time>
      </trkpt>
      <trkpt lat="44.25111492164433" lon="5.620436975732446">
        <ele>951.20001220703125</ele>
        <time>2011-06-22T08:36:56Z</time>
      </trkpt>
      <trkpt lat="44.250720972195268" lon="5.620160959661007">
        <ele>947.20001220703125</ele>
        <time>2011-06-22T08:37:04Z</time>
      </trkpt>
      <trkpt lat="44.250491978600621" lon="5.619245991110802">
        <ele>941.79998779296875</ele>
        <time>2011-06-22T08:37:14Z</time>
      </trkpt>
      <trkpt lat="44.250549981370568" lon="5.618367986753583">
        <ele>937</ele>
        <time>2011-06-22T08:37:23Z</time>
      </trkpt>
      <trkpt lat="44.250881988555193" lon="5.617919974029064">
        <ele>933.20001220703125</ele>
        <time>2011-06-22T08:37:30Z</time>
      </trkpt>
      <trkpt lat="44.2502979375422" lon="5.617591990157962">
        <ele>927.4000244140625</ele>
        <time>2011-06-22T08:37:45Z</time>
      </trkpt>
      <trkpt lat="44.249848918989301" lon="5.617216983810067">
        <ele>923.5999755859375</ele>
        <time>2011-06-22T08:37:52Z</time>
      </trkpt>
      <trkpt lat="44.249612968415022" lon="5.616385918110609">
        <ele>919</ele>
        <time>2011-06-22T08:38:00Z</time>
      </trkpt>
      <trkpt lat="44.249750934541225" lon="5.615562982857227">
        <ele>913</ele>
        <time>2011-06-22T08:38:10Z</time>
      </trkpt>
      <trkpt lat="44.249267969280481" lon="5.61552694067359">
        <ele>909.20001220703125</ele>
        <time>2011-06-22T08:38:19Z</time>
      </trkpt>
      <trkpt lat="44.248759942129254" lon="5.615345975384116">
        <ele>904.79998779296875</ele>
        <time>2011-06-22T08:38:26Z</time>
      </trkpt>
      <trkpt lat="44.248287957161665" lon="5.614922940731049">
        <ele>900.5999755859375</ele>
        <time>2011-06-22T08:38:33Z</time>
      </trkpt>
      <trkpt lat="44.248069943860173" lon="5.614136969670653">
        <ele>894.79998779296875</ele>
        <time>2011-06-22T08:38:43Z</time>
      </trkpt>
      <trkpt lat="44.247503997758031" lon="5.613619973883033">
        <ele>889.20001220703125</ele>
        <time>2011-06-22T08:38:57Z</time>
      </trkpt>
      <trkpt lat="44.247284978628159" lon="5.612658988684416">
        <ele>884.79998779296875</ele>
        <time>2011-06-22T08:39:06Z</time>
      </trkpt>
      <trkpt lat="44.247168973088264" lon="5.611440930515528">
        <ele>878</ele>
        <time>2011-06-22T08:39:17Z</time>
      </trkpt>
      <trkpt lat="44.247145922854543" lon="5.610721930861473">
        <ele>873.5999755859375</ele>
        <time>2011-06-22T08:39:24Z</time>
      </trkpt>
      <trkpt lat="44.247047938406467" lon="5.610561920329928">
        <ele>869.4000244140625</ele>
        <time>2011-06-22T08:39:35Z</time>
      </trkpt>
      <trkpt lat="44.24696596339345" lon="5.61159691773355">
        <ele>865</ele>
        <time>2011-06-22T08:39:46Z</time>
      </trkpt>
      <trkpt lat="44.246877953410149" lon="5.612263949587941">
        <ele>861.79998779296875</ele>
        <time>2011-06-22T08:39:52Z</time>
      </trkpt>
      <trkpt lat="44.246834954246879" lon="5.612898962572217">
        <ele>858.20001220703125</ele>
        <time>2011-06-22T08:39:58Z</time>
      </trkpt>
      <trkpt lat="44.246959928423166" lon="5.613810997456312">
        <ele>853.79998779296875</ele>
        <time>2011-06-22T08:40:06Z</time>
      </trkpt>
      <trkpt lat="44.247087920084596" lon="5.614605937153101">
        <ele>848.79998779296875</ele>
        <time>2011-06-22T08:40:13Z</time>
      </trkpt>
      <trkpt lat="44.247110970318317" lon="5.61537598259747">
        <ele>843.5999755859375</ele>
        <time>2011-06-22T08:40:21Z</time>
      </trkpt>
      <trkpt lat="44.246606966480613" lon="5.615308927372098">
        <ele>840.5999755859375</ele>
        <time>2011-06-22T08:40:33Z</time>
      </trkpt>
      <trkpt lat="44.246315946802497" lon="5.614692941308022">
        <ele>838.20001220703125</ele>
        <time>2011-06-22T08:40:41Z</time>
      </trkpt>
      <trkpt lat="44.245971953496337" lon="5.613934965804219">
        <ele>835.5999755859375</ele>
        <time>2011-06-22T08:40:50Z</time>
      </trkpt>
      <trkpt lat="44.245701972395182" lon="5.613231975585222">
        <ele>832.79998779296875</ele>
        <time>2011-06-22T08:40:58Z</time>
      </trkpt>
      <trkpt lat="44.245495945215225" lon="5.612475927919149">
        <ele>829.79998779296875</ele>
        <time>2011-06-22T08:41:05Z</time>
      </trkpt>
      <trkpt lat="44.24552695825696" lon="5.611798921599984">
        <ele>827</ele>
        <time>2011-06-22T08:41:12Z</time>
      </trkpt>
      <trkpt lat="44.245038963854313" lon="5.611164998263121">
        <ele>821.5999755859375</ele>
        <time>2011-06-22T08:41:23Z</time>
      </trkpt>
      <trkpt lat="44.244677955284715" lon="5.610556975007057">
        <ele>818.5999755859375</ele>
        <time>2011-06-22T08:41:30Z</time>
      </trkpt>
      <trkpt lat="44.244020981714129" lon="5.60989597812295">
        <ele>814.4000244140625</ele>
        <time>2011-06-22T08:41:39Z</time>
      </trkpt>
      <trkpt lat="44.243592917919159" lon="5.609515942633152">
        <ele>811</ele>
        <time>2011-06-22T08:41:45Z</time>
      </trkpt>
      <trkpt lat="44.24311799928546" lon="5.609235987067223">
        <ele>807.5999755859375</ele>
        <time>2011-06-22T08:41:52Z</time>
      </trkpt>
      <trkpt lat="44.242608966305852" lon="5.608937926590443">
        <ele>803.4000244140625</ele>
        <time>2011-06-22T08:42:01Z</time>
      </trkpt>
      <trkpt lat="44.242077972739935" lon="5.608252957463265">
        <ele>799.79998779296875</ele>
        <time>2011-06-22T08:42:17Z</time>
      </trkpt>
      <trkpt lat="44.241560976952314" lon="5.608103927224875">
        <ele>797.79998779296875</ele>
        <time>2011-06-22T08:42:25Z</time>
      </trkpt>
      <trkpt lat="44.240957982838154" lon="5.608096970245242">
        <ele>795.79998779296875</ele>
        <time>2011-06-22T08:42:34Z</time>
      </trkpt>
      <trkpt lat="44.240479962900281" lon="5.608061933889985">
        <ele>794</ele>
        <time>2011-06-22T08:42:41Z</time>
      </trkpt>
      <trkpt lat="44.239878980442882" lon="5.608088923618197">
        <ele>791</ele>
        <time>2011-06-22T08:42:57Z</time>
      </trkpt>
      <trkpt lat="44.239377994090319" lon="5.607713917270303">
        <ele>788</ele>
        <time>2011-06-22T08:43:11Z</time>
      </trkpt>
      <trkpt lat="44.238863931968808" lon="5.60742599889636">
        <ele>787.20001220703125</ele>
        <time>2011-06-22T08:43:25Z</time>
      </trkpt>
      <trkpt lat="44.238362945616245" lon="5.607128944247961">
        <ele>785</ele>
        <time>2011-06-22T08:43:41Z</time>
      </trkpt>
      <trkpt lat="44.237892972305417" lon="5.606859968975186">
        <ele>776.5999755859375</ele>
        <time>2011-06-22T08:52:46Z</time>
      </trkpt>
      <trkpt lat="44.237172966822982" lon="5.606828955933452">
        <ele>774</ele>
        <time>2011-06-22T08:53:03Z</time>
      </trkpt>
      <trkpt lat="44.23671598546207" lon="5.606851922348142">
        <ele>772</ele>
        <time>2011-06-22T08:53:17Z</time>
      </trkpt>
      <trkpt lat="44.236208964139223" lon="5.606726948171854">
        <ele>772</ele>
        <time>2011-06-22T08:53:34Z</time>
      </trkpt>
      <trkpt lat="44.235850973054767" lon="5.606225961819291">
        <ele>773.5999755859375</ele>
        <time>2011-06-22T08:53:50Z</time>
      </trkpt>
      <trkpt lat="44.235721975564957" lon="5.605252990499139">
        <ele>774.20001220703125</ele>
        <time>2011-06-22T08:54:09Z</time>
      </trkpt>
      <trkpt lat="44.235403966158628" lon="5.6046989466995">
        <ele>776</ele>
        <time>2011-06-22T08:54:24Z</time>
      </trkpt>
      <trkpt lat="44.235260970890522" lon="5.603917920961976">
        <ele>779.20001220703125</ele>
        <time>2011-06-22T08:54:46Z</time>
      </trkpt>
      <trkpt lat="44.235025942325592" lon="5.602961964905262">
        <ele>782.79998779296875</ele>
        <time>2011-06-22T08:55:13Z</time>
      </trkpt>
      <trkpt lat="44.234841959550977" lon="5.602254951372743">
        <ele>785.79998779296875</ele>
        <time>2011-06-22T08:55:32Z</time>
      </trkpt>
      <trkpt lat="44.234503917396069" lon="5.601395973935723">
        <ele>790.20001220703125</ele>
        <time>2011-06-22T08:55:59Z</time>
      </trkpt>
      <trkpt lat="44.23416193574667" lon="5.600683931261301">
        <ele>790.4000244140625</ele>
        <time>2011-06-22T08:56:19Z</time>
      </trkpt>
      <trkpt lat="44.233790952712297" lon="5.600084960460663">
        <ele>787</ele>
        <time>2011-06-22T08:56:30Z</time>
      </trkpt>
      <trkpt lat="44.233428938314319" lon="5.599468974396586">
        <ele>782.79998779296875</ele>
        <time>2011-06-22T08:56:40Z</time>
      </trkpt>
      <trkpt lat="44.233035994693637" lon="5.598717955872417">
        <ele>778.5999755859375</ele>
        <time>2011-06-22T08:56:49Z</time>
      </trkpt>
      <trkpt lat="44.232661994174123" lon="5.598184950649738">
        <ele>776.4000244140625</ele>
        <time>2011-06-22T08:56:56Z</time>
      </trkpt>
      <trkpt lat="44.231944922357798" lon="5.597547926008701">
        <ele>772.20001220703125</ele>
        <time>2011-06-22T08:57:07Z</time>
      </trkpt>
      <trkpt lat="44.231643928214908" lon="5.596949961036444">
        <ele>769.79998779296875</ele>
        <time>2011-06-22T08:57:13Z</time>
      </trkpt>
      <trkpt lat="44.231270933523774" lon="5.596233978867531">
        <ele>766.79998779296875</ele>
        <time>2011-06-22T08:57:22Z</time>
      </trkpt>
      <trkpt lat="44.230716973543167" lon="5.595743972808123">
        <ele>764.79998779296875</ele>
        <time>2011-06-22T08:57:31Z</time>
      </trkpt>
      <trkpt lat="44.230209952220321" lon="5.595324961468577">
        <ele>763</ele>
        <time>2011-06-22T08:57:39Z</time>
      </trkpt>
      <trkpt lat="44.22945792786777" lon="5.59474996291101">
        <ele>761.20001220703125</ele>
        <time>2011-06-22T08:57:52Z</time>
      </trkpt>
      <trkpt lat="44.228636920452118" lon="5.594220981001854">
        <ele>758.79998779296875</ele>
        <time>2011-06-22T08:58:05Z</time>
      </trkpt>
      <trkpt lat="44.228235930204391" lon="5.593728963285685">
        <ele>757.20001220703125</ele>
        <time>2011-06-22T08:58:12Z</time>
      </trkpt>
      <trkpt lat="44.227891936898232" lon="5.593230994418263">
        <ele>756</ele>
        <time>2011-06-22T08:58:19Z</time>
      </trkpt>
      <trkpt lat="44.227439984679222" lon="5.593007951974869">
        <ele>754.5999755859375</ele>
        <time>2011-06-22T08:58:28Z</time>
      </trkpt>
      <trkpt lat="44.226803965866566" lon="5.592941986396909">
        <ele>755</ele>
        <time>2011-06-22T09:00:15Z</time>
      </trkpt>
      <trkpt lat="44.226460978388786" lon="5.592552982270718">
        <ele>754</ele>
        <time>2011-06-22T09:00:27Z</time>
      </trkpt>
      <trkpt lat="44.225807944312692" lon="5.592479975894094">
        <ele>751</ele>
        <time>2011-06-22T09:00:41Z</time>
      </trkpt>
      <trkpt lat="44.225039994344115" lon="5.592563962563872">
        <ele>749.5999755859375</ele>
        <time>2011-06-22T09:00:55Z</time>
      </trkpt>
      <trkpt lat="44.224308924749494" lon="5.592911979183555">
        <ele>749.20001220703125</ele>
        <time>2011-06-22T09:01:11Z</time>
      </trkpt>
      <trkpt lat="44.223731998354197" lon="5.593488989397883">
        <ele>748</ele>
        <time>2011-06-22T09:01:27Z</time>
      </trkpt>
      <trkpt lat="44.223228916525841" lon="5.594222992658615">
        <ele>746.5999755859375</ele>
        <time>2011-06-22T09:01:42Z</time>
      </trkpt>
      <trkpt lat="44.222735976800323" lon="5.594341931864619">
        <ele>745.5999755859375</ele>
        <time>2011-06-22T09:01:54Z</time>
      </trkpt>
      <trkpt lat="44.222254939377308" lon="5.594676956534386">
        <ele>742.5999755859375</ele>
        <time>2011-06-22T09:02:03Z</time>
      </trkpt>
      <trkpt lat="44.22193692997098" lon="5.595416994765401">
        <ele>741</ele>
        <time>2011-06-22T09:02:12Z</time>
      </trkpt>
      <trkpt lat="44.221525965258479" lon="5.595620926469564">
        <ele>737</ele>
        <time>2011-06-22T09:02:21Z</time>
      </trkpt>
      <trkpt lat="44.221314992755651" lon="5.595036959275603">
        <ele>736.20001220703125</ele>
        <time>2011-06-22T09:03:49Z</time>
      </trkpt>
      <trkpt lat="44.221129920333624" lon="5.59404194355011">
        <ele>737.5999755859375</ele>
        <time>2011-06-22T09:04:07Z</time>
      </trkpt>
      <trkpt lat="44.220995977520943" lon="5.593258989974856">
        <ele>737.5999755859375</ele>
        <time>2011-06-22T09:04:19Z</time>
      </trkpt>
      <trkpt lat="44.220849964767694" lon="5.592395989224315">
        <ele>738</ele>
        <time>2011-06-22T09:04:30Z</time>
      </trkpt>
      <trkpt lat="44.220793973654509" lon="5.59109796769917">
        <ele>740.20001220703125</ele>
        <time>2011-06-22T09:04:47Z</time>
      </trkpt>
      <trkpt lat="44.220922971144319" lon="5.590438982471824">
        <ele>741.4000244140625</ele>
        <time>2011-06-22T09:04:56Z</time>
      </trkpt>
      <trkpt lat="44.22107694670558" lon="5.589238945394754">
        <ele>743.20001220703125</ele>
        <time>2011-06-22T09:05:12Z</time>
      </trkpt>
      <trkpt lat="44.221081975847483" lon="5.588499996811152">
        <ele>744.4000244140625</ele>
        <time>2011-06-22T09:05:22Z</time>
      </trkpt>
      <trkpt lat="44.22107795253396" lon="5.587785942479968">
        <ele>746.20001220703125</ele>
        <time>2011-06-22T09:05:32Z</time>
      </trkpt>
      <trkpt lat="44.221065966412425" lon="5.587031990289688">
        <ele>747.20001220703125</ele>
        <time>2011-06-22T09:05:42Z</time>
      </trkpt>
      <trkpt lat="44.221055991947651" lon="5.586264962330461">
        <ele>749.20001220703125</ele>
        <time>2011-06-22T09:05:53Z</time>
      </trkpt>
      <trkpt lat="44.221047945320606" lon="5.585584938526154">
        <ele>750.4000244140625</ele>
        <time>2011-06-22T09:06:03Z</time>
      </trkpt>
      <trkpt lat="44.221031935885549" lon="5.584319941699505">
        <ele>752.4000244140625</ele>
        <time>2011-06-22T09:06:22Z</time>
      </trkpt>
      <trkpt lat="44.221022967249155" lon="5.583525924012065">
        <ele>753.79998779296875</ele>
        <time>2011-06-22T09:06:34Z</time>
      </trkpt>
      <trkpt lat="44.221025984734297" lon="5.582391936331987">
        <ele>754</ele>
        <time>2011-06-22T09:06:50Z</time>
      </trkpt>
      <trkpt lat="44.22109697945416" lon="5.581679977476597">
        <ele>753.5999755859375</ele>
        <time>2011-06-22T09:06:59Z</time>
      </trkpt>
      <trkpt lat="44.221171997487545" lon="5.580964917317033">
        <ele>753.4000244140625</ele>
        <time>2011-06-22T09:07:09Z</time>
      </trkpt>
      <trkpt lat="44.22126897610724" lon="5.58018296957016">
        <ele>752.4000244140625</ele>
        <time>2011-06-22T09:07:33Z</time>
      </trkpt>
      <trkpt lat="44.221385987475514" lon="5.579115953296423">
        <ele>752.5999755859375</ele>
        <time>2011-06-22T09:07:46Z</time>
      </trkpt>
      <trkpt lat="44.221457988023758" lon="5.578395947813988">
        <ele>752.79998779296875</ele>
        <time>2011-06-22T09:07:55Z</time>
      </trkpt>
      <trkpt lat="44.221480954438448" lon="5.5775629542768">
        <ele>753.79998779296875</ele>
        <time>2011-06-22T09:08:06Z</time>
      </trkpt>
      <trkpt lat="44.221449941396713" lon="5.576743958517909">
        <ele>754.5999755859375</ele>
        <time>2011-06-22T09:08:16Z</time>
      </trkpt>
      <trkpt lat="44.221418928354979" lon="5.57584198191762">
        <ele>755.20001220703125</ele>
        <time>2011-06-22T09:08:27Z</time>
      </trkpt>
      <trkpt lat="44.221394956111908" lon="5.574947968125343">
        <ele>755.5999755859375</ele>
        <time>2011-06-22T09:08:38Z</time>
      </trkpt>
      <trkpt lat="44.221368972212076" lon="5.574066946282983">
        <ele>756.20001220703125</ele>
        <time>2011-06-22T09:08:49Z</time>
      </trkpt>
      <trkpt lat="44.221350951120257" lon="5.573383988812566">
        <ele>756.79998779296875</ele>
        <time>2011-06-22T09:08:58Z</time>
      </trkpt>
      <trkpt lat="44.221330918371677" lon="5.572635987773538">
        <ele>757.20001220703125</ele>
        <time>2011-06-22T09:09:08Z</time>
      </trkpt>
      <trkpt lat="44.221307951956987" lon="5.571831995621324">
        <ele>757.20001220703125</ele>
        <time>2011-06-22T09:09:18Z</time>
      </trkpt>
      <trkpt lat="44.221287919208407" lon="5.571122970432043">
        <ele>758</ele>
        <time>2011-06-22T09:09:27Z</time>
      </trkpt>
      <trkpt lat="44.221266964450479" lon="5.570269944146276">
        <ele>759</ele>
        <time>2011-06-22T09:09:38Z</time>
      </trkpt>
      <trkpt lat="44.221241986379027" lon="5.569501994177699">
        <ele>760</ele>
        <time>2011-06-22T09:09:48Z</time>
      </trkpt>
      <trkpt lat="44.221224971115589" lon="5.568644944578409">
        <ele>760.79998779296875</ele>
        <time>2011-06-22T09:09:59Z</time>
      </trkpt>
      <trkpt lat="44.221202926710248" lon="5.567789990454912">
        <ele>761.79998779296875</ele>
        <time>2011-06-22T09:10:10Z</time>
      </trkpt>
      <trkpt lat="44.221180966123939" lon="5.567121952772141">
        <ele>762.79998779296875</ele>
        <time>2011-06-22T09:10:19Z</time>
      </trkpt>
      <trkpt lat="44.22116294503212" lon="5.566489957273006">
        <ele>763.5999755859375</ele>
        <time>2011-06-22T09:10:28Z</time>
      </trkpt>
      <trkpt lat="44.221144923940301" lon="5.565621927380562">
        <ele>764.5999755859375</ele>
        <time>2011-06-22T09:10:40Z</time>
      </trkpt>
      <trkpt lat="44.22109697945416" lon="5.564525993540883">
        <ele>765.79998779296875</ele>
        <time>2011-06-22T09:10:55Z</time>
      </trkpt>
      <trkpt lat="44.221017938107252" lon="5.563687970861793">
        <ele>767</ele>
        <time>2011-06-22T09:11:06Z</time>
      </trkpt>
      <trkpt lat="44.220940992236137" lon="5.562913985922933">
        <ele>767.5999755859375</ele>
        <time>2011-06-22T09:11:16Z</time>
      </trkpt>
      <trkpt lat="44.22086295671761" lon="5.562197919934988">
        <ele>767.4000244140625</ele>
        <time>2011-06-22T09:11:25Z</time>
      </trkpt>
      <trkpt lat="44.220714932307601" lon="5.560810966417193">
        <ele>767.4000244140625</ele>
        <time>2011-06-22T09:11:41Z</time>
      </trkpt>
      <trkpt lat="44.220615942031145" lon="5.559842940419912">
        <ele>767.20001220703125</ele>
        <time>2011-06-22T09:11:51Z</time>
      </trkpt>
      <trkpt lat="44.220525920391083" lon="5.558981951326132">
        <ele>767.79998779296875</ele>
        <time>2011-06-22T09:12:00Z</time>
      </trkpt>
      <trkpt lat="44.220425924286246" lon="5.558041920885444">
        <ele>768.5999755859375</ele>
        <time>2011-06-22T09:12:10Z</time>
      </trkpt>
      <trkpt lat="44.220305979251862" lon="5.556907933205366">
        <ele>769.4000244140625</ele>
        <time>2011-06-22T09:12:22Z</time>
      </trkpt>
      <trkpt lat="44.220213945955038" lon="5.555995982140303">
        <ele>770</ele>
        <time>2011-06-22T09:12:32Z</time>
      </trkpt>
      <trkpt lat="44.220117973163724" lon="5.555104985833168">
        <ele>770.79998779296875</ele>
        <time>2011-06-22T09:12:42Z</time>
      </trkpt>
      <trkpt lat="44.22000196762383" lon="5.554069988429546">
        <ele>771</ele>
        <time>2011-06-22T09:12:53Z</time>
      </trkpt>
      <trkpt lat="44.219889985397458" lon="5.552976988255978">
        <ele>772</ele>
        <time>2011-06-22T09:13:06Z</time>
      </trkpt>
      <trkpt lat="44.219752941280603" lon="5.551903937011957">
        <ele>774</ele>
        <time>2011-06-22T09:13:20Z</time>
      </trkpt>
      <trkpt lat="44.21942294575274" lon="5.550847984850407">
        <ele>776.79998779296875</ele>
        <time>2011-06-22T09:13:38Z</time>
      </trkpt>
      <trkpt lat="44.219056991860271" lon="5.549874929711223">
        <ele>779.5999755859375</ele>
        <time>2011-06-22T09:13:55Z</time>
      </trkpt>
      <trkpt lat="44.218678968027234" lon="5.548869939520955">
        <ele>782.5999755859375</ele>
        <time>2011-06-22T09:14:15Z</time>
      </trkpt>
      <trkpt lat="44.218322988599539" lon="5.547918928787112">
        <ele>785.4000244140625</ele>
        <time>2011-06-22T09:14:35Z</time>
      </trkpt>
      <trkpt lat="44.217999950051308" lon="5.547044947743416">
        <ele>785.4000244140625</ele>
        <time>2011-06-22T09:14:49Z</time>
      </trkpt>
      <trkpt lat="44.217556966468692" lon="5.545880952849984">
        <ele>784</ele>
        <time>2011-06-22T09:15:04Z</time>
      </trkpt>
      <trkpt lat="44.217192940413952" lon="5.544905969873071">
        <ele>783</ele>
        <time>2011-06-22T09:15:16Z</time>
      </trkpt>
      <trkpt lat="44.216945925727487" lon="5.544249918311834">
        <ele>782.5999755859375</ele>
        <time>2011-06-22T09:15:24Z</time>
      </trkpt>
      <trkpt lat="44.216513922438025" lon="5.543701993301511">
        <ele>783.20001220703125</ele>
        <time>2011-06-22T09:15:34Z</time>
      </trkpt>
      <trkpt lat="44.21581294387579" lon="5.543297985568643">
        <ele>784</ele>
        <time>2011-06-22T09:15:48Z</time>
      </trkpt>
      <trkpt lat="44.215357974171638" lon="5.542817953974009">
        <ele>784.5999755859375</ele>
        <time>2011-06-22T09:15:58Z</time>
      </trkpt>
      <trkpt lat="44.215005934238434" lon="5.542408917099237">
        <ele>785.20001220703125</ele>
        <time>2011-06-22T09:16:06Z</time>
      </trkpt>
      <trkpt lat="44.214642997831106" lon="5.542017985135317">
        <ele>785.5999755859375</ele>
        <time>2011-06-22T09:16:14Z</time>
      </trkpt>
      <trkpt lat="44.214215939864516" lon="5.541521944105625">
        <ele>786.4000244140625</ele>
        <time>2011-06-22T09:16:24Z</time>
      </trkpt>
      <trkpt lat="44.213575981557369" lon="5.540790958330035">
        <ele>788.79998779296875</ele>
        <time>2011-06-22T09:16:41Z</time>
      </trkpt>
      <trkpt lat="44.212918924167752" lon="5.540201961994171">
        <ele>790.79998779296875</ele>
        <time>2011-06-22T09:16:58Z</time>
      </trkpt>
      <trkpt lat="44.212209982797503" lon="5.539801977574825">
        <ele>793.20001220703125</ele>
        <time>2011-06-22T09:17:15Z</time>
      </trkpt>
      <trkpt lat="44.211752917617559" lon="5.53955496288836">
        <ele>794.20001220703125</ele>
        <time>2011-06-22T09:17:26Z</time>
      </trkpt>
      <trkpt lat="44.211047999560833" lon="5.539173921570182">
        <ele>796.20001220703125</ele>
        <time>2011-06-22T09:17:44Z</time>
      </trkpt>
      <trkpt lat="44.210335956886411" lon="5.538641922175884">
        <ele>797.5999755859375</ele>
        <time>2011-06-22T09:18:03Z</time>
      </trkpt>
      <trkpt lat="44.20975492335856" lon="5.537760984152556">
        <ele>798.79998779296875</ele>
        <time>2011-06-22T09:18:22Z</time>
      </trkpt>
      <trkpt lat="44.2095369938761" lon="5.537176933139563">
        <ele>799.20001220703125</ele>
        <time>2011-06-22T09:18:32Z</time>
      </trkpt>
      <trkpt lat="44.209286961704493" lon="5.536577962338924">
        <ele>799.4000244140625</ele>
        <time>2011-06-22T09:18:42Z</time>
      </trkpt>
      <trkpt lat="44.20835992321372" lon="5.536514930427074">
        <ele>799.5999755859375</ele>
        <time>2011-06-22T09:19:02Z</time>
      </trkpt>
      <trkpt lat="44.207575963810086" lon="5.536511996760964">
        <ele>800.5999755859375</ele>
        <time>2011-06-22T09:19:19Z</time>
      </trkpt>
      <trkpt lat="44.206868950277567" lon="5.53639599122107">
        <ele>802.4000244140625</ele>
        <time>2011-06-22T09:19:36Z</time>
      </trkpt>
      <trkpt lat="44.206260927021503" lon="5.536588942632079">
        <ele>802.79998779296875</ele>
        <time>2011-06-22T09:19:52Z</time>
      </trkpt>
      <trkpt lat="44.205643935129046" lon="5.536850960925221">
        <ele>803.20001220703125</ele>
        <time>2011-06-22T09:20:10Z</time>
      </trkpt>
      <trkpt lat="44.205097937956452" lon="5.536660943180323">
        <ele>803.79998779296875</ele>
        <time>2011-06-22T09:20:26Z</time>
      </trkpt>
      <trkpt lat="44.204521933570504" lon="5.53635491989553">
        <ele>807.79998779296875</ele>
        <time>2011-06-22T09:20:42Z</time>
      </trkpt>
      <trkpt lat="44.204009966924787" lon="5.536322984844446">
        <ele>809.79998779296875</ele>
        <time>2011-06-22T09:20:56Z</time>
      </trkpt>
      <trkpt lat="44.203400937840343" lon="5.536568993702531">
        <ele>809.20001220703125</ele>
        <time>2011-06-22T09:21:12Z</time>
      </trkpt>
      <trkpt lat="44.202757962048054" lon="5.536795975640416">
        <ele>810.20001220703125</ele>
        <time>2011-06-22T09:21:28Z</time>
      </trkpt>
      <trkpt lat="44.202248929068446" lon="5.536840986460447">
        <ele>812.4000244140625</ele>
        <time>2011-06-22T09:21:42Z</time>
      </trkpt>
      <trkpt lat="44.201701926067472" lon="5.536835957318544">
        <ele>813.79998779296875</ele>
        <time>2011-06-22T09:21:56Z</time>
      </trkpt>
      <trkpt lat="44.20109499245882" lon="5.536876944825053">
        <ele>814.4000244140625</ele>
        <time>2011-06-22T09:22:12Z</time>
      </trkpt>
      <trkpt lat="44.200350930914283" lon="5.536949951201677">
        <ele>815.5999755859375</ele>
        <time>2011-06-22T09:22:30Z</time>
      </trkpt>
      <trkpt lat="44.199803927913308" lon="5.537115996703506">
        <ele>816.79998779296875</ele>
        <time>2011-06-22T09:22:44Z</time>
      </trkpt>
      <trkpt lat="44.199323980137706" lon="5.537282964214683">
        <ele>817.5999755859375</ele>
        <time>2011-06-22T09:22:55Z</time>
      </trkpt>
      <trkpt lat="44.198680920526385" lon="5.537499971687794">
        <ele>818.79998779296875</ele>
        <time>2011-06-22T09:23:10Z</time>
      </trkpt>
      <trkpt lat="44.197947923094034" lon="5.537593932822347">
        <ele>820.5999755859375</ele>
        <time>2011-06-22T09:23:27Z</time>
      </trkpt>
      <trkpt lat="44.197156922891736" lon="5.537603991106153">
        <ele>822.79998779296875</ele>
        <time>2011-06-22T09:23:46Z</time>
      </trkpt>
      <trkpt lat="44.196342956274748" lon="5.537625951692462">
        <ele>825</ele>
        <time>2011-06-22T09:24:06Z</time>
      </trkpt>
      <trkpt lat="44.195540975779295" lon="5.537640955299139">
        <ele>827.20001220703125</ele>
        <time>2011-06-22T09:24:27Z</time>
      </trkpt>
      <trkpt lat="44.194879978895187" lon="5.537616983056068">
        <ele>829</ele>
        <time>2011-06-22T09:24:45Z</time>
      </trkpt>
      <trkpt lat="44.1940279584378" lon="5.537540959194303">
        <ele>830.79998779296875</ele>
        <time>2011-06-22T09:25:07Z</time>
      </trkpt>
      <trkpt lat="44.193254979327321" lon="5.537477927282453">
        <ele>832.5999755859375</ele>
        <time>2011-06-22T09:25:26Z</time>
      </trkpt>
      <trkpt lat="44.192491974681616" lon="5.537413973361254">
        <ele>835.20001220703125</ele>
        <time>2011-06-22T09:25:46Z</time>
      </trkpt>
      <trkpt lat="44.19187992811203" lon="5.537366950884461">
        <ele>837.79998779296875</ele>
        <time>2011-06-22T09:26:04Z</time>
      </trkpt>
      <trkpt lat="44.191429987549782" lon="5.537335937842727">
        <ele>840.20001220703125</ele>
        <time>2011-06-22T09:26:18Z</time>
      </trkpt>
      <trkpt lat="44.19097694568336" lon="5.537301991134882">
        <ele>843.4000244140625</ele>
        <time>2011-06-22T09:26:34Z</time>
      </trkpt>
      <trkpt lat="44.190421979874372" lon="5.537250945344567">
        <ele>846.5999755859375</ele>
        <time>2011-06-22T09:26:54Z</time>
      </trkpt>
      <trkpt lat="44.189953934401274" lon="5.53719193674624">
        <ele>849.4000244140625</ele>
        <time>2011-06-22T09:27:10Z</time>
      </trkpt>
      <trkpt lat="44.189290925860405" lon="5.537344990298152">
        <ele>853.5999755859375</ele>
        <time>2011-06-22T09:27:35Z</time>
      </trkpt>
      <trkpt lat="44.188652979210019" lon="5.537587981671095">
        <ele>858.20001220703125</ele>
        <time>2011-06-22T09:28:02Z</time>
      </trkpt>
      <trkpt lat="44.188086949288845" lon="5.537549927830696">
        <ele>862.4000244140625</ele>
        <time>2011-06-22T09:28:22Z</time>
      </trkpt>
      <trkpt lat="44.187604989856482" lon="5.537563925608993">
        <ele>864.79998779296875</ele>
        <time>2011-06-22T09:28:39Z</time>
      </trkpt>
      <trkpt lat="44.187282957136631" lon="5.536793963983655">
        <ele>868.79998779296875</ele>
        <time>2011-06-22T09:29:01Z</time>
      </trkpt>
      <trkpt lat="44.187167957425117" lon="5.536145959049463">
        <ele>871.5999755859375</ele>
        <time>2011-06-22T09:29:18Z</time>
      </trkpt>
      <trkpt lat="44.187056981027126" lon="5.535497954115272">
        <ele>874.20001220703125</ele>
        <time>2011-06-22T09:29:36Z</time>
      </trkpt>
      <trkpt lat="44.186814995482564" lon="5.534709971398115">
        <ele>878</ele>
        <time>2011-06-22T09:30:01Z</time>
      </trkpt>
      <trkpt lat="44.186362959444523" lon="5.53422792814672">
        <ele>881.5999755859375</ele>
        <time>2011-06-22T09:30:23Z</time>
      </trkpt>
      <trkpt lat="44.186072945594788" lon="5.533691989257932">
        <ele>884.5999755859375</ele>
        <time>2011-06-22T09:30:40Z</time>
      </trkpt>
      <trkpt lat="44.186575943604112" lon="5.534172942861915">
        <ele>889.4000244140625</ele>
        <time>2011-06-22T09:31:05Z</time>
      </trkpt>
      <trkpt lat="44.186640987172723" lon="5.533670950680971">
        <ele>892</ele>
        <time>2011-06-22T09:31:25Z</time>
      </trkpt>
      <trkpt lat="44.186244942247868" lon="5.533274989575148">
        <ele>895</ele>
        <time>2011-06-22T09:31:42Z</time>
      </trkpt>
      <trkpt lat="44.185980996116996" lon="5.532652968540788">
        <ele>898.4000244140625</ele>
        <time>2011-06-22T09:32:01Z</time>
      </trkpt>
      <trkpt lat="44.185671955347061" lon="5.532081993296742">
        <ele>901.5999755859375</ele>
        <time>2011-06-22T09:32:19Z</time>
      </trkpt>
      <trkpt lat="44.185202987864614" lon="5.531641943380237">
        <ele>905.4000244140625</ele>
        <time>2011-06-22T09:32:42Z</time>
      </trkpt>
      <trkpt lat="44.18461793102324" lon="5.531558962538838">
        <ele>909.20001220703125</ele>
        <time>2011-06-22T09:33:06Z</time>
      </trkpt>
      <trkpt lat="44.184169918298721" lon="5.531530966982245">
        <ele>912.20001220703125</ele>
        <time>2011-06-22T09:33:23Z</time>
      </trkpt>
      <trkpt lat="44.183874959126115" lon="5.530803920701146">
        <ele>916.20001220703125</ele>
        <time>2011-06-22T09:33:46Z</time>
      </trkpt>
      <trkpt lat="44.184128930792212" lon="5.529987942427397">
        <ele>920.79998779296875</ele>
        <time>2011-06-22T09:34:10Z</time>
      </trkpt>
      <trkpt lat="44.183881999924779" lon="5.529170958325267">
        <ele>924.4000244140625</ele>
        <time>2011-06-22T09:34:33Z</time>
      </trkpt>
      <trkpt lat="44.183683935552835" lon="5.528385993093252">
        <ele>928</ele>
        <time>2011-06-22T09:34:56Z</time>
      </trkpt>
      <trkpt lat="44.183463994413614" lon="5.52748192101717">
        <ele>932</ele>
        <time>2011-06-22T09:35:23Z</time>
      </trkpt>
      <trkpt lat="44.183098962530494" lon="5.527017982676625">
        <ele>935</ele>
        <time>2011-06-22T09:35:41Z</time>
      </trkpt>
      <trkpt lat="44.182750945910811" lon="5.526479948312044">
        <ele>938.20001220703125</ele>
        <time>2011-06-22T09:36:00Z</time>
      </trkpt>
      <trkpt lat="44.182636952027678" lon="5.525557938963175">
        <ele>942.20001220703125</ele>
        <time>2011-06-22T09:36:23Z</time>
      </trkpt>
      <trkpt lat="44.182579955086112" lon="5.524707930162549">
        <ele>946.20001220703125</ele>
        <time>2011-06-22T09:36:45Z</time>
      </trkpt>
      <trkpt lat="44.182715993374586" lon="5.52406394854188">
        <ele>949.20001220703125</ele>
        <time>2011-06-22T09:37:04Z</time>
      </trkpt>
      <trkpt lat="44.18292093090713" lon="5.523256938904524">
        <ele>952.5999755859375</ele>
        <time>2011-06-22T09:37:26Z</time>
      </trkpt>
      <trkpt lat="44.183014975860715" lon="5.522421933710575">
        <ele>957</ele>
        <time>2011-06-22T09:37:48Z</time>
      </trkpt>
      <trkpt lat="44.183252938091755" lon="5.521868979558349">
        <ele>959.79998779296875</ele>
        <time>2011-06-22T09:38:05Z</time>
      </trkpt>
      <trkpt lat="44.183532977476716" lon="5.521308984607458">
        <ele>964</ele>
        <time>2011-06-22T09:38:25Z</time>
      </trkpt>
      <trkpt lat="44.183600954711437" lon="5.520521923899651">
        <ele>968</ele>
        <time>2011-06-22T09:38:49Z</time>
      </trkpt>
      <trkpt lat="44.183398950845003" lon="5.519744921475649">
        <ele>972</ele>
        <time>2011-06-22T09:40:36Z</time>
      </trkpt>
      <trkpt lat="44.183105919510126" lon="5.519170928746462">
        <ele>974.5999755859375</ele>
        <time>2011-06-22T09:40:51Z</time>
      </trkpt>
      <trkpt lat="44.182865945622325" lon="5.518530970439315">
        <ele>977.4000244140625</ele>
        <time>2011-06-22T09:41:07Z</time>
      </trkpt>
      <trkpt lat="44.183271965011954" lon="5.517776934430003">
        <ele>981.20001220703125</ele>
        <time>2011-06-22T09:41:30Z</time>
      </trkpt>
      <trkpt lat="44.183595925569534" lon="5.517292963340879">
        <ele>983.79998779296875</ele>
        <time>2011-06-22T09:41:46Z</time>
      </trkpt>
      <trkpt lat="44.183770939707756" lon="5.516608916223049">
        <ele>986.20001220703125</ele>
        <time>2011-06-22T09:42:04Z</time>
      </trkpt>
      <trkpt lat="44.183805976063013" lon="5.515979938209057">
        <ele>988.5999755859375</ele>
        <time>2011-06-22T09:42:20Z</time>
      </trkpt>
      <trkpt lat="44.183882921934128" lon="5.515215927734971">
        <ele>991.4000244140625</ele>
        <time>2011-06-22T09:42:39Z</time>
      </trkpt>
      <trkpt lat="44.184155920520425" lon="5.514523917809129">
        <ele>994.4000244140625</ele>
        <time>2011-06-22T09:42:58Z</time>
      </trkpt>
      <trkpt lat="44.184489939361811" lon="5.514018991962075">
        <ele>997</ele>
        <time>2011-06-22T09:43:16Z</time>
      </trkpt>
      <trkpt lat="44.184670988470316" lon="5.51338791847229">
        <ele>999.4000244140625</ele>
        <time>2011-06-22T09:43:33Z</time>
      </trkpt>
      <trkpt lat="44.184818929061294" lon="5.512755922973156">
        <ele>1002.2000122070312</ele>
        <time>2011-06-22T09:43:50Z</time>
      </trkpt>
      <trkpt lat="44.185095950961113" lon="5.513267973437905">
        <ele>1005.4000244140625</ele>
        <time>2011-06-22T09:44:06Z</time>
      </trkpt>
      <trkpt lat="44.185073990374804" lon="5.514121921733022">
        <ele>1008.5999755859375</ele>
        <time>2011-06-22T09:44:27Z</time>
      </trkpt>
      <trkpt lat="44.185013975948095" lon="5.514815943315625">
        <ele>1011.4000244140625</ele>
        <time>2011-06-22T09:44:45Z</time>
      </trkpt>
      <trkpt lat="44.18504792265594" lon="5.515328999608755">
        <ele>1014</ele>
        <time>2011-06-22T09:45:05Z</time>
      </trkpt>
      <trkpt lat="44.185292925685644" lon="5.514480918645859">
        <ele>1017</ele>
        <time>2011-06-22T09:45:25Z</time>
      </trkpt>
      <trkpt lat="44.185595931485295" lon="5.513603920117021">
        <ele>1020.7999877929687</ele>
        <time>2011-06-22T09:45:46Z</time>
      </trkpt>
      <trkpt lat="44.185771951451898" lon="5.513008972629905">
        <ele>1023.5999755859375</ele>
        <time>2011-06-22T09:46:02Z</time>
      </trkpt>
      <trkpt lat="44.186016954481602" lon="5.512292990460992">
        <ele>1026.199951171875</ele>
        <time>2011-06-22T09:46:23Z</time>
      </trkpt>
      <trkpt lat="44.186067916452885" lon="5.511597963050008">
        <ele>1029</ele>
        <time>2011-06-22T09:46:42Z</time>
      </trkpt>
      <trkpt lat="44.185859961435199" lon="5.511016929522157">
        <ele>1031</ele>
        <time>2011-06-22T09:46:57Z</time>
      </trkpt>
      <trkpt lat="44.186091972514987" lon="5.510165998712182">
        <ele>1035.4000244140625</ele>
        <time>2011-06-22T09:47:21Z</time>
      </trkpt>
      <trkpt lat="44.185850992798805" lon="5.509487986564636">
        <ele>1038.4000244140625</ele>
        <time>2011-06-22T09:47:41Z</time>
      </trkpt>
      <trkpt lat="44.185493923723698" lon="5.508970990777016">
        <ele>1041.5999755859375</ele>
        <time>2011-06-22T09:47:58Z</time>
      </trkpt>
      <trkpt lat="44.185093939304352" lon="5.508168926462531">
        <ele>1046.4000244140625</ele>
        <time>2011-06-22T09:48:26Z</time>
      </trkpt>
      <trkpt lat="44.184800991788507" lon="5.507612954825163">
        <ele>1049.4000244140625</ele>
        <time>2011-06-22T09:48:44Z</time>
      </trkpt>
      <trkpt lat="44.184215934947133" lon="5.507514970377088">
        <ele>1052.800048828125</ele>
        <time>2011-06-22T09:49:04Z</time>
      </trkpt>
      <trkpt lat="44.18388593941927" lon="5.508096925914288">
        <ele>1055.800048828125</ele>
        <time>2011-06-22T09:49:19Z</time>
      </trkpt>
      <trkpt lat="44.183488972485065" lon="5.508557930588722">
        <ele>1058.800048828125</ele>
        <time>2011-06-22T09:49:36Z</time>
      </trkpt>
      <trkpt lat="44.182935934513807" lon="5.508891949430108">
        <ele>1062.5999755859375</ele>
        <time>2011-06-22T09:49:56Z</time>
      </trkpt>
      <trkpt lat="44.182496974244714" lon="5.509577924385667">
        <ele>1066.5999755859375</ele>
        <time>2011-06-22T09:50:20Z</time>
      </trkpt>
      <trkpt lat="44.182260939851403" lon="5.510143954306841">
        <ele>1070</ele>
        <time>2011-06-22T09:50:37Z</time>
      </trkpt>
      <trkpt lat="44.181591980159283" lon="5.509659983217716">
        <ele>1073</ele>
        <time>2011-06-22T09:51:50Z</time>
      </trkpt>
      <trkpt lat="44.18109392747283" lon="5.508996974676848">
        <ele>1074.800048828125</ele>
        <time>2011-06-22T09:52:06Z</time>
      </trkpt>
      <trkpt lat="44.180612973868847" lon="5.508877951651812">
        <ele>1078.199951171875</ele>
        <time>2011-06-22T09:52:18Z</time>
      </trkpt>
      <trkpt lat="44.180235955864191" lon="5.509448926895857">
        <ele>1081.5999755859375</ele>
        <time>2011-06-22T09:52:34Z</time>
      </trkpt>
      <trkpt lat="44.179853992536664" lon="5.510068936273456">
        <ele>1084.800048828125</ele>
        <time>2011-06-22T09:52:53Z</time>
      </trkpt>
      <trkpt lat="44.179243957623839" lon="5.510516948997974">
        <ele>1089.5999755859375</ele>
        <time>2011-06-22T09:53:18Z</time>
      </trkpt>
      <trkpt lat="44.178710952401161" lon="5.510668996721506">
        <ele>1093.199951171875</ele>
        <time>2011-06-22T09:53:38Z</time>
      </trkpt>
      <trkpt lat="44.17810695245862" lon="5.511037968099117">
        <ele>1096.5999755859375</ele>
        <time>2011-06-22T09:54:37Z</time>
      </trkpt>
      <trkpt lat="44.177720965817571" lon="5.511433929204941">
        <ele>1097.800048828125</ele>
        <time>2011-06-22T09:54:52Z</time>
      </trkpt>
      <trkpt lat="44.177276976406574" lon="5.511197978630662">
        <ele>1099.199951171875</ele>
        <time>2011-06-22T09:55:06Z</time>
      </trkpt>
      <trkpt lat="44.176940945908427" lon="5.510731944814324">
        <ele>1101.5999755859375</ele>
        <time>2011-06-22T09:55:20Z</time>
      </trkpt>
      <trkpt lat="44.176505925133824" lon="5.510343946516514">
        <ele>1105</ele>
        <time>2011-06-22T09:55:36Z</time>
      </trkpt>
      <trkpt lat="44.176049949601293" lon="5.509929964318872">
        <ele>1107.800048828125</ele>
        <time>2011-06-22T09:55:54Z</time>
      </trkpt>
      <trkpt lat="44.175769994035363" lon="5.509276930242777">
        <ele>1110.800048828125</ele>
        <time>2011-06-22T09:56:12Z</time>
      </trkpt>
      <trkpt lat="44.175537982955575" lon="5.508520966395736">
        <ele>1113.5999755859375</ele>
        <time>2011-06-22T09:56:36Z</time>
      </trkpt>
      <trkpt lat="44.17539993301034" lon="5.507746981456876">
        <ele>1116</ele>
        <time>2011-06-22T09:56:54Z</time>
      </trkpt>
      <trkpt lat="44.175108997151256" lon="5.50807798281312">
        <ele>1118.199951171875</ele>
        <time>2011-06-22T09:57:13Z</time>
      </trkpt>
      <trkpt lat="44.175070943310857" lon="5.509158996865153">
        <ele>1121.199951171875</ele>
        <time>2011-06-22T09:58:33Z</time>
      </trkpt>
      <trkpt lat="44.175077984109521" lon="5.509896939620376">
        <ele>1123.5999755859375</ele>
        <time>2011-06-22T09:58:49Z</time>
      </trkpt>
      <trkpt lat="44.175038924440742" lon="5.510553997009993">
        <ele>1125.800048828125</ele>
        <time>2011-06-22T09:59:05Z</time>
      </trkpt>
      <trkpt lat="44.174648998305202" lon="5.51016197539866">
        <ele>1128.199951171875</ele>
        <time>2011-06-22T09:59:23Z</time>
      </trkpt>
      <trkpt lat="44.17423895560205" lon="5.509395953267813">
        <ele>1132.199951171875</ele>
        <time>2011-06-22T09:59:47Z</time>
      </trkpt>
      <trkpt lat="44.17395799420774" lon="5.508598918095231">
        <ele>1135.800048828125</ele>
        <time>2011-06-22T10:00:10Z</time>
      </trkpt>
      <trkpt lat="44.173899991437793" lon="5.507886959239841">
        <ele>1138.5999755859375</ele>
        <time>2011-06-22T10:00:28Z</time>
      </trkpt>
      <trkpt lat="44.173935949802399" lon="5.50722093321383">
        <ele>1141.800048828125</ele>
        <time>2011-06-22T10:00:47Z</time>
      </trkpt>
      <trkpt lat="44.173994958400726" lon="5.506584998220205">
        <ele>1144.800048828125</ele>
        <time>2011-06-22T10:01:04Z</time>
      </trkpt>
      <trkpt lat="44.174094954505563" lon="5.505963983014226">
        <ele>1147.4000244140625</ele>
        <time>2011-06-22T10:01:20Z</time>
      </trkpt>
      <trkpt lat="44.174308944493532" lon="5.505103999748826">
        <ele>1152.199951171875</ele>
        <time>2011-06-22T10:01:45Z</time>
      </trkpt>
      <trkpt lat="44.17411096394062" lon="5.504277963191271">
        <ele>1156.199951171875</ele>
        <time>2011-06-22T10:02:07Z</time>
      </trkpt>
      <trkpt lat="44.173975931480527" lon="5.503642950206995">
        <ele>1159.4000244140625</ele>
        <time>2011-06-22T10:02:25Z</time>
      </trkpt>
      <trkpt lat="44.17368097230792" lon="5.502831917256117">
        <ele>1163</ele>
        <time>2011-06-22T10:02:48Z</time>
      </trkpt>
      <trkpt lat="44.173399927094579" lon="5.502296984195709">
        <ele>1166</ele>
        <time>2011-06-22T10:03:05Z</time>
      </trkpt>
      <trkpt lat="44.173118965700269" lon="5.501664988696575">
        <ele>1168.800048828125</ele>
        <time>2011-06-22T10:03:24Z</time>
      </trkpt>
      <trkpt lat="44.172845967113972" lon="5.501131983473897">
        <ele>1171.199951171875</ele>
        <time>2011-06-22T10:03:42Z</time>
      </trkpt>
      <trkpt lat="44.172673970460892" lon="5.50056092441082">
        <ele>1173.5999755859375</ele>
        <time>2011-06-22T10:04:00Z</time>
      </trkpt>
      <trkpt lat="44.172755945473909" lon="5.499867992475629">
        <ele>1176.4000244140625</ele>
        <time>2011-06-22T10:04:18Z</time>
      </trkpt>
      <trkpt lat="44.172598952427506" lon="5.499233985319734">
        <ele>1179</ele>
        <time>2011-06-22T10:04:35Z</time>
      </trkpt>
      <trkpt lat="44.172372976318002" lon="5.498662926256657">
        <ele>1181.199951171875</ele>
        <time>2011-06-22T10:04:51Z</time>
      </trkpt>
      <trkpt lat="44.172097966074944" lon="5.498084994032979">
        <ele>1183.800048828125</ele>
        <time>2011-06-22T10:05:09Z</time>
      </trkpt>
      <trkpt lat="44.171549957245588" lon="5.497940992936492">
        <ele>1185.4000244140625</ele>
        <time>2011-06-22T10:05:29Z</time>
      </trkpt>
      <trkpt lat="44.170955931767821" lon="5.498422952368856">
        <ele>1185.800048828125</ele>
        <time>2011-06-22T10:05:48Z</time>
      </trkpt>
      <trkpt lat="44.170441953465343" lon="5.498287919908762">
        <ele>1185.5999755859375</ele>
        <time>2011-06-22T10:06:05Z</time>
      </trkpt>
      <trkpt lat="44.17043692432344" lon="5.497537991032004">
        <ele>1186.4000244140625</ele>
        <time>2011-06-22T10:06:21Z</time>
      </trkpt>
      <trkpt lat="44.170365929603577" lon="5.496622938662767">
        <ele>1187</ele>
        <time>2011-06-22T10:06:40Z</time>
      </trkpt>
      <trkpt lat="44.170080944895744" lon="5.495755998417735">
        <ele>1188.199951171875</ele>
        <time>2011-06-22T10:06:57Z</time>
      </trkpt>
      <trkpt lat="44.169650953263044" lon="5.495345955714583">
        <ele>1188.800048828125</ele>
        <time>2011-06-22T10:07:11Z</time>
      </trkpt>
      <trkpt lat="44.16912398301065" lon="5.495324917137623">
        <ele>1189.4000244140625</ele>
        <time>2011-06-22T10:07:25Z</time>
      </trkpt>
      <trkpt lat="44.168378999456763" lon="5.495535973459482">
        <ele>1191.4000244140625</ele>
        <time>2011-06-22T10:07:45Z</time>
      </trkpt>
      <trkpt lat="44.167745998129249" lon="5.495867980644107">
        <ele>1192.800048828125</ele>
        <time>2011-06-22T10:08:03Z</time>
      </trkpt>
      <trkpt lat="44.167398987337947" lon="5.496860984712839">
        <ele>1192.800048828125</ele>
        <time>2011-06-22T10:08:22Z</time>
      </trkpt>
      <trkpt lat="44.166960949078202" lon="5.497466996312141">
        <ele>1193.5999755859375</ele>
        <time>2011-06-22T10:08:37Z</time>
      </trkpt>
      <trkpt lat="44.166510924696922" lon="5.496910940855742">
        <ele>1194.4000244140625</ele>
        <time>2011-06-22T10:08:51Z</time>
      </trkpt>
      <trkpt lat="44.166080933064222" lon="5.496316999197006">
        <ele>1195.4000244140625</ele>
        <time>2011-06-22T10:09:06Z</time>
      </trkpt>
      <trkpt lat="44.165434939786792" lon="5.496164951473475">
        <ele>1196.800048828125</ele>
        <time>2011-06-22T10:09:23Z</time>
      </trkpt>
      <trkpt lat="44.164672940969467" lon="5.496611958369613">
        <ele>1198</ele>
        <time>2011-06-22T10:09:44Z</time>
      </trkpt>
      <trkpt lat="44.163957964628935" lon="5.496886968612671">
        <ele>1199.4000244140625</ele>
        <time>2011-06-22T10:10:02Z</time>
      </trkpt>
      <trkpt lat="44.163293950259686" lon="5.496793929487467">
        <ele>1200.4000244140625</ele>
        <time>2011-06-22T10:10:19Z</time>
      </trkpt>
      <trkpt lat="44.16263597086072" lon="5.496661998331547">
        <ele>1201</ele>
        <time>2011-06-22T10:10:37Z</time>
      </trkpt>
      <trkpt lat="44.162101959809661" lon="5.496924938634038">
        <ele>1201.800048828125</ele>
        <time>2011-06-22T10:10:52Z</time>
      </trkpt>
      <trkpt lat="44.161620922386646" lon="5.497472947463393">
        <ele>1202</ele>
        <time>2011-06-22T10:11:07Z</time>
      </trkpt>
      <trkpt lat="44.161076936870813" lon="5.498103937134147">
        <ele>1203.4000244140625</ele>
        <time>2011-06-22T10:11:25Z</time>
      </trkpt>
      <trkpt lat="44.160502944141626" lon="5.498729981482029">
        <ele>1204.5999755859375</ele>
        <time>2011-06-22T10:11:42Z</time>
      </trkpt>
      <trkpt lat="44.159990977495909" lon="5.499131977558136">
        <ele>1205.800048828125</ele>
        <time>2011-06-22T10:11:57Z</time>
      </trkpt>
      <trkpt lat="44.159322939813137" lon="5.499457949772477">
        <ele>1207</ele>
        <time>2011-06-22T10:12:15Z</time>
      </trkpt>
      <trkpt lat="44.158668983727694" lon="5.49952894449234">
        <ele>1207.5999755859375</ele>
        <time>2011-06-22T10:12:31Z</time>
      </trkpt>
      <trkpt lat="44.158110916614532" lon="5.499281929805875">
        <ele>1208.5999755859375</ele>
        <time>2011-06-22T10:12:46Z</time>
      </trkpt>
      <trkpt lat="44.157668938860297" lon="5.498677929863334">
        <ele>1209</ele>
        <time>2011-06-22T10:13:02Z</time>
      </trkpt>
      <trkpt lat="44.157292926684022" lon="5.498043922707439">
        <ele>1209.5999755859375</ele>
        <time>2011-06-22T10:13:17Z</time>
      </trkpt>
      <trkpt lat="44.157029986381531" lon="5.497456938028336">
        <ele>1210</ele>
        <time>2011-06-22T10:13:44Z</time>
      </trkpt>
      <trkpt lat="44.15720097720623" lon="5.497069945558906">
        <ele>1210.5999755859375</ele>
        <time>2011-06-22T10:18:54Z</time>
      </trkpt>
      <trkpt lat="44.15660192258656" lon="5.49675696529448">
        <ele>1210.4000244140625</ele>
        <time>2011-06-22T10:26:31Z</time>
      </trkpt>
      <trkpt lat="44.156087944284081" lon="5.496407942846417">
        <ele>1208.199951171875</ele>
        <time>2011-06-22T10:26:42Z</time>
      </trkpt>
      <trkpt lat="44.15552694350481" lon="5.495953978970647">
        <ele>1206.199951171875</ele>
        <time>2011-06-22T10:26:52Z</time>
      </trkpt>
      <trkpt lat="44.155045989900827" lon="5.495783993974328">
        <ele>1203.5999755859375</ele>
        <time>2011-06-22T10:26:59Z</time>
      </trkpt>
      <trkpt lat="44.15423596277833" lon="5.49593998119235">
        <ele>1199.199951171875</ele>
        <time>2011-06-22T10:27:10Z</time>
      </trkpt>
      <trkpt lat="44.153616959229112" lon="5.496096974238753">
        <ele>1196</ele>
        <time>2011-06-22T10:27:18Z</time>
      </trkpt>
      <trkpt lat="44.152929978445172" lon="5.496062943711877">
        <ele>1192.800048828125</ele>
        <time>2011-06-22T10:27:27Z</time>
      </trkpt>
      <trkpt lat="44.152103941887617" lon="5.496135950088501">
        <ele>1188.4000244140625</ele>
        <time>2011-06-22T10:27:37Z</time>
      </trkpt>
      <trkpt lat="44.151395922526717" lon="5.496292943134904">
        <ele>1184.800048828125</ele>
        <time>2011-06-22T10:27:46Z</time>
      </trkpt>
      <trkpt lat="44.150792928412557" lon="5.496418923139572">
        <ele>1182.199951171875</ele>
        <time>2011-06-22T10:27:54Z</time>
      </trkpt>
      <trkpt lat="44.150098990648985" lon="5.496529983356595">
        <ele>1179</ele>
        <time>2011-06-22T10:28:03Z</time>
      </trkpt>
      <trkpt lat="44.149446962401271" lon="5.496749924495816">
        <ele>1176</ele>
        <time>2011-06-22T10:28:12Z</time>
      </trkpt>
      <trkpt lat="44.148853942751884" lon="5.496912952512503">
        <ele>1173.4000244140625</ele>
        <time>2011-06-22T10:28:20Z</time>
      </trkpt>
      <trkpt lat="44.148282967507839" lon="5.496914964169264">
        <ele>1171</ele>
        <time>2011-06-22T10:28:27Z</time>
      </trkpt>
      <trkpt lat="44.147828919813037" lon="5.496763922274113">
        <ele>1168.5999755859375</ele>
        <time>2011-06-22T10:28:33Z</time>
      </trkpt>
      <trkpt lat="44.147394988685846" lon="5.496409954503179">
        <ele>1165.5999755859375</ele>
        <time>2011-06-22T10:28:40Z</time>
      </trkpt>
      <trkpt lat="44.146897941827774" lon="5.496210968121886">
        <ele>1163.4000244140625</ele>
        <time>2011-06-22T10:28:51Z</time>
      </trkpt>
      <trkpt lat="44.147081924602389" lon="5.495721967890859">
        <ele>1161.800048828125</ele>
        <time>2011-06-22T10:29:17Z</time>
      </trkpt>
      <trkpt lat="44.147550975903869" lon="5.494769951328635">
        <ele>1157.199951171875</ele>
        <time>2011-06-22T10:29:29Z</time>
      </trkpt>
      <trkpt lat="44.147776952013373" lon="5.494173998013139">
        <ele>1153.800048828125</ele>
        <time>2011-06-22T10:29:35Z</time>
      </trkpt>
      <trkpt lat="44.148470973595977" lon="5.493635963648558">
        <ele>1149.199951171875</ele>
        <time>2011-06-22T10:29:46Z</time>
      </trkpt>
      <trkpt lat="44.148742966353893" lon="5.493031963706017">
        <ele>1146.4000244140625</ele>
        <time>2011-06-22T10:29:54Z</time>
      </trkpt>
      <trkpt lat="44.148232927545905" lon="5.492491917684674">
        <ele>1142.5999755859375</ele>
        <time>2011-06-22T10:30:03Z</time>
      </trkpt>
      <trkpt lat="44.147841995581985" lon="5.492012975737453">
        <ele>1139.800048828125</ele>
        <time>2011-06-22T10:30:10Z</time>
      </trkpt>
      <trkpt lat="44.147875942289829" lon="5.491046961396933">
        <ele>1135.5999755859375</ele>
        <time>2011-06-22T10:30:19Z</time>
      </trkpt>
      <trkpt lat="44.148308951407671" lon="5.490099973976612">
        <ele>1130.4000244140625</ele>
        <time>2011-06-22T10:30:30Z</time>
      </trkpt>
      <trkpt lat="44.148872969672084" lon="5.489620948210359">
        <ele>1127.199951171875</ele>
        <time>2011-06-22T10:30:38Z</time>
      </trkpt>
      <trkpt lat="44.149134987965226" lon="5.489082997664809">
        <ele>1124.4000244140625</ele>
        <time>2011-06-22T10:30:45Z</time>
      </trkpt>
      <trkpt lat="44.148801974952221" lon="5.488248998299241">
        <ele>1120.4000244140625</ele>
        <time>2011-06-22T10:30:54Z</time>
      </trkpt>
      <trkpt lat="44.148575998842716" lon="5.48732397146523">
        <ele>1116.199951171875</ele>
        <time>2011-06-22T10:31:04Z</time>
      </trkpt>
      <trkpt lat="44.14794391952455" lon="5.486930944025517">
        <ele>1112.800048828125</ele>
        <time>2011-06-22T10:31:13Z</time>
      </trkpt>
      <trkpt lat="44.147248975932598" lon="5.48672491684556">
        <ele>1110</ele>
        <time>2011-06-22T10:31:21Z</time>
      </trkpt>
      <trkpt lat="44.146686969324946" lon="5.486848969012499">
        <ele>1106.5999755859375</ele>
        <time>2011-06-22T10:31:27Z</time>
      </trkpt>
      <trkpt lat="44.146086992695928" lon="5.487502925097942">
        <ele>1101.199951171875</ele>
        <time>2011-06-22T10:31:35Z</time>
      </trkpt>
      <trkpt lat="44.146014992147684" lon="5.488155959174037">
        <ele>1097</ele>
        <time>2011-06-22T10:31:41Z</time>
      </trkpt>
      <trkpt lat="44.146498963236809" lon="5.488453935831785">
        <ele>1093.4000244140625</ele>
        <time>2011-06-22T10:31:48Z</time>
      </trkpt>
      <trkpt lat="44.146819990128279" lon="5.48872098326683">
        <ele>1089</ele>
        <time>2011-06-22T10:31:56Z</time>
      </trkpt>
      <trkpt lat="44.146033935248852" lon="5.488787954673171">
        <ele>1085.199951171875</ele>
        <time>2011-06-22T10:32:07Z</time>
      </trkpt>
      <trkpt lat="44.145472934469581" lon="5.488752918317914">
        <ele>1082</ele>
        <time>2011-06-22T10:32:13Z</time>
      </trkpt>
      <trkpt lat="44.145006984472275" lon="5.488497940823436">
        <ele>1078.800048828125</ele>
        <time>2011-06-22T10:32:18Z</time>
      </trkpt>
      <trkpt lat="44.144575987011194" lon="5.487866951152682">
        <ele>1075.199951171875</ele>
        <time>2011-06-22T10:32:24Z</time>
      </trkpt>
      <trkpt lat="44.14431095123291" lon="5.487027922645211">
        <ele>1071.199951171875</ele>
        <time>2011-06-22T10:32:30Z</time>
      </trkpt>
      <trkpt lat="44.144159993156791" lon="5.485193962231278">
        <ele>1063</ele>
        <time>2011-06-22T10:32:42Z</time>
      </trkpt>
      <trkpt lat="44.143670992925763" lon="5.485025988891721">
        <ele>1060</ele>
        <time>2011-06-22T10:32:52Z</time>
      </trkpt>
      <trkpt lat="44.143093982711434" lon="5.485564945265651">
        <ele>1058.800048828125</ele>
        <time>2011-06-22T10:33:01Z</time>
      </trkpt>
      <trkpt lat="44.142489982768893" lon="5.485830986872315">
        <ele>1056.5999755859375</ele>
        <time>2011-06-22T10:33:08Z</time>
      </trkpt>
      <trkpt lat="44.141903920099139" lon="5.48599099740386">
        <ele>1052.5999755859375</ele>
        <time>2011-06-22T10:33:14Z</time>
      </trkpt>
      <trkpt lat="44.141006972640753" lon="5.486432975158095">
        <ele>1047.4000244140625</ele>
        <time>2011-06-22T10:33:23Z</time>
      </trkpt>
      <trkpt lat="44.140476984903216" lon="5.486675966531038">
        <ele>1045</ele>
        <time>2011-06-22T10:33:28Z</time>
      </trkpt>
      <trkpt lat="44.139795955270529" lon="5.486817955970764">
        <ele>1040.800048828125</ele>
        <time>2011-06-22T10:33:34Z</time>
      </trkpt>
      <trkpt lat="44.139121966436505" lon="5.486805969849229">
        <ele>1036</ele>
        <time>2011-06-22T10:33:40Z</time>
      </trkpt>
      <trkpt lat="44.138655932620168" lon="5.486746961250901">
        <ele>1032.800048828125</ele>
        <time>2011-06-22T10:33:44Z</time>
      </trkpt>
      <trkpt lat="44.1379479970783" lon="5.486665992066264">
        <ele>1028.199951171875</ele>
        <time>2011-06-22T10:33:50Z</time>
      </trkpt>
      <trkpt lat="44.137207958847284" lon="5.486491983756423">
        <ele>1023.2000122070312</ele>
        <time>2011-06-22T10:33:57Z</time>
      </trkpt>
      <trkpt lat="44.136716946959496" lon="5.486108930781484">
        <ele>1018</ele>
        <time>2011-06-22T10:34:02Z</time>
      </trkpt>
      <trkpt lat="44.136206991970539" lon="5.485660918056965">
        <ele>1014.5999755859375</ele>
        <time>2011-06-22T10:34:07Z</time>
      </trkpt>
      <trkpt lat="44.135667951777577" lon="5.485252970829606">
        <ele>1011.4000244140625</ele>
        <time>2011-06-22T10:34:12Z</time>
      </trkpt>
      <trkpt lat="44.135200995951891" lon="5.485009979456663">
        <ele>1007.7999877929687</ele>
        <time>2011-06-22T10:34:16Z</time>
      </trkpt>
      <trkpt lat="44.134472943842411" lon="5.484755923971534">
        <ele>1003.7999877929687</ele>
        <time>2011-06-22T10:34:22Z</time>
      </trkpt>
      <trkpt lat="44.133600974455476" lon="5.484479991719127">
        <ele>995.79998779296875</ele>
        <time>2011-06-22T10:34:30Z</time>
      </trkpt>
      <trkpt lat="44.13302899338305" lon="5.484109930694103">
        <ele>992.20001220703125</ele>
        <time>2011-06-22T10:34:37Z</time>
      </trkpt>
      <trkpt lat="44.132791953161359" lon="5.483555970713496">
        <ele>989</ele>
        <time>2011-06-22T10:34:42Z</time>
      </trkpt>
      <trkpt lat="44.132828917354345" lon="5.482633961364627">
        <ele>984.5999755859375</ele>
        <time>2011-06-22T10:34:49Z</time>
      </trkpt>
      <trkpt lat="44.133248934522271" lon="5.481916973367333">
        <ele>980.4000244140625</ele>
        <time>2011-06-22T10:34:56Z</time>
      </trkpt>
      <trkpt lat="44.133937926962972" lon="5.481703989207745">
        <ele>976</ele>
        <time>2011-06-22T10:35:03Z</time>
      </trkpt>
      <trkpt lat="44.134402954950929" lon="5.481799961999059">
        <ele>973</ele>
        <time>2011-06-22T10:35:08Z</time>
      </trkpt>
      <trkpt lat="44.134845938533545" lon="5.481494944542646">
        <ele>967.79998779296875</ele>
        <time>2011-06-22T10:35:15Z</time>
      </trkpt>
      <trkpt lat="44.134707972407341" lon="5.480784997344017">
        <ele>964.4000244140625</ele>
        <time>2011-06-22T10:35:22Z</time>
      </trkpt>
      <trkpt lat="44.134278986603022" lon="5.479876985773444">
        <ele>953</ele>
        <time>2011-06-22T10:35:30Z</time>
      </trkpt>
      <trkpt lat="44.133854946121573" lon="5.478956988081336">
        <ele>948.5999755859375</ele>
        <time>2011-06-22T10:35:38Z</time>
      </trkpt>
      <trkpt lat="44.133549928665161" lon="5.478269923478365">
        <ele>945.20001220703125</ele>
        <time>2011-06-22T10:35:44Z</time>
      </trkpt>
      <trkpt lat="44.133064951747656" lon="5.477721998468041">
        <ele>941.4000244140625</ele>
        <time>2011-06-22T10:35:51Z</time>
      </trkpt>
      <trkpt lat="44.131987961009145" lon="5.477786958217621">
        <ele>936.79998779296875</ele>
        <time>2011-06-22T10:36:03Z</time>
      </trkpt>
      <trkpt lat="44.131171982735395" lon="5.47778595238924">
        <ele>933</ele>
        <time>2011-06-22T10:36:12Z</time>
      </trkpt>
      <trkpt lat="44.130581980571151" lon="5.477615967392921">
        <ele>930.5999755859375</ele>
        <time>2011-06-22T10:36:19Z</time>
      </trkpt>
      <trkpt lat="44.130010921508074" lon="5.477517982944846">
        <ele>928.4000244140625</ele>
        <time>2011-06-22T10:36:26Z</time>
      </trkpt>
      <trkpt lat="44.129483951255679" lon="5.477413963526487">
        <ele>925.5999755859375</ele>
        <time>2011-06-22T10:36:32Z</time>
      </trkpt>
      <trkpt lat="44.128816919401288" lon="5.476928986608982">
        <ele>921.79998779296875</ele>
        <time>2011-06-22T10:36:40Z</time>
      </trkpt>
      <trkpt lat="44.128398997709155" lon="5.476685995236039">
        <ele>920.20001220703125</ele>
        <time>2011-06-22T10:36:45Z</time>
      </trkpt>
      <trkpt lat="44.127887953072786" lon="5.476542999967933">
        <ele>920.20001220703125</ele>
        <time>2011-06-22T10:36:51Z</time>
      </trkpt>
      <trkpt lat="44.127349918708205" lon="5.476397993043065">
        <ele>920.20001220703125</ele>
        <time>2011-06-22T10:36:58Z</time>
      </trkpt>
      <trkpt lat="44.125750986859202" lon="5.475664995610714">
        <ele>910.20001220703125</ele>
        <time>2011-06-22T10:37:22Z</time>
      </trkpt>
      <trkpt lat="44.123957930132747" lon="5.474355993792415">
        <ele>905.5999755859375</ele>
        <time>2011-06-22T10:37:50Z</time>
      </trkpt>
      <trkpt lat="44.123389972373843" lon="5.474137980490923">
        <ele>898.79998779296875</ele>
        <time>2011-06-22T10:37:58Z</time>
      </trkpt>
      <trkpt lat="44.122852943837643" lon="5.473956931382418">
        <ele>898.20001220703125</ele>
        <time>2011-06-22T10:38:06Z</time>
      </trkpt>
      <trkpt lat="44.122135955840349" lon="5.473743947222829">
        <ele>894.4000244140625</ele>
        <time>2011-06-22T10:38:16Z</time>
      </trkpt>
      <trkpt lat="44.121683919802308" lon="5.473610926419497">
        <ele>893.79998779296875</ele>
        <time>2011-06-22T10:38:22Z</time>
      </trkpt>
      <trkpt lat="44.121223920956254" lon="5.473481928929687">
        <ele>892.79998779296875</ele>
        <time>2011-06-22T10:38:28Z</time>
      </trkpt>
      <trkpt lat="44.120508944615722" lon="5.473266933113337">
        <ele>891</ele>
        <time>2011-06-22T10:38:37Z</time>
      </trkpt>
      <trkpt lat="44.119849959388375" lon="5.473157968372107">
        <ele>889.20001220703125</ele>
        <time>2011-06-22T10:38:45Z</time>
      </trkpt>
      <trkpt lat="44.118969943374395" lon="5.473070964217186">
        <ele>887.20001220703125</ele>
        <time>2011-06-22T10:38:56Z</time>
      </trkpt>
      <trkpt lat="44.118207944557071" lon="5.47295093536377">
        <ele>886</ele>
        <time>2011-06-22T10:39:06Z</time>
      </trkpt>
      <trkpt lat="44.117617942392826" lon="5.472809951752424">
        <ele>885</ele>
        <time>2011-06-22T10:39:14Z</time>
      </trkpt>
      <trkpt lat="44.116984941065311" lon="5.472720935940743">
        <ele>883.4000244140625</ele>
        <time>2011-06-22T10:39:22Z</time>
      </trkpt>
      <trkpt lat="44.116374989971519" lon="5.472698975354433">
        <ele>881.20001220703125</ele>
        <time>2011-06-22T10:39:29Z</time>
      </trkpt>
      <trkpt lat="44.115570997819304" lon="5.47262798063457">
        <ele>879.20001220703125</ele>
        <time>2011-06-22T10:39:38Z</time>
      </trkpt>
      <trkpt lat="44.11498392932117" lon="5.472503928467631">
        <ele>878.4000244140625</ele>
        <time>2011-06-22T10:39:45Z</time>
      </trkpt>
      <trkpt lat="44.114537928253412" lon="5.472304942086339">
        <ele>878.20001220703125</ele>
        <time>2011-06-22T10:39:51Z</time>
      </trkpt>
      <trkpt lat="44.114018920809031" lon="5.471921972930431">
        <ele>878.5999755859375</ele>
        <time>2011-06-22T10:39:59Z</time>
      </trkpt>
      <trkpt lat="44.113190956413746" lon="5.471136923879385">
        <ele>878.4000244140625</ele>
        <time>2011-06-22T10:40:14Z</time>
      </trkpt>
      <trkpt lat="44.112710924819112" lon="5.470725959166884">
        <ele>877.79998779296875</ele>
        <time>2011-06-22T10:40:22Z</time>
      </trkpt>
      <trkpt lat="44.112205998972058" lon="5.470428988337517">
        <ele>876.79998779296875</ele>
        <time>2011-06-22T10:40:29Z</time>
      </trkpt>
      <trkpt lat="44.111682968214154" lon="5.470166970044375">
        <ele>875.5999755859375</ele>
        <time>2011-06-22T10:40:36Z</time>
      </trkpt>
      <trkpt lat="44.111031945794821" lon="5.469861952587962">
        <ele>874.79998779296875</ele>
        <time>2011-06-22T10:40:45Z</time>
      </trkpt>
      <trkpt lat="44.110402967780828" lon="5.469559952616692">
        <ele>874.4000244140625</ele>
        <time>2011-06-22T10:40:54Z</time>
      </trkpt>
      <trkpt lat="44.109789999201894" lon="5.469252923503518">
        <ele>873.5999755859375</ele>
        <time>2011-06-22T10:41:03Z</time>
      </trkpt>
      <trkpt lat="44.109193962067366" lon="5.468898955732584">
        <ele>872.79998779296875</ele>
        <time>2011-06-22T10:41:12Z</time>
      </trkpt>
      <trkpt lat="44.108743937686086" lon="5.468615982681513">
        <ele>872.4000244140625</ele>
        <time>2011-06-22T10:41:19Z</time>
      </trkpt>
      <trkpt lat="44.108275976032019" lon="5.468337954953313">
        <ele>871.79998779296875</ele>
        <time>2011-06-22T10:41:26Z</time>
      </trkpt>
      <trkpt lat="44.107790999114513" lon="5.468037966638804">
        <ele>871</ele>
        <time>2011-06-22T10:41:33Z</time>
      </trkpt>
      <trkpt lat="44.107254976406693" lon="5.467712916433811">
        <ele>869.4000244140625</ele>
        <time>2011-06-22T10:41:40Z</time>
      </trkpt>
      <trkpt lat="44.106642929837108" lon="5.467297928407788">
        <ele>867.20001220703125</ele>
        <time>2011-06-22T10:41:48Z</time>
      </trkpt>
      <trkpt lat="44.105918984860182" lon="5.46676391735673">
        <ele>864.79998779296875</ele>
        <time>2011-06-22T10:41:58Z</time>
      </trkpt>
      <trkpt lat="44.105413975194097" lon="5.466447919607163">
        <ele>863.4000244140625</ele>
        <time>2011-06-22T10:42:05Z</time>
      </trkpt>
      <trkpt lat="44.104831935837865" lon="5.466325962916017">
        <ele>860.79998779296875</ele>
        <time>2011-06-22T10:42:12Z</time>
      </trkpt>
      <trkpt lat="44.10434796474874" lon="5.466079954057932">
        <ele>856.79998779296875</ele>
        <time>2011-06-22T10:42:19Z</time>
      </trkpt>
      <trkpt lat="44.104443937540054" lon="5.465260958299041">
        <ele>854.79998779296875</ele>
        <time>2011-06-22T10:42:28Z</time>
      </trkpt>
      <trkpt lat="44.104764964431524" lon="5.464286981150508">
        <ele>853.20001220703125</ele>
        <time>2011-06-22T10:42:38Z</time>
      </trkpt>
      <trkpt lat="44.10503494553268" lon="5.463683987036347">
        <ele>850</ele>
        <time>2011-06-22T10:42:43Z</time>
      </trkpt>
      <trkpt lat="44.105457980185747" lon="5.463000945746899">
        <ele>846.20001220703125</ele>
        <time>2011-06-22T10:42:49Z</time>
      </trkpt>
      <trkpt lat="44.105964917689562" lon="5.462437933310866">
        <ele>843.4000244140625</ele>
        <time>2011-06-22T10:42:55Z</time>
      </trkpt>
      <trkpt lat="44.106683917343616" lon="5.461721951141954">
        <ele>838.4000244140625</ele>
        <time>2011-06-22T10:43:03Z</time>
      </trkpt>
      <trkpt lat="44.107434935867786" lon="5.460962969809771">
        <ele>833.4000244140625</ele>
        <time>2011-06-22T10:43:11Z</time>
      </trkpt>
      <trkpt lat="44.107884960249066" lon="5.460386965423822">
        <ele>835.20001220703125</ele>
        <time>2011-06-22T10:43:18Z</time>
      </trkpt>
      <trkpt lat="44.108427939936519" lon="5.45936998911202">
        <ele>835.20001220703125</ele>
        <time>2011-06-22T10:43:31Z</time>
      </trkpt>
      <trkpt lat="44.108807975426316" lon="5.458029974251986">
        <ele>831.20001220703125</ele>
        <time>2011-06-22T10:43:42Z</time>
      </trkpt>
      <trkpt lat="44.108972931280732" lon="5.457310974597931">
        <ele>831.4000244140625</ele>
        <time>2011-06-22T10:43:48Z</time>
      </trkpt>
      <trkpt lat="44.109156997874379" lon="5.456473957747221">
        <ele>831.20001220703125</ele>
        <time>2011-06-22T10:43:56Z</time>
      </trkpt>
      <trkpt lat="44.109330922365189" lon="5.455645993351936">
        <ele>831.79998779296875</ele>
        <time>2011-06-22T10:44:05Z</time>
      </trkpt>
      <trkpt lat="44.109494956210256" lon="5.454893968999386">
        <ele>832</ele>
        <time>2011-06-22T10:44:14Z</time>
      </trkpt>
      <trkpt lat="44.109778935089707" lon="5.453621931374073">
        <ele>833.20001220703125</ele>
        <time>2011-06-22T10:44:31Z</time>
      </trkpt>
      <trkpt lat="44.109927965328097" lon="5.452963951975107">
        <ele>833.5999755859375</ele>
        <time>2011-06-22T10:44:40Z</time>
      </trkpt>
      <trkpt lat="44.110072972252965" lon="5.452261967584491">
        <ele>834.20001220703125</ele>
        <time>2011-06-22T10:44:50Z</time>
      </trkpt>
      <trkpt lat="44.110215967521071" lon="5.451609939336777">
        <ele>833.5999755859375</ele>
        <time>2011-06-22T10:44:59Z</time>
      </trkpt>
      <trkpt lat="44.11034295335412" lon="5.451008956879377">
        <ele>832.5999755859375</ele>
        <time>2011-06-22T10:45:06Z</time>
      </trkpt>
      <trkpt lat="44.11049097776413" lon="5.450363969430327">
        <ele>830.79998779296875</ele>
        <time>2011-06-22T10:45:12Z</time>
      </trkpt>
      <trkpt lat="44.110757941380143" lon="5.449105929583311">
        <ele>825.20001220703125</ele>
        <time>2011-06-22T10:45:21Z</time>
      </trkpt>
      <trkpt lat="44.110909989103675" lon="5.448088953271508">
        <ele>819</ele>
        <time>2011-06-22T10:45:27Z</time>
      </trkpt>
      <trkpt lat="44.111038986593485" lon="5.447093937546015">
        <ele>815.79998779296875</ele>
        <time>2011-06-22T10:45:33Z</time>
      </trkpt>
      <trkpt lat="44.111134959384799" lon="5.446215933188796">
        <ele>814.20001220703125</ele>
        <time>2011-06-22T10:45:39Z</time>
      </trkpt>
      <trkpt lat="44.111227998510003" lon="5.445056967437267">
        <ele>816.79998779296875</ele>
        <time>2011-06-22T10:45:50Z</time>
      </trkpt>
      <trkpt lat="44.111152980476618" lon="5.444221962243319">
        <ele>818.79998779296875</ele>
        <time>2011-06-22T10:46:02Z</time>
      </trkpt>
      <trkpt lat="44.111008979380131" lon="5.443575968965888">
        <ele>821.5999755859375</ele>
        <time>2011-06-22T10:46:15Z</time>
      </trkpt>
      <trkpt lat="44.110722988843918" lon="5.442891921848059">
        <ele>823</ele>
        <time>2011-06-22T10:46:32Z</time>
      </trkpt>
      <trkpt lat="44.110414953902364" lon="5.442424966022372">
        <ele>822.5999755859375</ele>
        <time>2011-06-22T10:48:31Z</time>
      </trkpt>
      <trkpt lat="44.109725961461663" lon="5.441675959154964">
        <ele>821.5999755859375</ele>
        <time>2011-06-22T10:48:46Z</time>
      </trkpt>
      <trkpt lat="44.109155992045999" lon="5.441169943660498">
        <ele>820</ele>
        <time>2011-06-22T10:48:56Z</time>
      </trkpt>
      <trkpt lat="44.108614940196276" lon="5.440725954249501">
        <ele>818.79998779296875</ele>
        <time>2011-06-22T10:49:05Z</time>
      </trkpt>
      <trkpt lat="44.108114959672093" lon="5.440290933474898">
        <ele>817.79998779296875</ele>
        <time>2011-06-22T10:49:13Z</time>
      </trkpt>
      <trkpt lat="44.107648925855756" lon="5.439761951565743">
        <ele>816.20001220703125</ele>
        <time>2011-06-22T10:49:21Z</time>
      </trkpt>
      <trkpt lat="44.107388919219375" lon="5.439167926087976">
        <ele>815.20001220703125</ele>
        <time>2011-06-22T10:49:28Z</time>
      </trkpt>
      <trkpt lat="44.107456980273128" lon="5.438503995537758">
        <ele>814.79998779296875</ele>
        <time>2011-06-22T10:49:36Z</time>
      </trkpt>
      <trkpt lat="44.10819198936224" lon="5.437982976436615">
        <ele>812.79998779296875</ele>
        <time>2011-06-22T10:49:47Z</time>
      </trkpt>
      <trkpt lat="44.108740920200944" lon="5.437958920374513">
        <ele>810.79998779296875</ele>
        <time>2011-06-22T10:49:54Z</time>
      </trkpt>
      <trkpt lat="44.109208965674043" lon="5.438054976984859">
        <ele>809.20001220703125</ele>
        <time>2011-06-22T10:50:00Z</time>
      </trkpt>
      <trkpt lat="44.109619930386543" lon="5.437858924269676">
        <ele>807</ele>
        <time>2011-06-22T10:50:09Z</time>
      </trkpt>
      <trkpt lat="44.109182981774211" lon="5.437245955690742">
        <ele>805.20001220703125</ele>
        <time>2011-06-22T10:50:22Z</time>
      </trkpt>
      <trkpt lat="44.108546962961555" lon="5.436705993488431">
        <ele>802.4000244140625</ele>
        <time>2011-06-22T10:50:32Z</time>
      </trkpt>
      <trkpt lat="44.108093921095133" lon="5.436020940542221">
        <ele>800</ele>
        <time>2011-06-22T10:50:40Z</time>
      </trkpt>
      <trkpt lat="44.108011946082115" lon="5.435038916766644">
        <ele>796.79998779296875</ele>
        <time>2011-06-22T10:50:48Z</time>
      </trkpt>
      <trkpt lat="44.108287962153554" lon="5.434307930991054">
        <ele>793.79998779296875</ele>
        <time>2011-06-22T10:50:55Z</time>
      </trkpt>
      <trkpt lat="44.108586944639683" lon="5.433643916621804">
        <ele>791.79998779296875</ele>
        <time>2011-06-22T10:51:04Z</time>
      </trkpt>
      <trkpt lat="44.108107918873429" lon="5.433184923604131">
        <ele>792.4000244140625</ele>
        <time>2011-06-22T10:51:13Z</time>
      </trkpt>
      <trkpt lat="44.107439965009689" lon="5.432970933616161">
        <ele>794.20001220703125</ele>
        <time>2011-06-22T10:51:26Z</time>
      </trkpt>
      <trkpt lat="44.106879970058799" lon="5.432829950004816">
        <ele>796.4000244140625</ele>
        <time>2011-06-22T10:51:40Z</time>
      </trkpt>
      <trkpt lat="44.10632592625916" lon="5.432698940858245">
        <ele>799</ele>
        <time>2011-06-22T10:51:55Z</time>
      </trkpt>
      <trkpt lat="44.105776995420456" lon="5.43253499083221">
        <ele>801.4000244140625</ele>
        <time>2011-06-22T10:52:12Z</time>
      </trkpt>
      <trkpt lat="44.105256982147694" lon="5.432306919246912">
        <ele>804</ele>
        <time>2011-06-22T10:52:30Z</time>
      </trkpt>
      <trkpt lat="44.10479991696775" lon="5.432024952024221">
        <ele>806.4000244140625</ele>
        <time>2011-06-22T10:52:47Z</time>
      </trkpt>
      <trkpt lat="44.104438992217183" lon="5.431535951793194">
        <ele>808.5999755859375</ele>
        <time>2011-06-22T10:53:04Z</time>
      </trkpt>
      <trkpt lat="44.10430395975709" lon="5.430462984368205">
        <ele>811.79998779296875</ele>
        <time>2011-06-22T10:53:27Z</time>
      </trkpt>
      <trkpt lat="44.104204969480634" lon="5.429288931190968">
        <ele>812.79998779296875</ele>
        <time>2011-06-22T10:53:48Z</time>
      </trkpt>
      <trkpt lat="44.104255931451917" lon="5.428630951792002">
        <ele>812</ele>
        <time>2011-06-22T10:53:58Z</time>
      </trkpt>
      <trkpt lat="44.10451895557344" lon="5.428059976547957">
        <ele>811</ele>
        <time>2011-06-22T10:54:07Z</time>
      </trkpt>
      <trkpt lat="44.104489954188466" lon="5.4274239577353">
        <ele>810.20001220703125</ele>
        <time>2011-06-22T10:54:15Z</time>
      </trkpt>
      <trkpt lat="44.104161970317364" lon="5.426740916445851">
        <ele>812</ele>
        <time>2011-06-22T10:54:26Z</time>
      </trkpt>
      <trkpt lat="44.103710940107703" lon="5.425895936787128">
        <ele>813.5999755859375</ele>
        <time>2011-06-22T10:54:41Z</time>
      </trkpt>
      <trkpt lat="44.103345992043614" lon="5.425197975710034">
        <ele>812.79998779296875</ele>
        <time>2011-06-22T10:54:52Z</time>
      </trkpt>
      <trkpt lat="44.102870989590883" lon="5.424326928332448">
        <ele>812</ele>
        <time>2011-06-22T10:55:04Z</time>
      </trkpt>
      <trkpt lat="44.102390957996249" lon="5.423463927581906">
        <ele>810.79998779296875</ele>
        <time>2011-06-22T10:55:15Z</time>
      </trkpt>
      <trkpt lat="44.102064985781908" lon="5.422859927639365">
        <ele>810.20001220703125</ele>
        <time>2011-06-22T10:55:23Z</time>
      </trkpt>
      <trkpt lat="44.101802967488766" lon="5.42224595323205">
        <ele>809.4000244140625</ele>
        <time>2011-06-22T10:55:31Z</time>
      </trkpt>
      <trkpt lat="44.101537931710482" lon="5.421297959983349">
        <ele>807.4000244140625</ele>
        <time>2011-06-22T10:55:41Z</time>
      </trkpt>
      <trkpt lat="44.10131991840899" lon="5.420640986412764">
        <ele>806</ele>
        <time>2011-06-22T10:55:47Z</time>
      </trkpt>
      <trkpt lat="44.101031916216016" lon="5.420082919299603">
        <ele>804.20001220703125</ele>
        <time>2011-06-22T10:55:53Z</time>
      </trkpt>
      <trkpt lat="44.100539982318878" lon="5.419342964887619">
        <ele>803.4000244140625</ele>
        <time>2011-06-22T10:56:02Z</time>
      </trkpt>
      <trkpt lat="44.100116947665811" lon="5.418723961338401">
        <ele>804.4000244140625</ele>
        <time>2011-06-22T10:56:11Z</time>
      </trkpt>
      <trkpt lat="44.099661977961659" lon="5.418062964454293">
        <ele>805</ele>
        <time>2011-06-22T10:56:23Z</time>
      </trkpt>
      <trkpt lat="44.099096953868866" lon="5.417261989787221">
        <ele>806.5999755859375</ele>
        <time>2011-06-22T10:56:40Z</time>
      </trkpt>
      <trkpt lat="44.098752960562706" lon="5.416762931272388">
        <ele>807.79998779296875</ele>
        <time>2011-06-22T10:56:52Z</time>
      </trkpt>
      <trkpt lat="44.098125994205475" lon="5.415855925530195">
        <ele>806.79998779296875</ele>
        <time>2011-06-22T10:57:10Z</time>
      </trkpt>
      <trkpt lat="44.09771092236042" lon="5.415250919759274">
        <ele>806.20001220703125</ele>
        <time>2011-06-22T10:57:21Z</time>
      </trkpt>
      <trkpt lat="44.097310937941074" lon="5.414684973657131">
        <ele>806</ele>
        <time>2011-06-22T10:57:34Z</time>
      </trkpt>
      <trkpt lat="44.096775921061635" lon="5.413924986496568">
        <ele>805.20001220703125</ele>
        <time>2011-06-22T10:57:54Z</time>
      </trkpt>
      <trkpt lat="44.096461934968829" lon="5.413325931876898">
        <ele>804.79998779296875</ele>
        <time>2011-06-22T10:58:09Z</time>
      </trkpt>
      <trkpt lat="44.09600998274982" lon="5.4128129594028">
        <ele>804.4000244140625</ele>
        <time>2011-06-22T10:58:22Z</time>
      </trkpt>
      <trkpt lat="44.095571944490075" lon="5.412159925326705">
        <ele>803.5999755859375</ele>
        <time>2011-06-22T10:58:37Z</time>
      </trkpt>
      <trkpt lat="44.095385950058699" lon="5.411586938425899">
        <ele>803.4000244140625</ele>
        <time>2011-06-22T10:58:48Z</time>
      </trkpt>
      <trkpt lat="44.095151927322149" lon="5.410749921575189">
        <ele>801.4000244140625</ele>
        <time>2011-06-22T10:59:03Z</time>
      </trkpt>
      <trkpt lat="44.094738950952888" lon="5.410422943532467">
        <ele>798.5999755859375</ele>
        <time>2011-06-22T10:59:35Z</time>
      </trkpt>
      <trkpt lat="44.094824949279428" lon="5.410532997921109">
        <ele>798.20001220703125</ele>
        <time>2011-06-22T11:00:12Z</time>
      </trkpt>
      <trkpt lat="44.095183946192265" lon="5.410889983177185">
        <ele>800.5999755859375</ele>
        <time>2011-06-22T11:00:24Z</time>
      </trkpt>
      <trkpt lat="44.095418974757195" lon="5.411825990304351">
        <ele>803.79998779296875</ele>
        <time>2011-06-22T11:00:44Z</time>
      </trkpt>
      <trkpt lat="44.095792975276709" lon="5.412557981908321">
        <ele>804.20001220703125</ele>
        <time>2011-06-22T11:00:59Z</time>
      </trkpt>
      <trkpt lat="44.096187930554152" lon="5.413144966587424">
        <ele>804.4000244140625</ele>
        <time>2011-06-22T11:01:11Z</time>
      </trkpt>
      <trkpt lat="44.096513986587524" lon="5.413423916324973">
        <ele>805</ele>
        <time>2011-06-22T11:01:23Z</time>
      </trkpt>
      <trkpt lat="44.096928974613547" lon="5.41341595351696">
        <ele>805</ele>
        <time>2011-06-22T11:01:36Z</time>
      </trkpt>
      <trkpt lat="44.096336960792542" lon="5.413099955767393">
        <ele>808.20001220703125</ele>
        <time>2011-06-22T13:24:21Z</time>
      </trkpt>
      <trkpt lat="44.095772942528129" lon="5.412477934733033">
        <ele>808.5999755859375</ele>
        <time>2011-06-22T13:24:40Z</time>
      </trkpt>
      <trkpt lat="44.095399947836995" lon="5.411646952852607">
        <ele>808.20001220703125</ele>
        <time>2011-06-22T13:24:55Z</time>
      </trkpt>
      <trkpt lat="44.095269944518805" lon="5.411044964566827">
        <ele>807.4000244140625</ele>
        <time>2011-06-22T13:25:05Z</time>
      </trkpt>
      <trkpt lat="44.094900973141193" lon="5.410488992929459">
        <ele>805.20001220703125</ele>
        <time>2011-06-22T13:25:14Z</time>
      </trkpt>
      <trkpt lat="44.094259925186634" lon="5.410475917160511">
        <ele>801.20001220703125</ele>
        <time>2011-06-22T13:25:23Z</time>
      </trkpt>
      <trkpt lat="44.093859940767288" lon="5.411285944283009">
        <ele>797.5999755859375</ele>
        <time>2011-06-22T13:25:32Z</time>
      </trkpt>
      <trkpt lat="44.093472948297858" lon="5.411929925903678">
        <ele>793.4000244140625</ele>
        <time>2011-06-22T13:25:40Z</time>
      </trkpt>
      <trkpt lat="44.093106994405389" lon="5.411575958132744">
        <ele>790</ele>
        <time>2011-06-22T13:25:47Z</time>
      </trkpt>
      <trkpt lat="44.09252998419106" lon="5.410701977089047">
        <ele>785.20001220703125</ele>
        <time>2011-06-22T13:25:59Z</time>
      </trkpt>
      <trkpt lat="44.092018939554691" lon="5.409846939146519">
        <ele>782.20001220703125</ele>
        <time>2011-06-22T13:26:09Z</time>
      </trkpt>
      <trkpt lat="44.091638987883925" lon="5.409473944455385">
        <ele>778.4000244140625</ele>
        <time>2011-06-22T13:26:22Z</time>
      </trkpt>
      <trkpt lat="44.090797947719693" lon="5.410139970481396">
        <ele>775.20001220703125</ele>
        <time>2011-06-22T13:26:36Z</time>
      </trkpt>
      <trkpt lat="44.090265948325396" lon="5.410632994025946">
        <ele>774.5999755859375</ele>
        <time>2011-06-22T13:26:45Z</time>
      </trkpt>
      <trkpt lat="44.090020945295691" lon="5.411306982859969">
        <ele>773.5999755859375</ele>
        <time>2011-06-22T13:26:54Z</time>
      </trkpt>
      <trkpt lat="44.089683992788196" lon="5.411693975329399">
        <ele>771.79998779296875</ele>
        <time>2011-06-22T13:27:00Z</time>
      </trkpt>
      <trkpt lat="44.089125925675035" lon="5.411531953141093">
        <ele>768.4000244140625</ele>
        <time>2011-06-22T13:27:07Z</time>
      </trkpt>
      <trkpt lat="44.088675985112786" lon="5.411749966442585">
        <ele>765.5999755859375</ele>
        <time>2011-06-22T13:27:14Z</time>
      </trkpt>
      <trkpt lat="44.08853692933917" lon="5.412717992439866">
        <ele>761.4000244140625</ele>
        <time>2011-06-22T13:27:23Z</time>
      </trkpt>
      <trkpt lat="44.088411955162883" lon="5.412742970511317">
        <ele>757.20001220703125</ele>
        <time>2011-06-22T13:27:33Z</time>
      </trkpt>
      <trkpt lat="44.088474987074733" lon="5.411994969472289">
        <ele>754.4000244140625</ele>
        <time>2011-06-22T13:27:40Z</time>
      </trkpt>
      <trkpt lat="44.088686965405941" lon="5.411041947081685">
        <ele>750.79998779296875</ele>
        <time>2011-06-22T13:27:48Z</time>
      </trkpt>
      <trkpt lat="44.089185940101743" lon="5.410674987360835">
        <ele>747.79998779296875</ele>
        <time>2011-06-22T13:27:54Z</time>
      </trkpt>
      <trkpt lat="44.089660942554474" lon="5.409257942810655">
        <ele>741.20001220703125</ele>
        <time>2011-06-22T13:28:05Z</time>
      </trkpt>
      <trkpt lat="44.089794969186187" lon="5.408410951495171">
        <ele>737.20001220703125</ele>
        <time>2011-06-22T13:28:11Z</time>
      </trkpt>
      <trkpt lat="44.089735960587859" lon="5.407470921054483">
        <ele>732.5999755859375</ele>
        <time>2011-06-22T13:28:18Z</time>
      </trkpt>
      <trkpt lat="44.089526999741793" lon="5.406931964680553">
        <ele>727.20001220703125</ele>
        <time>2011-06-22T13:28:27Z</time>
      </trkpt>
      <trkpt lat="44.089010925963521" lon="5.406909920275211">
        <ele>726.79998779296875</ele>
        <time>2011-06-22T13:28:35Z</time>
      </trkpt>
      <trkpt lat="44.088501976802945" lon="5.406877985224128">
        <ele>726</ele>
        <time>2011-06-22T13:28:42Z</time>
      </trkpt>
      <trkpt lat="44.087913986295462" lon="5.406385967507958">
        <ele>724.79998779296875</ele>
        <time>2011-06-22T13:28:51Z</time>
      </trkpt>
      <trkpt lat="44.087386932224035" lon="5.405760928988457">
        <ele>724.5999755859375</ele>
        <time>2011-06-22T13:29:00Z</time>
      </trkpt>
      <trkpt lat="44.086794918403029" lon="5.405041929334402">
        <ele>724.79998779296875</ele>
        <time>2011-06-22T13:29:11Z</time>
      </trkpt>
      <trkpt lat="44.086393928155303" lon="5.404579918831587">
        <ele>725.20001220703125</ele>
        <time>2011-06-22T13:29:19Z</time>
      </trkpt>
      <trkpt lat="44.086024956777692" lon="5.404141964390874">
        <ele>725.4000244140625</ele>
        <time>2011-06-22T13:29:27Z</time>
      </trkpt>
      <trkpt lat="44.085617931559682" lon="5.403667967766523">
        <ele>725.5999755859375</ele>
        <time>2011-06-22T13:29:36Z</time>
      </trkpt>
      <trkpt lat="44.085177965462208" lon="5.403214925900102">
        <ele>726</ele>
        <time>2011-06-22T13:29:45Z</time>
      </trkpt>
      <trkpt lat="44.084397945553064" lon="5.402975957840681">
        <ele>725.5999755859375</ele>
        <time>2011-06-22T13:29:59Z</time>
      </trkpt>
      <trkpt lat="44.083884973078966" lon="5.402845954522491">
        <ele>725.79998779296875</ele>
        <time>2011-06-22T13:30:08Z</time>
      </trkpt>
      <trkpt lat="44.083230933174491" lon="5.402681920677424">
        <ele>726.20001220703125</ele>
        <time>2011-06-22T13:30:19Z</time>
      </trkpt>
      <trkpt lat="44.08245493657887" lon="5.402498943731189">
        <ele>726</ele>
        <time>2011-06-22T13:30:32Z</time>
      </trkpt>
      <trkpt lat="44.081851942464709" lon="5.402344968169928">
        <ele>725.20001220703125</ele>
        <time>2011-06-22T13:30:42Z</time>
      </trkpt>
      <trkpt lat="44.081200920045376" lon="5.402185963466764">
        <ele>725.4000244140625</ele>
        <time>2011-06-22T13:30:53Z</time>
      </trkpt>
      <trkpt lat="44.080493990331888" lon="5.402009943500161">
        <ele>724.79998779296875</ele>
        <time>2011-06-22T13:31:05Z</time>
      </trkpt>
      <trkpt lat="44.079956961795688" lon="5.40198496542871">
        <ele>724.79998779296875</ele>
        <time>2011-06-22T13:31:14Z</time>
      </trkpt>
      <trkpt lat="44.079388920217752" lon="5.402741935104132">
        <ele>723.79998779296875</ele>
        <time>2011-06-22T13:31:27Z</time>
      </trkpt>
      <trkpt lat="44.078771928325295" lon="5.403355993330479">
        <ele>723.20001220703125</ele>
        <time>2011-06-22T13:31:39Z</time>
      </trkpt>
      <trkpt lat="44.078334979712963" lon="5.403593955561519">
        <ele>724.5999755859375</ele>
        <time>2011-06-22T13:31:47Z</time>
      </trkpt>
      <trkpt lat="44.077863916754723" lon="5.403786990791559">
        <ele>725.4000244140625</ele>
        <time>2011-06-22T13:31:56Z</time>
      </trkpt>
      <trkpt lat="44.076948948204517" lon="5.403849938884378">
        <ele>726.5999755859375</ele>
        <time>2011-06-22T13:32:14Z</time>
      </trkpt>
      <trkpt lat="44.076482998207211" lon="5.403882963582873">
        <ele>727.79998779296875</ele>
        <time>2011-06-22T13:32:24Z</time>
      </trkpt>
      <trkpt lat="44.075962984934449" lon="5.40391699410975">
        <ele>728.4000244140625</ele>
        <time>2011-06-22T13:32:35Z</time>
      </trkpt>
      <trkpt lat="44.075096966698766" lon="5.4038539621979">
        <ele>730</ele>
        <time>2011-06-22T13:32:53Z</time>
      </trkpt>
      <trkpt lat="44.074262967333198" lon="5.403782967478037">
        <ele>731.5999755859375</ele>
        <time>2011-06-22T13:33:11Z</time>
      </trkpt>
      <trkpt lat="44.073484959080815" lon="5.404015984386206">
        <ele>732.79998779296875</ele>
        <time>2011-06-22T13:33:28Z</time>
      </trkpt>
      <trkpt lat="44.072947930544615" lon="5.403915988281369">
        <ele>733.79998779296875</ele>
        <time>2011-06-22T13:33:39Z</time>
      </trkpt>
      <trkpt lat="44.072510981932282" lon="5.403762934729457">
        <ele>734.79998779296875</ele>
        <time>2011-06-22T13:33:48Z</time>
      </trkpt>
      <trkpt lat="44.072053916752338" lon="5.403411984443665">
        <ele>736.20001220703125</ele>
        <time>2011-06-22T13:33:59Z</time>
      </trkpt>
      <trkpt lat="44.071465926244855" lon="5.403324980288744">
        <ele>738</ele>
        <time>2011-06-22T13:34:13Z</time>
      </trkpt>
      <trkpt lat="44.070975920185447" lon="5.403562942519784">
        <ele>739.20001220703125</ele>
        <time>2011-06-22T13:34:25Z</time>
      </trkpt>
      <trkpt lat="44.070501923561096" lon="5.403778944164515">
        <ele>739.5999755859375</ele>
        <time>2011-06-22T13:34:36Z</time>
      </trkpt>
      <trkpt lat="44.069711929187179" lon="5.40374893695116">
        <ele>741</ele>
        <time>2011-06-22T13:34:54Z</time>
      </trkpt>
      <trkpt lat="44.069287972524762" lon="5.403493959456682">
        <ele>742.20001220703125</ele>
        <time>2011-06-22T13:35:04Z</time>
      </trkpt>
      <trkpt lat="44.068869967013597" lon="5.403246944770217">
        <ele>743.79998779296875</ele>
        <time>2011-06-22T13:35:14Z</time>
      </trkpt>
      <trkpt lat="44.068173933774233" lon="5.402825921773911">
        <ele>746.4000244140625</ele>
        <time>2011-06-22T13:35:32Z</time>
      </trkpt>
      <trkpt lat="44.067736985161901" lon="5.402559963986278">
        <ele>747.5999755859375</ele>
        <time>2011-06-22T13:35:44Z</time>
      </trkpt>
      <trkpt lat="44.067012956365943" lon="5.402126954868436">
        <ele>749.79998779296875</ele>
        <time>2011-06-22T13:36:04Z</time>
      </trkpt>
      <trkpt lat="44.066367968916893" lon="5.401735939085484">
        <ele>751.5999755859375</ele>
        <time>2011-06-22T13:36:22Z</time>
      </trkpt>
      <trkpt lat="44.065644945949316" lon="5.401315921917558">
        <ele>754</ele>
        <time>2011-06-22T13:36:42Z</time>
      </trkpt>
      <trkpt lat="44.064951930195093" lon="5.401656981557608">
        <ele>755.4000244140625</ele>
        <time>2011-06-22T13:37:01Z</time>
      </trkpt>
      <trkpt lat="44.064262937754393" lon="5.402209935709834">
        <ele>756.79998779296875</ele>
        <time>2011-06-22T13:37:20Z</time>
      </trkpt>
      <trkpt lat="44.063557935878634" lon="5.402191998437047">
        <ele>759.20001220703125</ele>
        <time>2011-06-22T13:37:37Z</time>
      </trkpt>
      <trkpt lat="44.06314093619585" lon="5.401856973767281">
        <ele>760.4000244140625</ele>
        <time>2011-06-22T13:37:48Z</time>
      </trkpt>
      <trkpt lat="44.062700970098376" lon="5.401096986606717">
        <ele>762.79998779296875</ele>
        <time>2011-06-22T13:38:05Z</time>
      </trkpt>
      <trkpt lat="44.062125971540809" lon="5.400234991684556">
        <ele>765</ele>
        <time>2011-06-22T13:38:24Z</time>
      </trkpt>
      <trkpt lat="44.061759933829308" lon="5.399842970073223">
        <ele>766</ele>
        <time>2011-06-22T13:38:34Z</time>
      </trkpt>
      <trkpt lat="44.061042945832014" lon="5.399133944883943">
        <ele>767.5999755859375</ele>
        <time>2011-06-22T13:38:54Z</time>
      </trkpt>
      <trkpt lat="44.060309948399663" lon="5.398600939661264">
        <ele>770</ele>
        <time>2011-06-22T13:39:13Z</time>
      </trkpt>
      <trkpt lat="44.059877945110202" lon="5.3983089979738">
        <ele>771.79998779296875</ele>
        <time>2011-06-22T13:39:24Z</time>
      </trkpt>
      <trkpt lat="44.058908997103572" lon="5.397785967215896">
        <ele>774.4000244140625</ele>
        <time>2011-06-22T13:39:48Z</time>
      </trkpt>
      <trkpt lat="44.058298962190747" lon="5.397412972524762">
        <ele>776</ele>
        <time>2011-06-22T13:40:03Z</time>
      </trkpt>
      <trkpt lat="44.05791599303484" lon="5.397011982277036">
        <ele>776.20001220703125</ele>
        <time>2011-06-22T13:40:14Z</time>
      </trkpt>
      <trkpt lat="44.057228928431869" lon="5.396529939025641">
        <ele>777.79998779296875</ele>
        <time>2011-06-22T13:40:32Z</time>
      </trkpt>
      <trkpt lat="44.056945955380797" lon="5.395489996299148">
        <ele>778.79998779296875</ele>
        <time>2011-06-22T13:40:51Z</time>
      </trkpt>
      <trkpt lat="44.056573966518044" lon="5.394724979996681">
        <ele>780.5999755859375</ele>
        <time>2011-06-22T13:41:49Z</time>
      </trkpt>
      <trkpt lat="44.05619996599853" lon="5.394171942025423">
        <ele>781.4000244140625</ele>
        <time>2011-06-22T13:42:01Z</time>
      </trkpt>
      <trkpt lat="44.055703924968839" lon="5.394037999212742">
        <ele>781.5999755859375</ele>
        <time>2011-06-22T13:42:13Z</time>
      </trkpt>
      <trkpt lat="44.055238980799913" lon="5.393966920673847">
        <ele>782.5999755859375</ele>
        <time>2011-06-22T13:42:24Z</time>
      </trkpt>
      <trkpt lat="44.055091962218285" lon="5.393198970705271">
        <ele>784.79998779296875</ele>
        <time>2011-06-22T13:42:38Z</time>
      </trkpt>
      <trkpt lat="44.054367933422327" lon="5.392769984900951">
        <ele>786.4000244140625</ele>
        <time>2011-06-22T13:42:58Z</time>
      </trkpt>
      <trkpt lat="44.053628984838724" lon="5.392802925780416">
        <ele>788.20001220703125</ele>
        <time>2011-06-22T13:43:16Z</time>
      </trkpt>
      <trkpt lat="44.053177954629064" lon="5.392929995432496">
        <ele>789.20001220703125</ele>
        <time>2011-06-22T13:43:27Z</time>
      </trkpt>
      <trkpt lat="44.052858939394355" lon="5.393593925982714">
        <ele>790.5999755859375</ele>
        <time>2011-06-22T13:43:42Z</time>
      </trkpt>
      <trkpt lat="44.052431965246797" lon="5.39381998591125">
        <ele>792</ele>
        <time>2011-06-22T13:43:54Z</time>
      </trkpt>
      <trkpt lat="44.051968948915601" lon="5.393510945141316">
        <ele>793.4000244140625</ele>
        <time>2011-06-22T13:44:06Z</time>
      </trkpt>
      <trkpt lat="44.051324967294931" lon="5.393557967618108">
        <ele>795</ele>
        <time>2011-06-22T13:44:21Z</time>
      </trkpt>
      <trkpt lat="44.050761954858899" lon="5.393870947882533">
        <ele>796</ele>
        <time>2011-06-22T13:44:36Z</time>
      </trkpt>
      <trkpt lat="44.050434976816177" lon="5.394348967820406">
        <ele>797.20001220703125</ele>
        <time>2011-06-22T13:44:47Z</time>
      </trkpt>
      <trkpt lat="44.049885962158442" lon="5.394311919808388">
        <ele>799.4000244140625</ele>
        <time>2011-06-22T13:45:00Z</time>
      </trkpt>
      <trkpt lat="44.049223959445953" lon="5.394231956452131">
        <ele>801.20001220703125</ele>
        <time>2011-06-22T13:45:16Z</time>
      </trkpt>
      <trkpt lat="44.048585928976536" lon="5.394329940900207">
        <ele>802.5999755859375</ele>
        <time>2011-06-22T13:45:33Z</time>
      </trkpt>
      <trkpt lat="44.047948988154531" lon="5.394728919491172">
        <ele>804.4000244140625</ele>
        <time>2011-06-22T13:45:51Z</time>
      </trkpt>
      <trkpt lat="44.047514973208308" lon="5.395126976072788">
        <ele>806.20001220703125</ele>
        <time>2011-06-22T13:46:05Z</time>
      </trkpt>
      <trkpt lat="44.047390921041369" lon="5.395790990442038">
        <ele>807.79998779296875</ele>
        <time>2011-06-22T13:46:18Z</time>
      </trkpt>
      <trkpt lat="44.047268964350224" lon="5.396520970389247">
        <ele>809.20001220703125</ele>
        <time>2011-06-22T13:46:32Z</time>
      </trkpt>
      <trkpt lat="44.046859927475452" lon="5.39682799950242">
        <ele>811.20001220703125</ele>
        <time>2011-06-22T13:46:45Z</time>
      </trkpt>
      <trkpt lat="44.046196918934584" lon="5.396918943151832">
        <ele>813</ele>
        <time>2011-06-22T13:47:03Z</time>
      </trkpt>
      <trkpt lat="44.045665925368667" lon="5.396986920386553">
        <ele>815</ele>
        <time>2011-06-22T13:47:18Z</time>
      </trkpt>
      <trkpt lat="44.044928988441825" lon="5.397066967561841">
        <ele>817.20001220703125</ele>
        <time>2011-06-22T13:47:38Z</time>
      </trkpt>
      <trkpt lat="44.04410395771265" lon="5.397105943411589">
        <ele>819.5999755859375</ele>
        <time>2011-06-22T13:48:00Z</time>
      </trkpt>
      <trkpt lat="44.04332997277379" lon="5.396805955097079">
        <ele>821.20001220703125</ele>
        <time>2011-06-22T13:48:20Z</time>
      </trkpt>
      <trkpt lat="44.042563950642943" lon="5.396474953740835">
        <ele>823</ele>
        <time>2011-06-22T13:48:40Z</time>
      </trkpt>
      <trkpt lat="44.041951987892389" lon="5.396202960982919">
        <ele>824.79998779296875</ele>
        <time>2011-06-22T13:48:57Z</time>
      </trkpt>
      <trkpt lat="44.041382940486073" lon="5.395959969609976">
        <ele>826</ele>
        <time>2011-06-22T13:49:13Z</time>
      </trkpt>
      <trkpt lat="44.040746921673417" lon="5.395672973245382">
        <ele>827.5999755859375</ele>
        <time>2011-06-22T13:49:31Z</time>
      </trkpt>
      <trkpt lat="44.040207965299487" lon="5.39543392136693">
        <ele>828.5999755859375</ele>
        <time>2011-06-22T13:49:46Z</time>
      </trkpt>
      <trkpt lat="44.039600947871804" lon="5.39517592638731">
        <ele>829.79998779296875</ele>
        <time>2011-06-22T13:50:03Z</time>
      </trkpt>
      <trkpt lat="44.039061991497874" lon="5.394928995519877">
        <ele>829.5999755859375</ele>
        <time>2011-06-22T13:50:16Z</time>
      </trkpt>
      <trkpt lat="44.038615990430117" lon="5.394579973071814">
        <ele>828.5999755859375</ele>
        <time>2011-06-22T13:50:25Z</time>
      </trkpt>
      <trkpt lat="44.038371993228793" lon="5.393897937610745">
        <ele>826.4000244140625</ele>
        <time>2011-06-22T13:50:33Z</time>
      </trkpt>
      <trkpt lat="44.03834299184382" lon="5.393144991248846">
        <ele>825</ele>
        <time>2011-06-22T13:50:40Z</time>
      </trkpt>
      <trkpt lat="44.038306949660182" lon="5.392161961644888">
        <ele>823.4000244140625</ele>
        <time>2011-06-22T13:50:48Z</time>
      </trkpt>
      <trkpt lat="44.038272919133306" lon="5.391187984496355">
        <ele>822</ele>
        <time>2011-06-22T13:50:56Z</time>
      </trkpt>
      <trkpt lat="44.038223968818784" lon="5.389875965192914">
        <ele>820.4000244140625</ele>
        <time>2011-06-22T13:51:07Z</time>
      </trkpt>
      <trkpt lat="44.038438964635134" lon="5.38842991925776">
        <ele>819.4000244140625</ele>
        <time>2011-06-22T13:51:20Z</time>
      </trkpt>
      <trkpt lat="44.038541978225112" lon="5.387572953477502">
        <ele>819</ele>
        <time>2011-06-22T13:51:28Z</time>
      </trkpt>
      <trkpt lat="44.038612972944975" lon="5.386538961902261">
        <ele>818.4000244140625</ele>
        <time>2011-06-22T13:51:38Z</time>
      </trkpt>
      <trkpt lat="44.038805924355984" lon="5.385942924767733">
        <ele>818.20001220703125</ele>
        <time>2011-06-22T13:51:45Z</time>
      </trkpt>
      <trkpt lat="44.039050927385688" lon="5.385293997824192">
        <ele>818</ele>
        <time>2011-06-22T13:51:53Z</time>
      </trkpt>
      <trkpt lat="44.039250919595361" lon="5.38473199121654">
        <ele>817.4000244140625</ele>
        <time>2011-06-22T13:52:00Z</time>
      </trkpt>
      <trkpt lat="44.039349993690848" lon="5.383437993004918">
        <ele>817</ele>
        <time>2011-06-22T13:52:15Z</time>
      </trkpt>
      <trkpt lat="44.039756935089827" lon="5.382578931748867">
        <ele>816.5999755859375</ele>
        <time>2011-06-22T13:52:27Z</time>
      </trkpt>
      <trkpt lat="44.040076956152916" lon="5.382083980366588">
        <ele>816.79998779296875</ele>
        <time>2011-06-22T13:52:35Z</time>
      </trkpt>
      <trkpt lat="44.040420949459076" lon="5.381516944617033">
        <ele>817.4000244140625</ele>
        <time>2011-06-22T13:52:44Z</time>
      </trkpt>
      <trkpt lat="44.040679950267076" lon="5.380967929959297">
        <ele>817.79998779296875</ele>
        <time>2011-06-22T13:52:52Z</time>
      </trkpt>
      <trkpt lat="44.040939956903458" lon="5.380312968045473">
        <ele>818.5999755859375</ele>
        <time>2011-06-22T13:53:01Z</time>
      </trkpt>
      <trkpt lat="44.041235921904445" lon="5.379324993118644">
        <ele>819</ele>
        <time>2011-06-22T13:53:15Z</time>
      </trkpt>
      <trkpt lat="44.041557954624295" lon="5.378166949376464">
        <ele>819.79998779296875</ele>
        <time>2011-06-22T13:53:32Z</time>
      </trkpt>
      <trkpt lat="44.041763981804252" lon="5.377419954165816">
        <ele>820.20001220703125</ele>
        <time>2011-06-22T13:53:43Z</time>
      </trkpt>
      <trkpt lat="44.041867917403579" lon="5.376579919829965">
        <ele>821</ele>
        <time>2011-06-22T13:53:55Z</time>
      </trkpt>
      <trkpt lat="44.041708996519446" lon="5.375981954857707">
        <ele>821.4000244140625</ele>
        <time>2011-06-22T13:54:04Z</time>
      </trkpt>
      <trkpt lat="44.041108936071396" lon="5.375399999320507">
        <ele>822</ele>
        <time>2011-06-22T13:54:18Z</time>
      </trkpt>
      <trkpt lat="44.040262950584292" lon="5.375280976295471">
        <ele>822.5999755859375</ele>
        <time>2011-06-22T13:54:34Z</time>
      </trkpt>
      <trkpt lat="44.039770932868123" lon="5.375225991010666">
        <ele>822.79998779296875</ele>
        <time>2011-06-22T13:54:43Z</time>
      </trkpt>
      <trkpt lat="44.039207920432091" lon="5.375007977709174">
        <ele>822.20001220703125</ele>
        <time>2011-06-22T13:54:53Z</time>
      </trkpt>
      <trkpt lat="44.038613978773355" lon="5.37414095364511">
        <ele>820.79998779296875</ele>
        <time>2011-06-22T13:55:06Z</time>
      </trkpt>
      <trkpt lat="44.038276942446828" lon="5.373587999492884">
        <ele>819.4000244140625</ele>
        <time>2011-06-22T13:55:13Z</time>
      </trkpt>
      <trkpt lat="44.038040991872549" lon="5.372908981516957">
        <ele>817.79998779296875</ele>
        <time>2011-06-22T13:55:20Z</time>
      </trkpt>
      <trkpt lat="44.038007967174053" lon="5.372232981026173">
        <ele>816.4000244140625</ele>
        <time>2011-06-22T13:55:26Z</time>
      </trkpt>
      <trkpt lat="44.037997992709279" lon="5.371264955028892">
        <ele>814.4000244140625</ele>
        <time>2011-06-22T13:55:34Z</time>
      </trkpt>
      <trkpt lat="44.037962956354022" lon="5.370115963742137">
        <ele>812.20001220703125</ele>
        <time>2011-06-22T13:55:43Z</time>
      </trkpt>
      <trkpt lat="44.037242950871587" lon="5.368520971387625">
        <ele>808.4000244140625</ele>
        <time>2011-06-22T13:55:58Z</time>
      </trkpt>
      <trkpt lat="44.036675998941064" lon="5.36771597340703">
        <ele>806</ele>
        <time>2011-06-22T13:56:07Z</time>
      </trkpt>
      <trkpt lat="44.03593797236681" lon="5.367187997326255">
        <ele>803.20001220703125</ele>
        <time>2011-06-22T13:56:16Z</time>
      </trkpt>
      <trkpt lat="44.035107996314764" lon="5.366613920778036">
        <ele>801</ele>
        <time>2011-06-22T13:56:26Z</time>
      </trkpt>
      <trkpt lat="44.034437946975231" lon="5.366139924153686">
        <ele>799.4000244140625</ele>
        <time>2011-06-22T13:56:35Z</time>
      </trkpt>
      <trkpt lat="44.033892955631018" lon="5.365762989968061">
        <ele>798</ele>
        <time>2011-06-22T13:56:43Z</time>
      </trkpt>
      <trkpt lat="44.03320899233222" lon="5.365463923662901">
        <ele>797.4000244140625</ele>
        <time>2011-06-22T13:56:53Z</time>
      </trkpt>
      <trkpt lat="44.032540954649448" lon="5.365558974444866">
        <ele>796</ele>
        <time>2011-06-22T13:57:02Z</time>
      </trkpt>
      <trkpt lat="44.032107945531607" lon="5.365375997498632">
        <ele>795.5999755859375</ele>
        <time>2011-06-22T13:57:08Z</time>
      </trkpt>
      <trkpt lat="44.031657921150327" lon="5.364720951765776">
        <ele>794.5999755859375</ele>
        <time>2011-06-22T13:57:17Z</time>
      </trkpt>
      <trkpt lat="44.031197922304273" lon="5.364325996488333">
        <ele>794.4000244140625</ele>
        <time>2011-06-22T13:57:25Z</time>
      </trkpt>
      <trkpt lat="44.030585959553719" lon="5.364444935694337">
        <ele>792.4000244140625</ele>
        <time>2011-06-22T13:57:34Z</time>
      </trkpt>
      <trkpt lat="44.02973192743957" lon="5.364066995680332">
        <ele>790.20001220703125</ele>
        <time>2011-06-22T13:57:47Z</time>
      </trkpt>
      <trkpt lat="44.028722997754812" lon="5.364033970981836">
        <ele>788</ele>
        <time>2011-06-22T13:58:02Z</time>
      </trkpt>
      <trkpt lat="44.028175994753838" lon="5.364068923518062">
        <ele>787</ele>
        <time>2011-06-22T13:58:10Z</time>
      </trkpt>
      <trkpt lat="44.027657993137836" lon="5.364217953756452">
        <ele>784.79998779296875</ele>
        <time>2011-06-22T13:58:18Z</time>
      </trkpt>
      <trkpt lat="44.027031948789954" lon="5.364124998450279">
        <ele>783.4000244140625</ele>
        <time>2011-06-22T13:58:28Z</time>
      </trkpt>
      <trkpt lat="44.026328958570957" lon="5.363595932722092">
        <ele>781.79998779296875</ele>
        <time>2011-06-22T13:58:40Z</time>
      </trkpt>
      <trkpt lat="44.025565953925252" lon="5.363126965239644">
        <ele>779.5999755859375</ele>
        <time>2011-06-22T13:58:53Z</time>
      </trkpt>
      <trkpt lat="44.024844942614436" lon="5.362916998565197">
        <ele>778</ele>
        <time>2011-06-22T13:59:04Z</time>
      </trkpt>
      <trkpt lat="44.023961992934346" lon="5.362650956958532">
        <ele>776.4000244140625</ele>
        <time>2011-06-22T13:59:17Z</time>
      </trkpt>
      <trkpt lat="44.023253973573446" lon="5.362115940079093">
        <ele>775</ele>
        <time>2011-06-22T13:59:29Z</time>
      </trkpt>
      <trkpt lat="44.022573949769139" lon="5.361460978165269">
        <ele>773.5999755859375</ele>
        <time>2011-06-22T13:59:41Z</time>
      </trkpt>
      <trkpt lat="44.022057959809899" lon="5.36094892770052">
        <ele>772.20001220703125</ele>
        <time>2011-06-22T13:59:50Z</time>
      </trkpt>
      <trkpt lat="44.021348934620619" lon="5.360600994899869">
        <ele>770.5999755859375</ele>
        <time>2011-06-22T14:00:01Z</time>
      </trkpt>
      <trkpt lat="44.020772930234671" lon="5.360620943829417">
        <ele>769.4000244140625</ele>
        <time>2011-06-22T14:00:09Z</time>
      </trkpt>
      <trkpt lat="44.020213941112161" lon="5.360601916909218">
        <ele>767.79998779296875</ele>
        <time>2011-06-22T14:00:17Z</time>
      </trkpt>
      <trkpt lat="44.019706919789314" lon="5.360321961343288">
        <ele>767</ele>
        <time>2011-06-22T14:00:25Z</time>
      </trkpt>
      <trkpt lat="44.019225966185331" lon="5.360014932230115">
        <ele>766</ele>
        <time>2011-06-22T14:00:32Z</time>
      </trkpt>
      <trkpt lat="44.018608974292874" lon="5.359671944752336">
        <ele>764.20001220703125</ele>
        <time>2011-06-22T14:00:40Z</time>
      </trkpt>
      <trkpt lat="44.017937919124961" lon="5.359302973374724">
        <ele>762.79998779296875</ele>
        <time>2011-06-22T14:00:48Z</time>
      </trkpt>
      <trkpt lat="44.01716192252934" lon="5.358878932893276">
        <ele>760</ele>
        <time>2011-06-22T14:00:57Z</time>
      </trkpt>
      <trkpt lat="44.016475947573781" lon="5.358501998707652">
        <ele>758</ele>
        <time>2011-06-22T14:01:05Z</time>
      </trkpt>
      <trkpt lat="44.015736998990178" lon="5.358095979318023">
        <ele>755.20001220703125</ele>
        <time>2011-06-22T14:01:14Z</time>
      </trkpt>
      <trkpt lat="44.015101986005902" lon="5.35774695686996">
        <ele>753.20001220703125</ele>
        <time>2011-06-22T14:01:22Z</time>
      </trkpt>
      <trkpt lat="44.014431936666369" lon="5.357380919158459">
        <ele>751</ele>
        <time>2011-06-22T14:01:31Z</time>
      </trkpt>
      <trkpt lat="44.013931956142187" lon="5.357048995792866">
        <ele>749.4000244140625</ele>
        <time>2011-06-22T14:01:38Z</time>
      </trkpt>
      <trkpt lat="44.01335695758462" lon="5.356605928391218">
        <ele>747.5999755859375</ele>
        <time>2011-06-22T14:01:46Z</time>
      </trkpt>
      <trkpt lat="44.012700989842415" lon="5.356096979230642">
        <ele>745.5999755859375</ele>
        <time>2011-06-22T14:01:55Z</time>
      </trkpt>
      <trkpt lat="44.012320954352617" lon="5.355717949569225">
        <ele>745</ele>
        <time>2011-06-22T14:02:01Z</time>
      </trkpt>
      <trkpt lat="44.012000933289528" lon="5.355258956551552">
        <ele>744.79998779296875</ele>
        <time>2011-06-22T14:02:07Z</time>
      </trkpt>
      <trkpt lat="44.011559961363673" lon="5.35459091886878">
        <ele>744.20001220703125</ele>
        <time>2011-06-22T14:02:16Z</time>
      </trkpt>
      <trkpt lat="44.011207921430469" lon="5.354052968323231">
        <ele>743.5999755859375</ele>
        <time>2011-06-22T14:02:24Z</time>
      </trkpt>
      <trkpt lat="44.010744988918304" lon="5.353367999196053">
        <ele>742.5999755859375</ele>
        <time>2011-06-22T14:02:34Z</time>
      </trkpt>
      <trkpt lat="44.01030695065856" lon="5.352710941806436">
        <ele>741.20001220703125</ele>
        <time>2011-06-22T14:02:43Z</time>
      </trkpt>
      <trkpt lat="44.009798923507333" lon="5.351939974352717">
        <ele>740.20001220703125</ele>
        <time>2011-06-22T14:02:53Z</time>
      </trkpt>
      <trkpt lat="44.009422995150089" lon="5.351371932774782">
        <ele>740.20001220703125</ele>
        <time>2011-06-22T14:03:01Z</time>
      </trkpt>
      <trkpt lat="44.009044971317053" lon="5.350798945873976">
        <ele>740.4000244140625</ele>
        <time>2011-06-22T14:03:10Z</time>
      </trkpt>
      <trkpt lat="44.008561922237277" lon="5.350067960098386">
        <ele>740.4000244140625</ele>
        <time>2011-06-22T14:03:22Z</time>
      </trkpt>
      <trkpt lat="44.00817995890975" lon="5.349542917683721">
        <ele>740.5999755859375</ele>
        <time>2011-06-22T14:03:31Z</time>
      </trkpt>
      <trkpt lat="44.007615940645337" lon="5.349306967109442">
        <ele>740.5999755859375</ele>
        <time>2011-06-22T14:03:41Z</time>
      </trkpt>
      <trkpt lat="44.007146973162889" lon="5.349442921578884">
        <ele>740.79998779296875</ele>
        <time>2011-06-22T14:03:49Z</time>
      </trkpt>
      <trkpt lat="44.006268968805671" lon="5.349766965955496">
        <ele>742.79998779296875</ele>
        <time>2011-06-22T14:04:06Z</time>
      </trkpt>
      <trkpt lat="44.00566597469151" lon="5.349754979833961">
        <ele>743.79998779296875</ele>
        <time>2011-06-22T14:04:19Z</time>
      </trkpt>
      <trkpt lat="44.00495694950223" lon="5.349132958799601">
        <ele>745.20001220703125</ele>
        <time>2011-06-22T14:04:37Z</time>
      </trkpt>
      <trkpt lat="44.004536932334304" lon="5.348703972995281">
        <ele>745</ele>
        <time>2011-06-22T14:04:49Z</time>
      </trkpt>
      <trkpt lat="44.004177935421467" lon="5.348375989124179">
        <ele>744.79998779296875</ele>
        <time>2011-06-22T14:07:08Z</time>
      </trkpt>
      <trkpt lat="44.003613917157054" lon="5.34784197807312">
        <ele>743.4000244140625</ele>
        <time>2011-06-22T14:07:19Z</time>
      </trkpt>
      <trkpt lat="44.00310798548162" lon="5.347357923164964">
        <ele>740.79998779296875</ele>
        <time>2011-06-22T14:07:27Z</time>
      </trkpt>
      <trkpt lat="44.002622924745083" lon="5.346900941804051">
        <ele>737.79998779296875</ele>
        <time>2011-06-22T14:07:33Z</time>
      </trkpt>
      <trkpt lat="44.001998975872993" lon="5.346314962953329">
        <ele>733.20001220703125</ele>
        <time>2011-06-22T14:07:40Z</time>
      </trkpt>
      <trkpt lat="44.001517938449979" lon="5.345941968262196">
        <ele>729.5999755859375</ele>
        <time>2011-06-22T14:07:45Z</time>
      </trkpt>
      <trkpt lat="44.000851996243" lon="5.34543595276773">
        <ele>725.20001220703125</ele>
        <time>2011-06-22T14:07:52Z</time>
      </trkpt>
      <trkpt lat="43.999904925003648" lon="5.344801945611835">
        <ele>721.4000244140625</ele>
        <time>2011-06-22T14:08:02Z</time>
      </trkpt>
      <trkpt lat="43.999194977805018" lon="5.344548979774118">
        <ele>716.79998779296875</ele>
        <time>2011-06-22T14:08:09Z</time>
      </trkpt>
      <trkpt lat="43.998637916520238" lon="5.344121921807528">
        <ele>714.20001220703125</ele>
        <time>2011-06-22T14:08:15Z</time>
      </trkpt>
      <trkpt lat="43.998203985393047" lon="5.343451956287026">
        <ele>710.79998779296875</ele>
        <time>2011-06-22T14:08:21Z</time>
      </trkpt>
      <trkpt lat="43.997693946585059" lon="5.342683922499418">
        <ele>707</ele>
        <time>2011-06-22T14:08:28Z</time>
      </trkpt>
      <trkpt lat="43.997428994625807" lon="5.34201898612082">
        <ele>704.79998779296875</ele>
        <time>2011-06-22T14:08:33Z</time>
      </trkpt>
      <trkpt lat="43.997075948864222" lon="5.341430995613337">
        <ele>702.79998779296875</ele>
        <time>2011-06-22T14:08:38Z</time>
      </trkpt>
      <trkpt lat="43.996696919202805" lon="5.341006955131888">
        <ele>699.79998779296875</ele>
        <time>2011-06-22T14:08:43Z</time>
      </trkpt>
      <trkpt lat="43.995992923155427" lon="5.339774983003736">
        <ele>693.20001220703125</ele>
        <time>2011-06-22T14:08:54Z</time>
      </trkpt>
      <trkpt lat="43.995583970099688" lon="5.339012984186411">
        <ele>688.79998779296875</ele>
        <time>2011-06-22T14:09:00Z</time>
      </trkpt>
      <trkpt lat="43.995044929906726" lon="5.338026937097311">
        <ele>685.4000244140625</ele>
        <time>2011-06-22T14:09:08Z</time>
      </trkpt>
      <trkpt lat="43.994688950479031" lon="5.337374992668629">
        <ele>683.79998779296875</ele>
        <time>2011-06-22T14:09:14Z</time>
      </trkpt>
      <trkpt lat="43.99438695050776" lon="5.336704943329096">
        <ele>683.5999755859375</ele>
        <time>2011-06-22T14:09:20Z</time>
      </trkpt>
      <trkpt lat="43.994133984670043" lon="5.336158946156502">
        <ele>683.4000244140625</ele>
        <time>2011-06-22T14:09:25Z</time>
      </trkpt>
      <trkpt lat="43.993879929184914" lon="5.335614960640669">
        <ele>682.5999755859375</ele>
        <time>2011-06-22T14:09:30Z</time>
      </trkpt>
      <trkpt lat="43.993407944217324" lon="5.334621956571937">
        <ele>679.79998779296875</ele>
        <time>2011-06-22T14:09:39Z</time>
      </trkpt>
      <trkpt lat="43.993254974484444" lon="5.333900945261121">
        <ele>677.5999755859375</ele>
        <time>2011-06-22T14:09:45Z</time>
      </trkpt>
      <trkpt lat="43.992823977023363" lon="5.333151938393712">
        <ele>674.5999755859375</ele>
        <time>2011-06-22T14:09:53Z</time>
      </trkpt>
      <trkpt lat="43.99253698065877" lon="5.33250099979341">
        <ele>672</ele>
        <time>2011-06-22T14:09:59Z</time>
      </trkpt>
      <trkpt lat="43.99230295792222" lon="5.33179197460413">
        <ele>669.79998779296875</ele>
        <time>2011-06-22T14:10:05Z</time>
      </trkpt>
      <trkpt lat="43.992097936570644" lon="5.331191997975111">
        <ele>667.79998779296875</ele>
        <time>2011-06-22T14:10:10Z</time>
      </trkpt>
      <trkpt lat="43.991583958268166" lon="5.330366967245936">
        <ele>664.5999755859375</ele>
        <time>2011-06-22T14:10:18Z</time>
      </trkpt>
      <trkpt lat="43.991236947476864" lon="5.329706976190209">
        <ele>662</ele>
        <time>2011-06-22T14:10:24Z</time>
      </trkpt>
      <trkpt lat="43.990872921422124" lon="5.329082943499088">
        <ele>659.79998779296875</ele>
        <time>2011-06-22T14:10:30Z</time>
      </trkpt>
      <trkpt lat="43.990417951717973" lon="5.328383976593614">
        <ele>657.4000244140625</ele>
        <time>2011-06-22T14:10:37Z</time>
      </trkpt>
      <trkpt lat="43.989937920123339" lon="5.327753992751241">
        <ele>655.5999755859375</ele>
        <time>2011-06-22T14:10:44Z</time>
      </trkpt>
      <trkpt lat="43.989465935155749" lon="5.32747395336628">
        <ele>653.4000244140625</ele>
        <time>2011-06-22T14:10:50Z</time>
      </trkpt>
      <trkpt lat="43.988989926874638" lon="5.32749792560935">
        <ele>650.5999755859375</ele>
        <time>2011-06-22T14:10:56Z</time>
      </trkpt>
      <trkpt lat="43.988445941358805" lon="5.327342944219708">
        <ele>648</ele>
        <time>2011-06-22T14:11:03Z</time>
      </trkpt>
      <trkpt lat="43.98815399967134" lon="5.327834961935878">
        <ele>646.79998779296875</ele>
        <time>2011-06-22T14:11:08Z</time>
      </trkpt>
      <trkpt lat="43.987592998892069" lon="5.328061943873763">
        <ele>644</ele>
        <time>2011-06-22T14:11:15Z</time>
      </trkpt>
      <trkpt lat="43.987271972000599" lon="5.328465951606631">
        <ele>642</ele>
        <time>2011-06-22T14:11:22Z</time>
      </trkpt>
      <trkpt lat="43.987204916775227" lon="5.329252928495407">
        <ele>639.79998779296875</ele>
        <time>2011-06-22T14:11:30Z</time>
      </trkpt>
      <trkpt lat="43.986740978434682" lon="5.329536991193891">
        <ele>637.5999755859375</ele>
        <time>2011-06-22T14:11:37Z</time>
      </trkpt>
      <trkpt lat="43.986163968220353" lon="5.329921972006559">
        <ele>635.4000244140625</ele>
        <time>2011-06-22T14:11:45Z</time>
      </trkpt>
      <trkpt lat="43.985476987436414" lon="5.330089945346117">
        <ele>633</ele>
        <time>2011-06-22T14:11:53Z</time>
      </trkpt>
      <trkpt lat="43.984846919775009" lon="5.330184996128082">
        <ele>630.79998779296875</ele>
        <time>2011-06-22T14:12:00Z</time>
      </trkpt>
      <trkpt lat="43.984344927594066" lon="5.33013797365129">
        <ele>628.79998779296875</ele>
        <time>2011-06-22T14:12:06Z</time>
      </trkpt>
      <trkpt lat="43.983782920986414" lon="5.329958936199546">
        <ele>626</ele>
        <time>2011-06-22T14:12:13Z</time>
      </trkpt>
      <trkpt lat="43.983165929093957" lon="5.330479955300689">
        <ele>623.4000244140625</ele>
        <time>2011-06-22T14:12:22Z</time>
      </trkpt>
      <trkpt lat="43.982510967180133" lon="5.329976957291365">
        <ele>620</ele>
        <time>2011-06-22T14:12:31Z</time>
      </trkpt>
      <trkpt lat="43.981991959735751" lon="5.329830944538117">
        <ele>617.79998779296875</ele>
        <time>2011-06-22T14:12:37Z</time>
      </trkpt>
      <trkpt lat="43.981541935354471" lon="5.329818958416581">
        <ele>616</ele>
        <time>2011-06-22T14:12:42Z</time>
      </trkpt>
      <trkpt lat="43.980985963717103" lon="5.3298369795084">
        <ele>614.5999755859375</ele>
        <time>2011-06-22T14:12:48Z</time>
      </trkpt>
      <trkpt lat="43.9805509429425" lon="5.329654924571514">
        <ele>612.79998779296875</ele>
        <time>2011-06-22T14:12:53Z</time>
      </trkpt>
      <trkpt lat="43.979871924966574" lon="5.329292993992567">
        <ele>609.20001220703125</ele>
        <time>2011-06-22T14:13:01Z</time>
      </trkpt>
      <trkpt lat="43.979096934199333" lon="5.329012954607606">
        <ele>606.20001220703125</ele>
        <time>2011-06-22T14:13:10Z</time>
      </trkpt>
      <trkpt lat="43.978407941758633" lon="5.328528983518481">
        <ele>602.5999755859375</ele>
        <time>2011-06-22T14:13:19Z</time>
      </trkpt>
      <trkpt lat="43.977644937112927" lon="5.328340977430344">
        <ele>599.20001220703125</ele>
        <time>2011-06-22T14:13:28Z</time>
      </trkpt>
      <trkpt lat="43.977213939651847" lon="5.327987931668758">
        <ele>597.20001220703125</ele>
        <time>2011-06-22T14:13:34Z</time>
      </trkpt>
      <trkpt lat="43.976893918588758" lon="5.327406981959939">
        <ele>594.4000244140625</ele>
        <time>2011-06-22T14:13:41Z</time>
      </trkpt>
      <trkpt lat="43.976268963888288" lon="5.327944932505488">
        <ele>591.79998779296875</ele>
        <time>2011-06-22T14:13:50Z</time>
      </trkpt>
      <trkpt lat="43.975616935640574" lon="5.328104943037033">
        <ele>589.5999755859375</ele>
        <time>2011-06-22T14:13:58Z</time>
      </trkpt>
      <trkpt lat="43.974926937371492" lon="5.328004946932197">
        <ele>586.79998779296875</ele>
        <time>2011-06-22T14:14:06Z</time>
      </trkpt>
      <trkpt lat="43.97399595938623" lon="5.328112989664078">
        <ele>583.20001220703125</ele>
        <time>2011-06-22T14:14:16Z</time>
      </trkpt>
      <trkpt lat="43.973142933100462" lon="5.328388921916485">
        <ele>579.79998779296875</ele>
        <time>2011-06-22T14:14:25Z</time>
      </trkpt>
      <trkpt lat="43.972612945362926" lon="5.328704919666052">
        <ele>577.4000244140625</ele>
        <time>2011-06-22T14:14:31Z</time>
      </trkpt>
      <trkpt lat="43.972252942621708" lon="5.329147987067699">
        <ele>575.4000244140625</ele>
        <time>2011-06-22T14:14:36Z</time>
      </trkpt>
      <trkpt lat="43.97184994071722" lon="5.329421991482377">
        <ele>573.20001220703125</ele>
        <time>2011-06-22T14:14:41Z</time>
      </trkpt>
      <trkpt lat="43.971397988498211" lon="5.329508995637298">
        <ele>571</ele>
        <time>2011-06-22T14:14:46Z</time>
      </trkpt>
      <trkpt lat="43.970769932493567" lon="5.329420985653997">
        <ele>568</ele>
        <time>2011-06-22T14:14:53Z</time>
      </trkpt>
      <trkpt lat="43.970311945304275" lon="5.329348985105753">
        <ele>566.4000244140625</ele>
        <time>2011-06-22T14:14:58Z</time>
      </trkpt>
      <trkpt lat="43.969292957335711" lon="5.329710999503732">
        <ele>562.20001220703125</ele>
        <time>2011-06-22T14:15:09Z</time>
      </trkpt>
      <trkpt lat="43.968759952113032" lon="5.329680992290378">
        <ele>560</ele>
        <time>2011-06-22T14:15:15Z</time>
      </trkpt>
      <trkpt lat="43.96798194386065" lon="5.328561924397945">
        <ele>554.4000244140625</ele>
        <time>2011-06-22T14:15:27Z</time>
      </trkpt>
      <trkpt lat="43.967567961663008" lon="5.327690960839391">
        <ele>551.79998779296875</ele>
        <time>2011-06-22T14:15:35Z</time>
      </trkpt>
      <trkpt lat="43.967427983880043" lon="5.326939942315221">
        <ele>549.5999755859375</ele>
        <time>2011-06-22T14:15:41Z</time>
      </trkpt>
      <trkpt lat="43.967444999143481" lon="5.325984992086887">
        <ele>546.79998779296875</ele>
        <time>2011-06-22T14:15:49Z</time>
      </trkpt>
      <trkpt lat="43.967516999691725" lon="5.32534796744585">
        <ele>545</ele>
        <time>2011-06-22T14:15:55Z</time>
      </trkpt>
      <trkpt lat="43.966833958402276" lon="5.324842957779765">
        <ele>541.4000244140625</ele>
        <time>2011-06-22T14:16:04Z</time>
      </trkpt>
      <trkpt lat="43.966532964259386" lon="5.323713999241591">
        <ele>538.20001220703125</ele>
        <time>2011-06-22T14:16:14Z</time>
      </trkpt>
      <trkpt lat="43.966275975108147" lon="5.322863990440965">
        <ele>535.20001220703125</ele>
        <time>2011-06-22T14:16:22Z</time>
      </trkpt>
      <trkpt lat="43.966130968183279" lon="5.322062931954861">
        <ele>532.79998779296875</ele>
        <time>2011-06-22T14:16:29Z</time>
      </trkpt>
      <trkpt lat="43.966256948187947" lon="5.320921987295151">
        <ele>529.4000244140625</ele>
        <time>2011-06-22T14:16:39Z</time>
      </trkpt>
      <trkpt lat="43.965819999575615" lon="5.320157976821065">
        <ele>527</ele>
        <time>2011-06-22T14:16:47Z</time>
      </trkpt>
      <trkpt lat="43.965566949918866" lon="5.31868795864284">
        <ele>522.79998779296875</ele>
        <time>2011-06-22T14:16:59Z</time>
      </trkpt>
      <trkpt lat="43.965364946052432" lon="5.318110948428512">
        <ele>521.20001220703125</ele>
        <time>2011-06-22T14:17:04Z</time>
      </trkpt>
      <trkpt lat="43.965140981599689" lon="5.317392954602838">
        <ele>518.5999755859375</ele>
        <time>2011-06-22T14:17:10Z</time>
      </trkpt>
      <trkpt lat="43.964894972741604" lon="5.316822985187173">
        <ele>517.4000244140625</ele>
        <time>2011-06-22T14:17:15Z</time>
      </trkpt>
      <trkpt lat="43.964341934770346" lon="5.316091999411583">
        <ele>514.5999755859375</ele>
        <time>2011-06-22T14:17:23Z</time>
      </trkpt>
      <trkpt lat="43.963846983388066" lon="5.315548935905099">
        <ele>511.79998779296875</ele>
        <time>2011-06-22T14:17:30Z</time>
      </trkpt>
      <trkpt lat="43.963466947898269" lon="5.314995981752873">
        <ele>508.79998779296875</ele>
        <time>2011-06-22T14:17:37Z</time>
      </trkpt>
      <trkpt lat="43.962784996256232" lon="5.315124979242683">
        <ele>507.20001220703125</ele>
        <time>2011-06-22T14:17:45Z</time>
      </trkpt>
      <trkpt lat="43.962645940482616" lon="5.315796956419945">
        <ele>504</ele>
        <time>2011-06-22T14:17:51Z</time>
      </trkpt>
      <trkpt lat="43.962729927152395" lon="5.316690970212221">
        <ele>501.60000610351562</ele>
        <time>2011-06-22T14:17:58Z</time>
      </trkpt>
      <trkpt lat="43.963162936270237" lon="5.317303938791156">
        <ele>499</ele>
        <time>2011-06-22T14:18:05Z</time>
      </trkpt>
      <trkpt lat="43.963655959814787" lon="5.317680956795812">
        <ele>496.79998779296875</ele>
        <time>2011-06-22T14:18:11Z</time>
      </trkpt>
      <trkpt lat="43.96374799311161" lon="5.31885995529592">
        <ele>493.20001220703125</ele>
        <time>2011-06-22T14:18:20Z</time>
      </trkpt>
      <trkpt lat="43.96379099227488" lon="5.320065943524241">
        <ele>490.60000610351562</ele>
        <time>2011-06-22T14:18:29Z</time>
      </trkpt>
      <trkpt lat="43.963627964258194" lon="5.320952916517854">
        <ele>487.79998779296875</ele>
        <time>2011-06-22T14:18:36Z</time>
      </trkpt>
      <trkpt lat="43.963328981772065" lon="5.321709970012307">
        <ele>485.39999389648437</ele>
        <time>2011-06-22T14:18:43Z</time>
      </trkpt>
      <trkpt lat="43.962464975193143" lon="5.321517940610647">
        <ele>481.39999389648438</ele>
        <time>2011-06-22T14:18:53Z</time>
      </trkpt>
      <trkpt lat="43.96190095692873" lon="5.321662947535515">
        <ele>479</ele>
        <time>2011-06-22T14:19:00Z</time>
      </trkpt>
      <trkpt lat="43.961356971412897" lon="5.322411954402924">
        <ele>476</ele>
        <time>2011-06-22T14:19:09Z</time>
      </trkpt>
      <trkpt lat="43.961134934797883" lon="5.323824975639582">
        <ele>473.39999389648437</ele>
        <time>2011-06-22T14:19:20Z</time>
      </trkpt>
      <trkpt lat="43.961037956178188" lon="5.324482955038548">
        <ele>471.60000610351562</ele>
        <time>2011-06-22T14:19:25Z</time>
      </trkpt>
      <trkpt lat="43.961185980588198" lon="5.325105981901288">
        <ele>469.79998779296875</ele>
        <time>2011-06-22T14:19:30Z</time>
      </trkpt>
      <trkpt lat="43.961562998592854" lon="5.325735965743661">
        <ele>467.79998779296875</ele>
        <time>2011-06-22T14:19:36Z</time>
      </trkpt>
      <trkpt lat="43.961964994668961" lon="5.326102925464511">
        <ele>465.60000610351562</ele>
        <time>2011-06-22T14:19:41Z</time>
      </trkpt>
      <trkpt lat="43.962369924411178" lon="5.326500982046127">
        <ele>463.79998779296875</ele>
        <time>2011-06-22T14:19:46Z</time>
      </trkpt>
      <trkpt lat="43.962788935750723" lon="5.327548971399665">
        <ele>460.20001220703125</ele>
        <time>2011-06-22T14:19:55Z</time>
      </trkpt>
      <trkpt lat="43.962816931307316" lon="5.32835497520864">
        <ele>457.20001220703125</ele>
        <time>2011-06-22T14:20:01Z</time>
      </trkpt>
      <trkpt lat="43.962966967374086" lon="5.328988982364535">
        <ele>455.39999389648437</ele>
        <time>2011-06-22T14:20:06Z</time>
      </trkpt>
      <trkpt lat="43.963417997583747" lon="5.329746957868338">
        <ele>452.79998779296875</ele>
        <time>2011-06-22T14:20:13Z</time>
      </trkpt>
      <trkpt lat="43.963561998680234" lon="5.330397980287671">
        <ele>450.79998779296875</ele>
        <time>2011-06-22T14:20:18Z</time>
      </trkpt>
      <trkpt lat="43.963627964258194" lon="5.331214964389801">
        <ele>449</ele>
        <time>2011-06-22T14:20:24Z</time>
      </trkpt>
      <trkpt lat="43.963841954246163" lon="5.33224493265152">
        <ele>446</ele>
        <time>2011-06-22T14:20:32Z</time>
      </trkpt>
      <trkpt lat="43.964060973376036" lon="5.333245983347297">
        <ele>442.79998779296875</ele>
        <time>2011-06-22T14:20:40Z</time>
      </trkpt>
      <trkpt lat="43.964202962815762" lon="5.333953918889165">
        <ele>441.20001220703125</ele>
        <time>2011-06-22T14:20:46Z</time>
      </trkpt>
      <trkpt lat="43.963959971442819" lon="5.334961926564574">
        <ele>440.39999389648437</ele>
        <time>2011-06-22T14:20:57Z</time>
      </trkpt>
      <trkpt lat="43.963983943685889" lon="5.335773965343833">
        <ele>440.60000610351562</ele>
        <time>2011-06-22T14:21:06Z</time>
      </trkpt>
      <trkpt lat="43.963409950956702" lon="5.336078982800245">
        <ele>442.60000610351562</ele>
        <time>2011-06-22T14:21:18Z</time>
      </trkpt>
      <trkpt lat="43.963053971529007" lon="5.336552979424596">
        <ele>443.79998779296875</ele>
        <time>2011-06-22T14:21:29Z</time>
      </trkpt>
      <trkpt lat="43.962413929402828" lon="5.3366719186306">
        <ele>446.79998779296875</ele>
        <time>2011-06-22T14:21:46Z</time>
      </trkpt>
      <trkpt lat="43.961903974413872" lon="5.337086990475655">
        <ele>448</ele>
        <time>2011-06-22T14:22:02Z</time>
      </trkpt>
      <trkpt lat="43.961310954764485" lon="5.337674980983138">
        <ele>449</ele>
        <time>2011-06-22T14:22:19Z</time>
      </trkpt>
      <trkpt lat="43.960598995909095" lon="5.338098937645555">
        <ele>449.79998779296875</ele>
        <time>2011-06-22T14:22:36Z</time>
      </trkpt>
      <trkpt lat="43.960085939615965" lon="5.338266994804144">
        <ele>450.79998779296875</ele>
        <time>2011-06-22T14:22:48Z</time>
      </trkpt>
      <trkpt lat="43.959541954100132" lon="5.33853798173368">
        <ele>452</ele>
        <time>2011-06-22T14:23:02Z</time>
      </trkpt>
      <trkpt lat="43.95915194414556" lon="5.339005943387747">
        <ele>451.79998779296875</ele>
        <time>2011-06-22T14:23:14Z</time>
      </trkpt>
      <trkpt lat="43.958563953638077" lon="5.33952796831727">
        <ele>452.79998779296875</ele>
        <time>2011-06-22T14:23:29Z</time>
      </trkpt>
      <trkpt lat="43.957847971469164" lon="5.340018980205059">
        <ele>454.20001220703125</ele>
        <time>2011-06-22T14:23:49Z</time>
      </trkpt>
      <trkpt lat="43.957403982058167" lon="5.340671930462122">
        <ele>455.60000610351562</ele>
        <time>2011-06-22T14:24:04Z</time>
      </trkpt>
      <trkpt lat="43.956811968237162" lon="5.341209964826703">
        <ele>457</ele>
        <time>2011-06-22T14:24:20Z</time>
      </trkpt>
      <trkpt lat="43.956255996599793" lon="5.341684967279434">
        <ele>458.39999389648438</ele>
        <time>2011-06-22T14:24:35Z</time>
      </trkpt>
      <trkpt lat="43.955478994175792" lon="5.342200957238674">
        <ele>460.20001220703125</ele>
        <time>2011-06-22T14:24:56Z</time>
      </trkpt>
      <trkpt lat="43.954766951501369" lon="5.342348981648684">
        <ele>461.60000610351562</ele>
        <time>2011-06-22T14:25:13Z</time>
      </trkpt>
      <trkpt lat="43.954248949885368" lon="5.342441936954856">
        <ele>462.20001220703125</ele>
        <time>2011-06-22T14:25:25Z</time>
      </trkpt>
      <trkpt lat="43.953485945239663" lon="5.34251494333148">
        <ele>464</ele>
        <time>2011-06-22T14:25:43Z</time>
      </trkpt>
      <trkpt lat="43.952719923108816" lon="5.342329954728484">
        <ele>465.60000610351562</ele>
        <time>2011-06-22T14:26:02Z</time>
      </trkpt>
      <trkpt lat="43.952116928994656" lon="5.341940950602293">
        <ele>466.60000610351562</ele>
        <time>2011-06-22T14:26:18Z</time>
      </trkpt>
      <trkpt lat="43.951450986787677" lon="5.342467920854688">
        <ele>465.60000610351562</ele>
        <time>2011-06-22T14:26:35Z</time>
      </trkpt>
      <trkpt lat="43.951146975159645" lon="5.343168983235955">
        <ele>464.39999389648438</ele>
        <time>2011-06-22T14:26:45Z</time>
      </trkpt>
      <trkpt lat="43.951173964887857" lon="5.344149917364121">
        <ele>462.39999389648437</ele>
        <time>2011-06-22T14:26:56Z</time>
      </trkpt>
      <trkpt lat="43.951254934072495" lon="5.344999926164746">
        <ele>460.60000610351562</ele>
        <time>2011-06-22T14:27:05Z</time>
      </trkpt>
      <trkpt lat="43.950763922184706" lon="5.345881953835487">
        <ele>458.79998779296875</ele>
        <time>2011-06-22T14:27:17Z</time>
      </trkpt>
      <trkpt lat="43.950659986585379" lon="5.346945952624083">
        <ele>456.60000610351562</ele>
        <time>2011-06-22T14:27:28Z</time>
      </trkpt>
      <trkpt lat="43.950615981593728" lon="5.347740976139903">
        <ele>454.79998779296875</ele>
        <time>2011-06-22T14:27:36Z</time>
      </trkpt>
      <trkpt lat="43.950693933293223" lon="5.348436925560236">
        <ele>454</ele>
        <time>2011-06-22T14:27:43Z</time>
      </trkpt>
      <trkpt lat="43.950203927233815" lon="5.349183920770884">
        <ele>452</ele>
        <time>2011-06-22T14:27:54Z</time>
      </trkpt>
      <trkpt lat="43.950031930580735" lon="5.350112970918417">
        <ele>449.60000610351562</ele>
        <time>2011-06-22T14:28:04Z</time>
      </trkpt>
      <trkpt lat="43.950229994952679" lon="5.350984940305352">
        <ele>448</ele>
        <time>2011-06-22T14:28:13Z</time>
      </trkpt>
      <trkpt lat="43.949930928647518" lon="5.351618947461247">
        <ele>447</ele>
        <time>2011-06-22T14:28:21Z</time>
      </trkpt>
      <trkpt lat="43.949459949508309" lon="5.352629972621799">
        <ele>444.39999389648438</ele>
        <time>2011-06-22T14:28:33Z</time>
      </trkpt>
      <trkpt lat="43.949338998645544" lon="5.353626916185021">
        <ele>443</ele>
        <time>2011-06-22T14:28:43Z</time>
      </trkpt>
      <trkpt lat="43.949497919529676" lon="5.35459091886878">
        <ele>441</ele>
        <time>2011-06-22T14:28:53Z</time>
      </trkpt>
      <trkpt lat="43.949846941977739" lon="5.355269936844707">
        <ele>439.39999389648437</ele>
        <time>2011-06-22T14:29:01Z</time>
      </trkpt>
      <trkpt lat="43.949545947834849" lon="5.355681991204619">
        <ele>437.79998779296875</ele>
        <time>2011-06-22T14:29:07Z</time>
      </trkpt>
      <trkpt lat="43.949103970080614" lon="5.355862956494093">
        <ele>436.79998779296875</ele>
        <time>2011-06-22T14:29:13Z</time>
      </trkpt>
      <trkpt lat="43.948747990652919" lon="5.356483971700072">
        <ele>435.20001220703125</ele>
        <time>2011-06-22T14:29:21Z</time>
      </trkpt>
      <trkpt lat="43.948785960674286" lon="5.357332974672318">
        <ele>433.79998779296875</ele>
        <time>2011-06-22T14:29:29Z</time>
      </trkpt>
      <trkpt lat="43.948711948469281" lon="5.357959941029549">
        <ele>432.39999389648437</ele>
        <time>2011-06-22T14:29:35Z</time>
      </trkpt>
      <trkpt lat="43.948786966502666" lon="5.358675923198462">
        <ele>431.39999389648437</ele>
        <time>2011-06-22T14:29:42Z</time>
      </trkpt>
      <trkpt lat="43.948611952364445" lon="5.359262991696596">
        <ele>430</ele>
        <time>2011-06-22T14:29:49Z</time>
      </trkpt>
      <trkpt lat="43.948515979573131" lon="5.360001940280199">
        <ele>428.39999389648437</ele>
        <time>2011-06-22T14:29:57Z</time>
      </trkpt>
      <trkpt lat="43.947974927723408" lon="5.361280934885144">
        <ele>425.39999389648437</ele>
        <time>2011-06-22T14:30:12Z</time>
      </trkpt>
      <trkpt lat="43.947436977177858" lon="5.362892942503095">
        <ele>422.20001220703125</ele>
        <time>2011-06-22T14:30:29Z</time>
      </trkpt>
      <trkpt lat="43.947020983323455" lon="5.363807994872332">
        <ele>420.20001220703125</ele>
        <time>2011-06-22T14:30:39Z</time>
      </trkpt>
      <trkpt lat="43.946740943938494" lon="5.36488096229732">
        <ele>418</ele>
        <time>2011-06-22T14:30:50Z</time>
      </trkpt>
      <trkpt lat="43.946747984737158" lon="5.365859968587756">
        <ele>416</ele>
        <time>2011-06-22T14:30:59Z</time>
      </trkpt>
      <trkpt lat="43.946759970858693" lon="5.366837969049811">
        <ele>414.60000610351562</ele>
        <time>2011-06-22T14:31:08Z</time>
      </trkpt>
      <trkpt lat="43.946758965030313" lon="5.367316994816065">
        <ele>413.39999389648437</ele>
        <time>2011-06-22T14:31:13Z</time>
      </trkpt>
    </trkseg>
  </trk>

</gpx>
